<?xml version="1.0" encoding="UTF-8" standalone="no" ?>
<gpx xmlns="http://www.topografix.com/GPX/1/1" xmlns:xsi="http://www.w3.org/2001/XMLSchema-instance" xsi:schemaLocation="http://www.topografix.com/GPX/1/1 http://www.topografix.com/GPX/1/1/gpx.xsd" version="1.1" creator="VisuGPX - https://www.visugpx.com">
  <metadata>
    <name>Ascension du Mont Chiran au départ de La Palud sur Verdon</name>
    <desc><![CDATA[Verdon : le Chiran]]></desc>
  </metadata>
  <trk>
    <name><![CDATA[10/07/2021 09:45]]></name>
    <trkseg>
      <trkpt lat="43.78036" lon="6.34843">
        <ele>953.8</ele>
        <time>2021-07-10T07:45:12Z</time>
      </trkpt>
      <trkpt lat="43.78036" lon="6.34843">
        <ele>953.8</ele>
        <time>2021-07-10T07:45:13Z</time>
      </trkpt>
      <trkpt lat="43.78035" lon="6.3484">
        <ele>956.6</ele>
        <time>2021-07-10T07:46:00Z</time>
      </trkpt>
      <trkpt lat="43.78034" lon="6.3484">
        <ele>957.7</ele>
        <time>2021-07-10T07:46:07Z</time>
      </trkpt>
      <trkpt lat="43.78035" lon="6.34842">
        <ele>958.3</ele>
        <time>2021-07-10T07:46:13Z</time>
      </trkpt>
      <trkpt lat="43.78035" lon="6.34843">
        <ele>958.9</ele>
        <time>2021-07-10T07:46:27Z</time>
      </trkpt>
      <trkpt lat="43.78035" lon="6.34843">
        <ele>958.9</ele>
        <time>2021-07-10T07:46:28Z</time>
      </trkpt>
      <trkpt lat="43.7803" lon="6.34851">
        <ele>954.9</ele>
        <time>2021-07-10T07:46:37Z</time>
      </trkpt>
      <trkpt lat="43.7803" lon="6.34864">
        <ele>952.6</ele>
        <time>2021-07-10T07:46:41Z</time>
      </trkpt>
      <trkpt lat="43.78033" lon="6.34874">
        <ele>952.7</ele>
        <time>2021-07-10T07:46:44Z</time>
      </trkpt>
      <trkpt lat="43.78038" lon="6.34883">
        <ele>952.1</ele>
        <time>2021-07-10T07:46:48Z</time>
      </trkpt>
      <trkpt lat="43.78045" lon="6.3489">
        <ele>952</ele>
        <time>2021-07-10T07:46:52Z</time>
      </trkpt>
      <trkpt lat="43.78052" lon="6.34894">
        <ele>950.5</ele>
        <time>2021-07-10T07:46:57Z</time>
      </trkpt>
      <trkpt lat="43.78061" lon="6.3489">
        <ele>949.1</ele>
        <time>2021-07-10T07:47:03Z</time>
      </trkpt>
      <trkpt lat="43.78065" lon="6.34881">
        <ele>946.7</ele>
        <time>2021-07-10T07:47:07Z</time>
      </trkpt>
      <trkpt lat="43.78068" lon="6.34868">
        <ele>948</ele>
        <time>2021-07-10T07:47:11Z</time>
      </trkpt>
      <trkpt lat="43.78071" lon="6.34859">
        <ele>948.7</ele>
        <time>2021-07-10T07:47:14Z</time>
      </trkpt>
      <trkpt lat="43.78074" lon="6.34849">
        <ele>948.8</ele>
        <time>2021-07-10T07:47:17Z</time>
      </trkpt>
      <trkpt lat="43.78075" lon="6.34837">
        <ele>949.5</ele>
        <time>2021-07-10T07:47:21Z</time>
      </trkpt>
      <trkpt lat="43.78079" lon="6.34826">
        <ele>949.9</ele>
        <time>2021-07-10T07:47:25Z</time>
      </trkpt>
      <trkpt lat="43.78084" lon="6.34815">
        <ele>950.2</ele>
        <time>2021-07-10T07:47:29Z</time>
      </trkpt>
      <trkpt lat="43.78089" lon="6.34805">
        <ele>952.3</ele>
        <time>2021-07-10T07:47:32Z</time>
      </trkpt>
      <trkpt lat="43.78094" lon="6.34797">
        <ele>953.9</ele>
        <time>2021-07-10T07:47:35Z</time>
      </trkpt>
      <trkpt lat="43.78101" lon="6.34788">
        <ele>954.6</ele>
        <time>2021-07-10T07:47:38Z</time>
      </trkpt>
      <trkpt lat="43.78106" lon="6.3478">
        <ele>956.1</ele>
        <time>2021-07-10T07:47:41Z</time>
      </trkpt>
      <trkpt lat="43.7811" lon="6.3477">
        <ele>957.8</ele>
        <time>2021-07-10T07:47:44Z</time>
      </trkpt>
      <trkpt lat="43.78113" lon="6.34761">
        <ele>957.7</ele>
        <time>2021-07-10T07:47:47Z</time>
      </trkpt>
      <trkpt lat="43.78114" lon="6.34751">
        <ele>958.2</ele>
        <time>2021-07-10T07:47:50Z</time>
      </trkpt>
      <trkpt lat="43.78117" lon="6.34741">
        <ele>957.6</ele>
        <time>2021-07-10T07:47:53Z</time>
      </trkpt>
      <trkpt lat="43.7812" lon="6.34731">
        <ele>958</ele>
        <time>2021-07-10T07:47:56Z</time>
      </trkpt>
      <trkpt lat="43.78125" lon="6.34722">
        <ele>958.1</ele>
        <time>2021-07-10T07:47:59Z</time>
      </trkpt>
      <trkpt lat="43.78129" lon="6.34712">
        <ele>958.7</ele>
        <time>2021-07-10T07:48:02Z</time>
      </trkpt>
      <trkpt lat="43.78135" lon="6.34703">
        <ele>959.1</ele>
        <time>2021-07-10T07:48:05Z</time>
      </trkpt>
      <trkpt lat="43.7814" lon="6.34694">
        <ele>960.1</ele>
        <time>2021-07-10T07:48:08Z</time>
      </trkpt>
      <trkpt lat="43.78146" lon="6.34685">
        <ele>960.1</ele>
        <time>2021-07-10T07:48:11Z</time>
      </trkpt>
      <trkpt lat="43.78152" lon="6.34676">
        <ele>960.6</ele>
        <time>2021-07-10T07:48:14Z</time>
      </trkpt>
      <trkpt lat="43.78158" lon="6.34667">
        <ele>962.1</ele>
        <time>2021-07-10T07:48:17Z</time>
      </trkpt>
      <trkpt lat="43.78165" lon="6.34657">
        <ele>962.7</ele>
        <time>2021-07-10T07:48:20Z</time>
      </trkpt>
      <trkpt lat="43.78171" lon="6.34648">
        <ele>963.3</ele>
        <time>2021-07-10T07:48:23Z</time>
      </trkpt>
      <trkpt lat="43.78176" lon="6.34638">
        <ele>963.9</ele>
        <time>2021-07-10T07:48:26Z</time>
      </trkpt>
      <trkpt lat="43.78182" lon="6.34629">
        <ele>964.1</ele>
        <time>2021-07-10T07:48:29Z</time>
      </trkpt>
      <trkpt lat="43.78187" lon="6.34619">
        <ele>963.6</ele>
        <time>2021-07-10T07:48:32Z</time>
      </trkpt>
      <trkpt lat="43.78192" lon="6.34608">
        <ele>963.8</ele>
        <time>2021-07-10T07:48:35Z</time>
      </trkpt>
      <trkpt lat="43.78196" lon="6.34597">
        <ele>963.7</ele>
        <time>2021-07-10T07:48:38Z</time>
      </trkpt>
      <trkpt lat="43.78199" lon="6.34584">
        <ele>963.7</ele>
        <time>2021-07-10T07:48:41Z</time>
      </trkpt>
      <trkpt lat="43.78201" lon="6.3457">
        <ele>963.5</ele>
        <time>2021-07-10T07:48:44Z</time>
      </trkpt>
      <trkpt lat="43.78202" lon="6.34557">
        <ele>964</ele>
        <time>2021-07-10T07:48:47Z</time>
      </trkpt>
      <trkpt lat="43.78202" lon="6.34544">
        <ele>964.2</ele>
        <time>2021-07-10T07:48:50Z</time>
      </trkpt>
      <trkpt lat="43.78201" lon="6.34529">
        <ele>964.8</ele>
        <time>2021-07-10T07:48:53Z</time>
      </trkpt>
      <trkpt lat="43.78199" lon="6.34515">
        <ele>964.4</ele>
        <time>2021-07-10T07:48:56Z</time>
      </trkpt>
      <trkpt lat="43.78195" lon="6.34502">
        <ele>963.3</ele>
        <time>2021-07-10T07:48:59Z</time>
      </trkpt>
      <trkpt lat="43.78191" lon="6.34493">
        <ele>962</ele>
        <time>2021-07-10T07:49:01Z</time>
      </trkpt>
      <trkpt lat="43.78187" lon="6.34484">
        <ele>962.3</ele>
        <time>2021-07-10T07:49:03Z</time>
      </trkpt>
      <trkpt lat="43.78181" lon="6.34477">
        <ele>962.5</ele>
        <time>2021-07-10T07:49:05Z</time>
      </trkpt>
      <trkpt lat="43.78176" lon="6.3447">
        <ele>962.9</ele>
        <time>2021-07-10T07:49:07Z</time>
      </trkpt>
      <trkpt lat="43.78168" lon="6.3446">
        <ele>963.5</ele>
        <time>2021-07-10T07:49:10Z</time>
      </trkpt>
      <trkpt lat="43.78163" lon="6.34453">
        <ele>963.4</ele>
        <time>2021-07-10T07:49:12Z</time>
      </trkpt>
      <trkpt lat="43.78156" lon="6.34442">
        <ele>963.7</ele>
        <time>2021-07-10T07:49:15Z</time>
      </trkpt>
      <trkpt lat="43.78148" lon="6.34432">
        <ele>964</ele>
        <time>2021-07-10T07:49:18Z</time>
      </trkpt>
      <trkpt lat="43.78141" lon="6.34422">
        <ele>964.7</ele>
        <time>2021-07-10T07:49:21Z</time>
      </trkpt>
      <trkpt lat="43.78134" lon="6.34413">
        <ele>965.1</ele>
        <time>2021-07-10T07:49:24Z</time>
      </trkpt>
      <trkpt lat="43.78128" lon="6.34405">
        <ele>965.9</ele>
        <time>2021-07-10T07:49:27Z</time>
      </trkpt>
      <trkpt lat="43.78122" lon="6.34396">
        <ele>966.6</ele>
        <time>2021-07-10T07:49:30Z</time>
      </trkpt>
      <trkpt lat="43.78115" lon="6.34387">
        <ele>967.7</ele>
        <time>2021-07-10T07:49:34Z</time>
      </trkpt>
      <trkpt lat="43.7811" lon="6.34379">
        <ele>968.7</ele>
        <time>2021-07-10T07:49:37Z</time>
      </trkpt>
      <trkpt lat="43.78104" lon="6.34371">
        <ele>969.2</ele>
        <time>2021-07-10T07:49:40Z</time>
      </trkpt>
      <trkpt lat="43.78099" lon="6.34364">
        <ele>969.8</ele>
        <time>2021-07-10T07:49:43Z</time>
      </trkpt>
      <trkpt lat="43.78094" lon="6.34355">
        <ele>969.7</ele>
        <time>2021-07-10T07:49:46Z</time>
      </trkpt>
      <trkpt lat="43.78088" lon="6.34348">
        <ele>970.3</ele>
        <time>2021-07-10T07:49:49Z</time>
      </trkpt>
      <trkpt lat="43.78083" lon="6.3434">
        <ele>971</ele>
        <time>2021-07-10T07:49:52Z</time>
      </trkpt>
      <trkpt lat="43.78078" lon="6.34332">
        <ele>971.3</ele>
        <time>2021-07-10T07:49:55Z</time>
      </trkpt>
      <trkpt lat="43.78072" lon="6.34323">
        <ele>971</ele>
        <time>2021-07-10T07:49:58Z</time>
      </trkpt>
      <trkpt lat="43.78067" lon="6.34316">
        <ele>972.2</ele>
        <time>2021-07-10T07:50:01Z</time>
      </trkpt>
      <trkpt lat="43.78061" lon="6.34308">
        <ele>973.1</ele>
        <time>2021-07-10T07:50:04Z</time>
      </trkpt>
      <trkpt lat="43.78056" lon="6.34301">
        <ele>974.1</ele>
        <time>2021-07-10T07:50:07Z</time>
      </trkpt>
      <trkpt lat="43.78051" lon="6.34294">
        <ele>974.8</ele>
        <time>2021-07-10T07:50:10Z</time>
      </trkpt>
      <trkpt lat="43.78047" lon="6.34284">
        <ele>975</ele>
        <time>2021-07-10T07:50:13Z</time>
      </trkpt>
      <trkpt lat="43.78044" lon="6.34275">
        <ele>975.8</ele>
        <time>2021-07-10T07:50:16Z</time>
      </trkpt>
      <trkpt lat="43.78041" lon="6.34265">
        <ele>977.1</ele>
        <time>2021-07-10T07:50:19Z</time>
      </trkpt>
      <trkpt lat="43.78039" lon="6.34255">
        <ele>978.2</ele>
        <time>2021-07-10T07:50:22Z</time>
      </trkpt>
      <trkpt lat="43.78036" lon="6.34243">
        <ele>979.2</ele>
        <time>2021-07-10T07:50:26Z</time>
      </trkpt>
      <trkpt lat="43.78034" lon="6.34232">
        <ele>979.6</ele>
        <time>2021-07-10T07:50:29Z</time>
      </trkpt>
      <trkpt lat="43.78033" lon="6.34222">
        <ele>980.7</ele>
        <time>2021-07-10T07:50:32Z</time>
      </trkpt>
      <trkpt lat="43.78029" lon="6.34212">
        <ele>980.9</ele>
        <time>2021-07-10T07:50:35Z</time>
      </trkpt>
      <trkpt lat="43.78027" lon="6.34202">
        <ele>982.2</ele>
        <time>2021-07-10T07:50:38Z</time>
      </trkpt>
      <trkpt lat="43.78024" lon="6.34192">
        <ele>983.9</ele>
        <time>2021-07-10T07:50:41Z</time>
      </trkpt>
      <trkpt lat="43.78022" lon="6.34183">
        <ele>984.5</ele>
        <time>2021-07-10T07:50:44Z</time>
      </trkpt>
      <trkpt lat="43.7802" lon="6.34173">
        <ele>984.9</ele>
        <time>2021-07-10T07:50:47Z</time>
      </trkpt>
      <trkpt lat="43.78018" lon="6.34162">
        <ele>986.7</ele>
        <time>2021-07-10T07:50:50Z</time>
      </trkpt>
      <trkpt lat="43.78015" lon="6.34153">
        <ele>986.3</ele>
        <time>2021-07-10T07:50:53Z</time>
      </trkpt>
      <trkpt lat="43.78013" lon="6.34144">
        <ele>987.6</ele>
        <time>2021-07-10T07:50:56Z</time>
      </trkpt>
      <trkpt lat="43.7801" lon="6.34133">
        <ele>988.5</ele>
        <time>2021-07-10T07:50:59Z</time>
      </trkpt>
      <trkpt lat="43.78006" lon="6.34122">
        <ele>987.6</ele>
        <time>2021-07-10T07:51:02Z</time>
      </trkpt>
      <trkpt lat="43.78002" lon="6.34111">
        <ele>987</ele>
        <time>2021-07-10T07:51:05Z</time>
      </trkpt>
      <trkpt lat="43.77998" lon="6.34101">
        <ele>987.6</ele>
        <time>2021-07-10T07:51:08Z</time>
      </trkpt>
      <trkpt lat="43.77993" lon="6.3409">
        <ele>986.7</ele>
        <time>2021-07-10T07:51:11Z</time>
      </trkpt>
      <trkpt lat="43.77989" lon="6.3408">
        <ele>987.4</ele>
        <time>2021-07-10T07:51:14Z</time>
      </trkpt>
      <trkpt lat="43.77985" lon="6.34068">
        <ele>985.9</ele>
        <time>2021-07-10T07:51:18Z</time>
      </trkpt>
      <trkpt lat="43.77984" lon="6.34057">
        <ele>986.4</ele>
        <time>2021-07-10T07:51:22Z</time>
      </trkpt>
      <trkpt lat="43.77985" lon="6.3405">
        <ele>986</ele>
        <time>2021-07-10T07:51:29Z</time>
      </trkpt>
      <trkpt lat="43.77987" lon="6.34046">
        <ele>987.2</ele>
        <time>2021-07-10T07:51:36Z</time>
      </trkpt>
      <trkpt lat="43.77985" lon="6.34051">
        <ele>987.5</ele>
        <time>2021-07-10T07:51:43Z</time>
      </trkpt>
      <trkpt lat="43.77985" lon="6.34052">
        <ele>987.1</ele>
        <time>2021-07-10T07:51:47Z</time>
      </trkpt>
      <trkpt lat="43.77984" lon="6.34053">
        <ele>986.4</ele>
        <time>2021-07-10T07:51:55Z</time>
      </trkpt>
      <trkpt lat="43.77984" lon="6.34053">
        <ele>986.4</ele>
        <time>2021-07-10T07:51:56Z</time>
      </trkpt>
      <trkpt lat="43.77985" lon="6.34052">
        <ele>987.9</ele>
        <time>2021-07-10T07:52:07Z</time>
      </trkpt>
      <trkpt lat="43.77985" lon="6.34052">
        <ele>987.9</ele>
        <time>2021-07-10T07:52:08Z</time>
      </trkpt>
      <trkpt lat="43.77951" lon="6.34073">
        <ele>978</ele>
        <time>2021-07-10T07:58:22Z</time>
      </trkpt>
      <trkpt lat="43.77975" lon="6.34076">
        <ele>985.6</ele>
        <time>2021-07-10T07:58:28Z</time>
      </trkpt>
      <trkpt lat="43.77983" lon="6.34069">
        <ele>997</ele>
        <time>2021-07-10T07:58:31Z</time>
      </trkpt>
      <trkpt lat="43.77981" lon="6.34067">
        <ele>983.9</ele>
        <time>2021-07-10T07:58:38Z</time>
      </trkpt>
      <trkpt lat="43.77989" lon="6.34041">
        <ele>984.7</ele>
        <time>2021-07-10T07:58:42Z</time>
      </trkpt>
      <trkpt lat="43.77983" lon="6.34044">
        <ele>974.8</ele>
        <time>2021-07-10T07:58:49Z</time>
      </trkpt>
      <trkpt lat="43.77976" lon="6.34046">
        <ele>973</ele>
        <time>2021-07-10T07:58:56Z</time>
      </trkpt>
      <trkpt lat="43.77974" lon="6.34035">
        <ele>973.9</ele>
        <time>2021-07-10T07:59:01Z</time>
      </trkpt>
      <trkpt lat="43.7797" lon="6.3403">
        <ele>981.9</ele>
        <time>2021-07-10T07:59:08Z</time>
      </trkpt>
      <trkpt lat="43.77967" lon="6.34031">
        <ele>979.5</ele>
        <time>2021-07-10T07:59:15Z</time>
      </trkpt>
      <trkpt lat="43.77966" lon="6.34035">
        <ele>980</ele>
        <time>2021-07-10T07:59:22Z</time>
      </trkpt>
      <trkpt lat="43.77964" lon="6.34031">
        <ele>977.3</ele>
        <time>2021-07-10T07:59:29Z</time>
      </trkpt>
      <trkpt lat="43.77964" lon="6.34031">
        <ele>977.2</ele>
        <time>2021-07-10T07:59:34Z</time>
      </trkpt>
      <trkpt lat="43.77962" lon="6.34028">
        <ele>980.8</ele>
        <time>2021-07-10T08:13:50Z</time>
      </trkpt>
      <trkpt lat="43.77963" lon="6.34028">
        <ele>981.3</ele>
        <time>2021-07-10T08:13:57Z</time>
      </trkpt>
      <trkpt lat="43.77966" lon="6.34025">
        <ele>986.7</ele>
        <time>2021-07-10T08:14:07Z</time>
      </trkpt>
      <trkpt lat="43.77965" lon="6.34023">
        <ele>987.4</ele>
        <time>2021-07-10T08:14:14Z</time>
      </trkpt>
      <trkpt lat="43.77966" lon="6.34013">
        <ele>987</ele>
        <time>2021-07-10T08:14:21Z</time>
      </trkpt>
      <trkpt lat="43.77968" lon="6.3401">
        <ele>986.1</ele>
        <time>2021-07-10T08:14:28Z</time>
      </trkpt>
      <trkpt lat="43.77968" lon="6.3401">
        <ele>986.3</ele>
        <time>2021-07-10T08:14:32Z</time>
      </trkpt>
      <trkpt lat="43.77973" lon="6.34002">
        <ele>988.7</ele>
        <time>2021-07-10T08:14:41Z</time>
      </trkpt>
      <trkpt lat="43.77971" lon="6.33991">
        <ele>989.3</ele>
        <time>2021-07-10T08:14:45Z</time>
      </trkpt>
      <trkpt lat="43.77969" lon="6.33979">
        <ele>987.7</ele>
        <time>2021-07-10T08:14:49Z</time>
      </trkpt>
      <trkpt lat="43.77966" lon="6.33969">
        <ele>987.3</ele>
        <time>2021-07-10T08:14:53Z</time>
      </trkpt>
      <trkpt lat="43.77968" lon="6.33957">
        <ele>988</ele>
        <time>2021-07-10T08:14:58Z</time>
      </trkpt>
      <trkpt lat="43.77973" lon="6.33947">
        <ele>987.9</ele>
        <time>2021-07-10T08:15:02Z</time>
      </trkpt>
      <trkpt lat="43.77978" lon="6.3394">
        <ele>989.4</ele>
        <time>2021-07-10T08:15:07Z</time>
      </trkpt>
      <trkpt lat="43.77982" lon="6.3393">
        <ele>990.9</ele>
        <time>2021-07-10T08:15:11Z</time>
      </trkpt>
      <trkpt lat="43.77985" lon="6.33921">
        <ele>991.5</ele>
        <time>2021-07-10T08:15:15Z</time>
      </trkpt>
      <trkpt lat="43.77991" lon="6.33911">
        <ele>992</ele>
        <time>2021-07-10T08:15:19Z</time>
      </trkpt>
      <trkpt lat="43.77993" lon="6.33901">
        <ele>994.8</ele>
        <time>2021-07-10T08:15:23Z</time>
      </trkpt>
      <trkpt lat="43.77993" lon="6.33888">
        <ele>997</ele>
        <time>2021-07-10T08:15:27Z</time>
      </trkpt>
      <trkpt lat="43.77996" lon="6.33876">
        <ele>994.7</ele>
        <time>2021-07-10T08:15:32Z</time>
      </trkpt>
      <trkpt lat="43.77996" lon="6.33865">
        <ele>995.6</ele>
        <time>2021-07-10T08:15:36Z</time>
      </trkpt>
      <trkpt lat="43.77998" lon="6.33855">
        <ele>997.5</ele>
        <time>2021-07-10T08:15:40Z</time>
      </trkpt>
      <trkpt lat="43.77999" lon="6.33845">
        <ele>1001.6</ele>
        <time>2021-07-10T08:15:44Z</time>
      </trkpt>
      <trkpt lat="43.78" lon="6.33833">
        <ele>1002.8</ele>
        <time>2021-07-10T08:15:48Z</time>
      </trkpt>
      <trkpt lat="43.78003" lon="6.33821">
        <ele>1003</ele>
        <time>2021-07-10T08:15:52Z</time>
      </trkpt>
      <trkpt lat="43.78005" lon="6.33811">
        <ele>1004.2</ele>
        <time>2021-07-10T08:15:56Z</time>
      </trkpt>
      <trkpt lat="43.78009" lon="6.33801">
        <ele>1003.4</ele>
        <time>2021-07-10T08:16:00Z</time>
      </trkpt>
      <trkpt lat="43.78013" lon="6.33791">
        <ele>1004</ele>
        <time>2021-07-10T08:16:04Z</time>
      </trkpt>
      <trkpt lat="43.78016" lon="6.33782">
        <ele>1006.6</ele>
        <time>2021-07-10T08:16:08Z</time>
      </trkpt>
      <trkpt lat="43.7802" lon="6.33772">
        <ele>1008.2</ele>
        <time>2021-07-10T08:16:12Z</time>
      </trkpt>
      <trkpt lat="43.78026" lon="6.33763">
        <ele>1008.4</ele>
        <time>2021-07-10T08:16:16Z</time>
      </trkpt>
      <trkpt lat="43.78034" lon="6.33761">
        <ele>1007.8</ele>
        <time>2021-07-10T08:16:20Z</time>
      </trkpt>
      <trkpt lat="43.78042" lon="6.33766">
        <ele>1006.1</ele>
        <time>2021-07-10T08:16:23Z</time>
      </trkpt>
      <trkpt lat="43.7805" lon="6.33774">
        <ele>1005.3</ele>
        <time>2021-07-10T08:16:26Z</time>
      </trkpt>
      <trkpt lat="43.78057" lon="6.33779">
        <ele>1004.2</ele>
        <time>2021-07-10T08:16:29Z</time>
      </trkpt>
      <trkpt lat="43.78064" lon="6.33784">
        <ele>1004.5</ele>
        <time>2021-07-10T08:16:32Z</time>
      </trkpt>
      <trkpt lat="43.78071" lon="6.33789">
        <ele>1003.9</ele>
        <time>2021-07-10T08:16:35Z</time>
      </trkpt>
      <trkpt lat="43.78077" lon="6.33794">
        <ele>1003.1</ele>
        <time>2021-07-10T08:16:38Z</time>
      </trkpt>
      <trkpt lat="43.78084" lon="6.33799">
        <ele>1002.7</ele>
        <time>2021-07-10T08:16:41Z</time>
      </trkpt>
      <trkpt lat="43.78091" lon="6.33805">
        <ele>1003.5</ele>
        <time>2021-07-10T08:16:44Z</time>
      </trkpt>
      <trkpt lat="43.78099" lon="6.33809">
        <ele>1009</ele>
        <time>2021-07-10T08:16:48Z</time>
      </trkpt>
      <trkpt lat="43.78107" lon="6.33815">
        <ele>1009.2</ele>
        <time>2021-07-10T08:16:52Z</time>
      </trkpt>
      <trkpt lat="43.78114" lon="6.33824">
        <ele>1008.8</ele>
        <time>2021-07-10T08:16:55Z</time>
      </trkpt>
      <trkpt lat="43.7812" lon="6.33833">
        <ele>1009.8</ele>
        <time>2021-07-10T08:16:58Z</time>
      </trkpt>
      <trkpt lat="43.78127" lon="6.33839">
        <ele>1010.3</ele>
        <time>2021-07-10T08:17:01Z</time>
      </trkpt>
      <trkpt lat="43.78133" lon="6.33845">
        <ele>1010.3</ele>
        <time>2021-07-10T08:17:04Z</time>
      </trkpt>
      <trkpt lat="43.78141" lon="6.33852">
        <ele>1011.3</ele>
        <time>2021-07-10T08:17:07Z</time>
      </trkpt>
      <trkpt lat="43.78146" lon="6.33859">
        <ele>1012.1</ele>
        <time>2021-07-10T08:17:09Z</time>
      </trkpt>
      <trkpt lat="43.78152" lon="6.33866">
        <ele>1012.2</ele>
        <time>2021-07-10T08:17:11Z</time>
      </trkpt>
      <trkpt lat="43.78159" lon="6.33871">
        <ele>1010.7</ele>
        <time>2021-07-10T08:17:13Z</time>
      </trkpt>
      <trkpt lat="43.78167" lon="6.33878">
        <ele>1011.2</ele>
        <time>2021-07-10T08:17:16Z</time>
      </trkpt>
      <trkpt lat="43.78175" lon="6.33886">
        <ele>1013.5</ele>
        <time>2021-07-10T08:17:19Z</time>
      </trkpt>
      <trkpt lat="43.78181" lon="6.33894">
        <ele>1017.5</ele>
        <time>2021-07-10T08:17:22Z</time>
      </trkpt>
      <trkpt lat="43.78188" lon="6.33901">
        <ele>1017.8</ele>
        <time>2021-07-10T08:17:25Z</time>
      </trkpt>
      <trkpt lat="43.78194" lon="6.33907">
        <ele>1017.1</ele>
        <time>2021-07-10T08:17:28Z</time>
      </trkpt>
      <trkpt lat="43.78202" lon="6.33917">
        <ele>1015.9</ele>
        <time>2021-07-10T08:17:31Z</time>
      </trkpt>
      <trkpt lat="43.78207" lon="6.33925">
        <ele>1017</ele>
        <time>2021-07-10T08:17:34Z</time>
      </trkpt>
      <trkpt lat="43.78213" lon="6.33935">
        <ele>1017</ele>
        <time>2021-07-10T08:17:37Z</time>
      </trkpt>
      <trkpt lat="43.78217" lon="6.33946">
        <ele>1020.7</ele>
        <time>2021-07-10T08:17:40Z</time>
      </trkpt>
      <trkpt lat="43.78222" lon="6.33955">
        <ele>1021.6</ele>
        <time>2021-07-10T08:17:43Z</time>
      </trkpt>
      <trkpt lat="43.78227" lon="6.33967">
        <ele>1020</ele>
        <time>2021-07-10T08:17:46Z</time>
      </trkpt>
      <trkpt lat="43.78233" lon="6.33978">
        <ele>1021.7</ele>
        <time>2021-07-10T08:17:49Z</time>
      </trkpt>
      <trkpt lat="43.78237" lon="6.33988">
        <ele>1022.4</ele>
        <time>2021-07-10T08:17:52Z</time>
      </trkpt>
      <trkpt lat="43.78243" lon="6.34">
        <ele>1021.9</ele>
        <time>2021-07-10T08:17:55Z</time>
      </trkpt>
      <trkpt lat="43.7825" lon="6.34008">
        <ele>1023.3</ele>
        <time>2021-07-10T08:17:58Z</time>
      </trkpt>
      <trkpt lat="43.78256" lon="6.34015">
        <ele>1022.7</ele>
        <time>2021-07-10T08:18:00Z</time>
      </trkpt>
      <trkpt lat="43.78262" lon="6.34025">
        <ele>1023</ele>
        <time>2021-07-10T08:18:02Z</time>
      </trkpt>
      <trkpt lat="43.78267" lon="6.34033">
        <ele>1023.1</ele>
        <time>2021-07-10T08:18:04Z</time>
      </trkpt>
      <trkpt lat="43.78273" lon="6.34043">
        <ele>1022.5</ele>
        <time>2021-07-10T08:18:06Z</time>
      </trkpt>
      <trkpt lat="43.78278" lon="6.3405">
        <ele>1023.2</ele>
        <time>2021-07-10T08:18:08Z</time>
      </trkpt>
      <trkpt lat="43.78285" lon="6.34055">
        <ele>1022.8</ele>
        <time>2021-07-10T08:18:10Z</time>
      </trkpt>
      <trkpt lat="43.78294" lon="6.3406">
        <ele>1022.5</ele>
        <time>2021-07-10T08:18:13Z</time>
      </trkpt>
      <trkpt lat="43.78303" lon="6.34063">
        <ele>1021.6</ele>
        <time>2021-07-10T08:18:16Z</time>
      </trkpt>
      <trkpt lat="43.78311" lon="6.34062">
        <ele>1020.4</ele>
        <time>2021-07-10T08:18:19Z</time>
      </trkpt>
      <trkpt lat="43.78318" lon="6.34054">
        <ele>1019.9</ele>
        <time>2021-07-10T08:18:22Z</time>
      </trkpt>
      <trkpt lat="43.78321" lon="6.34045">
        <ele>1020.2</ele>
        <time>2021-07-10T08:18:25Z</time>
      </trkpt>
      <trkpt lat="43.78324" lon="6.34033">
        <ele>1019.7</ele>
        <time>2021-07-10T08:18:28Z</time>
      </trkpt>
      <trkpt lat="43.78325" lon="6.34023">
        <ele>1020.1</ele>
        <time>2021-07-10T08:18:31Z</time>
      </trkpt>
      <trkpt lat="43.78327" lon="6.34011">
        <ele>1020.3</ele>
        <time>2021-07-10T08:18:34Z</time>
      </trkpt>
      <trkpt lat="43.7833" lon="6.33998">
        <ele>1020.3</ele>
        <time>2021-07-10T08:18:37Z</time>
      </trkpt>
      <trkpt lat="43.78336" lon="6.33988">
        <ele>1020.3</ele>
        <time>2021-07-10T08:18:40Z</time>
      </trkpt>
      <trkpt lat="43.78344" lon="6.33979">
        <ele>1019.9</ele>
        <time>2021-07-10T08:18:43Z</time>
      </trkpt>
      <trkpt lat="43.78352" lon="6.33972">
        <ele>1020.2</ele>
        <time>2021-07-10T08:18:46Z</time>
      </trkpt>
      <trkpt lat="43.78359" lon="6.33965">
        <ele>1019.8</ele>
        <time>2021-07-10T08:18:49Z</time>
      </trkpt>
      <trkpt lat="43.78367" lon="6.33958">
        <ele>1019.8</ele>
        <time>2021-07-10T08:18:52Z</time>
      </trkpt>
      <trkpt lat="43.78376" lon="6.33953">
        <ele>1020.5</ele>
        <time>2021-07-10T08:18:55Z</time>
      </trkpt>
      <trkpt lat="43.78384" lon="6.33952">
        <ele>1022.1</ele>
        <time>2021-07-10T08:18:58Z</time>
      </trkpt>
      <trkpt lat="43.78394" lon="6.33956">
        <ele>1021.4</ele>
        <time>2021-07-10T08:19:01Z</time>
      </trkpt>
      <trkpt lat="43.78403" lon="6.3396">
        <ele>1022.2</ele>
        <time>2021-07-10T08:19:04Z</time>
      </trkpt>
      <trkpt lat="43.78413" lon="6.3396">
        <ele>1022.1</ele>
        <time>2021-07-10T08:19:07Z</time>
      </trkpt>
      <trkpt lat="43.78422" lon="6.3396">
        <ele>1021.8</ele>
        <time>2021-07-10T08:19:10Z</time>
      </trkpt>
      <trkpt lat="43.78431" lon="6.33959">
        <ele>1023.7</ele>
        <time>2021-07-10T08:19:14Z</time>
      </trkpt>
      <trkpt lat="43.78438" lon="6.33959">
        <ele>1024</ele>
        <time>2021-07-10T08:19:17Z</time>
      </trkpt>
      <trkpt lat="43.78446" lon="6.33958">
        <ele>1025.5</ele>
        <time>2021-07-10T08:19:20Z</time>
      </trkpt>
      <trkpt lat="43.78454" lon="6.33957">
        <ele>1026.3</ele>
        <time>2021-07-10T08:19:23Z</time>
      </trkpt>
      <trkpt lat="43.78461" lon="6.33954">
        <ele>1025.2</ele>
        <time>2021-07-10T08:19:26Z</time>
      </trkpt>
      <trkpt lat="43.78469" lon="6.33949">
        <ele>1026.9</ele>
        <time>2021-07-10T08:19:29Z</time>
      </trkpt>
      <trkpt lat="43.78476" lon="6.33944">
        <ele>1027.2</ele>
        <time>2021-07-10T08:19:32Z</time>
      </trkpt>
      <trkpt lat="43.78484" lon="6.33939">
        <ele>1029.2</ele>
        <time>2021-07-10T08:19:35Z</time>
      </trkpt>
      <trkpt lat="43.78493" lon="6.33934">
        <ele>1030</ele>
        <time>2021-07-10T08:19:38Z</time>
      </trkpt>
      <trkpt lat="43.785" lon="6.3393">
        <ele>1030.7</ele>
        <time>2021-07-10T08:19:41Z</time>
      </trkpt>
      <trkpt lat="43.78508" lon="6.33926">
        <ele>1030.9</ele>
        <time>2021-07-10T08:19:44Z</time>
      </trkpt>
      <trkpt lat="43.78517" lon="6.33922">
        <ele>1031.6</ele>
        <time>2021-07-10T08:19:47Z</time>
      </trkpt>
      <trkpt lat="43.78526" lon="6.33917">
        <ele>1031.6</ele>
        <time>2021-07-10T08:19:50Z</time>
      </trkpt>
      <trkpt lat="43.78534" lon="6.33912">
        <ele>1031.6</ele>
        <time>2021-07-10T08:19:53Z</time>
      </trkpt>
      <trkpt lat="43.78543" lon="6.33906">
        <ele>1031.3</ele>
        <time>2021-07-10T08:19:56Z</time>
      </trkpt>
      <trkpt lat="43.78551" lon="6.33899">
        <ele>1032.2</ele>
        <time>2021-07-10T08:19:59Z</time>
      </trkpt>
      <trkpt lat="43.78557" lon="6.33893">
        <ele>1032</ele>
        <time>2021-07-10T08:20:01Z</time>
      </trkpt>
      <trkpt lat="43.78564" lon="6.33887">
        <ele>1031.9</ele>
        <time>2021-07-10T08:20:03Z</time>
      </trkpt>
      <trkpt lat="43.78571" lon="6.33883">
        <ele>1032.3</ele>
        <time>2021-07-10T08:20:05Z</time>
      </trkpt>
      <trkpt lat="43.78578" lon="6.33879">
        <ele>1032.1</ele>
        <time>2021-07-10T08:20:07Z</time>
      </trkpt>
      <trkpt lat="43.78586" lon="6.33877">
        <ele>1031.4</ele>
        <time>2021-07-10T08:20:09Z</time>
      </trkpt>
      <trkpt lat="43.78596" lon="6.33878">
        <ele>1030.8</ele>
        <time>2021-07-10T08:20:12Z</time>
      </trkpt>
      <trkpt lat="43.78606" lon="6.33881">
        <ele>1030.1</ele>
        <time>2021-07-10T08:20:15Z</time>
      </trkpt>
      <trkpt lat="43.78614" lon="6.33885">
        <ele>1030.2</ele>
        <time>2021-07-10T08:20:18Z</time>
      </trkpt>
      <trkpt lat="43.78622" lon="6.33891">
        <ele>1030.6</ele>
        <time>2021-07-10T08:20:21Z</time>
      </trkpt>
      <trkpt lat="43.7863" lon="6.33898">
        <ele>1029.8</ele>
        <time>2021-07-10T08:20:24Z</time>
      </trkpt>
      <trkpt lat="43.78638" lon="6.33905">
        <ele>1029.1</ele>
        <time>2021-07-10T08:20:27Z</time>
      </trkpt>
      <trkpt lat="43.78647" lon="6.33907">
        <ele>1029.6</ele>
        <time>2021-07-10T08:20:30Z</time>
      </trkpt>
      <trkpt lat="43.78656" lon="6.33906">
        <ele>1031</ele>
        <time>2021-07-10T08:20:33Z</time>
      </trkpt>
      <trkpt lat="43.78665" lon="6.33904">
        <ele>1031.9</ele>
        <time>2021-07-10T08:20:36Z</time>
      </trkpt>
      <trkpt lat="43.78673" lon="6.33901">
        <ele>1033</ele>
        <time>2021-07-10T08:20:39Z</time>
      </trkpt>
      <trkpt lat="43.78682" lon="6.33898">
        <ele>1034.3</ele>
        <time>2021-07-10T08:20:42Z</time>
      </trkpt>
      <trkpt lat="43.7869" lon="6.33894">
        <ele>1033.9</ele>
        <time>2021-07-10T08:20:45Z</time>
      </trkpt>
      <trkpt lat="43.78699" lon="6.33891">
        <ele>1034.8</ele>
        <time>2021-07-10T08:20:48Z</time>
      </trkpt>
      <trkpt lat="43.78707" lon="6.33887">
        <ele>1037</ele>
        <time>2021-07-10T08:20:51Z</time>
      </trkpt>
      <trkpt lat="43.78716" lon="6.33884">
        <ele>1036.9</ele>
        <time>2021-07-10T08:20:54Z</time>
      </trkpt>
      <trkpt lat="43.78724" lon="6.33883">
        <ele>1040</ele>
        <time>2021-07-10T08:20:57Z</time>
      </trkpt>
      <trkpt lat="43.78731" lon="6.33883">
        <ele>1040.9</ele>
        <time>2021-07-10T08:21:00Z</time>
      </trkpt>
      <trkpt lat="43.78738" lon="6.33888">
        <ele>1041</ele>
        <time>2021-07-10T08:21:03Z</time>
      </trkpt>
      <trkpt lat="43.78743" lon="6.339">
        <ele>1039</ele>
        <time>2021-07-10T08:21:06Z</time>
      </trkpt>
      <trkpt lat="43.78748" lon="6.33912">
        <ele>1040.5</ele>
        <time>2021-07-10T08:21:09Z</time>
      </trkpt>
      <trkpt lat="43.78752" lon="6.33921">
        <ele>1042.1</ele>
        <time>2021-07-10T08:21:12Z</time>
      </trkpt>
      <trkpt lat="43.78758" lon="6.33931">
        <ele>1044.5</ele>
        <time>2021-07-10T08:21:16Z</time>
      </trkpt>
      <trkpt lat="43.78762" lon="6.3394">
        <ele>1043.5</ele>
        <time>2021-07-10T08:21:19Z</time>
      </trkpt>
      <trkpt lat="43.78766" lon="6.3395">
        <ele>1044.6</ele>
        <time>2021-07-10T08:21:23Z</time>
      </trkpt>
      <trkpt lat="43.78772" lon="6.33959">
        <ele>1046.3</ele>
        <time>2021-07-10T08:21:27Z</time>
      </trkpt>
      <trkpt lat="43.78779" lon="6.33965">
        <ele>1045.9</ele>
        <time>2021-07-10T08:21:30Z</time>
      </trkpt>
      <trkpt lat="43.78786" lon="6.33968">
        <ele>1045.8</ele>
        <time>2021-07-10T08:21:33Z</time>
      </trkpt>
      <trkpt lat="43.78793" lon="6.3397">
        <ele>1046.1</ele>
        <time>2021-07-10T08:21:36Z</time>
      </trkpt>
      <trkpt lat="43.788" lon="6.33974">
        <ele>1046</ele>
        <time>2021-07-10T08:21:39Z</time>
      </trkpt>
      <trkpt lat="43.78806" lon="6.33981">
        <ele>1045.7</ele>
        <time>2021-07-10T08:21:42Z</time>
      </trkpt>
      <trkpt lat="43.78811" lon="6.33991">
        <ele>1046.4</ele>
        <time>2021-07-10T08:21:45Z</time>
      </trkpt>
      <trkpt lat="43.78816" lon="6.34">
        <ele>1048.9</ele>
        <time>2021-07-10T08:21:48Z</time>
      </trkpt>
      <trkpt lat="43.78819" lon="6.34009">
        <ele>1049.2</ele>
        <time>2021-07-10T08:21:51Z</time>
      </trkpt>
      <trkpt lat="43.78821" lon="6.34019">
        <ele>1049.5</ele>
        <time>2021-07-10T08:21:54Z</time>
      </trkpt>
      <trkpt lat="43.78824" lon="6.34029">
        <ele>1050.4</ele>
        <time>2021-07-10T08:21:57Z</time>
      </trkpt>
      <trkpt lat="43.78829" lon="6.34039">
        <ele>1049.4</ele>
        <time>2021-07-10T08:22:00Z</time>
      </trkpt>
      <trkpt lat="43.78836" lon="6.34045">
        <ele>1049.1</ele>
        <time>2021-07-10T08:22:03Z</time>
      </trkpt>
      <trkpt lat="43.78843" lon="6.34049">
        <ele>1048.7</ele>
        <time>2021-07-10T08:22:06Z</time>
      </trkpt>
      <trkpt lat="43.78851" lon="6.34052">
        <ele>1048.4</ele>
        <time>2021-07-10T08:22:09Z</time>
      </trkpt>
      <trkpt lat="43.78859" lon="6.34051">
        <ele>1054.3</ele>
        <time>2021-07-10T08:22:12Z</time>
      </trkpt>
      <trkpt lat="43.78866" lon="6.34052">
        <ele>1055.6</ele>
        <time>2021-07-10T08:22:15Z</time>
      </trkpt>
      <trkpt lat="43.78873" lon="6.34057">
        <ele>1054.9</ele>
        <time>2021-07-10T08:22:18Z</time>
      </trkpt>
      <trkpt lat="43.78878" lon="6.34067">
        <ele>1053.9</ele>
        <time>2021-07-10T08:22:21Z</time>
      </trkpt>
      <trkpt lat="43.78879" lon="6.34079">
        <ele>1054.3</ele>
        <time>2021-07-10T08:22:24Z</time>
      </trkpt>
      <trkpt lat="43.78881" lon="6.3409">
        <ele>1054.5</ele>
        <time>2021-07-10T08:22:27Z</time>
      </trkpt>
      <trkpt lat="43.78884" lon="6.34101">
        <ele>1053.6</ele>
        <time>2021-07-10T08:22:30Z</time>
      </trkpt>
      <trkpt lat="43.78888" lon="6.34112">
        <ele>1053.1</ele>
        <time>2021-07-10T08:22:33Z</time>
      </trkpt>
      <trkpt lat="43.78894" lon="6.34122">
        <ele>1054.1</ele>
        <time>2021-07-10T08:22:36Z</time>
      </trkpt>
      <trkpt lat="43.789" lon="6.34132">
        <ele>1054</ele>
        <time>2021-07-10T08:22:39Z</time>
      </trkpt>
      <trkpt lat="43.78905" lon="6.3414">
        <ele>1053.4</ele>
        <time>2021-07-10T08:22:42Z</time>
      </trkpt>
      <trkpt lat="43.78913" lon="6.34149">
        <ele>1050.6</ele>
        <time>2021-07-10T08:22:45Z</time>
      </trkpt>
      <trkpt lat="43.7892" lon="6.34156">
        <ele>1050.7</ele>
        <time>2021-07-10T08:22:48Z</time>
      </trkpt>
      <trkpt lat="43.78928" lon="6.34162">
        <ele>1051.1</ele>
        <time>2021-07-10T08:22:51Z</time>
      </trkpt>
      <trkpt lat="43.78935" lon="6.34164">
        <ele>1052.4</ele>
        <time>2021-07-10T08:22:54Z</time>
      </trkpt>
      <trkpt lat="43.78943" lon="6.34164">
        <ele>1052.2</ele>
        <time>2021-07-10T08:22:57Z</time>
      </trkpt>
      <trkpt lat="43.78951" lon="6.34165">
        <ele>1052.6</ele>
        <time>2021-07-10T08:23:00Z</time>
      </trkpt>
      <trkpt lat="43.7896" lon="6.34167">
        <ele>1054.2</ele>
        <time>2021-07-10T08:23:03Z</time>
      </trkpt>
      <trkpt lat="43.78968" lon="6.3417">
        <ele>1055</ele>
        <time>2021-07-10T08:23:06Z</time>
      </trkpt>
      <trkpt lat="43.78977" lon="6.34172">
        <ele>1054.7</ele>
        <time>2021-07-10T08:23:09Z</time>
      </trkpt>
      <trkpt lat="43.78985" lon="6.34172">
        <ele>1056.8</ele>
        <time>2021-07-10T08:23:12Z</time>
      </trkpt>
      <trkpt lat="43.78994" lon="6.3417">
        <ele>1057.1</ele>
        <time>2021-07-10T08:23:15Z</time>
      </trkpt>
      <trkpt lat="43.79002" lon="6.34167">
        <ele>1059.8</ele>
        <time>2021-07-10T08:23:18Z</time>
      </trkpt>
      <trkpt lat="43.7901" lon="6.3416">
        <ele>1062.2</ele>
        <time>2021-07-10T08:23:21Z</time>
      </trkpt>
      <trkpt lat="43.79018" lon="6.34156">
        <ele>1062.9</ele>
        <time>2021-07-10T08:23:24Z</time>
      </trkpt>
      <trkpt lat="43.79026" lon="6.34151">
        <ele>1065.1</ele>
        <time>2021-07-10T08:23:27Z</time>
      </trkpt>
      <trkpt lat="43.79034" lon="6.34146">
        <ele>1064.9</ele>
        <time>2021-07-10T08:23:30Z</time>
      </trkpt>
      <trkpt lat="43.79041" lon="6.34143">
        <ele>1067.1</ele>
        <time>2021-07-10T08:23:33Z</time>
      </trkpt>
      <trkpt lat="43.7905" lon="6.3414">
        <ele>1067</ele>
        <time>2021-07-10T08:23:36Z</time>
      </trkpt>
      <trkpt lat="43.79058" lon="6.34139">
        <ele>1067.3</ele>
        <time>2021-07-10T08:23:39Z</time>
      </trkpt>
      <trkpt lat="43.79066" lon="6.34138">
        <ele>1067.3</ele>
        <time>2021-07-10T08:23:42Z</time>
      </trkpt>
      <trkpt lat="43.79074" lon="6.34138">
        <ele>1067.2</ele>
        <time>2021-07-10T08:23:45Z</time>
      </trkpt>
      <trkpt lat="43.79083" lon="6.34136">
        <ele>1067.3</ele>
        <time>2021-07-10T08:23:48Z</time>
      </trkpt>
      <trkpt lat="43.79092" lon="6.34134">
        <ele>1067.4</ele>
        <time>2021-07-10T08:23:51Z</time>
      </trkpt>
      <trkpt lat="43.791" lon="6.34131">
        <ele>1070.5</ele>
        <time>2021-07-10T08:23:54Z</time>
      </trkpt>
      <trkpt lat="43.79108" lon="6.34131">
        <ele>1071.9</ele>
        <time>2021-07-10T08:23:57Z</time>
      </trkpt>
      <trkpt lat="43.79117" lon="6.34135">
        <ele>1072.4</ele>
        <time>2021-07-10T08:24:00Z</time>
      </trkpt>
      <trkpt lat="43.79126" lon="6.34142">
        <ele>1073.2</ele>
        <time>2021-07-10T08:24:03Z</time>
      </trkpt>
      <trkpt lat="43.79136" lon="6.34148">
        <ele>1071.3</ele>
        <time>2021-07-10T08:24:06Z</time>
      </trkpt>
      <trkpt lat="43.79146" lon="6.34149">
        <ele>1072</ele>
        <time>2021-07-10T08:24:09Z</time>
      </trkpt>
      <trkpt lat="43.79157" lon="6.3415">
        <ele>1072.4</ele>
        <time>2021-07-10T08:24:12Z</time>
      </trkpt>
      <trkpt lat="43.79166" lon="6.34151">
        <ele>1072.7</ele>
        <time>2021-07-10T08:24:15Z</time>
      </trkpt>
      <trkpt lat="43.79175" lon="6.34154">
        <ele>1071.6</ele>
        <time>2021-07-10T08:24:18Z</time>
      </trkpt>
      <trkpt lat="43.79184" lon="6.34155">
        <ele>1072.6</ele>
        <time>2021-07-10T08:24:21Z</time>
      </trkpt>
      <trkpt lat="43.79193" lon="6.34153">
        <ele>1073.4</ele>
        <time>2021-07-10T08:24:24Z</time>
      </trkpt>
      <trkpt lat="43.79201" lon="6.34149">
        <ele>1075.4</ele>
        <time>2021-07-10T08:24:27Z</time>
      </trkpt>
      <trkpt lat="43.7921" lon="6.34145">
        <ele>1075.7</ele>
        <time>2021-07-10T08:24:30Z</time>
      </trkpt>
      <trkpt lat="43.79219" lon="6.34142">
        <ele>1074.4</ele>
        <time>2021-07-10T08:24:33Z</time>
      </trkpt>
      <trkpt lat="43.79228" lon="6.34139">
        <ele>1076.7</ele>
        <time>2021-07-10T08:24:36Z</time>
      </trkpt>
      <trkpt lat="43.79236" lon="6.34135">
        <ele>1075.8</ele>
        <time>2021-07-10T08:24:39Z</time>
      </trkpt>
      <trkpt lat="43.79246" lon="6.34131">
        <ele>1075.8</ele>
        <time>2021-07-10T08:24:42Z</time>
      </trkpt>
      <trkpt lat="43.79256" lon="6.34128">
        <ele>1075.8</ele>
        <time>2021-07-10T08:24:45Z</time>
      </trkpt>
      <trkpt lat="43.79266" lon="6.34125">
        <ele>1075.9</ele>
        <time>2021-07-10T08:24:48Z</time>
      </trkpt>
      <trkpt lat="43.79276" lon="6.34123">
        <ele>1077.2</ele>
        <time>2021-07-10T08:24:51Z</time>
      </trkpt>
      <trkpt lat="43.79286" lon="6.34121">
        <ele>1077.2</ele>
        <time>2021-07-10T08:24:54Z</time>
      </trkpt>
      <trkpt lat="43.79296" lon="6.34119">
        <ele>1076.8</ele>
        <time>2021-07-10T08:24:57Z</time>
      </trkpt>
      <trkpt lat="43.79305" lon="6.34116">
        <ele>1078.5</ele>
        <time>2021-07-10T08:25:00Z</time>
      </trkpt>
      <trkpt lat="43.79315" lon="6.34115">
        <ele>1080.1</ele>
        <time>2021-07-10T08:25:03Z</time>
      </trkpt>
      <trkpt lat="43.79324" lon="6.34112">
        <ele>1081.7</ele>
        <time>2021-07-10T08:25:06Z</time>
      </trkpt>
      <trkpt lat="43.79334" lon="6.34111">
        <ele>1082.1</ele>
        <time>2021-07-10T08:25:09Z</time>
      </trkpt>
      <trkpt lat="43.79344" lon="6.34109">
        <ele>1082.4</ele>
        <time>2021-07-10T08:25:12Z</time>
      </trkpt>
      <trkpt lat="43.79353" lon="6.34108">
        <ele>1081.9</ele>
        <time>2021-07-10T08:25:15Z</time>
      </trkpt>
      <trkpt lat="43.79363" lon="6.34104">
        <ele>1081.5</ele>
        <time>2021-07-10T08:25:18Z</time>
      </trkpt>
      <trkpt lat="43.79372" lon="6.34101">
        <ele>1082.1</ele>
        <time>2021-07-10T08:25:21Z</time>
      </trkpt>
      <trkpt lat="43.79381" lon="6.34098">
        <ele>1083.6</ele>
        <time>2021-07-10T08:25:24Z</time>
      </trkpt>
      <trkpt lat="43.7939" lon="6.34095">
        <ele>1085.6</ele>
        <time>2021-07-10T08:25:27Z</time>
      </trkpt>
      <trkpt lat="43.79398" lon="6.3409">
        <ele>1089</ele>
        <time>2021-07-10T08:25:30Z</time>
      </trkpt>
      <trkpt lat="43.79406" lon="6.34087">
        <ele>1089.6</ele>
        <time>2021-07-10T08:25:33Z</time>
      </trkpt>
      <trkpt lat="43.79415" lon="6.34082">
        <ele>1093.2</ele>
        <time>2021-07-10T08:25:36Z</time>
      </trkpt>
      <trkpt lat="43.79424" lon="6.34078">
        <ele>1094.4</ele>
        <time>2021-07-10T08:25:39Z</time>
      </trkpt>
      <trkpt lat="43.79432" lon="6.34073">
        <ele>1094.3</ele>
        <time>2021-07-10T08:25:42Z</time>
      </trkpt>
      <trkpt lat="43.7944" lon="6.34067">
        <ele>1096.4</ele>
        <time>2021-07-10T08:25:45Z</time>
      </trkpt>
      <trkpt lat="43.7945" lon="6.34065">
        <ele>1093.6</ele>
        <time>2021-07-10T08:25:48Z</time>
      </trkpt>
      <trkpt lat="43.7946" lon="6.34067">
        <ele>1094</ele>
        <time>2021-07-10T08:25:51Z</time>
      </trkpt>
      <trkpt lat="43.79467" lon="6.34071">
        <ele>1093.3</ele>
        <time>2021-07-10T08:25:53Z</time>
      </trkpt>
      <trkpt lat="43.79474" lon="6.34075">
        <ele>1090.6</ele>
        <time>2021-07-10T08:25:55Z</time>
      </trkpt>
      <trkpt lat="43.79482" lon="6.3408">
        <ele>1089.4</ele>
        <time>2021-07-10T08:25:57Z</time>
      </trkpt>
      <trkpt lat="43.79489" lon="6.34085">
        <ele>1087.3</ele>
        <time>2021-07-10T08:25:59Z</time>
      </trkpt>
      <trkpt lat="43.79499" lon="6.34087">
        <ele>1090</ele>
        <time>2021-07-10T08:26:02Z</time>
      </trkpt>
      <trkpt lat="43.79509" lon="6.34089">
        <ele>1089.6</ele>
        <time>2021-07-10T08:26:05Z</time>
      </trkpt>
      <trkpt lat="43.79518" lon="6.3409">
        <ele>1090.5</ele>
        <time>2021-07-10T08:26:08Z</time>
      </trkpt>
      <trkpt lat="43.79526" lon="6.3409">
        <ele>1092.7</ele>
        <time>2021-07-10T08:26:11Z</time>
      </trkpt>
      <trkpt lat="43.79536" lon="6.34092">
        <ele>1092</ele>
        <time>2021-07-10T08:26:14Z</time>
      </trkpt>
      <trkpt lat="43.79545" lon="6.34095">
        <ele>1092.3</ele>
        <time>2021-07-10T08:26:17Z</time>
      </trkpt>
      <trkpt lat="43.79554" lon="6.34096">
        <ele>1091.5</ele>
        <time>2021-07-10T08:26:20Z</time>
      </trkpt>
      <trkpt lat="43.79563" lon="6.34094">
        <ele>1092.2</ele>
        <time>2021-07-10T08:26:23Z</time>
      </trkpt>
      <trkpt lat="43.79572" lon="6.34091">
        <ele>1093</ele>
        <time>2021-07-10T08:26:26Z</time>
      </trkpt>
      <trkpt lat="43.79581" lon="6.34089">
        <ele>1093.1</ele>
        <time>2021-07-10T08:26:29Z</time>
      </trkpt>
      <trkpt lat="43.79591" lon="6.34088">
        <ele>1092.9</ele>
        <time>2021-07-10T08:26:32Z</time>
      </trkpt>
      <trkpt lat="43.79601" lon="6.34085">
        <ele>1093.2</ele>
        <time>2021-07-10T08:26:35Z</time>
      </trkpt>
      <trkpt lat="43.7961" lon="6.34083">
        <ele>1093.2</ele>
        <time>2021-07-10T08:26:38Z</time>
      </trkpt>
      <trkpt lat="43.79619" lon="6.3408">
        <ele>1093</ele>
        <time>2021-07-10T08:26:41Z</time>
      </trkpt>
      <trkpt lat="43.79628" lon="6.34076">
        <ele>1093.4</ele>
        <time>2021-07-10T08:26:44Z</time>
      </trkpt>
      <trkpt lat="43.79636" lon="6.34071">
        <ele>1093.9</ele>
        <time>2021-07-10T08:26:47Z</time>
      </trkpt>
      <trkpt lat="43.79644" lon="6.34066">
        <ele>1094.9</ele>
        <time>2021-07-10T08:26:50Z</time>
      </trkpt>
      <trkpt lat="43.79653" lon="6.34059">
        <ele>1095.5</ele>
        <time>2021-07-10T08:26:53Z</time>
      </trkpt>
      <trkpt lat="43.79661" lon="6.34052">
        <ele>1096.2</ele>
        <time>2021-07-10T08:26:56Z</time>
      </trkpt>
      <trkpt lat="43.79671" lon="6.34046">
        <ele>1096.9</ele>
        <time>2021-07-10T08:26:59Z</time>
      </trkpt>
      <trkpt lat="43.7968" lon="6.3404">
        <ele>1097.1</ele>
        <time>2021-07-10T08:27:02Z</time>
      </trkpt>
      <trkpt lat="43.79687" lon="6.34036">
        <ele>1097.1</ele>
        <time>2021-07-10T08:27:04Z</time>
      </trkpt>
      <trkpt lat="43.79694" lon="6.34031">
        <ele>1097</ele>
        <time>2021-07-10T08:27:06Z</time>
      </trkpt>
      <trkpt lat="43.79704" lon="6.34025">
        <ele>1097.1</ele>
        <time>2021-07-10T08:27:09Z</time>
      </trkpt>
      <trkpt lat="43.79711" lon="6.3402">
        <ele>1096.8</ele>
        <time>2021-07-10T08:27:11Z</time>
      </trkpt>
      <trkpt lat="43.79718" lon="6.34015">
        <ele>1097</ele>
        <time>2021-07-10T08:27:13Z</time>
      </trkpt>
      <trkpt lat="43.79724" lon="6.34011">
        <ele>1096.9</ele>
        <time>2021-07-10T08:27:15Z</time>
      </trkpt>
      <trkpt lat="43.79733" lon="6.34002">
        <ele>1097</ele>
        <time>2021-07-10T08:27:18Z</time>
      </trkpt>
      <trkpt lat="43.7974" lon="6.33994">
        <ele>1098</ele>
        <time>2021-07-10T08:27:21Z</time>
      </trkpt>
      <trkpt lat="43.79746" lon="6.33985">
        <ele>1098.1</ele>
        <time>2021-07-10T08:27:23Z</time>
      </trkpt>
      <trkpt lat="43.79751" lon="6.33975">
        <ele>1098.5</ele>
        <time>2021-07-10T08:27:25Z</time>
      </trkpt>
      <trkpt lat="43.79754" lon="6.33963">
        <ele>1098.8</ele>
        <time>2021-07-10T08:27:27Z</time>
      </trkpt>
      <trkpt lat="43.79756" lon="6.33951">
        <ele>1098.7</ele>
        <time>2021-07-10T08:27:29Z</time>
      </trkpt>
      <trkpt lat="43.79757" lon="6.33939">
        <ele>1098.7</ele>
        <time>2021-07-10T08:27:31Z</time>
      </trkpt>
      <trkpt lat="43.79757" lon="6.33927">
        <ele>1099.4</ele>
        <time>2021-07-10T08:27:33Z</time>
      </trkpt>
      <trkpt lat="43.79757" lon="6.33916">
        <ele>1098.7</ele>
        <time>2021-07-10T08:27:35Z</time>
      </trkpt>
      <trkpt lat="43.79758" lon="6.33905">
        <ele>1098</ele>
        <time>2021-07-10T08:27:37Z</time>
      </trkpt>
      <trkpt lat="43.79759" lon="6.33895">
        <ele>1098.2</ele>
        <time>2021-07-10T08:27:39Z</time>
      </trkpt>
      <trkpt lat="43.7976" lon="6.33883">
        <ele>1097.8</ele>
        <time>2021-07-10T08:27:41Z</time>
      </trkpt>
      <trkpt lat="43.7976" lon="6.3387">
        <ele>1097.7</ele>
        <time>2021-07-10T08:27:43Z</time>
      </trkpt>
      <trkpt lat="43.79761" lon="6.33857">
        <ele>1097.1</ele>
        <time>2021-07-10T08:27:45Z</time>
      </trkpt>
      <trkpt lat="43.79764" lon="6.33844">
        <ele>1097.3</ele>
        <time>2021-07-10T08:27:47Z</time>
      </trkpt>
      <trkpt lat="43.79766" lon="6.33831">
        <ele>1097.3</ele>
        <time>2021-07-10T08:27:49Z</time>
      </trkpt>
      <trkpt lat="43.79772" lon="6.33817">
        <ele>1096.9</ele>
        <time>2021-07-10T08:27:51Z</time>
      </trkpt>
      <trkpt lat="43.79778" lon="6.33805">
        <ele>1097.2</ele>
        <time>2021-07-10T08:27:53Z</time>
      </trkpt>
      <trkpt lat="43.79784" lon="6.33793">
        <ele>1097</ele>
        <time>2021-07-10T08:27:55Z</time>
      </trkpt>
      <trkpt lat="43.79791" lon="6.33781">
        <ele>1096.8</ele>
        <time>2021-07-10T08:27:57Z</time>
      </trkpt>
      <trkpt lat="43.79798" lon="6.3377">
        <ele>1096.2</ele>
        <time>2021-07-10T08:27:59Z</time>
      </trkpt>
      <trkpt lat="43.79804" lon="6.33759">
        <ele>1096.2</ele>
        <time>2021-07-10T08:28:01Z</time>
      </trkpt>
      <trkpt lat="43.79811" lon="6.33747">
        <ele>1095.9</ele>
        <time>2021-07-10T08:28:03Z</time>
      </trkpt>
      <trkpt lat="43.79818" lon="6.33737">
        <ele>1095.7</ele>
        <time>2021-07-10T08:28:05Z</time>
      </trkpt>
      <trkpt lat="43.79827" lon="6.3373">
        <ele>1095.3</ele>
        <time>2021-07-10T08:28:07Z</time>
      </trkpt>
      <trkpt lat="43.79838" lon="6.33731">
        <ele>1094.5</ele>
        <time>2021-07-10T08:28:09Z</time>
      </trkpt>
      <trkpt lat="43.79847" lon="6.33742">
        <ele>1093.5</ele>
        <time>2021-07-10T08:28:11Z</time>
      </trkpt>
      <trkpt lat="43.79855" lon="6.33757">
        <ele>1092.5</ele>
        <time>2021-07-10T08:28:13Z</time>
      </trkpt>
      <trkpt lat="43.79863" lon="6.33771">
        <ele>1092.1</ele>
        <time>2021-07-10T08:28:15Z</time>
      </trkpt>
      <trkpt lat="43.79868" lon="6.33779">
        <ele>1091.2</ele>
        <time>2021-07-10T08:28:16Z</time>
      </trkpt>
      <trkpt lat="43.79876" lon="6.33793">
        <ele>1090.4</ele>
        <time>2021-07-10T08:28:18Z</time>
      </trkpt>
      <trkpt lat="43.79885" lon="6.33807">
        <ele>1088.9</ele>
        <time>2021-07-10T08:28:20Z</time>
      </trkpt>
      <trkpt lat="43.79892" lon="6.33822">
        <ele>1087.9</ele>
        <time>2021-07-10T08:28:22Z</time>
      </trkpt>
      <trkpt lat="43.79895" lon="6.33831">
        <ele>1087.4</ele>
        <time>2021-07-10T08:28:23Z</time>
      </trkpt>
      <trkpt lat="43.79899" lon="6.3384">
        <ele>1087.1</ele>
        <time>2021-07-10T08:28:24Z</time>
      </trkpt>
      <trkpt lat="43.79903" lon="6.33849">
        <ele>1085.9</ele>
        <time>2021-07-10T08:28:25Z</time>
      </trkpt>
      <trkpt lat="43.79908" lon="6.33858">
        <ele>1085.7</ele>
        <time>2021-07-10T08:28:26Z</time>
      </trkpt>
      <trkpt lat="43.79913" lon="6.33866">
        <ele>1085</ele>
        <time>2021-07-10T08:28:27Z</time>
      </trkpt>
      <trkpt lat="43.79919" lon="6.33874">
        <ele>1084.2</ele>
        <time>2021-07-10T08:28:28Z</time>
      </trkpt>
      <trkpt lat="43.79925" lon="6.33884">
        <ele>1084.1</ele>
        <time>2021-07-10T08:28:29Z</time>
      </trkpt>
      <trkpt lat="43.7993" lon="6.33894">
        <ele>1083.4</ele>
        <time>2021-07-10T08:28:30Z</time>
      </trkpt>
      <trkpt lat="43.79934" lon="6.33906">
        <ele>1082.6</ele>
        <time>2021-07-10T08:28:31Z</time>
      </trkpt>
      <trkpt lat="43.79937" lon="6.33918">
        <ele>1082</ele>
        <time>2021-07-10T08:28:32Z</time>
      </trkpt>
      <trkpt lat="43.79939" lon="6.33929">
        <ele>1081.8</ele>
        <time>2021-07-10T08:28:33Z</time>
      </trkpt>
      <trkpt lat="43.79941" lon="6.33942">
        <ele>1080.6</ele>
        <time>2021-07-10T08:28:34Z</time>
      </trkpt>
      <trkpt lat="43.79943" lon="6.33953">
        <ele>1080.9</ele>
        <time>2021-07-10T08:28:35Z</time>
      </trkpt>
      <trkpt lat="43.79941" lon="6.33966">
        <ele>1079.7</ele>
        <time>2021-07-10T08:28:36Z</time>
      </trkpt>
      <trkpt lat="43.79938" lon="6.33977">
        <ele>1079.4</ele>
        <time>2021-07-10T08:28:37Z</time>
      </trkpt>
      <trkpt lat="43.79934" lon="6.33989">
        <ele>1078.8</ele>
        <time>2021-07-10T08:28:38Z</time>
      </trkpt>
      <trkpt lat="43.79929" lon="6.34">
        <ele>1078.8</ele>
        <time>2021-07-10T08:28:39Z</time>
      </trkpt>
      <trkpt lat="43.79924" lon="6.34011">
        <ele>1077.9</ele>
        <time>2021-07-10T08:28:40Z</time>
      </trkpt>
      <trkpt lat="43.79919" lon="6.34023">
        <ele>1077.1</ele>
        <time>2021-07-10T08:28:41Z</time>
      </trkpt>
      <trkpt lat="43.79915" lon="6.34035">
        <ele>1076.4</ele>
        <time>2021-07-10T08:28:42Z</time>
      </trkpt>
      <trkpt lat="43.79912" lon="6.34048">
        <ele>1075.9</ele>
        <time>2021-07-10T08:28:43Z</time>
      </trkpt>
      <trkpt lat="43.7991" lon="6.34061">
        <ele>1075</ele>
        <time>2021-07-10T08:28:44Z</time>
      </trkpt>
      <trkpt lat="43.79908" lon="6.34075">
        <ele>1074.3</ele>
        <time>2021-07-10T08:28:45Z</time>
      </trkpt>
      <trkpt lat="43.79906" lon="6.34089">
        <ele>1073.9</ele>
        <time>2021-07-10T08:28:46Z</time>
      </trkpt>
      <trkpt lat="43.79906" lon="6.34103">
        <ele>1073.7</ele>
        <time>2021-07-10T08:28:47Z</time>
      </trkpt>
      <trkpt lat="43.79907" lon="6.34118">
        <ele>1072.3</ele>
        <time>2021-07-10T08:28:48Z</time>
      </trkpt>
      <trkpt lat="43.79908" lon="6.34133">
        <ele>1071.6</ele>
        <time>2021-07-10T08:28:49Z</time>
      </trkpt>
      <trkpt lat="43.79909" lon="6.34148">
        <ele>1071</ele>
        <time>2021-07-10T08:28:50Z</time>
      </trkpt>
      <trkpt lat="43.79911" lon="6.34163">
        <ele>1070.1</ele>
        <time>2021-07-10T08:28:51Z</time>
      </trkpt>
      <trkpt lat="43.79914" lon="6.34176">
        <ele>1070.4</ele>
        <time>2021-07-10T08:28:52Z</time>
      </trkpt>
      <trkpt lat="43.79917" lon="6.34189">
        <ele>1069.8</ele>
        <time>2021-07-10T08:28:53Z</time>
      </trkpt>
      <trkpt lat="43.79922" lon="6.34199">
        <ele>1069.4</ele>
        <time>2021-07-10T08:28:54Z</time>
      </trkpt>
      <trkpt lat="43.79929" lon="6.34209">
        <ele>1068.9</ele>
        <time>2021-07-10T08:28:55Z</time>
      </trkpt>
      <trkpt lat="43.79937" lon="6.34216">
        <ele>1068.4</ele>
        <time>2021-07-10T08:28:56Z</time>
      </trkpt>
      <trkpt lat="43.79945" lon="6.34221">
        <ele>1068.4</ele>
        <time>2021-07-10T08:28:57Z</time>
      </trkpt>
      <trkpt lat="43.79954" lon="6.34224">
        <ele>1067.4</ele>
        <time>2021-07-10T08:28:58Z</time>
      </trkpt>
      <trkpt lat="43.79963" lon="6.34227">
        <ele>1067</ele>
        <time>2021-07-10T08:28:59Z</time>
      </trkpt>
      <trkpt lat="43.79972" lon="6.3423">
        <ele>1066.7</ele>
        <time>2021-07-10T08:29:00Z</time>
      </trkpt>
      <trkpt lat="43.7998" lon="6.34233">
        <ele>1066.3</ele>
        <time>2021-07-10T08:29:01Z</time>
      </trkpt>
      <trkpt lat="43.79989" lon="6.34235">
        <ele>1066.4</ele>
        <time>2021-07-10T08:29:02Z</time>
      </trkpt>
      <trkpt lat="43.79997" lon="6.34237">
        <ele>1066.4</ele>
        <time>2021-07-10T08:29:03Z</time>
      </trkpt>
      <trkpt lat="43.80005" lon="6.34239">
        <ele>1066</ele>
        <time>2021-07-10T08:29:04Z</time>
      </trkpt>
      <trkpt lat="43.80013" lon="6.34242">
        <ele>1065.8</ele>
        <time>2021-07-10T08:29:05Z</time>
      </trkpt>
      <trkpt lat="43.8002" lon="6.34244">
        <ele>1065.8</ele>
        <time>2021-07-10T08:29:06Z</time>
      </trkpt>
      <trkpt lat="43.80028" lon="6.34247">
        <ele>1065.1</ele>
        <time>2021-07-10T08:29:07Z</time>
      </trkpt>
      <trkpt lat="43.80035" lon="6.34249">
        <ele>1065</ele>
        <time>2021-07-10T08:29:08Z</time>
      </trkpt>
      <trkpt lat="43.80048" lon="6.34252">
        <ele>1065.7</ele>
        <time>2021-07-10T08:29:10Z</time>
      </trkpt>
      <trkpt lat="43.8006" lon="6.34256">
        <ele>1066</ele>
        <time>2021-07-10T08:29:12Z</time>
      </trkpt>
      <trkpt lat="43.80071" lon="6.34258">
        <ele>1065.9</ele>
        <time>2021-07-10T08:29:14Z</time>
      </trkpt>
      <trkpt lat="43.80081" lon="6.34262">
        <ele>1066</ele>
        <time>2021-07-10T08:29:16Z</time>
      </trkpt>
      <trkpt lat="43.80089" lon="6.34264">
        <ele>1066.4</ele>
        <time>2021-07-10T08:29:18Z</time>
      </trkpt>
      <trkpt lat="43.80096" lon="6.34265">
        <ele>1066</ele>
        <time>2021-07-10T08:29:20Z</time>
      </trkpt>
      <trkpt lat="43.80104" lon="6.3427">
        <ele>1064.4</ele>
        <time>2021-07-10T08:29:22Z</time>
      </trkpt>
      <trkpt lat="43.80112" lon="6.34274">
        <ele>1063.3</ele>
        <time>2021-07-10T08:29:24Z</time>
      </trkpt>
      <trkpt lat="43.80121" lon="6.34278">
        <ele>1063.8</ele>
        <time>2021-07-10T08:29:26Z</time>
      </trkpt>
      <trkpt lat="43.80131" lon="6.34287">
        <ele>1063.1</ele>
        <time>2021-07-10T08:29:28Z</time>
      </trkpt>
      <trkpt lat="43.80141" lon="6.34299">
        <ele>1061.7</ele>
        <time>2021-07-10T08:29:30Z</time>
      </trkpt>
      <trkpt lat="43.80147" lon="6.34307">
        <ele>1060.1</ele>
        <time>2021-07-10T08:29:31Z</time>
      </trkpt>
      <trkpt lat="43.80156" lon="6.3432">
        <ele>1059.3</ele>
        <time>2021-07-10T08:29:33Z</time>
      </trkpt>
      <trkpt lat="43.80164" lon="6.34325">
        <ele>1059.2</ele>
        <time>2021-07-10T08:29:34Z</time>
      </trkpt>
      <trkpt lat="43.80171" lon="6.34331">
        <ele>1059.4</ele>
        <time>2021-07-10T08:29:35Z</time>
      </trkpt>
      <trkpt lat="43.80178" lon="6.34335">
        <ele>1059.4</ele>
        <time>2021-07-10T08:29:36Z</time>
      </trkpt>
      <trkpt lat="43.80185" lon="6.34339">
        <ele>1059</ele>
        <time>2021-07-10T08:29:37Z</time>
      </trkpt>
      <trkpt lat="43.80193" lon="6.34344">
        <ele>1058.4</ele>
        <time>2021-07-10T08:29:38Z</time>
      </trkpt>
      <trkpt lat="43.802" lon="6.34348">
        <ele>1058.3</ele>
        <time>2021-07-10T08:29:39Z</time>
      </trkpt>
      <trkpt lat="43.80207" lon="6.34351">
        <ele>1058.3</ele>
        <time>2021-07-10T08:29:40Z</time>
      </trkpt>
      <trkpt lat="43.80214" lon="6.34354">
        <ele>1058</ele>
        <time>2021-07-10T08:29:41Z</time>
      </trkpt>
      <trkpt lat="43.80228" lon="6.34357">
        <ele>1057.9</ele>
        <time>2021-07-10T08:29:43Z</time>
      </trkpt>
      <trkpt lat="43.80241" lon="6.34362">
        <ele>1057.8</ele>
        <time>2021-07-10T08:29:45Z</time>
      </trkpt>
      <trkpt lat="43.80254" lon="6.34367">
        <ele>1057</ele>
        <time>2021-07-10T08:29:47Z</time>
      </trkpt>
      <trkpt lat="43.80265" lon="6.34371">
        <ele>1056.2</ele>
        <time>2021-07-10T08:29:49Z</time>
      </trkpt>
      <trkpt lat="43.80277" lon="6.34376">
        <ele>1055.2</ele>
        <time>2021-07-10T08:29:51Z</time>
      </trkpt>
      <trkpt lat="43.80287" lon="6.3438">
        <ele>1054.7</ele>
        <time>2021-07-10T08:29:53Z</time>
      </trkpt>
      <trkpt lat="43.80296" lon="6.34383">
        <ele>1055.5</ele>
        <time>2021-07-10T08:29:55Z</time>
      </trkpt>
      <trkpt lat="43.80303" lon="6.34385">
        <ele>1054.9</ele>
        <time>2021-07-10T08:29:57Z</time>
      </trkpt>
      <trkpt lat="43.8031" lon="6.3439">
        <ele>1053.8</ele>
        <time>2021-07-10T08:30:00Z</time>
      </trkpt>
      <trkpt lat="43.80317" lon="6.34394">
        <ele>1053.8</ele>
        <time>2021-07-10T08:30:06Z</time>
      </trkpt>
      <trkpt lat="43.80316" lon="6.3439">
        <ele>1056</ele>
        <time>2021-07-10T08:30:13Z</time>
      </trkpt>
      <trkpt lat="43.80316" lon="6.3439">
        <ele>1055.8</ele>
        <time>2021-07-10T08:30:17Z</time>
      </trkpt>
      <trkpt lat="43.80316" lon="6.34388">
        <ele>1058.6</ele>
        <time>2021-07-10T08:30:25Z</time>
      </trkpt>
      <trkpt lat="43.80316" lon="6.34387">
        <ele>1058.5</ele>
        <time>2021-07-10T08:30:26Z</time>
      </trkpt>
      <trkpt lat="43.80316" lon="6.34388">
        <ele>1057</ele>
        <time>2021-07-10T08:30:34Z</time>
      </trkpt>
      <trkpt lat="43.80316" lon="6.34388">
        <ele>1057.3</ele>
        <time>2021-07-10T08:30:35Z</time>
      </trkpt>
      <trkpt lat="43.80316" lon="6.34389">
        <ele>1055.5</ele>
        <time>2021-07-10T08:31:11Z</time>
      </trkpt>
      <trkpt lat="43.80316" lon="6.34388">
        <ele>1056.8</ele>
        <time>2021-07-10T08:31:13Z</time>
      </trkpt>
      <trkpt lat="43.80315" lon="6.34387">
        <ele>1057.5</ele>
        <time>2021-07-10T08:31:22Z</time>
      </trkpt>
      <trkpt lat="43.80315" lon="6.34387">
        <ele>1057.5</ele>
        <time>2021-07-10T08:31:23Z</time>
      </trkpt>
      <trkpt lat="43.80316" lon="6.34383">
        <ele>1062.2</ele>
        <time>2021-07-10T08:31:47Z</time>
      </trkpt>
      <trkpt lat="43.80319" lon="6.34382">
        <ele>1063.8</ele>
        <time>2021-07-10T08:31:54Z</time>
      </trkpt>
      <trkpt lat="43.80319" lon="6.34383">
        <ele>1064.6</ele>
        <time>2021-07-10T08:31:57Z</time>
      </trkpt>
      <trkpt lat="43.80327" lon="6.3438">
        <ele>1061.9</ele>
        <time>2021-07-10T08:32:06Z</time>
      </trkpt>
      <trkpt lat="43.80335" lon="6.3438">
        <ele>1063.7</ele>
        <time>2021-07-10T08:32:11Z</time>
      </trkpt>
      <trkpt lat="43.80342" lon="6.34379">
        <ele>1062.8</ele>
        <time>2021-07-10T08:32:15Z</time>
      </trkpt>
      <trkpt lat="43.8035" lon="6.34379">
        <ele>1062.1</ele>
        <time>2021-07-10T08:32:20Z</time>
      </trkpt>
      <trkpt lat="43.80357" lon="6.34377">
        <ele>1062.7</ele>
        <time>2021-07-10T08:32:24Z</time>
      </trkpt>
      <trkpt lat="43.80366" lon="6.34375">
        <ele>1062.4</ele>
        <time>2021-07-10T08:32:29Z</time>
      </trkpt>
      <trkpt lat="43.80366" lon="6.34376">
        <ele>1061.7</ele>
        <time>2021-07-10T08:32:36Z</time>
      </trkpt>
      <trkpt lat="43.80373" lon="6.34373">
        <ele>1061.8</ele>
        <time>2021-07-10T08:32:41Z</time>
      </trkpt>
      <trkpt lat="43.80382" lon="6.3437">
        <ele>1063.7</ele>
        <time>2021-07-10T08:32:45Z</time>
      </trkpt>
      <trkpt lat="43.8039" lon="6.34366">
        <ele>1063.8</ele>
        <time>2021-07-10T08:32:49Z</time>
      </trkpt>
      <trkpt lat="43.80398" lon="6.34362">
        <ele>1064.3</ele>
        <time>2021-07-10T08:32:53Z</time>
      </trkpt>
      <trkpt lat="43.80405" lon="6.34357">
        <ele>1063.8</ele>
        <time>2021-07-10T08:32:57Z</time>
      </trkpt>
      <trkpt lat="43.80411" lon="6.34351">
        <ele>1064</ele>
        <time>2021-07-10T08:33:01Z</time>
      </trkpt>
      <trkpt lat="43.80417" lon="6.34346">
        <ele>1064.3</ele>
        <time>2021-07-10T08:33:04Z</time>
      </trkpt>
      <trkpt lat="43.80425" lon="6.34336">
        <ele>1063.7</ele>
        <time>2021-07-10T08:33:07Z</time>
      </trkpt>
      <trkpt lat="43.80432" lon="6.34328">
        <ele>1063.1</ele>
        <time>2021-07-10T08:33:09Z</time>
      </trkpt>
      <trkpt lat="43.80438" lon="6.34318">
        <ele>1062.6</ele>
        <time>2021-07-10T08:33:11Z</time>
      </trkpt>
      <trkpt lat="43.80445" lon="6.34305">
        <ele>1062.6</ele>
        <time>2021-07-10T08:33:13Z</time>
      </trkpt>
      <trkpt lat="43.80451" lon="6.34289">
        <ele>1062.1</ele>
        <time>2021-07-10T08:33:15Z</time>
      </trkpt>
      <trkpt lat="43.80455" lon="6.34272">
        <ele>1062.5</ele>
        <time>2021-07-10T08:33:17Z</time>
      </trkpt>
      <trkpt lat="43.80458" lon="6.34263">
        <ele>1061.4</ele>
        <time>2021-07-10T08:33:18Z</time>
      </trkpt>
      <trkpt lat="43.80463" lon="6.34245">
        <ele>1061</ele>
        <time>2021-07-10T08:33:20Z</time>
      </trkpt>
      <trkpt lat="43.80469" lon="6.34228">
        <ele>1060.7</ele>
        <time>2021-07-10T08:33:22Z</time>
      </trkpt>
      <trkpt lat="43.80474" lon="6.3421">
        <ele>1060.5</ele>
        <time>2021-07-10T08:33:24Z</time>
      </trkpt>
      <trkpt lat="43.80478" lon="6.34193">
        <ele>1060.5</ele>
        <time>2021-07-10T08:33:26Z</time>
      </trkpt>
      <trkpt lat="43.80482" lon="6.34184">
        <ele>1059.8</ele>
        <time>2021-07-10T08:33:27Z</time>
      </trkpt>
      <trkpt lat="43.80487" lon="6.34165">
        <ele>1059</ele>
        <time>2021-07-10T08:33:29Z</time>
      </trkpt>
      <trkpt lat="43.8049" lon="6.34155">
        <ele>1058</ele>
        <time>2021-07-10T08:33:30Z</time>
      </trkpt>
      <trkpt lat="43.80493" lon="6.34146">
        <ele>1057.8</ele>
        <time>2021-07-10T08:33:31Z</time>
      </trkpt>
      <trkpt lat="43.80496" lon="6.34137">
        <ele>1057.9</ele>
        <time>2021-07-10T08:33:32Z</time>
      </trkpt>
      <trkpt lat="43.80499" lon="6.34127">
        <ele>1058.2</ele>
        <time>2021-07-10T08:33:33Z</time>
      </trkpt>
      <trkpt lat="43.80501" lon="6.34118">
        <ele>1058</ele>
        <time>2021-07-10T08:33:34Z</time>
      </trkpt>
      <trkpt lat="43.80504" lon="6.34108">
        <ele>1058.2</ele>
        <time>2021-07-10T08:33:35Z</time>
      </trkpt>
      <trkpt lat="43.80508" lon="6.34099">
        <ele>1057.8</ele>
        <time>2021-07-10T08:33:36Z</time>
      </trkpt>
      <trkpt lat="43.80514" lon="6.34082">
        <ele>1057.5</ele>
        <time>2021-07-10T08:33:38Z</time>
      </trkpt>
      <trkpt lat="43.80519" lon="6.34065">
        <ele>1057.8</ele>
        <time>2021-07-10T08:33:40Z</time>
      </trkpt>
      <trkpt lat="43.80523" lon="6.34048">
        <ele>1058.1</ele>
        <time>2021-07-10T08:33:42Z</time>
      </trkpt>
      <trkpt lat="43.80529" lon="6.34033">
        <ele>1058.5</ele>
        <time>2021-07-10T08:33:44Z</time>
      </trkpt>
      <trkpt lat="43.80533" lon="6.34017">
        <ele>1058.7</ele>
        <time>2021-07-10T08:33:46Z</time>
      </trkpt>
      <trkpt lat="43.80537" lon="6.34003">
        <ele>1059.2</ele>
        <time>2021-07-10T08:33:48Z</time>
      </trkpt>
      <trkpt lat="43.8054" lon="6.33989">
        <ele>1059.5</ele>
        <time>2021-07-10T08:33:50Z</time>
      </trkpt>
      <trkpt lat="43.80544" lon="6.33976">
        <ele>1059.8</ele>
        <time>2021-07-10T08:33:52Z</time>
      </trkpt>
      <trkpt lat="43.80546" lon="6.33965">
        <ele>1060.9</ele>
        <time>2021-07-10T08:33:54Z</time>
      </trkpt>
      <trkpt lat="43.80549" lon="6.33955">
        <ele>1061.3</ele>
        <time>2021-07-10T08:33:56Z</time>
      </trkpt>
      <trkpt lat="43.80552" lon="6.33941">
        <ele>1061.1</ele>
        <time>2021-07-10T08:33:59Z</time>
      </trkpt>
      <trkpt lat="43.80555" lon="6.33928">
        <ele>1062.1</ele>
        <time>2021-07-10T08:34:02Z</time>
      </trkpt>
      <trkpt lat="43.80557" lon="6.33915">
        <ele>1062.2</ele>
        <time>2021-07-10T08:34:05Z</time>
      </trkpt>
      <trkpt lat="43.80558" lon="6.33903">
        <ele>1064.7</ele>
        <time>2021-07-10T08:34:08Z</time>
      </trkpt>
      <trkpt lat="43.80559" lon="6.33892">
        <ele>1065.2</ele>
        <time>2021-07-10T08:34:11Z</time>
      </trkpt>
      <trkpt lat="43.8056" lon="6.33879">
        <ele>1065.6</ele>
        <time>2021-07-10T08:34:14Z</time>
      </trkpt>
      <trkpt lat="43.80561" lon="6.33866">
        <ele>1065.7</ele>
        <time>2021-07-10T08:34:17Z</time>
      </trkpt>
      <trkpt lat="43.80563" lon="6.33855">
        <ele>1065.7</ele>
        <time>2021-07-10T08:34:19Z</time>
      </trkpt>
      <trkpt lat="43.80565" lon="6.33845">
        <ele>1066</ele>
        <time>2021-07-10T08:34:21Z</time>
      </trkpt>
      <trkpt lat="43.80567" lon="6.33835">
        <ele>1065.7</ele>
        <time>2021-07-10T08:34:23Z</time>
      </trkpt>
      <trkpt lat="43.80573" lon="6.33823">
        <ele>1062.9</ele>
        <time>2021-07-10T08:34:25Z</time>
      </trkpt>
      <trkpt lat="43.80576" lon="6.3381">
        <ele>1062.5</ele>
        <time>2021-07-10T08:34:27Z</time>
      </trkpt>
      <trkpt lat="43.8058" lon="6.33798">
        <ele>1062.3</ele>
        <time>2021-07-10T08:34:29Z</time>
      </trkpt>
      <trkpt lat="43.80584" lon="6.33787">
        <ele>1062.7</ele>
        <time>2021-07-10T08:34:31Z</time>
      </trkpt>
      <trkpt lat="43.80587" lon="6.33776">
        <ele>1063.6</ele>
        <time>2021-07-10T08:34:33Z</time>
      </trkpt>
      <trkpt lat="43.80591" lon="6.33763">
        <ele>1063.3</ele>
        <time>2021-07-10T08:34:35Z</time>
      </trkpt>
      <trkpt lat="43.80595" lon="6.33752">
        <ele>1064.9</ele>
        <time>2021-07-10T08:34:37Z</time>
      </trkpt>
      <trkpt lat="43.80599" lon="6.33742">
        <ele>1065.1</ele>
        <time>2021-07-10T08:34:39Z</time>
      </trkpt>
      <trkpt lat="43.80602" lon="6.33731">
        <ele>1066.3</ele>
        <time>2021-07-10T08:34:41Z</time>
      </trkpt>
      <trkpt lat="43.80606" lon="6.33721">
        <ele>1067.2</ele>
        <time>2021-07-10T08:34:43Z</time>
      </trkpt>
      <trkpt lat="43.80608" lon="6.33711">
        <ele>1068.6</ele>
        <time>2021-07-10T08:34:45Z</time>
      </trkpt>
      <trkpt lat="43.80612" lon="6.337">
        <ele>1069.6</ele>
        <time>2021-07-10T08:34:47Z</time>
      </trkpt>
      <trkpt lat="43.80617" lon="6.33689">
        <ele>1067.8</ele>
        <time>2021-07-10T08:34:49Z</time>
      </trkpt>
      <trkpt lat="43.80621" lon="6.33677">
        <ele>1067.6</ele>
        <time>2021-07-10T08:34:51Z</time>
      </trkpt>
      <trkpt lat="43.80625" lon="6.33665">
        <ele>1068</ele>
        <time>2021-07-10T08:34:53Z</time>
      </trkpt>
      <trkpt lat="43.8063" lon="6.33651">
        <ele>1067.2</ele>
        <time>2021-07-10T08:34:55Z</time>
      </trkpt>
      <trkpt lat="43.80636" lon="6.33636">
        <ele>1065.4</ele>
        <time>2021-07-10T08:34:57Z</time>
      </trkpt>
      <trkpt lat="43.80641" lon="6.3362">
        <ele>1064.8</ele>
        <time>2021-07-10T08:34:59Z</time>
      </trkpt>
      <trkpt lat="43.80646" lon="6.33604">
        <ele>1064.8</ele>
        <time>2021-07-10T08:35:01Z</time>
      </trkpt>
      <trkpt lat="43.80652" lon="6.33589">
        <ele>1064.3</ele>
        <time>2021-07-10T08:35:03Z</time>
      </trkpt>
      <trkpt lat="43.80659" lon="6.33575">
        <ele>1063.4</ele>
        <time>2021-07-10T08:35:05Z</time>
      </trkpt>
      <trkpt lat="43.80664" lon="6.33563">
        <ele>1063.4</ele>
        <time>2021-07-10T08:35:07Z</time>
      </trkpt>
      <trkpt lat="43.80668" lon="6.33552">
        <ele>1063.4</ele>
        <time>2021-07-10T08:35:09Z</time>
      </trkpt>
      <trkpt lat="43.80672" lon="6.33541">
        <ele>1063.2</ele>
        <time>2021-07-10T08:35:11Z</time>
      </trkpt>
      <trkpt lat="43.80673" lon="6.3353">
        <ele>1064.4</ele>
        <time>2021-07-10T08:35:13Z</time>
      </trkpt>
      <trkpt lat="43.80677" lon="6.33518">
        <ele>1062.8</ele>
        <time>2021-07-10T08:35:16Z</time>
      </trkpt>
      <trkpt lat="43.8068" lon="6.33507">
        <ele>1063.5</ele>
        <time>2021-07-10T08:35:20Z</time>
      </trkpt>
      <trkpt lat="43.80686" lon="6.33499">
        <ele>1063.8</ele>
        <time>2021-07-10T08:35:24Z</time>
      </trkpt>
      <trkpt lat="43.80691" lon="6.3349">
        <ele>1066.2</ele>
        <time>2021-07-10T08:35:27Z</time>
      </trkpt>
      <trkpt lat="43.80698" lon="6.33483">
        <ele>1065.9</ele>
        <time>2021-07-10T08:35:31Z</time>
      </trkpt>
      <trkpt lat="43.80705" lon="6.33475">
        <ele>1065.7</ele>
        <time>2021-07-10T08:35:35Z</time>
      </trkpt>
      <trkpt lat="43.80713" lon="6.33467">
        <ele>1067.2</ele>
        <time>2021-07-10T08:35:39Z</time>
      </trkpt>
      <trkpt lat="43.80719" lon="6.33459">
        <ele>1068.6</ele>
        <time>2021-07-10T08:35:43Z</time>
      </trkpt>
      <trkpt lat="43.80726" lon="6.33452">
        <ele>1068.5</ele>
        <time>2021-07-10T08:35:47Z</time>
      </trkpt>
      <trkpt lat="43.80734" lon="6.33444">
        <ele>1068.9</ele>
        <time>2021-07-10T08:35:51Z</time>
      </trkpt>
      <trkpt lat="43.80741" lon="6.33437">
        <ele>1070.1</ele>
        <time>2021-07-10T08:35:55Z</time>
      </trkpt>
      <trkpt lat="43.80748" lon="6.3343">
        <ele>1072.2</ele>
        <time>2021-07-10T08:35:59Z</time>
      </trkpt>
      <trkpt lat="43.80756" lon="6.33423">
        <ele>1073.9</ele>
        <time>2021-07-10T08:36:03Z</time>
      </trkpt>
      <trkpt lat="43.80763" lon="6.33417">
        <ele>1074.2</ele>
        <time>2021-07-10T08:36:07Z</time>
      </trkpt>
      <trkpt lat="43.80771" lon="6.33412">
        <ele>1073.4</ele>
        <time>2021-07-10T08:36:11Z</time>
      </trkpt>
      <trkpt lat="43.80778" lon="6.33407">
        <ele>1073.2</ele>
        <time>2021-07-10T08:36:14Z</time>
      </trkpt>
      <trkpt lat="43.80786" lon="6.33402">
        <ele>1075.5</ele>
        <time>2021-07-10T08:36:18Z</time>
      </trkpt>
      <trkpt lat="43.80794" lon="6.33396">
        <ele>1076.3</ele>
        <time>2021-07-10T08:36:22Z</time>
      </trkpt>
      <trkpt lat="43.80802" lon="6.3339">
        <ele>1077.3</ele>
        <time>2021-07-10T08:36:26Z</time>
      </trkpt>
      <trkpt lat="43.80811" lon="6.33384">
        <ele>1078.6</ele>
        <time>2021-07-10T08:36:30Z</time>
      </trkpt>
      <trkpt lat="43.80818" lon="6.33378">
        <ele>1079.9</ele>
        <time>2021-07-10T08:36:34Z</time>
      </trkpt>
      <trkpt lat="43.80826" lon="6.33372">
        <ele>1081.3</ele>
        <time>2021-07-10T08:36:38Z</time>
      </trkpt>
      <trkpt lat="43.80834" lon="6.33365">
        <ele>1082.3</ele>
        <time>2021-07-10T08:36:42Z</time>
      </trkpt>
      <trkpt lat="43.80843" lon="6.33359">
        <ele>1083.5</ele>
        <time>2021-07-10T08:36:46Z</time>
      </trkpt>
      <trkpt lat="43.8085" lon="6.33352">
        <ele>1084.8</ele>
        <time>2021-07-10T08:36:50Z</time>
      </trkpt>
      <trkpt lat="43.80859" lon="6.33346">
        <ele>1085.6</ele>
        <time>2021-07-10T08:36:54Z</time>
      </trkpt>
      <trkpt lat="43.80866" lon="6.3334">
        <ele>1085.2</ele>
        <time>2021-07-10T08:36:58Z</time>
      </trkpt>
      <trkpt lat="43.80874" lon="6.33334">
        <ele>1086.4</ele>
        <time>2021-07-10T08:37:02Z</time>
      </trkpt>
      <trkpt lat="43.80882" lon="6.33328">
        <ele>1088.3</ele>
        <time>2021-07-10T08:37:06Z</time>
      </trkpt>
      <trkpt lat="43.8089" lon="6.33323">
        <ele>1089.6</ele>
        <time>2021-07-10T08:37:10Z</time>
      </trkpt>
      <trkpt lat="43.80899" lon="6.33321">
        <ele>1090.2</ele>
        <time>2021-07-10T08:37:14Z</time>
      </trkpt>
      <trkpt lat="43.80908" lon="6.33317">
        <ele>1091.6</ele>
        <time>2021-07-10T08:37:18Z</time>
      </trkpt>
      <trkpt lat="43.80915" lon="6.33311">
        <ele>1092.5</ele>
        <time>2021-07-10T08:37:22Z</time>
      </trkpt>
      <trkpt lat="43.80922" lon="6.33307">
        <ele>1092.8</ele>
        <time>2021-07-10T08:37:26Z</time>
      </trkpt>
      <trkpt lat="43.80929" lon="6.33306">
        <ele>1093.4</ele>
        <time>2021-07-10T08:37:30Z</time>
      </trkpt>
      <trkpt lat="43.80937" lon="6.33307">
        <ele>1092.9</ele>
        <time>2021-07-10T08:37:33Z</time>
      </trkpt>
      <trkpt lat="43.80944" lon="6.33307">
        <ele>1093</ele>
        <time>2021-07-10T08:37:36Z</time>
      </trkpt>
      <trkpt lat="43.80952" lon="6.33308">
        <ele>1092.4</ele>
        <time>2021-07-10T08:37:39Z</time>
      </trkpt>
      <trkpt lat="43.80959" lon="6.33312">
        <ele>1092.1</ele>
        <time>2021-07-10T08:37:42Z</time>
      </trkpt>
      <trkpt lat="43.80965" lon="6.33318">
        <ele>1093.2</ele>
        <time>2021-07-10T08:37:45Z</time>
      </trkpt>
      <trkpt lat="43.80971" lon="6.33326">
        <ele>1091.8</ele>
        <time>2021-07-10T08:37:48Z</time>
      </trkpt>
      <trkpt lat="43.80977" lon="6.33334">
        <ele>1090.9</ele>
        <time>2021-07-10T08:37:51Z</time>
      </trkpt>
      <trkpt lat="43.80983" lon="6.33341">
        <ele>1092.7</ele>
        <time>2021-07-10T08:37:55Z</time>
      </trkpt>
      <trkpt lat="43.80989" lon="6.33348">
        <ele>1092.8</ele>
        <time>2021-07-10T08:37:59Z</time>
      </trkpt>
      <trkpt lat="43.80995" lon="6.33356">
        <ele>1091.7</ele>
        <time>2021-07-10T08:38:03Z</time>
      </trkpt>
      <trkpt lat="43.81001" lon="6.33364">
        <ele>1092.2</ele>
        <time>2021-07-10T08:38:07Z</time>
      </trkpt>
      <trkpt lat="43.81007" lon="6.3337">
        <ele>1094.1</ele>
        <time>2021-07-10T08:38:12Z</time>
      </trkpt>
      <trkpt lat="43.81013" lon="6.33376">
        <ele>1093.8</ele>
        <time>2021-07-10T08:38:16Z</time>
      </trkpt>
      <trkpt lat="43.81018" lon="6.33385">
        <ele>1094.1</ele>
        <time>2021-07-10T08:38:20Z</time>
      </trkpt>
      <trkpt lat="43.81024" lon="6.33391">
        <ele>1093.8</ele>
        <time>2021-07-10T08:38:24Z</time>
      </trkpt>
      <trkpt lat="43.81031" lon="6.33398">
        <ele>1095.8</ele>
        <time>2021-07-10T08:38:29Z</time>
      </trkpt>
      <trkpt lat="43.81038" lon="6.33405">
        <ele>1097</ele>
        <time>2021-07-10T08:38:33Z</time>
      </trkpt>
      <trkpt lat="43.81043" lon="6.33413">
        <ele>1097.2</ele>
        <time>2021-07-10T08:38:37Z</time>
      </trkpt>
      <trkpt lat="43.81049" lon="6.33422">
        <ele>1099.8</ele>
        <time>2021-07-10T08:38:42Z</time>
      </trkpt>
      <trkpt lat="43.81053" lon="6.33431">
        <ele>1102.4</ele>
        <time>2021-07-10T08:38:46Z</time>
      </trkpt>
      <trkpt lat="43.81058" lon="6.33438">
        <ele>1105</ele>
        <time>2021-07-10T08:38:50Z</time>
      </trkpt>
      <trkpt lat="43.81061" lon="6.33448">
        <ele>1106.6</ele>
        <time>2021-07-10T08:38:54Z</time>
      </trkpt>
      <trkpt lat="43.81064" lon="6.33453">
        <ele>1108.9</ele>
        <time>2021-07-10T08:39:01Z</time>
      </trkpt>
      <trkpt lat="43.81064" lon="6.33453">
        <ele>1108.9</ele>
        <time>2021-07-10T08:39:04Z</time>
      </trkpt>
      <trkpt lat="43.81065" lon="6.33461">
        <ele>1107.4</ele>
        <time>2021-07-10T08:39:12Z</time>
      </trkpt>
      <trkpt lat="43.81068" lon="6.33472">
        <ele>1108.5</ele>
        <time>2021-07-10T08:39:16Z</time>
      </trkpt>
      <trkpt lat="43.81071" lon="6.33484">
        <ele>1108.6</ele>
        <time>2021-07-10T08:39:20Z</time>
      </trkpt>
      <trkpt lat="43.81074" lon="6.33496">
        <ele>1110.3</ele>
        <time>2021-07-10T08:39:24Z</time>
      </trkpt>
      <trkpt lat="43.81076" lon="6.33506">
        <ele>1111</ele>
        <time>2021-07-10T08:39:27Z</time>
      </trkpt>
      <trkpt lat="43.81077" lon="6.33517">
        <ele>1111.9</ele>
        <time>2021-07-10T08:39:31Z</time>
      </trkpt>
      <trkpt lat="43.81078" lon="6.33529">
        <ele>1112.1</ele>
        <time>2021-07-10T08:39:35Z</time>
      </trkpt>
      <trkpt lat="43.81083" lon="6.33539">
        <ele>1115.2</ele>
        <time>2021-07-10T08:39:39Z</time>
      </trkpt>
      <trkpt lat="43.81089" lon="6.33546">
        <ele>1117.4</ele>
        <time>2021-07-10T08:39:43Z</time>
      </trkpt>
      <trkpt lat="43.81092" lon="6.33556">
        <ele>1119.6</ele>
        <time>2021-07-10T08:39:47Z</time>
      </trkpt>
      <trkpt lat="43.81096" lon="6.33566">
        <ele>1120.9</ele>
        <time>2021-07-10T08:39:51Z</time>
      </trkpt>
      <trkpt lat="43.81099" lon="6.33576">
        <ele>1123.6</ele>
        <time>2021-07-10T08:39:55Z</time>
      </trkpt>
      <trkpt lat="43.81103" lon="6.33587">
        <ele>1124.8</ele>
        <time>2021-07-10T08:39:59Z</time>
      </trkpt>
      <trkpt lat="43.81106" lon="6.336">
        <ele>1124.1</ele>
        <time>2021-07-10T08:40:03Z</time>
      </trkpt>
      <trkpt lat="43.81108" lon="6.33609">
        <ele>1123.8</ele>
        <time>2021-07-10T08:40:06Z</time>
      </trkpt>
      <trkpt lat="43.8111" lon="6.3362">
        <ele>1127.2</ele>
        <time>2021-07-10T08:40:11Z</time>
      </trkpt>
      <trkpt lat="43.81109" lon="6.33631">
        <ele>1127.8</ele>
        <time>2021-07-10T08:40:15Z</time>
      </trkpt>
      <trkpt lat="43.81115" lon="6.33636">
        <ele>1127.5</ele>
        <time>2021-07-10T08:40:20Z</time>
      </trkpt>
      <trkpt lat="43.81118" lon="6.33625">
        <ele>1128.4</ele>
        <time>2021-07-10T08:40:24Z</time>
      </trkpt>
      <trkpt lat="43.81119" lon="6.33613">
        <ele>1128.2</ele>
        <time>2021-07-10T08:40:28Z</time>
      </trkpt>
      <trkpt lat="43.81117" lon="6.33601">
        <ele>1132.4</ele>
        <time>2021-07-10T08:40:32Z</time>
      </trkpt>
      <trkpt lat="43.81114" lon="6.3359">
        <ele>1134.6</ele>
        <time>2021-07-10T08:40:36Z</time>
      </trkpt>
      <trkpt lat="43.81113" lon="6.33578">
        <ele>1135.2</ele>
        <time>2021-07-10T08:40:40Z</time>
      </trkpt>
      <trkpt lat="43.8111" lon="6.33566">
        <ele>1136.7</ele>
        <time>2021-07-10T08:40:44Z</time>
      </trkpt>
      <trkpt lat="43.81107" lon="6.33554">
        <ele>1136.9</ele>
        <time>2021-07-10T08:40:48Z</time>
      </trkpt>
      <trkpt lat="43.81106" lon="6.33542">
        <ele>1139.3</ele>
        <time>2021-07-10T08:40:52Z</time>
      </trkpt>
      <trkpt lat="43.81104" lon="6.33531">
        <ele>1142</ele>
        <time>2021-07-10T08:40:56Z</time>
      </trkpt>
      <trkpt lat="43.81103" lon="6.33519">
        <ele>1142.6</ele>
        <time>2021-07-10T08:41:00Z</time>
      </trkpt>
      <trkpt lat="43.81102" lon="6.33509">
        <ele>1143.3</ele>
        <time>2021-07-10T08:41:04Z</time>
      </trkpt>
      <trkpt lat="43.81104" lon="6.33497">
        <ele>1143.9</ele>
        <time>2021-07-10T08:41:08Z</time>
      </trkpt>
      <trkpt lat="43.81107" lon="6.33486">
        <ele>1145.7</ele>
        <time>2021-07-10T08:41:12Z</time>
      </trkpt>
      <trkpt lat="43.81114" lon="6.33477">
        <ele>1146.3</ele>
        <time>2021-07-10T08:41:16Z</time>
      </trkpt>
      <trkpt lat="43.81122" lon="6.33482">
        <ele>1145</ele>
        <time>2021-07-10T08:41:20Z</time>
      </trkpt>
      <trkpt lat="43.81125" lon="6.33491">
        <ele>1145.6</ele>
        <time>2021-07-10T08:41:23Z</time>
      </trkpt>
      <trkpt lat="43.81127" lon="6.33503">
        <ele>1145.1</ele>
        <time>2021-07-10T08:41:27Z</time>
      </trkpt>
      <trkpt lat="43.8113" lon="6.33513">
        <ele>1145.9</ele>
        <time>2021-07-10T08:41:32Z</time>
      </trkpt>
      <trkpt lat="43.81137" lon="6.33522">
        <ele>1148.2</ele>
        <time>2021-07-10T08:41:38Z</time>
      </trkpt>
      <trkpt lat="43.81142" lon="6.33529">
        <ele>1148</ele>
        <time>2021-07-10T08:41:42Z</time>
      </trkpt>
      <trkpt lat="43.81149" lon="6.33536">
        <ele>1149.8</ele>
        <time>2021-07-10T08:41:47Z</time>
      </trkpt>
      <trkpt lat="43.81151" lon="6.3354">
        <ele>1148.2</ele>
        <time>2021-07-10T08:41:54Z</time>
      </trkpt>
      <trkpt lat="43.81151" lon="6.3354">
        <ele>1148.3</ele>
        <time>2021-07-10T08:41:57Z</time>
      </trkpt>
      <trkpt lat="43.81152" lon="6.33539">
        <ele>1150</ele>
        <time>2021-07-10T08:42:06Z</time>
      </trkpt>
      <trkpt lat="43.81152" lon="6.33536">
        <ele>1149.6</ele>
        <time>2021-07-10T08:42:13Z</time>
      </trkpt>
      <trkpt lat="43.81152" lon="6.33537">
        <ele>1149.1</ele>
        <time>2021-07-10T08:42:15Z</time>
      </trkpt>
      <trkpt lat="43.81157" lon="6.33545">
        <ele>1146.9</ele>
        <time>2021-07-10T08:42:30Z</time>
      </trkpt>
      <trkpt lat="43.81161" lon="6.33555">
        <ele>1146.4</ele>
        <time>2021-07-10T08:42:34Z</time>
      </trkpt>
      <trkpt lat="43.81165" lon="6.33566">
        <ele>1147.3</ele>
        <time>2021-07-10T08:42:38Z</time>
      </trkpt>
      <trkpt lat="43.81163" lon="6.33576">
        <ele>1151.2</ele>
        <time>2021-07-10T08:42:43Z</time>
      </trkpt>
      <trkpt lat="43.81158" lon="6.33585">
        <ele>1151.9</ele>
        <time>2021-07-10T08:42:47Z</time>
      </trkpt>
      <trkpt lat="43.81155" lon="6.33596">
        <ele>1153.2</ele>
        <time>2021-07-10T08:42:51Z</time>
      </trkpt>
      <trkpt lat="43.81154" lon="6.33608">
        <ele>1154.1</ele>
        <time>2021-07-10T08:42:55Z</time>
      </trkpt>
      <trkpt lat="43.81157" lon="6.33618">
        <ele>1155</ele>
        <time>2021-07-10T08:42:59Z</time>
      </trkpt>
      <trkpt lat="43.81158" lon="6.33631">
        <ele>1153.9</ele>
        <time>2021-07-10T08:43:03Z</time>
      </trkpt>
      <trkpt lat="43.81158" lon="6.33642">
        <ele>1155.6</ele>
        <time>2021-07-10T08:43:07Z</time>
      </trkpt>
      <trkpt lat="43.81158" lon="6.33654">
        <ele>1155.8</ele>
        <time>2021-07-10T08:43:11Z</time>
      </trkpt>
      <trkpt lat="43.8116" lon="6.33664">
        <ele>1156.3</ele>
        <time>2021-07-10T08:43:15Z</time>
      </trkpt>
      <trkpt lat="43.81162" lon="6.33674">
        <ele>1155.2</ele>
        <time>2021-07-10T08:43:19Z</time>
      </trkpt>
      <trkpt lat="43.81163" lon="6.33687">
        <ele>1158.4</ele>
        <time>2021-07-10T08:43:25Z</time>
      </trkpt>
      <trkpt lat="43.81163" lon="6.33698">
        <ele>1159.7</ele>
        <time>2021-07-10T08:43:30Z</time>
      </trkpt>
      <trkpt lat="43.81165" lon="6.33709">
        <ele>1160.5</ele>
        <time>2021-07-10T08:43:34Z</time>
      </trkpt>
      <trkpt lat="43.81166" lon="6.33721">
        <ele>1160.7</ele>
        <time>2021-07-10T08:43:39Z</time>
      </trkpt>
      <trkpt lat="43.81168" lon="6.33732">
        <ele>1161.8</ele>
        <time>2021-07-10T08:43:44Z</time>
      </trkpt>
      <trkpt lat="43.81168" lon="6.33742">
        <ele>1161</ele>
        <time>2021-07-10T08:43:48Z</time>
      </trkpt>
      <trkpt lat="43.81168" lon="6.33754">
        <ele>1160.8</ele>
        <time>2021-07-10T08:43:53Z</time>
      </trkpt>
      <trkpt lat="43.81168" lon="6.33764">
        <ele>1160.9</ele>
        <time>2021-07-10T08:43:57Z</time>
      </trkpt>
      <trkpt lat="43.8117" lon="6.33776">
        <ele>1162.5</ele>
        <time>2021-07-10T08:44:02Z</time>
      </trkpt>
      <trkpt lat="43.81173" lon="6.33785">
        <ele>1164.9</ele>
        <time>2021-07-10T08:44:07Z</time>
      </trkpt>
      <trkpt lat="43.81178" lon="6.33796">
        <ele>1168.9</ele>
        <time>2021-07-10T08:44:13Z</time>
      </trkpt>
      <trkpt lat="43.81178" lon="6.33808">
        <ele>1169.8</ele>
        <time>2021-07-10T08:44:18Z</time>
      </trkpt>
      <trkpt lat="43.81184" lon="6.3381">
        <ele>1172.6</ele>
        <time>2021-07-10T08:44:25Z</time>
      </trkpt>
      <trkpt lat="43.81186" lon="6.33798">
        <ele>1173</ele>
        <time>2021-07-10T08:44:29Z</time>
      </trkpt>
      <trkpt lat="43.8119" lon="6.33792">
        <ele>1173.9</ele>
        <time>2021-07-10T08:44:33Z</time>
      </trkpt>
      <trkpt lat="43.81196" lon="6.33782">
        <ele>1176</ele>
        <time>2021-07-10T08:44:38Z</time>
      </trkpt>
      <trkpt lat="43.812" lon="6.33773">
        <ele>1177.4</ele>
        <time>2021-07-10T08:44:43Z</time>
      </trkpt>
      <trkpt lat="43.81205" lon="6.33765">
        <ele>1179</ele>
        <time>2021-07-10T08:44:48Z</time>
      </trkpt>
      <trkpt lat="43.8121" lon="6.33757">
        <ele>1180.9</ele>
        <time>2021-07-10T08:44:54Z</time>
      </trkpt>
      <trkpt lat="43.81213" lon="6.33747">
        <ele>1183.6</ele>
        <time>2021-07-10T08:45:00Z</time>
      </trkpt>
      <trkpt lat="43.81216" lon="6.33737">
        <ele>1185</ele>
        <time>2021-07-10T08:45:04Z</time>
      </trkpt>
      <trkpt lat="43.81219" lon="6.33726">
        <ele>1186.1</ele>
        <time>2021-07-10T08:45:08Z</time>
      </trkpt>
      <trkpt lat="43.81221" lon="6.33716">
        <ele>1187.7</ele>
        <time>2021-07-10T08:45:12Z</time>
      </trkpt>
      <trkpt lat="43.81223" lon="6.33706">
        <ele>1189.7</ele>
        <time>2021-07-10T08:45:16Z</time>
      </trkpt>
      <trkpt lat="43.81224" lon="6.33695">
        <ele>1191.2</ele>
        <time>2021-07-10T08:45:20Z</time>
      </trkpt>
      <trkpt lat="43.81229" lon="6.33688">
        <ele>1191.5</ele>
        <time>2021-07-10T08:45:24Z</time>
      </trkpt>
      <trkpt lat="43.81236" lon="6.3369">
        <ele>1190.3</ele>
        <time>2021-07-10T08:45:27Z</time>
      </trkpt>
      <trkpt lat="43.81242" lon="6.33698">
        <ele>1190.4</ele>
        <time>2021-07-10T08:45:30Z</time>
      </trkpt>
      <trkpt lat="43.81244" lon="6.33708">
        <ele>1189.8</ele>
        <time>2021-07-10T08:45:33Z</time>
      </trkpt>
      <trkpt lat="43.81248" lon="6.33719">
        <ele>1189.8</ele>
        <time>2021-07-10T08:45:37Z</time>
      </trkpt>
      <trkpt lat="43.81251" lon="6.33728">
        <ele>1189.3</ele>
        <time>2021-07-10T08:45:40Z</time>
      </trkpt>
      <trkpt lat="43.81254" lon="6.3374">
        <ele>1190.9</ele>
        <time>2021-07-10T08:45:44Z</time>
      </trkpt>
      <trkpt lat="43.81259" lon="6.33749">
        <ele>1190.8</ele>
        <time>2021-07-10T08:45:48Z</time>
      </trkpt>
      <trkpt lat="43.81264" lon="6.3376">
        <ele>1190.5</ele>
        <time>2021-07-10T08:45:52Z</time>
      </trkpt>
      <trkpt lat="43.81267" lon="6.33771">
        <ele>1190.8</ele>
        <time>2021-07-10T08:45:56Z</time>
      </trkpt>
      <trkpt lat="43.8127" lon="6.33782">
        <ele>1192</ele>
        <time>2021-07-10T08:46:01Z</time>
      </trkpt>
      <trkpt lat="43.8127" lon="6.33792">
        <ele>1192</ele>
        <time>2021-07-10T08:46:06Z</time>
      </trkpt>
      <trkpt lat="43.81269" lon="6.33803">
        <ele>1192.4</ele>
        <time>2021-07-10T08:46:11Z</time>
      </trkpt>
      <trkpt lat="43.81269" lon="6.33816">
        <ele>1193.7</ele>
        <time>2021-07-10T08:46:16Z</time>
      </trkpt>
      <trkpt lat="43.81266" lon="6.33826">
        <ele>1195</ele>
        <time>2021-07-10T08:46:20Z</time>
      </trkpt>
      <trkpt lat="43.81264" lon="6.33837">
        <ele>1196.4</ele>
        <time>2021-07-10T08:46:24Z</time>
      </trkpt>
      <trkpt lat="43.8126" lon="6.33847">
        <ele>1197.6</ele>
        <time>2021-07-10T08:46:28Z</time>
      </trkpt>
      <trkpt lat="43.81257" lon="6.33857">
        <ele>1199.6</ele>
        <time>2021-07-10T08:46:32Z</time>
      </trkpt>
      <trkpt lat="43.81251" lon="6.33864">
        <ele>1200.7</ele>
        <time>2021-07-10T08:46:36Z</time>
      </trkpt>
      <trkpt lat="43.81249" lon="6.33865">
        <ele>1200.6</ele>
        <time>2021-07-10T08:46:43Z</time>
      </trkpt>
      <trkpt lat="43.81249" lon="6.33865">
        <ele>1200.6</ele>
        <time>2021-07-10T08:46:45Z</time>
      </trkpt>
      <trkpt lat="43.81248" lon="6.33866">
        <ele>1201.7</ele>
        <time>2021-07-10T08:47:01Z</time>
      </trkpt>
      <trkpt lat="43.81248" lon="6.33866">
        <ele>1201.9</ele>
        <time>2021-07-10T08:47:03Z</time>
      </trkpt>
      <trkpt lat="43.81244" lon="6.33865">
        <ele>1202.8</ele>
        <time>2021-07-10T08:47:13Z</time>
      </trkpt>
      <trkpt lat="43.81244" lon="6.33864">
        <ele>1201</ele>
        <time>2021-07-10T08:47:20Z</time>
      </trkpt>
      <trkpt lat="43.81244" lon="6.33864">
        <ele>1200.8</ele>
        <time>2021-07-10T08:47:21Z</time>
      </trkpt>
      <trkpt lat="43.81243" lon="6.33872">
        <ele>1201.8</ele>
        <time>2021-07-10T08:47:29Z</time>
      </trkpt>
      <trkpt lat="43.81242" lon="6.33877">
        <ele>1203</ele>
        <time>2021-07-10T08:47:36Z</time>
      </trkpt>
      <trkpt lat="43.81241" lon="6.33884">
        <ele>1205.3</ele>
        <time>2021-07-10T08:47:43Z</time>
      </trkpt>
      <trkpt lat="43.8124" lon="6.33887">
        <ele>1205.9</ele>
        <time>2021-07-10T08:47:50Z</time>
      </trkpt>
      <trkpt lat="43.81241" lon="6.3389">
        <ele>1207.1</ele>
        <time>2021-07-10T08:47:57Z</time>
      </trkpt>
      <trkpt lat="43.81241" lon="6.3389">
        <ele>1207.3</ele>
        <time>2021-07-10T08:48:00Z</time>
      </trkpt>
      <trkpt lat="43.8124" lon="6.3389">
        <ele>1208</ele>
        <time>2021-07-10T08:48:11Z</time>
      </trkpt>
      <trkpt lat="43.8124" lon="6.33889">
        <ele>1208</ele>
        <time>2021-07-10T08:48:12Z</time>
      </trkpt>
      <trkpt lat="43.81241" lon="6.3389">
        <ele>1207.1</ele>
        <time>2021-07-10T08:48:24Z</time>
      </trkpt>
      <trkpt lat="43.81241" lon="6.3389">
        <ele>1207</ele>
        <time>2021-07-10T08:48:25Z</time>
      </trkpt>
      <trkpt lat="43.81242" lon="6.3389">
        <ele>1211.1</ele>
        <time>2021-07-10T08:48:49Z</time>
      </trkpt>
      <trkpt lat="43.81242" lon="6.33891">
        <ele>1211.9</ele>
        <time>2021-07-10T08:48:52Z</time>
      </trkpt>
      <trkpt lat="43.81241" lon="6.33892">
        <ele>1206.7</ele>
        <time>2021-07-10T08:49:01Z</time>
      </trkpt>
      <trkpt lat="43.81237" lon="6.33889">
        <ele>1208.9</ele>
        <time>2021-07-10T08:49:08Z</time>
      </trkpt>
      <trkpt lat="43.81238" lon="6.3389">
        <ele>1209.4</ele>
        <time>2021-07-10T08:49:14Z</time>
      </trkpt>
      <trkpt lat="43.81237" lon="6.33899">
        <ele>1209.2</ele>
        <time>2021-07-10T08:49:25Z</time>
      </trkpt>
      <trkpt lat="43.81237" lon="6.33906">
        <ele>1207.8</ele>
        <time>2021-07-10T08:49:32Z</time>
      </trkpt>
      <trkpt lat="43.81239" lon="6.33907">
        <ele>1207</ele>
        <time>2021-07-10T08:49:39Z</time>
      </trkpt>
      <trkpt lat="43.81239" lon="6.33907">
        <ele>1207.3</ele>
        <time>2021-07-10T08:49:41Z</time>
      </trkpt>
      <trkpt lat="43.81239" lon="6.33909">
        <ele>1210.6</ele>
        <time>2021-07-10T08:50:45Z</time>
      </trkpt>
      <trkpt lat="43.81239" lon="6.33909">
        <ele>1210.9</ele>
        <time>2021-07-10T08:50:46Z</time>
      </trkpt>
      <trkpt lat="43.81239" lon="6.33909">
        <ele>1211.4</ele>
        <time>2021-07-10T08:50:59Z</time>
      </trkpt>
      <trkpt lat="43.81237" lon="6.33901">
        <ele>1210.4</ele>
        <time>2021-07-10T08:51:06Z</time>
      </trkpt>
      <trkpt lat="43.81237" lon="6.33895">
        <ele>1208.1</ele>
        <time>2021-07-10T08:51:13Z</time>
      </trkpt>
      <trkpt lat="43.81239" lon="6.33887">
        <ele>1207.5</ele>
        <time>2021-07-10T08:51:20Z</time>
      </trkpt>
      <trkpt lat="43.8124" lon="6.33882">
        <ele>1206.5</ele>
        <time>2021-07-10T08:51:27Z</time>
      </trkpt>
      <trkpt lat="43.8124" lon="6.33881">
        <ele>1204.4</ele>
        <time>2021-07-10T08:51:34Z</time>
      </trkpt>
      <trkpt lat="43.81241" lon="6.33876">
        <ele>1203.2</ele>
        <time>2021-07-10T08:51:41Z</time>
      </trkpt>
      <trkpt lat="43.81241" lon="6.33871">
        <ele>1203.9</ele>
        <time>2021-07-10T08:51:48Z</time>
      </trkpt>
      <trkpt lat="43.81244" lon="6.33865">
        <ele>1203.1</ele>
        <time>2021-07-10T08:51:55Z</time>
      </trkpt>
      <trkpt lat="43.81244" lon="6.33867">
        <ele>1204.2</ele>
        <time>2021-07-10T08:52:01Z</time>
      </trkpt>
      <trkpt lat="43.81245" lon="6.33867">
        <ele>1202.8</ele>
        <time>2021-07-10T08:52:10Z</time>
      </trkpt>
      <trkpt lat="43.81244" lon="6.33867">
        <ele>1203.5</ele>
        <time>2021-07-10T08:52:11Z</time>
      </trkpt>
      <trkpt lat="43.81246" lon="6.33865">
        <ele>1200.4</ele>
        <time>2021-07-10T08:52:22Z</time>
      </trkpt>
      <trkpt lat="43.81246" lon="6.33866">
        <ele>1200.1</ele>
        <time>2021-07-10T08:52:24Z</time>
      </trkpt>
      <trkpt lat="43.81247" lon="6.33866">
        <ele>1200.3</ele>
        <time>2021-07-10T08:52:52Z</time>
      </trkpt>
      <trkpt lat="43.81247" lon="6.33866">
        <ele>1200.7</ele>
        <time>2021-07-10T08:52:53Z</time>
      </trkpt>
      <trkpt lat="43.81248" lon="6.33865">
        <ele>1200.6</ele>
        <time>2021-07-10T08:53:02Z</time>
      </trkpt>
      <trkpt lat="43.81248" lon="6.33865">
        <ele>1200.7</ele>
        <time>2021-07-10T08:53:03Z</time>
      </trkpt>
      <trkpt lat="43.81246" lon="6.33866">
        <ele>1201.3</ele>
        <time>2021-07-10T08:53:14Z</time>
      </trkpt>
      <trkpt lat="43.81246" lon="6.33866">
        <ele>1201.3</ele>
        <time>2021-07-10T08:53:15Z</time>
      </trkpt>
      <trkpt lat="43.81247" lon="6.33866">
        <ele>1201.6</ele>
        <time>2021-07-10T08:53:23Z</time>
      </trkpt>
      <trkpt lat="43.81244" lon="6.33869">
        <ele>1201.3</ele>
        <time>2021-07-10T08:53:30Z</time>
      </trkpt>
      <trkpt lat="43.81244" lon="6.33868">
        <ele>1200.7</ele>
        <time>2021-07-10T08:53:34Z</time>
      </trkpt>
      <trkpt lat="43.81243" lon="6.33867">
        <ele>1200.6</ele>
        <time>2021-07-10T08:53:44Z</time>
      </trkpt>
      <trkpt lat="43.81243" lon="6.33868">
        <ele>1200.7</ele>
        <time>2021-07-10T08:53:45Z</time>
      </trkpt>
      <trkpt lat="43.81241" lon="6.33855">
        <ele>1198.6</ele>
        <time>2021-07-10T08:53:52Z</time>
      </trkpt>
      <trkpt lat="43.81243" lon="6.33841">
        <ele>1196.7</ele>
        <time>2021-07-10T08:53:55Z</time>
      </trkpt>
      <trkpt lat="43.81247" lon="6.33829">
        <ele>1195.4</ele>
        <time>2021-07-10T08:53:58Z</time>
      </trkpt>
      <trkpt lat="43.81253" lon="6.33817">
        <ele>1195.6</ele>
        <time>2021-07-10T08:54:01Z</time>
      </trkpt>
      <trkpt lat="43.81259" lon="6.33807">
        <ele>1195.3</ele>
        <time>2021-07-10T08:54:04Z</time>
      </trkpt>
      <trkpt lat="43.81265" lon="6.33801">
        <ele>1196.3</ele>
        <time>2021-07-10T08:54:08Z</time>
      </trkpt>
      <trkpt lat="43.81272" lon="6.33798">
        <ele>1195.4</ele>
        <time>2021-07-10T08:54:12Z</time>
      </trkpt>
      <trkpt lat="43.81279" lon="6.33795">
        <ele>1194.1</ele>
        <time>2021-07-10T08:54:16Z</time>
      </trkpt>
      <trkpt lat="43.81288" lon="6.33795">
        <ele>1193.5</ele>
        <time>2021-07-10T08:54:20Z</time>
      </trkpt>
      <trkpt lat="43.81296" lon="6.33793">
        <ele>1191.8</ele>
        <time>2021-07-10T08:54:24Z</time>
      </trkpt>
      <trkpt lat="43.81302" lon="6.33785">
        <ele>1190.8</ele>
        <time>2021-07-10T08:54:27Z</time>
      </trkpt>
      <trkpt lat="43.81308" lon="6.33777">
        <ele>1189.7</ele>
        <time>2021-07-10T08:54:31Z</time>
      </trkpt>
      <trkpt lat="43.81313" lon="6.33768">
        <ele>1188.2</ele>
        <time>2021-07-10T08:54:34Z</time>
      </trkpt>
      <trkpt lat="43.81318" lon="6.33757">
        <ele>1188</ele>
        <time>2021-07-10T08:54:38Z</time>
      </trkpt>
      <trkpt lat="43.81322" lon="6.33745">
        <ele>1187.5</ele>
        <time>2021-07-10T08:54:42Z</time>
      </trkpt>
      <trkpt lat="43.81327" lon="6.33736">
        <ele>1185.6</ele>
        <time>2021-07-10T08:54:45Z</time>
      </trkpt>
      <trkpt lat="43.81332" lon="6.33726">
        <ele>1184.8</ele>
        <time>2021-07-10T08:54:48Z</time>
      </trkpt>
      <trkpt lat="43.81337" lon="6.33715">
        <ele>1182.6</ele>
        <time>2021-07-10T08:54:51Z</time>
      </trkpt>
      <trkpt lat="43.8134" lon="6.33705">
        <ele>1182.7</ele>
        <time>2021-07-10T08:54:53Z</time>
      </trkpt>
      <trkpt lat="43.81344" lon="6.33693">
        <ele>1182.3</ele>
        <time>2021-07-10T08:54:56Z</time>
      </trkpt>
      <trkpt lat="43.81348" lon="6.33684">
        <ele>1183.3</ele>
        <time>2021-07-10T08:54:59Z</time>
      </trkpt>
      <trkpt lat="43.81353" lon="6.33675">
        <ele>1182.4</ele>
        <time>2021-07-10T08:55:02Z</time>
      </trkpt>
      <trkpt lat="43.81358" lon="6.33664">
        <ele>1182.6</ele>
        <time>2021-07-10T08:55:05Z</time>
      </trkpt>
      <trkpt lat="43.81364" lon="6.33654">
        <ele>1182.2</ele>
        <time>2021-07-10T08:55:08Z</time>
      </trkpt>
      <trkpt lat="43.81371" lon="6.33646">
        <ele>1182.5</ele>
        <time>2021-07-10T08:55:11Z</time>
      </trkpt>
      <trkpt lat="43.81375" lon="6.33638">
        <ele>1181.2</ele>
        <time>2021-07-10T08:55:13Z</time>
      </trkpt>
      <trkpt lat="43.81381" lon="6.33626">
        <ele>1180.8</ele>
        <time>2021-07-10T08:55:16Z</time>
      </trkpt>
      <trkpt lat="43.81386" lon="6.33617">
        <ele>1179.8</ele>
        <time>2021-07-10T08:55:18Z</time>
      </trkpt>
      <trkpt lat="43.81391" lon="6.33609">
        <ele>1179</ele>
        <time>2021-07-10T08:55:20Z</time>
      </trkpt>
      <trkpt lat="43.81397" lon="6.336">
        <ele>1178.9</ele>
        <time>2021-07-10T08:55:22Z</time>
      </trkpt>
      <trkpt lat="43.81403" lon="6.33593">
        <ele>1178.5</ele>
        <time>2021-07-10T08:55:24Z</time>
      </trkpt>
      <trkpt lat="43.81409" lon="6.33585">
        <ele>1177.2</ele>
        <time>2021-07-10T08:55:26Z</time>
      </trkpt>
      <trkpt lat="43.81414" lon="6.33578">
        <ele>1175.8</ele>
        <time>2021-07-10T08:55:28Z</time>
      </trkpt>
      <trkpt lat="43.81421" lon="6.3357">
        <ele>1175.3</ele>
        <time>2021-07-10T08:55:30Z</time>
      </trkpt>
      <trkpt lat="43.81429" lon="6.33559">
        <ele>1174.2</ele>
        <time>2021-07-10T08:55:32Z</time>
      </trkpt>
      <trkpt lat="43.81438" lon="6.33552">
        <ele>1173.6</ele>
        <time>2021-07-10T08:55:34Z</time>
      </trkpt>
      <trkpt lat="43.81445" lon="6.33547">
        <ele>1172.6</ele>
        <time>2021-07-10T08:55:36Z</time>
      </trkpt>
      <trkpt lat="43.81452" lon="6.33543">
        <ele>1171.8</ele>
        <time>2021-07-10T08:55:38Z</time>
      </trkpt>
      <trkpt lat="43.81459" lon="6.33537">
        <ele>1171.6</ele>
        <time>2021-07-10T08:55:40Z</time>
      </trkpt>
      <trkpt lat="43.81466" lon="6.33531">
        <ele>1170.6</ele>
        <time>2021-07-10T08:55:42Z</time>
      </trkpt>
      <trkpt lat="43.81472" lon="6.33526">
        <ele>1169.9</ele>
        <time>2021-07-10T08:55:44Z</time>
      </trkpt>
      <trkpt lat="43.81481" lon="6.33517">
        <ele>1169.1</ele>
        <time>2021-07-10T08:55:47Z</time>
      </trkpt>
      <trkpt lat="43.81487" lon="6.3351">
        <ele>1167.1</ele>
        <time>2021-07-10T08:55:49Z</time>
      </trkpt>
      <trkpt lat="43.81493" lon="6.33504">
        <ele>1166.4</ele>
        <time>2021-07-10T08:55:51Z</time>
      </trkpt>
      <trkpt lat="43.815" lon="6.33499">
        <ele>1165.8</ele>
        <time>2021-07-10T08:55:53Z</time>
      </trkpt>
      <trkpt lat="43.81507" lon="6.33494">
        <ele>1164.8</ele>
        <time>2021-07-10T08:55:55Z</time>
      </trkpt>
      <trkpt lat="43.81515" lon="6.33491">
        <ele>1162.5</ele>
        <time>2021-07-10T08:55:57Z</time>
      </trkpt>
      <trkpt lat="43.81522" lon="6.33488">
        <ele>1160.5</ele>
        <time>2021-07-10T08:55:59Z</time>
      </trkpt>
      <trkpt lat="43.81529" lon="6.33487">
        <ele>1159.3</ele>
        <time>2021-07-10T08:56:01Z</time>
      </trkpt>
      <trkpt lat="43.81539" lon="6.33484">
        <ele>1157.6</ele>
        <time>2021-07-10T08:56:04Z</time>
      </trkpt>
      <trkpt lat="43.81548" lon="6.33481">
        <ele>1157.3</ele>
        <time>2021-07-10T08:56:06Z</time>
      </trkpt>
      <trkpt lat="43.81558" lon="6.33475">
        <ele>1156</ele>
        <time>2021-07-10T08:56:08Z</time>
      </trkpt>
      <trkpt lat="43.81566" lon="6.33467">
        <ele>1156.1</ele>
        <time>2021-07-10T08:56:10Z</time>
      </trkpt>
      <trkpt lat="43.81574" lon="6.33457">
        <ele>1155</ele>
        <time>2021-07-10T08:56:12Z</time>
      </trkpt>
      <trkpt lat="43.81584" lon="6.3345">
        <ele>1155.4</ele>
        <time>2021-07-10T08:56:14Z</time>
      </trkpt>
      <trkpt lat="43.81593" lon="6.3344">
        <ele>1154</ele>
        <time>2021-07-10T08:56:16Z</time>
      </trkpt>
      <trkpt lat="43.81602" lon="6.33432">
        <ele>1153.9</ele>
        <time>2021-07-10T08:56:18Z</time>
      </trkpt>
      <trkpt lat="43.81609" lon="6.33425">
        <ele>1155.1</ele>
        <time>2021-07-10T08:56:20Z</time>
      </trkpt>
      <trkpt lat="43.81614" lon="6.33419">
        <ele>1155.3</ele>
        <time>2021-07-10T08:56:22Z</time>
      </trkpt>
      <trkpt lat="43.81621" lon="6.33411">
        <ele>1154.8</ele>
        <time>2021-07-10T08:56:25Z</time>
      </trkpt>
      <trkpt lat="43.81628" lon="6.33405">
        <ele>1153.5</ele>
        <time>2021-07-10T08:56:27Z</time>
      </trkpt>
      <trkpt lat="43.81635" lon="6.33398">
        <ele>1152.6</ele>
        <time>2021-07-10T08:56:30Z</time>
      </trkpt>
      <trkpt lat="43.81642" lon="6.33391">
        <ele>1153.2</ele>
        <time>2021-07-10T08:56:33Z</time>
      </trkpt>
      <trkpt lat="43.81651" lon="6.3339">
        <ele>1150.5</ele>
        <time>2021-07-10T08:56:36Z</time>
      </trkpt>
      <trkpt lat="43.81658" lon="6.3339">
        <ele>1150.3</ele>
        <time>2021-07-10T08:56:38Z</time>
      </trkpt>
      <trkpt lat="43.81666" lon="6.33391">
        <ele>1150.5</ele>
        <time>2021-07-10T08:56:40Z</time>
      </trkpt>
      <trkpt lat="43.81675" lon="6.33392">
        <ele>1151.6</ele>
        <time>2021-07-10T08:56:43Z</time>
      </trkpt>
      <trkpt lat="43.81683" lon="6.33392">
        <ele>1150.2</ele>
        <time>2021-07-10T08:56:47Z</time>
      </trkpt>
      <trkpt lat="43.81693" lon="6.3339">
        <ele>1150.1</ele>
        <time>2021-07-10T08:56:51Z</time>
      </trkpt>
      <trkpt lat="43.81702" lon="6.33387">
        <ele>1149.6</ele>
        <time>2021-07-10T08:56:55Z</time>
      </trkpt>
      <trkpt lat="43.8171" lon="6.33385">
        <ele>1149.9</ele>
        <time>2021-07-10T08:56:58Z</time>
      </trkpt>
      <trkpt lat="43.81718" lon="6.33385">
        <ele>1149.6</ele>
        <time>2021-07-10T08:57:01Z</time>
      </trkpt>
      <trkpt lat="43.81726" lon="6.33384">
        <ele>1151.1</ele>
        <time>2021-07-10T08:57:05Z</time>
      </trkpt>
      <trkpt lat="43.81735" lon="6.33383">
        <ele>1151.5</ele>
        <time>2021-07-10T08:57:09Z</time>
      </trkpt>
      <trkpt lat="43.81743" lon="6.33382">
        <ele>1153.4</ele>
        <time>2021-07-10T08:57:13Z</time>
      </trkpt>
      <trkpt lat="43.8175" lon="6.33379">
        <ele>1155.4</ele>
        <time>2021-07-10T08:57:18Z</time>
      </trkpt>
      <trkpt lat="43.81757" lon="6.33373">
        <ele>1156.3</ele>
        <time>2021-07-10T08:57:23Z</time>
      </trkpt>
      <trkpt lat="43.81764" lon="6.33367">
        <ele>1155.4</ele>
        <time>2021-07-10T08:57:28Z</time>
      </trkpt>
      <trkpt lat="43.81773" lon="6.33362">
        <ele>1154.4</ele>
        <time>2021-07-10T08:57:32Z</time>
      </trkpt>
      <trkpt lat="43.8178" lon="6.33357">
        <ele>1151.5</ele>
        <time>2021-07-10T08:57:35Z</time>
      </trkpt>
      <trkpt lat="43.81789" lon="6.3335">
        <ele>1150.8</ele>
        <time>2021-07-10T08:57:38Z</time>
      </trkpt>
      <trkpt lat="43.81797" lon="6.33343">
        <ele>1151.2</ele>
        <time>2021-07-10T08:57:41Z</time>
      </trkpt>
      <trkpt lat="43.81803" lon="6.33336">
        <ele>1151.9</ele>
        <time>2021-07-10T08:57:44Z</time>
      </trkpt>
      <trkpt lat="43.81808" lon="6.33328">
        <ele>1151.7</ele>
        <time>2021-07-10T08:57:48Z</time>
      </trkpt>
      <trkpt lat="43.81814" lon="6.33321">
        <ele>1149</ele>
        <time>2021-07-10T08:57:53Z</time>
      </trkpt>
      <trkpt lat="43.81821" lon="6.33314">
        <ele>1149.6</ele>
        <time>2021-07-10T08:57:57Z</time>
      </trkpt>
      <trkpt lat="43.81828" lon="6.33308">
        <ele>1149.3</ele>
        <time>2021-07-10T08:58:01Z</time>
      </trkpt>
      <trkpt lat="43.81834" lon="6.33301">
        <ele>1149.5</ele>
        <time>2021-07-10T08:58:06Z</time>
      </trkpt>
      <trkpt lat="43.8184" lon="6.33293">
        <ele>1148.6</ele>
        <time>2021-07-10T08:58:10Z</time>
      </trkpt>
      <trkpt lat="43.81845" lon="6.33286">
        <ele>1148.2</ele>
        <time>2021-07-10T08:58:14Z</time>
      </trkpt>
      <trkpt lat="43.8185" lon="6.33277">
        <ele>1148.5</ele>
        <time>2021-07-10T08:58:18Z</time>
      </trkpt>
      <trkpt lat="43.81857" lon="6.33269">
        <ele>1147.9</ele>
        <time>2021-07-10T08:58:23Z</time>
      </trkpt>
      <trkpt lat="43.81862" lon="6.33261">
        <ele>1149.6</ele>
        <time>2021-07-10T08:58:28Z</time>
      </trkpt>
      <trkpt lat="43.81865" lon="6.33256">
        <ele>1147</ele>
        <time>2021-07-10T08:58:35Z</time>
      </trkpt>
      <trkpt lat="43.81865" lon="6.33258">
        <ele>1146.1</ele>
        <time>2021-07-10T08:58:42Z</time>
      </trkpt>
      <trkpt lat="43.81864" lon="6.33256">
        <ele>1150.5</ele>
        <time>2021-07-10T08:58:49Z</time>
      </trkpt>
      <trkpt lat="43.81864" lon="6.33256">
        <ele>1150.5</ele>
        <time>2021-07-10T08:58:50Z</time>
      </trkpt>
      <trkpt lat="43.81868" lon="6.33257">
        <ele>1152.3</ele>
        <time>2021-07-10T08:58:58Z</time>
      </trkpt>
      <trkpt lat="43.81864" lon="6.33264">
        <ele>1153.3</ele>
        <time>2021-07-10T08:59:05Z</time>
      </trkpt>
      <trkpt lat="43.81865" lon="6.33264">
        <ele>1158.5</ele>
        <time>2021-07-10T08:59:12Z</time>
      </trkpt>
      <trkpt lat="43.81865" lon="6.33256">
        <ele>1156.8</ele>
        <time>2021-07-10T08:59:19Z</time>
      </trkpt>
      <trkpt lat="43.81871" lon="6.33248">
        <ele>1156.1</ele>
        <time>2021-07-10T08:59:26Z</time>
      </trkpt>
      <trkpt lat="43.81874" lon="6.33241">
        <ele>1154.3</ele>
        <time>2021-07-10T08:59:33Z</time>
      </trkpt>
      <trkpt lat="43.81875" lon="6.33234">
        <ele>1154.6</ele>
        <time>2021-07-10T08:59:40Z</time>
      </trkpt>
      <trkpt lat="43.81871" lon="6.33232">
        <ele>1153.1</ele>
        <time>2021-07-10T08:59:47Z</time>
      </trkpt>
      <trkpt lat="43.81866" lon="6.33232">
        <ele>1157.2</ele>
        <time>2021-07-10T08:59:54Z</time>
      </trkpt>
      <trkpt lat="43.8187" lon="6.33223">
        <ele>1156.1</ele>
        <time>2021-07-10T09:00:01Z</time>
      </trkpt>
      <trkpt lat="43.81873" lon="6.3322">
        <ele>1160</ele>
        <time>2021-07-10T09:00:08Z</time>
      </trkpt>
      <trkpt lat="43.81879" lon="6.33217">
        <ele>1164.4</ele>
        <time>2021-07-10T09:00:15Z</time>
      </trkpt>
      <trkpt lat="43.81882" lon="6.33208">
        <ele>1161</ele>
        <time>2021-07-10T09:00:22Z</time>
      </trkpt>
      <trkpt lat="43.81883" lon="6.33207">
        <ele>1163.4</ele>
        <time>2021-07-10T09:00:29Z</time>
      </trkpt>
      <trkpt lat="43.81882" lon="6.33207">
        <ele>1164.5</ele>
        <time>2021-07-10T09:00:34Z</time>
      </trkpt>
      <trkpt lat="43.81882" lon="6.33205">
        <ele>1165.1</ele>
        <time>2021-07-10T09:00:42Z</time>
      </trkpt>
      <trkpt lat="43.81882" lon="6.33205">
        <ele>1165.4</ele>
        <time>2021-07-10T09:00:43Z</time>
      </trkpt>
      <trkpt lat="43.81929" lon="6.33219">
        <ele>1202.2</ele>
        <time>2021-07-10T09:08:01Z</time>
      </trkpt>
      <trkpt lat="43.81927" lon="6.33223">
        <ele>1199.6</ele>
        <time>2021-07-10T09:08:08Z</time>
      </trkpt>
      <trkpt lat="43.81921" lon="6.33224">
        <ele>1194</ele>
        <time>2021-07-10T09:08:15Z</time>
      </trkpt>
      <trkpt lat="43.8191" lon="6.33226">
        <ele>1181.2</ele>
        <time>2021-07-10T09:08:18Z</time>
      </trkpt>
      <trkpt lat="43.81903" lon="6.33231">
        <ele>1175.9</ele>
        <time>2021-07-10T09:08:21Z</time>
      </trkpt>
      <trkpt lat="43.81896" lon="6.33232">
        <ele>1174.4</ele>
        <time>2021-07-10T09:08:25Z</time>
      </trkpt>
      <trkpt lat="43.81897" lon="6.33235">
        <ele>1176.5</ele>
        <time>2021-07-10T09:08:32Z</time>
      </trkpt>
      <trkpt lat="43.81901" lon="6.33235">
        <ele>1173.7</ele>
        <time>2021-07-10T09:08:39Z</time>
      </trkpt>
      <trkpt lat="43.81901" lon="6.33239">
        <ele>1169.2</ele>
        <time>2021-07-10T09:08:46Z</time>
      </trkpt>
      <trkpt lat="43.81895" lon="6.33248">
        <ele>1160.9</ele>
        <time>2021-07-10T09:08:52Z</time>
      </trkpt>
      <trkpt lat="43.8189" lon="6.33254">
        <ele>1160.4</ele>
        <time>2021-07-10T09:08:59Z</time>
      </trkpt>
      <trkpt lat="43.81884" lon="6.33254">
        <ele>1156.4</ele>
        <time>2021-07-10T09:09:06Z</time>
      </trkpt>
      <trkpt lat="43.8188" lon="6.33253">
        <ele>1154.5</ele>
        <time>2021-07-10T09:09:13Z</time>
      </trkpt>
      <trkpt lat="43.81879" lon="6.33253">
        <ele>1154.3</ele>
        <time>2021-07-10T09:09:18Z</time>
      </trkpt>
      <trkpt lat="43.81876" lon="6.33251">
        <ele>1154.3</ele>
        <time>2021-07-10T09:09:51Z</time>
      </trkpt>
      <trkpt lat="43.81875" lon="6.33249">
        <ele>1153.3</ele>
        <time>2021-07-10T09:09:56Z</time>
      </trkpt>
      <trkpt lat="43.8188" lon="6.33241">
        <ele>1152</ele>
        <time>2021-07-10T09:10:06Z</time>
      </trkpt>
      <trkpt lat="43.81885" lon="6.33232">
        <ele>1151.5</ele>
        <time>2021-07-10T09:10:09Z</time>
      </trkpt>
      <trkpt lat="43.8189" lon="6.33223">
        <ele>1152.2</ele>
        <time>2021-07-10T09:10:12Z</time>
      </trkpt>
      <trkpt lat="43.81895" lon="6.33213">
        <ele>1154.1</ele>
        <time>2021-07-10T09:10:16Z</time>
      </trkpt>
      <trkpt lat="43.819" lon="6.33204">
        <ele>1152.4</ele>
        <time>2021-07-10T09:10:20Z</time>
      </trkpt>
      <trkpt lat="43.81905" lon="6.33193">
        <ele>1156.6</ele>
        <time>2021-07-10T09:10:25Z</time>
      </trkpt>
      <trkpt lat="43.8191" lon="6.33185">
        <ele>1158.2</ele>
        <time>2021-07-10T09:10:28Z</time>
      </trkpt>
      <trkpt lat="43.81915" lon="6.33175">
        <ele>1156</ele>
        <time>2021-07-10T09:10:31Z</time>
      </trkpt>
      <trkpt lat="43.81921" lon="6.33166">
        <ele>1157.2</ele>
        <time>2021-07-10T09:10:34Z</time>
      </trkpt>
      <trkpt lat="43.81926" lon="6.33156">
        <ele>1158.1</ele>
        <time>2021-07-10T09:10:38Z</time>
      </trkpt>
      <trkpt lat="43.81931" lon="6.33146">
        <ele>1159.7</ele>
        <time>2021-07-10T09:10:42Z</time>
      </trkpt>
      <trkpt lat="43.81937" lon="6.33137">
        <ele>1161.8</ele>
        <time>2021-07-10T09:10:46Z</time>
      </trkpt>
      <trkpt lat="43.81941" lon="6.33129">
        <ele>1158.1</ele>
        <time>2021-07-10T09:10:49Z</time>
      </trkpt>
      <trkpt lat="43.81947" lon="6.3312">
        <ele>1157.8</ele>
        <time>2021-07-10T09:10:52Z</time>
      </trkpt>
      <trkpt lat="43.81951" lon="6.33111">
        <ele>1158.4</ele>
        <time>2021-07-10T09:10:55Z</time>
      </trkpt>
      <trkpt lat="43.81957" lon="6.331">
        <ele>1159</ele>
        <time>2021-07-10T09:10:58Z</time>
      </trkpt>
      <trkpt lat="43.81962" lon="6.3309">
        <ele>1156.7</ele>
        <time>2021-07-10T09:11:01Z</time>
      </trkpt>
      <trkpt lat="43.81969" lon="6.33079">
        <ele>1155.3</ele>
        <time>2021-07-10T09:11:04Z</time>
      </trkpt>
      <trkpt lat="43.81977" lon="6.3307">
        <ele>1156.1</ele>
        <time>2021-07-10T09:11:07Z</time>
      </trkpt>
      <trkpt lat="43.81982" lon="6.33063">
        <ele>1153.3</ele>
        <time>2021-07-10T09:11:09Z</time>
      </trkpt>
      <trkpt lat="43.81987" lon="6.33057">
        <ele>1153.8</ele>
        <time>2021-07-10T09:11:11Z</time>
      </trkpt>
      <trkpt lat="43.81994" lon="6.3305">
        <ele>1153.4</ele>
        <time>2021-07-10T09:11:13Z</time>
      </trkpt>
      <trkpt lat="43.81999" lon="6.33043">
        <ele>1154.1</ele>
        <time>2021-07-10T09:11:15Z</time>
      </trkpt>
      <trkpt lat="43.82004" lon="6.33035">
        <ele>1154.1</ele>
        <time>2021-07-10T09:11:17Z</time>
      </trkpt>
      <trkpt lat="43.82009" lon="6.33025">
        <ele>1152.3</ele>
        <time>2021-07-10T09:11:19Z</time>
      </trkpt>
      <trkpt lat="43.82015" lon="6.33014">
        <ele>1152.6</ele>
        <time>2021-07-10T09:11:22Z</time>
      </trkpt>
      <trkpt lat="43.82019" lon="6.33005">
        <ele>1152.9</ele>
        <time>2021-07-10T09:11:26Z</time>
      </trkpt>
      <trkpt lat="43.82026" lon="6.32995">
        <ele>1152.9</ele>
        <time>2021-07-10T09:11:30Z</time>
      </trkpt>
      <trkpt lat="43.82032" lon="6.32986">
        <ele>1152.4</ele>
        <time>2021-07-10T09:11:33Z</time>
      </trkpt>
      <trkpt lat="43.82038" lon="6.32978">
        <ele>1150.1</ele>
        <time>2021-07-10T09:11:36Z</time>
      </trkpt>
      <trkpt lat="43.82044" lon="6.32968">
        <ele>1147</ele>
        <time>2021-07-10T09:11:39Z</time>
      </trkpt>
      <trkpt lat="43.82048" lon="6.32959">
        <ele>1147.3</ele>
        <time>2021-07-10T09:11:42Z</time>
      </trkpt>
      <trkpt lat="43.82053" lon="6.32952">
        <ele>1148.5</ele>
        <time>2021-07-10T09:11:46Z</time>
      </trkpt>
      <trkpt lat="43.82058" lon="6.32943">
        <ele>1147.9</ele>
        <time>2021-07-10T09:11:50Z</time>
      </trkpt>
      <trkpt lat="43.82063" lon="6.32934">
        <ele>1147.4</ele>
        <time>2021-07-10T09:11:54Z</time>
      </trkpt>
      <trkpt lat="43.8207" lon="6.32925">
        <ele>1146.8</ele>
        <time>2021-07-10T09:11:58Z</time>
      </trkpt>
      <trkpt lat="43.82075" lon="6.32918">
        <ele>1147</ele>
        <time>2021-07-10T09:12:00Z</time>
      </trkpt>
      <trkpt lat="43.8208" lon="6.32909">
        <ele>1144.9</ele>
        <time>2021-07-10T09:12:02Z</time>
      </trkpt>
      <trkpt lat="43.82087" lon="6.32899">
        <ele>1144.5</ele>
        <time>2021-07-10T09:12:05Z</time>
      </trkpt>
      <trkpt lat="43.82094" lon="6.3289">
        <ele>1144.2</ele>
        <time>2021-07-10T09:12:08Z</time>
      </trkpt>
      <trkpt lat="43.82102" lon="6.32883">
        <ele>1143.2</ele>
        <time>2021-07-10T09:12:11Z</time>
      </trkpt>
      <trkpt lat="43.82108" lon="6.32877">
        <ele>1144.4</ele>
        <time>2021-07-10T09:12:14Z</time>
      </trkpt>
      <trkpt lat="43.82115" lon="6.3287">
        <ele>1144.7</ele>
        <time>2021-07-10T09:12:17Z</time>
      </trkpt>
      <trkpt lat="43.8212" lon="6.32863">
        <ele>1145.7</ele>
        <time>2021-07-10T09:12:20Z</time>
      </trkpt>
      <trkpt lat="43.82126" lon="6.32855">
        <ele>1144.5</ele>
        <time>2021-07-10T09:12:23Z</time>
      </trkpt>
      <trkpt lat="43.82132" lon="6.32845">
        <ele>1144.1</ele>
        <time>2021-07-10T09:12:26Z</time>
      </trkpt>
      <trkpt lat="43.8214" lon="6.32834">
        <ele>1143</ele>
        <time>2021-07-10T09:12:29Z</time>
      </trkpt>
      <trkpt lat="43.82145" lon="6.32826">
        <ele>1143.4</ele>
        <time>2021-07-10T09:12:31Z</time>
      </trkpt>
      <trkpt lat="43.82151" lon="6.32818">
        <ele>1143.6</ele>
        <time>2021-07-10T09:12:34Z</time>
      </trkpt>
      <trkpt lat="43.82157" lon="6.32811">
        <ele>1142.2</ele>
        <time>2021-07-10T09:12:38Z</time>
      </trkpt>
      <trkpt lat="43.82163" lon="6.32805">
        <ele>1141.1</ele>
        <time>2021-07-10T09:12:41Z</time>
      </trkpt>
      <trkpt lat="43.82171" lon="6.32797">
        <ele>1142.2</ele>
        <time>2021-07-10T09:12:45Z</time>
      </trkpt>
      <trkpt lat="43.82177" lon="6.32791">
        <ele>1140.2</ele>
        <time>2021-07-10T09:12:49Z</time>
      </trkpt>
      <trkpt lat="43.82184" lon="6.32781">
        <ele>1138.8</ele>
        <time>2021-07-10T09:12:53Z</time>
      </trkpt>
      <trkpt lat="43.8219" lon="6.32775">
        <ele>1139.7</ele>
        <time>2021-07-10T09:12:56Z</time>
      </trkpt>
      <trkpt lat="43.82197" lon="6.32768">
        <ele>1142.4</ele>
        <time>2021-07-10T09:13:00Z</time>
      </trkpt>
      <trkpt lat="43.82203" lon="6.32759">
        <ele>1142.4</ele>
        <time>2021-07-10T09:13:04Z</time>
      </trkpt>
      <trkpt lat="43.82211" lon="6.32754">
        <ele>1144.3</ele>
        <time>2021-07-10T09:13:08Z</time>
      </trkpt>
      <trkpt lat="43.8222" lon="6.32749">
        <ele>1144.4</ele>
        <time>2021-07-10T09:13:12Z</time>
      </trkpt>
      <trkpt lat="43.82229" lon="6.32743">
        <ele>1142.1</ele>
        <time>2021-07-10T09:13:15Z</time>
      </trkpt>
      <trkpt lat="43.82236" lon="6.32737">
        <ele>1142.9</ele>
        <time>2021-07-10T09:13:18Z</time>
      </trkpt>
      <trkpt lat="43.82244" lon="6.3273">
        <ele>1142.2</ele>
        <time>2021-07-10T09:13:22Z</time>
      </trkpt>
      <trkpt lat="43.82253" lon="6.32724">
        <ele>1143.1</ele>
        <time>2021-07-10T09:13:26Z</time>
      </trkpt>
      <trkpt lat="43.82262" lon="6.32721">
        <ele>1144.2</ele>
        <time>2021-07-10T09:13:29Z</time>
      </trkpt>
      <trkpt lat="43.82271" lon="6.32715">
        <ele>1145</ele>
        <time>2021-07-10T09:13:32Z</time>
      </trkpt>
      <trkpt lat="43.82281" lon="6.3271">
        <ele>1144.6</ele>
        <time>2021-07-10T09:13:35Z</time>
      </trkpt>
      <trkpt lat="43.82291" lon="6.32703">
        <ele>1143.5</ele>
        <time>2021-07-10T09:13:38Z</time>
      </trkpt>
      <trkpt lat="43.823" lon="6.32694">
        <ele>1141.5</ele>
        <time>2021-07-10T09:13:41Z</time>
      </trkpt>
      <trkpt lat="43.82307" lon="6.32686">
        <ele>1140.2</ele>
        <time>2021-07-10T09:13:43Z</time>
      </trkpt>
      <trkpt lat="43.82314" lon="6.32678">
        <ele>1139.8</ele>
        <time>2021-07-10T09:13:45Z</time>
      </trkpt>
      <trkpt lat="43.82322" lon="6.3267">
        <ele>1140.6</ele>
        <time>2021-07-10T09:13:48Z</time>
      </trkpt>
      <trkpt lat="43.82328" lon="6.32664">
        <ele>1138.8</ele>
        <time>2021-07-10T09:13:51Z</time>
      </trkpt>
      <trkpt lat="43.82336" lon="6.32657">
        <ele>1140.2</ele>
        <time>2021-07-10T09:13:55Z</time>
      </trkpt>
      <trkpt lat="43.82342" lon="6.32651">
        <ele>1140.8</ele>
        <time>2021-07-10T09:13:58Z</time>
      </trkpt>
      <trkpt lat="43.82349" lon="6.32643">
        <ele>1141.3</ele>
        <time>2021-07-10T09:14:01Z</time>
      </trkpt>
      <trkpt lat="43.82355" lon="6.32635">
        <ele>1141.7</ele>
        <time>2021-07-10T09:14:03Z</time>
      </trkpt>
      <trkpt lat="43.82361" lon="6.32628">
        <ele>1140.7</ele>
        <time>2021-07-10T09:14:05Z</time>
      </trkpt>
      <trkpt lat="43.82367" lon="6.32621">
        <ele>1137.4</ele>
        <time>2021-07-10T09:14:07Z</time>
      </trkpt>
      <trkpt lat="43.82374" lon="6.32614">
        <ele>1135.7</ele>
        <time>2021-07-10T09:14:09Z</time>
      </trkpt>
      <trkpt lat="43.82381" lon="6.32607">
        <ele>1136.6</ele>
        <time>2021-07-10T09:14:11Z</time>
      </trkpt>
      <trkpt lat="43.82388" lon="6.326">
        <ele>1135</ele>
        <time>2021-07-10T09:14:13Z</time>
      </trkpt>
      <trkpt lat="43.82395" lon="6.32593">
        <ele>1135.3</ele>
        <time>2021-07-10T09:14:15Z</time>
      </trkpt>
      <trkpt lat="43.82402" lon="6.32587">
        <ele>1137.7</ele>
        <time>2021-07-10T09:14:17Z</time>
      </trkpt>
      <trkpt lat="43.82409" lon="6.32581">
        <ele>1137</ele>
        <time>2021-07-10T09:14:19Z</time>
      </trkpt>
      <trkpt lat="43.82416" lon="6.32574">
        <ele>1138.4</ele>
        <time>2021-07-10T09:14:21Z</time>
      </trkpt>
      <trkpt lat="43.82422" lon="6.32569">
        <ele>1140</ele>
        <time>2021-07-10T09:14:23Z</time>
      </trkpt>
      <trkpt lat="43.82429" lon="6.32562">
        <ele>1139.6</ele>
        <time>2021-07-10T09:14:25Z</time>
      </trkpt>
      <trkpt lat="43.82437" lon="6.32553">
        <ele>1141.6</ele>
        <time>2021-07-10T09:14:28Z</time>
      </trkpt>
      <trkpt lat="43.82443" lon="6.32546">
        <ele>1141.4</ele>
        <time>2021-07-10T09:14:30Z</time>
      </trkpt>
      <trkpt lat="43.82448" lon="6.32537">
        <ele>1140.5</ele>
        <time>2021-07-10T09:14:32Z</time>
      </trkpt>
      <trkpt lat="43.82455" lon="6.32527">
        <ele>1140.6</ele>
        <time>2021-07-10T09:14:34Z</time>
      </trkpt>
      <trkpt lat="43.82461" lon="6.32517">
        <ele>1141.1</ele>
        <time>2021-07-10T09:14:36Z</time>
      </trkpt>
      <trkpt lat="43.82467" lon="6.3251">
        <ele>1142.3</ele>
        <time>2021-07-10T09:14:38Z</time>
      </trkpt>
      <trkpt lat="43.82472" lon="6.325">
        <ele>1141.4</ele>
        <time>2021-07-10T09:14:41Z</time>
      </trkpt>
      <trkpt lat="43.82476" lon="6.32489">
        <ele>1142.3</ele>
        <time>2021-07-10T09:14:44Z</time>
      </trkpt>
      <trkpt lat="43.82482" lon="6.32479">
        <ele>1144.7</ele>
        <time>2021-07-10T09:14:47Z</time>
      </trkpt>
      <trkpt lat="43.82488" lon="6.3247">
        <ele>1147.3</ele>
        <time>2021-07-10T09:14:52Z</time>
      </trkpt>
      <trkpt lat="43.82492" lon="6.3246">
        <ele>1145.5</ele>
        <time>2021-07-10T09:14:56Z</time>
      </trkpt>
      <trkpt lat="43.82502" lon="6.32452">
        <ele>1140.6</ele>
        <time>2021-07-10T09:14:59Z</time>
      </trkpt>
      <trkpt lat="43.8251" lon="6.32448">
        <ele>1138.3</ele>
        <time>2021-07-10T09:15:01Z</time>
      </trkpt>
      <trkpt lat="43.82516" lon="6.32443">
        <ele>1136.3</ele>
        <time>2021-07-10T09:15:03Z</time>
      </trkpt>
      <trkpt lat="43.82524" lon="6.32436">
        <ele>1136.1</ele>
        <time>2021-07-10T09:15:05Z</time>
      </trkpt>
      <trkpt lat="43.82533" lon="6.32431">
        <ele>1133.6</ele>
        <time>2021-07-10T09:15:07Z</time>
      </trkpt>
      <trkpt lat="43.82542" lon="6.32425">
        <ele>1129</ele>
        <time>2021-07-10T09:15:09Z</time>
      </trkpt>
      <trkpt lat="43.8255" lon="6.32419">
        <ele>1128.7</ele>
        <time>2021-07-10T09:15:11Z</time>
      </trkpt>
      <trkpt lat="43.82556" lon="6.32414">
        <ele>1129.5</ele>
        <time>2021-07-10T09:15:13Z</time>
      </trkpt>
      <trkpt lat="43.82563" lon="6.3241">
        <ele>1128.5</ele>
        <time>2021-07-10T09:15:15Z</time>
      </trkpt>
      <trkpt lat="43.82571" lon="6.32407">
        <ele>1128.8</ele>
        <time>2021-07-10T09:15:17Z</time>
      </trkpt>
      <trkpt lat="43.82578" lon="6.32402">
        <ele>1129.6</ele>
        <time>2021-07-10T09:15:19Z</time>
      </trkpt>
      <trkpt lat="43.82586" lon="6.32397">
        <ele>1129.3</ele>
        <time>2021-07-10T09:15:21Z</time>
      </trkpt>
      <trkpt lat="43.82592" lon="6.32391">
        <ele>1130.1</ele>
        <time>2021-07-10T09:15:23Z</time>
      </trkpt>
      <trkpt lat="43.82601" lon="6.32382">
        <ele>1128.5</ele>
        <time>2021-07-10T09:15:25Z</time>
      </trkpt>
      <trkpt lat="43.82609" lon="6.32377">
        <ele>1129.9</ele>
        <time>2021-07-10T09:15:27Z</time>
      </trkpt>
      <trkpt lat="43.82616" lon="6.32371">
        <ele>1130.5</ele>
        <time>2021-07-10T09:15:29Z</time>
      </trkpt>
      <trkpt lat="43.82624" lon="6.3236">
        <ele>1130.3</ele>
        <time>2021-07-10T09:15:31Z</time>
      </trkpt>
      <trkpt lat="43.8263" lon="6.32353">
        <ele>1131.4</ele>
        <time>2021-07-10T09:15:34Z</time>
      </trkpt>
      <trkpt lat="43.82639" lon="6.32346">
        <ele>1133.4</ele>
        <time>2021-07-10T09:15:37Z</time>
      </trkpt>
      <trkpt lat="43.82645" lon="6.3234">
        <ele>1134.8</ele>
        <time>2021-07-10T09:15:40Z</time>
      </trkpt>
      <trkpt lat="43.82653" lon="6.32329">
        <ele>1134.9</ele>
        <time>2021-07-10T09:15:43Z</time>
      </trkpt>
      <trkpt lat="43.8266" lon="6.32323">
        <ele>1135.1</ele>
        <time>2021-07-10T09:15:45Z</time>
      </trkpt>
      <trkpt lat="43.82668" lon="6.32318">
        <ele>1135.8</ele>
        <time>2021-07-10T09:15:47Z</time>
      </trkpt>
      <trkpt lat="43.82676" lon="6.32311">
        <ele>1133.1</ele>
        <time>2021-07-10T09:15:49Z</time>
      </trkpt>
      <trkpt lat="43.82686" lon="6.32303">
        <ele>1131.1</ele>
        <time>2021-07-10T09:15:51Z</time>
      </trkpt>
      <trkpt lat="43.82695" lon="6.32294">
        <ele>1129.4</ele>
        <time>2021-07-10T09:15:53Z</time>
      </trkpt>
      <trkpt lat="43.82702" lon="6.32284">
        <ele>1129.8</ele>
        <time>2021-07-10T09:15:55Z</time>
      </trkpt>
      <trkpt lat="43.8271" lon="6.32274">
        <ele>1131</ele>
        <time>2021-07-10T09:15:57Z</time>
      </trkpt>
      <trkpt lat="43.82717" lon="6.32266">
        <ele>1132.8</ele>
        <time>2021-07-10T09:15:59Z</time>
      </trkpt>
      <trkpt lat="43.82725" lon="6.32259">
        <ele>1133.7</ele>
        <time>2021-07-10T09:16:01Z</time>
      </trkpt>
      <trkpt lat="43.82733" lon="6.32252">
        <ele>1131.1</ele>
        <time>2021-07-10T09:16:03Z</time>
      </trkpt>
      <trkpt lat="43.82739" lon="6.32244">
        <ele>1131.4</ele>
        <time>2021-07-10T09:16:05Z</time>
      </trkpt>
      <trkpt lat="43.82745" lon="6.32236">
        <ele>1131.7</ele>
        <time>2021-07-10T09:16:07Z</time>
      </trkpt>
      <trkpt lat="43.82752" lon="6.32228">
        <ele>1131.7</ele>
        <time>2021-07-10T09:16:09Z</time>
      </trkpt>
      <trkpt lat="43.82759" lon="6.32221">
        <ele>1133.7</ele>
        <time>2021-07-10T09:16:11Z</time>
      </trkpt>
      <trkpt lat="43.82766" lon="6.32214">
        <ele>1132.4</ele>
        <time>2021-07-10T09:16:13Z</time>
      </trkpt>
      <trkpt lat="43.82776" lon="6.32206">
        <ele>1131.7</ele>
        <time>2021-07-10T09:16:15Z</time>
      </trkpt>
      <trkpt lat="43.82785" lon="6.32198">
        <ele>1128.4</ele>
        <time>2021-07-10T09:16:17Z</time>
      </trkpt>
      <trkpt lat="43.82793" lon="6.3219">
        <ele>1130.1</ele>
        <time>2021-07-10T09:16:19Z</time>
      </trkpt>
      <trkpt lat="43.828" lon="6.32182">
        <ele>1130.9</ele>
        <time>2021-07-10T09:16:21Z</time>
      </trkpt>
      <trkpt lat="43.82809" lon="6.32172">
        <ele>1129.4</ele>
        <time>2021-07-10T09:16:23Z</time>
      </trkpt>
      <trkpt lat="43.82817" lon="6.32162">
        <ele>1130.2</ele>
        <time>2021-07-10T09:16:25Z</time>
      </trkpt>
      <trkpt lat="43.82825" lon="6.32152">
        <ele>1129.4</ele>
        <time>2021-07-10T09:16:26Z</time>
      </trkpt>
      <trkpt lat="43.82834" lon="6.32145">
        <ele>1128.2</ele>
        <time>2021-07-10T09:16:28Z</time>
      </trkpt>
      <trkpt lat="43.82842" lon="6.32136">
        <ele>1126.8</ele>
        <time>2021-07-10T09:16:30Z</time>
      </trkpt>
      <trkpt lat="43.82851" lon="6.32125">
        <ele>1126.9</ele>
        <time>2021-07-10T09:16:32Z</time>
      </trkpt>
      <trkpt lat="43.82858" lon="6.32111">
        <ele>1126.5</ele>
        <time>2021-07-10T09:16:34Z</time>
      </trkpt>
      <trkpt lat="43.82864" lon="6.32101">
        <ele>1126.3</ele>
        <time>2021-07-10T09:16:36Z</time>
      </trkpt>
      <trkpt lat="43.82873" lon="6.32092">
        <ele>1125.7</ele>
        <time>2021-07-10T09:16:38Z</time>
      </trkpt>
      <trkpt lat="43.82879" lon="6.32085">
        <ele>1125.1</ele>
        <time>2021-07-10T09:16:40Z</time>
      </trkpt>
      <trkpt lat="43.82885" lon="6.32076">
        <ele>1125.6</ele>
        <time>2021-07-10T09:16:43Z</time>
      </trkpt>
      <trkpt lat="43.82895" lon="6.3207">
        <ele>1126.9</ele>
        <time>2021-07-10T09:16:45Z</time>
      </trkpt>
      <trkpt lat="43.82903" lon="6.32061">
        <ele>1124.7</ele>
        <time>2021-07-10T09:16:47Z</time>
      </trkpt>
      <trkpt lat="43.8291" lon="6.3206">
        <ele>1125.8</ele>
        <time>2021-07-10T09:16:48Z</time>
      </trkpt>
      <trkpt lat="43.82918" lon="6.32054">
        <ele>1126.5</ele>
        <time>2021-07-10T09:16:50Z</time>
      </trkpt>
      <trkpt lat="43.82925" lon="6.32048">
        <ele>1128.1</ele>
        <time>2021-07-10T09:16:52Z</time>
      </trkpt>
      <trkpt lat="43.82932" lon="6.32039">
        <ele>1128.3</ele>
        <time>2021-07-10T09:16:55Z</time>
      </trkpt>
      <trkpt lat="43.82938" lon="6.32029">
        <ele>1129</ele>
        <time>2021-07-10T09:16:57Z</time>
      </trkpt>
      <trkpt lat="43.82946" lon="6.32027">
        <ele>1129.1</ele>
        <time>2021-07-10T09:16:59Z</time>
      </trkpt>
      <trkpt lat="43.82955" lon="6.32023">
        <ele>1130</ele>
        <time>2021-07-10T09:17:01Z</time>
      </trkpt>
      <trkpt lat="43.82967" lon="6.32021">
        <ele>1129.1</ele>
        <time>2021-07-10T09:17:03Z</time>
      </trkpt>
      <trkpt lat="43.82979" lon="6.32018">
        <ele>1126.9</ele>
        <time>2021-07-10T09:17:05Z</time>
      </trkpt>
      <trkpt lat="43.8299" lon="6.32016">
        <ele>1125.5</ele>
        <time>2021-07-10T09:17:07Z</time>
      </trkpt>
      <trkpt lat="43.82999" lon="6.32014">
        <ele>1123.6</ele>
        <time>2021-07-10T09:17:09Z</time>
      </trkpt>
      <trkpt lat="43.83007" lon="6.32016">
        <ele>1121</ele>
        <time>2021-07-10T09:17:11Z</time>
      </trkpt>
      <trkpt lat="43.83015" lon="6.32022">
        <ele>1121.1</ele>
        <time>2021-07-10T09:17:12Z</time>
      </trkpt>
      <trkpt lat="43.83026" lon="6.3202">
        <ele>1117.8</ele>
        <time>2021-07-10T09:17:15Z</time>
      </trkpt>
      <trkpt lat="43.83037" lon="6.32024">
        <ele>1117.3</ele>
        <time>2021-07-10T09:17:17Z</time>
      </trkpt>
      <trkpt lat="43.83044" lon="6.32021">
        <ele>1118.4</ele>
        <time>2021-07-10T09:17:19Z</time>
      </trkpt>
      <trkpt lat="43.83052" lon="6.32013">
        <ele>1119.8</ele>
        <time>2021-07-10T09:17:22Z</time>
      </trkpt>
      <trkpt lat="43.83059" lon="6.32002">
        <ele>1118.4</ele>
        <time>2021-07-10T09:17:25Z</time>
      </trkpt>
      <trkpt lat="43.83064" lon="6.31993">
        <ele>1116</ele>
        <time>2021-07-10T09:17:28Z</time>
      </trkpt>
      <trkpt lat="43.8307" lon="6.31983">
        <ele>1117.4</ele>
        <time>2021-07-10T09:17:32Z</time>
      </trkpt>
      <trkpt lat="43.83075" lon="6.31974">
        <ele>1119.4</ele>
        <time>2021-07-10T09:17:35Z</time>
      </trkpt>
      <trkpt lat="43.8308" lon="6.31966">
        <ele>1122.3</ele>
        <time>2021-07-10T09:17:39Z</time>
      </trkpt>
      <trkpt lat="43.83086" lon="6.31955">
        <ele>1121.4</ele>
        <time>2021-07-10T09:17:42Z</time>
      </trkpt>
      <trkpt lat="43.83092" lon="6.31946">
        <ele>1122.1</ele>
        <time>2021-07-10T09:17:45Z</time>
      </trkpt>
      <trkpt lat="43.83095" lon="6.31936">
        <ele>1125.4</ele>
        <time>2021-07-10T09:17:49Z</time>
      </trkpt>
      <trkpt lat="43.83099" lon="6.31923">
        <ele>1122.7</ele>
        <time>2021-07-10T09:17:52Z</time>
      </trkpt>
      <trkpt lat="43.83105" lon="6.3191">
        <ele>1122.2</ele>
        <time>2021-07-10T09:17:55Z</time>
      </trkpt>
      <trkpt lat="43.83111" lon="6.319">
        <ele>1122.6</ele>
        <time>2021-07-10T09:17:57Z</time>
      </trkpt>
      <trkpt lat="43.83116" lon="6.3189">
        <ele>1122.8</ele>
        <time>2021-07-10T09:17:59Z</time>
      </trkpt>
      <trkpt lat="43.83121" lon="6.3188">
        <ele>1124.4</ele>
        <time>2021-07-10T09:18:01Z</time>
      </trkpt>
      <trkpt lat="43.83127" lon="6.31872">
        <ele>1123.7</ele>
        <time>2021-07-10T09:18:03Z</time>
      </trkpt>
      <trkpt lat="43.83132" lon="6.31864">
        <ele>1124.8</ele>
        <time>2021-07-10T09:18:05Z</time>
      </trkpt>
      <trkpt lat="43.83138" lon="6.31854">
        <ele>1129</ele>
        <time>2021-07-10T09:18:08Z</time>
      </trkpt>
      <trkpt lat="43.83144" lon="6.31847">
        <ele>1129</ele>
        <time>2021-07-10T09:18:10Z</time>
      </trkpt>
      <trkpt lat="43.83151" lon="6.31841">
        <ele>1129.6</ele>
        <time>2021-07-10T09:18:12Z</time>
      </trkpt>
      <trkpt lat="43.83159" lon="6.31835">
        <ele>1128.2</ele>
        <time>2021-07-10T09:18:14Z</time>
      </trkpt>
      <trkpt lat="43.83166" lon="6.31829">
        <ele>1127.1</ele>
        <time>2021-07-10T09:18:16Z</time>
      </trkpt>
      <trkpt lat="43.83173" lon="6.31823">
        <ele>1126.5</ele>
        <time>2021-07-10T09:18:18Z</time>
      </trkpt>
      <trkpt lat="43.83181" lon="6.31815">
        <ele>1127.5</ele>
        <time>2021-07-10T09:18:21Z</time>
      </trkpt>
      <trkpt lat="43.8319" lon="6.31807">
        <ele>1127.2</ele>
        <time>2021-07-10T09:18:24Z</time>
      </trkpt>
      <trkpt lat="43.83196" lon="6.31802">
        <ele>1126.4</ele>
        <time>2021-07-10T09:18:26Z</time>
      </trkpt>
      <trkpt lat="43.83202" lon="6.31796">
        <ele>1124.7</ele>
        <time>2021-07-10T09:18:28Z</time>
      </trkpt>
      <trkpt lat="43.83209" lon="6.31789">
        <ele>1123.4</ele>
        <time>2021-07-10T09:18:30Z</time>
      </trkpt>
      <trkpt lat="43.83215" lon="6.31782">
        <ele>1122.9</ele>
        <time>2021-07-10T09:18:32Z</time>
      </trkpt>
      <trkpt lat="43.83221" lon="6.31774">
        <ele>1123.7</ele>
        <time>2021-07-10T09:18:34Z</time>
      </trkpt>
      <trkpt lat="43.83228" lon="6.31766">
        <ele>1124.6</ele>
        <time>2021-07-10T09:18:36Z</time>
      </trkpt>
      <trkpt lat="43.83233" lon="6.31758">
        <ele>1124.1</ele>
        <time>2021-07-10T09:18:38Z</time>
      </trkpt>
      <trkpt lat="43.83239" lon="6.31751">
        <ele>1124.8</ele>
        <time>2021-07-10T09:18:40Z</time>
      </trkpt>
      <trkpt lat="43.83245" lon="6.31745">
        <ele>1125.5</ele>
        <time>2021-07-10T09:18:42Z</time>
      </trkpt>
      <trkpt lat="43.83254" lon="6.31739">
        <ele>1125.4</ele>
        <time>2021-07-10T09:18:45Z</time>
      </trkpt>
      <trkpt lat="43.83264" lon="6.31731">
        <ele>1125.4</ele>
        <time>2021-07-10T09:18:48Z</time>
      </trkpt>
      <trkpt lat="43.83271" lon="6.31724">
        <ele>1125.7</ele>
        <time>2021-07-10T09:18:50Z</time>
      </trkpt>
      <trkpt lat="43.83282" lon="6.31715">
        <ele>1125.9</ele>
        <time>2021-07-10T09:18:52Z</time>
      </trkpt>
      <trkpt lat="43.8329" lon="6.31708">
        <ele>1125</ele>
        <time>2021-07-10T09:18:54Z</time>
      </trkpt>
      <trkpt lat="43.83298" lon="6.31703">
        <ele>1125.6</ele>
        <time>2021-07-10T09:18:56Z</time>
      </trkpt>
      <trkpt lat="43.83308" lon="6.31698">
        <ele>1126.4</ele>
        <time>2021-07-10T09:18:59Z</time>
      </trkpt>
      <trkpt lat="43.83314" lon="6.31695">
        <ele>1125.6</ele>
        <time>2021-07-10T09:19:01Z</time>
      </trkpt>
      <trkpt lat="43.83322" lon="6.31684">
        <ele>1124.8</ele>
        <time>2021-07-10T09:19:04Z</time>
      </trkpt>
      <trkpt lat="43.83332" lon="6.31674">
        <ele>1123.9</ele>
        <time>2021-07-10T09:19:06Z</time>
      </trkpt>
      <trkpt lat="43.83339" lon="6.31671">
        <ele>1125.9</ele>
        <time>2021-07-10T09:19:07Z</time>
      </trkpt>
      <trkpt lat="43.83343" lon="6.31662">
        <ele>1125.2</ele>
        <time>2021-07-10T09:19:09Z</time>
      </trkpt>
      <trkpt lat="43.83344" lon="6.31649">
        <ele>1126.9</ele>
        <time>2021-07-10T09:19:12Z</time>
      </trkpt>
      <trkpt lat="43.83342" lon="6.31636">
        <ele>1124.8</ele>
        <time>2021-07-10T09:19:14Z</time>
      </trkpt>
      <trkpt lat="43.83342" lon="6.31626">
        <ele>1123</ele>
        <time>2021-07-10T09:19:16Z</time>
      </trkpt>
      <trkpt lat="43.8334" lon="6.31621">
        <ele>1123.1</ele>
        <time>2021-07-10T09:19:23Z</time>
      </trkpt>
      <trkpt lat="43.83342" lon="6.31615">
        <ele>1121.5</ele>
        <time>2021-07-10T09:19:30Z</time>
      </trkpt>
      <trkpt lat="43.83344" lon="6.31612">
        <ele>1121.9</ele>
        <time>2021-07-10T09:19:37Z</time>
      </trkpt>
      <trkpt lat="43.83345" lon="6.31612">
        <ele>1122.4</ele>
        <time>2021-07-10T09:19:44Z</time>
      </trkpt>
      <trkpt lat="43.83346" lon="6.31612">
        <ele>1123.7</ele>
        <time>2021-07-10T09:19:50Z</time>
      </trkpt>
      <trkpt lat="43.83353" lon="6.31607">
        <ele>1126.6</ele>
        <time>2021-07-10T09:20:05Z</time>
      </trkpt>
      <trkpt lat="43.83359" lon="6.316">
        <ele>1126.9</ele>
        <time>2021-07-10T09:20:10Z</time>
      </trkpt>
      <trkpt lat="43.83365" lon="6.31593">
        <ele>1124.6</ele>
        <time>2021-07-10T09:20:17Z</time>
      </trkpt>
      <trkpt lat="43.83369" lon="6.31586">
        <ele>1124.1</ele>
        <time>2021-07-10T09:20:24Z</time>
      </trkpt>
      <trkpt lat="43.83373" lon="6.31577">
        <ele>1124.7</ele>
        <time>2021-07-10T09:20:31Z</time>
      </trkpt>
      <trkpt lat="43.83378" lon="6.31572">
        <ele>1125.9</ele>
        <time>2021-07-10T09:20:38Z</time>
      </trkpt>
      <trkpt lat="43.83382" lon="6.31566">
        <ele>1126.7</ele>
        <time>2021-07-10T09:20:45Z</time>
      </trkpt>
      <trkpt lat="43.83386" lon="6.31564">
        <ele>1126.1</ele>
        <time>2021-07-10T09:20:52Z</time>
      </trkpt>
      <trkpt lat="43.83388" lon="6.31567">
        <ele>1126.7</ele>
        <time>2021-07-10T09:20:59Z</time>
      </trkpt>
      <trkpt lat="43.83387" lon="6.31567">
        <ele>1126.7</ele>
        <time>2021-07-10T09:21:05Z</time>
      </trkpt>
      <trkpt lat="43.83388" lon="6.31565">
        <ele>1126.5</ele>
        <time>2021-07-10T09:21:17Z</time>
      </trkpt>
      <trkpt lat="43.83395" lon="6.31563">
        <ele>1124.4</ele>
        <time>2021-07-10T09:21:24Z</time>
      </trkpt>
      <trkpt lat="43.83401" lon="6.31558">
        <ele>1126</ele>
        <time>2021-07-10T09:21:31Z</time>
      </trkpt>
      <trkpt lat="43.83408" lon="6.31555">
        <ele>1126.2</ele>
        <time>2021-07-10T09:21:38Z</time>
      </trkpt>
      <trkpt lat="43.83413" lon="6.31552">
        <ele>1128.3</ele>
        <time>2021-07-10T09:21:45Z</time>
      </trkpt>
      <trkpt lat="43.83413" lon="6.31547">
        <ele>1126.9</ele>
        <time>2021-07-10T09:21:52Z</time>
      </trkpt>
      <trkpt lat="43.83416" lon="6.31544">
        <ele>1126.4</ele>
        <time>2021-07-10T09:21:59Z</time>
      </trkpt>
      <trkpt lat="43.8342" lon="6.31549">
        <ele>1124.9</ele>
        <time>2021-07-10T09:22:06Z</time>
      </trkpt>
      <trkpt lat="43.8342" lon="6.31549">
        <ele>1124.7</ele>
        <time>2021-07-10T09:22:13Z</time>
      </trkpt>
      <trkpt lat="43.83417" lon="6.31553">
        <ele>1130.6</ele>
        <time>2021-07-10T09:23:11Z</time>
      </trkpt>
      <trkpt lat="43.83414" lon="6.31555">
        <ele>1124.7</ele>
        <time>2021-07-10T09:23:18Z</time>
      </trkpt>
      <trkpt lat="43.83409" lon="6.31559">
        <ele>1123.6</ele>
        <time>2021-07-10T09:23:25Z</time>
      </trkpt>
      <trkpt lat="43.83403" lon="6.31559">
        <ele>1129.2</ele>
        <time>2021-07-10T09:23:32Z</time>
      </trkpt>
      <trkpt lat="43.834" lon="6.31561">
        <ele>1128.4</ele>
        <time>2021-07-10T09:23:39Z</time>
      </trkpt>
      <trkpt lat="43.83395" lon="6.31562">
        <ele>1130.4</ele>
        <time>2021-07-10T09:23:46Z</time>
      </trkpt>
      <trkpt lat="43.83392" lon="6.31565">
        <ele>1130.7</ele>
        <time>2021-07-10T09:23:53Z</time>
      </trkpt>
      <trkpt lat="43.8339" lon="6.31566">
        <ele>1130.1</ele>
        <time>2021-07-10T09:24:00Z</time>
      </trkpt>
      <trkpt lat="43.83391" lon="6.31567">
        <ele>1127.2</ele>
        <time>2021-07-10T09:24:15Z</time>
      </trkpt>
      <trkpt lat="43.83391" lon="6.31567">
        <ele>1127</ele>
        <time>2021-07-10T09:24:16Z</time>
      </trkpt>
      <trkpt lat="43.83397" lon="6.31571">
        <ele>1127.3</ele>
        <time>2021-07-10T09:24:24Z</time>
      </trkpt>
      <trkpt lat="43.83407" lon="6.31574">
        <ele>1129.4</ele>
        <time>2021-07-10T09:24:29Z</time>
      </trkpt>
      <trkpt lat="43.83415" lon="6.31575">
        <ele>1132</ele>
        <time>2021-07-10T09:24:34Z</time>
      </trkpt>
      <trkpt lat="43.83423" lon="6.31573">
        <ele>1132.9</ele>
        <time>2021-07-10T09:24:39Z</time>
      </trkpt>
      <trkpt lat="43.83431" lon="6.31572">
        <ele>1133.7</ele>
        <time>2021-07-10T09:24:43Z</time>
      </trkpt>
      <trkpt lat="43.83439" lon="6.31571">
        <ele>1136.2</ele>
        <time>2021-07-10T09:24:47Z</time>
      </trkpt>
      <trkpt lat="43.83448" lon="6.31569">
        <ele>1136.9</ele>
        <time>2021-07-10T09:24:51Z</time>
      </trkpt>
      <trkpt lat="43.83455" lon="6.31569">
        <ele>1140.6</ele>
        <time>2021-07-10T09:24:55Z</time>
      </trkpt>
      <trkpt lat="43.83463" lon="6.31568">
        <ele>1140.7</ele>
        <time>2021-07-10T09:24:59Z</time>
      </trkpt>
      <trkpt lat="43.83471" lon="6.31566">
        <ele>1140.2</ele>
        <time>2021-07-10T09:25:04Z</time>
      </trkpt>
      <trkpt lat="43.83479" lon="6.31563">
        <ele>1139.4</ele>
        <time>2021-07-10T09:25:09Z</time>
      </trkpt>
      <trkpt lat="43.83487" lon="6.31562">
        <ele>1140.8</ele>
        <time>2021-07-10T09:25:14Z</time>
      </trkpt>
      <trkpt lat="43.83496" lon="6.3156">
        <ele>1141.5</ele>
        <time>2021-07-10T09:25:19Z</time>
      </trkpt>
      <trkpt lat="43.83504" lon="6.31556">
        <ele>1142.4</ele>
        <time>2021-07-10T09:25:24Z</time>
      </trkpt>
      <trkpt lat="43.83511" lon="6.31553">
        <ele>1143.6</ele>
        <time>2021-07-10T09:25:28Z</time>
      </trkpt>
      <trkpt lat="43.83518" lon="6.31547">
        <ele>1144.8</ele>
        <time>2021-07-10T09:25:33Z</time>
      </trkpt>
      <trkpt lat="43.83525" lon="6.31541">
        <ele>1147</ele>
        <time>2021-07-10T09:25:38Z</time>
      </trkpt>
      <trkpt lat="43.83531" lon="6.31535">
        <ele>1149.7</ele>
        <time>2021-07-10T09:25:43Z</time>
      </trkpt>
      <trkpt lat="43.83537" lon="6.3153">
        <ele>1149.7</ele>
        <time>2021-07-10T09:25:48Z</time>
      </trkpt>
      <trkpt lat="43.83545" lon="6.31527">
        <ele>1150.7</ele>
        <time>2021-07-10T09:25:53Z</time>
      </trkpt>
      <trkpt lat="43.83552" lon="6.31521">
        <ele>1151.2</ele>
        <time>2021-07-10T09:25:58Z</time>
      </trkpt>
      <trkpt lat="43.83557" lon="6.31515">
        <ele>1151.3</ele>
        <time>2021-07-10T09:26:03Z</time>
      </trkpt>
      <trkpt lat="43.83562" lon="6.31504">
        <ele>1151.9</ele>
        <time>2021-07-10T09:26:09Z</time>
      </trkpt>
      <trkpt lat="43.83567" lon="6.31498">
        <ele>1152.7</ele>
        <time>2021-07-10T09:26:14Z</time>
      </trkpt>
      <trkpt lat="43.83573" lon="6.31489">
        <ele>1153.4</ele>
        <time>2021-07-10T09:26:21Z</time>
      </trkpt>
      <trkpt lat="43.8358" lon="6.31494">
        <ele>1153.8</ele>
        <time>2021-07-10T09:26:26Z</time>
      </trkpt>
      <trkpt lat="43.83577" lon="6.31504">
        <ele>1154.9</ele>
        <time>2021-07-10T09:26:31Z</time>
      </trkpt>
      <trkpt lat="43.83574" lon="6.31513">
        <ele>1158.1</ele>
        <time>2021-07-10T09:26:38Z</time>
      </trkpt>
      <trkpt lat="43.83573" lon="6.31524">
        <ele>1159.4</ele>
        <time>2021-07-10T09:26:43Z</time>
      </trkpt>
      <trkpt lat="43.83574" lon="6.31536">
        <ele>1159.7</ele>
        <time>2021-07-10T09:26:48Z</time>
      </trkpt>
      <trkpt lat="43.83576" lon="6.31547">
        <ele>1161.4</ele>
        <time>2021-07-10T09:26:53Z</time>
      </trkpt>
      <trkpt lat="43.83581" lon="6.31555">
        <ele>1161.9</ele>
        <time>2021-07-10T09:26:58Z</time>
      </trkpt>
      <trkpt lat="43.83589" lon="6.3156">
        <ele>1161.3</ele>
        <time>2021-07-10T09:27:03Z</time>
      </trkpt>
      <trkpt lat="43.83598" lon="6.3156">
        <ele>1160.3</ele>
        <time>2021-07-10T09:27:07Z</time>
      </trkpt>
      <trkpt lat="43.83607" lon="6.31559">
        <ele>1159.7</ele>
        <time>2021-07-10T09:27:11Z</time>
      </trkpt>
      <trkpt lat="43.83615" lon="6.3156">
        <ele>1160.7</ele>
        <time>2021-07-10T09:27:15Z</time>
      </trkpt>
      <trkpt lat="43.83625" lon="6.3156">
        <ele>1164.7</ele>
        <time>2021-07-10T09:27:20Z</time>
      </trkpt>
      <trkpt lat="43.83632" lon="6.31561">
        <ele>1167.8</ele>
        <time>2021-07-10T09:27:24Z</time>
      </trkpt>
      <trkpt lat="43.8364" lon="6.31564">
        <ele>1169.6</ele>
        <time>2021-07-10T09:27:28Z</time>
      </trkpt>
      <trkpt lat="43.83648" lon="6.31565">
        <ele>1169.4</ele>
        <time>2021-07-10T09:27:33Z</time>
      </trkpt>
      <trkpt lat="43.83655" lon="6.31569">
        <ele>1169.4</ele>
        <time>2021-07-10T09:27:38Z</time>
      </trkpt>
      <trkpt lat="43.83661" lon="6.31576">
        <ele>1175.3</ele>
        <time>2021-07-10T09:27:45Z</time>
      </trkpt>
      <trkpt lat="43.83666" lon="6.31586">
        <ele>1178.2</ele>
        <time>2021-07-10T09:27:49Z</time>
      </trkpt>
      <trkpt lat="43.8367" lon="6.31595">
        <ele>1179.8</ele>
        <time>2021-07-10T09:27:52Z</time>
      </trkpt>
      <trkpt lat="43.83675" lon="6.31606">
        <ele>1183.2</ele>
        <time>2021-07-10T09:27:56Z</time>
      </trkpt>
      <trkpt lat="43.83683" lon="6.31611">
        <ele>1183.4</ele>
        <time>2021-07-10T09:28:01Z</time>
      </trkpt>
      <trkpt lat="43.8369" lon="6.31611">
        <ele>1182.4</ele>
        <time>2021-07-10T09:28:05Z</time>
      </trkpt>
      <trkpt lat="43.83698" lon="6.31612">
        <ele>1184.2</ele>
        <time>2021-07-10T09:28:10Z</time>
      </trkpt>
      <trkpt lat="43.83705" lon="6.3161">
        <ele>1187.3</ele>
        <time>2021-07-10T09:28:17Z</time>
      </trkpt>
      <trkpt lat="43.83708" lon="6.31609">
        <ele>1188.3</ele>
        <time>2021-07-10T09:28:24Z</time>
      </trkpt>
      <trkpt lat="43.83713" lon="6.31606">
        <ele>1187.1</ele>
        <time>2021-07-10T09:28:31Z</time>
      </trkpt>
      <trkpt lat="43.83721" lon="6.31605">
        <ele>1188.4</ele>
        <time>2021-07-10T09:28:38Z</time>
      </trkpt>
      <trkpt lat="43.83728" lon="6.31602">
        <ele>1187.6</ele>
        <time>2021-07-10T09:28:45Z</time>
      </trkpt>
      <trkpt lat="43.83735" lon="6.31598">
        <ele>1186.9</ele>
        <time>2021-07-10T09:28:52Z</time>
      </trkpt>
      <trkpt lat="43.83742" lon="6.31593">
        <ele>1188.1</ele>
        <time>2021-07-10T09:28:59Z</time>
      </trkpt>
      <trkpt lat="43.83747" lon="6.31595">
        <ele>1187.8</ele>
        <time>2021-07-10T09:29:06Z</time>
      </trkpt>
      <trkpt lat="43.8375" lon="6.31595">
        <ele>1189.9</ele>
        <time>2021-07-10T09:29:13Z</time>
      </trkpt>
      <trkpt lat="43.83754" lon="6.31604">
        <ele>1191.4</ele>
        <time>2021-07-10T09:29:19Z</time>
      </trkpt>
      <trkpt lat="43.83758" lon="6.31614">
        <ele>1190.8</ele>
        <time>2021-07-10T09:29:24Z</time>
      </trkpt>
      <trkpt lat="43.83762" lon="6.31622">
        <ele>1191.6</ele>
        <time>2021-07-10T09:29:29Z</time>
      </trkpt>
      <trkpt lat="43.83767" lon="6.3163">
        <ele>1191.1</ele>
        <time>2021-07-10T09:29:33Z</time>
      </trkpt>
      <trkpt lat="43.83773" lon="6.31639">
        <ele>1194.7</ele>
        <time>2021-07-10T09:29:38Z</time>
      </trkpt>
      <trkpt lat="43.83778" lon="6.31647">
        <ele>1197.8</ele>
        <time>2021-07-10T09:29:42Z</time>
      </trkpt>
      <trkpt lat="43.8378" lon="6.31658">
        <ele>1205</ele>
        <time>2021-07-10T09:29:49Z</time>
      </trkpt>
      <trkpt lat="43.83783" lon="6.31667">
        <ele>1203.8</ele>
        <time>2021-07-10T09:29:53Z</time>
      </trkpt>
      <trkpt lat="43.83785" lon="6.31677">
        <ele>1207.7</ele>
        <time>2021-07-10T09:29:57Z</time>
      </trkpt>
      <trkpt lat="43.83787" lon="6.31687">
        <ele>1208.2</ele>
        <time>2021-07-10T09:30:01Z</time>
      </trkpt>
      <trkpt lat="43.8379" lon="6.31697">
        <ele>1208.1</ele>
        <time>2021-07-10T09:30:05Z</time>
      </trkpt>
      <trkpt lat="43.83793" lon="6.31707">
        <ele>1211.5</ele>
        <time>2021-07-10T09:30:09Z</time>
      </trkpt>
      <trkpt lat="43.83797" lon="6.31716">
        <ele>1214.2</ele>
        <time>2021-07-10T09:30:13Z</time>
      </trkpt>
      <trkpt lat="43.83796" lon="6.31726">
        <ele>1213.4</ele>
        <time>2021-07-10T09:30:18Z</time>
      </trkpt>
      <trkpt lat="43.83797" lon="6.31736">
        <ele>1213.6</ele>
        <time>2021-07-10T09:30:22Z</time>
      </trkpt>
      <trkpt lat="43.83798" lon="6.31741">
        <ele>1210.9</ele>
        <time>2021-07-10T09:30:29Z</time>
      </trkpt>
      <trkpt lat="43.83797" lon="6.31739">
        <ele>1210.4</ele>
        <time>2021-07-10T09:30:33Z</time>
      </trkpt>
      <trkpt lat="43.83796" lon="6.31738">
        <ele>1208.9</ele>
        <time>2021-07-10T09:30:43Z</time>
      </trkpt>
      <trkpt lat="43.83795" lon="6.31739">
        <ele>1209</ele>
        <time>2021-07-10T09:30:48Z</time>
      </trkpt>
      <trkpt lat="43.83797" lon="6.31737">
        <ele>1206.9</ele>
        <time>2021-07-10T09:31:10Z</time>
      </trkpt>
      <trkpt lat="43.83797" lon="6.31737">
        <ele>1206.7</ele>
        <time>2021-07-10T09:31:11Z</time>
      </trkpt>
      <trkpt lat="43.83798" lon="6.31737">
        <ele>1205</ele>
        <time>2021-07-10T09:31:21Z</time>
      </trkpt>
      <trkpt lat="43.83798" lon="6.31737">
        <ele>1204.9</ele>
        <time>2021-07-10T09:31:22Z</time>
      </trkpt>
      <trkpt lat="43.83798" lon="6.31739">
        <ele>1203.3</ele>
        <time>2021-07-10T09:31:32Z</time>
      </trkpt>
      <trkpt lat="43.83798" lon="6.31738">
        <ele>1204.5</ele>
        <time>2021-07-10T09:31:36Z</time>
      </trkpt>
      <trkpt lat="43.83793" lon="6.31748">
        <ele>1206.8</ele>
        <time>2021-07-10T09:31:45Z</time>
      </trkpt>
      <trkpt lat="43.83788" lon="6.31758">
        <ele>1210.1</ele>
        <time>2021-07-10T09:31:49Z</time>
      </trkpt>
      <trkpt lat="43.83786" lon="6.31767">
        <ele>1213.1</ele>
        <time>2021-07-10T09:31:52Z</time>
      </trkpt>
      <trkpt lat="43.83786" lon="6.31779">
        <ele>1217</ele>
        <time>2021-07-10T09:31:56Z</time>
      </trkpt>
      <trkpt lat="43.83787" lon="6.3179">
        <ele>1217.1</ele>
        <time>2021-07-10T09:32:00Z</time>
      </trkpt>
      <trkpt lat="43.83787" lon="6.31803">
        <ele>1218.5</ele>
        <time>2021-07-10T09:32:04Z</time>
      </trkpt>
      <trkpt lat="43.83786" lon="6.31815">
        <ele>1220.2</ele>
        <time>2021-07-10T09:32:08Z</time>
      </trkpt>
      <trkpt lat="43.83781" lon="6.31825">
        <ele>1221</ele>
        <time>2021-07-10T09:32:12Z</time>
      </trkpt>
      <trkpt lat="43.83776" lon="6.31835">
        <ele>1220.6</ele>
        <time>2021-07-10T09:32:16Z</time>
      </trkpt>
      <trkpt lat="43.83772" lon="6.31843">
        <ele>1220</ele>
        <time>2021-07-10T09:32:19Z</time>
      </trkpt>
      <trkpt lat="43.83766" lon="6.31853">
        <ele>1220.3</ele>
        <time>2021-07-10T09:32:23Z</time>
      </trkpt>
      <trkpt lat="43.83762" lon="6.31863">
        <ele>1216.9</ele>
        <time>2021-07-10T09:32:27Z</time>
      </trkpt>
      <trkpt lat="43.83759" lon="6.31875">
        <ele>1218.9</ele>
        <time>2021-07-10T09:32:31Z</time>
      </trkpt>
      <trkpt lat="43.83756" lon="6.31887">
        <ele>1216.8</ele>
        <time>2021-07-10T09:32:35Z</time>
      </trkpt>
      <trkpt lat="43.83753" lon="6.31898">
        <ele>1218.4</ele>
        <time>2021-07-10T09:32:39Z</time>
      </trkpt>
      <trkpt lat="43.8375" lon="6.31909">
        <ele>1219.3</ele>
        <time>2021-07-10T09:32:43Z</time>
      </trkpt>
      <trkpt lat="43.83746" lon="6.31919">
        <ele>1219.3</ele>
        <time>2021-07-10T09:32:47Z</time>
      </trkpt>
      <trkpt lat="43.83742" lon="6.31929">
        <ele>1219.5</ele>
        <time>2021-07-10T09:32:51Z</time>
      </trkpt>
      <trkpt lat="43.8374" lon="6.3194">
        <ele>1219</ele>
        <time>2021-07-10T09:32:55Z</time>
      </trkpt>
      <trkpt lat="43.83735" lon="6.3195">
        <ele>1218.6</ele>
        <time>2021-07-10T09:32:59Z</time>
      </trkpt>
      <trkpt lat="43.83731" lon="6.31961">
        <ele>1218.3</ele>
        <time>2021-07-10T09:33:03Z</time>
      </trkpt>
      <trkpt lat="43.83727" lon="6.31972">
        <ele>1216.9</ele>
        <time>2021-07-10T09:33:07Z</time>
      </trkpt>
      <trkpt lat="43.83722" lon="6.31982">
        <ele>1217.2</ele>
        <time>2021-07-10T09:33:10Z</time>
      </trkpt>
      <trkpt lat="43.83719" lon="6.3199">
        <ele>1218.5</ele>
        <time>2021-07-10T09:33:13Z</time>
      </trkpt>
      <trkpt lat="43.83713" lon="6.32001">
        <ele>1219</ele>
        <time>2021-07-10T09:33:17Z</time>
      </trkpt>
      <trkpt lat="43.83708" lon="6.32012">
        <ele>1216.9</ele>
        <time>2021-07-10T09:33:21Z</time>
      </trkpt>
      <trkpt lat="43.83703" lon="6.32022">
        <ele>1219.2</ele>
        <time>2021-07-10T09:33:25Z</time>
      </trkpt>
      <trkpt lat="43.83695" lon="6.3203">
        <ele>1218.3</ele>
        <time>2021-07-10T09:33:29Z</time>
      </trkpt>
      <trkpt lat="43.83687" lon="6.32035">
        <ele>1219.9</ele>
        <time>2021-07-10T09:33:33Z</time>
      </trkpt>
      <trkpt lat="43.8368" lon="6.32039">
        <ele>1220</ele>
        <time>2021-07-10T09:33:36Z</time>
      </trkpt>
      <trkpt lat="43.83672" lon="6.32045">
        <ele>1222.4</ele>
        <time>2021-07-10T09:33:40Z</time>
      </trkpt>
      <trkpt lat="43.83666" lon="6.32052">
        <ele>1225.5</ele>
        <time>2021-07-10T09:33:43Z</time>
      </trkpt>
      <trkpt lat="43.83662" lon="6.3206">
        <ele>1228.5</ele>
        <time>2021-07-10T09:33:46Z</time>
      </trkpt>
      <trkpt lat="43.83659" lon="6.3207">
        <ele>1230</ele>
        <time>2021-07-10T09:33:49Z</time>
      </trkpt>
      <trkpt lat="43.83662" lon="6.32082">
        <ele>1228.7</ele>
        <time>2021-07-10T09:33:53Z</time>
      </trkpt>
      <trkpt lat="43.8367" lon="6.32081">
        <ele>1228.5</ele>
        <time>2021-07-10T09:33:56Z</time>
      </trkpt>
      <trkpt lat="43.83677" lon="6.32076">
        <ele>1228.6</ele>
        <time>2021-07-10T09:33:59Z</time>
      </trkpt>
      <trkpt lat="43.83685" lon="6.32072">
        <ele>1228.8</ele>
        <time>2021-07-10T09:34:03Z</time>
      </trkpt>
      <trkpt lat="43.83692" lon="6.3207">
        <ele>1229.8</ele>
        <time>2021-07-10T09:34:07Z</time>
      </trkpt>
      <trkpt lat="43.837" lon="6.3207">
        <ele>1231.9</ele>
        <time>2021-07-10T09:34:11Z</time>
      </trkpt>
      <trkpt lat="43.83708" lon="6.32066">
        <ele>1230.5</ele>
        <time>2021-07-10T09:34:15Z</time>
      </trkpt>
      <trkpt lat="43.83717" lon="6.3206">
        <ele>1230.9</ele>
        <time>2021-07-10T09:34:19Z</time>
      </trkpt>
      <trkpt lat="43.83723" lon="6.32056">
        <ele>1231.3</ele>
        <time>2021-07-10T09:34:22Z</time>
      </trkpt>
      <trkpt lat="43.83729" lon="6.3205">
        <ele>1231.1</ele>
        <time>2021-07-10T09:34:25Z</time>
      </trkpt>
      <trkpt lat="43.83735" lon="6.32043">
        <ele>1230.9</ele>
        <time>2021-07-10T09:34:28Z</time>
      </trkpt>
      <trkpt lat="43.83743" lon="6.32035">
        <ele>1230.4</ele>
        <time>2021-07-10T09:34:32Z</time>
      </trkpt>
      <trkpt lat="43.83748" lon="6.32028">
        <ele>1229.9</ele>
        <time>2021-07-10T09:34:35Z</time>
      </trkpt>
      <trkpt lat="43.83754" lon="6.32022">
        <ele>1230.3</ele>
        <time>2021-07-10T09:34:38Z</time>
      </trkpt>
      <trkpt lat="43.8376" lon="6.32016">
        <ele>1230.6</ele>
        <time>2021-07-10T09:34:41Z</time>
      </trkpt>
      <trkpt lat="43.83769" lon="6.32012">
        <ele>1231.8</ele>
        <time>2021-07-10T09:34:45Z</time>
      </trkpt>
      <trkpt lat="43.83775" lon="6.32018">
        <ele>1232.7</ele>
        <time>2021-07-10T09:34:48Z</time>
      </trkpt>
      <trkpt lat="43.83778" lon="6.32028">
        <ele>1234.4</ele>
        <time>2021-07-10T09:34:51Z</time>
      </trkpt>
      <trkpt lat="43.83777" lon="6.32038">
        <ele>1237.5</ele>
        <time>2021-07-10T09:34:55Z</time>
      </trkpt>
      <trkpt lat="43.83773" lon="6.32049">
        <ele>1235.5</ele>
        <time>2021-07-10T09:34:59Z</time>
      </trkpt>
      <trkpt lat="43.8377" lon="6.3206">
        <ele>1236.2</ele>
        <time>2021-07-10T09:35:03Z</time>
      </trkpt>
      <trkpt lat="43.83767" lon="6.3207">
        <ele>1235.7</ele>
        <time>2021-07-10T09:35:07Z</time>
      </trkpt>
      <trkpt lat="43.83763" lon="6.32082">
        <ele>1234.5</ele>
        <time>2021-07-10T09:35:11Z</time>
      </trkpt>
      <trkpt lat="43.8376" lon="6.32091">
        <ele>1235.5</ele>
        <time>2021-07-10T09:35:14Z</time>
      </trkpt>
      <trkpt lat="43.83756" lon="6.321">
        <ele>1237.9</ele>
        <time>2021-07-10T09:35:17Z</time>
      </trkpt>
      <trkpt lat="43.83752" lon="6.32111">
        <ele>1239.3</ele>
        <time>2021-07-10T09:35:21Z</time>
      </trkpt>
      <trkpt lat="43.83748" lon="6.32122">
        <ele>1241.6</ele>
        <time>2021-07-10T09:35:25Z</time>
      </trkpt>
      <trkpt lat="43.83747" lon="6.32133">
        <ele>1244.4</ele>
        <time>2021-07-10T09:35:29Z</time>
      </trkpt>
      <trkpt lat="43.83747" lon="6.32146">
        <ele>1245.5</ele>
        <time>2021-07-10T09:35:33Z</time>
      </trkpt>
      <trkpt lat="43.83747" lon="6.32158">
        <ele>1245.7</ele>
        <time>2021-07-10T09:35:38Z</time>
      </trkpt>
      <trkpt lat="43.83748" lon="6.3217">
        <ele>1247.2</ele>
        <time>2021-07-10T09:35:43Z</time>
      </trkpt>
      <trkpt lat="43.83746" lon="6.32181">
        <ele>1250.1</ele>
        <time>2021-07-10T09:35:49Z</time>
      </trkpt>
      <trkpt lat="43.83746" lon="6.32192">
        <ele>1251.9</ele>
        <time>2021-07-10T09:35:54Z</time>
      </trkpt>
      <trkpt lat="43.83745" lon="6.32203">
        <ele>1254.3</ele>
        <time>2021-07-10T09:35:59Z</time>
      </trkpt>
      <trkpt lat="43.83744" lon="6.32214">
        <ele>1255.2</ele>
        <time>2021-07-10T09:36:04Z</time>
      </trkpt>
      <trkpt lat="43.83743" lon="6.32225">
        <ele>1254.5</ele>
        <time>2021-07-10T09:36:08Z</time>
      </trkpt>
      <trkpt lat="43.8374" lon="6.32236">
        <ele>1254.6</ele>
        <time>2021-07-10T09:36:12Z</time>
      </trkpt>
      <trkpt lat="43.83736" lon="6.32247">
        <ele>1254.5</ele>
        <time>2021-07-10T09:36:16Z</time>
      </trkpt>
      <trkpt lat="43.83734" lon="6.32257">
        <ele>1255.4</ele>
        <time>2021-07-10T09:36:19Z</time>
      </trkpt>
      <trkpt lat="43.83733" lon="6.32267">
        <ele>1254.8</ele>
        <time>2021-07-10T09:36:22Z</time>
      </trkpt>
      <trkpt lat="43.83732" lon="6.32278">
        <ele>1253.9</ele>
        <time>2021-07-10T09:36:25Z</time>
      </trkpt>
      <trkpt lat="43.83731" lon="6.32288">
        <ele>1253.8</ele>
        <time>2021-07-10T09:36:28Z</time>
      </trkpt>
      <trkpt lat="43.8373" lon="6.32298">
        <ele>1254.5</ele>
        <time>2021-07-10T09:36:31Z</time>
      </trkpt>
      <trkpt lat="43.8373" lon="6.32309">
        <ele>1255.3</ele>
        <time>2021-07-10T09:36:34Z</time>
      </trkpt>
      <trkpt lat="43.83729" lon="6.3232">
        <ele>1254.9</ele>
        <time>2021-07-10T09:36:37Z</time>
      </trkpt>
      <trkpt lat="43.83729" lon="6.32331">
        <ele>1255.5</ele>
        <time>2021-07-10T09:36:40Z</time>
      </trkpt>
      <trkpt lat="43.83729" lon="6.32344">
        <ele>1257.2</ele>
        <time>2021-07-10T09:36:44Z</time>
      </trkpt>
      <trkpt lat="43.83729" lon="6.32357">
        <ele>1256.8</ele>
        <time>2021-07-10T09:36:48Z</time>
      </trkpt>
      <trkpt lat="43.83731" lon="6.32367">
        <ele>1257.3</ele>
        <time>2021-07-10T09:36:51Z</time>
      </trkpt>
      <trkpt lat="43.83731" lon="6.32378">
        <ele>1258.7</ele>
        <time>2021-07-10T09:36:54Z</time>
      </trkpt>
      <trkpt lat="43.83731" lon="6.32388">
        <ele>1259.1</ele>
        <time>2021-07-10T09:36:57Z</time>
      </trkpt>
      <trkpt lat="43.83729" lon="6.32398">
        <ele>1259.3</ele>
        <time>2021-07-10T09:37:00Z</time>
      </trkpt>
      <trkpt lat="43.83731" lon="6.32411">
        <ele>1259.6</ele>
        <time>2021-07-10T09:37:04Z</time>
      </trkpt>
      <trkpt lat="43.83732" lon="6.32423">
        <ele>1260.5</ele>
        <time>2021-07-10T09:37:08Z</time>
      </trkpt>
      <trkpt lat="43.83734" lon="6.32433">
        <ele>1259.5</ele>
        <time>2021-07-10T09:37:11Z</time>
      </trkpt>
      <trkpt lat="43.83736" lon="6.32443">
        <ele>1260.1</ele>
        <time>2021-07-10T09:37:14Z</time>
      </trkpt>
      <trkpt lat="43.83736" lon="6.32453">
        <ele>1261.3</ele>
        <time>2021-07-10T09:37:17Z</time>
      </trkpt>
      <trkpt lat="43.83737" lon="6.32466">
        <ele>1262.5</ele>
        <time>2021-07-10T09:37:21Z</time>
      </trkpt>
      <trkpt lat="43.83737" lon="6.32479">
        <ele>1264.1</ele>
        <time>2021-07-10T09:37:25Z</time>
      </trkpt>
      <trkpt lat="43.83738" lon="6.3249">
        <ele>1265.2</ele>
        <time>2021-07-10T09:37:29Z</time>
      </trkpt>
      <trkpt lat="43.83738" lon="6.32501">
        <ele>1268</ele>
        <time>2021-07-10T09:37:33Z</time>
      </trkpt>
      <trkpt lat="43.83738" lon="6.32511">
        <ele>1271.2</ele>
        <time>2021-07-10T09:37:37Z</time>
      </trkpt>
      <trkpt lat="43.83737" lon="6.32522">
        <ele>1272.3</ele>
        <time>2021-07-10T09:37:41Z</time>
      </trkpt>
      <trkpt lat="43.83739" lon="6.32533">
        <ele>1273.1</ele>
        <time>2021-07-10T09:37:45Z</time>
      </trkpt>
      <trkpt lat="43.8374" lon="6.32545">
        <ele>1273.9</ele>
        <time>2021-07-10T09:37:49Z</time>
      </trkpt>
      <trkpt lat="43.83741" lon="6.32557">
        <ele>1274.7</ele>
        <time>2021-07-10T09:37:53Z</time>
      </trkpt>
      <trkpt lat="43.83743" lon="6.3257">
        <ele>1274.8</ele>
        <time>2021-07-10T09:37:57Z</time>
      </trkpt>
      <trkpt lat="43.83744" lon="6.32582">
        <ele>1275.1</ele>
        <time>2021-07-10T09:38:01Z</time>
      </trkpt>
      <trkpt lat="43.83746" lon="6.32593">
        <ele>1275.2</ele>
        <time>2021-07-10T09:38:05Z</time>
      </trkpt>
      <trkpt lat="43.8375" lon="6.32604">
        <ele>1275.9</ele>
        <time>2021-07-10T09:38:10Z</time>
      </trkpt>
      <trkpt lat="43.83752" lon="6.32614">
        <ele>1276.2</ele>
        <time>2021-07-10T09:38:16Z</time>
      </trkpt>
      <trkpt lat="43.83754" lon="6.32623">
        <ele>1276.5</ele>
        <time>2021-07-10T09:38:21Z</time>
      </trkpt>
      <trkpt lat="43.83756" lon="6.32635">
        <ele>1277.1</ele>
        <time>2021-07-10T09:38:26Z</time>
      </trkpt>
      <trkpt lat="43.83756" lon="6.32646">
        <ele>1277.2</ele>
        <time>2021-07-10T09:38:30Z</time>
      </trkpt>
      <trkpt lat="43.83756" lon="6.32658">
        <ele>1280.1</ele>
        <time>2021-07-10T09:38:35Z</time>
      </trkpt>
      <trkpt lat="43.83757" lon="6.32669">
        <ele>1281.1</ele>
        <time>2021-07-10T09:38:39Z</time>
      </trkpt>
      <trkpt lat="43.83756" lon="6.32679">
        <ele>1281.5</ele>
        <time>2021-07-10T09:38:43Z</time>
      </trkpt>
      <trkpt lat="43.83755" lon="6.32689">
        <ele>1283</ele>
        <time>2021-07-10T09:38:47Z</time>
      </trkpt>
      <trkpt lat="43.83753" lon="6.32701">
        <ele>1284.7</ele>
        <time>2021-07-10T09:38:52Z</time>
      </trkpt>
      <trkpt lat="43.83753" lon="6.32712">
        <ele>1283</ele>
        <time>2021-07-10T09:38:55Z</time>
      </trkpt>
      <trkpt lat="43.83751" lon="6.32722">
        <ele>1285.7</ele>
        <time>2021-07-10T09:38:59Z</time>
      </trkpt>
      <trkpt lat="43.83748" lon="6.32734">
        <ele>1287.1</ele>
        <time>2021-07-10T09:39:03Z</time>
      </trkpt>
      <trkpt lat="43.83744" lon="6.32743">
        <ele>1289.9</ele>
        <time>2021-07-10T09:39:07Z</time>
      </trkpt>
      <trkpt lat="43.83743" lon="6.32754">
        <ele>1286.9</ele>
        <time>2021-07-10T09:39:13Z</time>
      </trkpt>
      <trkpt lat="43.83744" lon="6.32757">
        <ele>1288.6</ele>
        <time>2021-07-10T09:39:20Z</time>
      </trkpt>
      <trkpt lat="43.83743" lon="6.32767">
        <ele>1287.9</ele>
        <time>2021-07-10T09:39:25Z</time>
      </trkpt>
      <trkpt lat="43.83743" lon="6.32772">
        <ele>1287.3</ele>
        <time>2021-07-10T09:39:32Z</time>
      </trkpt>
      <trkpt lat="43.83739" lon="6.32777">
        <ele>1286.3</ele>
        <time>2021-07-10T09:39:39Z</time>
      </trkpt>
      <trkpt lat="43.83736" lon="6.32775">
        <ele>1284.9</ele>
        <time>2021-07-10T09:39:46Z</time>
      </trkpt>
      <trkpt lat="43.83741" lon="6.3277">
        <ele>1283.7</ele>
        <time>2021-07-10T09:39:53Z</time>
      </trkpt>
      <trkpt lat="43.83746" lon="6.32761">
        <ele>1286.4</ele>
        <time>2021-07-10T09:39:58Z</time>
      </trkpt>
      <trkpt lat="43.83752" lon="6.32751">
        <ele>1286.4</ele>
        <time>2021-07-10T09:40:02Z</time>
      </trkpt>
      <trkpt lat="43.83757" lon="6.3274">
        <ele>1286.5</ele>
        <time>2021-07-10T09:40:06Z</time>
      </trkpt>
      <trkpt lat="43.8376" lon="6.32731">
        <ele>1285.5</ele>
        <time>2021-07-10T09:40:09Z</time>
      </trkpt>
      <trkpt lat="43.83764" lon="6.32721">
        <ele>1285.4</ele>
        <time>2021-07-10T09:40:12Z</time>
      </trkpt>
      <trkpt lat="43.83767" lon="6.32711">
        <ele>1285.8</ele>
        <time>2021-07-10T09:40:15Z</time>
      </trkpt>
      <trkpt lat="43.8377" lon="6.327">
        <ele>1286</ele>
        <time>2021-07-10T09:40:18Z</time>
      </trkpt>
      <trkpt lat="43.83772" lon="6.32689">
        <ele>1286.3</ele>
        <time>2021-07-10T09:40:21Z</time>
      </trkpt>
      <trkpt lat="43.83774" lon="6.32678">
        <ele>1286.1</ele>
        <time>2021-07-10T09:40:24Z</time>
      </trkpt>
      <trkpt lat="43.83776" lon="6.32666">
        <ele>1285.9</ele>
        <time>2021-07-10T09:40:27Z</time>
      </trkpt>
      <trkpt lat="43.83779" lon="6.32654">
        <ele>1285.8</ele>
        <time>2021-07-10T09:40:30Z</time>
      </trkpt>
      <trkpt lat="43.83782" lon="6.32644">
        <ele>1286.3</ele>
        <time>2021-07-10T09:40:33Z</time>
      </trkpt>
      <trkpt lat="43.83789" lon="6.32634">
        <ele>1286.1</ele>
        <time>2021-07-10T09:40:36Z</time>
      </trkpt>
      <trkpt lat="43.83796" lon="6.32627">
        <ele>1286.8</ele>
        <time>2021-07-10T09:40:39Z</time>
      </trkpt>
      <trkpt lat="43.83803" lon="6.32622">
        <ele>1286.2</ele>
        <time>2021-07-10T09:40:42Z</time>
      </trkpt>
      <trkpt lat="43.83812" lon="6.32618">
        <ele>1286.6</ele>
        <time>2021-07-10T09:40:45Z</time>
      </trkpt>
      <trkpt lat="43.8382" lon="6.32616">
        <ele>1288.1</ele>
        <time>2021-07-10T09:40:48Z</time>
      </trkpt>
      <trkpt lat="43.83829" lon="6.32616">
        <ele>1287.9</ele>
        <time>2021-07-10T09:40:51Z</time>
      </trkpt>
      <trkpt lat="43.83836" lon="6.32614">
        <ele>1286.7</ele>
        <time>2021-07-10T09:40:54Z</time>
      </trkpt>
      <trkpt lat="43.83846" lon="6.32611">
        <ele>1287.6</ele>
        <time>2021-07-10T09:40:57Z</time>
      </trkpt>
      <trkpt lat="43.83855" lon="6.32609">
        <ele>1289.1</ele>
        <time>2021-07-10T09:41:00Z</time>
      </trkpt>
      <trkpt lat="43.83865" lon="6.32606">
        <ele>1290.3</ele>
        <time>2021-07-10T09:41:03Z</time>
      </trkpt>
      <trkpt lat="43.83874" lon="6.326">
        <ele>1290.4</ele>
        <time>2021-07-10T09:41:06Z</time>
      </trkpt>
      <trkpt lat="43.83881" lon="6.32596">
        <ele>1290.9</ele>
        <time>2021-07-10T09:41:08Z</time>
      </trkpt>
      <trkpt lat="43.83888" lon="6.32591">
        <ele>1290.8</ele>
        <time>2021-07-10T09:41:10Z</time>
      </trkpt>
      <trkpt lat="43.83894" lon="6.32586">
        <ele>1291.3</ele>
        <time>2021-07-10T09:41:12Z</time>
      </trkpt>
      <trkpt lat="43.83902" lon="6.32578">
        <ele>1291</ele>
        <time>2021-07-10T09:41:15Z</time>
      </trkpt>
      <trkpt lat="43.83908" lon="6.32572">
        <ele>1290.2</ele>
        <time>2021-07-10T09:41:17Z</time>
      </trkpt>
      <trkpt lat="43.83915" lon="6.32568">
        <ele>1290.7</ele>
        <time>2021-07-10T09:41:19Z</time>
      </trkpt>
      <trkpt lat="43.83922" lon="6.32565">
        <ele>1291.3</ele>
        <time>2021-07-10T09:41:21Z</time>
      </trkpt>
      <trkpt lat="43.83932" lon="6.32564">
        <ele>1290.3</ele>
        <time>2021-07-10T09:41:24Z</time>
      </trkpt>
      <trkpt lat="43.8394" lon="6.32565">
        <ele>1290.1</ele>
        <time>2021-07-10T09:41:26Z</time>
      </trkpt>
      <trkpt lat="43.83947" lon="6.32566">
        <ele>1290.6</ele>
        <time>2021-07-10T09:41:28Z</time>
      </trkpt>
      <trkpt lat="43.83955" lon="6.32568">
        <ele>1291.3</ele>
        <time>2021-07-10T09:41:30Z</time>
      </trkpt>
      <trkpt lat="43.83965" lon="6.3257">
        <ele>1291.1</ele>
        <time>2021-07-10T09:41:33Z</time>
      </trkpt>
      <trkpt lat="43.83976" lon="6.32571">
        <ele>1291.2</ele>
        <time>2021-07-10T09:41:36Z</time>
      </trkpt>
      <trkpt lat="43.83983" lon="6.3257">
        <ele>1292.1</ele>
        <time>2021-07-10T09:41:38Z</time>
      </trkpt>
      <trkpt lat="43.83993" lon="6.32569">
        <ele>1293</ele>
        <time>2021-07-10T09:41:41Z</time>
      </trkpt>
      <trkpt lat="43.84003" lon="6.32565">
        <ele>1293.3</ele>
        <time>2021-07-10T09:41:44Z</time>
      </trkpt>
      <trkpt lat="43.84011" lon="6.32555">
        <ele>1293.9</ele>
        <time>2021-07-10T09:41:47Z</time>
      </trkpt>
      <trkpt lat="43.84013" lon="6.32541">
        <ele>1296.3</ele>
        <time>2021-07-10T09:41:50Z</time>
      </trkpt>
      <trkpt lat="43.84012" lon="6.32527">
        <ele>1298</ele>
        <time>2021-07-10T09:41:53Z</time>
      </trkpt>
      <trkpt lat="43.84008" lon="6.32515">
        <ele>1298.8</ele>
        <time>2021-07-10T09:41:56Z</time>
      </trkpt>
      <trkpt lat="43.84004" lon="6.32504">
        <ele>1300</ele>
        <time>2021-07-10T09:41:59Z</time>
      </trkpt>
      <trkpt lat="43.84001" lon="6.32492">
        <ele>1299.7</ele>
        <time>2021-07-10T09:42:02Z</time>
      </trkpt>
      <trkpt lat="43.83998" lon="6.3248">
        <ele>1299</ele>
        <time>2021-07-10T09:42:05Z</time>
      </trkpt>
      <trkpt lat="43.83994" lon="6.32469">
        <ele>1300.4</ele>
        <time>2021-07-10T09:42:08Z</time>
      </trkpt>
      <trkpt lat="43.83991" lon="6.32458">
        <ele>1300</ele>
        <time>2021-07-10T09:42:11Z</time>
      </trkpt>
      <trkpt lat="43.83988" lon="6.32447">
        <ele>1301</ele>
        <time>2021-07-10T09:42:14Z</time>
      </trkpt>
      <trkpt lat="43.83986" lon="6.32435">
        <ele>1301.2</ele>
        <time>2021-07-10T09:42:17Z</time>
      </trkpt>
      <trkpt lat="43.83986" lon="6.32421">
        <ele>1301.7</ele>
        <time>2021-07-10T09:42:20Z</time>
      </trkpt>
      <trkpt lat="43.83988" lon="6.32408">
        <ele>1301.4</ele>
        <time>2021-07-10T09:42:23Z</time>
      </trkpt>
      <trkpt lat="43.83991" lon="6.32396">
        <ele>1301</ele>
        <time>2021-07-10T09:42:26Z</time>
      </trkpt>
      <trkpt lat="43.83995" lon="6.32386">
        <ele>1303.2</ele>
        <time>2021-07-10T09:42:29Z</time>
      </trkpt>
      <trkpt lat="43.83999" lon="6.32374">
        <ele>1302.6</ele>
        <time>2021-07-10T09:42:32Z</time>
      </trkpt>
      <trkpt lat="43.84004" lon="6.32363">
        <ele>1304.3</ele>
        <time>2021-07-10T09:42:35Z</time>
      </trkpt>
      <trkpt lat="43.84008" lon="6.32352">
        <ele>1305.5</ele>
        <time>2021-07-10T09:42:38Z</time>
      </trkpt>
      <trkpt lat="43.84013" lon="6.32342">
        <ele>1305.5</ele>
        <time>2021-07-10T09:42:41Z</time>
      </trkpt>
      <trkpt lat="43.84017" lon="6.32331">
        <ele>1305.2</ele>
        <time>2021-07-10T09:42:44Z</time>
      </trkpt>
      <trkpt lat="43.84021" lon="6.32319">
        <ele>1306.5</ele>
        <time>2021-07-10T09:42:47Z</time>
      </trkpt>
      <trkpt lat="43.84022" lon="6.32307">
        <ele>1307.4</ele>
        <time>2021-07-10T09:42:50Z</time>
      </trkpt>
      <trkpt lat="43.84022" lon="6.32294">
        <ele>1308.8</ele>
        <time>2021-07-10T09:42:53Z</time>
      </trkpt>
      <trkpt lat="43.84022" lon="6.32282">
        <ele>1309.5</ele>
        <time>2021-07-10T09:42:56Z</time>
      </trkpt>
      <trkpt lat="43.84023" lon="6.32271">
        <ele>1310</ele>
        <time>2021-07-10T09:42:59Z</time>
      </trkpt>
      <trkpt lat="43.84026" lon="6.32259">
        <ele>1310.4</ele>
        <time>2021-07-10T09:43:02Z</time>
      </trkpt>
      <trkpt lat="43.84031" lon="6.3225">
        <ele>1310.7</ele>
        <time>2021-07-10T09:43:05Z</time>
      </trkpt>
      <trkpt lat="43.84036" lon="6.32242">
        <ele>1310.9</ele>
        <time>2021-07-10T09:43:08Z</time>
      </trkpt>
      <trkpt lat="43.84042" lon="6.32235">
        <ele>1311.6</ele>
        <time>2021-07-10T09:43:13Z</time>
      </trkpt>
      <trkpt lat="43.8405" lon="6.32233">
        <ele>1308.2</ele>
        <time>2021-07-10T09:43:20Z</time>
      </trkpt>
      <trkpt lat="43.84051" lon="6.32234">
        <ele>1308.6</ele>
        <time>2021-07-10T09:43:27Z</time>
      </trkpt>
      <trkpt lat="43.84051" lon="6.32234">
        <ele>1308.6</ele>
        <time>2021-07-10T09:43:29Z</time>
      </trkpt>
      <trkpt lat="43.8405" lon="6.32225">
        <ele>1308.4</ele>
        <time>2021-07-10T09:43:38Z</time>
      </trkpt>
      <trkpt lat="43.84052" lon="6.32215">
        <ele>1307.8</ele>
        <time>2021-07-10T09:43:42Z</time>
      </trkpt>
      <trkpt lat="43.84053" lon="6.32205">
        <ele>1308.1</ele>
        <time>2021-07-10T09:43:45Z</time>
      </trkpt>
      <trkpt lat="43.84053" lon="6.32195">
        <ele>1308.6</ele>
        <time>2021-07-10T09:43:48Z</time>
      </trkpt>
      <trkpt lat="43.84053" lon="6.32183">
        <ele>1307.8</ele>
        <time>2021-07-10T09:43:52Z</time>
      </trkpt>
      <trkpt lat="43.84052" lon="6.32171">
        <ele>1308.6</ele>
        <time>2021-07-10T09:43:56Z</time>
      </trkpt>
      <trkpt lat="43.8405" lon="6.3216">
        <ele>1308.7</ele>
        <time>2021-07-10T09:43:59Z</time>
      </trkpt>
      <trkpt lat="43.84049" lon="6.32149">
        <ele>1310</ele>
        <time>2021-07-10T09:44:02Z</time>
      </trkpt>
      <trkpt lat="43.84047" lon="6.32139">
        <ele>1309.7</ele>
        <time>2021-07-10T09:44:05Z</time>
      </trkpt>
      <trkpt lat="43.84047" lon="6.32128">
        <ele>1310.2</ele>
        <time>2021-07-10T09:44:08Z</time>
      </trkpt>
      <trkpt lat="43.84046" lon="6.32116">
        <ele>1309.8</ele>
        <time>2021-07-10T09:44:11Z</time>
      </trkpt>
      <trkpt lat="43.84045" lon="6.32104">
        <ele>1310.3</ele>
        <time>2021-07-10T09:44:14Z</time>
      </trkpt>
      <trkpt lat="43.84044" lon="6.32091">
        <ele>1311.2</ele>
        <time>2021-07-10T09:44:17Z</time>
      </trkpt>
      <trkpt lat="43.84043" lon="6.32078">
        <ele>1311.2</ele>
        <time>2021-07-10T09:44:20Z</time>
      </trkpt>
      <trkpt lat="43.84042" lon="6.32066">
        <ele>1311.8</ele>
        <time>2021-07-10T09:44:23Z</time>
      </trkpt>
      <trkpt lat="43.8404" lon="6.32053">
        <ele>1311.8</ele>
        <time>2021-07-10T09:44:26Z</time>
      </trkpt>
      <trkpt lat="43.84038" lon="6.3204">
        <ele>1311.4</ele>
        <time>2021-07-10T09:44:29Z</time>
      </trkpt>
      <trkpt lat="43.84036" lon="6.32027">
        <ele>1311.6</ele>
        <time>2021-07-10T09:44:32Z</time>
      </trkpt>
      <trkpt lat="43.84033" lon="6.32012">
        <ele>1310.9</ele>
        <time>2021-07-10T09:44:35Z</time>
      </trkpt>
      <trkpt lat="43.8403" lon="6.31998">
        <ele>1311</ele>
        <time>2021-07-10T09:44:38Z</time>
      </trkpt>
      <trkpt lat="43.84028" lon="6.31986">
        <ele>1312</ele>
        <time>2021-07-10T09:44:41Z</time>
      </trkpt>
      <trkpt lat="43.84027" lon="6.31974">
        <ele>1312.7</ele>
        <time>2021-07-10T09:44:45Z</time>
      </trkpt>
      <trkpt lat="43.84031" lon="6.31964">
        <ele>1312.9</ele>
        <time>2021-07-10T09:44:49Z</time>
      </trkpt>
      <trkpt lat="43.84033" lon="6.31952">
        <ele>1312.2</ele>
        <time>2021-07-10T09:44:53Z</time>
      </trkpt>
      <trkpt lat="43.84036" lon="6.31942">
        <ele>1313.2</ele>
        <time>2021-07-10T09:44:57Z</time>
      </trkpt>
      <trkpt lat="43.84038" lon="6.31932">
        <ele>1313.7</ele>
        <time>2021-07-10T09:45:00Z</time>
      </trkpt>
      <trkpt lat="43.84041" lon="6.31923">
        <ele>1313.3</ele>
        <time>2021-07-10T09:45:03Z</time>
      </trkpt>
      <trkpt lat="43.84047" lon="6.31914">
        <ele>1312.2</ele>
        <time>2021-07-10T09:45:06Z</time>
      </trkpt>
      <trkpt lat="43.84053" lon="6.31908">
        <ele>1310.6</ele>
        <time>2021-07-10T09:45:08Z</time>
      </trkpt>
      <trkpt lat="43.84059" lon="6.31901">
        <ele>1311.4</ele>
        <time>2021-07-10T09:45:10Z</time>
      </trkpt>
      <trkpt lat="43.84066" lon="6.31892">
        <ele>1310.6</ele>
        <time>2021-07-10T09:45:12Z</time>
      </trkpt>
      <trkpt lat="43.84073" lon="6.31884">
        <ele>1307.4</ele>
        <time>2021-07-10T09:45:14Z</time>
      </trkpt>
      <trkpt lat="43.84074" lon="6.31868">
        <ele>1306.2</ele>
        <time>2021-07-10T09:45:15Z</time>
      </trkpt>
      <trkpt lat="43.84084" lon="6.31861">
        <ele>1303.6</ele>
        <time>2021-07-10T09:45:17Z</time>
      </trkpt>
      <trkpt lat="43.84096" lon="6.31856">
        <ele>1302.1</ele>
        <time>2021-07-10T09:45:19Z</time>
      </trkpt>
      <trkpt lat="43.84107" lon="6.31852">
        <ele>1302.2</ele>
        <time>2021-07-10T09:45:21Z</time>
      </trkpt>
      <trkpt lat="43.84118" lon="6.31846">
        <ele>1301.2</ele>
        <time>2021-07-10T09:45:23Z</time>
      </trkpt>
      <trkpt lat="43.8413" lon="6.3184">
        <ele>1299.8</ele>
        <time>2021-07-10T09:45:25Z</time>
      </trkpt>
      <trkpt lat="43.84143" lon="6.31836">
        <ele>1298.5</ele>
        <time>2021-07-10T09:45:27Z</time>
      </trkpt>
      <trkpt lat="43.84157" lon="6.31835">
        <ele>1297.7</ele>
        <time>2021-07-10T09:45:29Z</time>
      </trkpt>
      <trkpt lat="43.84172" lon="6.31831">
        <ele>1297.4</ele>
        <time>2021-07-10T09:45:31Z</time>
      </trkpt>
      <trkpt lat="43.84179" lon="6.31831">
        <ele>1296.4</ele>
        <time>2021-07-10T09:45:32Z</time>
      </trkpt>
      <trkpt lat="43.84188" lon="6.31832">
        <ele>1296</ele>
        <time>2021-07-10T09:45:33Z</time>
      </trkpt>
      <trkpt lat="43.84195" lon="6.31833">
        <ele>1295.1</ele>
        <time>2021-07-10T09:45:34Z</time>
      </trkpt>
      <trkpt lat="43.84203" lon="6.31835">
        <ele>1294.6</ele>
        <time>2021-07-10T09:45:35Z</time>
      </trkpt>
      <trkpt lat="43.84211" lon="6.31837">
        <ele>1294.4</ele>
        <time>2021-07-10T09:45:36Z</time>
      </trkpt>
      <trkpt lat="43.84219" lon="6.31838">
        <ele>1293.1</ele>
        <time>2021-07-10T09:45:37Z</time>
      </trkpt>
      <trkpt lat="43.84227" lon="6.3184">
        <ele>1292.3</ele>
        <time>2021-07-10T09:45:38Z</time>
      </trkpt>
      <trkpt lat="43.84236" lon="6.31842">
        <ele>1291.3</ele>
        <time>2021-07-10T09:45:39Z</time>
      </trkpt>
      <trkpt lat="43.84244" lon="6.31844">
        <ele>1290.5</ele>
        <time>2021-07-10T09:45:40Z</time>
      </trkpt>
      <trkpt lat="43.84252" lon="6.31844">
        <ele>1289.9</ele>
        <time>2021-07-10T09:45:41Z</time>
      </trkpt>
      <trkpt lat="43.84259" lon="6.31845">
        <ele>1289.5</ele>
        <time>2021-07-10T09:45:42Z</time>
      </trkpt>
      <trkpt lat="43.84274" lon="6.31844">
        <ele>1287.7</ele>
        <time>2021-07-10T09:45:44Z</time>
      </trkpt>
      <trkpt lat="43.84282" lon="6.31843">
        <ele>1287.4</ele>
        <time>2021-07-10T09:45:45Z</time>
      </trkpt>
      <trkpt lat="43.84292" lon="6.3184">
        <ele>1286.9</ele>
        <time>2021-07-10T09:45:46Z</time>
      </trkpt>
      <trkpt lat="43.84301" lon="6.31835">
        <ele>1286.1</ele>
        <time>2021-07-10T09:45:47Z</time>
      </trkpt>
      <trkpt lat="43.84309" lon="6.3183">
        <ele>1285.3</ele>
        <time>2021-07-10T09:45:48Z</time>
      </trkpt>
      <trkpt lat="43.84317" lon="6.31824">
        <ele>1285.2</ele>
        <time>2021-07-10T09:45:49Z</time>
      </trkpt>
      <trkpt lat="43.84325" lon="6.3182">
        <ele>1283.9</ele>
        <time>2021-07-10T09:45:50Z</time>
      </trkpt>
      <trkpt lat="43.84333" lon="6.31816">
        <ele>1283.4</ele>
        <time>2021-07-10T09:45:51Z</time>
      </trkpt>
      <trkpt lat="43.84341" lon="6.3181">
        <ele>1283</ele>
        <time>2021-07-10T09:45:52Z</time>
      </trkpt>
      <trkpt lat="43.84348" lon="6.31804">
        <ele>1281.8</ele>
        <time>2021-07-10T09:45:53Z</time>
      </trkpt>
      <trkpt lat="43.84356" lon="6.31798">
        <ele>1281</ele>
        <time>2021-07-10T09:45:54Z</time>
      </trkpt>
      <trkpt lat="43.84362" lon="6.31793">
        <ele>1280.1</ele>
        <time>2021-07-10T09:45:55Z</time>
      </trkpt>
      <trkpt lat="43.84369" lon="6.31791">
        <ele>1279.3</ele>
        <time>2021-07-10T09:45:56Z</time>
      </trkpt>
      <trkpt lat="43.84377" lon="6.31789">
        <ele>1278.2</ele>
        <time>2021-07-10T09:45:57Z</time>
      </trkpt>
      <trkpt lat="43.84385" lon="6.31788">
        <ele>1277</ele>
        <time>2021-07-10T09:45:58Z</time>
      </trkpt>
      <trkpt lat="43.84393" lon="6.31789">
        <ele>1275.6</ele>
        <time>2021-07-10T09:45:59Z</time>
      </trkpt>
      <trkpt lat="43.84401" lon="6.3179">
        <ele>1274.3</ele>
        <time>2021-07-10T09:46:00Z</time>
      </trkpt>
      <trkpt lat="43.8441" lon="6.3179">
        <ele>1273.8</ele>
        <time>2021-07-10T09:46:01Z</time>
      </trkpt>
      <trkpt lat="43.84418" lon="6.31788">
        <ele>1273.5</ele>
        <time>2021-07-10T09:46:02Z</time>
      </trkpt>
      <trkpt lat="43.84426" lon="6.31786">
        <ele>1273.1</ele>
        <time>2021-07-10T09:46:03Z</time>
      </trkpt>
      <trkpt lat="43.84438" lon="6.3178">
        <ele>1272.7</ele>
        <time>2021-07-10T09:46:05Z</time>
      </trkpt>
      <trkpt lat="43.84445" lon="6.31769">
        <ele>1271.7</ele>
        <time>2021-07-10T09:46:07Z</time>
      </trkpt>
      <trkpt lat="43.84447" lon="6.31756">
        <ele>1271.8</ele>
        <time>2021-07-10T09:46:09Z</time>
      </trkpt>
      <trkpt lat="43.84451" lon="6.31741">
        <ele>1271.5</ele>
        <time>2021-07-10T09:46:11Z</time>
      </trkpt>
      <trkpt lat="43.84458" lon="6.3173">
        <ele>1272</ele>
        <time>2021-07-10T09:46:13Z</time>
      </trkpt>
      <trkpt lat="43.84468" lon="6.31723">
        <ele>1271.7</ele>
        <time>2021-07-10T09:46:15Z</time>
      </trkpt>
      <trkpt lat="43.84483" lon="6.31723">
        <ele>1268.2</ele>
        <time>2021-07-10T09:46:17Z</time>
      </trkpt>
      <trkpt lat="43.84491" lon="6.31727">
        <ele>1267.4</ele>
        <time>2021-07-10T09:46:18Z</time>
      </trkpt>
      <trkpt lat="43.84498" lon="6.31731">
        <ele>1266.5</ele>
        <time>2021-07-10T09:46:19Z</time>
      </trkpt>
      <trkpt lat="43.84506" lon="6.31736">
        <ele>1264.7</ele>
        <time>2021-07-10T09:46:20Z</time>
      </trkpt>
      <trkpt lat="43.84517" lon="6.31737">
        <ele>1264.3</ele>
        <time>2021-07-10T09:46:22Z</time>
      </trkpt>
      <trkpt lat="43.84527" lon="6.31729">
        <ele>1263.3</ele>
        <time>2021-07-10T09:46:24Z</time>
      </trkpt>
      <trkpt lat="43.84532" lon="6.31712">
        <ele>1262.2</ele>
        <time>2021-07-10T09:46:26Z</time>
      </trkpt>
      <trkpt lat="43.84538" lon="6.31701">
        <ele>1262.3</ele>
        <time>2021-07-10T09:46:28Z</time>
      </trkpt>
      <trkpt lat="43.84543" lon="6.31695">
        <ele>1261.9</ele>
        <time>2021-07-10T09:46:30Z</time>
      </trkpt>
      <trkpt lat="43.84548" lon="6.31688">
        <ele>1262.6</ele>
        <time>2021-07-10T09:46:33Z</time>
      </trkpt>
      <trkpt lat="43.84555" lon="6.3168">
        <ele>1262.6</ele>
        <time>2021-07-10T09:46:36Z</time>
      </trkpt>
      <trkpt lat="43.84562" lon="6.31675">
        <ele>1262.7</ele>
        <time>2021-07-10T09:46:39Z</time>
      </trkpt>
      <trkpt lat="43.8457" lon="6.31669">
        <ele>1262.4</ele>
        <time>2021-07-10T09:46:42Z</time>
      </trkpt>
      <trkpt lat="43.84579" lon="6.31666">
        <ele>1263</ele>
        <time>2021-07-10T09:46:45Z</time>
      </trkpt>
      <trkpt lat="43.84589" lon="6.31664">
        <ele>1263.7</ele>
        <time>2021-07-10T09:46:48Z</time>
      </trkpt>
      <trkpt lat="43.84596" lon="6.31663">
        <ele>1264.1</ele>
        <time>2021-07-10T09:46:51Z</time>
      </trkpt>
      <trkpt lat="43.84605" lon="6.31662">
        <ele>1265.7</ele>
        <time>2021-07-10T09:46:54Z</time>
      </trkpt>
      <trkpt lat="43.84614" lon="6.31659">
        <ele>1266.5</ele>
        <time>2021-07-10T09:46:57Z</time>
      </trkpt>
      <trkpt lat="43.84622" lon="6.31657">
        <ele>1265</ele>
        <time>2021-07-10T09:47:00Z</time>
      </trkpt>
      <trkpt lat="43.8463" lon="6.31656">
        <ele>1263</ele>
        <time>2021-07-10T09:47:03Z</time>
      </trkpt>
      <trkpt lat="43.84641" lon="6.31658">
        <ele>1263.5</ele>
        <time>2021-07-10T09:47:06Z</time>
      </trkpt>
      <trkpt lat="43.84649" lon="6.31664">
        <ele>1263.9</ele>
        <time>2021-07-10T09:47:08Z</time>
      </trkpt>
      <trkpt lat="43.8466" lon="6.31667">
        <ele>1263.2</ele>
        <time>2021-07-10T09:47:10Z</time>
      </trkpt>
      <trkpt lat="43.84672" lon="6.31671">
        <ele>1262.4</ele>
        <time>2021-07-10T09:47:12Z</time>
      </trkpt>
      <trkpt lat="43.84684" lon="6.31675">
        <ele>1262.2</ele>
        <time>2021-07-10T09:47:14Z</time>
      </trkpt>
      <trkpt lat="43.84695" lon="6.31681">
        <ele>1261.7</ele>
        <time>2021-07-10T09:47:16Z</time>
      </trkpt>
      <trkpt lat="43.84707" lon="6.3169">
        <ele>1260.4</ele>
        <time>2021-07-10T09:47:18Z</time>
      </trkpt>
      <trkpt lat="43.84717" lon="6.31701">
        <ele>1259.6</ele>
        <time>2021-07-10T09:47:20Z</time>
      </trkpt>
      <trkpt lat="43.84726" lon="6.31713">
        <ele>1258.3</ele>
        <time>2021-07-10T09:47:22Z</time>
      </trkpt>
      <trkpt lat="43.84736" lon="6.31721">
        <ele>1259.3</ele>
        <time>2021-07-10T09:47:24Z</time>
      </trkpt>
      <trkpt lat="43.84749" lon="6.31727">
        <ele>1257.2</ele>
        <time>2021-07-10T09:47:26Z</time>
      </trkpt>
      <trkpt lat="43.84759" lon="6.31726">
        <ele>1257.4</ele>
        <time>2021-07-10T09:47:28Z</time>
      </trkpt>
      <trkpt lat="43.84766" lon="6.31717">
        <ele>1257.1</ele>
        <time>2021-07-10T09:47:30Z</time>
      </trkpt>
      <trkpt lat="43.84766" lon="6.31706">
        <ele>1256.3</ele>
        <time>2021-07-10T09:47:32Z</time>
      </trkpt>
      <trkpt lat="43.84764" lon="6.31695">
        <ele>1256.6</ele>
        <time>2021-07-10T09:47:35Z</time>
      </trkpt>
      <trkpt lat="43.84761" lon="6.31683">
        <ele>1256.6</ele>
        <time>2021-07-10T09:47:38Z</time>
      </trkpt>
      <trkpt lat="43.84758" lon="6.31674">
        <ele>1257.1</ele>
        <time>2021-07-10T09:47:41Z</time>
      </trkpt>
      <trkpt lat="43.84755" lon="6.31664">
        <ele>1257.9</ele>
        <time>2021-07-10T09:47:44Z</time>
      </trkpt>
      <trkpt lat="43.84752" lon="6.31655">
        <ele>1257.9</ele>
        <time>2021-07-10T09:47:47Z</time>
      </trkpt>
      <trkpt lat="43.84748" lon="6.31645">
        <ele>1258.8</ele>
        <time>2021-07-10T09:47:50Z</time>
      </trkpt>
      <trkpt lat="43.84743" lon="6.31633">
        <ele>1259.1</ele>
        <time>2021-07-10T09:47:53Z</time>
      </trkpt>
      <trkpt lat="43.84739" lon="6.31623">
        <ele>1259.4</ele>
        <time>2021-07-10T09:47:56Z</time>
      </trkpt>
      <trkpt lat="43.84736" lon="6.31614">
        <ele>1260.1</ele>
        <time>2021-07-10T09:47:59Z</time>
      </trkpt>
      <trkpt lat="43.84734" lon="6.31612">
        <ele>1261.7</ele>
        <time>2021-07-10T09:48:06Z</time>
      </trkpt>
      <trkpt lat="43.84734" lon="6.31612">
        <ele>1261.4</ele>
        <time>2021-07-10T09:48:08Z</time>
      </trkpt>
      <trkpt lat="43.84734" lon="6.3161">
        <ele>1261.8</ele>
        <time>2021-07-10T09:48:25Z</time>
      </trkpt>
      <trkpt lat="43.84734" lon="6.3161">
        <ele>1261.7</ele>
        <time>2021-07-10T09:48:26Z</time>
      </trkpt>
      <trkpt lat="43.8473" lon="6.31602">
        <ele>1260.7</ele>
        <time>2021-07-10T09:49:03Z</time>
      </trkpt>
      <trkpt lat="43.84727" lon="6.31591">
        <ele>1261.3</ele>
        <time>2021-07-10T09:49:06Z</time>
      </trkpt>
      <trkpt lat="43.84723" lon="6.31583">
        <ele>1263.5</ele>
        <time>2021-07-10T09:49:09Z</time>
      </trkpt>
      <trkpt lat="43.84721" lon="6.31572">
        <ele>1263.8</ele>
        <time>2021-07-10T09:49:12Z</time>
      </trkpt>
      <trkpt lat="43.84722" lon="6.3156">
        <ele>1262.8</ele>
        <time>2021-07-10T09:49:15Z</time>
      </trkpt>
      <trkpt lat="43.84728" lon="6.3155">
        <ele>1263.7</ele>
        <time>2021-07-10T09:49:18Z</time>
      </trkpt>
      <trkpt lat="43.84735" lon="6.31541">
        <ele>1263.8</ele>
        <time>2021-07-10T09:49:21Z</time>
      </trkpt>
      <trkpt lat="43.84742" lon="6.31531">
        <ele>1261.7</ele>
        <time>2021-07-10T09:49:24Z</time>
      </trkpt>
      <trkpt lat="43.84749" lon="6.31523">
        <ele>1262.1</ele>
        <time>2021-07-10T09:49:27Z</time>
      </trkpt>
      <trkpt lat="43.84757" lon="6.31514">
        <ele>1262.3</ele>
        <time>2021-07-10T09:49:30Z</time>
      </trkpt>
      <trkpt lat="43.84765" lon="6.31505">
        <ele>1261.3</ele>
        <time>2021-07-10T09:49:33Z</time>
      </trkpt>
      <trkpt lat="43.84771" lon="6.31499">
        <ele>1260.4</ele>
        <time>2021-07-10T09:49:35Z</time>
      </trkpt>
      <trkpt lat="43.84779" lon="6.31493">
        <ele>1259.7</ele>
        <time>2021-07-10T09:49:37Z</time>
      </trkpt>
      <trkpt lat="43.84786" lon="6.31488">
        <ele>1259.4</ele>
        <time>2021-07-10T09:49:39Z</time>
      </trkpt>
      <trkpt lat="43.84792" lon="6.31484">
        <ele>1259.5</ele>
        <time>2021-07-10T09:49:41Z</time>
      </trkpt>
      <trkpt lat="43.84799" lon="6.3148">
        <ele>1259.8</ele>
        <time>2021-07-10T09:49:43Z</time>
      </trkpt>
      <trkpt lat="43.84807" lon="6.31476">
        <ele>1259.5</ele>
        <time>2021-07-10T09:49:45Z</time>
      </trkpt>
      <trkpt lat="43.84814" lon="6.31471">
        <ele>1259.3</ele>
        <time>2021-07-10T09:49:47Z</time>
      </trkpt>
      <trkpt lat="43.84821" lon="6.31466">
        <ele>1259.4</ele>
        <time>2021-07-10T09:49:49Z</time>
      </trkpt>
      <trkpt lat="43.8483" lon="6.31457">
        <ele>1259.3</ele>
        <time>2021-07-10T09:49:52Z</time>
      </trkpt>
      <trkpt lat="43.84835" lon="6.3145">
        <ele>1259.6</ele>
        <time>2021-07-10T09:49:54Z</time>
      </trkpt>
      <trkpt lat="43.8484" lon="6.31438">
        <ele>1259.6</ele>
        <time>2021-07-10T09:49:57Z</time>
      </trkpt>
      <trkpt lat="43.84843" lon="6.31428">
        <ele>1259.9</ele>
        <time>2021-07-10T09:49:59Z</time>
      </trkpt>
      <trkpt lat="43.84845" lon="6.31417">
        <ele>1260.3</ele>
        <time>2021-07-10T09:50:01Z</time>
      </trkpt>
      <trkpt lat="43.84847" lon="6.31407">
        <ele>1260.7</ele>
        <time>2021-07-10T09:50:03Z</time>
      </trkpt>
      <trkpt lat="43.84849" lon="6.31396">
        <ele>1261.9</ele>
        <time>2021-07-10T09:50:05Z</time>
      </trkpt>
      <trkpt lat="43.84851" lon="6.31386">
        <ele>1261.2</ele>
        <time>2021-07-10T09:50:07Z</time>
      </trkpt>
      <trkpt lat="43.84853" lon="6.31376">
        <ele>1261.4</ele>
        <time>2021-07-10T09:50:09Z</time>
      </trkpt>
      <trkpt lat="43.84856" lon="6.31364">
        <ele>1261.4</ele>
        <time>2021-07-10T09:50:11Z</time>
      </trkpt>
      <trkpt lat="43.84859" lon="6.31355">
        <ele>1262.1</ele>
        <time>2021-07-10T09:50:13Z</time>
      </trkpt>
      <trkpt lat="43.84863" lon="6.31342">
        <ele>1262.1</ele>
        <time>2021-07-10T09:50:16Z</time>
      </trkpt>
      <trkpt lat="43.84866" lon="6.31333">
        <ele>1262.2</ele>
        <time>2021-07-10T09:50:18Z</time>
      </trkpt>
      <trkpt lat="43.84871" lon="6.31323">
        <ele>1262.6</ele>
        <time>2021-07-10T09:50:20Z</time>
      </trkpt>
      <trkpt lat="43.84876" lon="6.31315">
        <ele>1262.2</ele>
        <time>2021-07-10T09:50:22Z</time>
      </trkpt>
      <trkpt lat="43.84881" lon="6.31305">
        <ele>1263.2</ele>
        <time>2021-07-10T09:50:24Z</time>
      </trkpt>
      <trkpt lat="43.84887" lon="6.31297">
        <ele>1263.1</ele>
        <time>2021-07-10T09:50:26Z</time>
      </trkpt>
      <trkpt lat="43.84893" lon="6.31286">
        <ele>1263.6</ele>
        <time>2021-07-10T09:50:29Z</time>
      </trkpt>
      <trkpt lat="43.849" lon="6.31275">
        <ele>1262.4</ele>
        <time>2021-07-10T09:50:32Z</time>
      </trkpt>
      <trkpt lat="43.84905" lon="6.31268">
        <ele>1262</ele>
        <time>2021-07-10T09:50:34Z</time>
      </trkpt>
      <trkpt lat="43.84911" lon="6.31259">
        <ele>1262</ele>
        <time>2021-07-10T09:50:36Z</time>
      </trkpt>
      <trkpt lat="43.84914" lon="6.31249">
        <ele>1262.2</ele>
        <time>2021-07-10T09:50:38Z</time>
      </trkpt>
      <trkpt lat="43.84916" lon="6.31239">
        <ele>1263</ele>
        <time>2021-07-10T09:50:40Z</time>
      </trkpt>
      <trkpt lat="43.84916" lon="6.31229">
        <ele>1262.9</ele>
        <time>2021-07-10T09:50:42Z</time>
      </trkpt>
      <trkpt lat="43.84917" lon="6.31218">
        <ele>1262.5</ele>
        <time>2021-07-10T09:50:44Z</time>
      </trkpt>
      <trkpt lat="43.84918" lon="6.31204">
        <ele>1263.1</ele>
        <time>2021-07-10T09:50:47Z</time>
      </trkpt>
      <trkpt lat="43.84918" lon="6.31194">
        <ele>1263.2</ele>
        <time>2021-07-10T09:50:49Z</time>
      </trkpt>
      <trkpt lat="43.8492" lon="6.31183">
        <ele>1262.7</ele>
        <time>2021-07-10T09:50:51Z</time>
      </trkpt>
      <trkpt lat="43.84922" lon="6.31172">
        <ele>1262.3</ele>
        <time>2021-07-10T09:50:53Z</time>
      </trkpt>
      <trkpt lat="43.84923" lon="6.31161">
        <ele>1261.5</ele>
        <time>2021-07-10T09:50:55Z</time>
      </trkpt>
      <trkpt lat="43.84925" lon="6.31152">
        <ele>1261.8</ele>
        <time>2021-07-10T09:50:57Z</time>
      </trkpt>
      <trkpt lat="43.84928" lon="6.31142">
        <ele>1261.6</ele>
        <time>2021-07-10T09:50:59Z</time>
      </trkpt>
      <trkpt lat="43.84933" lon="6.31132">
        <ele>1257.5</ele>
        <time>2021-07-10T09:51:01Z</time>
      </trkpt>
      <trkpt lat="43.84939" lon="6.31123">
        <ele>1257.8</ele>
        <time>2021-07-10T09:51:03Z</time>
      </trkpt>
      <trkpt lat="43.84946" lon="6.31117">
        <ele>1258.1</ele>
        <time>2021-07-10T09:51:05Z</time>
      </trkpt>
      <trkpt lat="43.84953" lon="6.31115">
        <ele>1258.5</ele>
        <time>2021-07-10T09:51:06Z</time>
      </trkpt>
      <trkpt lat="43.84962" lon="6.31111">
        <ele>1256.3</ele>
        <time>2021-07-10T09:51:08Z</time>
      </trkpt>
      <trkpt lat="43.84971" lon="6.31108">
        <ele>1257.3</ele>
        <time>2021-07-10T09:51:10Z</time>
      </trkpt>
      <trkpt lat="43.8498" lon="6.31107">
        <ele>1258.2</ele>
        <time>2021-07-10T09:51:12Z</time>
      </trkpt>
      <trkpt lat="43.8499" lon="6.31103">
        <ele>1256.9</ele>
        <time>2021-07-10T09:51:14Z</time>
      </trkpt>
      <trkpt lat="43.84998" lon="6.31099">
        <ele>1257.5</ele>
        <time>2021-07-10T09:51:16Z</time>
      </trkpt>
      <trkpt lat="43.85007" lon="6.31092">
        <ele>1256.7</ele>
        <time>2021-07-10T09:51:18Z</time>
      </trkpt>
      <trkpt lat="43.8501" lon="6.3108">
        <ele>1256.4</ele>
        <time>2021-07-10T09:51:20Z</time>
      </trkpt>
      <trkpt lat="43.85007" lon="6.31071">
        <ele>1256.8</ele>
        <time>2021-07-10T09:51:23Z</time>
      </trkpt>
      <trkpt lat="43.84999" lon="6.31066">
        <ele>1257.7</ele>
        <time>2021-07-10T09:51:27Z</time>
      </trkpt>
      <trkpt lat="43.84991" lon="6.31064">
        <ele>1258.4</ele>
        <time>2021-07-10T09:51:31Z</time>
      </trkpt>
      <trkpt lat="43.84982" lon="6.31058">
        <ele>1259.4</ele>
        <time>2021-07-10T09:51:35Z</time>
      </trkpt>
      <trkpt lat="43.84975" lon="6.3105">
        <ele>1261.3</ele>
        <time>2021-07-10T09:51:38Z</time>
      </trkpt>
      <trkpt lat="43.84969" lon="6.31043">
        <ele>1262.6</ele>
        <time>2021-07-10T09:51:41Z</time>
      </trkpt>
      <trkpt lat="43.84962" lon="6.31035">
        <ele>1264.5</ele>
        <time>2021-07-10T09:51:44Z</time>
      </trkpt>
      <trkpt lat="43.84955" lon="6.3103">
        <ele>1266.3</ele>
        <time>2021-07-10T09:51:47Z</time>
      </trkpt>
      <trkpt lat="43.84948" lon="6.31025">
        <ele>1269.2</ele>
        <time>2021-07-10T09:51:50Z</time>
      </trkpt>
      <trkpt lat="43.84939" lon="6.31021">
        <ele>1272.4</ele>
        <time>2021-07-10T09:51:53Z</time>
      </trkpt>
      <trkpt lat="43.84931" lon="6.31019">
        <ele>1277.8</ele>
        <time>2021-07-10T09:51:56Z</time>
      </trkpt>
      <trkpt lat="43.84924" lon="6.31014">
        <ele>1277.4</ele>
        <time>2021-07-10T09:51:59Z</time>
      </trkpt>
      <trkpt lat="43.84918" lon="6.31007">
        <ele>1278.9</ele>
        <time>2021-07-10T09:52:02Z</time>
      </trkpt>
      <trkpt lat="43.84912" lon="6.30998">
        <ele>1282.1</ele>
        <time>2021-07-10T09:52:05Z</time>
      </trkpt>
      <trkpt lat="43.84907" lon="6.3099">
        <ele>1281.5</ele>
        <time>2021-07-10T09:52:08Z</time>
      </trkpt>
      <trkpt lat="43.84901" lon="6.30981">
        <ele>1280.1</ele>
        <time>2021-07-10T09:52:11Z</time>
      </trkpt>
      <trkpt lat="43.84893" lon="6.30974">
        <ele>1279.8</ele>
        <time>2021-07-10T09:52:14Z</time>
      </trkpt>
      <trkpt lat="43.84886" lon="6.30967">
        <ele>1278.8</ele>
        <time>2021-07-10T09:52:17Z</time>
      </trkpt>
      <trkpt lat="43.84879" lon="6.3096">
        <ele>1279.3</ele>
        <time>2021-07-10T09:52:20Z</time>
      </trkpt>
      <trkpt lat="43.84873" lon="6.30949">
        <ele>1279.8</ele>
        <time>2021-07-10T09:52:23Z</time>
      </trkpt>
      <trkpt lat="43.8487" lon="6.30938">
        <ele>1279.1</ele>
        <time>2021-07-10T09:52:26Z</time>
      </trkpt>
      <trkpt lat="43.84867" lon="6.30927">
        <ele>1280.2</ele>
        <time>2021-07-10T09:52:29Z</time>
      </trkpt>
      <trkpt lat="43.84866" lon="6.30916">
        <ele>1281.4</ele>
        <time>2021-07-10T09:52:32Z</time>
      </trkpt>
      <trkpt lat="43.84864" lon="6.30906">
        <ele>1283</ele>
        <time>2021-07-10T09:52:36Z</time>
      </trkpt>
      <trkpt lat="43.8486" lon="6.30894">
        <ele>1284</ele>
        <time>2021-07-10T09:52:40Z</time>
      </trkpt>
      <trkpt lat="43.84856" lon="6.30886">
        <ele>1284</ele>
        <time>2021-07-10T09:52:43Z</time>
      </trkpt>
      <trkpt lat="43.84852" lon="6.30875">
        <ele>1285</ele>
        <time>2021-07-10T09:52:46Z</time>
      </trkpt>
      <trkpt lat="43.84849" lon="6.30865">
        <ele>1285.7</ele>
        <time>2021-07-10T09:52:49Z</time>
      </trkpt>
      <trkpt lat="43.84846" lon="6.30856">
        <ele>1287.1</ele>
        <time>2021-07-10T09:52:52Z</time>
      </trkpt>
      <trkpt lat="43.84842" lon="6.30847">
        <ele>1288.7</ele>
        <time>2021-07-10T09:52:55Z</time>
      </trkpt>
      <trkpt lat="43.84835" lon="6.30839">
        <ele>1286.7</ele>
        <time>2021-07-10T09:52:58Z</time>
      </trkpt>
      <trkpt lat="43.84831" lon="6.30832">
        <ele>1285.3</ele>
        <time>2021-07-10T09:53:01Z</time>
      </trkpt>
      <trkpt lat="43.84825" lon="6.30826">
        <ele>1285.1</ele>
        <time>2021-07-10T09:53:04Z</time>
      </trkpt>
      <trkpt lat="43.84821" lon="6.30814">
        <ele>1286.6</ele>
        <time>2021-07-10T09:53:08Z</time>
      </trkpt>
      <trkpt lat="43.84827" lon="6.30806">
        <ele>1285.6</ele>
        <time>2021-07-10T09:53:11Z</time>
      </trkpt>
      <trkpt lat="43.84836" lon="6.30808">
        <ele>1284.7</ele>
        <time>2021-07-10T09:53:14Z</time>
      </trkpt>
      <trkpt lat="43.84843" lon="6.30814">
        <ele>1285.4</ele>
        <time>2021-07-10T09:53:17Z</time>
      </trkpt>
      <trkpt lat="43.8485" lon="6.3082">
        <ele>1286.3</ele>
        <time>2021-07-10T09:53:22Z</time>
      </trkpt>
      <trkpt lat="43.84858" lon="6.30826">
        <ele>1288.5</ele>
        <time>2021-07-10T09:53:26Z</time>
      </trkpt>
      <trkpt lat="43.84864" lon="6.30835">
        <ele>1287.7</ele>
        <time>2021-07-10T09:53:29Z</time>
      </trkpt>
      <trkpt lat="43.84871" lon="6.30843">
        <ele>1289.1</ele>
        <time>2021-07-10T09:53:32Z</time>
      </trkpt>
      <trkpt lat="43.84878" lon="6.30849">
        <ele>1287.6</ele>
        <time>2021-07-10T09:53:35Z</time>
      </trkpt>
      <trkpt lat="43.84885" lon="6.30855">
        <ele>1286.1</ele>
        <time>2021-07-10T09:53:38Z</time>
      </trkpt>
      <trkpt lat="43.8489" lon="6.30861">
        <ele>1287.8</ele>
        <time>2021-07-10T09:53:41Z</time>
      </trkpt>
      <trkpt lat="43.84897" lon="6.30868">
        <ele>1289.7</ele>
        <time>2021-07-10T09:53:45Z</time>
      </trkpt>
      <trkpt lat="43.84903" lon="6.30875">
        <ele>1292.4</ele>
        <time>2021-07-10T09:53:49Z</time>
      </trkpt>
      <trkpt lat="43.84911" lon="6.30884">
        <ele>1293.9</ele>
        <time>2021-07-10T09:53:53Z</time>
      </trkpt>
      <trkpt lat="43.84918" lon="6.30891">
        <ele>1293.1</ele>
        <time>2021-07-10T09:53:56Z</time>
      </trkpt>
      <trkpt lat="43.84926" lon="6.30897">
        <ele>1292.9</ele>
        <time>2021-07-10T09:53:59Z</time>
      </trkpt>
      <trkpt lat="43.84933" lon="6.309">
        <ele>1292.2</ele>
        <time>2021-07-10T09:54:02Z</time>
      </trkpt>
      <trkpt lat="43.84941" lon="6.30905">
        <ele>1293.2</ele>
        <time>2021-07-10T09:54:05Z</time>
      </trkpt>
      <trkpt lat="43.84949" lon="6.30908">
        <ele>1294.5</ele>
        <time>2021-07-10T09:54:08Z</time>
      </trkpt>
      <trkpt lat="43.84957" lon="6.30911">
        <ele>1295.7</ele>
        <time>2021-07-10T09:54:11Z</time>
      </trkpt>
      <trkpt lat="43.84964" lon="6.30915">
        <ele>1297</ele>
        <time>2021-07-10T09:54:14Z</time>
      </trkpt>
      <trkpt lat="43.84972" lon="6.30923">
        <ele>1299.6</ele>
        <time>2021-07-10T09:54:18Z</time>
      </trkpt>
      <trkpt lat="43.8498" lon="6.30923">
        <ele>1299.6</ele>
        <time>2021-07-10T09:54:22Z</time>
      </trkpt>
      <trkpt lat="43.8498" lon="6.30912">
        <ele>1299.8</ele>
        <time>2021-07-10T09:54:26Z</time>
      </trkpt>
      <trkpt lat="43.84973" lon="6.30907">
        <ele>1301.4</ele>
        <time>2021-07-10T09:54:29Z</time>
      </trkpt>
      <trkpt lat="43.84964" lon="6.30905">
        <ele>1302.5</ele>
        <time>2021-07-10T09:54:32Z</time>
      </trkpt>
      <trkpt lat="43.84958" lon="6.30899">
        <ele>1305.6</ele>
        <time>2021-07-10T09:54:35Z</time>
      </trkpt>
      <trkpt lat="43.84952" lon="6.30892">
        <ele>1306</ele>
        <time>2021-07-10T09:54:38Z</time>
      </trkpt>
      <trkpt lat="43.84946" lon="6.30885">
        <ele>1306.8</ele>
        <time>2021-07-10T09:54:41Z</time>
      </trkpt>
      <trkpt lat="43.84941" lon="6.30877">
        <ele>1306.8</ele>
        <time>2021-07-10T09:54:44Z</time>
      </trkpt>
      <trkpt lat="43.84937" lon="6.30869">
        <ele>1307.9</ele>
        <time>2021-07-10T09:54:47Z</time>
      </trkpt>
      <trkpt lat="43.84933" lon="6.30859">
        <ele>1309.5</ele>
        <time>2021-07-10T09:54:50Z</time>
      </trkpt>
      <trkpt lat="43.8493" lon="6.30849">
        <ele>1310.5</ele>
        <time>2021-07-10T09:54:53Z</time>
      </trkpt>
      <trkpt lat="43.84927" lon="6.30838">
        <ele>1310.7</ele>
        <time>2021-07-10T09:54:56Z</time>
      </trkpt>
      <trkpt lat="43.84925" lon="6.30827">
        <ele>1310.9</ele>
        <time>2021-07-10T09:54:59Z</time>
      </trkpt>
      <trkpt lat="43.84923" lon="6.30816">
        <ele>1312.5</ele>
        <time>2021-07-10T09:55:02Z</time>
      </trkpt>
      <trkpt lat="43.84919" lon="6.30806">
        <ele>1313.2</ele>
        <time>2021-07-10T09:55:05Z</time>
      </trkpt>
      <trkpt lat="43.84916" lon="6.30797">
        <ele>1314.8</ele>
        <time>2021-07-10T09:55:08Z</time>
      </trkpt>
      <trkpt lat="43.84911" lon="6.30787">
        <ele>1315.9</ele>
        <time>2021-07-10T09:55:11Z</time>
      </trkpt>
      <trkpt lat="43.84908" lon="6.30778">
        <ele>1316.3</ele>
        <time>2021-07-10T09:55:14Z</time>
      </trkpt>
      <trkpt lat="43.84904" lon="6.30769">
        <ele>1316.7</ele>
        <time>2021-07-10T09:55:17Z</time>
      </trkpt>
      <trkpt lat="43.849" lon="6.3076">
        <ele>1317.5</ele>
        <time>2021-07-10T09:55:20Z</time>
      </trkpt>
      <trkpt lat="43.84896" lon="6.30751">
        <ele>1317.5</ele>
        <time>2021-07-10T09:55:23Z</time>
      </trkpt>
      <trkpt lat="43.84893" lon="6.30743">
        <ele>1317.9</ele>
        <time>2021-07-10T09:55:26Z</time>
      </trkpt>
      <trkpt lat="43.84887" lon="6.30732">
        <ele>1318.1</ele>
        <time>2021-07-10T09:55:30Z</time>
      </trkpt>
      <trkpt lat="43.84881" lon="6.30726">
        <ele>1319.4</ele>
        <time>2021-07-10T09:55:33Z</time>
      </trkpt>
      <trkpt lat="43.84876" lon="6.30719">
        <ele>1319.6</ele>
        <time>2021-07-10T09:55:36Z</time>
      </trkpt>
      <trkpt lat="43.84869" lon="6.30711">
        <ele>1319</ele>
        <time>2021-07-10T09:55:40Z</time>
      </trkpt>
      <trkpt lat="43.84862" lon="6.307">
        <ele>1321.9</ele>
        <time>2021-07-10T09:55:44Z</time>
      </trkpt>
      <trkpt lat="43.84858" lon="6.30693">
        <ele>1321.8</ele>
        <time>2021-07-10T09:55:47Z</time>
      </trkpt>
      <trkpt lat="43.84852" lon="6.30686">
        <ele>1322.2</ele>
        <time>2021-07-10T09:55:50Z</time>
      </trkpt>
      <trkpt lat="43.84845" lon="6.3068">
        <ele>1322.5</ele>
        <time>2021-07-10T09:55:53Z</time>
      </trkpt>
      <trkpt lat="43.84837" lon="6.30678">
        <ele>1323.7</ele>
        <time>2021-07-10T09:55:56Z</time>
      </trkpt>
      <trkpt lat="43.84829" lon="6.30679">
        <ele>1323.7</ele>
        <time>2021-07-10T09:55:59Z</time>
      </trkpt>
      <trkpt lat="43.84822" lon="6.30674">
        <ele>1323.7</ele>
        <time>2021-07-10T09:56:02Z</time>
      </trkpt>
      <trkpt lat="43.84818" lon="6.30666">
        <ele>1325.7</ele>
        <time>2021-07-10T09:56:05Z</time>
      </trkpt>
      <trkpt lat="43.84814" lon="6.30655">
        <ele>1326.4</ele>
        <time>2021-07-10T09:56:08Z</time>
      </trkpt>
      <trkpt lat="43.84812" lon="6.30645">
        <ele>1327</ele>
        <time>2021-07-10T09:56:11Z</time>
      </trkpt>
      <trkpt lat="43.84808" lon="6.30632">
        <ele>1327.2</ele>
        <time>2021-07-10T09:56:15Z</time>
      </trkpt>
      <trkpt lat="43.84804" lon="6.30624">
        <ele>1327.3</ele>
        <time>2021-07-10T09:56:18Z</time>
      </trkpt>
      <trkpt lat="43.84795" lon="6.30618">
        <ele>1329.1</ele>
        <time>2021-07-10T09:56:22Z</time>
      </trkpt>
      <trkpt lat="43.84787" lon="6.30618">
        <ele>1329.8</ele>
        <time>2021-07-10T09:56:25Z</time>
      </trkpt>
      <trkpt lat="43.8478" lon="6.30622">
        <ele>1332</ele>
        <time>2021-07-10T09:56:28Z</time>
      </trkpt>
      <trkpt lat="43.84773" lon="6.30627">
        <ele>1331.8</ele>
        <time>2021-07-10T09:56:31Z</time>
      </trkpt>
      <trkpt lat="43.84766" lon="6.30631">
        <ele>1333.1</ele>
        <time>2021-07-10T09:56:34Z</time>
      </trkpt>
      <trkpt lat="43.84759" lon="6.30637">
        <ele>1333.3</ele>
        <time>2021-07-10T09:56:37Z</time>
      </trkpt>
      <trkpt lat="43.84752" lon="6.3064">
        <ele>1337.3</ele>
        <time>2021-07-10T09:56:40Z</time>
      </trkpt>
      <trkpt lat="43.84746" lon="6.30644">
        <ele>1338.1</ele>
        <time>2021-07-10T09:56:43Z</time>
      </trkpt>
      <trkpt lat="43.84737" lon="6.3065">
        <ele>1339.9</ele>
        <time>2021-07-10T09:56:47Z</time>
      </trkpt>
      <trkpt lat="43.84729" lon="6.30654">
        <ele>1341.1</ele>
        <time>2021-07-10T09:56:51Z</time>
      </trkpt>
      <trkpt lat="43.84722" lon="6.30656">
        <ele>1341.4</ele>
        <time>2021-07-10T09:56:54Z</time>
      </trkpt>
      <trkpt lat="43.84715" lon="6.30664">
        <ele>1338.4</ele>
        <time>2021-07-10T09:56:58Z</time>
      </trkpt>
      <trkpt lat="43.84709" lon="6.3067">
        <ele>1338</ele>
        <time>2021-07-10T09:57:01Z</time>
      </trkpt>
      <trkpt lat="43.84702" lon="6.30676">
        <ele>1334.2</ele>
        <time>2021-07-10T09:57:04Z</time>
      </trkpt>
      <trkpt lat="43.84696" lon="6.30681">
        <ele>1333.2</ele>
        <time>2021-07-10T09:57:07Z</time>
      </trkpt>
      <trkpt lat="43.84689" lon="6.30687">
        <ele>1332.5</ele>
        <time>2021-07-10T09:57:10Z</time>
      </trkpt>
      <trkpt lat="43.84682" lon="6.30692">
        <ele>1331.6</ele>
        <time>2021-07-10T09:57:13Z</time>
      </trkpt>
      <trkpt lat="43.84675" lon="6.30697">
        <ele>1333.8</ele>
        <time>2021-07-10T09:57:16Z</time>
      </trkpt>
      <trkpt lat="43.84666" lon="6.30699">
        <ele>1331.1</ele>
        <time>2021-07-10T09:57:19Z</time>
      </trkpt>
      <trkpt lat="43.84657" lon="6.307">
        <ele>1332</ele>
        <time>2021-07-10T09:57:22Z</time>
      </trkpt>
      <trkpt lat="43.84649" lon="6.30703">
        <ele>1328.7</ele>
        <time>2021-07-10T09:57:25Z</time>
      </trkpt>
      <trkpt lat="43.84642" lon="6.30704">
        <ele>1330.7</ele>
        <time>2021-07-10T09:57:29Z</time>
      </trkpt>
      <trkpt lat="43.84635" lon="6.307">
        <ele>1332.9</ele>
        <time>2021-07-10T09:57:33Z</time>
      </trkpt>
      <trkpt lat="43.84631" lon="6.30692">
        <ele>1333.8</ele>
        <time>2021-07-10T09:57:40Z</time>
      </trkpt>
      <trkpt lat="43.84631" lon="6.30692">
        <ele>1332.8</ele>
        <time>2021-07-10T09:57:44Z</time>
      </trkpt>
      <trkpt lat="43.84629" lon="6.30692">
        <ele>1333.7</ele>
        <time>2021-07-10T09:57:53Z</time>
      </trkpt>
      <trkpt lat="43.84629" lon="6.30692">
        <ele>1334.2</ele>
        <time>2021-07-10T09:57:54Z</time>
      </trkpt>
      <trkpt lat="43.84629" lon="6.30692">
        <ele>1331.9</ele>
        <time>2021-07-10T09:58:03Z</time>
      </trkpt>
      <trkpt lat="43.84629" lon="6.30693">
        <ele>1332.3</ele>
        <time>2021-07-10T09:58:04Z</time>
      </trkpt>
      <trkpt lat="43.84635" lon="6.30684">
        <ele>1332.2</ele>
        <time>2021-07-10T09:58:17Z</time>
      </trkpt>
      <trkpt lat="43.84643" lon="6.3068">
        <ele>1333.5</ele>
        <time>2021-07-10T09:58:21Z</time>
      </trkpt>
      <trkpt lat="43.84651" lon="6.30676">
        <ele>1335.8</ele>
        <time>2021-07-10T09:58:25Z</time>
      </trkpt>
      <trkpt lat="43.84659" lon="6.30672">
        <ele>1336.4</ele>
        <time>2021-07-10T09:58:29Z</time>
      </trkpt>
      <trkpt lat="43.84666" lon="6.30665">
        <ele>1336.3</ele>
        <time>2021-07-10T09:58:33Z</time>
      </trkpt>
      <trkpt lat="43.84672" lon="6.30659">
        <ele>1336.7</ele>
        <time>2021-07-10T09:58:36Z</time>
      </trkpt>
      <trkpt lat="43.84677" lon="6.30652">
        <ele>1336</ele>
        <time>2021-07-10T09:58:39Z</time>
      </trkpt>
      <trkpt lat="43.84683" lon="6.30645">
        <ele>1335.8</ele>
        <time>2021-07-10T09:58:42Z</time>
      </trkpt>
      <trkpt lat="43.84688" lon="6.30636">
        <ele>1335.9</ele>
        <time>2021-07-10T09:58:45Z</time>
      </trkpt>
      <trkpt lat="43.84692" lon="6.30627">
        <ele>1336.4</ele>
        <time>2021-07-10T09:58:48Z</time>
      </trkpt>
      <trkpt lat="43.84696" lon="6.30619">
        <ele>1336.7</ele>
        <time>2021-07-10T09:58:51Z</time>
      </trkpt>
      <trkpt lat="43.847" lon="6.3061">
        <ele>1336.4</ele>
        <time>2021-07-10T09:58:54Z</time>
      </trkpt>
      <trkpt lat="43.84707" lon="6.30602">
        <ele>1337.2</ele>
        <time>2021-07-10T09:58:57Z</time>
      </trkpt>
      <trkpt lat="43.84713" lon="6.30595">
        <ele>1337.4</ele>
        <time>2021-07-10T09:59:00Z</time>
      </trkpt>
      <trkpt lat="43.8472" lon="6.30586">
        <ele>1336.5</ele>
        <time>2021-07-10T09:59:03Z</time>
      </trkpt>
      <trkpt lat="43.84726" lon="6.30578">
        <ele>1336.4</ele>
        <time>2021-07-10T09:59:06Z</time>
      </trkpt>
      <trkpt lat="43.84733" lon="6.3057">
        <ele>1337.4</ele>
        <time>2021-07-10T09:59:09Z</time>
      </trkpt>
      <trkpt lat="43.8474" lon="6.30563">
        <ele>1338.1</ele>
        <time>2021-07-10T09:59:12Z</time>
      </trkpt>
      <trkpt lat="43.84749" lon="6.30558">
        <ele>1338.7</ele>
        <time>2021-07-10T09:59:15Z</time>
      </trkpt>
      <trkpt lat="43.84757" lon="6.30551">
        <ele>1337.4</ele>
        <time>2021-07-10T09:59:18Z</time>
      </trkpt>
      <trkpt lat="43.84764" lon="6.30542">
        <ele>1338.4</ele>
        <time>2021-07-10T09:59:21Z</time>
      </trkpt>
      <trkpt lat="43.8477" lon="6.30531">
        <ele>1339.8</ele>
        <time>2021-07-10T09:59:24Z</time>
      </trkpt>
      <trkpt lat="43.84774" lon="6.30522">
        <ele>1339.7</ele>
        <time>2021-07-10T09:59:26Z</time>
      </trkpt>
      <trkpt lat="43.84776" lon="6.30512">
        <ele>1340.2</ele>
        <time>2021-07-10T09:59:28Z</time>
      </trkpt>
      <trkpt lat="43.84779" lon="6.30503">
        <ele>1339.6</ele>
        <time>2021-07-10T09:59:30Z</time>
      </trkpt>
      <trkpt lat="43.84783" lon="6.30489">
        <ele>1340.1</ele>
        <time>2021-07-10T09:59:33Z</time>
      </trkpt>
      <trkpt lat="43.84786" lon="6.30479">
        <ele>1340</ele>
        <time>2021-07-10T09:59:35Z</time>
      </trkpt>
      <trkpt lat="43.84789" lon="6.30471">
        <ele>1340.8</ele>
        <time>2021-07-10T09:59:37Z</time>
      </trkpt>
      <trkpt lat="43.84793" lon="6.30458">
        <ele>1339.6</ele>
        <time>2021-07-10T09:59:40Z</time>
      </trkpt>
      <trkpt lat="43.84798" lon="6.30449">
        <ele>1336.9</ele>
        <time>2021-07-10T09:59:42Z</time>
      </trkpt>
      <trkpt lat="43.84804" lon="6.3044">
        <ele>1337.3</ele>
        <time>2021-07-10T09:59:44Z</time>
      </trkpt>
      <trkpt lat="43.8481" lon="6.30432">
        <ele>1336.5</ele>
        <time>2021-07-10T09:59:46Z</time>
      </trkpt>
      <trkpt lat="43.84815" lon="6.30425">
        <ele>1337.1</ele>
        <time>2021-07-10T09:59:48Z</time>
      </trkpt>
      <trkpt lat="43.84821" lon="6.30418">
        <ele>1337.1</ele>
        <time>2021-07-10T09:59:50Z</time>
      </trkpt>
      <trkpt lat="43.84826" lon="6.30411">
        <ele>1338.3</ele>
        <time>2021-07-10T09:59:52Z</time>
      </trkpt>
      <trkpt lat="43.84831" lon="6.30403">
        <ele>1339.8</ele>
        <time>2021-07-10T09:59:54Z</time>
      </trkpt>
      <trkpt lat="43.84837" lon="6.30395">
        <ele>1339.8</ele>
        <time>2021-07-10T09:59:56Z</time>
      </trkpt>
      <trkpt lat="43.84843" lon="6.30388">
        <ele>1340.4</ele>
        <time>2021-07-10T09:59:58Z</time>
      </trkpt>
      <trkpt lat="43.8485" lon="6.30379">
        <ele>1340.4</ele>
        <time>2021-07-10T10:00:00Z</time>
      </trkpt>
      <trkpt lat="43.84856" lon="6.30371">
        <ele>1340.7</ele>
        <time>2021-07-10T10:00:02Z</time>
      </trkpt>
      <trkpt lat="43.84861" lon="6.30363">
        <ele>1340.6</ele>
        <time>2021-07-10T10:00:04Z</time>
      </trkpt>
      <trkpt lat="43.84866" lon="6.30355">
        <ele>1341.7</ele>
        <time>2021-07-10T10:00:06Z</time>
      </trkpt>
      <trkpt lat="43.84872" lon="6.30347">
        <ele>1342.1</ele>
        <time>2021-07-10T10:00:08Z</time>
      </trkpt>
      <trkpt lat="43.84877" lon="6.30338">
        <ele>1342.3</ele>
        <time>2021-07-10T10:00:10Z</time>
      </trkpt>
      <trkpt lat="43.8488" lon="6.30329">
        <ele>1341.1</ele>
        <time>2021-07-10T10:00:12Z</time>
      </trkpt>
      <trkpt lat="43.84883" lon="6.30319">
        <ele>1341.4</ele>
        <time>2021-07-10T10:00:14Z</time>
      </trkpt>
      <trkpt lat="43.84886" lon="6.30309">
        <ele>1342.3</ele>
        <time>2021-07-10T10:00:16Z</time>
      </trkpt>
      <trkpt lat="43.8489" lon="6.30296">
        <ele>1342.4</ele>
        <time>2021-07-10T10:00:19Z</time>
      </trkpt>
      <trkpt lat="43.84894" lon="6.30286">
        <ele>1341.8</ele>
        <time>2021-07-10T10:00:21Z</time>
      </trkpt>
      <trkpt lat="43.84899" lon="6.30275">
        <ele>1342.1</ele>
        <time>2021-07-10T10:00:23Z</time>
      </trkpt>
      <trkpt lat="43.84903" lon="6.30265">
        <ele>1343</ele>
        <time>2021-07-10T10:00:25Z</time>
      </trkpt>
      <trkpt lat="43.84907" lon="6.30255">
        <ele>1342.5</ele>
        <time>2021-07-10T10:00:27Z</time>
      </trkpt>
      <trkpt lat="43.84911" lon="6.30245">
        <ele>1341.8</ele>
        <time>2021-07-10T10:00:29Z</time>
      </trkpt>
      <trkpt lat="43.84916" lon="6.30236">
        <ele>1340.7</ele>
        <time>2021-07-10T10:00:31Z</time>
      </trkpt>
      <trkpt lat="43.8492" lon="6.30226">
        <ele>1340</ele>
        <time>2021-07-10T10:00:33Z</time>
      </trkpt>
      <trkpt lat="43.84925" lon="6.30216">
        <ele>1340.1</ele>
        <time>2021-07-10T10:00:35Z</time>
      </trkpt>
      <trkpt lat="43.8493" lon="6.30205">
        <ele>1341.1</ele>
        <time>2021-07-10T10:00:37Z</time>
      </trkpt>
      <trkpt lat="43.84935" lon="6.30195">
        <ele>1340.8</ele>
        <time>2021-07-10T10:00:39Z</time>
      </trkpt>
      <trkpt lat="43.8494" lon="6.30185">
        <ele>1341.6</ele>
        <time>2021-07-10T10:00:41Z</time>
      </trkpt>
      <trkpt lat="43.84945" lon="6.30173">
        <ele>1342</ele>
        <time>2021-07-10T10:00:43Z</time>
      </trkpt>
      <trkpt lat="43.84949" lon="6.30162">
        <ele>1341.9</ele>
        <time>2021-07-10T10:00:45Z</time>
      </trkpt>
      <trkpt lat="43.84953" lon="6.30152">
        <ele>1343.1</ele>
        <time>2021-07-10T10:00:47Z</time>
      </trkpt>
      <trkpt lat="43.84956" lon="6.30141">
        <ele>1343.6</ele>
        <time>2021-07-10T10:00:49Z</time>
      </trkpt>
      <trkpt lat="43.8496" lon="6.30131">
        <ele>1343.6</ele>
        <time>2021-07-10T10:00:51Z</time>
      </trkpt>
      <trkpt lat="43.84964" lon="6.30121">
        <ele>1346.3</ele>
        <time>2021-07-10T10:00:53Z</time>
      </trkpt>
      <trkpt lat="43.84968" lon="6.30109">
        <ele>1345.8</ele>
        <time>2021-07-10T10:00:55Z</time>
      </trkpt>
      <trkpt lat="43.84971" lon="6.30099">
        <ele>1345.7</ele>
        <time>2021-07-10T10:00:57Z</time>
      </trkpt>
      <trkpt lat="43.84975" lon="6.30089">
        <ele>1345.9</ele>
        <time>2021-07-10T10:00:59Z</time>
      </trkpt>
      <trkpt lat="43.84978" lon="6.3008">
        <ele>1346.6</ele>
        <time>2021-07-10T10:01:01Z</time>
      </trkpt>
      <trkpt lat="43.8498" lon="6.3007">
        <ele>1347.5</ele>
        <time>2021-07-10T10:01:03Z</time>
      </trkpt>
      <trkpt lat="43.84984" lon="6.30056">
        <ele>1342</ele>
        <time>2021-07-10T10:01:06Z</time>
      </trkpt>
      <trkpt lat="43.84988" lon="6.30047">
        <ele>1341.7</ele>
        <time>2021-07-10T10:01:08Z</time>
      </trkpt>
      <trkpt lat="43.84994" lon="6.30038">
        <ele>1341.5</ele>
        <time>2021-07-10T10:01:10Z</time>
      </trkpt>
      <trkpt lat="43.85002" lon="6.30031">
        <ele>1340.5</ele>
        <time>2021-07-10T10:01:12Z</time>
      </trkpt>
      <trkpt lat="43.85009" lon="6.30026">
        <ele>1339.5</ele>
        <time>2021-07-10T10:01:14Z</time>
      </trkpt>
      <trkpt lat="43.85019" lon="6.30023">
        <ele>1339.1</ele>
        <time>2021-07-10T10:01:16Z</time>
      </trkpt>
      <trkpt lat="43.85029" lon="6.3002">
        <ele>1339.2</ele>
        <time>2021-07-10T10:01:18Z</time>
      </trkpt>
      <trkpt lat="43.85041" lon="6.3002">
        <ele>1339.5</ele>
        <time>2021-07-10T10:01:20Z</time>
      </trkpt>
      <trkpt lat="43.85053" lon="6.30014">
        <ele>1337.9</ele>
        <time>2021-07-10T10:01:22Z</time>
      </trkpt>
      <trkpt lat="43.85066" lon="6.30011">
        <ele>1338.1</ele>
        <time>2021-07-10T10:01:24Z</time>
      </trkpt>
      <trkpt lat="43.85079" lon="6.30009">
        <ele>1337.6</ele>
        <time>2021-07-10T10:01:26Z</time>
      </trkpt>
      <trkpt lat="43.85093" lon="6.30009">
        <ele>1337.9</ele>
        <time>2021-07-10T10:01:28Z</time>
      </trkpt>
      <trkpt lat="43.85104" lon="6.30009">
        <ele>1338</ele>
        <time>2021-07-10T10:01:30Z</time>
      </trkpt>
      <trkpt lat="43.85113" lon="6.30002">
        <ele>1338.8</ele>
        <time>2021-07-10T10:01:32Z</time>
      </trkpt>
      <trkpt lat="43.85121" lon="6.29994">
        <ele>1337.9</ele>
        <time>2021-07-10T10:01:34Z</time>
      </trkpt>
      <trkpt lat="43.85129" lon="6.29989">
        <ele>1339.4</ele>
        <time>2021-07-10T10:01:36Z</time>
      </trkpt>
      <trkpt lat="43.85138" lon="6.29984">
        <ele>1338.6</ele>
        <time>2021-07-10T10:01:38Z</time>
      </trkpt>
      <trkpt lat="43.85148" lon="6.29979">
        <ele>1338.2</ele>
        <time>2021-07-10T10:01:40Z</time>
      </trkpt>
      <trkpt lat="43.85157" lon="6.29975">
        <ele>1336.8</ele>
        <time>2021-07-10T10:01:42Z</time>
      </trkpt>
      <trkpt lat="43.85166" lon="6.29967">
        <ele>1337.9</ele>
        <time>2021-07-10T10:01:45Z</time>
      </trkpt>
      <trkpt lat="43.85175" lon="6.29963">
        <ele>1338.6</ele>
        <time>2021-07-10T10:01:47Z</time>
      </trkpt>
      <trkpt lat="43.85183" lon="6.29961">
        <ele>1340.8</ele>
        <time>2021-07-10T10:01:49Z</time>
      </trkpt>
      <trkpt lat="43.85191" lon="6.29957">
        <ele>1341.8</ele>
        <time>2021-07-10T10:01:51Z</time>
      </trkpt>
      <trkpt lat="43.85198" lon="6.29952">
        <ele>1343.5</ele>
        <time>2021-07-10T10:01:53Z</time>
      </trkpt>
      <trkpt lat="43.85203" lon="6.29944">
        <ele>1342.1</ele>
        <time>2021-07-10T10:01:55Z</time>
      </trkpt>
      <trkpt lat="43.85207" lon="6.29935">
        <ele>1340.6</ele>
        <time>2021-07-10T10:01:57Z</time>
      </trkpt>
      <trkpt lat="43.8521" lon="6.29921">
        <ele>1339.2</ele>
        <time>2021-07-10T10:02:00Z</time>
      </trkpt>
      <trkpt lat="43.85211" lon="6.29906">
        <ele>1336.8</ele>
        <time>2021-07-10T10:02:03Z</time>
      </trkpt>
      <trkpt lat="43.85212" lon="6.29895">
        <ele>1336.1</ele>
        <time>2021-07-10T10:02:05Z</time>
      </trkpt>
      <trkpt lat="43.85212" lon="6.29884">
        <ele>1336.1</ele>
        <time>2021-07-10T10:02:07Z</time>
      </trkpt>
      <trkpt lat="43.85212" lon="6.29873">
        <ele>1337.4</ele>
        <time>2021-07-10T10:02:09Z</time>
      </trkpt>
      <trkpt lat="43.85209" lon="6.29863">
        <ele>1338.1</ele>
        <time>2021-07-10T10:02:11Z</time>
      </trkpt>
      <trkpt lat="43.85208" lon="6.29852">
        <ele>1337.8</ele>
        <time>2021-07-10T10:02:13Z</time>
      </trkpt>
      <trkpt lat="43.85208" lon="6.2984">
        <ele>1339.5</ele>
        <time>2021-07-10T10:02:16Z</time>
      </trkpt>
      <trkpt lat="43.85213" lon="6.29827">
        <ele>1338.5</ele>
        <time>2021-07-10T10:02:19Z</time>
      </trkpt>
      <trkpt lat="43.85221" lon="6.29819">
        <ele>1333.6</ele>
        <time>2021-07-10T10:02:21Z</time>
      </trkpt>
      <trkpt lat="43.85229" lon="6.29811">
        <ele>1333.1</ele>
        <time>2021-07-10T10:02:23Z</time>
      </trkpt>
      <trkpt lat="43.85237" lon="6.29804">
        <ele>1332.5</ele>
        <time>2021-07-10T10:02:25Z</time>
      </trkpt>
      <trkpt lat="43.85244" lon="6.29798">
        <ele>1332.7</ele>
        <time>2021-07-10T10:02:27Z</time>
      </trkpt>
      <trkpt lat="43.85252" lon="6.29793">
        <ele>1334.1</ele>
        <time>2021-07-10T10:02:29Z</time>
      </trkpt>
      <trkpt lat="43.85259" lon="6.29788">
        <ele>1332.9</ele>
        <time>2021-07-10T10:02:31Z</time>
      </trkpt>
      <trkpt lat="43.85267" lon="6.2978">
        <ele>1333.2</ele>
        <time>2021-07-10T10:02:33Z</time>
      </trkpt>
      <trkpt lat="43.85275" lon="6.29774">
        <ele>1332.9</ele>
        <time>2021-07-10T10:02:35Z</time>
      </trkpt>
      <trkpt lat="43.85282" lon="6.29769">
        <ele>1333</ele>
        <time>2021-07-10T10:02:37Z</time>
      </trkpt>
      <trkpt lat="43.85291" lon="6.29764">
        <ele>1332.3</ele>
        <time>2021-07-10T10:02:39Z</time>
      </trkpt>
      <trkpt lat="43.853" lon="6.2976">
        <ele>1332.8</ele>
        <time>2021-07-10T10:02:41Z</time>
      </trkpt>
      <trkpt lat="43.85307" lon="6.29753">
        <ele>1334.1</ele>
        <time>2021-07-10T10:02:43Z</time>
      </trkpt>
      <trkpt lat="43.85314" lon="6.29747">
        <ele>1334.3</ele>
        <time>2021-07-10T10:02:45Z</time>
      </trkpt>
      <trkpt lat="43.8532" lon="6.29741">
        <ele>1333.6</ele>
        <time>2021-07-10T10:02:47Z</time>
      </trkpt>
      <trkpt lat="43.85327" lon="6.29735">
        <ele>1334.1</ele>
        <time>2021-07-10T10:02:50Z</time>
      </trkpt>
      <trkpt lat="43.85332" lon="6.29725">
        <ele>1333.8</ele>
        <time>2021-07-10T10:02:53Z</time>
      </trkpt>
      <trkpt lat="43.85335" lon="6.29718">
        <ele>1334.2</ele>
        <time>2021-07-10T10:03:00Z</time>
      </trkpt>
      <trkpt lat="43.85334" lon="6.2972">
        <ele>1335.4</ele>
        <time>2021-07-10T10:03:07Z</time>
      </trkpt>
      <trkpt lat="43.85334" lon="6.2972">
        <ele>1335.3</ele>
        <time>2021-07-10T10:03:08Z</time>
      </trkpt>
      <trkpt lat="43.85335" lon="6.29716">
        <ele>1338.4</ele>
        <time>2021-07-10T10:03:16Z</time>
      </trkpt>
      <trkpt lat="43.85333" lon="6.29716">
        <ele>1337.8</ele>
        <time>2021-07-10T10:03:23Z</time>
      </trkpt>
      <trkpt lat="43.85333" lon="6.29716">
        <ele>1339.6</ele>
        <time>2021-07-10T10:03:26Z</time>
      </trkpt>
      <trkpt lat="43.85334" lon="6.29717">
        <ele>1338.7</ele>
        <time>2021-07-10T10:03:35Z</time>
      </trkpt>
      <trkpt lat="43.85334" lon="6.29717">
        <ele>1338.7</ele>
        <time>2021-07-10T10:03:36Z</time>
      </trkpt>
      <trkpt lat="43.8534" lon="6.29708">
        <ele>1336.3</ele>
        <time>2021-07-10T10:04:11Z</time>
      </trkpt>
      <trkpt lat="43.85348" lon="6.29701">
        <ele>1339.4</ele>
        <time>2021-07-10T10:04:13Z</time>
      </trkpt>
      <trkpt lat="43.85356" lon="6.29692">
        <ele>1339.8</ele>
        <time>2021-07-10T10:04:15Z</time>
      </trkpt>
      <trkpt lat="43.85364" lon="6.29684">
        <ele>1339.6</ele>
        <time>2021-07-10T10:04:17Z</time>
      </trkpt>
      <trkpt lat="43.85369" lon="6.29677">
        <ele>1339</ele>
        <time>2021-07-10T10:04:18Z</time>
      </trkpt>
      <trkpt lat="43.85375" lon="6.29667">
        <ele>1340.1</ele>
        <time>2021-07-10T10:04:20Z</time>
      </trkpt>
      <trkpt lat="43.85383" lon="6.29655">
        <ele>1338.6</ele>
        <time>2021-07-10T10:04:22Z</time>
      </trkpt>
      <trkpt lat="43.85393" lon="6.29649">
        <ele>1336.7</ele>
        <time>2021-07-10T10:04:24Z</time>
      </trkpt>
      <trkpt lat="43.85401" lon="6.29642">
        <ele>1336.1</ele>
        <time>2021-07-10T10:04:26Z</time>
      </trkpt>
      <trkpt lat="43.85411" lon="6.29637">
        <ele>1333.7</ele>
        <time>2021-07-10T10:04:28Z</time>
      </trkpt>
      <trkpt lat="43.85422" lon="6.29635">
        <ele>1334.8</ele>
        <time>2021-07-10T10:04:30Z</time>
      </trkpt>
      <trkpt lat="43.85431" lon="6.29629">
        <ele>1333.5</ele>
        <time>2021-07-10T10:04:32Z</time>
      </trkpt>
      <trkpt lat="43.85441" lon="6.2963">
        <ele>1333</ele>
        <time>2021-07-10T10:04:34Z</time>
      </trkpt>
      <trkpt lat="43.85452" lon="6.29629">
        <ele>1333.7</ele>
        <time>2021-07-10T10:04:37Z</time>
      </trkpt>
      <trkpt lat="43.85461" lon="6.29626">
        <ele>1331.2</ele>
        <time>2021-07-10T10:04:40Z</time>
      </trkpt>
      <trkpt lat="43.8547" lon="6.29625">
        <ele>1331.3</ele>
        <time>2021-07-10T10:04:43Z</time>
      </trkpt>
      <trkpt lat="43.85478" lon="6.29623">
        <ele>1331.8</ele>
        <time>2021-07-10T10:04:45Z</time>
      </trkpt>
      <trkpt lat="43.85486" lon="6.29618">
        <ele>1332.7</ele>
        <time>2021-07-10T10:04:47Z</time>
      </trkpt>
      <trkpt lat="43.85495" lon="6.29612">
        <ele>1333.6</ele>
        <time>2021-07-10T10:04:49Z</time>
      </trkpt>
      <trkpt lat="43.85506" lon="6.29614">
        <ele>1334.5</ele>
        <time>2021-07-10T10:04:51Z</time>
      </trkpt>
      <trkpt lat="43.85516" lon="6.29614">
        <ele>1336.9</ele>
        <time>2021-07-10T10:04:53Z</time>
      </trkpt>
      <trkpt lat="43.85526" lon="6.29613">
        <ele>1337.1</ele>
        <time>2021-07-10T10:04:55Z</time>
      </trkpt>
      <trkpt lat="43.85535" lon="6.29609">
        <ele>1334.7</ele>
        <time>2021-07-10T10:04:57Z</time>
      </trkpt>
      <trkpt lat="43.85544" lon="6.29604">
        <ele>1336.6</ele>
        <time>2021-07-10T10:04:59Z</time>
      </trkpt>
      <trkpt lat="43.85554" lon="6.296">
        <ele>1337.5</ele>
        <time>2021-07-10T10:05:01Z</time>
      </trkpt>
      <trkpt lat="43.8556" lon="6.29591">
        <ele>1338.6</ele>
        <time>2021-07-10T10:05:03Z</time>
      </trkpt>
      <trkpt lat="43.85567" lon="6.2958">
        <ele>1334.5</ele>
        <time>2021-07-10T10:05:05Z</time>
      </trkpt>
      <trkpt lat="43.85577" lon="6.29577">
        <ele>1333.7</ele>
        <time>2021-07-10T10:05:07Z</time>
      </trkpt>
      <trkpt lat="43.85583" lon="6.29569">
        <ele>1333.1</ele>
        <time>2021-07-10T10:05:09Z</time>
      </trkpt>
      <trkpt lat="43.8559" lon="6.29561">
        <ele>1333.5</ele>
        <time>2021-07-10T10:05:11Z</time>
      </trkpt>
      <trkpt lat="43.85595" lon="6.29553">
        <ele>1332.2</ele>
        <time>2021-07-10T10:05:13Z</time>
      </trkpt>
      <trkpt lat="43.85604" lon="6.29551">
        <ele>1334</ele>
        <time>2021-07-10T10:05:15Z</time>
      </trkpt>
      <trkpt lat="43.8561" lon="6.29543">
        <ele>1334.6</ele>
        <time>2021-07-10T10:05:17Z</time>
      </trkpt>
      <trkpt lat="43.8562" lon="6.29538">
        <ele>1333.3</ele>
        <time>2021-07-10T10:05:19Z</time>
      </trkpt>
      <trkpt lat="43.85626" lon="6.29531">
        <ele>1334.9</ele>
        <time>2021-07-10T10:05:21Z</time>
      </trkpt>
      <trkpt lat="43.85633" lon="6.29524">
        <ele>1337.6</ele>
        <time>2021-07-10T10:05:23Z</time>
      </trkpt>
      <trkpt lat="43.8564" lon="6.29517">
        <ele>1337.3</ele>
        <time>2021-07-10T10:05:25Z</time>
      </trkpt>
      <trkpt lat="43.85647" lon="6.29509">
        <ele>1334.3</ele>
        <time>2021-07-10T10:05:27Z</time>
      </trkpt>
      <trkpt lat="43.85653" lon="6.295">
        <ele>1334.5</ele>
        <time>2021-07-10T10:05:29Z</time>
      </trkpt>
      <trkpt lat="43.85658" lon="6.29489">
        <ele>1333.9</ele>
        <time>2021-07-10T10:05:31Z</time>
      </trkpt>
      <trkpt lat="43.85665" lon="6.2948">
        <ele>1333.4</ele>
        <time>2021-07-10T10:05:33Z</time>
      </trkpt>
      <trkpt lat="43.85673" lon="6.29477">
        <ele>1336.7</ele>
        <time>2021-07-10T10:05:35Z</time>
      </trkpt>
      <trkpt lat="43.8568" lon="6.29474">
        <ele>1336.4</ele>
        <time>2021-07-10T10:05:37Z</time>
      </trkpt>
      <trkpt lat="43.85686" lon="6.29468">
        <ele>1335.4</ele>
        <time>2021-07-10T10:05:40Z</time>
      </trkpt>
      <trkpt lat="43.85692" lon="6.29461">
        <ele>1332.4</ele>
        <time>2021-07-10T10:05:44Z</time>
      </trkpt>
      <trkpt lat="43.85699" lon="6.29455">
        <ele>1331.9</ele>
        <time>2021-07-10T10:05:47Z</time>
      </trkpt>
      <trkpt lat="43.85705" lon="6.29448">
        <ele>1331.3</ele>
        <time>2021-07-10T10:05:49Z</time>
      </trkpt>
      <trkpt lat="43.85711" lon="6.2944">
        <ele>1329.4</ele>
        <time>2021-07-10T10:05:51Z</time>
      </trkpt>
      <trkpt lat="43.85714" lon="6.29427">
        <ele>1328.1</ele>
        <time>2021-07-10T10:05:54Z</time>
      </trkpt>
      <trkpt lat="43.85714" lon="6.29417">
        <ele>1326.7</ele>
        <time>2021-07-10T10:05:56Z</time>
      </trkpt>
      <trkpt lat="43.85717" lon="6.29405">
        <ele>1327</ele>
        <time>2021-07-10T10:05:58Z</time>
      </trkpt>
      <trkpt lat="43.85722" lon="6.29393">
        <ele>1325.9</ele>
        <time>2021-07-10T10:06:01Z</time>
      </trkpt>
      <trkpt lat="43.85727" lon="6.29384">
        <ele>1323.3</ele>
        <time>2021-07-10T10:06:03Z</time>
      </trkpt>
      <trkpt lat="43.85734" lon="6.29378">
        <ele>1323</ele>
        <time>2021-07-10T10:06:05Z</time>
      </trkpt>
      <trkpt lat="43.85743" lon="6.29379">
        <ele>1322.9</ele>
        <time>2021-07-10T10:06:06Z</time>
      </trkpt>
      <trkpt lat="43.85754" lon="6.29374">
        <ele>1321</ele>
        <time>2021-07-10T10:06:08Z</time>
      </trkpt>
      <trkpt lat="43.85766" lon="6.29368">
        <ele>1321</ele>
        <time>2021-07-10T10:06:10Z</time>
      </trkpt>
      <trkpt lat="43.85777" lon="6.2936">
        <ele>1321.5</ele>
        <time>2021-07-10T10:06:12Z</time>
      </trkpt>
      <trkpt lat="43.85786" lon="6.2935">
        <ele>1320.5</ele>
        <time>2021-07-10T10:06:14Z</time>
      </trkpt>
      <trkpt lat="43.85796" lon="6.29344">
        <ele>1319.8</ele>
        <time>2021-07-10T10:06:16Z</time>
      </trkpt>
      <trkpt lat="43.85805" lon="6.29339">
        <ele>1318.4</ele>
        <time>2021-07-10T10:06:18Z</time>
      </trkpt>
      <trkpt lat="43.85812" lon="6.29332">
        <ele>1319</ele>
        <time>2021-07-10T10:06:20Z</time>
      </trkpt>
      <trkpt lat="43.85813" lon="6.29317">
        <ele>1320</ele>
        <time>2021-07-10T10:06:23Z</time>
      </trkpt>
      <trkpt lat="43.85811" lon="6.29306">
        <ele>1321.3</ele>
        <time>2021-07-10T10:06:25Z</time>
      </trkpt>
      <trkpt lat="43.8581" lon="6.29295">
        <ele>1320.9</ele>
        <time>2021-07-10T10:06:27Z</time>
      </trkpt>
      <trkpt lat="43.85812" lon="6.29284">
        <ele>1320.9</ele>
        <time>2021-07-10T10:06:29Z</time>
      </trkpt>
      <trkpt lat="43.85819" lon="6.29277">
        <ele>1320.5</ele>
        <time>2021-07-10T10:06:31Z</time>
      </trkpt>
      <trkpt lat="43.85827" lon="6.29268">
        <ele>1318.3</ele>
        <time>2021-07-10T10:06:33Z</time>
      </trkpt>
      <trkpt lat="43.85837" lon="6.29261">
        <ele>1317.2</ele>
        <time>2021-07-10T10:06:35Z</time>
      </trkpt>
      <trkpt lat="43.85847" lon="6.29267">
        <ele>1319.1</ele>
        <time>2021-07-10T10:06:37Z</time>
      </trkpt>
      <trkpt lat="43.85859" lon="6.29267">
        <ele>1309.9</ele>
        <time>2021-07-10T10:06:39Z</time>
      </trkpt>
      <trkpt lat="43.85871" lon="6.29269">
        <ele>1307.7</ele>
        <time>2021-07-10T10:06:41Z</time>
      </trkpt>
      <trkpt lat="43.8588" lon="6.29267">
        <ele>1308.5</ele>
        <time>2021-07-10T10:06:43Z</time>
      </trkpt>
      <trkpt lat="43.85889" lon="6.29265">
        <ele>1309.1</ele>
        <time>2021-07-10T10:06:45Z</time>
      </trkpt>
      <trkpt lat="43.859" lon="6.29262">
        <ele>1307.9</ele>
        <time>2021-07-10T10:06:47Z</time>
      </trkpt>
      <trkpt lat="43.85909" lon="6.29258">
        <ele>1307.2</ele>
        <time>2021-07-10T10:06:49Z</time>
      </trkpt>
      <trkpt lat="43.85907" lon="6.29242">
        <ele>1306.6</ele>
        <time>2021-07-10T10:06:50Z</time>
      </trkpt>
      <trkpt lat="43.85904" lon="6.29233">
        <ele>1307.9</ele>
        <time>2021-07-10T10:06:53Z</time>
      </trkpt>
      <trkpt lat="43.85896" lon="6.29224">
        <ele>1306.9</ele>
        <time>2021-07-10T10:06:55Z</time>
      </trkpt>
      <trkpt lat="43.85888" lon="6.29218">
        <ele>1306.7</ele>
        <time>2021-07-10T10:06:57Z</time>
      </trkpt>
      <trkpt lat="43.85888" lon="6.29204">
        <ele>1307.6</ele>
        <time>2021-07-10T10:06:59Z</time>
      </trkpt>
      <trkpt lat="43.85889" lon="6.29192">
        <ele>1304.4</ele>
        <time>2021-07-10T10:07:01Z</time>
      </trkpt>
      <trkpt lat="43.85889" lon="6.29178">
        <ele>1302.9</ele>
        <time>2021-07-10T10:07:03Z</time>
      </trkpt>
      <trkpt lat="43.85888" lon="6.29166">
        <ele>1302.8</ele>
        <time>2021-07-10T10:07:05Z</time>
      </trkpt>
      <trkpt lat="43.85887" lon="6.29156">
        <ele>1301</ele>
        <time>2021-07-10T10:07:07Z</time>
      </trkpt>
      <trkpt lat="43.85892" lon="6.29144">
        <ele>1302.2</ele>
        <time>2021-07-10T10:07:09Z</time>
      </trkpt>
      <trkpt lat="43.85902" lon="6.29134">
        <ele>1301.7</ele>
        <time>2021-07-10T10:07:11Z</time>
      </trkpt>
      <trkpt lat="43.8591" lon="6.29133">
        <ele>1302.1</ele>
        <time>2021-07-10T10:07:14Z</time>
      </trkpt>
      <trkpt lat="43.85917" lon="6.2913">
        <ele>1300.8</ele>
        <time>2021-07-10T10:07:16Z</time>
      </trkpt>
      <trkpt lat="43.85927" lon="6.29126">
        <ele>1298.2</ele>
        <time>2021-07-10T10:07:18Z</time>
      </trkpt>
      <trkpt lat="43.85935" lon="6.29121">
        <ele>1297.6</ele>
        <time>2021-07-10T10:07:20Z</time>
      </trkpt>
      <trkpt lat="43.85943" lon="6.29118">
        <ele>1297.5</ele>
        <time>2021-07-10T10:07:22Z</time>
      </trkpt>
      <trkpt lat="43.85955" lon="6.29118">
        <ele>1298</ele>
        <time>2021-07-10T10:07:24Z</time>
      </trkpt>
      <trkpt lat="43.85968" lon="6.2912">
        <ele>1297.6</ele>
        <time>2021-07-10T10:07:26Z</time>
      </trkpt>
      <trkpt lat="43.8598" lon="6.29124">
        <ele>1298.1</ele>
        <time>2021-07-10T10:07:28Z</time>
      </trkpt>
      <trkpt lat="43.85989" lon="6.29132">
        <ele>1297.2</ele>
        <time>2021-07-10T10:07:30Z</time>
      </trkpt>
      <trkpt lat="43.86002" lon="6.29146">
        <ele>1297.4</ele>
        <time>2021-07-10T10:07:32Z</time>
      </trkpt>
      <trkpt lat="43.86008" lon="6.29151">
        <ele>1297.1</ele>
        <time>2021-07-10T10:07:33Z</time>
      </trkpt>
      <trkpt lat="43.86013" lon="6.29159">
        <ele>1297.7</ele>
        <time>2021-07-10T10:07:34Z</time>
      </trkpt>
      <trkpt lat="43.86023" lon="6.2917">
        <ele>1298.7</ele>
        <time>2021-07-10T10:07:36Z</time>
      </trkpt>
      <trkpt lat="43.86032" lon="6.29179">
        <ele>1297.1</ele>
        <time>2021-07-10T10:07:38Z</time>
      </trkpt>
      <trkpt lat="43.86044" lon="6.29184">
        <ele>1296.4</ele>
        <time>2021-07-10T10:07:40Z</time>
      </trkpt>
      <trkpt lat="43.86054" lon="6.29184">
        <ele>1294.4</ele>
        <time>2021-07-10T10:07:42Z</time>
      </trkpt>
      <trkpt lat="43.86064" lon="6.29182">
        <ele>1293.2</ele>
        <time>2021-07-10T10:07:44Z</time>
      </trkpt>
      <trkpt lat="43.86073" lon="6.29178">
        <ele>1292.4</ele>
        <time>2021-07-10T10:07:46Z</time>
      </trkpt>
      <trkpt lat="43.86083" lon="6.29172">
        <ele>1289</ele>
        <time>2021-07-10T10:07:48Z</time>
      </trkpt>
      <trkpt lat="43.86087" lon="6.29164">
        <ele>1289.3</ele>
        <time>2021-07-10T10:07:50Z</time>
      </trkpt>
      <trkpt lat="43.86093" lon="6.29153">
        <ele>1289.2</ele>
        <time>2021-07-10T10:07:53Z</time>
      </trkpt>
      <trkpt lat="43.86099" lon="6.29141">
        <ele>1287.7</ele>
        <time>2021-07-10T10:07:56Z</time>
      </trkpt>
      <trkpt lat="43.861" lon="6.29125">
        <ele>1290</ele>
        <time>2021-07-10T10:07:58Z</time>
      </trkpt>
      <trkpt lat="43.86097" lon="6.29108">
        <ele>1290.5</ele>
        <time>2021-07-10T10:08:00Z</time>
      </trkpt>
      <trkpt lat="43.86094" lon="6.29095">
        <ele>1290.3</ele>
        <time>2021-07-10T10:08:02Z</time>
      </trkpt>
      <trkpt lat="43.86101" lon="6.29081">
        <ele>1289.5</ele>
        <time>2021-07-10T10:08:04Z</time>
      </trkpt>
      <trkpt lat="43.86112" lon="6.29085">
        <ele>1292</ele>
        <time>2021-07-10T10:08:07Z</time>
      </trkpt>
      <trkpt lat="43.86118" lon="6.29094">
        <ele>1291.7</ele>
        <time>2021-07-10T10:08:09Z</time>
      </trkpt>
      <trkpt lat="43.86124" lon="6.29104">
        <ele>1288.6</ele>
        <time>2021-07-10T10:08:11Z</time>
      </trkpt>
      <trkpt lat="43.86129" lon="6.29113">
        <ele>1287.1</ele>
        <time>2021-07-10T10:08:13Z</time>
      </trkpt>
      <trkpt lat="43.86137" lon="6.29121">
        <ele>1286.4</ele>
        <time>2021-07-10T10:08:15Z</time>
      </trkpt>
      <trkpt lat="43.86146" lon="6.29126">
        <ele>1284.4</ele>
        <time>2021-07-10T10:08:17Z</time>
      </trkpt>
      <trkpt lat="43.86157" lon="6.29128">
        <ele>1284.4</ele>
        <time>2021-07-10T10:08:19Z</time>
      </trkpt>
      <trkpt lat="43.86167" lon="6.29121">
        <ele>1282.7</ele>
        <time>2021-07-10T10:08:21Z</time>
      </trkpt>
      <trkpt lat="43.86174" lon="6.29113">
        <ele>1281.9</ele>
        <time>2021-07-10T10:08:23Z</time>
      </trkpt>
      <trkpt lat="43.86181" lon="6.29109">
        <ele>1282.3</ele>
        <time>2021-07-10T10:08:24Z</time>
      </trkpt>
      <trkpt lat="43.86186" lon="6.29094">
        <ele>1279.9</ele>
        <time>2021-07-10T10:08:26Z</time>
      </trkpt>
      <trkpt lat="43.86186" lon="6.29083">
        <ele>1280.7</ele>
        <time>2021-07-10T10:08:27Z</time>
      </trkpt>
      <trkpt lat="43.862" lon="6.2908">
        <ele>1281.6</ele>
        <time>2021-07-10T10:08:29Z</time>
      </trkpt>
      <trkpt lat="43.86211" lon="6.2907">
        <ele>1281.6</ele>
        <time>2021-07-10T10:08:31Z</time>
      </trkpt>
      <trkpt lat="43.86216" lon="6.29062">
        <ele>1279.8</ele>
        <time>2021-07-10T10:08:32Z</time>
      </trkpt>
      <trkpt lat="43.86224" lon="6.29055">
        <ele>1279.6</ele>
        <time>2021-07-10T10:08:34Z</time>
      </trkpt>
      <trkpt lat="43.8623" lon="6.29046">
        <ele>1280.9</ele>
        <time>2021-07-10T10:08:36Z</time>
      </trkpt>
      <trkpt lat="43.86238" lon="6.29048">
        <ele>1280.3</ele>
        <time>2021-07-10T10:08:37Z</time>
      </trkpt>
      <trkpt lat="43.86248" lon="6.29037">
        <ele>1276</ele>
        <time>2021-07-10T10:08:39Z</time>
      </trkpt>
      <trkpt lat="43.86259" lon="6.29026">
        <ele>1274.1</ele>
        <time>2021-07-10T10:08:41Z</time>
      </trkpt>
      <trkpt lat="43.86268" lon="6.29021">
        <ele>1275.6</ele>
        <time>2021-07-10T10:08:43Z</time>
      </trkpt>
      <trkpt lat="43.86275" lon="6.29009">
        <ele>1272.7</ele>
        <time>2021-07-10T10:08:45Z</time>
      </trkpt>
      <trkpt lat="43.86285" lon="6.28999">
        <ele>1269.3</ele>
        <time>2021-07-10T10:08:47Z</time>
      </trkpt>
      <trkpt lat="43.86294" lon="6.28989">
        <ele>1267.1</ele>
        <time>2021-07-10T10:08:49Z</time>
      </trkpt>
      <trkpt lat="43.86301" lon="6.2898">
        <ele>1264.2</ele>
        <time>2021-07-10T10:08:51Z</time>
      </trkpt>
      <trkpt lat="43.86308" lon="6.2897">
        <ele>1261.4</ele>
        <time>2021-07-10T10:08:53Z</time>
      </trkpt>
      <trkpt lat="43.86315" lon="6.28963">
        <ele>1261.8</ele>
        <time>2021-07-10T10:08:55Z</time>
      </trkpt>
      <trkpt lat="43.86323" lon="6.28959">
        <ele>1263.5</ele>
        <time>2021-07-10T10:08:57Z</time>
      </trkpt>
      <trkpt lat="43.86331" lon="6.28962">
        <ele>1264</ele>
        <time>2021-07-10T10:08:59Z</time>
      </trkpt>
      <trkpt lat="43.86336" lon="6.28971">
        <ele>1263.8</ele>
        <time>2021-07-10T10:09:02Z</time>
      </trkpt>
      <trkpt lat="43.86334" lon="6.28981">
        <ele>1261.1</ele>
        <time>2021-07-10T10:09:04Z</time>
      </trkpt>
      <trkpt lat="43.86328" lon="6.28988">
        <ele>1261.6</ele>
        <time>2021-07-10T10:09:06Z</time>
      </trkpt>
      <trkpt lat="43.86321" lon="6.28994">
        <ele>1256.1</ele>
        <time>2021-07-10T10:09:08Z</time>
      </trkpt>
      <trkpt lat="43.86315" lon="6.29">
        <ele>1252.5</ele>
        <time>2021-07-10T10:09:10Z</time>
      </trkpt>
      <trkpt lat="43.8631" lon="6.29008">
        <ele>1253.2</ele>
        <time>2021-07-10T10:09:12Z</time>
      </trkpt>
      <trkpt lat="43.86305" lon="6.29017">
        <ele>1250.2</ele>
        <time>2021-07-10T10:09:14Z</time>
      </trkpt>
      <trkpt lat="43.863" lon="6.29026">
        <ele>1251.8</ele>
        <time>2021-07-10T10:09:16Z</time>
      </trkpt>
      <trkpt lat="43.86293" lon="6.29038">
        <ele>1252.7</ele>
        <time>2021-07-10T10:09:18Z</time>
      </trkpt>
      <trkpt lat="43.86288" lon="6.29051">
        <ele>1251.3</ele>
        <time>2021-07-10T10:09:20Z</time>
      </trkpt>
      <trkpt lat="43.86281" lon="6.2906">
        <ele>1248.4</ele>
        <time>2021-07-10T10:09:22Z</time>
      </trkpt>
      <trkpt lat="43.86272" lon="6.29074">
        <ele>1248</ele>
        <time>2021-07-10T10:09:24Z</time>
      </trkpt>
      <trkpt lat="43.86269" lon="6.29088">
        <ele>1248.9</ele>
        <time>2021-07-10T10:09:26Z</time>
      </trkpt>
      <trkpt lat="43.86267" lon="6.291">
        <ele>1248.5</ele>
        <time>2021-07-10T10:09:28Z</time>
      </trkpt>
      <trkpt lat="43.86263" lon="6.2911">
        <ele>1249.4</ele>
        <time>2021-07-10T10:09:30Z</time>
      </trkpt>
      <trkpt lat="43.86267" lon="6.29123">
        <ele>1246.5</ele>
        <time>2021-07-10T10:09:33Z</time>
      </trkpt>
      <trkpt lat="43.86259" lon="6.29134">
        <ele>1243.1</ele>
        <time>2021-07-10T10:09:35Z</time>
      </trkpt>
      <trkpt lat="43.86249" lon="6.29143">
        <ele>1243.5</ele>
        <time>2021-07-10T10:09:37Z</time>
      </trkpt>
      <trkpt lat="43.8624" lon="6.29145">
        <ele>1239.1</ele>
        <time>2021-07-10T10:09:39Z</time>
      </trkpt>
      <trkpt lat="43.86241" lon="6.29157">
        <ele>1239.8</ele>
        <time>2021-07-10T10:09:41Z</time>
      </trkpt>
      <trkpt lat="43.86238" lon="6.29169">
        <ele>1240.9</ele>
        <time>2021-07-10T10:09:45Z</time>
      </trkpt>
      <trkpt lat="43.86232" lon="6.29182">
        <ele>1242.3</ele>
        <time>2021-07-10T10:09:48Z</time>
      </trkpt>
      <trkpt lat="43.86223" lon="6.29191">
        <ele>1243</ele>
        <time>2021-07-10T10:09:50Z</time>
      </trkpt>
      <trkpt lat="43.86214" lon="6.292">
        <ele>1241.4</ele>
        <time>2021-07-10T10:09:52Z</time>
      </trkpt>
      <trkpt lat="43.86201" lon="6.29205">
        <ele>1241.9</ele>
        <time>2021-07-10T10:09:53Z</time>
      </trkpt>
      <trkpt lat="43.86195" lon="6.29218">
        <ele>1243.9</ele>
        <time>2021-07-10T10:09:56Z</time>
      </trkpt>
      <trkpt lat="43.8619" lon="6.2923">
        <ele>1247.5</ele>
        <time>2021-07-10T10:09:58Z</time>
      </trkpt>
      <trkpt lat="43.86188" lon="6.29245">
        <ele>1246.5</ele>
        <time>2021-07-10T10:10:01Z</time>
      </trkpt>
      <trkpt lat="43.86186" lon="6.29257">
        <ele>1246.2</ele>
        <time>2021-07-10T10:10:03Z</time>
      </trkpt>
      <trkpt lat="43.86183" lon="6.29273">
        <ele>1247</ele>
        <time>2021-07-10T10:10:05Z</time>
      </trkpt>
      <trkpt lat="43.86176" lon="6.2929">
        <ele>1248.9</ele>
        <time>2021-07-10T10:10:07Z</time>
      </trkpt>
      <trkpt lat="43.86172" lon="6.29298">
        <ele>1249.4</ele>
        <time>2021-07-10T10:10:08Z</time>
      </trkpt>
      <trkpt lat="43.86165" lon="6.29304">
        <ele>1248.2</ele>
        <time>2021-07-10T10:10:09Z</time>
      </trkpt>
      <trkpt lat="43.86154" lon="6.29315">
        <ele>1248.8</ele>
        <time>2021-07-10T10:10:11Z</time>
      </trkpt>
      <trkpt lat="43.86144" lon="6.29326">
        <ele>1242.3</ele>
        <time>2021-07-10T10:10:13Z</time>
      </trkpt>
      <trkpt lat="43.86136" lon="6.29334">
        <ele>1241.9</ele>
        <time>2021-07-10T10:10:15Z</time>
      </trkpt>
      <trkpt lat="43.8613" lon="6.29344">
        <ele>1242.2</ele>
        <time>2021-07-10T10:10:17Z</time>
      </trkpt>
      <trkpt lat="43.86121" lon="6.29348">
        <ele>1240.8</ele>
        <time>2021-07-10T10:10:19Z</time>
      </trkpt>
      <trkpt lat="43.86113" lon="6.2936">
        <ele>1240.6</ele>
        <time>2021-07-10T10:10:21Z</time>
      </trkpt>
      <trkpt lat="43.86108" lon="6.29369">
        <ele>1242.2</ele>
        <time>2021-07-10T10:10:23Z</time>
      </trkpt>
      <trkpt lat="43.86103" lon="6.29381">
        <ele>1245.6</ele>
        <time>2021-07-10T10:10:25Z</time>
      </trkpt>
      <trkpt lat="43.86096" lon="6.2939">
        <ele>1244.4</ele>
        <time>2021-07-10T10:10:27Z</time>
      </trkpt>
      <trkpt lat="43.86088" lon="6.29397">
        <ele>1243.7</ele>
        <time>2021-07-10T10:10:29Z</time>
      </trkpt>
      <trkpt lat="43.86081" lon="6.294">
        <ele>1243.5</ele>
        <time>2021-07-10T10:10:30Z</time>
      </trkpt>
      <trkpt lat="43.86072" lon="6.29407">
        <ele>1242.5</ele>
        <time>2021-07-10T10:10:32Z</time>
      </trkpt>
      <trkpt lat="43.86063" lon="6.29413">
        <ele>1242</ele>
        <time>2021-07-10T10:10:34Z</time>
      </trkpt>
      <trkpt lat="43.86054" lon="6.29418">
        <ele>1244.8</ele>
        <time>2021-07-10T10:10:36Z</time>
      </trkpt>
      <trkpt lat="43.86048" lon="6.29426">
        <ele>1241.9</ele>
        <time>2021-07-10T10:10:38Z</time>
      </trkpt>
      <trkpt lat="43.86041" lon="6.29436">
        <ele>1240.6</ele>
        <time>2021-07-10T10:10:41Z</time>
      </trkpt>
      <trkpt lat="43.8604" lon="6.29448">
        <ele>1242.8</ele>
        <time>2021-07-10T10:10:45Z</time>
      </trkpt>
      <trkpt lat="43.86042" lon="6.29458">
        <ele>1242.7</ele>
        <time>2021-07-10T10:10:49Z</time>
      </trkpt>
      <trkpt lat="43.86046" lon="6.29469">
        <ele>1242.8</ele>
        <time>2021-07-10T10:10:52Z</time>
      </trkpt>
      <trkpt lat="43.86054" lon="6.29473">
        <ele>1242.6</ele>
        <time>2021-07-10T10:10:55Z</time>
      </trkpt>
      <trkpt lat="43.86063" lon="6.29473">
        <ele>1243.3</ele>
        <time>2021-07-10T10:10:58Z</time>
      </trkpt>
      <trkpt lat="43.86072" lon="6.29475">
        <ele>1244</ele>
        <time>2021-07-10T10:11:02Z</time>
      </trkpt>
      <trkpt lat="43.86081" lon="6.29479">
        <ele>1244.7</ele>
        <time>2021-07-10T10:11:06Z</time>
      </trkpt>
      <trkpt lat="43.86087" lon="6.29486">
        <ele>1245.8</ele>
        <time>2021-07-10T10:11:09Z</time>
      </trkpt>
      <trkpt lat="43.86092" lon="6.29496">
        <ele>1244.6</ele>
        <time>2021-07-10T10:11:12Z</time>
      </trkpt>
      <trkpt lat="43.86095" lon="6.29508">
        <ele>1247.9</ele>
        <time>2021-07-10T10:11:15Z</time>
      </trkpt>
      <trkpt lat="43.86097" lon="6.29519">
        <ele>1250.5</ele>
        <time>2021-07-10T10:11:18Z</time>
      </trkpt>
      <trkpt lat="43.861" lon="6.29528">
        <ele>1252.5</ele>
        <time>2021-07-10T10:11:21Z</time>
      </trkpt>
      <trkpt lat="43.86107" lon="6.29534">
        <ele>1255.6</ele>
        <time>2021-07-10T10:11:25Z</time>
      </trkpt>
      <trkpt lat="43.86116" lon="6.29536">
        <ele>1256.6</ele>
        <time>2021-07-10T10:11:29Z</time>
      </trkpt>
      <trkpt lat="43.86124" lon="6.29536">
        <ele>1256.1</ele>
        <time>2021-07-10T10:11:33Z</time>
      </trkpt>
      <trkpt lat="43.86134" lon="6.29533">
        <ele>1256</ele>
        <time>2021-07-10T10:11:38Z</time>
      </trkpt>
      <trkpt lat="43.86141" lon="6.29534">
        <ele>1258.5</ele>
        <time>2021-07-10T10:11:43Z</time>
      </trkpt>
      <trkpt lat="43.86147" lon="6.29539">
        <ele>1259</ele>
        <time>2021-07-10T10:11:46Z</time>
      </trkpt>
      <trkpt lat="43.86155" lon="6.29545">
        <ele>1256.8</ele>
        <time>2021-07-10T10:11:50Z</time>
      </trkpt>
      <trkpt lat="43.86161" lon="6.29551">
        <ele>1258.2</ele>
        <time>2021-07-10T10:11:54Z</time>
      </trkpt>
      <trkpt lat="43.86167" lon="6.2956">
        <ele>1256.8</ele>
        <time>2021-07-10T10:11:57Z</time>
      </trkpt>
      <trkpt lat="43.86173" lon="6.29569">
        <ele>1259.7</ele>
        <time>2021-07-10T10:12:00Z</time>
      </trkpt>
      <trkpt lat="43.86179" lon="6.29578">
        <ele>1259.2</ele>
        <time>2021-07-10T10:12:03Z</time>
      </trkpt>
      <trkpt lat="43.86183" lon="6.29585">
        <ele>1261.6</ele>
        <time>2021-07-10T10:12:06Z</time>
      </trkpt>
      <trkpt lat="43.86183" lon="6.29598">
        <ele>1262.2</ele>
        <time>2021-07-10T10:12:09Z</time>
      </trkpt>
      <trkpt lat="43.86181" lon="6.29607">
        <ele>1264.7</ele>
        <time>2021-07-10T10:12:12Z</time>
      </trkpt>
      <trkpt lat="43.86172" lon="6.29608">
        <ele>1263.7</ele>
        <time>2021-07-10T10:12:16Z</time>
      </trkpt>
      <trkpt lat="43.86165" lon="6.29601">
        <ele>1262.2</ele>
        <time>2021-07-10T10:12:20Z</time>
      </trkpt>
      <trkpt lat="43.86158" lon="6.29593">
        <ele>1262.8</ele>
        <time>2021-07-10T10:12:24Z</time>
      </trkpt>
      <trkpt lat="43.86149" lon="6.29587">
        <ele>1261.5</ele>
        <time>2021-07-10T10:12:28Z</time>
      </trkpt>
      <trkpt lat="43.86141" lon="6.29584">
        <ele>1262.2</ele>
        <time>2021-07-10T10:12:31Z</time>
      </trkpt>
      <trkpt lat="43.86132" lon="6.29585">
        <ele>1264.3</ele>
        <time>2021-07-10T10:12:34Z</time>
      </trkpt>
      <trkpt lat="43.86124" lon="6.2959">
        <ele>1264.1</ele>
        <time>2021-07-10T10:12:37Z</time>
      </trkpt>
      <trkpt lat="43.86116" lon="6.29596">
        <ele>1263.7</ele>
        <time>2021-07-10T10:12:40Z</time>
      </trkpt>
      <trkpt lat="43.86108" lon="6.296">
        <ele>1263.2</ele>
        <time>2021-07-10T10:12:43Z</time>
      </trkpt>
      <trkpt lat="43.861" lon="6.29604">
        <ele>1264.5</ele>
        <time>2021-07-10T10:12:46Z</time>
      </trkpt>
      <trkpt lat="43.86092" lon="6.29607">
        <ele>1264.8</ele>
        <time>2021-07-10T10:12:49Z</time>
      </trkpt>
      <trkpt lat="43.86083" lon="6.2961">
        <ele>1265.7</ele>
        <time>2021-07-10T10:12:52Z</time>
      </trkpt>
      <trkpt lat="43.86075" lon="6.29614">
        <ele>1265.2</ele>
        <time>2021-07-10T10:12:55Z</time>
      </trkpt>
      <trkpt lat="43.86068" lon="6.29615">
        <ele>1266.1</ele>
        <time>2021-07-10T10:12:58Z</time>
      </trkpt>
      <trkpt lat="43.86059" lon="6.29614">
        <ele>1266.8</ele>
        <time>2021-07-10T10:13:01Z</time>
      </trkpt>
      <trkpt lat="43.86051" lon="6.29612">
        <ele>1266.2</ele>
        <time>2021-07-10T10:13:04Z</time>
      </trkpt>
      <trkpt lat="43.86043" lon="6.29614">
        <ele>1267.5</ele>
        <time>2021-07-10T10:13:07Z</time>
      </trkpt>
      <trkpt lat="43.86041" lon="6.29626">
        <ele>1271</ele>
        <time>2021-07-10T10:13:10Z</time>
      </trkpt>
      <trkpt lat="43.86047" lon="6.29636">
        <ele>1271.2</ele>
        <time>2021-07-10T10:13:13Z</time>
      </trkpt>
      <trkpt lat="43.86055" lon="6.29638">
        <ele>1273.2</ele>
        <time>2021-07-10T10:13:16Z</time>
      </trkpt>
      <trkpt lat="43.86064" lon="6.29637">
        <ele>1275.4</ele>
        <time>2021-07-10T10:13:19Z</time>
      </trkpt>
      <trkpt lat="43.86073" lon="6.29636">
        <ele>1274.7</ele>
        <time>2021-07-10T10:13:22Z</time>
      </trkpt>
      <trkpt lat="43.86082" lon="6.29637">
        <ele>1277.2</ele>
        <time>2021-07-10T10:13:25Z</time>
      </trkpt>
      <trkpt lat="43.86091" lon="6.29637">
        <ele>1277.7</ele>
        <time>2021-07-10T10:13:28Z</time>
      </trkpt>
      <trkpt lat="43.86099" lon="6.29639">
        <ele>1279.3</ele>
        <time>2021-07-10T10:13:31Z</time>
      </trkpt>
      <trkpt lat="43.86107" lon="6.29641">
        <ele>1279.8</ele>
        <time>2021-07-10T10:13:34Z</time>
      </trkpt>
      <trkpt lat="43.86115" lon="6.29645">
        <ele>1281.7</ele>
        <time>2021-07-10T10:13:37Z</time>
      </trkpt>
      <trkpt lat="43.86122" lon="6.2965">
        <ele>1282.5</ele>
        <time>2021-07-10T10:13:40Z</time>
      </trkpt>
      <trkpt lat="43.86129" lon="6.29656">
        <ele>1283.7</ele>
        <time>2021-07-10T10:13:43Z</time>
      </trkpt>
      <trkpt lat="43.86136" lon="6.29665">
        <ele>1285</ele>
        <time>2021-07-10T10:13:46Z</time>
      </trkpt>
      <trkpt lat="43.86143" lon="6.29674">
        <ele>1284.4</ele>
        <time>2021-07-10T10:13:49Z</time>
      </trkpt>
      <trkpt lat="43.86149" lon="6.29681">
        <ele>1286.6</ele>
        <time>2021-07-10T10:13:52Z</time>
      </trkpt>
      <trkpt lat="43.86156" lon="6.29687">
        <ele>1287.7</ele>
        <time>2021-07-10T10:13:55Z</time>
      </trkpt>
      <trkpt lat="43.86163" lon="6.29693">
        <ele>1289</ele>
        <time>2021-07-10T10:13:58Z</time>
      </trkpt>
      <trkpt lat="43.86171" lon="6.29698">
        <ele>1291.9</ele>
        <time>2021-07-10T10:14:01Z</time>
      </trkpt>
      <trkpt lat="43.86178" lon="6.29702">
        <ele>1292.2</ele>
        <time>2021-07-10T10:14:04Z</time>
      </trkpt>
      <trkpt lat="43.86185" lon="6.29708">
        <ele>1294.5</ele>
        <time>2021-07-10T10:14:07Z</time>
      </trkpt>
      <trkpt lat="43.86192" lon="6.29715">
        <ele>1296.6</ele>
        <time>2021-07-10T10:14:10Z</time>
      </trkpt>
      <trkpt lat="43.86197" lon="6.29724">
        <ele>1296.3</ele>
        <time>2021-07-10T10:14:13Z</time>
      </trkpt>
      <trkpt lat="43.86203" lon="6.29735">
        <ele>1298</ele>
        <time>2021-07-10T10:14:16Z</time>
      </trkpt>
      <trkpt lat="43.86206" lon="6.29746">
        <ele>1297.2</ele>
        <time>2021-07-10T10:14:19Z</time>
      </trkpt>
      <trkpt lat="43.86207" lon="6.29758">
        <ele>1299.3</ele>
        <time>2021-07-10T10:14:22Z</time>
      </trkpt>
      <trkpt lat="43.86207" lon="6.2977">
        <ele>1299.1</ele>
        <time>2021-07-10T10:14:25Z</time>
      </trkpt>
      <trkpt lat="43.86207" lon="6.29782">
        <ele>1299.9</ele>
        <time>2021-07-10T10:14:28Z</time>
      </trkpt>
      <trkpt lat="43.86209" lon="6.29793">
        <ele>1301.2</ele>
        <time>2021-07-10T10:14:31Z</time>
      </trkpt>
      <trkpt lat="43.86212" lon="6.29805">
        <ele>1303.2</ele>
        <time>2021-07-10T10:14:35Z</time>
      </trkpt>
      <trkpt lat="43.8622" lon="6.29812">
        <ele>1305.8</ele>
        <time>2021-07-10T10:14:39Z</time>
      </trkpt>
      <trkpt lat="43.86227" lon="6.29817">
        <ele>1305.4</ele>
        <time>2021-07-10T10:14:42Z</time>
      </trkpt>
      <trkpt lat="43.86234" lon="6.29822">
        <ele>1307.1</ele>
        <time>2021-07-10T10:14:45Z</time>
      </trkpt>
      <trkpt lat="43.86241" lon="6.29827">
        <ele>1308</ele>
        <time>2021-07-10T10:14:48Z</time>
      </trkpt>
      <trkpt lat="43.86249" lon="6.29832">
        <ele>1310.9</ele>
        <time>2021-07-10T10:14:51Z</time>
      </trkpt>
      <trkpt lat="43.86257" lon="6.29841">
        <ele>1309.4</ele>
        <time>2021-07-10T10:14:54Z</time>
      </trkpt>
      <trkpt lat="43.86263" lon="6.2985">
        <ele>1309.9</ele>
        <time>2021-07-10T10:14:57Z</time>
      </trkpt>
      <trkpt lat="43.86268" lon="6.29856">
        <ele>1309.6</ele>
        <time>2021-07-10T10:14:59Z</time>
      </trkpt>
      <trkpt lat="43.86277" lon="6.2986">
        <ele>1310</ele>
        <time>2021-07-10T10:15:02Z</time>
      </trkpt>
      <trkpt lat="43.86286" lon="6.29855">
        <ele>1310.5</ele>
        <time>2021-07-10T10:15:05Z</time>
      </trkpt>
      <trkpt lat="43.86292" lon="6.29845">
        <ele>1310</ele>
        <time>2021-07-10T10:15:08Z</time>
      </trkpt>
      <trkpt lat="43.86293" lon="6.29834">
        <ele>1309.5</ele>
        <time>2021-07-10T10:15:11Z</time>
      </trkpt>
      <trkpt lat="43.86294" lon="6.29824">
        <ele>1309.2</ele>
        <time>2021-07-10T10:15:16Z</time>
      </trkpt>
      <trkpt lat="43.86294" lon="6.29812">
        <ele>1309.6</ele>
        <time>2021-07-10T10:15:20Z</time>
      </trkpt>
      <trkpt lat="43.86296" lon="6.29801">
        <ele>1310.8</ele>
        <time>2021-07-10T10:15:23Z</time>
      </trkpt>
      <trkpt lat="43.86301" lon="6.2979">
        <ele>1312.5</ele>
        <time>2021-07-10T10:15:26Z</time>
      </trkpt>
      <trkpt lat="43.86308" lon="6.29783">
        <ele>1312.6</ele>
        <time>2021-07-10T10:15:29Z</time>
      </trkpt>
      <trkpt lat="43.86316" lon="6.29777">
        <ele>1311.9</ele>
        <time>2021-07-10T10:15:32Z</time>
      </trkpt>
      <trkpt lat="43.86321" lon="6.29768">
        <ele>1313.7</ele>
        <time>2021-07-10T10:15:35Z</time>
      </trkpt>
      <trkpt lat="43.86326" lon="6.29758">
        <ele>1313.1</ele>
        <time>2021-07-10T10:15:38Z</time>
      </trkpt>
      <trkpt lat="43.86334" lon="6.29751">
        <ele>1314.7</ele>
        <time>2021-07-10T10:15:41Z</time>
      </trkpt>
      <trkpt lat="43.86343" lon="6.29745">
        <ele>1314.8</ele>
        <time>2021-07-10T10:15:44Z</time>
      </trkpt>
      <trkpt lat="43.86354" lon="6.29743">
        <ele>1313.9</ele>
        <time>2021-07-10T10:15:47Z</time>
      </trkpt>
      <trkpt lat="43.86364" lon="6.29744">
        <ele>1312</ele>
        <time>2021-07-10T10:15:50Z</time>
      </trkpt>
      <trkpt lat="43.86373" lon="6.29742">
        <ele>1312.6</ele>
        <time>2021-07-10T10:15:53Z</time>
      </trkpt>
      <trkpt lat="43.86381" lon="6.2974">
        <ele>1311.3</ele>
        <time>2021-07-10T10:15:56Z</time>
      </trkpt>
      <trkpt lat="43.86388" lon="6.29736">
        <ele>1312.4</ele>
        <time>2021-07-10T10:15:59Z</time>
      </trkpt>
      <trkpt lat="43.86397" lon="6.29732">
        <ele>1311.8</ele>
        <time>2021-07-10T10:16:03Z</time>
      </trkpt>
      <trkpt lat="43.86405" lon="6.29731">
        <ele>1312.2</ele>
        <time>2021-07-10T10:16:06Z</time>
      </trkpt>
      <trkpt lat="43.86414" lon="6.29733">
        <ele>1313.1</ele>
        <time>2021-07-10T10:16:09Z</time>
      </trkpt>
      <trkpt lat="43.86422" lon="6.29733">
        <ele>1316.9</ele>
        <time>2021-07-10T10:16:12Z</time>
      </trkpt>
      <trkpt lat="43.86429" lon="6.29729">
        <ele>1317.8</ele>
        <time>2021-07-10T10:16:15Z</time>
      </trkpt>
      <trkpt lat="43.86436" lon="6.29725">
        <ele>1316.7</ele>
        <time>2021-07-10T10:16:18Z</time>
      </trkpt>
      <trkpt lat="43.86444" lon="6.29722">
        <ele>1318.2</ele>
        <time>2021-07-10T10:16:21Z</time>
      </trkpt>
      <trkpt lat="43.86453" lon="6.2972">
        <ele>1317.7</ele>
        <time>2021-07-10T10:16:24Z</time>
      </trkpt>
      <trkpt lat="43.86461" lon="6.29715">
        <ele>1316.3</ele>
        <time>2021-07-10T10:16:27Z</time>
      </trkpt>
      <trkpt lat="43.86465" lon="6.29705">
        <ele>1317.5</ele>
        <time>2021-07-10T10:16:30Z</time>
      </trkpt>
      <trkpt lat="43.86466" lon="6.29695">
        <ele>1317.3</ele>
        <time>2021-07-10T10:16:33Z</time>
      </trkpt>
      <trkpt lat="43.86464" lon="6.29683">
        <ele>1315.8</ele>
        <time>2021-07-10T10:16:36Z</time>
      </trkpt>
      <trkpt lat="43.8646" lon="6.29672">
        <ele>1316.5</ele>
        <time>2021-07-10T10:16:39Z</time>
      </trkpt>
      <trkpt lat="43.86456" lon="6.29661">
        <ele>1318.1</ele>
        <time>2021-07-10T10:16:42Z</time>
      </trkpt>
      <trkpt lat="43.86453" lon="6.29649">
        <ele>1318.3</ele>
        <time>2021-07-10T10:16:45Z</time>
      </trkpt>
      <trkpt lat="43.86451" lon="6.29638">
        <ele>1318.6</ele>
        <time>2021-07-10T10:16:48Z</time>
      </trkpt>
      <trkpt lat="43.8645" lon="6.29626">
        <ele>1318.7</ele>
        <time>2021-07-10T10:16:52Z</time>
      </trkpt>
      <trkpt lat="43.86452" lon="6.29612">
        <ele>1318.3</ele>
        <time>2021-07-10T10:16:55Z</time>
      </trkpt>
      <trkpt lat="43.86454" lon="6.29598">
        <ele>1316.8</ele>
        <time>2021-07-10T10:16:58Z</time>
      </trkpt>
      <trkpt lat="43.86453" lon="6.29587">
        <ele>1317.5</ele>
        <time>2021-07-10T10:17:01Z</time>
      </trkpt>
      <trkpt lat="43.86449" lon="6.29578">
        <ele>1318.4</ele>
        <time>2021-07-10T10:17:04Z</time>
      </trkpt>
      <trkpt lat="43.86443" lon="6.29576">
        <ele>1323.2</ele>
        <time>2021-07-10T10:17:11Z</time>
      </trkpt>
      <trkpt lat="43.86442" lon="6.29566">
        <ele>1327.8</ele>
        <time>2021-07-10T10:17:18Z</time>
      </trkpt>
      <trkpt lat="43.8644" lon="6.29562">
        <ele>1331.1</ele>
        <time>2021-07-10T10:17:25Z</time>
      </trkpt>
      <trkpt lat="43.86442" lon="6.29569">
        <ele>1326.8</ele>
        <time>2021-07-10T10:17:34Z</time>
      </trkpt>
      <trkpt lat="43.86442" lon="6.29569">
        <ele>1326.4</ele>
        <time>2021-07-10T10:17:35Z</time>
      </trkpt>
      <trkpt lat="43.86442" lon="6.29569">
        <ele>1326.6</ele>
        <time>2021-07-10T10:17:44Z</time>
      </trkpt>
      <trkpt lat="43.86442" lon="6.29569">
        <ele>1326.7</ele>
        <time>2021-07-10T10:17:45Z</time>
      </trkpt>
      <trkpt lat="43.86441" lon="6.29569">
        <ele>1326.2</ele>
        <time>2021-07-10T10:18:04Z</time>
      </trkpt>
      <trkpt lat="43.86443" lon="6.29571">
        <ele>1329.3</ele>
        <time>2021-07-10T10:18:11Z</time>
      </trkpt>
      <trkpt lat="43.86442" lon="6.29571">
        <ele>1329.3</ele>
        <time>2021-07-10T10:18:13Z</time>
      </trkpt>
      <trkpt lat="43.86445" lon="6.29569">
        <ele>1330</ele>
        <time>2021-07-10T10:18:42Z</time>
      </trkpt>
      <trkpt lat="43.86445" lon="6.29569">
        <ele>1330</ele>
        <time>2021-07-10T10:18:43Z</time>
      </trkpt>
      <trkpt lat="43.86446" lon="6.29569">
        <ele>1330.3</ele>
        <time>2021-07-10T10:18:52Z</time>
      </trkpt>
      <trkpt lat="43.86446" lon="6.29569">
        <ele>1330.3</ele>
        <time>2021-07-10T10:18:53Z</time>
      </trkpt>
      <trkpt lat="43.86441" lon="6.29562">
        <ele>1327.6</ele>
        <time>2021-07-10T10:20:03Z</time>
      </trkpt>
      <trkpt lat="43.86437" lon="6.29552">
        <ele>1325.1</ele>
        <time>2021-07-10T10:20:06Z</time>
      </trkpt>
      <trkpt lat="43.86434" lon="6.2954">
        <ele>1323.2</ele>
        <time>2021-07-10T10:20:09Z</time>
      </trkpt>
      <trkpt lat="43.86433" lon="6.29527">
        <ele>1324.4</ele>
        <time>2021-07-10T10:20:12Z</time>
      </trkpt>
      <trkpt lat="43.86435" lon="6.29515">
        <ele>1323.4</ele>
        <time>2021-07-10T10:20:15Z</time>
      </trkpt>
      <trkpt lat="43.86441" lon="6.29507">
        <ele>1322.3</ele>
        <time>2021-07-10T10:20:18Z</time>
      </trkpt>
      <trkpt lat="43.86449" lon="6.29501">
        <ele>1320.7</ele>
        <time>2021-07-10T10:20:21Z</time>
      </trkpt>
      <trkpt lat="43.86457" lon="6.29499">
        <ele>1319.5</ele>
        <time>2021-07-10T10:20:24Z</time>
      </trkpt>
      <trkpt lat="43.86466" lon="6.29498">
        <ele>1320.8</ele>
        <time>2021-07-10T10:20:27Z</time>
      </trkpt>
      <trkpt lat="43.86476" lon="6.29497">
        <ele>1320</ele>
        <time>2021-07-10T10:20:30Z</time>
      </trkpt>
      <trkpt lat="43.86484" lon="6.29497">
        <ele>1324.1</ele>
        <time>2021-07-10T10:20:33Z</time>
      </trkpt>
      <trkpt lat="43.86492" lon="6.29496">
        <ele>1324.6</ele>
        <time>2021-07-10T10:20:36Z</time>
      </trkpt>
      <trkpt lat="43.865" lon="6.29496">
        <ele>1328.8</ele>
        <time>2021-07-10T10:20:39Z</time>
      </trkpt>
      <trkpt lat="43.8651" lon="6.29492">
        <ele>1332.9</ele>
        <time>2021-07-10T10:20:43Z</time>
      </trkpt>
      <trkpt lat="43.86517" lon="6.29491">
        <ele>1335</ele>
        <time>2021-07-10T10:20:46Z</time>
      </trkpt>
      <trkpt lat="43.86525" lon="6.2949">
        <ele>1336.7</ele>
        <time>2021-07-10T10:20:49Z</time>
      </trkpt>
      <trkpt lat="43.86535" lon="6.29492">
        <ele>1337.9</ele>
        <time>2021-07-10T10:20:52Z</time>
      </trkpt>
      <trkpt lat="43.86545" lon="6.29495">
        <ele>1338.4</ele>
        <time>2021-07-10T10:20:55Z</time>
      </trkpt>
      <trkpt lat="43.86555" lon="6.29496">
        <ele>1340.1</ele>
        <time>2021-07-10T10:20:58Z</time>
      </trkpt>
      <trkpt lat="43.86565" lon="6.29498">
        <ele>1340.7</ele>
        <time>2021-07-10T10:21:01Z</time>
      </trkpt>
      <trkpt lat="43.86573" lon="6.29502">
        <ele>1340.3</ele>
        <time>2021-07-10T10:21:03Z</time>
      </trkpt>
      <trkpt lat="43.8658" lon="6.29504">
        <ele>1340.9</ele>
        <time>2021-07-10T10:21:05Z</time>
      </trkpt>
      <trkpt lat="43.8659" lon="6.29507">
        <ele>1343.1</ele>
        <time>2021-07-10T10:21:08Z</time>
      </trkpt>
      <trkpt lat="43.86597" lon="6.29511">
        <ele>1343</ele>
        <time>2021-07-10T10:21:10Z</time>
      </trkpt>
      <trkpt lat="43.86604" lon="6.29517">
        <ele>1343.2</ele>
        <time>2021-07-10T10:21:12Z</time>
      </trkpt>
      <trkpt lat="43.86609" lon="6.29524">
        <ele>1341.5</ele>
        <time>2021-07-10T10:21:14Z</time>
      </trkpt>
      <trkpt lat="43.86613" lon="6.29532">
        <ele>1340.7</ele>
        <time>2021-07-10T10:21:16Z</time>
      </trkpt>
      <trkpt lat="43.86619" lon="6.29543">
        <ele>1339.1</ele>
        <time>2021-07-10T10:21:18Z</time>
      </trkpt>
      <trkpt lat="43.86623" lon="6.29553">
        <ele>1338.1</ele>
        <time>2021-07-10T10:21:20Z</time>
      </trkpt>
      <trkpt lat="43.86625" lon="6.29563">
        <ele>1339.2</ele>
        <time>2021-07-10T10:21:22Z</time>
      </trkpt>
      <trkpt lat="43.8663" lon="6.29572">
        <ele>1341.6</ele>
        <time>2021-07-10T10:21:25Z</time>
      </trkpt>
      <trkpt lat="43.86637" lon="6.29578">
        <ele>1341.1</ele>
        <time>2021-07-10T10:21:29Z</time>
      </trkpt>
      <trkpt lat="43.86645" lon="6.2958">
        <ele>1340.2</ele>
        <time>2021-07-10T10:21:32Z</time>
      </trkpt>
      <trkpt lat="43.86653" lon="6.2958">
        <ele>1340.9</ele>
        <time>2021-07-10T10:21:35Z</time>
      </trkpt>
      <trkpt lat="43.86661" lon="6.29578">
        <ele>1339.7</ele>
        <time>2021-07-10T10:21:38Z</time>
      </trkpt>
      <trkpt lat="43.8667" lon="6.29575">
        <ele>1338.3</ele>
        <time>2021-07-10T10:21:41Z</time>
      </trkpt>
      <trkpt lat="43.86679" lon="6.29571">
        <ele>1337.5</ele>
        <time>2021-07-10T10:21:44Z</time>
      </trkpt>
      <trkpt lat="43.86688" lon="6.29568">
        <ele>1337.1</ele>
        <time>2021-07-10T10:21:47Z</time>
      </trkpt>
      <trkpt lat="43.86696" lon="6.29565">
        <ele>1337.4</ele>
        <time>2021-07-10T10:21:50Z</time>
      </trkpt>
      <trkpt lat="43.86705" lon="6.29565">
        <ele>1338.4</ele>
        <time>2021-07-10T10:21:53Z</time>
      </trkpt>
      <trkpt lat="43.86714" lon="6.29565">
        <ele>1341</ele>
        <time>2021-07-10T10:21:56Z</time>
      </trkpt>
      <trkpt lat="43.86723" lon="6.29568">
        <ele>1342.4</ele>
        <time>2021-07-10T10:21:59Z</time>
      </trkpt>
      <trkpt lat="43.86733" lon="6.29571">
        <ele>1345.6</ele>
        <time>2021-07-10T10:22:02Z</time>
      </trkpt>
      <trkpt lat="43.86741" lon="6.29576">
        <ele>1347.4</ele>
        <time>2021-07-10T10:22:05Z</time>
      </trkpt>
      <trkpt lat="43.86748" lon="6.29579">
        <ele>1349.7</ele>
        <time>2021-07-10T10:22:08Z</time>
      </trkpt>
      <trkpt lat="43.86758" lon="6.2958">
        <ele>1350.8</ele>
        <time>2021-07-10T10:22:11Z</time>
      </trkpt>
      <trkpt lat="43.86766" lon="6.2958">
        <ele>1350.7</ele>
        <time>2021-07-10T10:22:13Z</time>
      </trkpt>
      <trkpt lat="43.86773" lon="6.29579">
        <ele>1350.4</ele>
        <time>2021-07-10T10:22:15Z</time>
      </trkpt>
      <trkpt lat="43.86782" lon="6.29572">
        <ele>1349.6</ele>
        <time>2021-07-10T10:22:18Z</time>
      </trkpt>
      <trkpt lat="43.86789" lon="6.29561">
        <ele>1349</ele>
        <time>2021-07-10T10:22:21Z</time>
      </trkpt>
      <trkpt lat="43.86796" lon="6.29552">
        <ele>1348</ele>
        <time>2021-07-10T10:22:24Z</time>
      </trkpt>
      <trkpt lat="43.86803" lon="6.29547">
        <ele>1347.4</ele>
        <time>2021-07-10T10:22:26Z</time>
      </trkpt>
      <trkpt lat="43.86811" lon="6.29546">
        <ele>1347.2</ele>
        <time>2021-07-10T10:22:28Z</time>
      </trkpt>
      <trkpt lat="43.86819" lon="6.29547">
        <ele>1347.5</ele>
        <time>2021-07-10T10:22:30Z</time>
      </trkpt>
      <trkpt lat="43.86826" lon="6.2955">
        <ele>1346.9</ele>
        <time>2021-07-10T10:22:32Z</time>
      </trkpt>
      <trkpt lat="43.86834" lon="6.29557">
        <ele>1346</ele>
        <time>2021-07-10T10:22:34Z</time>
      </trkpt>
      <trkpt lat="43.86841" lon="6.29565">
        <ele>1347</ele>
        <time>2021-07-10T10:22:36Z</time>
      </trkpt>
      <trkpt lat="43.86848" lon="6.29573">
        <ele>1347.9</ele>
        <time>2021-07-10T10:22:38Z</time>
      </trkpt>
      <trkpt lat="43.86856" lon="6.2958">
        <ele>1348.2</ele>
        <time>2021-07-10T10:22:40Z</time>
      </trkpt>
      <trkpt lat="43.86862" lon="6.29586">
        <ele>1348.1</ele>
        <time>2021-07-10T10:22:42Z</time>
      </trkpt>
      <trkpt lat="43.86867" lon="6.29595">
        <ele>1347.4</ele>
        <time>2021-07-10T10:22:44Z</time>
      </trkpt>
      <trkpt lat="43.86872" lon="6.29606">
        <ele>1348.8</ele>
        <time>2021-07-10T10:22:46Z</time>
      </trkpt>
      <trkpt lat="43.86878" lon="6.29617">
        <ele>1348.7</ele>
        <time>2021-07-10T10:22:48Z</time>
      </trkpt>
      <trkpt lat="43.86884" lon="6.29626">
        <ele>1349.7</ele>
        <time>2021-07-10T10:22:50Z</time>
      </trkpt>
      <trkpt lat="43.86891" lon="6.29635">
        <ele>1350.1</ele>
        <time>2021-07-10T10:22:52Z</time>
      </trkpt>
      <trkpt lat="43.86898" lon="6.29642">
        <ele>1350.5</ele>
        <time>2021-07-10T10:22:54Z</time>
      </trkpt>
      <trkpt lat="43.86906" lon="6.29646">
        <ele>1351.1</ele>
        <time>2021-07-10T10:22:56Z</time>
      </trkpt>
      <trkpt lat="43.86914" lon="6.29652">
        <ele>1352.2</ele>
        <time>2021-07-10T10:22:58Z</time>
      </trkpt>
      <trkpt lat="43.8692" lon="6.2966">
        <ele>1352.6</ele>
        <time>2021-07-10T10:23:00Z</time>
      </trkpt>
      <trkpt lat="43.86926" lon="6.29668">
        <ele>1352.8</ele>
        <time>2021-07-10T10:23:02Z</time>
      </trkpt>
      <trkpt lat="43.86931" lon="6.29678">
        <ele>1353</ele>
        <time>2021-07-10T10:23:04Z</time>
      </trkpt>
      <trkpt lat="43.86937" lon="6.29689">
        <ele>1352.4</ele>
        <time>2021-07-10T10:23:06Z</time>
      </trkpt>
      <trkpt lat="43.8694" lon="6.29699">
        <ele>1352.2</ele>
        <time>2021-07-10T10:23:08Z</time>
      </trkpt>
      <trkpt lat="43.86943" lon="6.2971">
        <ele>1351.8</ele>
        <time>2021-07-10T10:23:11Z</time>
      </trkpt>
      <trkpt lat="43.86948" lon="6.29718">
        <ele>1351.5</ele>
        <time>2021-07-10T10:23:13Z</time>
      </trkpt>
      <trkpt lat="43.86956" lon="6.29725">
        <ele>1348.4</ele>
        <time>2021-07-10T10:23:16Z</time>
      </trkpt>
      <trkpt lat="43.86964" lon="6.29721">
        <ele>1347.3</ele>
        <time>2021-07-10T10:23:19Z</time>
      </trkpt>
      <trkpt lat="43.86968" lon="6.29712">
        <ele>1345.9</ele>
        <time>2021-07-10T10:23:22Z</time>
      </trkpt>
      <trkpt lat="43.86971" lon="6.29702">
        <ele>1344.4</ele>
        <time>2021-07-10T10:23:25Z</time>
      </trkpt>
      <trkpt lat="43.86975" lon="6.2969">
        <ele>1344.2</ele>
        <time>2021-07-10T10:23:29Z</time>
      </trkpt>
      <trkpt lat="43.86982" lon="6.29682">
        <ele>1342.9</ele>
        <time>2021-07-10T10:23:33Z</time>
      </trkpt>
      <trkpt lat="43.86988" lon="6.29678">
        <ele>1343.3</ele>
        <time>2021-07-10T10:23:36Z</time>
      </trkpt>
      <trkpt lat="43.86997" lon="6.29676">
        <ele>1344.4</ele>
        <time>2021-07-10T10:23:40Z</time>
      </trkpt>
      <trkpt lat="43.87004" lon="6.29671">
        <ele>1346</ele>
        <time>2021-07-10T10:23:45Z</time>
      </trkpt>
      <trkpt lat="43.87011" lon="6.29665">
        <ele>1347.2</ele>
        <time>2021-07-10T10:23:50Z</time>
      </trkpt>
      <trkpt lat="43.87017" lon="6.29658">
        <ele>1348</ele>
        <time>2021-07-10T10:23:54Z</time>
      </trkpt>
      <trkpt lat="43.87024" lon="6.29651">
        <ele>1347.4</ele>
        <time>2021-07-10T10:23:58Z</time>
      </trkpt>
      <trkpt lat="43.87032" lon="6.29645">
        <ele>1347.3</ele>
        <time>2021-07-10T10:24:02Z</time>
      </trkpt>
      <trkpt lat="43.87039" lon="6.29639">
        <ele>1349.2</ele>
        <time>2021-07-10T10:24:06Z</time>
      </trkpt>
      <trkpt lat="43.87046" lon="6.29636">
        <ele>1348.9</ele>
        <time>2021-07-10T10:24:09Z</time>
      </trkpt>
      <trkpt lat="43.87054" lon="6.29635">
        <ele>1347.7</ele>
        <time>2021-07-10T10:24:12Z</time>
      </trkpt>
      <trkpt lat="43.87061" lon="6.29635">
        <ele>1348.3</ele>
        <time>2021-07-10T10:24:15Z</time>
      </trkpt>
      <trkpt lat="43.87069" lon="6.29636">
        <ele>1348.6</ele>
        <time>2021-07-10T10:24:18Z</time>
      </trkpt>
      <trkpt lat="43.87077" lon="6.29639">
        <ele>1351.4</ele>
        <time>2021-07-10T10:24:21Z</time>
      </trkpt>
      <trkpt lat="43.87085" lon="6.29639">
        <ele>1352.7</ele>
        <time>2021-07-10T10:24:24Z</time>
      </trkpt>
      <trkpt lat="43.87092" lon="6.29637">
        <ele>1353.7</ele>
        <time>2021-07-10T10:24:27Z</time>
      </trkpt>
      <trkpt lat="43.871" lon="6.29636">
        <ele>1353.7</ele>
        <time>2021-07-10T10:24:30Z</time>
      </trkpt>
      <trkpt lat="43.87108" lon="6.29633">
        <ele>1352</ele>
        <time>2021-07-10T10:24:33Z</time>
      </trkpt>
      <trkpt lat="43.87116" lon="6.2963">
        <ele>1351.5</ele>
        <time>2021-07-10T10:24:36Z</time>
      </trkpt>
      <trkpt lat="43.87126" lon="6.29628">
        <ele>1353.5</ele>
        <time>2021-07-10T10:24:40Z</time>
      </trkpt>
      <trkpt lat="43.87134" lon="6.29626">
        <ele>1357.8</ele>
        <time>2021-07-10T10:24:43Z</time>
      </trkpt>
      <trkpt lat="43.87145" lon="6.29623">
        <ele>1357.2</ele>
        <time>2021-07-10T10:24:46Z</time>
      </trkpt>
      <trkpt lat="43.87152" lon="6.2962">
        <ele>1357.4</ele>
        <time>2021-07-10T10:24:48Z</time>
      </trkpt>
      <trkpt lat="43.87161" lon="6.29617">
        <ele>1357.1</ele>
        <time>2021-07-10T10:24:51Z</time>
      </trkpt>
      <trkpt lat="43.8717" lon="6.29615">
        <ele>1359.9</ele>
        <time>2021-07-10T10:24:54Z</time>
      </trkpt>
      <trkpt lat="43.87179" lon="6.29618">
        <ele>1360.2</ele>
        <time>2021-07-10T10:24:57Z</time>
      </trkpt>
      <trkpt lat="43.87186" lon="6.29623">
        <ele>1361.3</ele>
        <time>2021-07-10T10:25:00Z</time>
      </trkpt>
      <trkpt lat="43.87194" lon="6.29632">
        <ele>1361.4</ele>
        <time>2021-07-10T10:25:03Z</time>
      </trkpt>
      <trkpt lat="43.87201" lon="6.29639">
        <ele>1362.7</ele>
        <time>2021-07-10T10:25:06Z</time>
      </trkpt>
      <trkpt lat="43.87208" lon="6.29649">
        <ele>1363.7</ele>
        <time>2021-07-10T10:25:09Z</time>
      </trkpt>
      <trkpt lat="43.87216" lon="6.29657">
        <ele>1363</ele>
        <time>2021-07-10T10:25:12Z</time>
      </trkpt>
      <trkpt lat="43.87224" lon="6.29662">
        <ele>1364.3</ele>
        <time>2021-07-10T10:25:15Z</time>
      </trkpt>
      <trkpt lat="43.87231" lon="6.29666">
        <ele>1364.4</ele>
        <time>2021-07-10T10:25:18Z</time>
      </trkpt>
      <trkpt lat="43.87239" lon="6.2967">
        <ele>1365.5</ele>
        <time>2021-07-10T10:25:21Z</time>
      </trkpt>
      <trkpt lat="43.87247" lon="6.2967">
        <ele>1367.6</ele>
        <time>2021-07-10T10:25:24Z</time>
      </trkpt>
      <trkpt lat="43.87254" lon="6.2967">
        <ele>1367.5</ele>
        <time>2021-07-10T10:25:27Z</time>
      </trkpt>
      <trkpt lat="43.87262" lon="6.29668">
        <ele>1367.5</ele>
        <time>2021-07-10T10:25:30Z</time>
      </trkpt>
      <trkpt lat="43.8727" lon="6.29664">
        <ele>1366.5</ele>
        <time>2021-07-10T10:25:33Z</time>
      </trkpt>
      <trkpt lat="43.87277" lon="6.29659">
        <ele>1368</ele>
        <time>2021-07-10T10:25:36Z</time>
      </trkpt>
      <trkpt lat="43.87283" lon="6.29654">
        <ele>1368.1</ele>
        <time>2021-07-10T10:25:39Z</time>
      </trkpt>
      <trkpt lat="43.8729" lon="6.29649">
        <ele>1367.3</ele>
        <time>2021-07-10T10:25:42Z</time>
      </trkpt>
      <trkpt lat="43.87298" lon="6.29641">
        <ele>1368.3</ele>
        <time>2021-07-10T10:25:46Z</time>
      </trkpt>
      <trkpt lat="43.87304" lon="6.29636">
        <ele>1367.4</ele>
        <time>2021-07-10T10:25:49Z</time>
      </trkpt>
      <trkpt lat="43.87313" lon="6.29632">
        <ele>1365.6</ele>
        <time>2021-07-10T10:25:53Z</time>
      </trkpt>
      <trkpt lat="43.8732" lon="6.29636">
        <ele>1364.3</ele>
        <time>2021-07-10T10:25:56Z</time>
      </trkpt>
      <trkpt lat="43.87321" lon="6.29649">
        <ele>1368.7</ele>
        <time>2021-07-10T10:25:59Z</time>
      </trkpt>
      <trkpt lat="43.87317" lon="6.29661">
        <ele>1367.9</ele>
        <time>2021-07-10T10:26:02Z</time>
      </trkpt>
      <trkpt lat="43.87313" lon="6.29672">
        <ele>1367.4</ele>
        <time>2021-07-10T10:26:05Z</time>
      </trkpt>
      <trkpt lat="43.87309" lon="6.29681">
        <ele>1369.6</ele>
        <time>2021-07-10T10:26:08Z</time>
      </trkpt>
      <trkpt lat="43.87305" lon="6.29689">
        <ele>1373.9</ele>
        <time>2021-07-10T10:26:13Z</time>
      </trkpt>
      <trkpt lat="43.87299" lon="6.297">
        <ele>1374.6</ele>
        <time>2021-07-10T10:26:18Z</time>
      </trkpt>
      <trkpt lat="43.87295" lon="6.29709">
        <ele>1373.8</ele>
        <time>2021-07-10T10:26:21Z</time>
      </trkpt>
      <trkpt lat="43.87289" lon="6.29718">
        <ele>1374</ele>
        <time>2021-07-10T10:26:24Z</time>
      </trkpt>
      <trkpt lat="43.87284" lon="6.29727">
        <ele>1373.2</ele>
        <time>2021-07-10T10:26:28Z</time>
      </trkpt>
      <trkpt lat="43.87278" lon="6.29734">
        <ele>1374.9</ele>
        <time>2021-07-10T10:26:32Z</time>
      </trkpt>
      <trkpt lat="43.87272" lon="6.29742">
        <ele>1375.5</ele>
        <time>2021-07-10T10:26:37Z</time>
      </trkpt>
      <trkpt lat="43.87265" lon="6.29749">
        <ele>1378.6</ele>
        <time>2021-07-10T10:26:42Z</time>
      </trkpt>
      <trkpt lat="43.87263" lon="6.29759">
        <ele>1378.2</ele>
        <time>2021-07-10T10:26:45Z</time>
      </trkpt>
      <trkpt lat="43.87261" lon="6.29771">
        <ele>1379.5</ele>
        <time>2021-07-10T10:26:48Z</time>
      </trkpt>
      <trkpt lat="43.87261" lon="6.29782">
        <ele>1382.9</ele>
        <time>2021-07-10T10:26:51Z</time>
      </trkpt>
      <trkpt lat="43.87266" lon="6.29789">
        <ele>1381.8</ele>
        <time>2021-07-10T10:26:55Z</time>
      </trkpt>
      <trkpt lat="43.87274" lon="6.29787">
        <ele>1380.8</ele>
        <time>2021-07-10T10:26:59Z</time>
      </trkpt>
      <trkpt lat="43.8728" lon="6.2978">
        <ele>1381.1</ele>
        <time>2021-07-10T10:27:03Z</time>
      </trkpt>
      <trkpt lat="43.87287" lon="6.29773">
        <ele>1384.2</ele>
        <time>2021-07-10T10:27:08Z</time>
      </trkpt>
      <trkpt lat="43.87294" lon="6.2977">
        <ele>1385.1</ele>
        <time>2021-07-10T10:27:12Z</time>
      </trkpt>
      <trkpt lat="43.87302" lon="6.29768">
        <ele>1387</ele>
        <time>2021-07-10T10:27:16Z</time>
      </trkpt>
      <trkpt lat="43.8731" lon="6.29766">
        <ele>1387.7</ele>
        <time>2021-07-10T10:27:20Z</time>
      </trkpt>
      <trkpt lat="43.87318" lon="6.29763">
        <ele>1388.3</ele>
        <time>2021-07-10T10:27:23Z</time>
      </trkpt>
      <trkpt lat="43.87326" lon="6.29758">
        <ele>1388.3</ele>
        <time>2021-07-10T10:27:27Z</time>
      </trkpt>
      <trkpt lat="43.87333" lon="6.29752">
        <ele>1387.9</ele>
        <time>2021-07-10T10:27:30Z</time>
      </trkpt>
      <trkpt lat="43.87339" lon="6.29746">
        <ele>1386.5</ele>
        <time>2021-07-10T10:27:33Z</time>
      </trkpt>
      <trkpt lat="43.87344" lon="6.2974">
        <ele>1386.3</ele>
        <time>2021-07-10T10:27:36Z</time>
      </trkpt>
      <trkpt lat="43.87352" lon="6.29736">
        <ele>1386.9</ele>
        <time>2021-07-10T10:27:40Z</time>
      </trkpt>
      <trkpt lat="43.87358" lon="6.29743">
        <ele>1388.9</ele>
        <time>2021-07-10T10:27:44Z</time>
      </trkpt>
      <trkpt lat="43.87358" lon="6.29755">
        <ele>1390</ele>
        <time>2021-07-10T10:27:48Z</time>
      </trkpt>
      <trkpt lat="43.87358" lon="6.29758">
        <ele>1392.8</ele>
        <time>2021-07-10T10:27:55Z</time>
      </trkpt>
      <trkpt lat="43.87358" lon="6.29758">
        <ele>1392.8</ele>
        <time>2021-07-10T10:27:57Z</time>
      </trkpt>
      <trkpt lat="43.87358" lon="6.29761">
        <ele>1390.5</ele>
        <time>2021-07-10T10:28:05Z</time>
      </trkpt>
      <trkpt lat="43.87358" lon="6.29761">
        <ele>1390</ele>
        <time>2021-07-10T10:28:07Z</time>
      </trkpt>
      <trkpt lat="43.87358" lon="6.29763">
        <ele>1391.5</ele>
        <time>2021-07-10T10:28:15Z</time>
      </trkpt>
      <trkpt lat="43.87358" lon="6.29763">
        <ele>1391.5</ele>
        <time>2021-07-10T10:28:16Z</time>
      </trkpt>
      <trkpt lat="43.87354" lon="6.29769">
        <ele>1390.6</ele>
        <time>2021-07-10T10:29:23Z</time>
      </trkpt>
      <trkpt lat="43.87349" lon="6.29778">
        <ele>1394.2</ele>
        <time>2021-07-10T10:29:28Z</time>
      </trkpt>
      <trkpt lat="43.87342" lon="6.29786">
        <ele>1396.6</ele>
        <time>2021-07-10T10:29:33Z</time>
      </trkpt>
      <trkpt lat="43.87335" lon="6.2979">
        <ele>1398.5</ele>
        <time>2021-07-10T10:29:38Z</time>
      </trkpt>
      <trkpt lat="43.87332" lon="6.29799">
        <ele>1399.9</ele>
        <time>2021-07-10T10:29:43Z</time>
      </trkpt>
      <trkpt lat="43.8733" lon="6.29809">
        <ele>1400.3</ele>
        <time>2021-07-10T10:29:47Z</time>
      </trkpt>
      <trkpt lat="43.87327" lon="6.29819">
        <ele>1401.4</ele>
        <time>2021-07-10T10:29:51Z</time>
      </trkpt>
      <trkpt lat="43.87323" lon="6.29828">
        <ele>1401.7</ele>
        <time>2021-07-10T10:29:55Z</time>
      </trkpt>
      <trkpt lat="43.87318" lon="6.29836">
        <ele>1400.8</ele>
        <time>2021-07-10T10:29:59Z</time>
      </trkpt>
      <trkpt lat="43.87312" lon="6.29844">
        <ele>1399.8</ele>
        <time>2021-07-10T10:30:02Z</time>
      </trkpt>
      <trkpt lat="43.87305" lon="6.2985">
        <ele>1399.7</ele>
        <time>2021-07-10T10:30:05Z</time>
      </trkpt>
      <trkpt lat="43.87299" lon="6.29857">
        <ele>1400.5</ele>
        <time>2021-07-10T10:30:08Z</time>
      </trkpt>
      <trkpt lat="43.87292" lon="6.29863">
        <ele>1400.8</ele>
        <time>2021-07-10T10:30:11Z</time>
      </trkpt>
      <trkpt lat="43.87286" lon="6.29867">
        <ele>1402.2</ele>
        <time>2021-07-10T10:30:14Z</time>
      </trkpt>
      <trkpt lat="43.87277" lon="6.29869">
        <ele>1401.6</ele>
        <time>2021-07-10T10:30:18Z</time>
      </trkpt>
      <trkpt lat="43.87268" lon="6.29869">
        <ele>1402.8</ele>
        <time>2021-07-10T10:30:22Z</time>
      </trkpt>
      <trkpt lat="43.8726" lon="6.29876">
        <ele>1404.7</ele>
        <time>2021-07-10T10:30:26Z</time>
      </trkpt>
      <trkpt lat="43.87254" lon="6.29885">
        <ele>1404.2</ele>
        <time>2021-07-10T10:30:30Z</time>
      </trkpt>
      <trkpt lat="43.87251" lon="6.29894">
        <ele>1405</ele>
        <time>2021-07-10T10:30:33Z</time>
      </trkpt>
      <trkpt lat="43.87247" lon="6.29905">
        <ele>1407.7</ele>
        <time>2021-07-10T10:30:37Z</time>
      </trkpt>
      <trkpt lat="43.8724" lon="6.29914">
        <ele>1407.5</ele>
        <time>2021-07-10T10:30:41Z</time>
      </trkpt>
      <trkpt lat="43.87233" lon="6.29921">
        <ele>1409.6</ele>
        <time>2021-07-10T10:30:45Z</time>
      </trkpt>
      <trkpt lat="43.87227" lon="6.29927">
        <ele>1409.3</ele>
        <time>2021-07-10T10:30:48Z</time>
      </trkpt>
      <trkpt lat="43.8722" lon="6.29932">
        <ele>1409.9</ele>
        <time>2021-07-10T10:30:51Z</time>
      </trkpt>
      <trkpt lat="43.87214" lon="6.29938">
        <ele>1411.3</ele>
        <time>2021-07-10T10:30:54Z</time>
      </trkpt>
      <trkpt lat="43.87207" lon="6.29942">
        <ele>1412</ele>
        <time>2021-07-10T10:30:57Z</time>
      </trkpt>
      <trkpt lat="43.87201" lon="6.29948">
        <ele>1412.6</ele>
        <time>2021-07-10T10:31:00Z</time>
      </trkpt>
      <trkpt lat="43.87194" lon="6.29952">
        <ele>1412.1</ele>
        <time>2021-07-10T10:31:03Z</time>
      </trkpt>
      <trkpt lat="43.87187" lon="6.29956">
        <ele>1412.9</ele>
        <time>2021-07-10T10:31:06Z</time>
      </trkpt>
      <trkpt lat="43.87179" lon="6.2996">
        <ele>1413.8</ele>
        <time>2021-07-10T10:31:09Z</time>
      </trkpt>
      <trkpt lat="43.8717" lon="6.29963">
        <ele>1414.2</ele>
        <time>2021-07-10T10:31:12Z</time>
      </trkpt>
      <trkpt lat="43.87161" lon="6.29968">
        <ele>1414.1</ele>
        <time>2021-07-10T10:31:15Z</time>
      </trkpt>
      <trkpt lat="43.87154" lon="6.29969">
        <ele>1415.5</ele>
        <time>2021-07-10T10:31:18Z</time>
      </trkpt>
      <trkpt lat="43.87147" lon="6.29969">
        <ele>1416</ele>
        <time>2021-07-10T10:31:21Z</time>
      </trkpt>
      <trkpt lat="43.87138" lon="6.2997">
        <ele>1418.6</ele>
        <time>2021-07-10T10:31:25Z</time>
      </trkpt>
      <trkpt lat="43.87132" lon="6.29977">
        <ele>1419.4</ele>
        <time>2021-07-10T10:31:29Z</time>
      </trkpt>
      <trkpt lat="43.87128" lon="6.29988">
        <ele>1421.9</ele>
        <time>2021-07-10T10:31:33Z</time>
      </trkpt>
      <trkpt lat="43.87122" lon="6.29995">
        <ele>1423.4</ele>
        <time>2021-07-10T10:31:37Z</time>
      </trkpt>
      <trkpt lat="43.87115" lon="6.30001">
        <ele>1424.1</ele>
        <time>2021-07-10T10:31:40Z</time>
      </trkpt>
      <trkpt lat="43.87108" lon="6.30008">
        <ele>1425.7</ele>
        <time>2021-07-10T10:31:44Z</time>
      </trkpt>
      <trkpt lat="43.87103" lon="6.30017">
        <ele>1426.8</ele>
        <time>2021-07-10T10:31:48Z</time>
      </trkpt>
      <trkpt lat="43.87101" lon="6.30027">
        <ele>1427.3</ele>
        <time>2021-07-10T10:31:51Z</time>
      </trkpt>
      <trkpt lat="43.871" lon="6.30037">
        <ele>1428.4</ele>
        <time>2021-07-10T10:31:54Z</time>
      </trkpt>
      <trkpt lat="43.871" lon="6.30049">
        <ele>1429.9</ele>
        <time>2021-07-10T10:31:58Z</time>
      </trkpt>
      <trkpt lat="43.871" lon="6.30061">
        <ele>1431.5</ele>
        <time>2021-07-10T10:32:02Z</time>
      </trkpt>
      <trkpt lat="43.871" lon="6.30072">
        <ele>1431.3</ele>
        <time>2021-07-10T10:32:06Z</time>
      </trkpt>
      <trkpt lat="43.87101" lon="6.30084">
        <ele>1432.6</ele>
        <time>2021-07-10T10:32:10Z</time>
      </trkpt>
      <trkpt lat="43.87103" lon="6.30094">
        <ele>1434.4</ele>
        <time>2021-07-10T10:32:14Z</time>
      </trkpt>
      <trkpt lat="43.87107" lon="6.30104">
        <ele>1433.5</ele>
        <time>2021-07-10T10:32:18Z</time>
      </trkpt>
      <trkpt lat="43.8711" lon="6.30116">
        <ele>1433.9</ele>
        <time>2021-07-10T10:32:22Z</time>
      </trkpt>
      <trkpt lat="43.87112" lon="6.30129">
        <ele>1435.3</ele>
        <time>2021-07-10T10:32:26Z</time>
      </trkpt>
      <trkpt lat="43.87111" lon="6.30138">
        <ele>1435.5</ele>
        <time>2021-07-10T10:32:29Z</time>
      </trkpt>
      <trkpt lat="43.87109" lon="6.30149">
        <ele>1436.2</ele>
        <time>2021-07-10T10:32:32Z</time>
      </trkpt>
      <trkpt lat="43.87102" lon="6.30157">
        <ele>1435.5</ele>
        <time>2021-07-10T10:32:36Z</time>
      </trkpt>
      <trkpt lat="43.87093" lon="6.30156">
        <ele>1438.3</ele>
        <time>2021-07-10T10:32:39Z</time>
      </trkpt>
      <trkpt lat="43.87087" lon="6.30151">
        <ele>1437.8</ele>
        <time>2021-07-10T10:32:42Z</time>
      </trkpt>
      <trkpt lat="43.8708" lon="6.30144">
        <ele>1437.5</ele>
        <time>2021-07-10T10:32:46Z</time>
      </trkpt>
      <trkpt lat="43.87072" lon="6.30141">
        <ele>1437.9</ele>
        <time>2021-07-10T10:32:50Z</time>
      </trkpt>
      <trkpt lat="43.87064" lon="6.30146">
        <ele>1437.4</ele>
        <time>2021-07-10T10:32:54Z</time>
      </trkpt>
      <trkpt lat="43.87055" lon="6.30151">
        <ele>1440</ele>
        <time>2021-07-10T10:32:58Z</time>
      </trkpt>
      <trkpt lat="43.87047" lon="6.30152">
        <ele>1441.8</ele>
        <time>2021-07-10T10:33:02Z</time>
      </trkpt>
      <trkpt lat="43.87039" lon="6.3015">
        <ele>1441.9</ele>
        <time>2021-07-10T10:33:07Z</time>
      </trkpt>
      <trkpt lat="43.87031" lon="6.3015">
        <ele>1443.8</ele>
        <time>2021-07-10T10:33:10Z</time>
      </trkpt>
      <trkpt lat="43.87023" lon="6.30151">
        <ele>1442.6</ele>
        <time>2021-07-10T10:33:13Z</time>
      </trkpt>
      <trkpt lat="43.87016" lon="6.3015">
        <ele>1442.9</ele>
        <time>2021-07-10T10:33:16Z</time>
      </trkpt>
      <trkpt lat="43.87007" lon="6.30149">
        <ele>1444.4</ele>
        <time>2021-07-10T10:33:20Z</time>
      </trkpt>
      <trkpt lat="43.86999" lon="6.30148">
        <ele>1447.1</ele>
        <time>2021-07-10T10:33:24Z</time>
      </trkpt>
      <trkpt lat="43.8699" lon="6.30146">
        <ele>1446.4</ele>
        <time>2021-07-10T10:33:28Z</time>
      </trkpt>
      <trkpt lat="43.8698" lon="6.30141">
        <ele>1446.4</ele>
        <time>2021-07-10T10:33:32Z</time>
      </trkpt>
      <trkpt lat="43.86972" lon="6.30139">
        <ele>1447.7</ele>
        <time>2021-07-10T10:33:35Z</time>
      </trkpt>
      <trkpt lat="43.86964" lon="6.30143">
        <ele>1451.7</ele>
        <time>2021-07-10T10:33:39Z</time>
      </trkpt>
      <trkpt lat="43.86957" lon="6.30149">
        <ele>1454</ele>
        <time>2021-07-10T10:33:43Z</time>
      </trkpt>
      <trkpt lat="43.8695" lon="6.30154">
        <ele>1455.3</ele>
        <time>2021-07-10T10:33:47Z</time>
      </trkpt>
      <trkpt lat="43.86941" lon="6.30158">
        <ele>1455.9</ele>
        <time>2021-07-10T10:33:51Z</time>
      </trkpt>
      <trkpt lat="43.86938" lon="6.3017">
        <ele>1458.8</ele>
        <time>2021-07-10T10:33:55Z</time>
      </trkpt>
      <trkpt lat="43.86946" lon="6.30176">
        <ele>1460.3</ele>
        <time>2021-07-10T10:33:59Z</time>
      </trkpt>
      <trkpt lat="43.86954" lon="6.30174">
        <ele>1461.2</ele>
        <time>2021-07-10T10:34:02Z</time>
      </trkpt>
      <trkpt lat="43.86962" lon="6.30176">
        <ele>1465.5</ele>
        <time>2021-07-10T10:34:07Z</time>
      </trkpt>
      <trkpt lat="43.8697" lon="6.3018">
        <ele>1466.3</ele>
        <time>2021-07-10T10:34:11Z</time>
      </trkpt>
      <trkpt lat="43.86977" lon="6.30185">
        <ele>1467.5</ele>
        <time>2021-07-10T10:34:15Z</time>
      </trkpt>
      <trkpt lat="43.86985" lon="6.30188">
        <ele>1468.5</ele>
        <time>2021-07-10T10:34:19Z</time>
      </trkpt>
      <trkpt lat="43.86993" lon="6.30191">
        <ele>1470.5</ele>
        <time>2021-07-10T10:34:23Z</time>
      </trkpt>
      <trkpt lat="43.87" lon="6.30188">
        <ele>1479.1</ele>
        <time>2021-07-10T10:34:30Z</time>
      </trkpt>
      <trkpt lat="43.87006" lon="6.30193">
        <ele>1478.9</ele>
        <time>2021-07-10T10:34:33Z</time>
      </trkpt>
      <trkpt lat="43.87007" lon="6.30203">
        <ele>1479.9</ele>
        <time>2021-07-10T10:34:36Z</time>
      </trkpt>
      <trkpt lat="43.86999" lon="6.30207">
        <ele>1480.5</ele>
        <time>2021-07-10T10:34:40Z</time>
      </trkpt>
      <trkpt lat="43.86991" lon="6.30209">
        <ele>1482.8</ele>
        <time>2021-07-10T10:34:46Z</time>
      </trkpt>
      <trkpt lat="43.86985" lon="6.30219">
        <ele>1484.9</ele>
        <time>2021-07-10T10:34:52Z</time>
      </trkpt>
      <trkpt lat="43.86978" lon="6.30227">
        <ele>1486.5</ele>
        <time>2021-07-10T10:34:55Z</time>
      </trkpt>
      <trkpt lat="43.86971" lon="6.30232">
        <ele>1489.6</ele>
        <time>2021-07-10T10:34:59Z</time>
      </trkpt>
      <trkpt lat="43.86965" lon="6.3024">
        <ele>1490.5</ele>
        <time>2021-07-10T10:35:04Z</time>
      </trkpt>
      <trkpt lat="43.86959" lon="6.30247">
        <ele>1491.8</ele>
        <time>2021-07-10T10:35:07Z</time>
      </trkpt>
      <trkpt lat="43.86953" lon="6.30255">
        <ele>1493.4</ele>
        <time>2021-07-10T10:35:11Z</time>
      </trkpt>
      <trkpt lat="43.86946" lon="6.30261">
        <ele>1490.5</ele>
        <time>2021-07-10T10:35:14Z</time>
      </trkpt>
      <trkpt lat="43.86937" lon="6.30262">
        <ele>1491.7</ele>
        <time>2021-07-10T10:35:18Z</time>
      </trkpt>
      <trkpt lat="43.86928" lon="6.30265">
        <ele>1491.8</ele>
        <time>2021-07-10T10:35:22Z</time>
      </trkpt>
      <trkpt lat="43.86919" lon="6.3027">
        <ele>1491.2</ele>
        <time>2021-07-10T10:35:26Z</time>
      </trkpt>
      <trkpt lat="43.86911" lon="6.30273">
        <ele>1491.8</ele>
        <time>2021-07-10T10:35:30Z</time>
      </trkpt>
      <trkpt lat="43.86903" lon="6.30274">
        <ele>1492.4</ele>
        <time>2021-07-10T10:35:33Z</time>
      </trkpt>
      <trkpt lat="43.86895" lon="6.30274">
        <ele>1494</ele>
        <time>2021-07-10T10:35:37Z</time>
      </trkpt>
      <trkpt lat="43.86887" lon="6.30281">
        <ele>1492.6</ele>
        <time>2021-07-10T10:35:41Z</time>
      </trkpt>
      <trkpt lat="43.86881" lon="6.30291">
        <ele>1493.9</ele>
        <time>2021-07-10T10:35:45Z</time>
      </trkpt>
      <trkpt lat="43.86877" lon="6.30301">
        <ele>1496.6</ele>
        <time>2021-07-10T10:35:49Z</time>
      </trkpt>
      <trkpt lat="43.86873" lon="6.30313">
        <ele>1497.8</ele>
        <time>2021-07-10T10:35:53Z</time>
      </trkpt>
      <trkpt lat="43.86869" lon="6.30324">
        <ele>1497.9</ele>
        <time>2021-07-10T10:35:57Z</time>
      </trkpt>
      <trkpt lat="43.86863" lon="6.30333">
        <ele>1498.5</ele>
        <time>2021-07-10T10:36:01Z</time>
      </trkpt>
      <trkpt lat="43.86854" lon="6.30338">
        <ele>1501.2</ele>
        <time>2021-07-10T10:36:05Z</time>
      </trkpt>
      <trkpt lat="43.86847" lon="6.30345">
        <ele>1501.8</ele>
        <time>2021-07-10T10:36:09Z</time>
      </trkpt>
      <trkpt lat="43.86838" lon="6.3035">
        <ele>1501.8</ele>
        <time>2021-07-10T10:36:13Z</time>
      </trkpt>
      <trkpt lat="43.86829" lon="6.30354">
        <ele>1501.9</ele>
        <time>2021-07-10T10:36:17Z</time>
      </trkpt>
      <trkpt lat="43.86821" lon="6.30353">
        <ele>1501.6</ele>
        <time>2021-07-10T10:36:20Z</time>
      </trkpt>
      <trkpt lat="43.86813" lon="6.30354">
        <ele>1502.4</ele>
        <time>2021-07-10T10:36:24Z</time>
      </trkpt>
      <trkpt lat="43.86807" lon="6.30361">
        <ele>1504.3</ele>
        <time>2021-07-10T10:36:28Z</time>
      </trkpt>
      <trkpt lat="43.86802" lon="6.30371">
        <ele>1507.5</ele>
        <time>2021-07-10T10:36:32Z</time>
      </trkpt>
      <trkpt lat="43.86798" lon="6.30382">
        <ele>1508.8</ele>
        <time>2021-07-10T10:36:36Z</time>
      </trkpt>
      <trkpt lat="43.86793" lon="6.30389">
        <ele>1509.5</ele>
        <time>2021-07-10T10:36:39Z</time>
      </trkpt>
      <trkpt lat="43.86788" lon="6.30396">
        <ele>1509.9</ele>
        <time>2021-07-10T10:36:42Z</time>
      </trkpt>
      <trkpt lat="43.8678" lon="6.30403">
        <ele>1510.7</ele>
        <time>2021-07-10T10:36:46Z</time>
      </trkpt>
      <trkpt lat="43.86772" lon="6.30408">
        <ele>1510.4</ele>
        <time>2021-07-10T10:36:50Z</time>
      </trkpt>
      <trkpt lat="43.86765" lon="6.30414">
        <ele>1509.8</ele>
        <time>2021-07-10T10:36:53Z</time>
      </trkpt>
      <trkpt lat="43.86758" lon="6.30419">
        <ele>1510.9</ele>
        <time>2021-07-10T10:36:56Z</time>
      </trkpt>
      <trkpt lat="43.8675" lon="6.30424">
        <ele>1510.6</ele>
        <time>2021-07-10T10:37:00Z</time>
      </trkpt>
      <trkpt lat="43.86743" lon="6.30428">
        <ele>1509.5</ele>
        <time>2021-07-10T10:37:03Z</time>
      </trkpt>
      <trkpt lat="43.86737" lon="6.30433">
        <ele>1509.8</ele>
        <time>2021-07-10T10:37:06Z</time>
      </trkpt>
      <trkpt lat="43.8673" lon="6.30441">
        <ele>1510.6</ele>
        <time>2021-07-10T10:37:10Z</time>
      </trkpt>
      <trkpt lat="43.86724" lon="6.30446">
        <ele>1512</ele>
        <time>2021-07-10T10:37:13Z</time>
      </trkpt>
      <trkpt lat="43.86717" lon="6.3045">
        <ele>1512.5</ele>
        <time>2021-07-10T10:37:16Z</time>
      </trkpt>
      <trkpt lat="43.86709" lon="6.30453">
        <ele>1512.4</ele>
        <time>2021-07-10T10:37:19Z</time>
      </trkpt>
      <trkpt lat="43.86701" lon="6.30451">
        <ele>1512</ele>
        <time>2021-07-10T10:37:22Z</time>
      </trkpt>
      <trkpt lat="43.86694" lon="6.30449">
        <ele>1512.4</ele>
        <time>2021-07-10T10:37:25Z</time>
      </trkpt>
      <trkpt lat="43.86686" lon="6.30447">
        <ele>1510.6</ele>
        <time>2021-07-10T10:37:28Z</time>
      </trkpt>
      <trkpt lat="43.86677" lon="6.30446">
        <ele>1509.8</ele>
        <time>2021-07-10T10:37:32Z</time>
      </trkpt>
      <trkpt lat="43.8667" lon="6.30451">
        <ele>1512</ele>
        <time>2021-07-10T10:37:36Z</time>
      </trkpt>
      <trkpt lat="43.86664" lon="6.3046">
        <ele>1514.9</ele>
        <time>2021-07-10T10:37:41Z</time>
      </trkpt>
      <trkpt lat="43.86658" lon="6.30469">
        <ele>1517.5</ele>
        <time>2021-07-10T10:37:45Z</time>
      </trkpt>
      <trkpt lat="43.86652" lon="6.30477">
        <ele>1518.2</ele>
        <time>2021-07-10T10:37:49Z</time>
      </trkpt>
      <trkpt lat="43.86645" lon="6.30484">
        <ele>1519</ele>
        <time>2021-07-10T10:37:54Z</time>
      </trkpt>
      <trkpt lat="43.86636" lon="6.30487">
        <ele>1519.3</ele>
        <time>2021-07-10T10:37:58Z</time>
      </trkpt>
      <trkpt lat="43.86628" lon="6.30492">
        <ele>1519.6</ele>
        <time>2021-07-10T10:38:02Z</time>
      </trkpt>
      <trkpt lat="43.86621" lon="6.305">
        <ele>1522.4</ele>
        <time>2021-07-10T10:38:06Z</time>
      </trkpt>
      <trkpt lat="43.86616" lon="6.30511">
        <ele>1523.8</ele>
        <time>2021-07-10T10:38:10Z</time>
      </trkpt>
      <trkpt lat="43.86611" lon="6.30522">
        <ele>1525.6</ele>
        <time>2021-07-10T10:38:14Z</time>
      </trkpt>
      <trkpt lat="43.86606" lon="6.30531">
        <ele>1526</ele>
        <time>2021-07-10T10:38:17Z</time>
      </trkpt>
      <trkpt lat="43.86603" lon="6.30543">
        <ele>1527.1</ele>
        <time>2021-07-10T10:38:21Z</time>
      </trkpt>
      <trkpt lat="43.86603" lon="6.30554">
        <ele>1528</ele>
        <time>2021-07-10T10:38:25Z</time>
      </trkpt>
      <trkpt lat="43.86604" lon="6.30566">
        <ele>1529.6</ele>
        <time>2021-07-10T10:38:29Z</time>
      </trkpt>
      <trkpt lat="43.86605" lon="6.30578">
        <ele>1530.3</ele>
        <time>2021-07-10T10:38:33Z</time>
      </trkpt>
      <trkpt lat="43.86602" lon="6.30589">
        <ele>1531</ele>
        <time>2021-07-10T10:38:37Z</time>
      </trkpt>
      <trkpt lat="43.86598" lon="6.30599">
        <ele>1530.7</ele>
        <time>2021-07-10T10:38:40Z</time>
      </trkpt>
      <trkpt lat="43.86592" lon="6.30608">
        <ele>1532</ele>
        <time>2021-07-10T10:38:43Z</time>
      </trkpt>
      <trkpt lat="43.86584" lon="6.30615">
        <ele>1535.2</ele>
        <time>2021-07-10T10:38:47Z</time>
      </trkpt>
      <trkpt lat="43.86578" lon="6.3062">
        <ele>1537.4</ele>
        <time>2021-07-10T10:38:51Z</time>
      </trkpt>
      <trkpt lat="43.8657" lon="6.30627">
        <ele>1538.4</ele>
        <time>2021-07-10T10:38:56Z</time>
      </trkpt>
      <trkpt lat="43.86563" lon="6.30632">
        <ele>1536.8</ele>
        <time>2021-07-10T10:38:59Z</time>
      </trkpt>
      <trkpt lat="43.86556" lon="6.30636">
        <ele>1537.2</ele>
        <time>2021-07-10T10:39:02Z</time>
      </trkpt>
      <trkpt lat="43.86548" lon="6.30639">
        <ele>1542.9</ele>
        <time>2021-07-10T10:39:06Z</time>
      </trkpt>
      <trkpt lat="43.8654" lon="6.30643">
        <ele>1543.2</ele>
        <time>2021-07-10T10:39:10Z</time>
      </trkpt>
      <trkpt lat="43.86531" lon="6.30646">
        <ele>1544.1</ele>
        <time>2021-07-10T10:39:14Z</time>
      </trkpt>
      <trkpt lat="43.86522" lon="6.30646">
        <ele>1543.1</ele>
        <time>2021-07-10T10:39:18Z</time>
      </trkpt>
      <trkpt lat="43.86514" lon="6.30646">
        <ele>1544.7</ele>
        <time>2021-07-10T10:39:22Z</time>
      </trkpt>
      <trkpt lat="43.86506" lon="6.30653">
        <ele>1545.7</ele>
        <time>2021-07-10T10:39:27Z</time>
      </trkpt>
      <trkpt lat="43.86502" lon="6.30662">
        <ele>1547.3</ele>
        <time>2021-07-10T10:39:30Z</time>
      </trkpt>
      <trkpt lat="43.86502" lon="6.30672">
        <ele>1548</ele>
        <time>2021-07-10T10:39:33Z</time>
      </trkpt>
      <trkpt lat="43.86499" lon="6.30684">
        <ele>1547.3</ele>
        <time>2021-07-10T10:39:37Z</time>
      </trkpt>
      <trkpt lat="43.86495" lon="6.30694">
        <ele>1546.3</ele>
        <time>2021-07-10T10:39:40Z</time>
      </trkpt>
      <trkpt lat="43.86492" lon="6.30705">
        <ele>1545.7</ele>
        <time>2021-07-10T10:39:43Z</time>
      </trkpt>
      <trkpt lat="43.86487" lon="6.30713">
        <ele>1547.3</ele>
        <time>2021-07-10T10:39:46Z</time>
      </trkpt>
      <trkpt lat="43.86481" lon="6.3072">
        <ele>1545.8</ele>
        <time>2021-07-10T10:39:49Z</time>
      </trkpt>
      <trkpt lat="43.86473" lon="6.30723">
        <ele>1547.4</ele>
        <time>2021-07-10T10:39:53Z</time>
      </trkpt>
      <trkpt lat="43.86464" lon="6.30723">
        <ele>1547</ele>
        <time>2021-07-10T10:39:57Z</time>
      </trkpt>
      <trkpt lat="43.86456" lon="6.30725">
        <ele>1549.4</ele>
        <time>2021-07-10T10:40:01Z</time>
      </trkpt>
      <trkpt lat="43.86449" lon="6.30732">
        <ele>1549.9</ele>
        <time>2021-07-10T10:40:05Z</time>
      </trkpt>
      <trkpt lat="43.86442" lon="6.30737">
        <ele>1551.2</ele>
        <time>2021-07-10T10:40:09Z</time>
      </trkpt>
      <trkpt lat="43.86433" lon="6.30739">
        <ele>1552.2</ele>
        <time>2021-07-10T10:40:13Z</time>
      </trkpt>
      <trkpt lat="43.86425" lon="6.30745">
        <ele>1552.3</ele>
        <time>2021-07-10T10:40:18Z</time>
      </trkpt>
      <trkpt lat="43.86419" lon="6.30751">
        <ele>1554.6</ele>
        <time>2021-07-10T10:40:21Z</time>
      </trkpt>
      <trkpt lat="43.86413" lon="6.30757">
        <ele>1555</ele>
        <time>2021-07-10T10:40:24Z</time>
      </trkpt>
      <trkpt lat="43.86406" lon="6.30758">
        <ele>1555.4</ele>
        <time>2021-07-10T10:40:27Z</time>
      </trkpt>
      <trkpt lat="43.86396" lon="6.30758">
        <ele>1556.2</ele>
        <time>2021-07-10T10:40:31Z</time>
      </trkpt>
      <trkpt lat="43.86389" lon="6.30758">
        <ele>1556.9</ele>
        <time>2021-07-10T10:40:34Z</time>
      </trkpt>
      <trkpt lat="43.86381" lon="6.30757">
        <ele>1555.3</ele>
        <time>2021-07-10T10:40:37Z</time>
      </trkpt>
      <trkpt lat="43.86373" lon="6.30757">
        <ele>1554.3</ele>
        <time>2021-07-10T10:40:40Z</time>
      </trkpt>
      <trkpt lat="43.86365" lon="6.30758">
        <ele>1553.7</ele>
        <time>2021-07-10T10:40:43Z</time>
      </trkpt>
      <trkpt lat="43.86357" lon="6.30758">
        <ele>1554.3</ele>
        <time>2021-07-10T10:40:46Z</time>
      </trkpt>
      <trkpt lat="43.8635" lon="6.30759">
        <ele>1553.8</ele>
        <time>2021-07-10T10:40:49Z</time>
      </trkpt>
      <trkpt lat="43.8634" lon="6.3076">
        <ele>1552.6</ele>
        <time>2021-07-10T10:40:53Z</time>
      </trkpt>
      <trkpt lat="43.86333" lon="6.3076">
        <ele>1551.7</ele>
        <time>2021-07-10T10:40:56Z</time>
      </trkpt>
      <trkpt lat="43.86325" lon="6.3076">
        <ele>1550</ele>
        <time>2021-07-10T10:40:59Z</time>
      </trkpt>
      <trkpt lat="43.86317" lon="6.30762">
        <ele>1550.9</ele>
        <time>2021-07-10T10:41:02Z</time>
      </trkpt>
      <trkpt lat="43.86309" lon="6.30765">
        <ele>1551.6</ele>
        <time>2021-07-10T10:41:05Z</time>
      </trkpt>
      <trkpt lat="43.86302" lon="6.30769">
        <ele>1552.9</ele>
        <time>2021-07-10T10:41:08Z</time>
      </trkpt>
      <trkpt lat="43.86296" lon="6.30773">
        <ele>1554</ele>
        <time>2021-07-10T10:41:11Z</time>
      </trkpt>
      <trkpt lat="43.86288" lon="6.30778">
        <ele>1557.1</ele>
        <time>2021-07-10T10:41:14Z</time>
      </trkpt>
      <trkpt lat="43.86279" lon="6.30784">
        <ele>1557.9</ele>
        <time>2021-07-10T10:41:17Z</time>
      </trkpt>
      <trkpt lat="43.86271" lon="6.30789">
        <ele>1558.5</ele>
        <time>2021-07-10T10:41:20Z</time>
      </trkpt>
      <trkpt lat="43.86263" lon="6.30799">
        <ele>1558</ele>
        <time>2021-07-10T10:41:23Z</time>
      </trkpt>
      <trkpt lat="43.86259" lon="6.30806">
        <ele>1558.1</ele>
        <time>2021-07-10T10:41:25Z</time>
      </trkpt>
      <trkpt lat="43.86254" lon="6.30819">
        <ele>1558.5</ele>
        <time>2021-07-10T10:41:28Z</time>
      </trkpt>
      <trkpt lat="43.86251" lon="6.3083">
        <ele>1559.1</ele>
        <time>2021-07-10T10:41:31Z</time>
      </trkpt>
      <trkpt lat="43.86247" lon="6.30842">
        <ele>1557.8</ele>
        <time>2021-07-10T10:41:34Z</time>
      </trkpt>
      <trkpt lat="43.86243" lon="6.30852">
        <ele>1558.6</ele>
        <time>2021-07-10T10:41:37Z</time>
      </trkpt>
      <trkpt lat="43.86238" lon="6.30861">
        <ele>1559</ele>
        <time>2021-07-10T10:41:40Z</time>
      </trkpt>
      <trkpt lat="43.86231" lon="6.30869">
        <ele>1558.2</ele>
        <time>2021-07-10T10:41:43Z</time>
      </trkpt>
      <trkpt lat="43.86222" lon="6.30878">
        <ele>1556.6</ele>
        <time>2021-07-10T10:41:46Z</time>
      </trkpt>
      <trkpt lat="43.86214" lon="6.30886">
        <ele>1555.5</ele>
        <time>2021-07-10T10:41:49Z</time>
      </trkpt>
      <trkpt lat="43.86207" lon="6.30893">
        <ele>1556.1</ele>
        <time>2021-07-10T10:41:52Z</time>
      </trkpt>
      <trkpt lat="43.862" lon="6.30901">
        <ele>1556.8</ele>
        <time>2021-07-10T10:41:55Z</time>
      </trkpt>
      <trkpt lat="43.86192" lon="6.30908">
        <ele>1557.1</ele>
        <time>2021-07-10T10:41:58Z</time>
      </trkpt>
      <trkpt lat="43.86182" lon="6.30913">
        <ele>1558.9</ele>
        <time>2021-07-10T10:42:01Z</time>
      </trkpt>
      <trkpt lat="43.86175" lon="6.30917">
        <ele>1558.9</ele>
        <time>2021-07-10T10:42:03Z</time>
      </trkpt>
      <trkpt lat="43.86168" lon="6.30922">
        <ele>1558.6</ele>
        <time>2021-07-10T10:42:05Z</time>
      </trkpt>
      <trkpt lat="43.86162" lon="6.30929">
        <ele>1557.5</ele>
        <time>2021-07-10T10:42:07Z</time>
      </trkpt>
      <trkpt lat="43.86154" lon="6.30939">
        <ele>1556.6</ele>
        <time>2021-07-10T10:42:09Z</time>
      </trkpt>
      <trkpt lat="43.86148" lon="6.30945">
        <ele>1556.4</ele>
        <time>2021-07-10T10:42:11Z</time>
      </trkpt>
      <trkpt lat="43.86141" lon="6.30953">
        <ele>1556.9</ele>
        <time>2021-07-10T10:42:15Z</time>
      </trkpt>
      <trkpt lat="43.86135" lon="6.30961">
        <ele>1556.5</ele>
        <time>2021-07-10T10:42:18Z</time>
      </trkpt>
      <trkpt lat="43.86127" lon="6.30968">
        <ele>1556.5</ele>
        <time>2021-07-10T10:42:21Z</time>
      </trkpt>
      <trkpt lat="43.86118" lon="6.30974">
        <ele>1556</ele>
        <time>2021-07-10T10:42:24Z</time>
      </trkpt>
      <trkpt lat="43.8611" lon="6.30977">
        <ele>1556.1</ele>
        <time>2021-07-10T10:42:27Z</time>
      </trkpt>
      <trkpt lat="43.86101" lon="6.30978">
        <ele>1553.9</ele>
        <time>2021-07-10T10:42:31Z</time>
      </trkpt>
      <trkpt lat="43.86093" lon="6.3098">
        <ele>1554.3</ele>
        <time>2021-07-10T10:42:34Z</time>
      </trkpt>
      <trkpt lat="43.86084" lon="6.30981">
        <ele>1552.3</ele>
        <time>2021-07-10T10:42:38Z</time>
      </trkpt>
      <trkpt lat="43.86077" lon="6.30983">
        <ele>1554.8</ele>
        <time>2021-07-10T10:42:41Z</time>
      </trkpt>
      <trkpt lat="43.8607" lon="6.30986">
        <ele>1556.9</ele>
        <time>2021-07-10T10:42:44Z</time>
      </trkpt>
      <trkpt lat="43.86063" lon="6.30993">
        <ele>1559.2</ele>
        <time>2021-07-10T10:42:48Z</time>
      </trkpt>
      <trkpt lat="43.86055" lon="6.30996">
        <ele>1559.8</ele>
        <time>2021-07-10T10:42:51Z</time>
      </trkpt>
      <trkpt lat="43.86047" lon="6.30999">
        <ele>1560.4</ele>
        <time>2021-07-10T10:42:54Z</time>
      </trkpt>
      <trkpt lat="43.86037" lon="6.31002">
        <ele>1560.5</ele>
        <time>2021-07-10T10:42:57Z</time>
      </trkpt>
      <trkpt lat="43.86028" lon="6.31007">
        <ele>1560.1</ele>
        <time>2021-07-10T10:43:00Z</time>
      </trkpt>
      <trkpt lat="43.86022" lon="6.31012">
        <ele>1560.2</ele>
        <time>2021-07-10T10:43:02Z</time>
      </trkpt>
      <trkpt lat="43.86013" lon="6.3102">
        <ele>1560.4</ele>
        <time>2021-07-10T10:43:05Z</time>
      </trkpt>
      <trkpt lat="43.86005" lon="6.31024">
        <ele>1560.5</ele>
        <time>2021-07-10T10:43:08Z</time>
      </trkpt>
      <trkpt lat="43.85997" lon="6.31027">
        <ele>1561.3</ele>
        <time>2021-07-10T10:43:11Z</time>
      </trkpt>
      <trkpt lat="43.85987" lon="6.31028">
        <ele>1561</ele>
        <time>2021-07-10T10:43:14Z</time>
      </trkpt>
      <trkpt lat="43.85979" lon="6.31028">
        <ele>1560.3</ele>
        <time>2021-07-10T10:43:16Z</time>
      </trkpt>
      <trkpt lat="43.85971" lon="6.31029">
        <ele>1559.6</ele>
        <time>2021-07-10T10:43:18Z</time>
      </trkpt>
      <trkpt lat="43.85963" lon="6.3103">
        <ele>1559.6</ele>
        <time>2021-07-10T10:43:20Z</time>
      </trkpt>
      <trkpt lat="43.85955" lon="6.31033">
        <ele>1559.6</ele>
        <time>2021-07-10T10:43:22Z</time>
      </trkpt>
      <trkpt lat="43.85947" lon="6.31037">
        <ele>1559.3</ele>
        <time>2021-07-10T10:43:23Z</time>
      </trkpt>
      <trkpt lat="43.85934" lon="6.31045">
        <ele>1559.6</ele>
        <time>2021-07-10T10:43:25Z</time>
      </trkpt>
      <trkpt lat="43.85927" lon="6.31051">
        <ele>1559.6</ele>
        <time>2021-07-10T10:43:26Z</time>
      </trkpt>
      <trkpt lat="43.85918" lon="6.31063">
        <ele>1560.1</ele>
        <time>2021-07-10T10:43:28Z</time>
      </trkpt>
      <trkpt lat="43.85912" lon="6.31074">
        <ele>1559.9</ele>
        <time>2021-07-10T10:43:30Z</time>
      </trkpt>
      <trkpt lat="43.85907" lon="6.31085">
        <ele>1558.3</ele>
        <time>2021-07-10T10:43:32Z</time>
      </trkpt>
      <trkpt lat="43.85907" lon="6.31098">
        <ele>1559.5</ele>
        <time>2021-07-10T10:43:35Z</time>
      </trkpt>
      <trkpt lat="43.85906" lon="6.3111">
        <ele>1560.4</ele>
        <time>2021-07-10T10:43:39Z</time>
      </trkpt>
      <trkpt lat="43.85907" lon="6.31121">
        <ele>1561.1</ele>
        <time>2021-07-10T10:43:42Z</time>
      </trkpt>
      <trkpt lat="43.85907" lon="6.31133">
        <ele>1561.5</ele>
        <time>2021-07-10T10:43:45Z</time>
      </trkpt>
      <trkpt lat="43.85907" lon="6.31143">
        <ele>1561.7</ele>
        <time>2021-07-10T10:43:48Z</time>
      </trkpt>
      <trkpt lat="43.85907" lon="6.31154">
        <ele>1561.6</ele>
        <time>2021-07-10T10:43:51Z</time>
      </trkpt>
      <trkpt lat="43.85906" lon="6.31168">
        <ele>1561.8</ele>
        <time>2021-07-10T10:43:54Z</time>
      </trkpt>
      <trkpt lat="43.85903" lon="6.31178">
        <ele>1560.6</ele>
        <time>2021-07-10T10:43:56Z</time>
      </trkpt>
      <trkpt lat="43.859" lon="6.31187">
        <ele>1561</ele>
        <time>2021-07-10T10:43:58Z</time>
      </trkpt>
      <trkpt lat="43.85894" lon="6.31198">
        <ele>1559.6</ele>
        <time>2021-07-10T10:44:01Z</time>
      </trkpt>
      <trkpt lat="43.85889" lon="6.31207">
        <ele>1559.2</ele>
        <time>2021-07-10T10:44:03Z</time>
      </trkpt>
      <trkpt lat="43.85886" lon="6.31217">
        <ele>1559</ele>
        <time>2021-07-10T10:44:05Z</time>
      </trkpt>
      <trkpt lat="43.85883" lon="6.31227">
        <ele>1558.8</ele>
        <time>2021-07-10T10:44:07Z</time>
      </trkpt>
      <trkpt lat="43.85881" lon="6.31238">
        <ele>1558.8</ele>
        <time>2021-07-10T10:44:11Z</time>
      </trkpt>
      <trkpt lat="43.8588" lon="6.31237">
        <ele>1558.2</ele>
        <time>2021-07-10T10:44:18Z</time>
      </trkpt>
      <trkpt lat="43.8588" lon="6.31237">
        <ele>1557.9</ele>
        <time>2021-07-10T10:44:21Z</time>
      </trkpt>
      <trkpt lat="43.85882" lon="6.31229">
        <ele>1556.5</ele>
        <time>2021-07-10T10:44:48Z</time>
      </trkpt>
      <trkpt lat="43.85884" lon="6.31225">
        <ele>1555.2</ele>
        <time>2021-07-10T10:44:55Z</time>
      </trkpt>
      <trkpt lat="43.85882" lon="6.31232">
        <ele>1556.7</ele>
        <time>2021-07-10T10:45:02Z</time>
      </trkpt>
      <trkpt lat="43.8588" lon="6.31242">
        <ele>1556.1</ele>
        <time>2021-07-10T10:45:05Z</time>
      </trkpt>
      <trkpt lat="43.85879" lon="6.31256">
        <ele>1556.6</ele>
        <time>2021-07-10T10:45:08Z</time>
      </trkpt>
      <trkpt lat="43.85879" lon="6.31266">
        <ele>1556.8</ele>
        <time>2021-07-10T10:45:10Z</time>
      </trkpt>
      <trkpt lat="43.85879" lon="6.3128">
        <ele>1556.2</ele>
        <time>2021-07-10T10:45:13Z</time>
      </trkpt>
      <trkpt lat="43.85877" lon="6.31295">
        <ele>1554.4</ele>
        <time>2021-07-10T10:45:16Z</time>
      </trkpt>
      <trkpt lat="43.85871" lon="6.31306">
        <ele>1554.4</ele>
        <time>2021-07-10T10:45:19Z</time>
      </trkpt>
      <trkpt lat="43.85865" lon="6.31315">
        <ele>1554.2</ele>
        <time>2021-07-10T10:45:22Z</time>
      </trkpt>
      <trkpt lat="43.85858" lon="6.31327">
        <ele>1552.5</ele>
        <time>2021-07-10T10:45:25Z</time>
      </trkpt>
      <trkpt lat="43.85854" lon="6.31337">
        <ele>1552.3</ele>
        <time>2021-07-10T10:45:27Z</time>
      </trkpt>
      <trkpt lat="43.85849" lon="6.31347">
        <ele>1551.7</ele>
        <time>2021-07-10T10:45:29Z</time>
      </trkpt>
      <trkpt lat="43.85844" lon="6.31356">
        <ele>1551.1</ele>
        <time>2021-07-10T10:45:31Z</time>
      </trkpt>
      <trkpt lat="43.85841" lon="6.31364">
        <ele>1550.8</ele>
        <time>2021-07-10T10:45:33Z</time>
      </trkpt>
      <trkpt lat="43.85836" lon="6.31376">
        <ele>1550.2</ele>
        <time>2021-07-10T10:45:36Z</time>
      </trkpt>
      <trkpt lat="43.8583" lon="6.31387">
        <ele>1550.1</ele>
        <time>2021-07-10T10:45:39Z</time>
      </trkpt>
      <trkpt lat="43.85826" lon="6.31399">
        <ele>1549.6</ele>
        <time>2021-07-10T10:45:42Z</time>
      </trkpt>
      <trkpt lat="43.85825" lon="6.31412">
        <ele>1550.2</ele>
        <time>2021-07-10T10:45:45Z</time>
      </trkpt>
      <trkpt lat="43.85826" lon="6.31422">
        <ele>1549.9</ele>
        <time>2021-07-10T10:45:47Z</time>
      </trkpt>
      <trkpt lat="43.85825" lon="6.31434">
        <ele>1549.5</ele>
        <time>2021-07-10T10:45:49Z</time>
      </trkpt>
      <trkpt lat="43.85824" lon="6.31444">
        <ele>1549.8</ele>
        <time>2021-07-10T10:45:51Z</time>
      </trkpt>
      <trkpt lat="43.85823" lon="6.31458">
        <ele>1550.6</ele>
        <time>2021-07-10T10:45:54Z</time>
      </trkpt>
      <trkpt lat="43.8582" lon="6.31471">
        <ele>1550.3</ele>
        <time>2021-07-10T10:45:57Z</time>
      </trkpt>
      <trkpt lat="43.85819" lon="6.31484">
        <ele>1551.1</ele>
        <time>2021-07-10T10:46:00Z</time>
      </trkpt>
      <trkpt lat="43.85818" lon="6.31496">
        <ele>1551.5</ele>
        <time>2021-07-10T10:46:03Z</time>
      </trkpt>
      <trkpt lat="43.85816" lon="6.31509">
        <ele>1551.3</ele>
        <time>2021-07-10T10:46:06Z</time>
      </trkpt>
      <trkpt lat="43.85814" lon="6.3152">
        <ele>1552.7</ele>
        <time>2021-07-10T10:46:10Z</time>
      </trkpt>
      <trkpt lat="43.85813" lon="6.31531">
        <ele>1552.4</ele>
        <time>2021-07-10T10:46:13Z</time>
      </trkpt>
      <trkpt lat="43.8581" lon="6.31542">
        <ele>1553.6</ele>
        <time>2021-07-10T10:46:17Z</time>
      </trkpt>
      <trkpt lat="43.85807" lon="6.31553">
        <ele>1553.8</ele>
        <time>2021-07-10T10:46:20Z</time>
      </trkpt>
      <trkpt lat="43.85803" lon="6.31564">
        <ele>1553.4</ele>
        <time>2021-07-10T10:46:23Z</time>
      </trkpt>
      <trkpt lat="43.85799" lon="6.31574">
        <ele>1553.8</ele>
        <time>2021-07-10T10:46:26Z</time>
      </trkpt>
      <trkpt lat="43.85795" lon="6.31585">
        <ele>1554.8</ele>
        <time>2021-07-10T10:46:29Z</time>
      </trkpt>
      <trkpt lat="43.85791" lon="6.31595">
        <ele>1553.4</ele>
        <time>2021-07-10T10:46:32Z</time>
      </trkpt>
      <trkpt lat="43.85788" lon="6.31605">
        <ele>1554.9</ele>
        <time>2021-07-10T10:46:35Z</time>
      </trkpt>
      <trkpt lat="43.85785" lon="6.31617">
        <ele>1555</ele>
        <time>2021-07-10T10:46:38Z</time>
      </trkpt>
      <trkpt lat="43.85782" lon="6.31631">
        <ele>1556.3</ele>
        <time>2021-07-10T10:46:41Z</time>
      </trkpt>
      <trkpt lat="43.8578" lon="6.31642">
        <ele>1556.9</ele>
        <time>2021-07-10T10:46:44Z</time>
      </trkpt>
      <trkpt lat="43.85777" lon="6.31655">
        <ele>1558.3</ele>
        <time>2021-07-10T10:46:48Z</time>
      </trkpt>
      <trkpt lat="43.85774" lon="6.31663">
        <ele>1559.3</ele>
        <time>2021-07-10T10:46:51Z</time>
      </trkpt>
      <trkpt lat="43.85771" lon="6.31673">
        <ele>1557.7</ele>
        <time>2021-07-10T10:46:54Z</time>
      </trkpt>
      <trkpt lat="43.85768" lon="6.31683">
        <ele>1557.7</ele>
        <time>2021-07-10T10:46:57Z</time>
      </trkpt>
      <trkpt lat="43.85767" lon="6.31694">
        <ele>1558</ele>
        <time>2021-07-10T10:47:00Z</time>
      </trkpt>
      <trkpt lat="43.85767" lon="6.31707">
        <ele>1558.3</ele>
        <time>2021-07-10T10:47:04Z</time>
      </trkpt>
      <trkpt lat="43.85765" lon="6.31717">
        <ele>1558.2</ele>
        <time>2021-07-10T10:47:07Z</time>
      </trkpt>
      <trkpt lat="43.85762" lon="6.31728">
        <ele>1558.4</ele>
        <time>2021-07-10T10:47:10Z</time>
      </trkpt>
      <trkpt lat="43.85758" lon="6.31736">
        <ele>1559.1</ele>
        <time>2021-07-10T10:47:13Z</time>
      </trkpt>
      <trkpt lat="43.85752" lon="6.31743">
        <ele>1559.3</ele>
        <time>2021-07-10T10:47:16Z</time>
      </trkpt>
      <trkpt lat="43.85747" lon="6.31752">
        <ele>1559.8</ele>
        <time>2021-07-10T10:47:19Z</time>
      </trkpt>
      <trkpt lat="43.85745" lon="6.31764">
        <ele>1560.4</ele>
        <time>2021-07-10T10:47:22Z</time>
      </trkpt>
      <trkpt lat="43.85744" lon="6.31775">
        <ele>1560.1</ele>
        <time>2021-07-10T10:47:25Z</time>
      </trkpt>
      <trkpt lat="43.85744" lon="6.31787">
        <ele>1561.8</ele>
        <time>2021-07-10T10:47:28Z</time>
      </trkpt>
      <trkpt lat="43.85744" lon="6.31797">
        <ele>1562.4</ele>
        <time>2021-07-10T10:47:31Z</time>
      </trkpt>
      <trkpt lat="43.85745" lon="6.31809">
        <ele>1562.7</ele>
        <time>2021-07-10T10:47:34Z</time>
      </trkpt>
      <trkpt lat="43.85744" lon="6.3182">
        <ele>1561.6</ele>
        <time>2021-07-10T10:47:37Z</time>
      </trkpt>
      <trkpt lat="43.85743" lon="6.31833">
        <ele>1561.1</ele>
        <time>2021-07-10T10:47:40Z</time>
      </trkpt>
      <trkpt lat="43.85742" lon="6.31844">
        <ele>1561.3</ele>
        <time>2021-07-10T10:47:43Z</time>
      </trkpt>
      <trkpt lat="43.8574" lon="6.31855">
        <ele>1562.1</ele>
        <time>2021-07-10T10:47:46Z</time>
      </trkpt>
      <trkpt lat="43.85737" lon="6.31866">
        <ele>1561.8</ele>
        <time>2021-07-10T10:47:49Z</time>
      </trkpt>
      <trkpt lat="43.85736" lon="6.31876">
        <ele>1561.1</ele>
        <time>2021-07-10T10:47:52Z</time>
      </trkpt>
      <trkpt lat="43.85739" lon="6.31886">
        <ele>1561.7</ele>
        <time>2021-07-10T10:47:55Z</time>
      </trkpt>
      <trkpt lat="43.85744" lon="6.31892">
        <ele>1562.3</ele>
        <time>2021-07-10T10:47:58Z</time>
      </trkpt>
      <trkpt lat="43.85752" lon="6.31896">
        <ele>1563</ele>
        <time>2021-07-10T10:48:01Z</time>
      </trkpt>
      <trkpt lat="43.85759" lon="6.31903">
        <ele>1565.2</ele>
        <time>2021-07-10T10:48:05Z</time>
      </trkpt>
      <trkpt lat="43.85764" lon="6.3191">
        <ele>1564.9</ele>
        <time>2021-07-10T10:48:08Z</time>
      </trkpt>
      <trkpt lat="43.85768" lon="6.31919">
        <ele>1565</ele>
        <time>2021-07-10T10:48:11Z</time>
      </trkpt>
      <trkpt lat="43.85771" lon="6.31929">
        <ele>1564.9</ele>
        <time>2021-07-10T10:48:14Z</time>
      </trkpt>
      <trkpt lat="43.85774" lon="6.3194">
        <ele>1565.1</ele>
        <time>2021-07-10T10:48:17Z</time>
      </trkpt>
      <trkpt lat="43.85775" lon="6.31952">
        <ele>1564.2</ele>
        <time>2021-07-10T10:48:21Z</time>
      </trkpt>
      <trkpt lat="43.85775" lon="6.31964">
        <ele>1565.2</ele>
        <time>2021-07-10T10:48:25Z</time>
      </trkpt>
      <trkpt lat="43.85774" lon="6.31976">
        <ele>1565.6</ele>
        <time>2021-07-10T10:48:29Z</time>
      </trkpt>
      <trkpt lat="43.85773" lon="6.31987">
        <ele>1564.4</ele>
        <time>2021-07-10T10:48:33Z</time>
      </trkpt>
      <trkpt lat="43.85775" lon="6.32">
        <ele>1564.9</ele>
        <time>2021-07-10T10:48:38Z</time>
      </trkpt>
      <trkpt lat="43.85781" lon="6.32009">
        <ele>1565.3</ele>
        <time>2021-07-10T10:48:42Z</time>
      </trkpt>
      <trkpt lat="43.85786" lon="6.32017">
        <ele>1565.3</ele>
        <time>2021-07-10T10:48:45Z</time>
      </trkpt>
      <trkpt lat="43.85792" lon="6.32026">
        <ele>1565.7</ele>
        <time>2021-07-10T10:48:49Z</time>
      </trkpt>
      <trkpt lat="43.85797" lon="6.32037">
        <ele>1566.8</ele>
        <time>2021-07-10T10:48:53Z</time>
      </trkpt>
      <trkpt lat="43.858" lon="6.32048">
        <ele>1568</ele>
        <time>2021-07-10T10:48:57Z</time>
      </trkpt>
      <trkpt lat="43.85802" lon="6.3206">
        <ele>1569.4</ele>
        <time>2021-07-10T10:49:01Z</time>
      </trkpt>
      <trkpt lat="43.85806" lon="6.3207">
        <ele>1571</ele>
        <time>2021-07-10T10:49:05Z</time>
      </trkpt>
      <trkpt lat="43.8581" lon="6.32079">
        <ele>1572.6</ele>
        <time>2021-07-10T10:49:09Z</time>
      </trkpt>
      <trkpt lat="43.85815" lon="6.32087">
        <ele>1574.1</ele>
        <time>2021-07-10T10:49:13Z</time>
      </trkpt>
      <trkpt lat="43.8582" lon="6.32095">
        <ele>1574.8</ele>
        <time>2021-07-10T10:49:17Z</time>
      </trkpt>
      <trkpt lat="43.85825" lon="6.32105">
        <ele>1575.8</ele>
        <time>2021-07-10T10:49:21Z</time>
      </trkpt>
      <trkpt lat="43.85828" lon="6.32115">
        <ele>1573.5</ele>
        <time>2021-07-10T10:49:24Z</time>
      </trkpt>
      <trkpt lat="43.8583" lon="6.32126">
        <ele>1574.1</ele>
        <time>2021-07-10T10:49:27Z</time>
      </trkpt>
      <trkpt lat="43.85832" lon="6.32136">
        <ele>1575.3</ele>
        <time>2021-07-10T10:49:30Z</time>
      </trkpt>
      <trkpt lat="43.85832" lon="6.32147">
        <ele>1574.7</ele>
        <time>2021-07-10T10:49:34Z</time>
      </trkpt>
      <trkpt lat="43.85834" lon="6.3216">
        <ele>1575.8</ele>
        <time>2021-07-10T10:49:38Z</time>
      </trkpt>
      <trkpt lat="43.85835" lon="6.32173">
        <ele>1576.2</ele>
        <time>2021-07-10T10:49:42Z</time>
      </trkpt>
      <trkpt lat="43.85836" lon="6.32185">
        <ele>1575.3</ele>
        <time>2021-07-10T10:49:46Z</time>
      </trkpt>
      <trkpt lat="43.85837" lon="6.32199">
        <ele>1575.7</ele>
        <time>2021-07-10T10:49:50Z</time>
      </trkpt>
      <trkpt lat="43.85837" lon="6.3221">
        <ele>1577.3</ele>
        <time>2021-07-10T10:49:54Z</time>
      </trkpt>
      <trkpt lat="43.85839" lon="6.32222">
        <ele>1577.2</ele>
        <time>2021-07-10T10:49:58Z</time>
      </trkpt>
      <trkpt lat="43.85841" lon="6.32233">
        <ele>1579.4</ele>
        <time>2021-07-10T10:50:02Z</time>
      </trkpt>
      <trkpt lat="43.85844" lon="6.32243">
        <ele>1579.5</ele>
        <time>2021-07-10T10:50:06Z</time>
      </trkpt>
      <trkpt lat="43.85851" lon="6.32251">
        <ele>1581.5</ele>
        <time>2021-07-10T10:50:11Z</time>
      </trkpt>
      <trkpt lat="43.85856" lon="6.3226">
        <ele>1583.4</ele>
        <time>2021-07-10T10:50:16Z</time>
      </trkpt>
      <trkpt lat="43.85861" lon="6.32267">
        <ele>1585</ele>
        <time>2021-07-10T10:50:21Z</time>
      </trkpt>
      <trkpt lat="43.85866" lon="6.32275">
        <ele>1585.6</ele>
        <time>2021-07-10T10:50:25Z</time>
      </trkpt>
      <trkpt lat="43.85873" lon="6.32284">
        <ele>1588</ele>
        <time>2021-07-10T10:50:30Z</time>
      </trkpt>
      <trkpt lat="43.85878" lon="6.32292">
        <ele>1588</ele>
        <time>2021-07-10T10:50:34Z</time>
      </trkpt>
      <trkpt lat="43.85883" lon="6.32301">
        <ele>1588.8</ele>
        <time>2021-07-10T10:50:38Z</time>
      </trkpt>
      <trkpt lat="43.85888" lon="6.32309">
        <ele>1589.9</ele>
        <time>2021-07-10T10:50:42Z</time>
      </trkpt>
      <trkpt lat="43.85895" lon="6.32308">
        <ele>1591</ele>
        <time>2021-07-10T10:50:47Z</time>
      </trkpt>
      <trkpt lat="43.85895" lon="6.32297">
        <ele>1589.9</ele>
        <time>2021-07-10T10:50:51Z</time>
      </trkpt>
      <trkpt lat="43.85889" lon="6.32291">
        <ele>1589.5</ele>
        <time>2021-07-10T10:50:55Z</time>
      </trkpt>
      <trkpt lat="43.85884" lon="6.32283">
        <ele>1588</ele>
        <time>2021-07-10T10:50:59Z</time>
      </trkpt>
      <trkpt lat="43.85881" lon="6.32273">
        <ele>1589</ele>
        <time>2021-07-10T10:51:03Z</time>
      </trkpt>
      <trkpt lat="43.85878" lon="6.32263">
        <ele>1589.4</ele>
        <time>2021-07-10T10:51:07Z</time>
      </trkpt>
      <trkpt lat="43.85875" lon="6.32254">
        <ele>1589.7</ele>
        <time>2021-07-10T10:51:11Z</time>
      </trkpt>
      <trkpt lat="43.85873" lon="6.32244">
        <ele>1590.6</ele>
        <time>2021-07-10T10:51:15Z</time>
      </trkpt>
      <trkpt lat="43.85872" lon="6.32232">
        <ele>1590.1</ele>
        <time>2021-07-10T10:51:20Z</time>
      </trkpt>
      <trkpt lat="43.8587" lon="6.32219">
        <ele>1590.4</ele>
        <time>2021-07-10T10:51:25Z</time>
      </trkpt>
      <trkpt lat="43.85868" lon="6.3221">
        <ele>1590.7</ele>
        <time>2021-07-10T10:51:29Z</time>
      </trkpt>
      <trkpt lat="43.85867" lon="6.32199">
        <ele>1591.4</ele>
        <time>2021-07-10T10:51:34Z</time>
      </trkpt>
      <trkpt lat="43.85875" lon="6.32191">
        <ele>1591</ele>
        <time>2021-07-10T10:51:38Z</time>
      </trkpt>
      <trkpt lat="43.85881" lon="6.32198">
        <ele>1592.6</ele>
        <time>2021-07-10T10:51:43Z</time>
      </trkpt>
      <trkpt lat="43.85882" lon="6.32209">
        <ele>1595.7</ele>
        <time>2021-07-10T10:51:48Z</time>
      </trkpt>
      <trkpt lat="43.85885" lon="6.3222">
        <ele>1597.9</ele>
        <time>2021-07-10T10:51:52Z</time>
      </trkpt>
      <trkpt lat="43.85891" lon="6.32228">
        <ele>1601.7</ele>
        <time>2021-07-10T10:51:57Z</time>
      </trkpt>
      <trkpt lat="43.85898" lon="6.32234">
        <ele>1603.6</ele>
        <time>2021-07-10T10:52:01Z</time>
      </trkpt>
      <trkpt lat="43.85904" lon="6.32241">
        <ele>1604.6</ele>
        <time>2021-07-10T10:52:06Z</time>
      </trkpt>
      <trkpt lat="43.85911" lon="6.32247">
        <ele>1606.2</ele>
        <time>2021-07-10T10:52:11Z</time>
      </trkpt>
      <trkpt lat="43.85918" lon="6.32255">
        <ele>1607.9</ele>
        <time>2021-07-10T10:52:16Z</time>
      </trkpt>
      <trkpt lat="43.85924" lon="6.32263">
        <ele>1609.4</ele>
        <time>2021-07-10T10:52:21Z</time>
      </trkpt>
      <trkpt lat="43.8593" lon="6.32269">
        <ele>1610.8</ele>
        <time>2021-07-10T10:52:25Z</time>
      </trkpt>
      <trkpt lat="43.85937" lon="6.32274">
        <ele>1612.2</ele>
        <time>2021-07-10T10:52:29Z</time>
      </trkpt>
      <trkpt lat="43.85945" lon="6.32278">
        <ele>1613.6</ele>
        <time>2021-07-10T10:52:33Z</time>
      </trkpt>
      <trkpt lat="43.85951" lon="6.32283">
        <ele>1614.4</ele>
        <time>2021-07-10T10:52:37Z</time>
      </trkpt>
      <trkpt lat="43.85958" lon="6.32286">
        <ele>1614.5</ele>
        <time>2021-07-10T10:52:41Z</time>
      </trkpt>
      <trkpt lat="43.85965" lon="6.32292">
        <ele>1615</ele>
        <time>2021-07-10T10:52:45Z</time>
      </trkpt>
      <trkpt lat="43.85972" lon="6.323">
        <ele>1616.6</ele>
        <time>2021-07-10T10:52:49Z</time>
      </trkpt>
      <trkpt lat="43.85978" lon="6.32305">
        <ele>1618.8</ele>
        <time>2021-07-10T10:52:53Z</time>
      </trkpt>
      <trkpt lat="43.85985" lon="6.32311">
        <ele>1620</ele>
        <time>2021-07-10T10:52:57Z</time>
      </trkpt>
      <trkpt lat="43.85992" lon="6.32318">
        <ele>1621.6</ele>
        <time>2021-07-10T10:53:02Z</time>
      </trkpt>
      <trkpt lat="43.85999" lon="6.32324">
        <ele>1622.8</ele>
        <time>2021-07-10T10:53:07Z</time>
      </trkpt>
      <trkpt lat="43.86007" lon="6.32331">
        <ele>1623.7</ele>
        <time>2021-07-10T10:53:12Z</time>
      </trkpt>
      <trkpt lat="43.86013" lon="6.32338">
        <ele>1623.3</ele>
        <time>2021-07-10T10:53:16Z</time>
      </trkpt>
      <trkpt lat="43.86019" lon="6.32343">
        <ele>1625.2</ele>
        <time>2021-07-10T10:53:20Z</time>
      </trkpt>
      <trkpt lat="43.86025" lon="6.32349">
        <ele>1626</ele>
        <time>2021-07-10T10:53:24Z</time>
      </trkpt>
      <trkpt lat="43.86032" lon="6.32355">
        <ele>1627.1</ele>
        <time>2021-07-10T10:53:28Z</time>
      </trkpt>
      <trkpt lat="43.86039" lon="6.32361">
        <ele>1627.5</ele>
        <time>2021-07-10T10:53:32Z</time>
      </trkpt>
      <trkpt lat="43.86046" lon="6.32367">
        <ele>1627.4</ele>
        <time>2021-07-10T10:53:36Z</time>
      </trkpt>
      <trkpt lat="43.86054" lon="6.32373">
        <ele>1628.1</ele>
        <time>2021-07-10T10:53:40Z</time>
      </trkpt>
      <trkpt lat="43.8606" lon="6.32379">
        <ele>1628.2</ele>
        <time>2021-07-10T10:53:44Z</time>
      </trkpt>
      <trkpt lat="43.86067" lon="6.32383">
        <ele>1628.9</ele>
        <time>2021-07-10T10:53:48Z</time>
      </trkpt>
      <trkpt lat="43.86074" lon="6.32387">
        <ele>1630</ele>
        <time>2021-07-10T10:53:52Z</time>
      </trkpt>
      <trkpt lat="43.86081" lon="6.3239">
        <ele>1630.8</ele>
        <time>2021-07-10T10:53:56Z</time>
      </trkpt>
      <trkpt lat="43.86088" lon="6.32394">
        <ele>1632.3</ele>
        <time>2021-07-10T10:54:00Z</time>
      </trkpt>
      <trkpt lat="43.86095" lon="6.32398">
        <ele>1632</ele>
        <time>2021-07-10T10:54:04Z</time>
      </trkpt>
      <trkpt lat="43.86102" lon="6.32403">
        <ele>1632.8</ele>
        <time>2021-07-10T10:54:08Z</time>
      </trkpt>
      <trkpt lat="43.86109" lon="6.32409">
        <ele>1632.6</ele>
        <time>2021-07-10T10:54:12Z</time>
      </trkpt>
      <trkpt lat="43.86117" lon="6.32412">
        <ele>1633.6</ele>
        <time>2021-07-10T10:54:17Z</time>
      </trkpt>
      <trkpt lat="43.86121" lon="6.32403">
        <ele>1633.7</ele>
        <time>2021-07-10T10:54:22Z</time>
      </trkpt>
      <trkpt lat="43.86116" lon="6.32393">
        <ele>1632</ele>
        <time>2021-07-10T10:54:27Z</time>
      </trkpt>
      <trkpt lat="43.86112" lon="6.32382">
        <ele>1631.5</ele>
        <time>2021-07-10T10:54:32Z</time>
      </trkpt>
      <trkpt lat="43.86106" lon="6.32374">
        <ele>1632.8</ele>
        <time>2021-07-10T10:54:37Z</time>
      </trkpt>
      <trkpt lat="43.861" lon="6.32368">
        <ele>1633.2</ele>
        <time>2021-07-10T10:54:42Z</time>
      </trkpt>
      <trkpt lat="43.86094" lon="6.3236">
        <ele>1632.4</ele>
        <time>2021-07-10T10:54:47Z</time>
      </trkpt>
      <trkpt lat="43.8609" lon="6.32352">
        <ele>1633.8</ele>
        <time>2021-07-10T10:54:52Z</time>
      </trkpt>
      <trkpt lat="43.86083" lon="6.32344">
        <ele>1634.2</ele>
        <time>2021-07-10T10:54:57Z</time>
      </trkpt>
      <trkpt lat="43.86078" lon="6.32335">
        <ele>1634.6</ele>
        <time>2021-07-10T10:55:02Z</time>
      </trkpt>
      <trkpt lat="43.86083" lon="6.32325">
        <ele>1631.8</ele>
        <time>2021-07-10T10:55:06Z</time>
      </trkpt>
      <trkpt lat="43.86091" lon="6.32325">
        <ele>1635.1</ele>
        <time>2021-07-10T10:55:10Z</time>
      </trkpt>
      <trkpt lat="43.86097" lon="6.32332">
        <ele>1636.3</ele>
        <time>2021-07-10T10:55:14Z</time>
      </trkpt>
      <trkpt lat="43.86103" lon="6.32337">
        <ele>1637.8</ele>
        <time>2021-07-10T10:55:19Z</time>
      </trkpt>
      <trkpt lat="43.8611" lon="6.32342">
        <ele>1639.6</ele>
        <time>2021-07-10T10:55:24Z</time>
      </trkpt>
      <trkpt lat="43.86117" lon="6.32347">
        <ele>1641.1</ele>
        <time>2021-07-10T10:55:29Z</time>
      </trkpt>
      <trkpt lat="43.86125" lon="6.32351">
        <ele>1641.1</ele>
        <time>2021-07-10T10:55:34Z</time>
      </trkpt>
      <trkpt lat="43.86133" lon="6.32357">
        <ele>1642.2</ele>
        <time>2021-07-10T10:55:39Z</time>
      </trkpt>
      <trkpt lat="43.86141" lon="6.32361">
        <ele>1644.4</ele>
        <time>2021-07-10T10:55:45Z</time>
      </trkpt>
      <trkpt lat="43.86149" lon="6.32363">
        <ele>1646</ele>
        <time>2021-07-10T10:55:50Z</time>
      </trkpt>
      <trkpt lat="43.86158" lon="6.32367">
        <ele>1647.2</ele>
        <time>2021-07-10T10:55:55Z</time>
      </trkpt>
      <trkpt lat="43.86166" lon="6.32369">
        <ele>1648.2</ele>
        <time>2021-07-10T10:56:00Z</time>
      </trkpt>
      <trkpt lat="43.86173" lon="6.32372">
        <ele>1648.1</ele>
        <time>2021-07-10T10:56:04Z</time>
      </trkpt>
      <trkpt lat="43.8618" lon="6.32373">
        <ele>1649.1</ele>
        <time>2021-07-10T10:56:08Z</time>
      </trkpt>
      <trkpt lat="43.86189" lon="6.32374">
        <ele>1649.9</ele>
        <time>2021-07-10T10:56:13Z</time>
      </trkpt>
      <trkpt lat="43.86197" lon="6.32377">
        <ele>1650.6</ele>
        <time>2021-07-10T10:56:18Z</time>
      </trkpt>
      <trkpt lat="43.86206" lon="6.32378">
        <ele>1650.9</ele>
        <time>2021-07-10T10:56:23Z</time>
      </trkpt>
      <trkpt lat="43.86214" lon="6.32381">
        <ele>1651.8</ele>
        <time>2021-07-10T10:56:28Z</time>
      </trkpt>
      <trkpt lat="43.86223" lon="6.32383">
        <ele>1653.5</ele>
        <time>2021-07-10T10:56:33Z</time>
      </trkpt>
      <trkpt lat="43.8623" lon="6.32385">
        <ele>1654.4</ele>
        <time>2021-07-10T10:56:37Z</time>
      </trkpt>
      <trkpt lat="43.86238" lon="6.32386">
        <ele>1655.5</ele>
        <time>2021-07-10T10:56:41Z</time>
      </trkpt>
      <trkpt lat="43.86247" lon="6.32387">
        <ele>1656.6</ele>
        <time>2021-07-10T10:56:46Z</time>
      </trkpt>
      <trkpt lat="43.86254" lon="6.32391">
        <ele>1657.2</ele>
        <time>2021-07-10T10:56:50Z</time>
      </trkpt>
      <trkpt lat="43.86261" lon="6.32394">
        <ele>1658.2</ele>
        <time>2021-07-10T10:56:54Z</time>
      </trkpt>
      <trkpt lat="43.86269" lon="6.324">
        <ele>1658.6</ele>
        <time>2021-07-10T10:56:59Z</time>
      </trkpt>
      <trkpt lat="43.86276" lon="6.32407">
        <ele>1658.9</ele>
        <time>2021-07-10T10:57:04Z</time>
      </trkpt>
      <trkpt lat="43.86283" lon="6.32409">
        <ele>1659.7</ele>
        <time>2021-07-10T10:57:09Z</time>
      </trkpt>
      <trkpt lat="43.86289" lon="6.32405">
        <ele>1660.1</ele>
        <time>2021-07-10T10:57:16Z</time>
      </trkpt>
      <trkpt lat="43.86288" lon="6.32404">
        <ele>1659.9</ele>
        <time>2021-07-10T10:57:23Z</time>
      </trkpt>
      <trkpt lat="43.86288" lon="6.32404">
        <ele>1660.8</ele>
        <time>2021-07-10T10:57:30Z</time>
      </trkpt>
      <trkpt lat="43.86288" lon="6.32404">
        <ele>1660.8</ele>
        <time>2021-07-10T10:57:31Z</time>
      </trkpt>
      <trkpt lat="43.86288" lon="6.32405">
        <ele>1659.7</ele>
        <time>2021-07-10T10:57:47Z</time>
      </trkpt>
      <trkpt lat="43.86288" lon="6.32406">
        <ele>1659.7</ele>
        <time>2021-07-10T10:57:48Z</time>
      </trkpt>
      <trkpt lat="43.86289" lon="6.32407">
        <ele>1658.2</ele>
        <time>2021-07-10T10:57:57Z</time>
      </trkpt>
      <trkpt lat="43.86289" lon="6.32407">
        <ele>1658.2</ele>
        <time>2021-07-10T10:57:58Z</time>
      </trkpt>
      <trkpt lat="43.86288" lon="6.32405">
        <ele>1658.6</ele>
        <time>2021-07-10T10:58:30Z</time>
      </trkpt>
      <trkpt lat="43.86288" lon="6.32405">
        <ele>1658.7</ele>
        <time>2021-07-10T10:58:31Z</time>
      </trkpt>
      <trkpt lat="43.86289" lon="6.32406">
        <ele>1657.3</ele>
        <time>2021-07-10T10:59:13Z</time>
      </trkpt>
      <trkpt lat="43.86289" lon="6.32406">
        <ele>1657.2</ele>
        <time>2021-07-10T10:59:14Z</time>
      </trkpt>
      <trkpt lat="43.8629" lon="6.32405">
        <ele>1656.1</ele>
        <time>2021-07-10T10:59:27Z</time>
      </trkpt>
      <trkpt lat="43.8629" lon="6.32405">
        <ele>1655.9</ele>
        <time>2021-07-10T10:59:28Z</time>
      </trkpt>
      <trkpt lat="43.8629" lon="6.32406">
        <ele>1656.9</ele>
        <time>2021-07-10T10:59:45Z</time>
      </trkpt>
      <trkpt lat="43.8629" lon="6.32406">
        <ele>1656.9</ele>
        <time>2021-07-10T10:59:46Z</time>
      </trkpt>
      <trkpt lat="43.86289" lon="6.32408">
        <ele>1659.3</ele>
        <time>2021-07-10T10:59:55Z</time>
      </trkpt>
      <trkpt lat="43.86285" lon="6.32399">
        <ele>1658.8</ele>
        <time>2021-07-10T11:00:01Z</time>
      </trkpt>
      <trkpt lat="43.8628" lon="6.3239">
        <ele>1659.6</ele>
        <time>2021-07-10T11:00:06Z</time>
      </trkpt>
      <trkpt lat="43.86275" lon="6.32381">
        <ele>1660.8</ele>
        <time>2021-07-10T11:00:12Z</time>
      </trkpt>
      <trkpt lat="43.86269" lon="6.32374">
        <ele>1661.5</ele>
        <time>2021-07-10T11:00:17Z</time>
      </trkpt>
      <trkpt lat="43.86264" lon="6.32365">
        <ele>1662.6</ele>
        <time>2021-07-10T11:00:23Z</time>
      </trkpt>
      <trkpt lat="43.86259" lon="6.32359">
        <ele>1663.4</ele>
        <time>2021-07-10T11:00:28Z</time>
      </trkpt>
      <trkpt lat="43.86252" lon="6.32351">
        <ele>1663.1</ele>
        <time>2021-07-10T11:00:33Z</time>
      </trkpt>
      <trkpt lat="43.86245" lon="6.32344">
        <ele>1663.9</ele>
        <time>2021-07-10T11:00:38Z</time>
      </trkpt>
      <trkpt lat="43.86239" lon="6.32338">
        <ele>1664.1</ele>
        <time>2021-07-10T11:00:43Z</time>
      </trkpt>
      <trkpt lat="43.86231" lon="6.32333">
        <ele>1666.2</ele>
        <time>2021-07-10T11:00:48Z</time>
      </trkpt>
      <trkpt lat="43.86225" lon="6.32326">
        <ele>1668</ele>
        <time>2021-07-10T11:00:53Z</time>
      </trkpt>
      <trkpt lat="43.86218" lon="6.32321">
        <ele>1669.5</ele>
        <time>2021-07-10T11:00:58Z</time>
      </trkpt>
      <trkpt lat="43.86214" lon="6.32311">
        <ele>1667.9</ele>
        <time>2021-07-10T11:01:02Z</time>
      </trkpt>
      <trkpt lat="43.86221" lon="6.32303">
        <ele>1666.4</ele>
        <time>2021-07-10T11:01:06Z</time>
      </trkpt>
      <trkpt lat="43.86228" lon="6.32301">
        <ele>1666.8</ele>
        <time>2021-07-10T11:01:10Z</time>
      </trkpt>
      <trkpt lat="43.86236" lon="6.32301">
        <ele>1669.8</ele>
        <time>2021-07-10T11:01:15Z</time>
      </trkpt>
      <trkpt lat="43.86244" lon="6.32301">
        <ele>1670</ele>
        <time>2021-07-10T11:01:20Z</time>
      </trkpt>
      <trkpt lat="43.86252" lon="6.323">
        <ele>1672.4</ele>
        <time>2021-07-10T11:01:25Z</time>
      </trkpt>
      <trkpt lat="43.8626" lon="6.32299">
        <ele>1674.1</ele>
        <time>2021-07-10T11:01:30Z</time>
      </trkpt>
      <trkpt lat="43.86267" lon="6.32299">
        <ele>1674.1</ele>
        <time>2021-07-10T11:01:34Z</time>
      </trkpt>
      <trkpt lat="43.86276" lon="6.32299">
        <ele>1676.2</ele>
        <time>2021-07-10T11:01:39Z</time>
      </trkpt>
      <trkpt lat="43.86285" lon="6.323">
        <ele>1677.3</ele>
        <time>2021-07-10T11:01:44Z</time>
      </trkpt>
      <trkpt lat="43.86294" lon="6.323">
        <ele>1678.4</ele>
        <time>2021-07-10T11:01:49Z</time>
      </trkpt>
      <trkpt lat="43.86302" lon="6.323">
        <ele>1678</ele>
        <time>2021-07-10T11:01:53Z</time>
      </trkpt>
      <trkpt lat="43.86311" lon="6.32302">
        <ele>1679.8</ele>
        <time>2021-07-10T11:01:58Z</time>
      </trkpt>
      <trkpt lat="43.86319" lon="6.32302">
        <ele>1681.8</ele>
        <time>2021-07-10T11:02:03Z</time>
      </trkpt>
      <trkpt lat="43.86327" lon="6.32302">
        <ele>1682.5</ele>
        <time>2021-07-10T11:02:08Z</time>
      </trkpt>
      <trkpt lat="43.86336" lon="6.32303">
        <ele>1683.1</ele>
        <time>2021-07-10T11:02:13Z</time>
      </trkpt>
      <trkpt lat="43.86344" lon="6.32301">
        <ele>1686</ele>
        <time>2021-07-10T11:02:18Z</time>
      </trkpt>
      <trkpt lat="43.86352" lon="6.32299">
        <ele>1687.4</ele>
        <time>2021-07-10T11:02:23Z</time>
      </trkpt>
      <trkpt lat="43.86359" lon="6.32297">
        <ele>1687.7</ele>
        <time>2021-07-10T11:02:27Z</time>
      </trkpt>
      <trkpt lat="43.86366" lon="6.32294">
        <ele>1688.6</ele>
        <time>2021-07-10T11:02:31Z</time>
      </trkpt>
      <trkpt lat="43.86374" lon="6.32292">
        <ele>1689.6</ele>
        <time>2021-07-10T11:02:35Z</time>
      </trkpt>
      <trkpt lat="43.86381" lon="6.32289">
        <ele>1688.4</ele>
        <time>2021-07-10T11:02:39Z</time>
      </trkpt>
      <trkpt lat="43.86389" lon="6.32287">
        <ele>1689.8</ele>
        <time>2021-07-10T11:02:43Z</time>
      </trkpt>
      <trkpt lat="43.86396" lon="6.32284">
        <ele>1690.2</ele>
        <time>2021-07-10T11:02:47Z</time>
      </trkpt>
      <trkpt lat="43.86404" lon="6.32281">
        <ele>1692.7</ele>
        <time>2021-07-10T11:02:52Z</time>
      </trkpt>
      <trkpt lat="43.86411" lon="6.32278">
        <ele>1694.5</ele>
        <time>2021-07-10T11:02:57Z</time>
      </trkpt>
      <trkpt lat="43.86416" lon="6.32275">
        <ele>1692.4</ele>
        <time>2021-07-10T11:03:04Z</time>
      </trkpt>
      <trkpt lat="43.86416" lon="6.32276">
        <ele>1691.7</ele>
        <time>2021-07-10T11:03:08Z</time>
      </trkpt>
      <trkpt lat="43.86416" lon="6.32276">
        <ele>1691.6</ele>
        <time>2021-07-10T11:03:19Z</time>
      </trkpt>
      <trkpt lat="43.86416" lon="6.32276">
        <ele>1691.6</ele>
        <time>2021-07-10T11:03:20Z</time>
      </trkpt>
      <trkpt lat="43.86415" lon="6.32276">
        <ele>1692.2</ele>
        <time>2021-07-10T11:03:41Z</time>
      </trkpt>
      <trkpt lat="43.86415" lon="6.32276">
        <ele>1692.2</ele>
        <time>2021-07-10T11:03:42Z</time>
      </trkpt>
      <trkpt lat="43.86415" lon="6.32277">
        <ele>1691</ele>
        <time>2021-07-10T11:05:06Z</time>
      </trkpt>
      <trkpt lat="43.86415" lon="6.32277">
        <ele>1691.2</ele>
        <time>2021-07-10T11:05:07Z</time>
      </trkpt>
      <trkpt lat="43.86415" lon="6.32278">
        <ele>1691.4</ele>
        <time>2021-07-10T11:05:20Z</time>
      </trkpt>
      <trkpt lat="43.86415" lon="6.32278">
        <ele>1691.4</ele>
        <time>2021-07-10T11:05:21Z</time>
      </trkpt>
      <trkpt lat="43.86415" lon="6.32278">
        <ele>1688.7</ele>
        <time>2021-07-10T11:06:11Z</time>
      </trkpt>
      <trkpt lat="43.86415" lon="6.32278">
        <ele>1688.7</ele>
        <time>2021-07-10T11:06:12Z</time>
      </trkpt>
      <trkpt lat="43.86415" lon="6.32278">
        <ele>1688.4</ele>
        <time>2021-07-10T11:07:12Z</time>
      </trkpt>
      <trkpt lat="43.86415" lon="6.32278">
        <ele>1688.4</ele>
        <time>2021-07-10T11:07:13Z</time>
      </trkpt>
      <trkpt lat="43.86415" lon="6.32278">
        <ele>1688.5</ele>
        <time>2021-07-10T11:08:42Z</time>
      </trkpt>
      <trkpt lat="43.86415" lon="6.32277">
        <ele>1688.5</ele>
        <time>2021-07-10T11:08:43Z</time>
      </trkpt>
      <trkpt lat="43.86416" lon="6.32271">
        <ele>1691.2</ele>
        <time>2021-07-10T11:08:56Z</time>
      </trkpt>
      <trkpt lat="43.86416" lon="6.32271">
        <ele>1691.5</ele>
        <time>2021-07-10T11:09:00Z</time>
      </trkpt>
      <trkpt lat="43.86409" lon="6.32268">
        <ele>1695.8</ele>
        <time>2021-07-10T11:09:12Z</time>
      </trkpt>
      <trkpt lat="43.86401" lon="6.32264">
        <ele>1696.9</ele>
        <time>2021-07-10T11:09:16Z</time>
      </trkpt>
      <trkpt lat="43.86393" lon="6.32261">
        <ele>1698.2</ele>
        <time>2021-07-10T11:09:20Z</time>
      </trkpt>
      <trkpt lat="43.86386" lon="6.32257">
        <ele>1698.6</ele>
        <time>2021-07-10T11:09:24Z</time>
      </trkpt>
      <trkpt lat="43.86379" lon="6.32252">
        <ele>1699.6</ele>
        <time>2021-07-10T11:09:29Z</time>
      </trkpt>
      <trkpt lat="43.86373" lon="6.32244">
        <ele>1701.3</ele>
        <time>2021-07-10T11:09:34Z</time>
      </trkpt>
      <trkpt lat="43.86366" lon="6.32236">
        <ele>1702.1</ele>
        <time>2021-07-10T11:09:39Z</time>
      </trkpt>
      <trkpt lat="43.86359" lon="6.3223">
        <ele>1704.3</ele>
        <time>2021-07-10T11:09:44Z</time>
      </trkpt>
      <trkpt lat="43.86352" lon="6.32223">
        <ele>1704.7</ele>
        <time>2021-07-10T11:09:48Z</time>
      </trkpt>
      <trkpt lat="43.86347" lon="6.32218">
        <ele>1705.4</ele>
        <time>2021-07-10T11:09:52Z</time>
      </trkpt>
      <trkpt lat="43.86339" lon="6.32218">
        <ele>1707.7</ele>
        <time>2021-07-10T11:09:57Z</time>
      </trkpt>
      <trkpt lat="43.86331" lon="6.32218">
        <ele>1708.9</ele>
        <time>2021-07-10T11:10:02Z</time>
      </trkpt>
      <trkpt lat="43.86323" lon="6.32217">
        <ele>1711.8</ele>
        <time>2021-07-10T11:10:07Z</time>
      </trkpt>
      <trkpt lat="43.86314" lon="6.32217">
        <ele>1714.1</ele>
        <time>2021-07-10T11:10:12Z</time>
      </trkpt>
      <trkpt lat="43.86306" lon="6.32217">
        <ele>1716.9</ele>
        <time>2021-07-10T11:10:17Z</time>
      </trkpt>
      <trkpt lat="43.86298" lon="6.32216">
        <ele>1717.5</ele>
        <time>2021-07-10T11:10:22Z</time>
      </trkpt>
      <trkpt lat="43.8629" lon="6.32215">
        <ele>1720.3</ele>
        <time>2021-07-10T11:10:27Z</time>
      </trkpt>
      <trkpt lat="43.86282" lon="6.32212">
        <ele>1721.2</ele>
        <time>2021-07-10T11:10:32Z</time>
      </trkpt>
      <trkpt lat="43.86275" lon="6.3221">
        <ele>1722.9</ele>
        <time>2021-07-10T11:10:37Z</time>
      </trkpt>
      <trkpt lat="43.86267" lon="6.32206">
        <ele>1724</ele>
        <time>2021-07-10T11:10:43Z</time>
      </trkpt>
      <trkpt lat="43.86259" lon="6.32203">
        <ele>1724.2</ele>
        <time>2021-07-10T11:10:49Z</time>
      </trkpt>
      <trkpt lat="43.8625" lon="6.32201">
        <ele>1725</ele>
        <time>2021-07-10T11:10:54Z</time>
      </trkpt>
      <trkpt lat="43.86242" lon="6.32197">
        <ele>1726.1</ele>
        <time>2021-07-10T11:10:59Z</time>
      </trkpt>
      <trkpt lat="43.86234" lon="6.32192">
        <ele>1727.5</ele>
        <time>2021-07-10T11:11:04Z</time>
      </trkpt>
      <trkpt lat="43.86226" lon="6.32189">
        <ele>1728.8</ele>
        <time>2021-07-10T11:11:09Z</time>
      </trkpt>
      <trkpt lat="43.86219" lon="6.32185">
        <ele>1729.8</ele>
        <time>2021-07-10T11:11:13Z</time>
      </trkpt>
      <trkpt lat="43.86212" lon="6.32181">
        <ele>1731.5</ele>
        <time>2021-07-10T11:11:18Z</time>
      </trkpt>
      <trkpt lat="43.86205" lon="6.32176">
        <ele>1732.6</ele>
        <time>2021-07-10T11:11:23Z</time>
      </trkpt>
      <trkpt lat="43.86198" lon="6.32171">
        <ele>1734.2</ele>
        <time>2021-07-10T11:11:28Z</time>
      </trkpt>
      <trkpt lat="43.8619" lon="6.32166">
        <ele>1736.2</ele>
        <time>2021-07-10T11:11:33Z</time>
      </trkpt>
      <trkpt lat="43.86182" lon="6.32162">
        <ele>1737.8</ele>
        <time>2021-07-10T11:11:38Z</time>
      </trkpt>
      <trkpt lat="43.86175" lon="6.32157">
        <ele>1738.2</ele>
        <time>2021-07-10T11:11:43Z</time>
      </trkpt>
      <trkpt lat="43.86168" lon="6.32151">
        <ele>1739.3</ele>
        <time>2021-07-10T11:11:48Z</time>
      </trkpt>
      <trkpt lat="43.86161" lon="6.32146">
        <ele>1739.7</ele>
        <time>2021-07-10T11:11:52Z</time>
      </trkpt>
      <trkpt lat="43.86153" lon="6.32141">
        <ele>1740.3</ele>
        <time>2021-07-10T11:11:57Z</time>
      </trkpt>
      <trkpt lat="43.86146" lon="6.32136">
        <ele>1741.1</ele>
        <time>2021-07-10T11:12:01Z</time>
      </trkpt>
      <trkpt lat="43.86138" lon="6.3213">
        <ele>1742.2</ele>
        <time>2021-07-10T11:12:06Z</time>
      </trkpt>
      <trkpt lat="43.86133" lon="6.32122">
        <ele>1740.2</ele>
        <time>2021-07-10T11:12:11Z</time>
      </trkpt>
      <trkpt lat="43.86136" lon="6.32111">
        <ele>1739.6</ele>
        <time>2021-07-10T11:12:15Z</time>
      </trkpt>
      <trkpt lat="43.86145" lon="6.32108">
        <ele>1737.1</ele>
        <time>2021-07-10T11:12:19Z</time>
      </trkpt>
      <trkpt lat="43.86152" lon="6.32111">
        <ele>1738.4</ele>
        <time>2021-07-10T11:12:24Z</time>
      </trkpt>
      <trkpt lat="43.86159" lon="6.32114">
        <ele>1741.2</ele>
        <time>2021-07-10T11:12:29Z</time>
      </trkpt>
      <trkpt lat="43.86167" lon="6.32119">
        <ele>1740.5</ele>
        <time>2021-07-10T11:12:34Z</time>
      </trkpt>
      <trkpt lat="43.86174" lon="6.32121">
        <ele>1741.3</ele>
        <time>2021-07-10T11:12:38Z</time>
      </trkpt>
      <trkpt lat="43.86183" lon="6.32123">
        <ele>1742.8</ele>
        <time>2021-07-10T11:12:43Z</time>
      </trkpt>
      <trkpt lat="43.86191" lon="6.32124">
        <ele>1743.6</ele>
        <time>2021-07-10T11:12:48Z</time>
      </trkpt>
      <trkpt lat="43.86199" lon="6.32125">
        <ele>1746.1</ele>
        <time>2021-07-10T11:12:54Z</time>
      </trkpt>
      <trkpt lat="43.86206" lon="6.32124">
        <ele>1746.1</ele>
        <time>2021-07-10T11:12:59Z</time>
      </trkpt>
      <trkpt lat="43.86214" lon="6.32122">
        <ele>1749</ele>
        <time>2021-07-10T11:13:05Z</time>
      </trkpt>
      <trkpt lat="43.86222" lon="6.32121">
        <ele>1748.2</ele>
        <time>2021-07-10T11:13:11Z</time>
      </trkpt>
      <trkpt lat="43.86231" lon="6.32122">
        <ele>1747.6</ele>
        <time>2021-07-10T11:13:16Z</time>
      </trkpt>
      <trkpt lat="43.8624" lon="6.32122">
        <ele>1748.2</ele>
        <time>2021-07-10T11:13:21Z</time>
      </trkpt>
      <trkpt lat="43.86248" lon="6.3212">
        <ele>1748.9</ele>
        <time>2021-07-10T11:13:26Z</time>
      </trkpt>
      <trkpt lat="43.86256" lon="6.32119">
        <ele>1750.5</ele>
        <time>2021-07-10T11:13:31Z</time>
      </trkpt>
      <trkpt lat="43.86264" lon="6.32116">
        <ele>1751.8</ele>
        <time>2021-07-10T11:13:36Z</time>
      </trkpt>
      <trkpt lat="43.86272" lon="6.32112">
        <ele>1752.8</ele>
        <time>2021-07-10T11:13:41Z</time>
      </trkpt>
      <trkpt lat="43.86279" lon="6.3211">
        <ele>1753.8</ele>
        <time>2021-07-10T11:13:45Z</time>
      </trkpt>
      <trkpt lat="43.86288" lon="6.32107">
        <ele>1753.8</ele>
        <time>2021-07-10T11:13:50Z</time>
      </trkpt>
      <trkpt lat="43.86294" lon="6.32103">
        <ele>1755.5</ele>
        <time>2021-07-10T11:13:54Z</time>
      </trkpt>
      <trkpt lat="43.86303" lon="6.321">
        <ele>1758.3</ele>
        <time>2021-07-10T11:13:59Z</time>
      </trkpt>
      <trkpt lat="43.8631" lon="6.32095">
        <ele>1761.7</ele>
        <time>2021-07-10T11:14:04Z</time>
      </trkpt>
      <trkpt lat="43.86317" lon="6.32092">
        <ele>1763.6</ele>
        <time>2021-07-10T11:14:09Z</time>
      </trkpt>
      <trkpt lat="43.86325" lon="6.3209">
        <ele>1764.7</ele>
        <time>2021-07-10T11:14:14Z</time>
      </trkpt>
      <trkpt lat="43.86332" lon="6.32085">
        <ele>1765.3</ele>
        <time>2021-07-10T11:14:19Z</time>
      </trkpt>
      <trkpt lat="43.86339" lon="6.32078">
        <ele>1764.6</ele>
        <time>2021-07-10T11:14:24Z</time>
      </trkpt>
      <trkpt lat="43.86333" lon="6.32071">
        <ele>1768.4</ele>
        <time>2021-07-10T11:14:30Z</time>
      </trkpt>
      <trkpt lat="43.86326" lon="6.32074">
        <ele>1768.5</ele>
        <time>2021-07-10T11:14:34Z</time>
      </trkpt>
      <trkpt lat="43.86321" lon="6.32083">
        <ele>1770.1</ele>
        <time>2021-07-10T11:14:39Z</time>
      </trkpt>
      <trkpt lat="43.86314" lon="6.32086">
        <ele>1770.5</ele>
        <time>2021-07-10T11:14:43Z</time>
      </trkpt>
      <trkpt lat="43.86305" lon="6.32088">
        <ele>1771</ele>
        <time>2021-07-10T11:14:47Z</time>
      </trkpt>
      <trkpt lat="43.86298" lon="6.32089">
        <ele>1771.5</ele>
        <time>2021-07-10T11:14:51Z</time>
      </trkpt>
      <trkpt lat="43.8629" lon="6.32088">
        <ele>1772.8</ele>
        <time>2021-07-10T11:14:55Z</time>
      </trkpt>
      <trkpt lat="43.86282" lon="6.32087">
        <ele>1774.2</ele>
        <time>2021-07-10T11:15:00Z</time>
      </trkpt>
      <trkpt lat="43.86274" lon="6.32087">
        <ele>1775.6</ele>
        <time>2021-07-10T11:15:05Z</time>
      </trkpt>
      <trkpt lat="43.86266" lon="6.32086">
        <ele>1777.5</ele>
        <time>2021-07-10T11:15:10Z</time>
      </trkpt>
      <trkpt lat="43.86257" lon="6.32085">
        <ele>1778.4</ele>
        <time>2021-07-10T11:15:15Z</time>
      </trkpt>
      <trkpt lat="43.86248" lon="6.32084">
        <ele>1779.8</ele>
        <time>2021-07-10T11:15:20Z</time>
      </trkpt>
      <trkpt lat="43.86241" lon="6.32084">
        <ele>1781.3</ele>
        <time>2021-07-10T11:15:24Z</time>
      </trkpt>
      <trkpt lat="43.86234" lon="6.3208">
        <ele>1781.8</ele>
        <time>2021-07-10T11:15:28Z</time>
      </trkpt>
      <trkpt lat="43.86226" lon="6.32079">
        <ele>1782.3</ele>
        <time>2021-07-10T11:15:32Z</time>
      </trkpt>
      <trkpt lat="43.86218" lon="6.32079">
        <ele>1783.5</ele>
        <time>2021-07-10T11:15:36Z</time>
      </trkpt>
      <trkpt lat="43.86214" lon="6.3207">
        <ele>1784.4</ele>
        <time>2021-07-10T11:15:42Z</time>
      </trkpt>
      <trkpt lat="43.86221" lon="6.32065">
        <ele>1783.9</ele>
        <time>2021-07-10T11:15:46Z</time>
      </trkpt>
      <trkpt lat="43.86229" lon="6.32063">
        <ele>1782.8</ele>
        <time>2021-07-10T11:15:50Z</time>
      </trkpt>
      <trkpt lat="43.86236" lon="6.32062">
        <ele>1783.5</ele>
        <time>2021-07-10T11:15:54Z</time>
      </trkpt>
      <trkpt lat="43.86244" lon="6.32059">
        <ele>1783</ele>
        <time>2021-07-10T11:15:58Z</time>
      </trkpt>
      <trkpt lat="43.86251" lon="6.32056">
        <ele>1783.6</ele>
        <time>2021-07-10T11:16:02Z</time>
      </trkpt>
      <trkpt lat="43.86258" lon="6.32053">
        <ele>1783.7</ele>
        <time>2021-07-10T11:16:06Z</time>
      </trkpt>
      <trkpt lat="43.86266" lon="6.32051">
        <ele>1784.3</ele>
        <time>2021-07-10T11:16:10Z</time>
      </trkpt>
      <trkpt lat="43.86274" lon="6.32047">
        <ele>1783.2</ele>
        <time>2021-07-10T11:16:16Z</time>
      </trkpt>
      <trkpt lat="43.86282" lon="6.32044">
        <ele>1784.3</ele>
        <time>2021-07-10T11:16:22Z</time>
      </trkpt>
      <trkpt lat="43.8629" lon="6.32042">
        <ele>1780.6</ele>
        <time>2021-07-10T11:16:27Z</time>
      </trkpt>
      <trkpt lat="43.86297" lon="6.32041">
        <ele>1781.3</ele>
        <time>2021-07-10T11:16:31Z</time>
      </trkpt>
      <trkpt lat="43.86305" lon="6.32036">
        <ele>1784.1</ele>
        <time>2021-07-10T11:16:36Z</time>
      </trkpt>
      <trkpt lat="43.86311" lon="6.32029">
        <ele>1783.5</ele>
        <time>2021-07-10T11:16:42Z</time>
      </trkpt>
      <trkpt lat="43.86318" lon="6.32022">
        <ele>1780.6</ele>
        <time>2021-07-10T11:16:48Z</time>
      </trkpt>
      <trkpt lat="43.86325" lon="6.32018">
        <ele>1781.2</ele>
        <time>2021-07-10T11:16:53Z</time>
      </trkpt>
      <trkpt lat="43.86332" lon="6.32011">
        <ele>1782.3</ele>
        <time>2021-07-10T11:16:58Z</time>
      </trkpt>
      <trkpt lat="43.86338" lon="6.32004">
        <ele>1784.7</ele>
        <time>2021-07-10T11:17:03Z</time>
      </trkpt>
      <trkpt lat="43.86344" lon="6.31997">
        <ele>1788</ele>
        <time>2021-07-10T11:17:08Z</time>
      </trkpt>
      <trkpt lat="43.86351" lon="6.3199">
        <ele>1788.7</ele>
        <time>2021-07-10T11:17:13Z</time>
      </trkpt>
      <trkpt lat="43.86357" lon="6.31985">
        <ele>1788.7</ele>
        <time>2021-07-10T11:17:17Z</time>
      </trkpt>
      <trkpt lat="43.86364" lon="6.3198">
        <ele>1793.2</ele>
        <time>2021-07-10T11:17:22Z</time>
      </trkpt>
      <trkpt lat="43.86372" lon="6.31977">
        <ele>1797.6</ele>
        <time>2021-07-10T11:17:28Z</time>
      </trkpt>
      <trkpt lat="43.8637" lon="6.31967">
        <ele>1800.3</ele>
        <time>2021-07-10T11:17:35Z</time>
      </trkpt>
      <trkpt lat="43.86362" lon="6.31968">
        <ele>1801.3</ele>
        <time>2021-07-10T11:17:39Z</time>
      </trkpt>
      <trkpt lat="43.86354" lon="6.31973">
        <ele>1802.6</ele>
        <time>2021-07-10T11:17:44Z</time>
      </trkpt>
      <trkpt lat="43.86348" lon="6.31978">
        <ele>1804.4</ele>
        <time>2021-07-10T11:17:48Z</time>
      </trkpt>
      <trkpt lat="43.86341" lon="6.31982">
        <ele>1805.9</ele>
        <time>2021-07-10T11:17:52Z</time>
      </trkpt>
      <trkpt lat="43.86333" lon="6.31987">
        <ele>1807.3</ele>
        <time>2021-07-10T11:17:57Z</time>
      </trkpt>
      <trkpt lat="43.86326" lon="6.31993">
        <ele>1808.7</ele>
        <time>2021-07-10T11:18:02Z</time>
      </trkpt>
      <trkpt lat="43.86319" lon="6.3199">
        <ele>1809.3</ele>
        <time>2021-07-10T11:18:08Z</time>
      </trkpt>
      <trkpt lat="43.86321" lon="6.31981">
        <ele>1807.1</ele>
        <time>2021-07-10T11:18:12Z</time>
      </trkpt>
      <trkpt lat="43.86328" lon="6.31974">
        <ele>1805.1</ele>
        <time>2021-07-10T11:18:16Z</time>
      </trkpt>
      <trkpt lat="43.86336" lon="6.31969">
        <ele>1807.1</ele>
        <time>2021-07-10T11:18:21Z</time>
      </trkpt>
      <trkpt lat="43.86343" lon="6.31965">
        <ele>1807.4</ele>
        <time>2021-07-10T11:18:26Z</time>
      </trkpt>
      <trkpt lat="43.86349" lon="6.3196">
        <ele>1807.8</ele>
        <time>2021-07-10T11:18:33Z</time>
      </trkpt>
      <trkpt lat="43.86349" lon="6.3196">
        <ele>1808.1</ele>
        <time>2021-07-10T11:18:38Z</time>
      </trkpt>
      <trkpt lat="43.86356" lon="6.31955">
        <ele>1807.8</ele>
        <time>2021-07-10T11:18:52Z</time>
      </trkpt>
      <trkpt lat="43.86364" lon="6.3195">
        <ele>1808.3</ele>
        <time>2021-07-10T11:18:57Z</time>
      </trkpt>
      <trkpt lat="43.86368" lon="6.31951">
        <ele>1807.7</ele>
        <time>2021-07-10T11:19:04Z</time>
      </trkpt>
      <trkpt lat="43.86371" lon="6.31942">
        <ele>1809.1</ele>
        <time>2021-07-10T11:19:11Z</time>
      </trkpt>
      <trkpt lat="43.86363" lon="6.31943">
        <ele>1812</ele>
        <time>2021-07-10T11:19:16Z</time>
      </trkpt>
      <trkpt lat="43.86356" lon="6.31947">
        <ele>1813.2</ele>
        <time>2021-07-10T11:19:20Z</time>
      </trkpt>
      <trkpt lat="43.86349" lon="6.3195">
        <ele>1814.7</ele>
        <time>2021-07-10T11:19:24Z</time>
      </trkpt>
      <trkpt lat="43.86341" lon="6.31954">
        <ele>1815.4</ele>
        <time>2021-07-10T11:19:28Z</time>
      </trkpt>
      <trkpt lat="43.86334" lon="6.31957">
        <ele>1815.8</ele>
        <time>2021-07-10T11:19:32Z</time>
      </trkpt>
      <trkpt lat="43.86327" lon="6.31961">
        <ele>1817</ele>
        <time>2021-07-10T11:19:36Z</time>
      </trkpt>
      <trkpt lat="43.8632" lon="6.31965">
        <ele>1817.5</ele>
        <time>2021-07-10T11:19:40Z</time>
      </trkpt>
      <trkpt lat="43.86313" lon="6.3197">
        <ele>1818.1</ele>
        <time>2021-07-10T11:19:44Z</time>
      </trkpt>
      <trkpt lat="43.86307" lon="6.31976">
        <ele>1818.9</ele>
        <time>2021-07-10T11:19:48Z</time>
      </trkpt>
      <trkpt lat="43.86301" lon="6.31982">
        <ele>1819.6</ele>
        <time>2021-07-10T11:19:52Z</time>
      </trkpt>
      <trkpt lat="43.86293" lon="6.31981">
        <ele>1820.8</ele>
        <time>2021-07-10T11:19:57Z</time>
      </trkpt>
      <trkpt lat="43.86296" lon="6.31969">
        <ele>1819</ele>
        <time>2021-07-10T11:20:02Z</time>
      </trkpt>
      <trkpt lat="43.86301" lon="6.31962">
        <ele>1818.4</ele>
        <time>2021-07-10T11:20:06Z</time>
      </trkpt>
      <trkpt lat="43.86307" lon="6.31956">
        <ele>1818.9</ele>
        <time>2021-07-10T11:20:10Z</time>
      </trkpt>
      <trkpt lat="43.86313" lon="6.31948">
        <ele>1817.2</ele>
        <time>2021-07-10T11:20:16Z</time>
      </trkpt>
      <trkpt lat="43.8632" lon="6.3194">
        <ele>1817.5</ele>
        <time>2021-07-10T11:20:21Z</time>
      </trkpt>
      <trkpt lat="43.86326" lon="6.31932">
        <ele>1818.4</ele>
        <time>2021-07-10T11:20:26Z</time>
      </trkpt>
      <trkpt lat="43.86333" lon="6.31926">
        <ele>1819.2</ele>
        <time>2021-07-10T11:20:30Z</time>
      </trkpt>
      <trkpt lat="43.8634" lon="6.31919">
        <ele>1820.7</ele>
        <time>2021-07-10T11:20:35Z</time>
      </trkpt>
      <trkpt lat="43.86347" lon="6.31914">
        <ele>1822.4</ele>
        <time>2021-07-10T11:20:39Z</time>
      </trkpt>
      <trkpt lat="43.86355" lon="6.31909">
        <ele>1824.4</ele>
        <time>2021-07-10T11:20:44Z</time>
      </trkpt>
      <trkpt lat="43.86364" lon="6.31908">
        <ele>1824.8</ele>
        <time>2021-07-10T11:20:48Z</time>
      </trkpt>
      <trkpt lat="43.86371" lon="6.31907">
        <ele>1826.8</ele>
        <time>2021-07-10T11:20:52Z</time>
      </trkpt>
      <trkpt lat="43.86379" lon="6.31907">
        <ele>1827.2</ele>
        <time>2021-07-10T11:20:56Z</time>
      </trkpt>
      <trkpt lat="43.86387" lon="6.31905">
        <ele>1828.3</ele>
        <time>2021-07-10T11:21:01Z</time>
      </trkpt>
      <trkpt lat="43.86396" lon="6.31905">
        <ele>1829.4</ele>
        <time>2021-07-10T11:21:06Z</time>
      </trkpt>
      <trkpt lat="43.86403" lon="6.31901">
        <ele>1829.8</ele>
        <time>2021-07-10T11:21:11Z</time>
      </trkpt>
      <trkpt lat="43.86399" lon="6.31893">
        <ele>1832.3</ele>
        <time>2021-07-10T11:21:16Z</time>
      </trkpt>
      <trkpt lat="43.8639" lon="6.31891">
        <ele>1834.2</ele>
        <time>2021-07-10T11:21:20Z</time>
      </trkpt>
      <trkpt lat="43.86383" lon="6.31895">
        <ele>1835.1</ele>
        <time>2021-07-10T11:21:24Z</time>
      </trkpt>
      <trkpt lat="43.86374" lon="6.31895">
        <ele>1836.1</ele>
        <time>2021-07-10T11:21:29Z</time>
      </trkpt>
      <trkpt lat="43.86365" lon="6.31896">
        <ele>1838.5</ele>
        <time>2021-07-10T11:21:34Z</time>
      </trkpt>
      <trkpt lat="43.86357" lon="6.31895">
        <ele>1839.7</ele>
        <time>2021-07-10T11:21:39Z</time>
      </trkpt>
      <trkpt lat="43.86349" lon="6.31894">
        <ele>1841.3</ele>
        <time>2021-07-10T11:21:43Z</time>
      </trkpt>
      <trkpt lat="43.86341" lon="6.31893">
        <ele>1842.3</ele>
        <time>2021-07-10T11:21:48Z</time>
      </trkpt>
      <trkpt lat="43.86332" lon="6.31894">
        <ele>1843.3</ele>
        <time>2021-07-10T11:21:53Z</time>
      </trkpt>
      <trkpt lat="43.86324" lon="6.31896">
        <ele>1843.8</ele>
        <time>2021-07-10T11:21:57Z</time>
      </trkpt>
      <trkpt lat="43.86317" lon="6.31901">
        <ele>1845</ele>
        <time>2021-07-10T11:22:01Z</time>
      </trkpt>
      <trkpt lat="43.86309" lon="6.31906">
        <ele>1846.3</ele>
        <time>2021-07-10T11:22:05Z</time>
      </trkpt>
      <trkpt lat="43.86301" lon="6.31911">
        <ele>1846.2</ele>
        <time>2021-07-10T11:22:09Z</time>
      </trkpt>
      <trkpt lat="43.86293" lon="6.31915">
        <ele>1846.6</ele>
        <time>2021-07-10T11:22:13Z</time>
      </trkpt>
      <trkpt lat="43.86286" lon="6.31919">
        <ele>1846</ele>
        <time>2021-07-10T11:22:17Z</time>
      </trkpt>
      <trkpt lat="43.86277" lon="6.31923">
        <ele>1846.6</ele>
        <time>2021-07-10T11:22:21Z</time>
      </trkpt>
      <trkpt lat="43.86269" lon="6.31927">
        <ele>1847</ele>
        <time>2021-07-10T11:22:24Z</time>
      </trkpt>
      <trkpt lat="43.86261" lon="6.31929">
        <ele>1847</ele>
        <time>2021-07-10T11:22:28Z</time>
      </trkpt>
      <trkpt lat="43.86252" lon="6.31928">
        <ele>1847.1</ele>
        <time>2021-07-10T11:22:32Z</time>
      </trkpt>
      <trkpt lat="43.86246" lon="6.3192">
        <ele>1847.6</ele>
        <time>2021-07-10T11:22:36Z</time>
      </trkpt>
      <trkpt lat="43.86243" lon="6.31909">
        <ele>1848</ele>
        <time>2021-07-10T11:22:41Z</time>
      </trkpt>
      <trkpt lat="43.86242" lon="6.31897">
        <ele>1848.6</ele>
        <time>2021-07-10T11:22:44Z</time>
      </trkpt>
      <trkpt lat="43.86242" lon="6.31885">
        <ele>1848.4</ele>
        <time>2021-07-10T11:22:48Z</time>
      </trkpt>
      <trkpt lat="43.86244" lon="6.31875">
        <ele>1847.3</ele>
        <time>2021-07-10T11:22:51Z</time>
      </trkpt>
      <trkpt lat="43.86249" lon="6.31865">
        <ele>1846.8</ele>
        <time>2021-07-10T11:22:55Z</time>
      </trkpt>
      <trkpt lat="43.86254" lon="6.31856">
        <ele>1846.5</ele>
        <time>2021-07-10T11:22:59Z</time>
      </trkpt>
      <trkpt lat="43.8626" lon="6.3185">
        <ele>1845.8</ele>
        <time>2021-07-10T11:23:03Z</time>
      </trkpt>
      <trkpt lat="43.86266" lon="6.31845">
        <ele>1846</ele>
        <time>2021-07-10T11:23:07Z</time>
      </trkpt>
      <trkpt lat="43.86274" lon="6.31838">
        <ele>1846.6</ele>
        <time>2021-07-10T11:23:12Z</time>
      </trkpt>
      <trkpt lat="43.86282" lon="6.31837">
        <ele>1847.4</ele>
        <time>2021-07-10T11:23:17Z</time>
      </trkpt>
      <trkpt lat="43.8629" lon="6.31835">
        <ele>1847.4</ele>
        <time>2021-07-10T11:23:21Z</time>
      </trkpt>
      <trkpt lat="43.86297" lon="6.31831">
        <ele>1848.7</ele>
        <time>2021-07-10T11:23:26Z</time>
      </trkpt>
      <trkpt lat="43.86304" lon="6.31826">
        <ele>1849.4</ele>
        <time>2021-07-10T11:23:30Z</time>
      </trkpt>
      <trkpt lat="43.86312" lon="6.31822">
        <ele>1849.8</ele>
        <time>2021-07-10T11:23:35Z</time>
      </trkpt>
      <trkpt lat="43.8632" lon="6.3182">
        <ele>1850.2</ele>
        <time>2021-07-10T11:23:39Z</time>
      </trkpt>
      <trkpt lat="43.86327" lon="6.31816">
        <ele>1851.6</ele>
        <time>2021-07-10T11:23:43Z</time>
      </trkpt>
      <trkpt lat="43.86336" lon="6.31812">
        <ele>1852.9</ele>
        <time>2021-07-10T11:23:48Z</time>
      </trkpt>
      <trkpt lat="43.86343" lon="6.31811">
        <ele>1853.5</ele>
        <time>2021-07-10T11:23:52Z</time>
      </trkpt>
      <trkpt lat="43.86351" lon="6.31806">
        <ele>1855.4</ele>
        <time>2021-07-10T11:23:57Z</time>
      </trkpt>
      <trkpt lat="43.86359" lon="6.31803">
        <ele>1855</ele>
        <time>2021-07-10T11:24:02Z</time>
      </trkpt>
      <trkpt lat="43.86366" lon="6.31798">
        <ele>1856.2</ele>
        <time>2021-07-10T11:24:07Z</time>
      </trkpt>
      <trkpt lat="43.86373" lon="6.31795">
        <ele>1857.3</ele>
        <time>2021-07-10T11:24:11Z</time>
      </trkpt>
      <trkpt lat="43.86381" lon="6.31791">
        <ele>1858.8</ele>
        <time>2021-07-10T11:24:16Z</time>
      </trkpt>
      <trkpt lat="43.86389" lon="6.31788">
        <ele>1859.3</ele>
        <time>2021-07-10T11:24:21Z</time>
      </trkpt>
      <trkpt lat="43.86397" lon="6.31789">
        <ele>1861.3</ele>
        <time>2021-07-10T11:24:26Z</time>
      </trkpt>
      <trkpt lat="43.86406" lon="6.31792">
        <ele>1862.5</ele>
        <time>2021-07-10T11:24:31Z</time>
      </trkpt>
      <trkpt lat="43.86414" lon="6.31796">
        <ele>1862.9</ele>
        <time>2021-07-10T11:24:36Z</time>
      </trkpt>
      <trkpt lat="43.86421" lon="6.31799">
        <ele>1864.3</ele>
        <time>2021-07-10T11:24:40Z</time>
      </trkpt>
      <trkpt lat="43.86429" lon="6.31803">
        <ele>1865.2</ele>
        <time>2021-07-10T11:24:45Z</time>
      </trkpt>
      <trkpt lat="43.86438" lon="6.31807">
        <ele>1865.4</ele>
        <time>2021-07-10T11:24:50Z</time>
      </trkpt>
      <trkpt lat="43.86446" lon="6.3181">
        <ele>1867.6</ele>
        <time>2021-07-10T11:24:55Z</time>
      </trkpt>
      <trkpt lat="43.86454" lon="6.31808">
        <ele>1869.2</ele>
        <time>2021-07-10T11:25:00Z</time>
      </trkpt>
      <trkpt lat="43.86459" lon="6.31799">
        <ele>1868.6</ele>
        <time>2021-07-10T11:25:05Z</time>
      </trkpt>
      <trkpt lat="43.86457" lon="6.31789">
        <ele>1869.2</ele>
        <time>2021-07-10T11:25:10Z</time>
      </trkpt>
      <trkpt lat="43.86457" lon="6.31788">
        <ele>1869.1</ele>
        <time>2021-07-10T11:25:17Z</time>
      </trkpt>
      <trkpt lat="43.86457" lon="6.31788">
        <ele>1869.1</ele>
        <time>2021-07-10T11:25:18Z</time>
      </trkpt>
      <trkpt lat="43.86457" lon="6.31778">
        <ele>1870.2</ele>
        <time>2021-07-10T11:25:29Z</time>
      </trkpt>
      <trkpt lat="43.86457" lon="6.31766">
        <ele>1870.4</ele>
        <time>2021-07-10T11:25:34Z</time>
      </trkpt>
      <trkpt lat="43.86458" lon="6.31756">
        <ele>1870.4</ele>
        <time>2021-07-10T11:25:38Z</time>
      </trkpt>
      <trkpt lat="43.86461" lon="6.31745">
        <ele>1869.8</ele>
        <time>2021-07-10T11:25:43Z</time>
      </trkpt>
      <trkpt lat="43.86466" lon="6.31734">
        <ele>1869.1</ele>
        <time>2021-07-10T11:25:48Z</time>
      </trkpt>
      <trkpt lat="43.86471" lon="6.31724">
        <ele>1870</ele>
        <time>2021-07-10T11:25:53Z</time>
      </trkpt>
      <trkpt lat="43.86476" lon="6.31717">
        <ele>1870.7</ele>
        <time>2021-07-10T11:25:57Z</time>
      </trkpt>
      <trkpt lat="43.8648" lon="6.31708">
        <ele>1870.5</ele>
        <time>2021-07-10T11:26:01Z</time>
      </trkpt>
      <trkpt lat="43.86483" lon="6.31699">
        <ele>1872.5</ele>
        <time>2021-07-10T11:26:05Z</time>
      </trkpt>
      <trkpt lat="43.86486" lon="6.31687">
        <ele>1873.4</ele>
        <time>2021-07-10T11:26:10Z</time>
      </trkpt>
      <trkpt lat="43.86486" lon="6.31676">
        <ele>1875.5</ele>
        <time>2021-07-10T11:26:15Z</time>
      </trkpt>
      <trkpt lat="43.86487" lon="6.31663">
        <ele>1877.5</ele>
        <time>2021-07-10T11:26:20Z</time>
      </trkpt>
      <trkpt lat="43.86487" lon="6.31653">
        <ele>1879.5</ele>
        <time>2021-07-10T11:26:24Z</time>
      </trkpt>
      <trkpt lat="43.86487" lon="6.31643">
        <ele>1881</ele>
        <time>2021-07-10T11:26:28Z</time>
      </trkpt>
      <trkpt lat="43.8649" lon="6.31631">
        <ele>1881.6</ele>
        <time>2021-07-10T11:26:33Z</time>
      </trkpt>
      <trkpt lat="43.86494" lon="6.3162">
        <ele>1882.8</ele>
        <time>2021-07-10T11:26:38Z</time>
      </trkpt>
      <trkpt lat="43.86499" lon="6.31611">
        <ele>1884.9</ele>
        <time>2021-07-10T11:26:43Z</time>
      </trkpt>
      <trkpt lat="43.86506" lon="6.31606">
        <ele>1885.4</ele>
        <time>2021-07-10T11:26:47Z</time>
      </trkpt>
      <trkpt lat="43.86515" lon="6.31605">
        <ele>1886.4</ele>
        <time>2021-07-10T11:26:52Z</time>
      </trkpt>
      <trkpt lat="43.8652" lon="6.31608">
        <ele>1886.6</ele>
        <time>2021-07-10T11:26:59Z</time>
      </trkpt>
      <trkpt lat="43.8652" lon="6.31608">
        <ele>1886.8</ele>
        <time>2021-07-10T11:27:03Z</time>
      </trkpt>
      <trkpt lat="43.86525" lon="6.31615">
        <ele>1886.9</ele>
        <time>2021-07-10T11:27:10Z</time>
      </trkpt>
      <trkpt lat="43.8653" lon="6.31625">
        <ele>1888.1</ele>
        <time>2021-07-10T11:27:15Z</time>
      </trkpt>
      <trkpt lat="43.86533" lon="6.31635">
        <ele>1888.5</ele>
        <time>2021-07-10T11:27:19Z</time>
      </trkpt>
      <trkpt lat="43.86536" lon="6.31646">
        <ele>1888.2</ele>
        <time>2021-07-10T11:27:24Z</time>
      </trkpt>
      <trkpt lat="43.86537" lon="6.31657">
        <ele>1889.8</ele>
        <time>2021-07-10T11:27:29Z</time>
      </trkpt>
      <trkpt lat="43.86539" lon="6.31666">
        <ele>1891.9</ele>
        <time>2021-07-10T11:27:34Z</time>
      </trkpt>
      <trkpt lat="43.8654" lon="6.31677">
        <ele>1892.2</ele>
        <time>2021-07-10T11:27:38Z</time>
      </trkpt>
      <trkpt lat="43.86542" lon="6.31687">
        <ele>1893</ele>
        <time>2021-07-10T11:27:42Z</time>
      </trkpt>
      <trkpt lat="43.86542" lon="6.31698">
        <ele>1893.2</ele>
        <time>2021-07-10T11:27:46Z</time>
      </trkpt>
      <trkpt lat="43.86542" lon="6.3171">
        <ele>1893.5</ele>
        <time>2021-07-10T11:27:51Z</time>
      </trkpt>
      <trkpt lat="43.86542" lon="6.3172">
        <ele>1893.4</ele>
        <time>2021-07-10T11:27:55Z</time>
      </trkpt>
      <trkpt lat="43.86544" lon="6.31732">
        <ele>1894.5</ele>
        <time>2021-07-10T11:28:00Z</time>
      </trkpt>
      <trkpt lat="43.86544" lon="6.31742">
        <ele>1897.3</ele>
        <time>2021-07-10T11:28:04Z</time>
      </trkpt>
      <trkpt lat="43.86545" lon="6.31753">
        <ele>1898.4</ele>
        <time>2021-07-10T11:28:08Z</time>
      </trkpt>
      <trkpt lat="43.86547" lon="6.31764">
        <ele>1900</ele>
        <time>2021-07-10T11:28:12Z</time>
      </trkpt>
      <trkpt lat="43.86551" lon="6.31774">
        <ele>1902.6</ele>
        <time>2021-07-10T11:28:17Z</time>
      </trkpt>
      <trkpt lat="43.86553" lon="6.31785">
        <ele>1902.9</ele>
        <time>2021-07-10T11:28:21Z</time>
      </trkpt>
      <trkpt lat="43.86557" lon="6.31795">
        <ele>1904.8</ele>
        <time>2021-07-10T11:28:25Z</time>
      </trkpt>
      <trkpt lat="43.86565" lon="6.31802">
        <ele>1907.8</ele>
        <time>2021-07-10T11:28:30Z</time>
      </trkpt>
      <trkpt lat="43.86572" lon="6.31807">
        <ele>1908.5</ele>
        <time>2021-07-10T11:28:34Z</time>
      </trkpt>
      <trkpt lat="43.86577" lon="6.31816">
        <ele>1900.9</ele>
        <time>2021-07-10T11:28:37Z</time>
      </trkpt>
      <trkpt lat="43.86583" lon="6.31824">
        <ele>1899.9</ele>
        <time>2021-07-10T11:28:41Z</time>
      </trkpt>
      <trkpt lat="43.8659" lon="6.3183">
        <ele>1901.5</ele>
        <time>2021-07-10T11:28:45Z</time>
      </trkpt>
      <trkpt lat="43.86598" lon="6.31833">
        <ele>1901.1</ele>
        <time>2021-07-10T11:28:49Z</time>
      </trkpt>
      <trkpt lat="43.86607" lon="6.31833">
        <ele>1904.4</ele>
        <time>2021-07-10T11:28:53Z</time>
      </trkpt>
      <trkpt lat="43.86615" lon="6.31831">
        <ele>1906</ele>
        <time>2021-07-10T11:28:57Z</time>
      </trkpt>
      <trkpt lat="43.86623" lon="6.31825">
        <ele>1907.2</ele>
        <time>2021-07-10T11:29:02Z</time>
      </trkpt>
      <trkpt lat="43.8663" lon="6.31817">
        <ele>1908.2</ele>
        <time>2021-07-10T11:29:07Z</time>
      </trkpt>
      <trkpt lat="43.86637" lon="6.31809">
        <ele>1908.7</ele>
        <time>2021-07-10T11:29:12Z</time>
      </trkpt>
      <trkpt lat="43.86643" lon="6.31801">
        <ele>1909</ele>
        <time>2021-07-10T11:29:17Z</time>
      </trkpt>
      <trkpt lat="43.86645" lon="6.3179">
        <ele>1909.5</ele>
        <time>2021-07-10T11:29:22Z</time>
      </trkpt>
      <trkpt lat="43.86643" lon="6.31781">
        <ele>1913.2</ele>
        <time>2021-07-10T11:29:27Z</time>
      </trkpt>
      <trkpt lat="43.86639" lon="6.31771">
        <ele>1914.7</ele>
        <time>2021-07-10T11:29:32Z</time>
      </trkpt>
      <trkpt lat="43.86632" lon="6.31764">
        <ele>1916.1</ele>
        <time>2021-07-10T11:29:37Z</time>
      </trkpt>
      <trkpt lat="43.86625" lon="6.31757">
        <ele>1917</ele>
        <time>2021-07-10T11:29:42Z</time>
      </trkpt>
      <trkpt lat="43.86621" lon="6.31749">
        <ele>1917.7</ele>
        <time>2021-07-10T11:29:46Z</time>
      </trkpt>
      <trkpt lat="43.86618" lon="6.31739">
        <ele>1917.8</ele>
        <time>2021-07-10T11:29:50Z</time>
      </trkpt>
      <trkpt lat="43.86616" lon="6.31728">
        <ele>1919</ele>
        <time>2021-07-10T11:29:55Z</time>
      </trkpt>
      <trkpt lat="43.86618" lon="6.31717">
        <ele>1920.4</ele>
        <time>2021-07-10T11:30:00Z</time>
      </trkpt>
      <trkpt lat="43.86622" lon="6.31707">
        <ele>1921.2</ele>
        <time>2021-07-10T11:30:05Z</time>
      </trkpt>
      <trkpt lat="43.86627" lon="6.31699">
        <ele>1921.3</ele>
        <time>2021-07-10T11:30:09Z</time>
      </trkpt>
      <trkpt lat="43.86632" lon="6.31692">
        <ele>1921.9</ele>
        <time>2021-07-10T11:30:13Z</time>
      </trkpt>
      <trkpt lat="43.86638" lon="6.31684">
        <ele>1922.7</ele>
        <time>2021-07-10T11:30:17Z</time>
      </trkpt>
      <trkpt lat="43.86642" lon="6.31679">
        <ele>1923.4</ele>
        <time>2021-07-10T11:30:24Z</time>
      </trkpt>
      <trkpt lat="43.86641" lon="6.31679">
        <ele>1924.1</ele>
        <time>2021-07-10T11:30:28Z</time>
      </trkpt>
      <trkpt lat="43.8664" lon="6.3168">
        <ele>1924.1</ele>
        <time>2021-07-10T11:30:38Z</time>
      </trkpt>
      <trkpt lat="43.8664" lon="6.3168">
        <ele>1924.1</ele>
        <time>2021-07-10T11:30:39Z</time>
      </trkpt>
      <trkpt lat="43.86645" lon="6.31673">
        <ele>1924.4</ele>
        <time>2021-07-10T11:30:49Z</time>
      </trkpt>
      <trkpt lat="43.86652" lon="6.31665">
        <ele>1926.4</ele>
        <time>2021-07-10T11:30:54Z</time>
      </trkpt>
      <trkpt lat="43.86658" lon="6.31659">
        <ele>1926.1</ele>
        <time>2021-07-10T11:30:58Z</time>
      </trkpt>
      <trkpt lat="43.86666" lon="6.31653">
        <ele>1926.1</ele>
        <time>2021-07-10T11:31:02Z</time>
      </trkpt>
      <trkpt lat="43.86673" lon="6.31647">
        <ele>1926.2</ele>
        <time>2021-07-10T11:31:06Z</time>
      </trkpt>
      <trkpt lat="43.86681" lon="6.31643">
        <ele>1925.8</ele>
        <time>2021-07-10T11:31:10Z</time>
      </trkpt>
      <trkpt lat="43.86688" lon="6.31638">
        <ele>1926.4</ele>
        <time>2021-07-10T11:31:14Z</time>
      </trkpt>
      <trkpt lat="43.86695" lon="6.31633">
        <ele>1928</ele>
        <time>2021-07-10T11:31:18Z</time>
      </trkpt>
      <trkpt lat="43.86701" lon="6.3163">
        <ele>1929.2</ele>
        <time>2021-07-10T11:31:22Z</time>
      </trkpt>
      <trkpt lat="43.86708" lon="6.31628">
        <ele>1931.1</ele>
        <time>2021-07-10T11:31:26Z</time>
      </trkpt>
      <trkpt lat="43.86717" lon="6.31629">
        <ele>1931.9</ele>
        <time>2021-07-10T11:31:31Z</time>
      </trkpt>
      <trkpt lat="43.86726" lon="6.31629">
        <ele>1933.4</ele>
        <time>2021-07-10T11:31:36Z</time>
      </trkpt>
      <trkpt lat="43.86733" lon="6.31632">
        <ele>1933.3</ele>
        <time>2021-07-10T11:31:41Z</time>
      </trkpt>
      <trkpt lat="43.86737" lon="6.31641">
        <ele>1934.4</ele>
        <time>2021-07-10T11:31:45Z</time>
      </trkpt>
      <trkpt lat="43.86735" lon="6.31652">
        <ele>1933.2</ele>
        <time>2021-07-10T11:31:49Z</time>
      </trkpt>
      <trkpt lat="43.86732" lon="6.31663">
        <ele>1932.4</ele>
        <time>2021-07-10T11:31:53Z</time>
      </trkpt>
      <trkpt lat="43.86735" lon="6.31674">
        <ele>1933.8</ele>
        <time>2021-07-10T11:31:57Z</time>
      </trkpt>
      <trkpt lat="43.86739" lon="6.31683">
        <ele>1934.1</ele>
        <time>2021-07-10T11:32:01Z</time>
      </trkpt>
      <trkpt lat="43.86745" lon="6.31692">
        <ele>1934.5</ele>
        <time>2021-07-10T11:32:05Z</time>
      </trkpt>
      <trkpt lat="43.8675" lon="6.31698">
        <ele>1935.5</ele>
        <time>2021-07-10T11:32:09Z</time>
      </trkpt>
      <trkpt lat="43.86756" lon="6.31705">
        <ele>1936.8</ele>
        <time>2021-07-10T11:32:13Z</time>
      </trkpt>
      <trkpt lat="43.8676" lon="6.31713">
        <ele>1936.8</ele>
        <time>2021-07-10T11:32:17Z</time>
      </trkpt>
      <trkpt lat="43.86767" lon="6.3172">
        <ele>1938.8</ele>
        <time>2021-07-10T11:32:22Z</time>
      </trkpt>
      <trkpt lat="43.86774" lon="6.31728">
        <ele>1939.9</ele>
        <time>2021-07-10T11:32:27Z</time>
      </trkpt>
      <trkpt lat="43.86782" lon="6.31725">
        <ele>1944.4</ele>
        <time>2021-07-10T11:32:32Z</time>
      </trkpt>
      <trkpt lat="43.86789" lon="6.31719">
        <ele>1945</ele>
        <time>2021-07-10T11:32:37Z</time>
      </trkpt>
      <trkpt lat="43.86795" lon="6.31712">
        <ele>1944.3</ele>
        <time>2021-07-10T11:32:42Z</time>
      </trkpt>
      <trkpt lat="43.86799" lon="6.31707">
        <ele>1948</ele>
        <time>2021-07-10T11:32:49Z</time>
      </trkpt>
      <trkpt lat="43.86798" lon="6.31706">
        <ele>1949.4</ele>
        <time>2021-07-10T11:32:54Z</time>
      </trkpt>
      <trkpt lat="43.86803" lon="6.31699">
        <ele>1950.7</ele>
        <time>2021-07-10T11:33:02Z</time>
      </trkpt>
      <trkpt lat="43.8681" lon="6.31696">
        <ele>1952.8</ele>
        <time>2021-07-10T11:33:07Z</time>
      </trkpt>
      <trkpt lat="43.86818" lon="6.31693">
        <ele>1953.8</ele>
        <time>2021-07-10T11:33:12Z</time>
      </trkpt>
      <trkpt lat="43.86825" lon="6.3169">
        <ele>1955.1</ele>
        <time>2021-07-10T11:33:16Z</time>
      </trkpt>
      <trkpt lat="43.86832" lon="6.31688">
        <ele>1956.4</ele>
        <time>2021-07-10T11:33:20Z</time>
      </trkpt>
      <trkpt lat="43.86838" lon="6.31683">
        <ele>1959.3</ele>
        <time>2021-07-10T11:33:27Z</time>
      </trkpt>
      <trkpt lat="43.86838" lon="6.31683">
        <ele>1958.9</ele>
        <time>2021-07-10T11:33:33Z</time>
      </trkpt>
      <trkpt lat="43.86837" lon="6.31685">
        <ele>1958.8</ele>
        <time>2021-07-10T11:33:44Z</time>
      </trkpt>
      <trkpt lat="43.86837" lon="6.31685">
        <ele>1958.7</ele>
        <time>2021-07-10T11:33:45Z</time>
      </trkpt>
      <trkpt lat="43.8684" lon="6.31682">
        <ele>1957</ele>
        <time>2021-07-10T11:33:53Z</time>
      </trkpt>
      <trkpt lat="43.8684" lon="6.31682">
        <ele>1957.1</ele>
        <time>2021-07-10T11:33:57Z</time>
      </trkpt>
      <trkpt lat="43.86838" lon="6.31682">
        <ele>1958.9</ele>
        <time>2021-07-10T11:34:08Z</time>
      </trkpt>
      <trkpt lat="43.86839" lon="6.31682">
        <ele>1958.5</ele>
        <time>2021-07-10T11:34:15Z</time>
      </trkpt>
      <trkpt lat="43.8684" lon="6.31682">
        <ele>1958.3</ele>
        <time>2021-07-10T11:34:20Z</time>
      </trkpt>
      <trkpt lat="43.86836" lon="6.31684">
        <ele>1958.9</ele>
        <time>2021-07-10T11:34:28Z</time>
      </trkpt>
      <trkpt lat="43.86839" lon="6.31683">
        <ele>1958.8</ele>
        <time>2021-07-10T11:34:35Z</time>
      </trkpt>
      <trkpt lat="43.86842" lon="6.31682">
        <ele>1956.2</ele>
        <time>2021-07-10T11:34:42Z</time>
      </trkpt>
      <trkpt lat="43.86841" lon="6.31682">
        <ele>1956.3</ele>
        <time>2021-07-10T11:34:46Z</time>
      </trkpt>
      <trkpt lat="43.86842" lon="6.31682">
        <ele>1956.2</ele>
        <time>2021-07-10T11:34:54Z</time>
      </trkpt>
      <trkpt lat="43.86776" lon="6.31706">
        <ele>1945.9</ele>
        <time>2021-07-10T12:16:56Z</time>
      </trkpt>
      <trkpt lat="43.86777" lon="6.31701">
        <ele>1944.8</ele>
        <time>2021-07-10T12:17:03Z</time>
      </trkpt>
      <trkpt lat="43.86775" lon="6.31702">
        <ele>1945.2</ele>
        <time>2021-07-10T12:17:07Z</time>
      </trkpt>
      <trkpt lat="43.86775" lon="6.31703">
        <ele>1946.7</ele>
        <time>2021-07-10T12:17:15Z</time>
      </trkpt>
      <trkpt lat="43.86768" lon="6.31708">
        <ele>1946.8</ele>
        <time>2021-07-10T12:17:22Z</time>
      </trkpt>
      <trkpt lat="43.86766" lon="6.31701">
        <ele>1948</ele>
        <time>2021-07-10T12:17:29Z</time>
      </trkpt>
      <trkpt lat="43.86763" lon="6.31692">
        <ele>1947.3</ele>
        <time>2021-07-10T12:17:36Z</time>
      </trkpt>
      <trkpt lat="43.86763" lon="6.31689">
        <ele>1947.5</ele>
        <time>2021-07-10T12:17:43Z</time>
      </trkpt>
      <trkpt lat="43.86764" lon="6.31681">
        <ele>1946.4</ele>
        <time>2021-07-10T12:17:50Z</time>
      </trkpt>
      <trkpt lat="43.8676" lon="6.31673">
        <ele>1948.7</ele>
        <time>2021-07-10T12:17:57Z</time>
      </trkpt>
      <trkpt lat="43.8676" lon="6.31665">
        <ele>1949.8</ele>
        <time>2021-07-10T12:18:04Z</time>
      </trkpt>
      <trkpt lat="43.8676" lon="6.31663">
        <ele>1950.2</ele>
        <time>2021-07-10T12:18:11Z</time>
      </trkpt>
      <trkpt lat="43.8676" lon="6.31663">
        <ele>1950.2</ele>
        <time>2021-07-10T12:18:13Z</time>
      </trkpt>
      <trkpt lat="43.86765" lon="6.31661">
        <ele>1952.2</ele>
        <time>2021-07-10T12:18:23Z</time>
      </trkpt>
      <trkpt lat="43.86768" lon="6.31662">
        <ele>1954.5</ele>
        <time>2021-07-10T12:18:30Z</time>
      </trkpt>
      <trkpt lat="43.86768" lon="6.31661">
        <ele>1954.1</ele>
        <time>2021-07-10T12:18:33Z</time>
      </trkpt>
      <trkpt lat="43.86774" lon="6.31661">
        <ele>1955.7</ele>
        <time>2021-07-10T12:18:48Z</time>
      </trkpt>
      <trkpt lat="43.86779" lon="6.31662">
        <ele>1956.6</ele>
        <time>2021-07-10T12:18:55Z</time>
      </trkpt>
      <trkpt lat="43.86783" lon="6.31663">
        <ele>1956.1</ele>
        <time>2021-07-10T12:19:02Z</time>
      </trkpt>
      <trkpt lat="43.86785" lon="6.31665">
        <ele>1957.1</ele>
        <time>2021-07-10T12:19:09Z</time>
      </trkpt>
      <trkpt lat="43.86785" lon="6.31665">
        <ele>1957.2</ele>
        <time>2021-07-10T12:19:13Z</time>
      </trkpt>
      <trkpt lat="43.86786" lon="6.31664">
        <ele>1955.7</ele>
        <time>2021-07-10T12:19:25Z</time>
      </trkpt>
      <trkpt lat="43.86786" lon="6.31665">
        <ele>1955.9</ele>
        <time>2021-07-10T12:19:26Z</time>
      </trkpt>
      <trkpt lat="43.86784" lon="6.31665">
        <ele>1958</ele>
        <time>2021-07-10T12:19:37Z</time>
      </trkpt>
      <trkpt lat="43.86784" lon="6.31665">
        <ele>1958.1</ele>
        <time>2021-07-10T12:19:38Z</time>
      </trkpt>
      <trkpt lat="43.86788" lon="6.31668">
        <ele>1957.3</ele>
        <time>2021-07-10T12:20:02Z</time>
      </trkpt>
      <trkpt lat="43.86791" lon="6.31669">
        <ele>1959.9</ele>
        <time>2021-07-10T12:20:09Z</time>
      </trkpt>
      <trkpt lat="43.86795" lon="6.31671">
        <ele>1959.6</ele>
        <time>2021-07-10T12:20:16Z</time>
      </trkpt>
      <trkpt lat="43.86801" lon="6.31671">
        <ele>1959.8</ele>
        <time>2021-07-10T12:20:23Z</time>
      </trkpt>
      <trkpt lat="43.86802" lon="6.31671">
        <ele>1959.1</ele>
        <time>2021-07-10T12:20:30Z</time>
      </trkpt>
      <trkpt lat="43.86803" lon="6.31671">
        <ele>1958.6</ele>
        <time>2021-07-10T12:20:32Z</time>
      </trkpt>
      <trkpt lat="43.86809" lon="6.31672">
        <ele>1958.5</ele>
        <time>2021-07-10T12:21:10Z</time>
      </trkpt>
      <trkpt lat="43.86817" lon="6.31669">
        <ele>1957.3</ele>
        <time>2021-07-10T12:21:16Z</time>
      </trkpt>
      <trkpt lat="43.86821" lon="6.31668">
        <ele>1959.9</ele>
        <time>2021-07-10T12:21:23Z</time>
      </trkpt>
      <trkpt lat="43.86826" lon="6.31672">
        <ele>1959.8</ele>
        <time>2021-07-10T12:21:30Z</time>
      </trkpt>
      <trkpt lat="43.86829" lon="6.31676">
        <ele>1961.5</ele>
        <time>2021-07-10T12:21:37Z</time>
      </trkpt>
      <trkpt lat="43.86832" lon="6.31678">
        <ele>1960.7</ele>
        <time>2021-07-10T12:21:44Z</time>
      </trkpt>
      <trkpt lat="43.86838" lon="6.3168">
        <ele>1958.2</ele>
        <time>2021-07-10T12:21:51Z</time>
      </trkpt>
      <trkpt lat="43.86834" lon="6.31689">
        <ele>1955.6</ele>
        <time>2021-07-10T12:21:57Z</time>
      </trkpt>
      <trkpt lat="43.86826" lon="6.31693">
        <ele>1954.2</ele>
        <time>2021-07-10T12:22:04Z</time>
      </trkpt>
      <trkpt lat="43.8682" lon="6.31695">
        <ele>1953.3</ele>
        <time>2021-07-10T12:22:11Z</time>
      </trkpt>
      <trkpt lat="43.86816" lon="6.31697">
        <ele>1951.8</ele>
        <time>2021-07-10T12:22:18Z</time>
      </trkpt>
      <trkpt lat="43.86813" lon="6.31699">
        <ele>1951.2</ele>
        <time>2021-07-10T12:22:25Z</time>
      </trkpt>
      <trkpt lat="43.86807" lon="6.31703">
        <ele>1950.1</ele>
        <time>2021-07-10T12:22:32Z</time>
      </trkpt>
      <trkpt lat="43.86799" lon="6.31707">
        <ele>1950.4</ele>
        <time>2021-07-10T12:22:38Z</time>
      </trkpt>
      <trkpt lat="43.86796" lon="6.31707">
        <ele>1949.2</ele>
        <time>2021-07-10T12:22:45Z</time>
      </trkpt>
      <trkpt lat="43.86795" lon="6.31707">
        <ele>1949.3</ele>
        <time>2021-07-10T12:22:49Z</time>
      </trkpt>
      <trkpt lat="43.86794" lon="6.31707">
        <ele>1948.6</ele>
        <time>2021-07-10T12:23:29Z</time>
      </trkpt>
      <trkpt lat="43.86795" lon="6.31707">
        <ele>1948.8</ele>
        <time>2021-07-10T12:23:30Z</time>
      </trkpt>
      <trkpt lat="43.86793" lon="6.31708">
        <ele>1949.8</ele>
        <time>2021-07-10T12:23:43Z</time>
      </trkpt>
      <trkpt lat="43.86792" lon="6.3171">
        <ele>1951.1</ele>
        <time>2021-07-10T12:23:50Z</time>
      </trkpt>
      <trkpt lat="43.8679" lon="6.31705">
        <ele>1952.4</ele>
        <time>2021-07-10T12:23:57Z</time>
      </trkpt>
      <trkpt lat="43.8679" lon="6.31705">
        <ele>1952.3</ele>
        <time>2021-07-10T12:24:04Z</time>
      </trkpt>
      <trkpt lat="43.86788" lon="6.31706">
        <ele>1951.8</ele>
        <time>2021-07-10T12:24:11Z</time>
      </trkpt>
      <trkpt lat="43.86791" lon="6.31709">
        <ele>1952.6</ele>
        <time>2021-07-10T12:24:18Z</time>
      </trkpt>
      <trkpt lat="43.86789" lon="6.31703">
        <ele>1950</ele>
        <time>2021-07-10T13:10:09Z</time>
      </trkpt>
      <trkpt lat="43.86789" lon="6.31703">
        <ele>1949.9</ele>
        <time>2021-07-10T13:10:10Z</time>
      </trkpt>
      <trkpt lat="43.86789" lon="6.31704">
        <ele>1952.1</ele>
        <time>2021-07-10T13:10:34Z</time>
      </trkpt>
      <trkpt lat="43.86789" lon="6.31705">
        <ele>1952.5</ele>
        <time>2021-07-10T13:10:35Z</time>
      </trkpt>
      <trkpt lat="43.86787" lon="6.31712">
        <ele>1954.8</ele>
        <time>2021-07-10T13:10:43Z</time>
      </trkpt>
      <trkpt lat="43.86788" lon="6.31711">
        <ele>1955.2</ele>
        <time>2021-07-10T13:10:50Z</time>
      </trkpt>
      <trkpt lat="43.86787" lon="6.31711">
        <ele>1954.4</ele>
        <time>2021-07-10T13:11:07Z</time>
      </trkpt>
      <trkpt lat="43.86788" lon="6.3171">
        <ele>1954.5</ele>
        <time>2021-07-10T13:11:08Z</time>
      </trkpt>
      <trkpt lat="43.86787" lon="6.31712">
        <ele>1953.8</ele>
        <time>2021-07-10T13:11:37Z</time>
      </trkpt>
      <trkpt lat="43.86787" lon="6.31712">
        <ele>1953.9</ele>
        <time>2021-07-10T13:11:38Z</time>
      </trkpt>
      <trkpt lat="43.86787" lon="6.31713">
        <ele>1954.3</ele>
        <time>2021-07-10T13:12:05Z</time>
      </trkpt>
      <trkpt lat="43.86787" lon="6.31713">
        <ele>1954.5</ele>
        <time>2021-07-10T13:12:06Z</time>
      </trkpt>
      <trkpt lat="43.86786" lon="6.31717">
        <ele>1956.5</ele>
        <time>2021-07-10T13:12:19Z</time>
      </trkpt>
      <trkpt lat="43.86779" lon="6.31722">
        <ele>1955.4</ele>
        <time>2021-07-10T13:12:25Z</time>
      </trkpt>
      <trkpt lat="43.86771" lon="6.3172">
        <ele>1954.5</ele>
        <time>2021-07-10T13:12:29Z</time>
      </trkpt>
      <trkpt lat="43.86765" lon="6.31714">
        <ele>1952.5</ele>
        <time>2021-07-10T13:12:33Z</time>
      </trkpt>
      <trkpt lat="43.86758" lon="6.31706">
        <ele>1951.6</ele>
        <time>2021-07-10T13:12:37Z</time>
      </trkpt>
      <trkpt lat="43.86755" lon="6.31701">
        <ele>1949.2</ele>
        <time>2021-07-10T13:12:44Z</time>
      </trkpt>
      <trkpt lat="43.86755" lon="6.31699">
        <ele>1948.8</ele>
        <time>2021-07-10T13:12:51Z</time>
      </trkpt>
      <trkpt lat="43.86755" lon="6.31699">
        <ele>1948.9</ele>
        <time>2021-07-10T13:12:56Z</time>
      </trkpt>
      <trkpt lat="43.86754" lon="6.31699">
        <ele>1948.2</ele>
        <time>2021-07-10T13:13:09Z</time>
      </trkpt>
      <trkpt lat="43.86754" lon="6.31699">
        <ele>1947.7</ele>
        <time>2021-07-10T13:13:10Z</time>
      </trkpt>
      <trkpt lat="43.86753" lon="6.31701">
        <ele>1946.8</ele>
        <time>2021-07-10T13:13:18Z</time>
      </trkpt>
      <trkpt lat="43.86753" lon="6.31701">
        <ele>1946.5</ele>
        <time>2021-07-10T13:13:19Z</time>
      </trkpt>
      <trkpt lat="43.86753" lon="6.31702">
        <ele>1945.8</ele>
        <time>2021-07-10T13:13:29Z</time>
      </trkpt>
      <trkpt lat="43.86753" lon="6.31702">
        <ele>1945.9</ele>
        <time>2021-07-10T13:13:30Z</time>
      </trkpt>
      <trkpt lat="43.86753" lon="6.317">
        <ele>1945</ele>
        <time>2021-07-10T13:13:40Z</time>
      </trkpt>
      <trkpt lat="43.86754" lon="6.31699">
        <ele>1946.3</ele>
        <time>2021-07-10T13:13:47Z</time>
      </trkpt>
      <trkpt lat="43.86754" lon="6.31699">
        <ele>1946.2</ele>
        <time>2021-07-10T13:13:49Z</time>
      </trkpt>
      <trkpt lat="43.86755" lon="6.31703">
        <ele>1944.5</ele>
        <time>2021-07-10T13:14:07Z</time>
      </trkpt>
      <trkpt lat="43.86755" lon="6.31703">
        <ele>1945</ele>
        <time>2021-07-10T13:14:14Z</time>
      </trkpt>
      <trkpt lat="43.86755" lon="6.31701">
        <ele>1944.9</ele>
        <time>2021-07-10T13:14:29Z</time>
      </trkpt>
      <trkpt lat="43.86755" lon="6.31701">
        <ele>1945</ele>
        <time>2021-07-10T13:14:30Z</time>
      </trkpt>
      <trkpt lat="43.86753" lon="6.31701">
        <ele>1944.4</ele>
        <time>2021-07-10T13:14:38Z</time>
      </trkpt>
      <trkpt lat="43.86753" lon="6.31701">
        <ele>1944.5</ele>
        <time>2021-07-10T13:14:39Z</time>
      </trkpt>
      <trkpt lat="43.86749" lon="6.31692">
        <ele>1945.2</ele>
        <time>2021-07-10T13:14:50Z</time>
      </trkpt>
      <trkpt lat="43.86743" lon="6.31683">
        <ele>1945.5</ele>
        <time>2021-07-10T13:14:55Z</time>
      </trkpt>
      <trkpt lat="43.86737" lon="6.31674">
        <ele>1944.8</ele>
        <time>2021-07-10T13:14:59Z</time>
      </trkpt>
      <trkpt lat="43.86734" lon="6.31663">
        <ele>1942.5</ele>
        <time>2021-07-10T13:15:02Z</time>
      </trkpt>
      <trkpt lat="43.86732" lon="6.31653">
        <ele>1941.1</ele>
        <time>2021-07-10T13:15:07Z</time>
      </trkpt>
      <trkpt lat="43.8673" lon="6.31647">
        <ele>1939</ele>
        <time>2021-07-10T13:15:14Z</time>
      </trkpt>
      <trkpt lat="43.8673" lon="6.31648">
        <ele>1939.4</ele>
        <time>2021-07-10T13:15:19Z</time>
      </trkpt>
      <trkpt lat="43.86731" lon="6.31647">
        <ele>1939</ele>
        <time>2021-07-10T13:15:26Z</time>
      </trkpt>
      <trkpt lat="43.86731" lon="6.31647">
        <ele>1939.1</ele>
        <time>2021-07-10T13:15:27Z</time>
      </trkpt>
      <trkpt lat="43.86731" lon="6.31648">
        <ele>1940</ele>
        <time>2021-07-10T13:15:36Z</time>
      </trkpt>
      <trkpt lat="43.8673" lon="6.31647">
        <ele>1940.2</ele>
        <time>2021-07-10T13:15:43Z</time>
      </trkpt>
      <trkpt lat="43.8673" lon="6.31647">
        <ele>1940.1</ele>
        <time>2021-07-10T13:15:44Z</time>
      </trkpt>
      <trkpt lat="43.86729" lon="6.31647">
        <ele>1941.8</ele>
        <time>2021-07-10T13:15:52Z</time>
      </trkpt>
      <trkpt lat="43.8673" lon="6.31647">
        <ele>1942.3</ele>
        <time>2021-07-10T13:15:55Z</time>
      </trkpt>
      <trkpt lat="43.8673" lon="6.31648">
        <ele>1941.9</ele>
        <time>2021-07-10T13:16:15Z</time>
      </trkpt>
      <trkpt lat="43.86731" lon="6.31648">
        <ele>1941.9</ele>
        <time>2021-07-10T13:16:16Z</time>
      </trkpt>
      <trkpt lat="43.86733" lon="6.31648">
        <ele>1942.5</ele>
        <time>2021-07-10T13:16:25Z</time>
      </trkpt>
      <trkpt lat="43.86733" lon="6.31647">
        <ele>1941.1</ele>
        <time>2021-07-10T13:16:30Z</time>
      </trkpt>
      <trkpt lat="43.8673" lon="6.31637">
        <ele>1939.9</ele>
        <time>2021-07-10T13:16:37Z</time>
      </trkpt>
      <trkpt lat="43.86721" lon="6.31635">
        <ele>1938.8</ele>
        <time>2021-07-10T13:16:41Z</time>
      </trkpt>
      <trkpt lat="43.86712" lon="6.31636">
        <ele>1938</ele>
        <time>2021-07-10T13:16:45Z</time>
      </trkpt>
      <trkpt lat="43.86704" lon="6.31636">
        <ele>1937.3</ele>
        <time>2021-07-10T13:16:48Z</time>
      </trkpt>
      <trkpt lat="43.86694" lon="6.31638">
        <ele>1936.2</ele>
        <time>2021-07-10T13:16:51Z</time>
      </trkpt>
      <trkpt lat="43.86684" lon="6.31643">
        <ele>1935.8</ele>
        <time>2021-07-10T13:16:54Z</time>
      </trkpt>
      <trkpt lat="43.86676" lon="6.31647">
        <ele>1934.6</ele>
        <time>2021-07-10T13:16:56Z</time>
      </trkpt>
      <trkpt lat="43.86668" lon="6.31653">
        <ele>1933.3</ele>
        <time>2021-07-10T13:16:58Z</time>
      </trkpt>
      <trkpt lat="43.86661" lon="6.31659">
        <ele>1933</ele>
        <time>2021-07-10T13:17:00Z</time>
      </trkpt>
      <trkpt lat="43.86656" lon="6.31664">
        <ele>1931.9</ele>
        <time>2021-07-10T13:17:02Z</time>
      </trkpt>
      <trkpt lat="43.86649" lon="6.31672">
        <ele>1931.2</ele>
        <time>2021-07-10T13:17:04Z</time>
      </trkpt>
      <trkpt lat="43.86643" lon="6.31679">
        <ele>1930.6</ele>
        <time>2021-07-10T13:17:06Z</time>
      </trkpt>
      <trkpt lat="43.86636" lon="6.31689">
        <ele>1930.1</ele>
        <time>2021-07-10T13:17:09Z</time>
      </trkpt>
      <trkpt lat="43.86631" lon="6.31697">
        <ele>1929.8</ele>
        <time>2021-07-10T13:17:11Z</time>
      </trkpt>
      <trkpt lat="43.86625" lon="6.31707">
        <ele>1928.2</ele>
        <time>2021-07-10T13:17:14Z</time>
      </trkpt>
      <trkpt lat="43.8662" lon="6.31718">
        <ele>1927.3</ele>
        <time>2021-07-10T13:17:17Z</time>
      </trkpt>
      <trkpt lat="43.86618" lon="6.31729">
        <ele>1926</ele>
        <time>2021-07-10T13:17:20Z</time>
      </trkpt>
      <trkpt lat="43.86619" lon="6.3174">
        <ele>1924.7</ele>
        <time>2021-07-10T13:17:23Z</time>
      </trkpt>
      <trkpt lat="43.86621" lon="6.31751">
        <ele>1924</ele>
        <time>2021-07-10T13:17:26Z</time>
      </trkpt>
      <trkpt lat="43.86625" lon="6.31761">
        <ele>1922.5</ele>
        <time>2021-07-10T13:17:29Z</time>
      </trkpt>
      <trkpt lat="43.8663" lon="6.31769">
        <ele>1920.9</ele>
        <time>2021-07-10T13:17:32Z</time>
      </trkpt>
      <trkpt lat="43.86638" lon="6.31774">
        <ele>1919.5</ele>
        <time>2021-07-10T13:17:37Z</time>
      </trkpt>
      <trkpt lat="43.86643" lon="6.31784">
        <ele>1917.5</ele>
        <time>2021-07-10T13:17:41Z</time>
      </trkpt>
      <trkpt lat="43.86645" lon="6.31795">
        <ele>1916</ele>
        <time>2021-07-10T13:17:44Z</time>
      </trkpt>
      <trkpt lat="43.86644" lon="6.31806">
        <ele>1914.6</ele>
        <time>2021-07-10T13:17:47Z</time>
      </trkpt>
      <trkpt lat="43.86639" lon="6.31816">
        <ele>1913.5</ele>
        <time>2021-07-10T13:17:50Z</time>
      </trkpt>
      <trkpt lat="43.86631" lon="6.31822">
        <ele>1912.4</ele>
        <time>2021-07-10T13:17:53Z</time>
      </trkpt>
      <trkpt lat="43.86623" lon="6.31826">
        <ele>1910.8</ele>
        <time>2021-07-10T13:17:56Z</time>
      </trkpt>
      <trkpt lat="43.86616" lon="6.31832">
        <ele>1910.6</ele>
        <time>2021-07-10T13:17:59Z</time>
      </trkpt>
      <trkpt lat="43.86608" lon="6.31833">
        <ele>1910.6</ele>
        <time>2021-07-10T13:18:02Z</time>
      </trkpt>
      <trkpt lat="43.86599" lon="6.31831">
        <ele>1910.3</ele>
        <time>2021-07-10T13:18:05Z</time>
      </trkpt>
      <trkpt lat="43.86591" lon="6.31828">
        <ele>1910.1</ele>
        <time>2021-07-10T13:18:08Z</time>
      </trkpt>
      <trkpt lat="43.86583" lon="6.31824">
        <ele>1910.1</ele>
        <time>2021-07-10T13:18:11Z</time>
      </trkpt>
      <trkpt lat="43.86575" lon="6.31816">
        <ele>1908.3</ele>
        <time>2021-07-10T13:18:15Z</time>
      </trkpt>
      <trkpt lat="43.86567" lon="6.31808">
        <ele>1907.7</ele>
        <time>2021-07-10T13:18:18Z</time>
      </trkpt>
      <trkpt lat="43.8656" lon="6.318">
        <ele>1907</ele>
        <time>2021-07-10T13:18:21Z</time>
      </trkpt>
      <trkpt lat="43.86555" lon="6.31791">
        <ele>1906.2</ele>
        <time>2021-07-10T13:18:25Z</time>
      </trkpt>
      <trkpt lat="43.86552" lon="6.31782">
        <ele>1906.9</ele>
        <time>2021-07-10T13:18:28Z</time>
      </trkpt>
      <trkpt lat="43.86549" lon="6.31768">
        <ele>1906.2</ele>
        <time>2021-07-10T13:18:31Z</time>
      </trkpt>
      <trkpt lat="43.86546" lon="6.31758">
        <ele>1905.8</ele>
        <time>2021-07-10T13:18:33Z</time>
      </trkpt>
      <trkpt lat="43.86544" lon="6.31747">
        <ele>1905.1</ele>
        <time>2021-07-10T13:18:35Z</time>
      </trkpt>
      <trkpt lat="43.86542" lon="6.31733">
        <ele>1904</ele>
        <time>2021-07-10T13:18:38Z</time>
      </trkpt>
      <trkpt lat="43.86542" lon="6.31723">
        <ele>1903.3</ele>
        <time>2021-07-10T13:18:40Z</time>
      </trkpt>
      <trkpt lat="43.86542" lon="6.31709">
        <ele>1902.1</ele>
        <time>2021-07-10T13:18:43Z</time>
      </trkpt>
      <trkpt lat="43.86542" lon="6.31694">
        <ele>1900.8</ele>
        <time>2021-07-10T13:18:46Z</time>
      </trkpt>
      <trkpt lat="43.86542" lon="6.31683">
        <ele>1900.2</ele>
        <time>2021-07-10T13:18:48Z</time>
      </trkpt>
      <trkpt lat="43.86541" lon="6.31672">
        <ele>1899.1</ele>
        <time>2021-07-10T13:18:50Z</time>
      </trkpt>
      <trkpt lat="43.8654" lon="6.31662">
        <ele>1898.8</ele>
        <time>2021-07-10T13:18:52Z</time>
      </trkpt>
      <trkpt lat="43.86538" lon="6.31652">
        <ele>1898</ele>
        <time>2021-07-10T13:18:54Z</time>
      </trkpt>
      <trkpt lat="43.86536" lon="6.31638">
        <ele>1895.6</ele>
        <time>2021-07-10T13:18:57Z</time>
      </trkpt>
      <trkpt lat="43.86531" lon="6.31625">
        <ele>1894.1</ele>
        <time>2021-07-10T13:19:00Z</time>
      </trkpt>
      <trkpt lat="43.86526" lon="6.31616">
        <ele>1893</ele>
        <time>2021-07-10T13:19:02Z</time>
      </trkpt>
      <trkpt lat="43.8652" lon="6.31609">
        <ele>1892.6</ele>
        <time>2021-07-10T13:19:04Z</time>
      </trkpt>
      <trkpt lat="43.86511" lon="6.31607">
        <ele>1892.2</ele>
        <time>2021-07-10T13:19:07Z</time>
      </trkpt>
      <trkpt lat="43.86501" lon="6.31612">
        <ele>1891.1</ele>
        <time>2021-07-10T13:19:10Z</time>
      </trkpt>
      <trkpt lat="43.86493" lon="6.31622">
        <ele>1889.1</ele>
        <time>2021-07-10T13:19:13Z</time>
      </trkpt>
      <trkpt lat="43.86489" lon="6.31634">
        <ele>1888</ele>
        <time>2021-07-10T13:19:16Z</time>
      </trkpt>
      <trkpt lat="43.86487" lon="6.31647">
        <ele>1886.4</ele>
        <time>2021-07-10T13:19:19Z</time>
      </trkpt>
      <trkpt lat="43.86486" lon="6.31658">
        <ele>1885.6</ele>
        <time>2021-07-10T13:19:21Z</time>
      </trkpt>
      <trkpt lat="43.86485" lon="6.31669">
        <ele>1884.8</ele>
        <time>2021-07-10T13:19:23Z</time>
      </trkpt>
      <trkpt lat="43.86485" lon="6.31683">
        <ele>1883.2</ele>
        <time>2021-07-10T13:19:26Z</time>
      </trkpt>
      <trkpt lat="43.86483" lon="6.31697">
        <ele>1882.2</ele>
        <time>2021-07-10T13:19:29Z</time>
      </trkpt>
      <trkpt lat="43.8648" lon="6.3171">
        <ele>1881</ele>
        <time>2021-07-10T13:19:32Z</time>
      </trkpt>
      <trkpt lat="43.86476" lon="6.31722">
        <ele>1879.4</ele>
        <time>2021-07-10T13:19:35Z</time>
      </trkpt>
      <trkpt lat="43.86469" lon="6.31732">
        <ele>1878.3</ele>
        <time>2021-07-10T13:19:38Z</time>
      </trkpt>
      <trkpt lat="43.86464" lon="6.3174">
        <ele>1877.1</ele>
        <time>2021-07-10T13:19:40Z</time>
      </trkpt>
      <trkpt lat="43.8646" lon="6.31749">
        <ele>1876.7</ele>
        <time>2021-07-10T13:19:42Z</time>
      </trkpt>
      <trkpt lat="43.86457" lon="6.31763">
        <ele>1876</ele>
        <time>2021-07-10T13:19:45Z</time>
      </trkpt>
      <trkpt lat="43.86457" lon="6.31773">
        <ele>1875.6</ele>
        <time>2021-07-10T13:19:47Z</time>
      </trkpt>
      <trkpt lat="43.86458" lon="6.31785">
        <ele>1874.5</ele>
        <time>2021-07-10T13:19:49Z</time>
      </trkpt>
      <trkpt lat="43.86459" lon="6.31796">
        <ele>1873.5</ele>
        <time>2021-07-10T13:19:52Z</time>
      </trkpt>
      <trkpt lat="43.86458" lon="6.31807">
        <ele>1872.1</ele>
        <time>2021-07-10T13:19:56Z</time>
      </trkpt>
      <trkpt lat="43.8645" lon="6.31813">
        <ele>1872.8</ele>
        <time>2021-07-10T13:20:00Z</time>
      </trkpt>
      <trkpt lat="43.86442" lon="6.31811">
        <ele>1871.1</ele>
        <time>2021-07-10T13:20:03Z</time>
      </trkpt>
      <trkpt lat="43.86432" lon="6.31806">
        <ele>1870.6</ele>
        <time>2021-07-10T13:20:06Z</time>
      </trkpt>
      <trkpt lat="43.86424" lon="6.31803">
        <ele>1870.1</ele>
        <time>2021-07-10T13:20:08Z</time>
      </trkpt>
      <trkpt lat="43.86417" lon="6.31799">
        <ele>1870.2</ele>
        <time>2021-07-10T13:20:10Z</time>
      </trkpt>
      <trkpt lat="43.86408" lon="6.31795">
        <ele>1869.6</ele>
        <time>2021-07-10T13:20:13Z</time>
      </trkpt>
      <trkpt lat="43.86398" lon="6.31792">
        <ele>1869.7</ele>
        <time>2021-07-10T13:20:16Z</time>
      </trkpt>
      <trkpt lat="43.86389" lon="6.31791">
        <ele>1868.5</ele>
        <time>2021-07-10T13:20:19Z</time>
      </trkpt>
      <trkpt lat="43.8638" lon="6.31793">
        <ele>1867.8</ele>
        <time>2021-07-10T13:20:22Z</time>
      </trkpt>
      <trkpt lat="43.86372" lon="6.31798">
        <ele>1866.2</ele>
        <time>2021-07-10T13:20:25Z</time>
      </trkpt>
      <trkpt lat="43.86363" lon="6.31804">
        <ele>1864.8</ele>
        <time>2021-07-10T13:20:28Z</time>
      </trkpt>
      <trkpt lat="43.86356" lon="6.31807">
        <ele>1863.5</ele>
        <time>2021-07-10T13:20:30Z</time>
      </trkpt>
      <trkpt lat="43.86346" lon="6.31812">
        <ele>1861.9</ele>
        <time>2021-07-10T13:20:33Z</time>
      </trkpt>
      <trkpt lat="43.86336" lon="6.31817">
        <ele>1860.1</ele>
        <time>2021-07-10T13:20:36Z</time>
      </trkpt>
      <trkpt lat="43.86327" lon="6.31821">
        <ele>1859.4</ele>
        <time>2021-07-10T13:20:39Z</time>
      </trkpt>
      <trkpt lat="43.86317" lon="6.31824">
        <ele>1858.5</ele>
        <time>2021-07-10T13:20:42Z</time>
      </trkpt>
      <trkpt lat="43.86309" lon="6.31826">
        <ele>1858</ele>
        <time>2021-07-10T13:20:44Z</time>
      </trkpt>
      <trkpt lat="43.86302" lon="6.3183">
        <ele>1857.5</ele>
        <time>2021-07-10T13:20:46Z</time>
      </trkpt>
      <trkpt lat="43.86295" lon="6.31833">
        <ele>1856.7</ele>
        <time>2021-07-10T13:20:48Z</time>
      </trkpt>
      <trkpt lat="43.86287" lon="6.31835">
        <ele>1855.8</ele>
        <time>2021-07-10T13:20:50Z</time>
      </trkpt>
      <trkpt lat="43.8628" lon="6.31838">
        <ele>1855.2</ele>
        <time>2021-07-10T13:20:52Z</time>
      </trkpt>
      <trkpt lat="43.86272" lon="6.31843">
        <ele>1854.6</ele>
        <time>2021-07-10T13:20:55Z</time>
      </trkpt>
      <trkpt lat="43.86264" lon="6.31847">
        <ele>1854</ele>
        <time>2021-07-10T13:20:57Z</time>
      </trkpt>
      <trkpt lat="43.86257" lon="6.31856">
        <ele>1853.7</ele>
        <time>2021-07-10T13:20:59Z</time>
      </trkpt>
      <trkpt lat="43.86252" lon="6.31866">
        <ele>1853.1</ele>
        <time>2021-07-10T13:21:01Z</time>
      </trkpt>
      <trkpt lat="43.86249" lon="6.31876">
        <ele>1852.2</ele>
        <time>2021-07-10T13:21:03Z</time>
      </trkpt>
      <trkpt lat="43.86249" lon="6.31887">
        <ele>1851.5</ele>
        <time>2021-07-10T13:21:05Z</time>
      </trkpt>
      <trkpt lat="43.86251" lon="6.31901">
        <ele>1850.3</ele>
        <time>2021-07-10T13:21:08Z</time>
      </trkpt>
      <trkpt lat="43.86254" lon="6.31911">
        <ele>1849.8</ele>
        <time>2021-07-10T13:21:10Z</time>
      </trkpt>
      <trkpt lat="43.8626" lon="6.31921">
        <ele>1849.2</ele>
        <time>2021-07-10T13:21:13Z</time>
      </trkpt>
      <trkpt lat="43.86267" lon="6.31923">
        <ele>1848.6</ele>
        <time>2021-07-10T13:21:16Z</time>
      </trkpt>
      <trkpt lat="43.86274" lon="6.3192">
        <ele>1847.7</ele>
        <time>2021-07-10T13:21:19Z</time>
      </trkpt>
      <trkpt lat="43.86282" lon="6.31915">
        <ele>1847.5</ele>
        <time>2021-07-10T13:21:22Z</time>
      </trkpt>
      <trkpt lat="43.86291" lon="6.3191">
        <ele>1846.9</ele>
        <time>2021-07-10T13:21:25Z</time>
      </trkpt>
      <trkpt lat="43.863" lon="6.31905">
        <ele>1846.7</ele>
        <time>2021-07-10T13:21:28Z</time>
      </trkpt>
      <trkpt lat="43.86309" lon="6.31901">
        <ele>1846.2</ele>
        <time>2021-07-10T13:21:31Z</time>
      </trkpt>
      <trkpt lat="43.86318" lon="6.31896">
        <ele>1845.6</ele>
        <time>2021-07-10T13:21:34Z</time>
      </trkpt>
      <trkpt lat="43.86328" lon="6.31891">
        <ele>1845.1</ele>
        <time>2021-07-10T13:21:37Z</time>
      </trkpt>
      <trkpt lat="43.86337" lon="6.31888">
        <ele>1844.1</ele>
        <time>2021-07-10T13:21:40Z</time>
      </trkpt>
      <trkpt lat="43.86347" lon="6.31887">
        <ele>1842.5</ele>
        <time>2021-07-10T13:21:43Z</time>
      </trkpt>
      <trkpt lat="43.86355" lon="6.31887">
        <ele>1841.7</ele>
        <time>2021-07-10T13:21:46Z</time>
      </trkpt>
      <trkpt lat="43.86364" lon="6.31889">
        <ele>1840.8</ele>
        <time>2021-07-10T13:21:49Z</time>
      </trkpt>
      <trkpt lat="43.86373" lon="6.31891">
        <ele>1839.5</ele>
        <time>2021-07-10T13:21:52Z</time>
      </trkpt>
      <trkpt lat="43.86382" lon="6.31893">
        <ele>1838.1</ele>
        <time>2021-07-10T13:21:56Z</time>
      </trkpt>
      <trkpt lat="43.86392" lon="6.31894">
        <ele>1836.7</ele>
        <time>2021-07-10T13:22:00Z</time>
      </trkpt>
      <trkpt lat="43.86401" lon="6.31895">
        <ele>1836.5</ele>
        <time>2021-07-10T13:22:04Z</time>
      </trkpt>
      <trkpt lat="43.864" lon="6.31906">
        <ele>1834.1</ele>
        <time>2021-07-10T13:22:10Z</time>
      </trkpt>
      <trkpt lat="43.8639" lon="6.31908">
        <ele>1833.5</ele>
        <time>2021-07-10T13:22:14Z</time>
      </trkpt>
      <trkpt lat="43.86383" lon="6.3191">
        <ele>1833</ele>
        <time>2021-07-10T13:22:17Z</time>
      </trkpt>
      <trkpt lat="43.86373" lon="6.31911">
        <ele>1833.1</ele>
        <time>2021-07-10T13:22:20Z</time>
      </trkpt>
      <trkpt lat="43.86366" lon="6.31912">
        <ele>1832.7</ele>
        <time>2021-07-10T13:22:22Z</time>
      </trkpt>
      <trkpt lat="43.86359" lon="6.31914">
        <ele>1832.4</ele>
        <time>2021-07-10T13:22:24Z</time>
      </trkpt>
      <trkpt lat="43.86349" lon="6.31917">
        <ele>1831.7</ele>
        <time>2021-07-10T13:22:27Z</time>
      </trkpt>
      <trkpt lat="43.8634" lon="6.31924">
        <ele>1830.5</ele>
        <time>2021-07-10T13:22:30Z</time>
      </trkpt>
      <trkpt lat="43.86333" lon="6.31931">
        <ele>1829</ele>
        <time>2021-07-10T13:22:33Z</time>
      </trkpt>
      <trkpt lat="43.86326" lon="6.31939">
        <ele>1827.9</ele>
        <time>2021-07-10T13:22:36Z</time>
      </trkpt>
      <trkpt lat="43.86321" lon="6.31947">
        <ele>1826.9</ele>
        <time>2021-07-10T13:22:39Z</time>
      </trkpt>
      <trkpt lat="43.86315" lon="6.31954">
        <ele>1825.9</ele>
        <time>2021-07-10T13:22:42Z</time>
      </trkpt>
      <trkpt lat="43.86307" lon="6.31962">
        <ele>1824.7</ele>
        <time>2021-07-10T13:22:46Z</time>
      </trkpt>
      <trkpt lat="43.86301" lon="6.31968">
        <ele>1825.7</ele>
        <time>2021-07-10T13:22:49Z</time>
      </trkpt>
      <trkpt lat="43.863" lon="6.31978">
        <ele>1824.4</ele>
        <time>2021-07-10T13:22:55Z</time>
      </trkpt>
      <trkpt lat="43.86309" lon="6.31974">
        <ele>1823.3</ele>
        <time>2021-07-10T13:22:59Z</time>
      </trkpt>
      <trkpt lat="43.86318" lon="6.31966">
        <ele>1822.7</ele>
        <time>2021-07-10T13:23:02Z</time>
      </trkpt>
      <trkpt lat="43.86325" lon="6.31961">
        <ele>1822.5</ele>
        <time>2021-07-10T13:23:04Z</time>
      </trkpt>
      <trkpt lat="43.86333" lon="6.31955">
        <ele>1822.1</ele>
        <time>2021-07-10T13:23:06Z</time>
      </trkpt>
      <trkpt lat="43.8634" lon="6.31952">
        <ele>1821.5</ele>
        <time>2021-07-10T13:23:08Z</time>
      </trkpt>
      <trkpt lat="43.86349" lon="6.31949">
        <ele>1819.7</ele>
        <time>2021-07-10T13:23:11Z</time>
      </trkpt>
      <trkpt lat="43.86356" lon="6.31945">
        <ele>1818.7</ele>
        <time>2021-07-10T13:23:14Z</time>
      </trkpt>
      <trkpt lat="43.86363" lon="6.31941">
        <ele>1818.2</ele>
        <time>2021-07-10T13:23:17Z</time>
      </trkpt>
      <trkpt lat="43.86371" lon="6.31945">
        <ele>1817.7</ele>
        <time>2021-07-10T13:23:22Z</time>
      </trkpt>
      <trkpt lat="43.86369" lon="6.31955">
        <ele>1816.3</ele>
        <time>2021-07-10T13:23:26Z</time>
      </trkpt>
      <trkpt lat="43.86362" lon="6.3196">
        <ele>1816.1</ele>
        <time>2021-07-10T13:23:30Z</time>
      </trkpt>
      <trkpt lat="43.86355" lon="6.31962">
        <ele>1815.8</ele>
        <time>2021-07-10T13:23:33Z</time>
      </trkpt>
      <trkpt lat="43.86346" lon="6.31968">
        <ele>1815.6</ele>
        <time>2021-07-10T13:23:36Z</time>
      </trkpt>
      <trkpt lat="43.86338" lon="6.31974">
        <ele>1814.3</ele>
        <time>2021-07-10T13:23:39Z</time>
      </trkpt>
      <trkpt lat="43.86329" lon="6.31978">
        <ele>1814.6</ele>
        <time>2021-07-10T13:23:42Z</time>
      </trkpt>
      <trkpt lat="43.86322" lon="6.31985">
        <ele>1813.8</ele>
        <time>2021-07-10T13:23:46Z</time>
      </trkpt>
      <trkpt lat="43.86328" lon="6.3199">
        <ele>1812.7</ele>
        <time>2021-07-10T13:23:52Z</time>
      </trkpt>
      <trkpt lat="43.86336" lon="6.31985">
        <ele>1811.2</ele>
        <time>2021-07-10T13:23:56Z</time>
      </trkpt>
      <trkpt lat="43.86343" lon="6.3198">
        <ele>1810</ele>
        <time>2021-07-10T13:23:59Z</time>
      </trkpt>
      <trkpt lat="43.86352" lon="6.31976">
        <ele>1809.1</ele>
        <time>2021-07-10T13:24:03Z</time>
      </trkpt>
      <trkpt lat="43.86361" lon="6.31971">
        <ele>1808.3</ele>
        <time>2021-07-10T13:24:07Z</time>
      </trkpt>
      <trkpt lat="43.86369" lon="6.31967">
        <ele>1806.5</ele>
        <time>2021-07-10T13:24:11Z</time>
      </trkpt>
      <trkpt lat="43.86371" lon="6.31977">
        <ele>1805</ele>
        <time>2021-07-10T13:24:18Z</time>
      </trkpt>
      <trkpt lat="43.86365" lon="6.31983">
        <ele>1805.5</ele>
        <time>2021-07-10T13:24:21Z</time>
      </trkpt>
      <trkpt lat="43.86358" lon="6.3199">
        <ele>1805.3</ele>
        <time>2021-07-10T13:24:24Z</time>
      </trkpt>
      <trkpt lat="43.8635" lon="6.31998">
        <ele>1804.1</ele>
        <time>2021-07-10T13:24:27Z</time>
      </trkpt>
      <trkpt lat="43.86342" lon="6.32005">
        <ele>1802.8</ele>
        <time>2021-07-10T13:24:30Z</time>
      </trkpt>
      <trkpt lat="43.86335" lon="6.32014">
        <ele>1801.8</ele>
        <time>2021-07-10T13:24:33Z</time>
      </trkpt>
      <trkpt lat="43.86328" lon="6.3202">
        <ele>1802.4</ele>
        <time>2021-07-10T13:24:36Z</time>
      </trkpt>
      <trkpt lat="43.86323" lon="6.32028">
        <ele>1803.1</ele>
        <time>2021-07-10T13:24:40Z</time>
      </trkpt>
      <trkpt lat="43.86317" lon="6.32037">
        <ele>1803.3</ele>
        <time>2021-07-10T13:24:44Z</time>
      </trkpt>
      <trkpt lat="43.86309" lon="6.32044">
        <ele>1802.6</ele>
        <time>2021-07-10T13:24:48Z</time>
      </trkpt>
      <trkpt lat="43.86301" lon="6.32049">
        <ele>1800.8</ele>
        <time>2021-07-10T13:24:51Z</time>
      </trkpt>
      <trkpt lat="43.86293" lon="6.32053">
        <ele>1800.1</ele>
        <time>2021-07-10T13:24:54Z</time>
      </trkpt>
      <trkpt lat="43.86285" lon="6.32056">
        <ele>1797.9</ele>
        <time>2021-07-10T13:24:58Z</time>
      </trkpt>
      <trkpt lat="43.86276" lon="6.32057">
        <ele>1797.8</ele>
        <time>2021-07-10T13:25:02Z</time>
      </trkpt>
      <trkpt lat="43.86268" lon="6.32061">
        <ele>1796.5</ele>
        <time>2021-07-10T13:25:06Z</time>
      </trkpt>
      <trkpt lat="43.86259" lon="6.32063">
        <ele>1794.9</ele>
        <time>2021-07-10T13:25:10Z</time>
      </trkpt>
      <trkpt lat="43.8625" lon="6.32066">
        <ele>1794.4</ele>
        <time>2021-07-10T13:25:14Z</time>
      </trkpt>
      <trkpt lat="43.86242" lon="6.32067">
        <ele>1793.1</ele>
        <time>2021-07-10T13:25:18Z</time>
      </trkpt>
      <trkpt lat="43.86233" lon="6.32067">
        <ele>1791.7</ele>
        <time>2021-07-10T13:25:22Z</time>
      </trkpt>
      <trkpt lat="43.86224" lon="6.32065">
        <ele>1790.6</ele>
        <time>2021-07-10T13:25:26Z</time>
      </trkpt>
      <trkpt lat="43.86222" lon="6.32075">
        <ele>1790.2</ele>
        <time>2021-07-10T13:25:33Z</time>
      </trkpt>
      <trkpt lat="43.86231" lon="6.32076">
        <ele>1789.7</ele>
        <time>2021-07-10T13:25:37Z</time>
      </trkpt>
      <trkpt lat="43.8624" lon="6.32077">
        <ele>1789</ele>
        <time>2021-07-10T13:25:40Z</time>
      </trkpt>
      <trkpt lat="43.86247" lon="6.32077">
        <ele>1787.9</ele>
        <time>2021-07-10T13:25:43Z</time>
      </trkpt>
      <trkpt lat="43.86256" lon="6.32079">
        <ele>1786.6</ele>
        <time>2021-07-10T13:25:47Z</time>
      </trkpt>
      <trkpt lat="43.86265" lon="6.32081">
        <ele>1785</ele>
        <time>2021-07-10T13:25:51Z</time>
      </trkpt>
      <trkpt lat="43.86272" lon="6.32082">
        <ele>1783.9</ele>
        <time>2021-07-10T13:25:54Z</time>
      </trkpt>
      <trkpt lat="43.8628" lon="6.32083">
        <ele>1782.4</ele>
        <time>2021-07-10T13:25:57Z</time>
      </trkpt>
      <trkpt lat="43.86288" lon="6.32084">
        <ele>1780.2</ele>
        <time>2021-07-10T13:26:00Z</time>
      </trkpt>
      <trkpt lat="43.86295" lon="6.32085">
        <ele>1778</ele>
        <time>2021-07-10T13:26:03Z</time>
      </trkpt>
      <trkpt lat="43.86303" lon="6.32085">
        <ele>1777</ele>
        <time>2021-07-10T13:26:06Z</time>
      </trkpt>
      <trkpt lat="43.86313" lon="6.32084">
        <ele>1775.5</ele>
        <time>2021-07-10T13:26:09Z</time>
      </trkpt>
      <trkpt lat="43.86322" lon="6.3208">
        <ele>1775</ele>
        <time>2021-07-10T13:26:12Z</time>
      </trkpt>
      <trkpt lat="43.86328" lon="6.32075">
        <ele>1774.2</ele>
        <time>2021-07-10T13:26:15Z</time>
      </trkpt>
      <trkpt lat="43.86335" lon="6.3207">
        <ele>1772.8</ele>
        <time>2021-07-10T13:26:19Z</time>
      </trkpt>
      <trkpt lat="43.86336" lon="6.32081">
        <ele>1771.5</ele>
        <time>2021-07-10T13:26:24Z</time>
      </trkpt>
      <trkpt lat="43.8633" lon="6.32089">
        <ele>1770.7</ele>
        <time>2021-07-10T13:26:27Z</time>
      </trkpt>
      <trkpt lat="43.86323" lon="6.32095">
        <ele>1769.5</ele>
        <time>2021-07-10T13:26:31Z</time>
      </trkpt>
      <trkpt lat="43.86314" lon="6.321">
        <ele>1768.8</ele>
        <time>2021-07-10T13:26:35Z</time>
      </trkpt>
      <trkpt lat="43.86307" lon="6.32104">
        <ele>1769.2</ele>
        <time>2021-07-10T13:26:38Z</time>
      </trkpt>
      <trkpt lat="43.863" lon="6.32109">
        <ele>1769.1</ele>
        <time>2021-07-10T13:26:41Z</time>
      </trkpt>
      <trkpt lat="43.86291" lon="6.32114">
        <ele>1767.4</ele>
        <time>2021-07-10T13:26:44Z</time>
      </trkpt>
      <trkpt lat="43.86283" lon="6.32119">
        <ele>1766.7</ele>
        <time>2021-07-10T13:26:47Z</time>
      </trkpt>
      <trkpt lat="43.86274" lon="6.32124">
        <ele>1765.7</ele>
        <time>2021-07-10T13:26:50Z</time>
      </trkpt>
      <trkpt lat="43.86266" lon="6.32127">
        <ele>1765</ele>
        <time>2021-07-10T13:26:53Z</time>
      </trkpt>
      <trkpt lat="43.86257" lon="6.3213">
        <ele>1763</ele>
        <time>2021-07-10T13:26:56Z</time>
      </trkpt>
      <trkpt lat="43.86247" lon="6.32131">
        <ele>1762.1</ele>
        <time>2021-07-10T13:26:59Z</time>
      </trkpt>
      <trkpt lat="43.8624" lon="6.32132">
        <ele>1761.7</ele>
        <time>2021-07-10T13:27:01Z</time>
      </trkpt>
      <trkpt lat="43.86231" lon="6.32133">
        <ele>1759.9</ele>
        <time>2021-07-10T13:27:04Z</time>
      </trkpt>
      <trkpt lat="43.86221" lon="6.32134">
        <ele>1759.4</ele>
        <time>2021-07-10T13:27:07Z</time>
      </trkpt>
      <trkpt lat="43.86211" lon="6.32135">
        <ele>1758.3</ele>
        <time>2021-07-10T13:27:10Z</time>
      </trkpt>
      <trkpt lat="43.86202" lon="6.32134">
        <ele>1756.9</ele>
        <time>2021-07-10T13:27:13Z</time>
      </trkpt>
      <trkpt lat="43.86193" lon="6.32133">
        <ele>1755.6</ele>
        <time>2021-07-10T13:27:16Z</time>
      </trkpt>
      <trkpt lat="43.86184" lon="6.32131">
        <ele>1754</ele>
        <time>2021-07-10T13:27:19Z</time>
      </trkpt>
      <trkpt lat="43.86174" lon="6.32129">
        <ele>1753.8</ele>
        <time>2021-07-10T13:27:22Z</time>
      </trkpt>
      <trkpt lat="43.86167" lon="6.32127">
        <ele>1753.7</ele>
        <time>2021-07-10T13:27:24Z</time>
      </trkpt>
      <trkpt lat="43.86159" lon="6.32123">
        <ele>1753.5</ele>
        <time>2021-07-10T13:27:26Z</time>
      </trkpt>
      <trkpt lat="43.86153" lon="6.32119">
        <ele>1752.4</ele>
        <time>2021-07-10T13:27:28Z</time>
      </trkpt>
      <trkpt lat="43.86146" lon="6.32112">
        <ele>1751.9</ele>
        <time>2021-07-10T13:27:31Z</time>
      </trkpt>
      <trkpt lat="43.86138" lon="6.32111">
        <ele>1750.5</ele>
        <time>2021-07-10T13:27:35Z</time>
      </trkpt>
      <trkpt lat="43.86138" lon="6.32121">
        <ele>1749.1</ele>
        <time>2021-07-10T13:27:38Z</time>
      </trkpt>
      <trkpt lat="43.86145" lon="6.32129">
        <ele>1746.6</ele>
        <time>2021-07-10T13:27:41Z</time>
      </trkpt>
      <trkpt lat="43.86153" lon="6.32132">
        <ele>1745.5</ele>
        <time>2021-07-10T13:27:44Z</time>
      </trkpt>
      <trkpt lat="43.86161" lon="6.32136">
        <ele>1743.6</ele>
        <time>2021-07-10T13:27:47Z</time>
      </trkpt>
      <trkpt lat="43.86169" lon="6.32142">
        <ele>1741.5</ele>
        <time>2021-07-10T13:27:50Z</time>
      </trkpt>
      <trkpt lat="43.86177" lon="6.32147">
        <ele>1739.9</ele>
        <time>2021-07-10T13:27:53Z</time>
      </trkpt>
      <trkpt lat="43.86184" lon="6.32151">
        <ele>1739</ele>
        <time>2021-07-10T13:27:56Z</time>
      </trkpt>
      <trkpt lat="43.86191" lon="6.32155">
        <ele>1737.9</ele>
        <time>2021-07-10T13:27:59Z</time>
      </trkpt>
      <trkpt lat="43.86199" lon="6.3216">
        <ele>1736.7</ele>
        <time>2021-07-10T13:28:02Z</time>
      </trkpt>
      <trkpt lat="43.86207" lon="6.32165">
        <ele>1735.4</ele>
        <time>2021-07-10T13:28:05Z</time>
      </trkpt>
      <trkpt lat="43.86215" lon="6.32171">
        <ele>1733.4</ele>
        <time>2021-07-10T13:28:08Z</time>
      </trkpt>
      <trkpt lat="43.86224" lon="6.32178">
        <ele>1731.4</ele>
        <time>2021-07-10T13:28:11Z</time>
      </trkpt>
      <trkpt lat="43.86234" lon="6.32184">
        <ele>1729.7</ele>
        <time>2021-07-10T13:28:14Z</time>
      </trkpt>
      <trkpt lat="43.86243" lon="6.32189">
        <ele>1727.9</ele>
        <time>2021-07-10T13:28:17Z</time>
      </trkpt>
      <trkpt lat="43.8625" lon="6.32193">
        <ele>1727.1</ele>
        <time>2021-07-10T13:28:19Z</time>
      </trkpt>
      <trkpt lat="43.86257" lon="6.32196">
        <ele>1726.4</ele>
        <time>2021-07-10T13:28:21Z</time>
      </trkpt>
      <trkpt lat="43.86265" lon="6.32199">
        <ele>1725</ele>
        <time>2021-07-10T13:28:24Z</time>
      </trkpt>
      <trkpt lat="43.86274" lon="6.322">
        <ele>1722.9</ele>
        <time>2021-07-10T13:28:28Z</time>
      </trkpt>
      <trkpt lat="43.86281" lon="6.32203">
        <ele>1721.3</ele>
        <time>2021-07-10T13:28:31Z</time>
      </trkpt>
      <trkpt lat="43.8629" lon="6.32207">
        <ele>1719.7</ele>
        <time>2021-07-10T13:28:34Z</time>
      </trkpt>
      <trkpt lat="43.863" lon="6.32211">
        <ele>1717.6</ele>
        <time>2021-07-10T13:28:37Z</time>
      </trkpt>
      <trkpt lat="43.8631" lon="6.32213">
        <ele>1717.1</ele>
        <time>2021-07-10T13:28:40Z</time>
      </trkpt>
      <trkpt lat="43.86321" lon="6.32215">
        <ele>1715.7</ele>
        <time>2021-07-10T13:28:43Z</time>
      </trkpt>
      <trkpt lat="43.8633" lon="6.32217">
        <ele>1713.8</ele>
        <time>2021-07-10T13:28:46Z</time>
      </trkpt>
      <trkpt lat="43.86339" lon="6.32219">
        <ele>1712.4</ele>
        <time>2021-07-10T13:28:49Z</time>
      </trkpt>
      <trkpt lat="43.86348" lon="6.32221">
        <ele>1712</ele>
        <time>2021-07-10T13:28:52Z</time>
      </trkpt>
      <trkpt lat="43.86359" lon="6.32225">
        <ele>1710.5</ele>
        <time>2021-07-10T13:28:55Z</time>
      </trkpt>
      <trkpt lat="43.86366" lon="6.32231">
        <ele>1710</ele>
        <time>2021-07-10T13:28:57Z</time>
      </trkpt>
      <trkpt lat="43.86373" lon="6.32238">
        <ele>1708.8</ele>
        <time>2021-07-10T13:28:59Z</time>
      </trkpt>
      <trkpt lat="43.86378" lon="6.32246">
        <ele>1708.1</ele>
        <time>2021-07-10T13:29:01Z</time>
      </trkpt>
      <trkpt lat="43.86383" lon="6.32252">
        <ele>1705.8</ele>
        <time>2021-07-10T13:29:03Z</time>
      </trkpt>
      <trkpt lat="43.8639" lon="6.32258">
        <ele>1704.3</ele>
        <time>2021-07-10T13:29:05Z</time>
      </trkpt>
      <trkpt lat="43.86397" lon="6.32263">
        <ele>1702.5</ele>
        <time>2021-07-10T13:29:07Z</time>
      </trkpt>
      <trkpt lat="43.86405" lon="6.32265">
        <ele>1701.1</ele>
        <time>2021-07-10T13:29:09Z</time>
      </trkpt>
      <trkpt lat="43.86415" lon="6.32269">
        <ele>1698.9</ele>
        <time>2021-07-10T13:29:12Z</time>
      </trkpt>
      <trkpt lat="43.86416" lon="6.32281">
        <ele>1697.9</ele>
        <time>2021-07-10T13:29:15Z</time>
      </trkpt>
      <trkpt lat="43.86414" lon="6.32291">
        <ele>1696.4</ele>
        <time>2021-07-10T13:29:18Z</time>
      </trkpt>
      <trkpt lat="43.86415" lon="6.32304">
        <ele>1693.8</ele>
        <time>2021-07-10T13:29:21Z</time>
      </trkpt>
      <trkpt lat="43.86414" lon="6.32317">
        <ele>1692</ele>
        <time>2021-07-10T13:29:24Z</time>
      </trkpt>
      <trkpt lat="43.86413" lon="6.32332">
        <ele>1690.4</ele>
        <time>2021-07-10T13:29:27Z</time>
      </trkpt>
      <trkpt lat="43.86413" lon="6.32346">
        <ele>1689.3</ele>
        <time>2021-07-10T13:29:30Z</time>
      </trkpt>
      <trkpt lat="43.86411" lon="6.32359">
        <ele>1687.3</ele>
        <time>2021-07-10T13:29:33Z</time>
      </trkpt>
      <trkpt lat="43.86411" lon="6.32373">
        <ele>1684.8</ele>
        <time>2021-07-10T13:29:36Z</time>
      </trkpt>
      <trkpt lat="43.8641" lon="6.32383">
        <ele>1683.3</ele>
        <time>2021-07-10T13:29:38Z</time>
      </trkpt>
      <trkpt lat="43.86407" lon="6.32397">
        <ele>1682.8</ele>
        <time>2021-07-10T13:29:40Z</time>
      </trkpt>
      <trkpt lat="43.86401" lon="6.32408">
        <ele>1681.8</ele>
        <time>2021-07-10T13:29:42Z</time>
      </trkpt>
      <trkpt lat="43.86395" lon="6.32421">
        <ele>1681.6</ele>
        <time>2021-07-10T13:29:44Z</time>
      </trkpt>
      <trkpt lat="43.86387" lon="6.32434">
        <ele>1680.7</ele>
        <time>2021-07-10T13:29:46Z</time>
      </trkpt>
      <trkpt lat="43.86379" lon="6.32447">
        <ele>1678.6</ele>
        <time>2021-07-10T13:29:48Z</time>
      </trkpt>
      <trkpt lat="43.86372" lon="6.32458">
        <ele>1677.9</ele>
        <time>2021-07-10T13:29:50Z</time>
      </trkpt>
      <trkpt lat="43.86366" lon="6.3247">
        <ele>1677.1</ele>
        <time>2021-07-10T13:29:52Z</time>
      </trkpt>
      <trkpt lat="43.86359" lon="6.32481">
        <ele>1676.5</ele>
        <time>2021-07-10T13:29:54Z</time>
      </trkpt>
      <trkpt lat="43.86351" lon="6.32492">
        <ele>1676.2</ele>
        <time>2021-07-10T13:29:56Z</time>
      </trkpt>
      <trkpt lat="43.86343" lon="6.325">
        <ele>1676.7</ele>
        <time>2021-07-10T13:29:58Z</time>
      </trkpt>
      <trkpt lat="43.86336" lon="6.32508">
        <ele>1676.2</ele>
        <time>2021-07-10T13:30:01Z</time>
      </trkpt>
      <trkpt lat="43.86331" lon="6.32517">
        <ele>1677.7</ele>
        <time>2021-07-10T13:30:05Z</time>
      </trkpt>
      <trkpt lat="43.86325" lon="6.32525">
        <ele>1677.3</ele>
        <time>2021-07-10T13:30:09Z</time>
      </trkpt>
      <trkpt lat="43.86319" lon="6.32535">
        <ele>1676.6</ele>
        <time>2021-07-10T13:30:12Z</time>
      </trkpt>
      <trkpt lat="43.86313" lon="6.32543">
        <ele>1675.2</ele>
        <time>2021-07-10T13:30:14Z</time>
      </trkpt>
      <trkpt lat="43.86307" lon="6.3255">
        <ele>1674.8</ele>
        <time>2021-07-10T13:30:16Z</time>
      </trkpt>
      <trkpt lat="43.863" lon="6.32557">
        <ele>1675.3</ele>
        <time>2021-07-10T13:30:19Z</time>
      </trkpt>
      <trkpt lat="43.863" lon="6.32555">
        <ele>1674.8</ele>
        <time>2021-07-10T13:30:26Z</time>
      </trkpt>
      <trkpt lat="43.863" lon="6.32554">
        <ele>1675</ele>
        <time>2021-07-10T13:30:30Z</time>
      </trkpt>
      <trkpt lat="43.863" lon="6.32555">
        <ele>1674.6</ele>
        <time>2021-07-10T13:30:46Z</time>
      </trkpt>
      <trkpt lat="43.863" lon="6.32555">
        <ele>1674.6</ele>
        <time>2021-07-10T13:30:47Z</time>
      </trkpt>
      <trkpt lat="43.86295" lon="6.32561">
        <ele>1674.7</ele>
        <time>2021-07-10T13:31:01Z</time>
      </trkpt>
      <trkpt lat="43.86297" lon="6.32571">
        <ele>1673.4</ele>
        <time>2021-07-10T13:31:07Z</time>
      </trkpt>
      <trkpt lat="43.86298" lon="6.32581">
        <ele>1673.6</ele>
        <time>2021-07-10T13:31:14Z</time>
      </trkpt>
      <trkpt lat="43.86292" lon="6.32582">
        <ele>1674.3</ele>
        <time>2021-07-10T13:31:21Z</time>
      </trkpt>
      <trkpt lat="43.86289" lon="6.32571">
        <ele>1673.5</ele>
        <time>2021-07-10T13:31:26Z</time>
      </trkpt>
      <trkpt lat="43.86286" lon="6.3256">
        <ele>1673.1</ele>
        <time>2021-07-10T13:31:31Z</time>
      </trkpt>
      <trkpt lat="43.86287" lon="6.3255">
        <ele>1672.3</ele>
        <time>2021-07-10T13:31:36Z</time>
      </trkpt>
      <trkpt lat="43.86292" lon="6.32541">
        <ele>1672.3</ele>
        <time>2021-07-10T13:31:41Z</time>
      </trkpt>
      <trkpt lat="43.86299" lon="6.3254">
        <ele>1672.3</ele>
        <time>2021-07-10T13:31:47Z</time>
      </trkpt>
      <trkpt lat="43.86306" lon="6.32542">
        <ele>1673.5</ele>
        <time>2021-07-10T13:31:51Z</time>
      </trkpt>
      <trkpt lat="43.86313" lon="6.32538">
        <ele>1673.8</ele>
        <time>2021-07-10T13:31:55Z</time>
      </trkpt>
      <trkpt lat="43.8632" lon="6.32531">
        <ele>1674.8</ele>
        <time>2021-07-10T13:31:59Z</time>
      </trkpt>
      <trkpt lat="43.86324" lon="6.32523">
        <ele>1675.2</ele>
        <time>2021-07-10T13:32:03Z</time>
      </trkpt>
      <trkpt lat="43.86331" lon="6.32513">
        <ele>1674.4</ele>
        <time>2021-07-10T13:32:07Z</time>
      </trkpt>
      <trkpt lat="43.86336" lon="6.32505">
        <ele>1674.2</ele>
        <time>2021-07-10T13:32:10Z</time>
      </trkpt>
      <trkpt lat="43.8634" lon="6.32495">
        <ele>1673.4</ele>
        <time>2021-07-10T13:32:13Z</time>
      </trkpt>
      <trkpt lat="43.86343" lon="6.32484">
        <ele>1672.7</ele>
        <time>2021-07-10T13:32:16Z</time>
      </trkpt>
      <trkpt lat="43.86339" lon="6.32472">
        <ele>1671.2</ele>
        <time>2021-07-10T13:32:20Z</time>
      </trkpt>
      <trkpt lat="43.86331" lon="6.32468">
        <ele>1671.2</ele>
        <time>2021-07-10T13:32:22Z</time>
      </trkpt>
      <trkpt lat="43.86324" lon="6.32462">
        <ele>1670.2</ele>
        <time>2021-07-10T13:32:24Z</time>
      </trkpt>
      <trkpt lat="43.86317" lon="6.32451">
        <ele>1668.6</ele>
        <time>2021-07-10T13:32:26Z</time>
      </trkpt>
      <trkpt lat="43.86311" lon="6.32439">
        <ele>1668.4</ele>
        <time>2021-07-10T13:32:28Z</time>
      </trkpt>
      <trkpt lat="43.86307" lon="6.3243">
        <ele>1669.1</ele>
        <time>2021-07-10T13:32:30Z</time>
      </trkpt>
      <trkpt lat="43.86304" lon="6.32421">
        <ele>1668.4</ele>
        <time>2021-07-10T13:32:33Z</time>
      </trkpt>
      <trkpt lat="43.86301" lon="6.32416">
        <ele>1669.5</ele>
        <time>2021-07-10T13:32:40Z</time>
      </trkpt>
      <trkpt lat="43.86294" lon="6.32416">
        <ele>1670.4</ele>
        <time>2021-07-10T13:32:47Z</time>
      </trkpt>
      <trkpt lat="43.86293" lon="6.32416">
        <ele>1671.2</ele>
        <time>2021-07-10T13:32:54Z</time>
      </trkpt>
      <trkpt lat="43.86293" lon="6.32416">
        <ele>1671.1</ele>
        <time>2021-07-10T13:32:55Z</time>
      </trkpt>
      <trkpt lat="43.86292" lon="6.32416">
        <ele>1671.5</ele>
        <time>2021-07-10T13:33:11Z</time>
      </trkpt>
      <trkpt lat="43.86293" lon="6.32416">
        <ele>1671.4</ele>
        <time>2021-07-10T13:33:12Z</time>
      </trkpt>
      <trkpt lat="43.86283" lon="6.32416">
        <ele>1671.4</ele>
        <time>2021-07-10T13:33:26Z</time>
      </trkpt>
      <trkpt lat="43.86275" lon="6.32413">
        <ele>1670.8</ele>
        <time>2021-07-10T13:33:29Z</time>
      </trkpt>
      <trkpt lat="43.86266" lon="6.32406">
        <ele>1669.7</ele>
        <time>2021-07-10T13:33:32Z</time>
      </trkpt>
      <trkpt lat="43.86257" lon="6.32399">
        <ele>1668.6</ele>
        <time>2021-07-10T13:33:35Z</time>
      </trkpt>
      <trkpt lat="43.8625" lon="6.32395">
        <ele>1667.7</ele>
        <time>2021-07-10T13:33:37Z</time>
      </trkpt>
      <trkpt lat="43.8624" lon="6.32392">
        <ele>1667.2</ele>
        <time>2021-07-10T13:33:40Z</time>
      </trkpt>
      <trkpt lat="43.86232" lon="6.32391">
        <ele>1666.7</ele>
        <time>2021-07-10T13:33:42Z</time>
      </trkpt>
      <trkpt lat="43.86225" lon="6.3239">
        <ele>1666.5</ele>
        <time>2021-07-10T13:33:44Z</time>
      </trkpt>
      <trkpt lat="43.86218" lon="6.32389">
        <ele>1666.4</ele>
        <time>2021-07-10T13:33:46Z</time>
      </trkpt>
      <trkpt lat="43.86208" lon="6.32388">
        <ele>1665.2</ele>
        <time>2021-07-10T13:33:49Z</time>
      </trkpt>
      <trkpt lat="43.862" lon="6.32386">
        <ele>1664.3</ele>
        <time>2021-07-10T13:33:51Z</time>
      </trkpt>
      <trkpt lat="43.86192" lon="6.32384">
        <ele>1663.7</ele>
        <time>2021-07-10T13:33:53Z</time>
      </trkpt>
      <trkpt lat="43.86183" lon="6.32381">
        <ele>1662.9</ele>
        <time>2021-07-10T13:33:55Z</time>
      </trkpt>
      <trkpt lat="43.86174" lon="6.32378">
        <ele>1661.5</ele>
        <time>2021-07-10T13:33:57Z</time>
      </trkpt>
      <trkpt lat="43.86167" lon="6.32375">
        <ele>1660.6</ele>
        <time>2021-07-10T13:33:59Z</time>
      </trkpt>
      <trkpt lat="43.86157" lon="6.32373">
        <ele>1659.7</ele>
        <time>2021-07-10T13:34:01Z</time>
      </trkpt>
      <trkpt lat="43.86147" lon="6.32368">
        <ele>1658.1</ele>
        <time>2021-07-10T13:34:03Z</time>
      </trkpt>
      <trkpt lat="43.86138" lon="6.32363">
        <ele>1657.2</ele>
        <time>2021-07-10T13:34:05Z</time>
      </trkpt>
      <trkpt lat="43.8613" lon="6.32359">
        <ele>1656.7</ele>
        <time>2021-07-10T13:34:07Z</time>
      </trkpt>
      <trkpt lat="43.86122" lon="6.32355">
        <ele>1656.3</ele>
        <time>2021-07-10T13:34:09Z</time>
      </trkpt>
      <trkpt lat="43.86116" lon="6.32351">
        <ele>1655.2</ele>
        <time>2021-07-10T13:34:11Z</time>
      </trkpt>
      <trkpt lat="43.86108" lon="6.32346">
        <ele>1654.8</ele>
        <time>2021-07-10T13:34:14Z</time>
      </trkpt>
      <trkpt lat="43.86101" lon="6.32342">
        <ele>1653.7</ele>
        <time>2021-07-10T13:34:17Z</time>
      </trkpt>
      <trkpt lat="43.86095" lon="6.32336">
        <ele>1652.1</ele>
        <time>2021-07-10T13:34:20Z</time>
      </trkpt>
      <trkpt lat="43.86087" lon="6.32331">
        <ele>1650.7</ele>
        <time>2021-07-10T13:34:23Z</time>
      </trkpt>
      <trkpt lat="43.8608" lon="6.32336">
        <ele>1650</ele>
        <time>2021-07-10T13:34:26Z</time>
      </trkpt>
      <trkpt lat="43.86082" lon="6.3235">
        <ele>1647.8</ele>
        <time>2021-07-10T13:34:29Z</time>
      </trkpt>
      <trkpt lat="43.8609" lon="6.32359">
        <ele>1645.7</ele>
        <time>2021-07-10T13:34:32Z</time>
      </trkpt>
      <trkpt lat="43.86098" lon="6.32368">
        <ele>1644.8</ele>
        <time>2021-07-10T13:34:35Z</time>
      </trkpt>
      <trkpt lat="43.86103" lon="6.32376">
        <ele>1643.7</ele>
        <time>2021-07-10T13:34:37Z</time>
      </trkpt>
      <trkpt lat="43.86108" lon="6.32384">
        <ele>1643.2</ele>
        <time>2021-07-10T13:34:39Z</time>
      </trkpt>
      <trkpt lat="43.86114" lon="6.32392">
        <ele>1642</ele>
        <time>2021-07-10T13:34:41Z</time>
      </trkpt>
      <trkpt lat="43.86121" lon="6.32402">
        <ele>1639.6</ele>
        <time>2021-07-10T13:34:44Z</time>
      </trkpt>
      <trkpt lat="43.86123" lon="6.32414">
        <ele>1637.7</ele>
        <time>2021-07-10T13:34:47Z</time>
      </trkpt>
      <trkpt lat="43.86116" lon="6.32418">
        <ele>1635.7</ele>
        <time>2021-07-10T13:34:50Z</time>
      </trkpt>
      <trkpt lat="43.86109" lon="6.32415">
        <ele>1634.6</ele>
        <time>2021-07-10T13:34:52Z</time>
      </trkpt>
      <trkpt lat="43.86103" lon="6.32409">
        <ele>1633.6</ele>
        <time>2021-07-10T13:34:54Z</time>
      </trkpt>
      <trkpt lat="43.86095" lon="6.32403">
        <ele>1633</ele>
        <time>2021-07-10T13:34:56Z</time>
      </trkpt>
      <trkpt lat="43.86088" lon="6.32399">
        <ele>1631.5</ele>
        <time>2021-07-10T13:34:58Z</time>
      </trkpt>
      <trkpt lat="43.8608" lon="6.32394">
        <ele>1630.7</ele>
        <time>2021-07-10T13:35:00Z</time>
      </trkpt>
      <trkpt lat="43.86072" lon="6.3239">
        <ele>1630.7</ele>
        <time>2021-07-10T13:35:02Z</time>
      </trkpt>
      <trkpt lat="43.86063" lon="6.32385">
        <ele>1630.2</ele>
        <time>2021-07-10T13:35:04Z</time>
      </trkpt>
      <trkpt lat="43.86055" lon="6.32379">
        <ele>1629.6</ele>
        <time>2021-07-10T13:35:06Z</time>
      </trkpt>
      <trkpt lat="43.86046" lon="6.32372">
        <ele>1628.4</ele>
        <time>2021-07-10T13:35:08Z</time>
      </trkpt>
      <trkpt lat="43.86039" lon="6.32368">
        <ele>1628</ele>
        <time>2021-07-10T13:35:10Z</time>
      </trkpt>
      <trkpt lat="43.86032" lon="6.32362">
        <ele>1627.5</ele>
        <time>2021-07-10T13:35:12Z</time>
      </trkpt>
      <trkpt lat="43.86023" lon="6.32354">
        <ele>1625.7</ele>
        <time>2021-07-10T13:35:14Z</time>
      </trkpt>
      <trkpt lat="43.86015" lon="6.32347">
        <ele>1624.9</ele>
        <time>2021-07-10T13:35:16Z</time>
      </trkpt>
      <trkpt lat="43.86009" lon="6.32342">
        <ele>1624.3</ele>
        <time>2021-07-10T13:35:18Z</time>
      </trkpt>
      <trkpt lat="43.86001" lon="6.32335">
        <ele>1623.3</ele>
        <time>2021-07-10T13:35:21Z</time>
      </trkpt>
      <trkpt lat="43.85995" lon="6.32329">
        <ele>1622.3</ele>
        <time>2021-07-10T13:35:24Z</time>
      </trkpt>
      <trkpt lat="43.85987" lon="6.32321">
        <ele>1621.1</ele>
        <time>2021-07-10T13:35:27Z</time>
      </trkpt>
      <trkpt lat="43.85979" lon="6.32313">
        <ele>1620.3</ele>
        <time>2021-07-10T13:35:29Z</time>
      </trkpt>
      <trkpt lat="43.85969" lon="6.32304">
        <ele>1619.6</ele>
        <time>2021-07-10T13:35:31Z</time>
      </trkpt>
      <trkpt lat="43.85958" lon="6.32295">
        <ele>1618.9</ele>
        <time>2021-07-10T13:35:33Z</time>
      </trkpt>
      <trkpt lat="43.85951" lon="6.32289">
        <ele>1617.6</ele>
        <time>2021-07-10T13:35:35Z</time>
      </trkpt>
      <trkpt lat="43.85945" lon="6.32284">
        <ele>1616.9</ele>
        <time>2021-07-10T13:35:37Z</time>
      </trkpt>
      <trkpt lat="43.85938" lon="6.32279">
        <ele>1615.5</ele>
        <time>2021-07-10T13:35:39Z</time>
      </trkpt>
      <trkpt lat="43.85932" lon="6.32273">
        <ele>1615</ele>
        <time>2021-07-10T13:35:41Z</time>
      </trkpt>
      <trkpt lat="43.85925" lon="6.32266">
        <ele>1613.8</ele>
        <time>2021-07-10T13:35:43Z</time>
      </trkpt>
      <trkpt lat="43.85919" lon="6.3226">
        <ele>1613.5</ele>
        <time>2021-07-10T13:35:45Z</time>
      </trkpt>
      <trkpt lat="43.85913" lon="6.32253">
        <ele>1613.1</ele>
        <time>2021-07-10T13:35:47Z</time>
      </trkpt>
      <trkpt lat="43.85908" lon="6.32247">
        <ele>1612.6</ele>
        <time>2021-07-10T13:35:49Z</time>
      </trkpt>
      <trkpt lat="43.85902" lon="6.32241">
        <ele>1612.2</ele>
        <time>2021-07-10T13:35:51Z</time>
      </trkpt>
      <trkpt lat="43.85894" lon="6.32232">
        <ele>1611.4</ele>
        <time>2021-07-10T13:35:54Z</time>
      </trkpt>
      <trkpt lat="43.85887" lon="6.32222">
        <ele>1610.3</ele>
        <time>2021-07-10T13:35:57Z</time>
      </trkpt>
      <trkpt lat="43.85881" lon="6.32211">
        <ele>1607.9</ele>
        <time>2021-07-10T13:36:00Z</time>
      </trkpt>
      <trkpt lat="43.85879" lon="6.32199">
        <ele>1606.2</ele>
        <time>2021-07-10T13:36:03Z</time>
      </trkpt>
      <trkpt lat="43.85872" lon="6.32191">
        <ele>1603.6</ele>
        <time>2021-07-10T13:36:07Z</time>
      </trkpt>
      <trkpt lat="43.85867" lon="6.322">
        <ele>1602.6</ele>
        <time>2021-07-10T13:36:10Z</time>
      </trkpt>
      <trkpt lat="43.85869" lon="6.32214">
        <ele>1601.2</ele>
        <time>2021-07-10T13:36:13Z</time>
      </trkpt>
      <trkpt lat="43.85871" lon="6.32225">
        <ele>1600.8</ele>
        <time>2021-07-10T13:36:15Z</time>
      </trkpt>
      <trkpt lat="43.85873" lon="6.32236">
        <ele>1600.1</ele>
        <time>2021-07-10T13:36:17Z</time>
      </trkpt>
      <trkpt lat="43.85875" lon="6.32248">
        <ele>1598.4</ele>
        <time>2021-07-10T13:36:19Z</time>
      </trkpt>
      <trkpt lat="43.85877" lon="6.32259">
        <ele>1596.9</ele>
        <time>2021-07-10T13:36:21Z</time>
      </trkpt>
      <trkpt lat="43.85882" lon="6.3227">
        <ele>1595.1</ele>
        <time>2021-07-10T13:36:23Z</time>
      </trkpt>
      <trkpt lat="43.85886" lon="6.32283">
        <ele>1593.9</ele>
        <time>2021-07-10T13:36:25Z</time>
      </trkpt>
      <trkpt lat="43.8589" lon="6.32294">
        <ele>1593.2</ele>
        <time>2021-07-10T13:36:27Z</time>
      </trkpt>
      <trkpt lat="43.85898" lon="6.32304">
        <ele>1590.9</ele>
        <time>2021-07-10T13:36:30Z</time>
      </trkpt>
      <trkpt lat="43.85896" lon="6.32314">
        <ele>1589.4</ele>
        <time>2021-07-10T13:36:33Z</time>
      </trkpt>
      <trkpt lat="43.85888" lon="6.32314">
        <ele>1588.2</ele>
        <time>2021-07-10T13:36:37Z</time>
      </trkpt>
      <trkpt lat="43.85882" lon="6.32305">
        <ele>1587.5</ele>
        <time>2021-07-10T13:36:40Z</time>
      </trkpt>
      <trkpt lat="43.85878" lon="6.32297">
        <ele>1587</ele>
        <time>2021-07-10T13:36:42Z</time>
      </trkpt>
      <trkpt lat="43.85873" lon="6.32289">
        <ele>1586.7</ele>
        <time>2021-07-10T13:36:44Z</time>
      </trkpt>
      <trkpt lat="43.85866" lon="6.32278">
        <ele>1586.2</ele>
        <time>2021-07-10T13:36:47Z</time>
      </trkpt>
      <trkpt lat="43.85862" lon="6.32269">
        <ele>1585.6</ele>
        <time>2021-07-10T13:36:49Z</time>
      </trkpt>
      <trkpt lat="43.85857" lon="6.32261">
        <ele>1584.8</ele>
        <time>2021-07-10T13:36:51Z</time>
      </trkpt>
      <trkpt lat="43.85851" lon="6.32252">
        <ele>1583.9</ele>
        <time>2021-07-10T13:36:53Z</time>
      </trkpt>
      <trkpt lat="43.85846" lon="6.32242">
        <ele>1583.4</ele>
        <time>2021-07-10T13:36:55Z</time>
      </trkpt>
      <trkpt lat="43.85841" lon="6.3223">
        <ele>1582.9</ele>
        <time>2021-07-10T13:36:57Z</time>
      </trkpt>
      <trkpt lat="43.85839" lon="6.32218">
        <ele>1582.4</ele>
        <time>2021-07-10T13:36:59Z</time>
      </trkpt>
      <trkpt lat="43.85837" lon="6.32206">
        <ele>1581.9</ele>
        <time>2021-07-10T13:37:01Z</time>
      </trkpt>
      <trkpt lat="43.85839" lon="6.32194">
        <ele>1581</ele>
        <time>2021-07-10T13:37:03Z</time>
      </trkpt>
      <trkpt lat="43.85838" lon="6.32181">
        <ele>1580.1</ele>
        <time>2021-07-10T13:37:05Z</time>
      </trkpt>
      <trkpt lat="43.85837" lon="6.32168">
        <ele>1578.6</ele>
        <time>2021-07-10T13:37:07Z</time>
      </trkpt>
      <trkpt lat="43.85835" lon="6.32155">
        <ele>1577.4</ele>
        <time>2021-07-10T13:37:09Z</time>
      </trkpt>
      <trkpt lat="43.85832" lon="6.32139">
        <ele>1575.5</ele>
        <time>2021-07-10T13:37:11Z</time>
      </trkpt>
      <trkpt lat="43.8583" lon="6.32123">
        <ele>1573.7</ele>
        <time>2021-07-10T13:37:13Z</time>
      </trkpt>
      <trkpt lat="43.85825" lon="6.32107">
        <ele>1573.3</ele>
        <time>2021-07-10T13:37:15Z</time>
      </trkpt>
      <trkpt lat="43.85818" lon="6.32093">
        <ele>1572.5</ele>
        <time>2021-07-10T13:37:17Z</time>
      </trkpt>
      <trkpt lat="43.85811" lon="6.32079">
        <ele>1572.1</ele>
        <time>2021-07-10T13:37:19Z</time>
      </trkpt>
      <trkpt lat="43.85806" lon="6.32069">
        <ele>1571.6</ele>
        <time>2021-07-10T13:37:21Z</time>
      </trkpt>
      <trkpt lat="43.85803" lon="6.3206">
        <ele>1571</ele>
        <time>2021-07-10T13:37:23Z</time>
      </trkpt>
      <trkpt lat="43.85801" lon="6.3205">
        <ele>1570.7</ele>
        <time>2021-07-10T13:37:25Z</time>
      </trkpt>
      <trkpt lat="43.85797" lon="6.32036">
        <ele>1570.1</ele>
        <time>2021-07-10T13:37:28Z</time>
      </trkpt>
      <trkpt lat="43.85794" lon="6.32027">
        <ele>1569.9</ele>
        <time>2021-07-10T13:37:30Z</time>
      </trkpt>
      <trkpt lat="43.85789" lon="6.32018">
        <ele>1569.5</ele>
        <time>2021-07-10T13:37:32Z</time>
      </trkpt>
      <trkpt lat="43.85784" lon="6.3201">
        <ele>1570.1</ele>
        <time>2021-07-10T13:37:34Z</time>
      </trkpt>
      <trkpt lat="43.85777" lon="6.32">
        <ele>1568.8</ele>
        <time>2021-07-10T13:37:37Z</time>
      </trkpt>
      <trkpt lat="43.85773" lon="6.3199">
        <ele>1568.6</ele>
        <time>2021-07-10T13:37:40Z</time>
      </trkpt>
      <trkpt lat="43.85772" lon="6.31978">
        <ele>1568.5</ele>
        <time>2021-07-10T13:37:43Z</time>
      </trkpt>
      <trkpt lat="43.85774" lon="6.31964">
        <ele>1568</ele>
        <time>2021-07-10T13:37:46Z</time>
      </trkpt>
      <trkpt lat="43.85775" lon="6.31953">
        <ele>1567.6</ele>
        <time>2021-07-10T13:37:48Z</time>
      </trkpt>
      <trkpt lat="43.85775" lon="6.31942">
        <ele>1567.9</ele>
        <time>2021-07-10T13:37:50Z</time>
      </trkpt>
      <trkpt lat="43.85774" lon="6.31931">
        <ele>1567.7</ele>
        <time>2021-07-10T13:37:52Z</time>
      </trkpt>
      <trkpt lat="43.85771" lon="6.31921">
        <ele>1568.3</ele>
        <time>2021-07-10T13:37:54Z</time>
      </trkpt>
      <trkpt lat="43.85766" lon="6.31912">
        <ele>1568.8</ele>
        <time>2021-07-10T13:37:56Z</time>
      </trkpt>
      <trkpt lat="43.8576" lon="6.31903">
        <ele>1568</ele>
        <time>2021-07-10T13:37:58Z</time>
      </trkpt>
      <trkpt lat="43.85752" lon="6.31895">
        <ele>1567.3</ele>
        <time>2021-07-10T13:38:00Z</time>
      </trkpt>
      <trkpt lat="43.85746" lon="6.31886">
        <ele>1567.2</ele>
        <time>2021-07-10T13:38:02Z</time>
      </trkpt>
      <trkpt lat="43.85739" lon="6.3188">
        <ele>1567</ele>
        <time>2021-07-10T13:38:04Z</time>
      </trkpt>
      <trkpt lat="43.85734" lon="6.31871">
        <ele>1566.9</ele>
        <time>2021-07-10T13:38:07Z</time>
      </trkpt>
      <trkpt lat="43.85734" lon="6.31854">
        <ele>1565.9</ele>
        <time>2021-07-10T13:38:10Z</time>
      </trkpt>
      <trkpt lat="43.85737" lon="6.31841">
        <ele>1565.1</ele>
        <time>2021-07-10T13:38:12Z</time>
      </trkpt>
      <trkpt lat="43.8574" lon="6.31828">
        <ele>1564.3</ele>
        <time>2021-07-10T13:38:14Z</time>
      </trkpt>
      <trkpt lat="43.85741" lon="6.31814">
        <ele>1563.6</ele>
        <time>2021-07-10T13:38:16Z</time>
      </trkpt>
      <trkpt lat="43.85742" lon="6.31799">
        <ele>1563.1</ele>
        <time>2021-07-10T13:38:18Z</time>
      </trkpt>
      <trkpt lat="43.85744" lon="6.31784">
        <ele>1561.5</ele>
        <time>2021-07-10T13:38:20Z</time>
      </trkpt>
      <trkpt lat="43.85744" lon="6.31766">
        <ele>1560.4</ele>
        <time>2021-07-10T13:38:22Z</time>
      </trkpt>
      <trkpt lat="43.85746" lon="6.31749">
        <ele>1560.4</ele>
        <time>2021-07-10T13:38:24Z</time>
      </trkpt>
      <trkpt lat="43.85753" lon="6.31736">
        <ele>1560.2</ele>
        <time>2021-07-10T13:38:26Z</time>
      </trkpt>
      <trkpt lat="43.85761" lon="6.31724">
        <ele>1559.5</ele>
        <time>2021-07-10T13:38:28Z</time>
      </trkpt>
      <trkpt lat="43.85765" lon="6.31709">
        <ele>1558.9</ele>
        <time>2021-07-10T13:38:30Z</time>
      </trkpt>
      <trkpt lat="43.85766" lon="6.31693">
        <ele>1557.4</ele>
        <time>2021-07-10T13:38:32Z</time>
      </trkpt>
      <trkpt lat="43.85767" lon="6.31676">
        <ele>1557.2</ele>
        <time>2021-07-10T13:38:34Z</time>
      </trkpt>
      <trkpt lat="43.85772" lon="6.3166">
        <ele>1556.6</ele>
        <time>2021-07-10T13:38:36Z</time>
      </trkpt>
      <trkpt lat="43.85779" lon="6.31644">
        <ele>1556.2</ele>
        <time>2021-07-10T13:38:38Z</time>
      </trkpt>
      <trkpt lat="43.85782" lon="6.31627">
        <ele>1555.7</ele>
        <time>2021-07-10T13:38:40Z</time>
      </trkpt>
      <trkpt lat="43.85785" lon="6.31611">
        <ele>1555.6</ele>
        <time>2021-07-10T13:38:42Z</time>
      </trkpt>
      <trkpt lat="43.85789" lon="6.31596">
        <ele>1555.4</ele>
        <time>2021-07-10T13:38:44Z</time>
      </trkpt>
      <trkpt lat="43.85793" lon="6.31583">
        <ele>1554.6</ele>
        <time>2021-07-10T13:38:46Z</time>
      </trkpt>
      <trkpt lat="43.85798" lon="6.3157">
        <ele>1554.4</ele>
        <time>2021-07-10T13:38:48Z</time>
      </trkpt>
      <trkpt lat="43.85803" lon="6.31558">
        <ele>1554.4</ele>
        <time>2021-07-10T13:38:50Z</time>
      </trkpt>
      <trkpt lat="43.85807" lon="6.31548">
        <ele>1554.4</ele>
        <time>2021-07-10T13:38:52Z</time>
      </trkpt>
      <trkpt lat="43.8581" lon="6.31539">
        <ele>1555.1</ele>
        <time>2021-07-10T13:38:54Z</time>
      </trkpt>
      <trkpt lat="43.85813" lon="6.31523">
        <ele>1554.4</ele>
        <time>2021-07-10T13:38:57Z</time>
      </trkpt>
      <trkpt lat="43.85816" lon="6.31513">
        <ele>1553</ele>
        <time>2021-07-10T13:38:59Z</time>
      </trkpt>
      <trkpt lat="43.85817" lon="6.31502">
        <ele>1552.8</ele>
        <time>2021-07-10T13:39:01Z</time>
      </trkpt>
      <trkpt lat="43.8582" lon="6.31492">
        <ele>1552.3</ele>
        <time>2021-07-10T13:39:03Z</time>
      </trkpt>
      <trkpt lat="43.85821" lon="6.31479">
        <ele>1552.1</ele>
        <time>2021-07-10T13:39:06Z</time>
      </trkpt>
      <trkpt lat="43.85824" lon="6.31464">
        <ele>1551</ele>
        <time>2021-07-10T13:39:09Z</time>
      </trkpt>
      <trkpt lat="43.85826" lon="6.31453">
        <ele>1551.3</ele>
        <time>2021-07-10T13:39:11Z</time>
      </trkpt>
      <trkpt lat="43.85828" lon="6.31441">
        <ele>1551.4</ele>
        <time>2021-07-10T13:39:13Z</time>
      </trkpt>
      <trkpt lat="43.85829" lon="6.3143">
        <ele>1552</ele>
        <time>2021-07-10T13:39:15Z</time>
      </trkpt>
      <trkpt lat="43.85829" lon="6.31419">
        <ele>1552.6</ele>
        <time>2021-07-10T13:39:17Z</time>
      </trkpt>
      <trkpt lat="43.85828" lon="6.31408">
        <ele>1553.1</ele>
        <time>2021-07-10T13:39:20Z</time>
      </trkpt>
      <trkpt lat="43.85828" lon="6.31396">
        <ele>1553.4</ele>
        <time>2021-07-10T13:39:24Z</time>
      </trkpt>
      <trkpt lat="43.85832" lon="6.31384">
        <ele>1553.9</ele>
        <time>2021-07-10T13:39:28Z</time>
      </trkpt>
      <trkpt lat="43.85836" lon="6.31375">
        <ele>1554.1</ele>
        <time>2021-07-10T13:39:31Z</time>
      </trkpt>
      <trkpt lat="43.85843" lon="6.31364">
        <ele>1554.4</ele>
        <time>2021-07-10T13:39:34Z</time>
      </trkpt>
      <trkpt lat="43.85848" lon="6.31354">
        <ele>1554.8</ele>
        <time>2021-07-10T13:39:37Z</time>
      </trkpt>
      <trkpt lat="43.85853" lon="6.31342">
        <ele>1554.8</ele>
        <time>2021-07-10T13:39:40Z</time>
      </trkpt>
      <trkpt lat="43.85858" lon="6.31329">
        <ele>1555.5</ele>
        <time>2021-07-10T13:39:43Z</time>
      </trkpt>
      <trkpt lat="43.85864" lon="6.31318">
        <ele>1556.5</ele>
        <time>2021-07-10T13:39:46Z</time>
      </trkpt>
      <trkpt lat="43.85868" lon="6.31309">
        <ele>1556.8</ele>
        <time>2021-07-10T13:39:49Z</time>
      </trkpt>
      <trkpt lat="43.85873" lon="6.31301">
        <ele>1556.8</ele>
        <time>2021-07-10T13:39:52Z</time>
      </trkpt>
      <trkpt lat="43.85879" lon="6.31291">
        <ele>1556.7</ele>
        <time>2021-07-10T13:39:55Z</time>
      </trkpt>
      <trkpt lat="43.85881" lon="6.31279">
        <ele>1558.1</ele>
        <time>2021-07-10T13:39:59Z</time>
      </trkpt>
      <trkpt lat="43.8588" lon="6.31268">
        <ele>1559.2</ele>
        <time>2021-07-10T13:40:04Z</time>
      </trkpt>
      <trkpt lat="43.8588" lon="6.31256">
        <ele>1559</ele>
        <time>2021-07-10T13:40:09Z</time>
      </trkpt>
      <trkpt lat="43.85882" lon="6.31246">
        <ele>1559.7</ele>
        <time>2021-07-10T13:40:14Z</time>
      </trkpt>
      <trkpt lat="43.85883" lon="6.31235">
        <ele>1558.5</ele>
        <time>2021-07-10T13:40:19Z</time>
      </trkpt>
      <trkpt lat="43.85886" lon="6.31225">
        <ele>1558.9</ele>
        <time>2021-07-10T13:40:24Z</time>
      </trkpt>
      <trkpt lat="43.85887" lon="6.31213">
        <ele>1559.2</ele>
        <time>2021-07-10T13:40:29Z</time>
      </trkpt>
      <trkpt lat="43.8589" lon="6.31202">
        <ele>1559.4</ele>
        <time>2021-07-10T13:40:34Z</time>
      </trkpt>
      <trkpt lat="43.85895" lon="6.31191">
        <ele>1560.1</ele>
        <time>2021-07-10T13:40:39Z</time>
      </trkpt>
      <trkpt lat="43.85899" lon="6.3118">
        <ele>1559.7</ele>
        <time>2021-07-10T13:40:44Z</time>
      </trkpt>
      <trkpt lat="43.85903" lon="6.31172">
        <ele>1560.1</ele>
        <time>2021-07-10T13:40:48Z</time>
      </trkpt>
      <trkpt lat="43.85905" lon="6.3116">
        <ele>1560.6</ele>
        <time>2021-07-10T13:40:53Z</time>
      </trkpt>
      <trkpt lat="43.85906" lon="6.31148">
        <ele>1562.6</ele>
        <time>2021-07-10T13:40:58Z</time>
      </trkpt>
      <trkpt lat="43.85906" lon="6.31138">
        <ele>1563.4</ele>
        <time>2021-07-10T13:41:02Z</time>
      </trkpt>
      <trkpt lat="43.85906" lon="6.31126">
        <ele>1563.8</ele>
        <time>2021-07-10T13:41:06Z</time>
      </trkpt>
      <trkpt lat="43.85906" lon="6.31117">
        <ele>1562.9</ele>
        <time>2021-07-10T13:41:10Z</time>
      </trkpt>
      <trkpt lat="43.85906" lon="6.31103">
        <ele>1562.1</ele>
        <time>2021-07-10T13:41:14Z</time>
      </trkpt>
      <trkpt lat="43.85906" lon="6.31091">
        <ele>1561.2</ele>
        <time>2021-07-10T13:41:17Z</time>
      </trkpt>
      <trkpt lat="43.85907" lon="6.31082">
        <ele>1560.4</ele>
        <time>2021-07-10T13:41:19Z</time>
      </trkpt>
      <trkpt lat="43.85911" lon="6.31072">
        <ele>1560.6</ele>
        <time>2021-07-10T13:41:21Z</time>
      </trkpt>
      <trkpt lat="43.85916" lon="6.31062">
        <ele>1560.1</ele>
        <time>2021-07-10T13:41:23Z</time>
      </trkpt>
      <trkpt lat="43.85923" lon="6.31054">
        <ele>1560.2</ele>
        <time>2021-07-10T13:41:25Z</time>
      </trkpt>
      <trkpt lat="43.85931" lon="6.31047">
        <ele>1560.4</ele>
        <time>2021-07-10T13:41:27Z</time>
      </trkpt>
      <trkpt lat="43.85937" lon="6.31042">
        <ele>1561.3</ele>
        <time>2021-07-10T13:41:29Z</time>
      </trkpt>
      <trkpt lat="43.85946" lon="6.31037">
        <ele>1561.8</ele>
        <time>2021-07-10T13:41:32Z</time>
      </trkpt>
      <trkpt lat="43.85953" lon="6.31035">
        <ele>1563.5</ele>
        <time>2021-07-10T13:41:36Z</time>
      </trkpt>
      <trkpt lat="43.85961" lon="6.31031">
        <ele>1564.5</ele>
        <time>2021-07-10T13:41:41Z</time>
      </trkpt>
      <trkpt lat="43.85969" lon="6.31028">
        <ele>1564.9</ele>
        <time>2021-07-10T13:41:45Z</time>
      </trkpt>
      <trkpt lat="43.85977" lon="6.31027">
        <ele>1563.9</ele>
        <time>2021-07-10T13:41:50Z</time>
      </trkpt>
      <trkpt lat="43.85985" lon="6.31027">
        <ele>1564</ele>
        <time>2021-07-10T13:41:54Z</time>
      </trkpt>
      <trkpt lat="43.85992" lon="6.31026">
        <ele>1564.1</ele>
        <time>2021-07-10T13:41:58Z</time>
      </trkpt>
      <trkpt lat="43.86" lon="6.31025">
        <ele>1564.4</ele>
        <time>2021-07-10T13:42:02Z</time>
      </trkpt>
      <trkpt lat="43.86009" lon="6.31021">
        <ele>1565</ele>
        <time>2021-07-10T13:42:06Z</time>
      </trkpt>
      <trkpt lat="43.86017" lon="6.31018">
        <ele>1565</ele>
        <time>2021-07-10T13:42:09Z</time>
      </trkpt>
      <trkpt lat="43.86024" lon="6.31012">
        <ele>1565.5</ele>
        <time>2021-07-10T13:42:12Z</time>
      </trkpt>
      <trkpt lat="43.86033" lon="6.31007">
        <ele>1564.9</ele>
        <time>2021-07-10T13:42:15Z</time>
      </trkpt>
      <trkpt lat="43.86041" lon="6.31004">
        <ele>1564.6</ele>
        <time>2021-07-10T13:42:17Z</time>
      </trkpt>
      <trkpt lat="43.86048" lon="6.30999">
        <ele>1564.8</ele>
        <time>2021-07-10T13:42:19Z</time>
      </trkpt>
      <trkpt lat="43.86054" lon="6.30995">
        <ele>1564.4</ele>
        <time>2021-07-10T13:42:21Z</time>
      </trkpt>
      <trkpt lat="43.8606" lon="6.30988">
        <ele>1563.7</ele>
        <time>2021-07-10T13:42:24Z</time>
      </trkpt>
      <trkpt lat="43.86068" lon="6.30983">
        <ele>1562.4</ele>
        <time>2021-07-10T13:42:29Z</time>
      </trkpt>
      <trkpt lat="43.86079" lon="6.30979">
        <ele>1561.8</ele>
        <time>2021-07-10T13:42:32Z</time>
      </trkpt>
      <trkpt lat="43.8609" lon="6.30979">
        <ele>1561.8</ele>
        <time>2021-07-10T13:42:34Z</time>
      </trkpt>
      <trkpt lat="43.86103" lon="6.30978">
        <ele>1559.4</ele>
        <time>2021-07-10T13:42:36Z</time>
      </trkpt>
      <trkpt lat="43.86117" lon="6.30976">
        <ele>1558.5</ele>
        <time>2021-07-10T13:42:38Z</time>
      </trkpt>
      <trkpt lat="43.86129" lon="6.30967">
        <ele>1558.1</ele>
        <time>2021-07-10T13:42:40Z</time>
      </trkpt>
      <trkpt lat="43.86138" lon="6.3096">
        <ele>1558.3</ele>
        <time>2021-07-10T13:42:42Z</time>
      </trkpt>
      <trkpt lat="43.86147" lon="6.3095">
        <ele>1557.3</ele>
        <time>2021-07-10T13:42:44Z</time>
      </trkpt>
      <trkpt lat="43.86157" lon="6.3094">
        <ele>1556.4</ele>
        <time>2021-07-10T13:42:46Z</time>
      </trkpt>
      <trkpt lat="43.86164" lon="6.30928">
        <ele>1556.8</ele>
        <time>2021-07-10T13:42:48Z</time>
      </trkpt>
      <trkpt lat="43.8617" lon="6.30921">
        <ele>1557.6</ele>
        <time>2021-07-10T13:42:50Z</time>
      </trkpt>
      <trkpt lat="43.86179" lon="6.30915">
        <ele>1557</ele>
        <time>2021-07-10T13:42:53Z</time>
      </trkpt>
      <trkpt lat="43.86186" lon="6.3091">
        <ele>1557.7</ele>
        <time>2021-07-10T13:42:56Z</time>
      </trkpt>
      <trkpt lat="43.86193" lon="6.30907">
        <ele>1556.7</ele>
        <time>2021-07-10T13:42:59Z</time>
      </trkpt>
      <trkpt lat="43.86202" lon="6.30902">
        <ele>1556</ele>
        <time>2021-07-10T13:43:03Z</time>
      </trkpt>
      <trkpt lat="43.86209" lon="6.30894">
        <ele>1555.8</ele>
        <time>2021-07-10T13:43:07Z</time>
      </trkpt>
      <trkpt lat="43.86216" lon="6.30889">
        <ele>1555.5</ele>
        <time>2021-07-10T13:43:10Z</time>
      </trkpt>
      <trkpt lat="43.86222" lon="6.30883">
        <ele>1556.8</ele>
        <time>2021-07-10T13:43:14Z</time>
      </trkpt>
      <trkpt lat="43.8623" lon="6.30875">
        <ele>1556.3</ele>
        <time>2021-07-10T13:43:18Z</time>
      </trkpt>
      <trkpt lat="43.86238" lon="6.30869">
        <ele>1556</ele>
        <time>2021-07-10T13:43:22Z</time>
      </trkpt>
      <trkpt lat="43.86243" lon="6.30861">
        <ele>1558</ele>
        <time>2021-07-10T13:43:26Z</time>
      </trkpt>
      <trkpt lat="43.86248" lon="6.3085">
        <ele>1557.3</ele>
        <time>2021-07-10T13:43:30Z</time>
      </trkpt>
      <trkpt lat="43.86251" lon="6.3084">
        <ele>1557.5</ele>
        <time>2021-07-10T13:43:33Z</time>
      </trkpt>
      <trkpt lat="43.86255" lon="6.3083">
        <ele>1557.5</ele>
        <time>2021-07-10T13:43:36Z</time>
      </trkpt>
      <trkpt lat="43.86258" lon="6.30819">
        <ele>1557.9</ele>
        <time>2021-07-10T13:43:39Z</time>
      </trkpt>
      <trkpt lat="43.86263" lon="6.30808">
        <ele>1557.9</ele>
        <time>2021-07-10T13:43:42Z</time>
      </trkpt>
      <trkpt lat="43.86268" lon="6.308">
        <ele>1557.1</ele>
        <time>2021-07-10T13:43:45Z</time>
      </trkpt>
      <trkpt lat="43.86274" lon="6.30793">
        <ele>1558.6</ele>
        <time>2021-07-10T13:43:49Z</time>
      </trkpt>
      <trkpt lat="43.86281" lon="6.30786">
        <ele>1558.5</ele>
        <time>2021-07-10T13:43:52Z</time>
      </trkpt>
      <trkpt lat="43.8629" lon="6.3078">
        <ele>1557.9</ele>
        <time>2021-07-10T13:43:55Z</time>
      </trkpt>
      <trkpt lat="43.86296" lon="6.30775">
        <ele>1557.8</ele>
        <time>2021-07-10T13:43:57Z</time>
      </trkpt>
      <trkpt lat="43.86302" lon="6.3077">
        <ele>1557.9</ele>
        <time>2021-07-10T13:43:59Z</time>
      </trkpt>
      <trkpt lat="43.86312" lon="6.30764">
        <ele>1557.8</ele>
        <time>2021-07-10T13:44:02Z</time>
      </trkpt>
      <trkpt lat="43.8632" lon="6.30759">
        <ele>1558.4</ele>
        <time>2021-07-10T13:44:05Z</time>
      </trkpt>
      <trkpt lat="43.86329" lon="6.30756">
        <ele>1557.9</ele>
        <time>2021-07-10T13:44:08Z</time>
      </trkpt>
      <trkpt lat="43.8634" lon="6.30756">
        <ele>1557.8</ele>
        <time>2021-07-10T13:44:11Z</time>
      </trkpt>
      <trkpt lat="43.86348" lon="6.30756">
        <ele>1557.9</ele>
        <time>2021-07-10T13:44:13Z</time>
      </trkpt>
      <trkpt lat="43.86358" lon="6.30756">
        <ele>1557.4</ele>
        <time>2021-07-10T13:44:16Z</time>
      </trkpt>
      <trkpt lat="43.86365" lon="6.30756">
        <ele>1556.9</ele>
        <time>2021-07-10T13:44:18Z</time>
      </trkpt>
      <trkpt lat="43.86373" lon="6.30757">
        <ele>1557.3</ele>
        <time>2021-07-10T13:44:20Z</time>
      </trkpt>
      <trkpt lat="43.86381" lon="6.30759">
        <ele>1557</ele>
        <time>2021-07-10T13:44:23Z</time>
      </trkpt>
      <trkpt lat="43.8639" lon="6.30759">
        <ele>1557</ele>
        <time>2021-07-10T13:44:26Z</time>
      </trkpt>
      <trkpt lat="43.86399" lon="6.30759">
        <ele>1556.6</ele>
        <time>2021-07-10T13:44:29Z</time>
      </trkpt>
      <trkpt lat="43.86407" lon="6.30757">
        <ele>1556.7</ele>
        <time>2021-07-10T13:44:32Z</time>
      </trkpt>
      <trkpt lat="43.86415" lon="6.30754">
        <ele>1556.2</ele>
        <time>2021-07-10T13:44:35Z</time>
      </trkpt>
      <trkpt lat="43.86423" lon="6.30746">
        <ele>1555.3</ele>
        <time>2021-07-10T13:44:38Z</time>
      </trkpt>
      <trkpt lat="43.8643" lon="6.30739">
        <ele>1554.6</ele>
        <time>2021-07-10T13:44:40Z</time>
      </trkpt>
      <trkpt lat="43.86437" lon="6.30735">
        <ele>1553.9</ele>
        <time>2021-07-10T13:44:42Z</time>
      </trkpt>
      <trkpt lat="43.86445" lon="6.30733">
        <ele>1553.2</ele>
        <time>2021-07-10T13:44:44Z</time>
      </trkpt>
      <trkpt lat="43.86453" lon="6.30729">
        <ele>1552.3</ele>
        <time>2021-07-10T13:44:46Z</time>
      </trkpt>
      <trkpt lat="43.8646" lon="6.30722">
        <ele>1551.5</ele>
        <time>2021-07-10T13:44:48Z</time>
      </trkpt>
      <trkpt lat="43.8647" lon="6.30718">
        <ele>1550.3</ele>
        <time>2021-07-10T13:44:51Z</time>
      </trkpt>
      <trkpt lat="43.8648" lon="6.30718">
        <ele>1548.6</ele>
        <time>2021-07-10T13:44:54Z</time>
      </trkpt>
      <trkpt lat="43.86487" lon="6.30714">
        <ele>1548</ele>
        <time>2021-07-10T13:44:56Z</time>
      </trkpt>
      <trkpt lat="43.86493" lon="6.30707">
        <ele>1547.2</ele>
        <time>2021-07-10T13:44:58Z</time>
      </trkpt>
      <trkpt lat="43.86498" lon="6.30697">
        <ele>1546.1</ele>
        <time>2021-07-10T13:45:00Z</time>
      </trkpt>
      <trkpt lat="43.86501" lon="6.30685">
        <ele>1544.8</ele>
        <time>2021-07-10T13:45:02Z</time>
      </trkpt>
      <trkpt lat="43.86502" lon="6.30673">
        <ele>1543.7</ele>
        <time>2021-07-10T13:45:04Z</time>
      </trkpt>
      <trkpt lat="43.86503" lon="6.30662">
        <ele>1542.6</ele>
        <time>2021-07-10T13:45:06Z</time>
      </trkpt>
      <trkpt lat="43.86505" lon="6.30653">
        <ele>1541.6</ele>
        <time>2021-07-10T13:45:08Z</time>
      </trkpt>
      <trkpt lat="43.86511" lon="6.30646">
        <ele>1540.3</ele>
        <time>2021-07-10T13:45:10Z</time>
      </trkpt>
      <trkpt lat="43.86519" lon="6.30645">
        <ele>1539.2</ele>
        <time>2021-07-10T13:45:12Z</time>
      </trkpt>
      <trkpt lat="43.86526" lon="6.30645">
        <ele>1538.2</ele>
        <time>2021-07-10T13:45:14Z</time>
      </trkpt>
      <trkpt lat="43.86537" lon="6.30645">
        <ele>1536.9</ele>
        <time>2021-07-10T13:45:16Z</time>
      </trkpt>
      <trkpt lat="43.86545" lon="6.30643">
        <ele>1536.1</ele>
        <time>2021-07-10T13:45:18Z</time>
      </trkpt>
      <trkpt lat="43.86555" lon="6.30637">
        <ele>1535.2</ele>
        <time>2021-07-10T13:45:20Z</time>
      </trkpt>
      <trkpt lat="43.86565" lon="6.3063">
        <ele>1534.6</ele>
        <time>2021-07-10T13:45:22Z</time>
      </trkpt>
      <trkpt lat="43.86572" lon="6.30624">
        <ele>1534.6</ele>
        <time>2021-07-10T13:45:24Z</time>
      </trkpt>
      <trkpt lat="43.8658" lon="6.30619">
        <ele>1534.1</ele>
        <time>2021-07-10T13:45:26Z</time>
      </trkpt>
      <trkpt lat="43.86587" lon="6.30613">
        <ele>1533.4</ele>
        <time>2021-07-10T13:45:28Z</time>
      </trkpt>
      <trkpt lat="43.86594" lon="6.30605">
        <ele>1532.9</ele>
        <time>2021-07-10T13:45:30Z</time>
      </trkpt>
      <trkpt lat="43.866" lon="6.30596">
        <ele>1532.5</ele>
        <time>2021-07-10T13:45:32Z</time>
      </trkpt>
      <trkpt lat="43.86604" lon="6.30586">
        <ele>1531.7</ele>
        <time>2021-07-10T13:45:34Z</time>
      </trkpt>
      <trkpt lat="43.86605" lon="6.30573">
        <ele>1530.4</ele>
        <time>2021-07-10T13:45:36Z</time>
      </trkpt>
      <trkpt lat="43.86604" lon="6.30563">
        <ele>1528.4</ele>
        <time>2021-07-10T13:45:38Z</time>
      </trkpt>
      <trkpt lat="43.86604" lon="6.30549">
        <ele>1526.3</ele>
        <time>2021-07-10T13:45:41Z</time>
      </trkpt>
      <trkpt lat="43.86604" lon="6.30535">
        <ele>1524.8</ele>
        <time>2021-07-10T13:45:44Z</time>
      </trkpt>
      <trkpt lat="43.86608" lon="6.30521">
        <ele>1523.6</ele>
        <time>2021-07-10T13:45:47Z</time>
      </trkpt>
      <trkpt lat="43.86612" lon="6.30512">
        <ele>1523</ele>
        <time>2021-07-10T13:45:49Z</time>
      </trkpt>
      <trkpt lat="43.86616" lon="6.30502">
        <ele>1522.2</ele>
        <time>2021-07-10T13:45:51Z</time>
      </trkpt>
      <trkpt lat="43.86623" lon="6.30492">
        <ele>1521.1</ele>
        <time>2021-07-10T13:45:53Z</time>
      </trkpt>
      <trkpt lat="43.8663" lon="6.30485">
        <ele>1520.5</ele>
        <time>2021-07-10T13:45:55Z</time>
      </trkpt>
      <trkpt lat="43.86638" lon="6.30481">
        <ele>1519.6</ele>
        <time>2021-07-10T13:45:57Z</time>
      </trkpt>
      <trkpt lat="43.86645" lon="6.30479">
        <ele>1518.9</ele>
        <time>2021-07-10T13:45:59Z</time>
      </trkpt>
      <trkpt lat="43.86653" lon="6.30472">
        <ele>1517.3</ele>
        <time>2021-07-10T13:46:02Z</time>
      </trkpt>
      <trkpt lat="43.86661" lon="6.30462">
        <ele>1515.5</ele>
        <time>2021-07-10T13:46:05Z</time>
      </trkpt>
      <trkpt lat="43.86668" lon="6.30454">
        <ele>1515.2</ele>
        <time>2021-07-10T13:46:07Z</time>
      </trkpt>
      <trkpt lat="43.86677" lon="6.30449">
        <ele>1514.2</ele>
        <time>2021-07-10T13:46:09Z</time>
      </trkpt>
      <trkpt lat="43.86687" lon="6.30448">
        <ele>1513.2</ele>
        <time>2021-07-10T13:46:11Z</time>
      </trkpt>
      <trkpt lat="43.86697" lon="6.3045">
        <ele>1512.7</ele>
        <time>2021-07-10T13:46:13Z</time>
      </trkpt>
      <trkpt lat="43.86707" lon="6.30453">
        <ele>1512.2</ele>
        <time>2021-07-10T13:46:15Z</time>
      </trkpt>
      <trkpt lat="43.86715" lon="6.30449">
        <ele>1511.5</ele>
        <time>2021-07-10T13:46:17Z</time>
      </trkpt>
      <trkpt lat="43.86723" lon="6.30444">
        <ele>1510.9</ele>
        <time>2021-07-10T13:46:19Z</time>
      </trkpt>
      <trkpt lat="43.8673" lon="6.30436">
        <ele>1510.1</ele>
        <time>2021-07-10T13:46:22Z</time>
      </trkpt>
      <trkpt lat="43.86737" lon="6.3043">
        <ele>1509.5</ele>
        <time>2021-07-10T13:46:24Z</time>
      </trkpt>
      <trkpt lat="43.86743" lon="6.30425">
        <ele>1508.8</ele>
        <time>2021-07-10T13:46:26Z</time>
      </trkpt>
      <trkpt lat="43.86749" lon="6.3042">
        <ele>1508.4</ele>
        <time>2021-07-10T13:46:28Z</time>
      </trkpt>
      <trkpt lat="43.86758" lon="6.30413">
        <ele>1508.2</ele>
        <time>2021-07-10T13:46:31Z</time>
      </trkpt>
      <trkpt lat="43.86765" lon="6.30408">
        <ele>1507.8</ele>
        <time>2021-07-10T13:46:33Z</time>
      </trkpt>
      <trkpt lat="43.86775" lon="6.30401">
        <ele>1506.6</ele>
        <time>2021-07-10T13:46:36Z</time>
      </trkpt>
      <trkpt lat="43.86781" lon="6.30395">
        <ele>1505.2</ele>
        <time>2021-07-10T13:46:38Z</time>
      </trkpt>
      <trkpt lat="43.86788" lon="6.30389">
        <ele>1504.4</ele>
        <time>2021-07-10T13:46:40Z</time>
      </trkpt>
      <trkpt lat="43.86794" lon="6.30379">
        <ele>1502.7</ele>
        <time>2021-07-10T13:46:43Z</time>
      </trkpt>
      <trkpt lat="43.868" lon="6.30369">
        <ele>1502</ele>
        <time>2021-07-10T13:46:46Z</time>
      </trkpt>
      <trkpt lat="43.86809" lon="6.30358">
        <ele>1501.6</ele>
        <time>2021-07-10T13:46:49Z</time>
      </trkpt>
      <trkpt lat="43.86817" lon="6.30354">
        <ele>1500.5</ele>
        <time>2021-07-10T13:46:51Z</time>
      </trkpt>
      <trkpt lat="43.86826" lon="6.30355">
        <ele>1498.4</ele>
        <time>2021-07-10T13:46:54Z</time>
      </trkpt>
      <trkpt lat="43.86833" lon="6.30353">
        <ele>1497.9</ele>
        <time>2021-07-10T13:46:56Z</time>
      </trkpt>
      <trkpt lat="43.86842" lon="6.30349">
        <ele>1496.4</ele>
        <time>2021-07-10T13:46:58Z</time>
      </trkpt>
      <trkpt lat="43.8685" lon="6.30344">
        <ele>1496.2</ele>
        <time>2021-07-10T13:47:00Z</time>
      </trkpt>
      <trkpt lat="43.86856" lon="6.30336">
        <ele>1496.2</ele>
        <time>2021-07-10T13:47:02Z</time>
      </trkpt>
      <trkpt lat="43.86862" lon="6.30328">
        <ele>1495.9</ele>
        <time>2021-07-10T13:47:04Z</time>
      </trkpt>
      <trkpt lat="43.86867" lon="6.30319">
        <ele>1495.2</ele>
        <time>2021-07-10T13:47:06Z</time>
      </trkpt>
      <trkpt lat="43.86871" lon="6.30307">
        <ele>1494</ele>
        <time>2021-07-10T13:47:08Z</time>
      </trkpt>
      <trkpt lat="43.86874" lon="6.30298">
        <ele>1492.8</ele>
        <time>2021-07-10T13:47:10Z</time>
      </trkpt>
      <trkpt lat="43.86879" lon="6.30288">
        <ele>1491.5</ele>
        <time>2021-07-10T13:47:12Z</time>
      </trkpt>
      <trkpt lat="43.86884" lon="6.30279">
        <ele>1489.8</ele>
        <time>2021-07-10T13:47:14Z</time>
      </trkpt>
      <trkpt lat="43.86892" lon="6.30274">
        <ele>1488.4</ele>
        <time>2021-07-10T13:47:16Z</time>
      </trkpt>
      <trkpt lat="43.86902" lon="6.30272">
        <ele>1487.3</ele>
        <time>2021-07-10T13:47:18Z</time>
      </trkpt>
      <trkpt lat="43.86913" lon="6.3027">
        <ele>1485.9</ele>
        <time>2021-07-10T13:47:20Z</time>
      </trkpt>
      <trkpt lat="43.86922" lon="6.30267">
        <ele>1485</ele>
        <time>2021-07-10T13:47:22Z</time>
      </trkpt>
      <trkpt lat="43.86931" lon="6.30265">
        <ele>1483.8</ele>
        <time>2021-07-10T13:47:24Z</time>
      </trkpt>
      <trkpt lat="43.86938" lon="6.30265">
        <ele>1483.3</ele>
        <time>2021-07-10T13:47:26Z</time>
      </trkpt>
      <trkpt lat="43.86945" lon="6.30263">
        <ele>1482.2</ele>
        <time>2021-07-10T13:47:28Z</time>
      </trkpt>
      <trkpt lat="43.8695" lon="6.30256">
        <ele>1481.2</ele>
        <time>2021-07-10T13:47:30Z</time>
      </trkpt>
      <trkpt lat="43.86955" lon="6.30246">
        <ele>1480</ele>
        <time>2021-07-10T13:47:32Z</time>
      </trkpt>
      <trkpt lat="43.86959" lon="6.30238">
        <ele>1479.1</ele>
        <time>2021-07-10T13:47:34Z</time>
      </trkpt>
      <trkpt lat="43.86967" lon="6.30232">
        <ele>1477.4</ele>
        <time>2021-07-10T13:47:36Z</time>
      </trkpt>
      <trkpt lat="43.86976" lon="6.30229">
        <ele>1475.8</ele>
        <time>2021-07-10T13:47:38Z</time>
      </trkpt>
      <trkpt lat="43.86985" lon="6.30223">
        <ele>1474.6</ele>
        <time>2021-07-10T13:47:40Z</time>
      </trkpt>
      <trkpt lat="43.86994" lon="6.3022">
        <ele>1473.7</ele>
        <time>2021-07-10T13:47:42Z</time>
      </trkpt>
      <trkpt lat="43.87002" lon="6.3022">
        <ele>1472.6</ele>
        <time>2021-07-10T13:47:44Z</time>
      </trkpt>
      <trkpt lat="43.8701" lon="6.30222">
        <ele>1471.4</ele>
        <time>2021-07-10T13:47:46Z</time>
      </trkpt>
      <trkpt lat="43.87015" lon="6.30214">
        <ele>1470.8</ele>
        <time>2021-07-10T13:47:49Z</time>
      </trkpt>
      <trkpt lat="43.8701" lon="6.30206">
        <ele>1470</ele>
        <time>2021-07-10T13:47:52Z</time>
      </trkpt>
      <trkpt lat="43.87002" lon="6.30207">
        <ele>1469.2</ele>
        <time>2021-07-10T13:47:55Z</time>
      </trkpt>
      <trkpt lat="43.86995" lon="6.30208">
        <ele>1469.6</ele>
        <time>2021-07-10T13:47:58Z</time>
      </trkpt>
      <trkpt lat="43.86987" lon="6.30204">
        <ele>1469.7</ele>
        <time>2021-07-10T13:48:00Z</time>
      </trkpt>
      <trkpt lat="43.86979" lon="6.30201">
        <ele>1471</ele>
        <time>2021-07-10T13:48:02Z</time>
      </trkpt>
      <trkpt lat="43.86969" lon="6.30195">
        <ele>1471</ele>
        <time>2021-07-10T13:48:05Z</time>
      </trkpt>
      <trkpt lat="43.86961" lon="6.30188">
        <ele>1472.3</ele>
        <time>2021-07-10T13:48:08Z</time>
      </trkpt>
      <trkpt lat="43.86953" lon="6.30185">
        <ele>1470.9</ele>
        <time>2021-07-10T13:48:11Z</time>
      </trkpt>
      <trkpt lat="43.86943" lon="6.30182">
        <ele>1469.6</ele>
        <time>2021-07-10T13:48:14Z</time>
      </trkpt>
      <trkpt lat="43.86938" lon="6.30174">
        <ele>1466.8</ele>
        <time>2021-07-10T13:48:17Z</time>
      </trkpt>
      <trkpt lat="43.86941" lon="6.30163">
        <ele>1462.5</ele>
        <time>2021-07-10T13:48:20Z</time>
      </trkpt>
      <trkpt lat="43.8695" lon="6.30157">
        <ele>1458.9</ele>
        <time>2021-07-10T13:48:23Z</time>
      </trkpt>
      <trkpt lat="43.86957" lon="6.30153">
        <ele>1457.9</ele>
        <time>2021-07-10T13:48:25Z</time>
      </trkpt>
      <trkpt lat="43.86964" lon="6.30148">
        <ele>1456.2</ele>
        <time>2021-07-10T13:48:27Z</time>
      </trkpt>
      <trkpt lat="43.86974" lon="6.30141">
        <ele>1454.4</ele>
        <time>2021-07-10T13:48:30Z</time>
      </trkpt>
      <trkpt lat="43.86981" lon="6.30142">
        <ele>1453.4</ele>
        <time>2021-07-10T13:48:32Z</time>
      </trkpt>
      <trkpt lat="43.86988" lon="6.30146">
        <ele>1452.3</ele>
        <time>2021-07-10T13:48:34Z</time>
      </trkpt>
      <trkpt lat="43.86999" lon="6.30149">
        <ele>1451.3</ele>
        <time>2021-07-10T13:48:37Z</time>
      </trkpt>
      <trkpt lat="43.87008" lon="6.30149">
        <ele>1450.3</ele>
        <time>2021-07-10T13:48:39Z</time>
      </trkpt>
      <trkpt lat="43.87017" lon="6.30149">
        <ele>1449</ele>
        <time>2021-07-10T13:48:41Z</time>
      </trkpt>
      <trkpt lat="43.87028" lon="6.30148">
        <ele>1447.6</ele>
        <time>2021-07-10T13:48:43Z</time>
      </trkpt>
      <trkpt lat="43.87039" lon="6.30148">
        <ele>1446.6</ele>
        <time>2021-07-10T13:48:45Z</time>
      </trkpt>
      <trkpt lat="43.87048" lon="6.30149">
        <ele>1445.5</ele>
        <time>2021-07-10T13:48:47Z</time>
      </trkpt>
      <trkpt lat="43.87059" lon="6.30149">
        <ele>1444.4</ele>
        <time>2021-07-10T13:48:49Z</time>
      </trkpt>
      <trkpt lat="43.87068" lon="6.30143">
        <ele>1443.4</ele>
        <time>2021-07-10T13:48:51Z</time>
      </trkpt>
      <trkpt lat="43.87077" lon="6.30141">
        <ele>1442.3</ele>
        <time>2021-07-10T13:48:53Z</time>
      </trkpt>
      <trkpt lat="43.87086" lon="6.30144">
        <ele>1441.6</ele>
        <time>2021-07-10T13:48:55Z</time>
      </trkpt>
      <trkpt lat="43.87095" lon="6.30152">
        <ele>1440.6</ele>
        <time>2021-07-10T13:48:57Z</time>
      </trkpt>
      <trkpt lat="43.87103" lon="6.30155">
        <ele>1439.5</ele>
        <time>2021-07-10T13:48:59Z</time>
      </trkpt>
      <trkpt lat="43.87109" lon="6.30144">
        <ele>1440.2</ele>
        <time>2021-07-10T13:49:01Z</time>
      </trkpt>
      <trkpt lat="43.8711" lon="6.3013">
        <ele>1438.9</ele>
        <time>2021-07-10T13:49:03Z</time>
      </trkpt>
      <trkpt lat="43.87109" lon="6.30117">
        <ele>1436.9</ele>
        <time>2021-07-10T13:49:05Z</time>
      </trkpt>
      <trkpt lat="43.87105" lon="6.30104">
        <ele>1434.9</ele>
        <time>2021-07-10T13:49:07Z</time>
      </trkpt>
      <trkpt lat="43.87101" lon="6.30093">
        <ele>1433.6</ele>
        <time>2021-07-10T13:49:09Z</time>
      </trkpt>
      <trkpt lat="43.87099" lon="6.30083">
        <ele>1432.6</ele>
        <time>2021-07-10T13:49:11Z</time>
      </trkpt>
      <trkpt lat="43.87098" lon="6.30071">
        <ele>1431.5</ele>
        <time>2021-07-10T13:49:13Z</time>
      </trkpt>
      <trkpt lat="43.87097" lon="6.30062">
        <ele>1430</ele>
        <time>2021-07-10T13:49:15Z</time>
      </trkpt>
      <trkpt lat="43.87097" lon="6.30052">
        <ele>1429.3</ele>
        <time>2021-07-10T13:49:17Z</time>
      </trkpt>
      <trkpt lat="43.87097" lon="6.30037">
        <ele>1427.5</ele>
        <time>2021-07-10T13:49:20Z</time>
      </trkpt>
      <trkpt lat="43.87098" lon="6.30027">
        <ele>1426.6</ele>
        <time>2021-07-10T13:49:22Z</time>
      </trkpt>
      <trkpt lat="43.871" lon="6.30017">
        <ele>1426.7</ele>
        <time>2021-07-10T13:49:24Z</time>
      </trkpt>
      <trkpt lat="43.87108" lon="6.30008">
        <ele>1426.1</ele>
        <time>2021-07-10T13:49:26Z</time>
      </trkpt>
      <trkpt lat="43.87115" lon="6.3">
        <ele>1425</ele>
        <time>2021-07-10T13:49:28Z</time>
      </trkpt>
      <trkpt lat="43.87122" lon="6.29993">
        <ele>1423.8</ele>
        <time>2021-07-10T13:49:30Z</time>
      </trkpt>
      <trkpt lat="43.87129" lon="6.29983">
        <ele>1423.2</ele>
        <time>2021-07-10T13:49:33Z</time>
      </trkpt>
      <trkpt lat="43.87133" lon="6.29975">
        <ele>1422.8</ele>
        <time>2021-07-10T13:49:35Z</time>
      </trkpt>
      <trkpt lat="43.87141" lon="6.29967">
        <ele>1421</ele>
        <time>2021-07-10T13:49:37Z</time>
      </trkpt>
      <trkpt lat="43.87152" lon="6.29965">
        <ele>1418.6</ele>
        <time>2021-07-10T13:49:39Z</time>
      </trkpt>
      <trkpt lat="43.87165" lon="6.29963">
        <ele>1417.1</ele>
        <time>2021-07-10T13:49:41Z</time>
      </trkpt>
      <trkpt lat="43.87178" lon="6.29957">
        <ele>1417.2</ele>
        <time>2021-07-10T13:49:43Z</time>
      </trkpt>
      <trkpt lat="43.87192" lon="6.2995">
        <ele>1416.5</ele>
        <time>2021-07-10T13:49:45Z</time>
      </trkpt>
      <trkpt lat="43.87199" lon="6.29946">
        <ele>1416.1</ele>
        <time>2021-07-10T13:49:46Z</time>
      </trkpt>
      <trkpt lat="43.8721" lon="6.29937">
        <ele>1415.1</ele>
        <time>2021-07-10T13:49:48Z</time>
      </trkpt>
      <trkpt lat="43.8722" lon="6.29928">
        <ele>1412.9</ele>
        <time>2021-07-10T13:49:50Z</time>
      </trkpt>
      <trkpt lat="43.8723" lon="6.2992">
        <ele>1412.3</ele>
        <time>2021-07-10T13:49:52Z</time>
      </trkpt>
      <trkpt lat="43.87237" lon="6.29914">
        <ele>1410.5</ele>
        <time>2021-07-10T13:49:54Z</time>
      </trkpt>
      <trkpt lat="43.87243" lon="6.29907">
        <ele>1409.4</ele>
        <time>2021-07-10T13:49:56Z</time>
      </trkpt>
      <trkpt lat="43.87249" lon="6.29894">
        <ele>1407.6</ele>
        <time>2021-07-10T13:49:59Z</time>
      </trkpt>
      <trkpt lat="43.87253" lon="6.29884">
        <ele>1406</ele>
        <time>2021-07-10T13:50:01Z</time>
      </trkpt>
      <trkpt lat="43.87259" lon="6.29874">
        <ele>1405.4</ele>
        <time>2021-07-10T13:50:03Z</time>
      </trkpt>
      <trkpt lat="43.87267" lon="6.29868">
        <ele>1404.3</ele>
        <time>2021-07-10T13:50:05Z</time>
      </trkpt>
      <trkpt lat="43.87278" lon="6.29866">
        <ele>1403</ele>
        <time>2021-07-10T13:50:07Z</time>
      </trkpt>
      <trkpt lat="43.87288" lon="6.29862">
        <ele>1401.8</ele>
        <time>2021-07-10T13:50:09Z</time>
      </trkpt>
      <trkpt lat="43.87295" lon="6.29855">
        <ele>1400.3</ele>
        <time>2021-07-10T13:50:11Z</time>
      </trkpt>
      <trkpt lat="43.87304" lon="6.29849">
        <ele>1399.7</ele>
        <time>2021-07-10T13:50:13Z</time>
      </trkpt>
      <trkpt lat="43.87312" lon="6.29839">
        <ele>1398.9</ele>
        <time>2021-07-10T13:50:15Z</time>
      </trkpt>
      <trkpt lat="43.8732" lon="6.29828">
        <ele>1397.2</ele>
        <time>2021-07-10T13:50:17Z</time>
      </trkpt>
      <trkpt lat="43.87327" lon="6.29815">
        <ele>1395.6</ele>
        <time>2021-07-10T13:50:19Z</time>
      </trkpt>
      <trkpt lat="43.87332" lon="6.29803">
        <ele>1394.3</ele>
        <time>2021-07-10T13:50:21Z</time>
      </trkpt>
      <trkpt lat="43.87338" lon="6.29792">
        <ele>1393.2</ele>
        <time>2021-07-10T13:50:23Z</time>
      </trkpt>
      <trkpt lat="43.87345" lon="6.29782">
        <ele>1391.7</ele>
        <time>2021-07-10T13:50:25Z</time>
      </trkpt>
      <trkpt lat="43.87352" lon="6.29773">
        <ele>1390.9</ele>
        <time>2021-07-10T13:50:27Z</time>
      </trkpt>
      <trkpt lat="43.87358" lon="6.29762">
        <ele>1389.8</ele>
        <time>2021-07-10T13:50:29Z</time>
      </trkpt>
      <trkpt lat="43.87361" lon="6.29751">
        <ele>1388.2</ele>
        <time>2021-07-10T13:50:31Z</time>
      </trkpt>
      <trkpt lat="43.87357" lon="6.29742">
        <ele>1387.2</ele>
        <time>2021-07-10T13:50:34Z</time>
      </trkpt>
      <trkpt lat="43.87353" lon="6.29751">
        <ele>1385.4</ele>
        <time>2021-07-10T13:50:39Z</time>
      </trkpt>
      <trkpt lat="43.87348" lon="6.29761">
        <ele>1383.7</ele>
        <time>2021-07-10T13:50:42Z</time>
      </trkpt>
      <trkpt lat="43.87342" lon="6.29773">
        <ele>1382</ele>
        <time>2021-07-10T13:50:45Z</time>
      </trkpt>
      <trkpt lat="43.87335" lon="6.29779">
        <ele>1380.8</ele>
        <time>2021-07-10T13:50:47Z</time>
      </trkpt>
      <trkpt lat="43.87325" lon="6.29785">
        <ele>1383</ele>
        <time>2021-07-10T13:50:50Z</time>
      </trkpt>
      <trkpt lat="43.87315" lon="6.29785">
        <ele>1383.5</ele>
        <time>2021-07-10T13:50:52Z</time>
      </trkpt>
      <trkpt lat="43.87304" lon="6.29788">
        <ele>1384.3</ele>
        <time>2021-07-10T13:50:54Z</time>
      </trkpt>
      <trkpt lat="43.87294" lon="6.29793">
        <ele>1384</ele>
        <time>2021-07-10T13:50:56Z</time>
      </trkpt>
      <trkpt lat="43.87283" lon="6.29794">
        <ele>1386</ele>
        <time>2021-07-10T13:50:58Z</time>
      </trkpt>
      <trkpt lat="43.87275" lon="6.29797">
        <ele>1388.2</ele>
        <time>2021-07-10T13:51:00Z</time>
      </trkpt>
      <trkpt lat="43.87267" lon="6.29796">
        <ele>1389.1</ele>
        <time>2021-07-10T13:51:02Z</time>
      </trkpt>
      <trkpt lat="43.87261" lon="6.29787">
        <ele>1387.8</ele>
        <time>2021-07-10T13:51:05Z</time>
      </trkpt>
      <trkpt lat="43.87264" lon="6.29774">
        <ele>1386.6</ele>
        <time>2021-07-10T13:51:08Z</time>
      </trkpt>
      <trkpt lat="43.87271" lon="6.29764">
        <ele>1383.9</ele>
        <time>2021-07-10T13:51:10Z</time>
      </trkpt>
      <trkpt lat="43.87275" lon="6.29751">
        <ele>1381.7</ele>
        <time>2021-07-10T13:51:12Z</time>
      </trkpt>
      <trkpt lat="43.87284" lon="6.29742">
        <ele>1381.9</ele>
        <time>2021-07-10T13:51:14Z</time>
      </trkpt>
      <trkpt lat="43.8729" lon="6.29732">
        <ele>1380.8</ele>
        <time>2021-07-10T13:51:16Z</time>
      </trkpt>
      <trkpt lat="43.87297" lon="6.29722">
        <ele>1380.4</ele>
        <time>2021-07-10T13:51:18Z</time>
      </trkpt>
      <trkpt lat="43.87305" lon="6.29711">
        <ele>1378.3</ele>
        <time>2021-07-10T13:51:20Z</time>
      </trkpt>
      <trkpt lat="43.87312" lon="6.297">
        <ele>1377.2</ele>
        <time>2021-07-10T13:51:22Z</time>
      </trkpt>
      <trkpt lat="43.87318" lon="6.29689">
        <ele>1375.9</ele>
        <time>2021-07-10T13:51:24Z</time>
      </trkpt>
      <trkpt lat="43.87324" lon="6.29677">
        <ele>1372.4</ele>
        <time>2021-07-10T13:51:26Z</time>
      </trkpt>
      <trkpt lat="43.87328" lon="6.29664">
        <ele>1373.6</ele>
        <time>2021-07-10T13:51:28Z</time>
      </trkpt>
      <trkpt lat="43.87327" lon="6.29652">
        <ele>1369.9</ele>
        <time>2021-07-10T13:51:31Z</time>
      </trkpt>
      <trkpt lat="43.87316" lon="6.29655">
        <ele>1371.9</ele>
        <time>2021-07-10T13:51:36Z</time>
      </trkpt>
      <trkpt lat="43.87304" lon="6.29662">
        <ele>1371.7</ele>
        <time>2021-07-10T13:51:38Z</time>
      </trkpt>
      <trkpt lat="43.87294" lon="6.29669">
        <ele>1371.7</ele>
        <time>2021-07-10T13:51:40Z</time>
      </trkpt>
      <trkpt lat="43.87285" lon="6.29676">
        <ele>1370</ele>
        <time>2021-07-10T13:51:42Z</time>
      </trkpt>
      <trkpt lat="43.87275" lon="6.29683">
        <ele>1370.7</ele>
        <time>2021-07-10T13:51:44Z</time>
      </trkpt>
      <trkpt lat="43.87267" lon="6.2969">
        <ele>1371.4</ele>
        <time>2021-07-10T13:51:46Z</time>
      </trkpt>
      <trkpt lat="43.87259" lon="6.29693">
        <ele>1370.2</ele>
        <time>2021-07-10T13:51:48Z</time>
      </trkpt>
      <trkpt lat="43.87247" lon="6.29691">
        <ele>1370.7</ele>
        <time>2021-07-10T13:51:50Z</time>
      </trkpt>
      <trkpt lat="43.87234" lon="6.29685">
        <ele>1370.2</ele>
        <time>2021-07-10T13:51:52Z</time>
      </trkpt>
      <trkpt lat="43.87222" lon="6.29674">
        <ele>1370.1</ele>
        <time>2021-07-10T13:51:54Z</time>
      </trkpt>
      <trkpt lat="43.87216" lon="6.29668">
        <ele>1369.3</ele>
        <time>2021-07-10T13:51:55Z</time>
      </trkpt>
      <trkpt lat="43.87205" lon="6.29654">
        <ele>1368.3</ele>
        <time>2021-07-10T13:51:57Z</time>
      </trkpt>
      <trkpt lat="43.87199" lon="6.29647">
        <ele>1368.1</ele>
        <time>2021-07-10T13:51:58Z</time>
      </trkpt>
      <trkpt lat="43.87194" lon="6.29641">
        <ele>1367.7</ele>
        <time>2021-07-10T13:51:59Z</time>
      </trkpt>
      <trkpt lat="43.87183" lon="6.29632">
        <ele>1368.4</ele>
        <time>2021-07-10T13:52:01Z</time>
      </trkpt>
      <trkpt lat="43.8717" lon="6.29628">
        <ele>1364.9</ele>
        <time>2021-07-10T13:52:03Z</time>
      </trkpt>
      <trkpt lat="43.87157" lon="6.29631">
        <ele>1362.6</ele>
        <time>2021-07-10T13:52:05Z</time>
      </trkpt>
      <trkpt lat="43.87145" lon="6.29634">
        <ele>1364.5</ele>
        <time>2021-07-10T13:52:07Z</time>
      </trkpt>
      <trkpt lat="43.87133" lon="6.29637">
        <ele>1362.9</ele>
        <time>2021-07-10T13:52:09Z</time>
      </trkpt>
      <trkpt lat="43.87123" lon="6.29639">
        <ele>1364.4</ele>
        <time>2021-07-10T13:52:11Z</time>
      </trkpt>
      <trkpt lat="43.87111" lon="6.29643">
        <ele>1363.7</ele>
        <time>2021-07-10T13:52:13Z</time>
      </trkpt>
      <trkpt lat="43.871" lon="6.29648">
        <ele>1363.3</ele>
        <time>2021-07-10T13:52:15Z</time>
      </trkpt>
      <trkpt lat="43.8709" lon="6.2965">
        <ele>1362.7</ele>
        <time>2021-07-10T13:52:17Z</time>
      </trkpt>
      <trkpt lat="43.87077" lon="6.29652">
        <ele>1361</ele>
        <time>2021-07-10T13:52:19Z</time>
      </trkpt>
      <trkpt lat="43.87065" lon="6.2965">
        <ele>1360.9</ele>
        <time>2021-07-10T13:52:21Z</time>
      </trkpt>
      <trkpt lat="43.87054" lon="6.29646">
        <ele>1360.7</ele>
        <time>2021-07-10T13:52:23Z</time>
      </trkpt>
      <trkpt lat="43.87042" lon="6.29649">
        <ele>1360.9</ele>
        <time>2021-07-10T13:52:25Z</time>
      </trkpt>
      <trkpt lat="43.87033" lon="6.29656">
        <ele>1361.1</ele>
        <time>2021-07-10T13:52:27Z</time>
      </trkpt>
      <trkpt lat="43.87025" lon="6.29664">
        <ele>1361.4</ele>
        <time>2021-07-10T13:52:29Z</time>
      </trkpt>
      <trkpt lat="43.87019" lon="6.29672">
        <ele>1359.5</ele>
        <time>2021-07-10T13:52:31Z</time>
      </trkpt>
      <trkpt lat="43.87012" lon="6.29682">
        <ele>1357.9</ele>
        <time>2021-07-10T13:52:33Z</time>
      </trkpt>
      <trkpt lat="43.87002" lon="6.2969">
        <ele>1356.4</ele>
        <time>2021-07-10T13:52:35Z</time>
      </trkpt>
      <trkpt lat="43.86993" lon="6.29696">
        <ele>1355.4</ele>
        <time>2021-07-10T13:52:37Z</time>
      </trkpt>
      <trkpt lat="43.86984" lon="6.29702">
        <ele>1352</ele>
        <time>2021-07-10T13:52:39Z</time>
      </trkpt>
      <trkpt lat="43.86977" lon="6.2971">
        <ele>1348.1</ele>
        <time>2021-07-10T13:52:41Z</time>
      </trkpt>
      <trkpt lat="43.86973" lon="6.29723">
        <ele>1345.4</ele>
        <time>2021-07-10T13:52:43Z</time>
      </trkpt>
      <trkpt lat="43.86969" lon="6.29736">
        <ele>1345.1</ele>
        <time>2021-07-10T13:52:45Z</time>
      </trkpt>
      <trkpt lat="43.86958" lon="6.2974">
        <ele>1344.3</ele>
        <time>2021-07-10T13:52:47Z</time>
      </trkpt>
      <trkpt lat="43.8695" lon="6.29731">
        <ele>1344.4</ele>
        <time>2021-07-10T13:52:49Z</time>
      </trkpt>
      <trkpt lat="43.86945" lon="6.29717">
        <ele>1343.9</ele>
        <time>2021-07-10T13:52:51Z</time>
      </trkpt>
      <trkpt lat="43.86942" lon="6.29703">
        <ele>1343.8</ele>
        <time>2021-07-10T13:52:53Z</time>
      </trkpt>
      <trkpt lat="43.86933" lon="6.29693">
        <ele>1344.2</ele>
        <time>2021-07-10T13:52:55Z</time>
      </trkpt>
      <trkpt lat="43.86926" lon="6.29685">
        <ele>1343.9</ele>
        <time>2021-07-10T13:52:57Z</time>
      </trkpt>
      <trkpt lat="43.86919" lon="6.29676">
        <ele>1344.7</ele>
        <time>2021-07-10T13:52:59Z</time>
      </trkpt>
      <trkpt lat="43.86912" lon="6.2967">
        <ele>1345.1</ele>
        <time>2021-07-10T13:53:01Z</time>
      </trkpt>
      <trkpt lat="43.86905" lon="6.29666">
        <ele>1346</ele>
        <time>2021-07-10T13:53:03Z</time>
      </trkpt>
      <trkpt lat="43.86899" lon="6.29659">
        <ele>1345.5</ele>
        <time>2021-07-10T13:53:05Z</time>
      </trkpt>
      <trkpt lat="43.86893" lon="6.29653">
        <ele>1348.3</ele>
        <time>2021-07-10T13:53:08Z</time>
      </trkpt>
      <trkpt lat="43.86887" lon="6.29645">
        <ele>1350.6</ele>
        <time>2021-07-10T13:53:11Z</time>
      </trkpt>
      <trkpt lat="43.86883" lon="6.29636">
        <ele>1349.1</ele>
        <time>2021-07-10T13:53:14Z</time>
      </trkpt>
      <trkpt lat="43.86879" lon="6.29627">
        <ele>1349.6</ele>
        <time>2021-07-10T13:53:17Z</time>
      </trkpt>
      <trkpt lat="43.86874" lon="6.29616">
        <ele>1349.1</ele>
        <time>2021-07-10T13:53:20Z</time>
      </trkpt>
      <trkpt lat="43.86868" lon="6.29605">
        <ele>1348.4</ele>
        <time>2021-07-10T13:53:23Z</time>
      </trkpt>
      <trkpt lat="43.86863" lon="6.29599">
        <ele>1347.6</ele>
        <time>2021-07-10T13:53:25Z</time>
      </trkpt>
      <trkpt lat="43.86857" lon="6.29593">
        <ele>1346.6</ele>
        <time>2021-07-10T13:53:27Z</time>
      </trkpt>
      <trkpt lat="43.86848" lon="6.29587">
        <ele>1346.8</ele>
        <time>2021-07-10T13:53:30Z</time>
      </trkpt>
      <trkpt lat="43.8684" lon="6.2958">
        <ele>1347.5</ele>
        <time>2021-07-10T13:53:33Z</time>
      </trkpt>
      <trkpt lat="43.86832" lon="6.29574">
        <ele>1348.4</ele>
        <time>2021-07-10T13:53:36Z</time>
      </trkpt>
      <trkpt lat="43.86823" lon="6.29571">
        <ele>1348.4</ele>
        <time>2021-07-10T13:53:39Z</time>
      </trkpt>
      <trkpt lat="43.86813" lon="6.29572">
        <ele>1346.5</ele>
        <time>2021-07-10T13:53:42Z</time>
      </trkpt>
      <trkpt lat="43.86805" lon="6.29578">
        <ele>1349.6</ele>
        <time>2021-07-10T13:53:45Z</time>
      </trkpt>
      <trkpt lat="43.86798" lon="6.29587">
        <ele>1349.4</ele>
        <time>2021-07-10T13:53:48Z</time>
      </trkpt>
      <trkpt lat="43.86793" lon="6.29595">
        <ele>1349.2</ele>
        <time>2021-07-10T13:53:50Z</time>
      </trkpt>
      <trkpt lat="43.86787" lon="6.29604">
        <ele>1348.7</ele>
        <time>2021-07-10T13:53:52Z</time>
      </trkpt>
      <trkpt lat="43.8678" lon="6.29609">
        <ele>1348.5</ele>
        <time>2021-07-10T13:53:54Z</time>
      </trkpt>
      <trkpt lat="43.8677" lon="6.29608">
        <ele>1347.9</ele>
        <time>2021-07-10T13:53:56Z</time>
      </trkpt>
      <trkpt lat="43.86761" lon="6.29606">
        <ele>1349.7</ele>
        <time>2021-07-10T13:53:58Z</time>
      </trkpt>
      <trkpt lat="43.86754" lon="6.29601">
        <ele>1349.7</ele>
        <time>2021-07-10T13:54:00Z</time>
      </trkpt>
      <trkpt lat="43.86745" lon="6.29598">
        <ele>1350.1</ele>
        <time>2021-07-10T13:54:03Z</time>
      </trkpt>
      <trkpt lat="43.86737" lon="6.29595">
        <ele>1349.8</ele>
        <time>2021-07-10T13:54:05Z</time>
      </trkpt>
      <trkpt lat="43.8673" lon="6.29592">
        <ele>1350.5</ele>
        <time>2021-07-10T13:54:07Z</time>
      </trkpt>
      <trkpt lat="43.86722" lon="6.29591">
        <ele>1351.3</ele>
        <time>2021-07-10T13:54:09Z</time>
      </trkpt>
      <trkpt lat="43.86714" lon="6.2959">
        <ele>1351.1</ele>
        <time>2021-07-10T13:54:11Z</time>
      </trkpt>
      <trkpt lat="43.86706" lon="6.29591">
        <ele>1350.1</ele>
        <time>2021-07-10T13:54:13Z</time>
      </trkpt>
      <trkpt lat="43.86696" lon="6.29596">
        <ele>1350.8</ele>
        <time>2021-07-10T13:54:15Z</time>
      </trkpt>
      <trkpt lat="43.86684" lon="6.296">
        <ele>1349.6</ele>
        <time>2021-07-10T13:54:17Z</time>
      </trkpt>
      <trkpt lat="43.86676" lon="6.29604">
        <ele>1349.3</ele>
        <time>2021-07-10T13:54:19Z</time>
      </trkpt>
      <trkpt lat="43.86666" lon="6.29605">
        <ele>1347.5</ele>
        <time>2021-07-10T13:54:21Z</time>
      </trkpt>
      <trkpt lat="43.86655" lon="6.29604">
        <ele>1346.4</ele>
        <time>2021-07-10T13:54:23Z</time>
      </trkpt>
      <trkpt lat="43.86646" lon="6.29602">
        <ele>1345.7</ele>
        <time>2021-07-10T13:54:25Z</time>
      </trkpt>
      <trkpt lat="43.86637" lon="6.29593">
        <ele>1345.1</ele>
        <time>2021-07-10T13:54:27Z</time>
      </trkpt>
      <trkpt lat="43.86629" lon="6.2958">
        <ele>1342.9</ele>
        <time>2021-07-10T13:54:29Z</time>
      </trkpt>
      <trkpt lat="43.86623" lon="6.29564">
        <ele>1341.7</ele>
        <time>2021-07-10T13:54:31Z</time>
      </trkpt>
      <trkpt lat="43.86615" lon="6.2955">
        <ele>1341.2</ele>
        <time>2021-07-10T13:54:33Z</time>
      </trkpt>
      <trkpt lat="43.86604" lon="6.29539">
        <ele>1340.2</ele>
        <time>2021-07-10T13:54:35Z</time>
      </trkpt>
      <trkpt lat="43.86592" lon="6.29537">
        <ele>1343.6</ele>
        <time>2021-07-10T13:54:37Z</time>
      </trkpt>
      <trkpt lat="43.86578" lon="6.29533">
        <ele>1343.1</ele>
        <time>2021-07-10T13:54:39Z</time>
      </trkpt>
      <trkpt lat="43.8657" lon="6.29533">
        <ele>1342.6</ele>
        <time>2021-07-10T13:54:40Z</time>
      </trkpt>
      <trkpt lat="43.86556" lon="6.29528">
        <ele>1343.3</ele>
        <time>2021-07-10T13:54:42Z</time>
      </trkpt>
      <trkpt lat="43.86543" lon="6.29526">
        <ele>1342.7</ele>
        <time>2021-07-10T13:54:44Z</time>
      </trkpt>
      <trkpt lat="43.86531" lon="6.29523">
        <ele>1343.7</ele>
        <time>2021-07-10T13:54:46Z</time>
      </trkpt>
      <trkpt lat="43.86518" lon="6.29522">
        <ele>1343.1</ele>
        <time>2021-07-10T13:54:48Z</time>
      </trkpt>
      <trkpt lat="43.8651" lon="6.29522">
        <ele>1343.5</ele>
        <time>2021-07-10T13:54:49Z</time>
      </trkpt>
      <trkpt lat="43.86497" lon="6.29522">
        <ele>1342.9</ele>
        <time>2021-07-10T13:54:51Z</time>
      </trkpt>
      <trkpt lat="43.86483" lon="6.29521">
        <ele>1342</ele>
        <time>2021-07-10T13:54:53Z</time>
      </trkpt>
      <trkpt lat="43.86472" lon="6.29519">
        <ele>1339.8</ele>
        <time>2021-07-10T13:54:55Z</time>
      </trkpt>
      <trkpt lat="43.86464" lon="6.29519">
        <ele>1339</ele>
        <time>2021-07-10T13:54:56Z</time>
      </trkpt>
      <trkpt lat="43.86452" lon="6.29521">
        <ele>1339.8</ele>
        <time>2021-07-10T13:54:58Z</time>
      </trkpt>
      <trkpt lat="43.86443" lon="6.29527">
        <ele>1337.9</ele>
        <time>2021-07-10T13:55:00Z</time>
      </trkpt>
      <trkpt lat="43.86438" lon="6.29539">
        <ele>1336</ele>
        <time>2021-07-10T13:55:02Z</time>
      </trkpt>
      <trkpt lat="43.86439" lon="6.29555">
        <ele>1334.7</ele>
        <time>2021-07-10T13:55:04Z</time>
      </trkpt>
      <trkpt lat="43.86446" lon="6.29567">
        <ele>1333</ele>
        <time>2021-07-10T13:55:06Z</time>
      </trkpt>
      <trkpt lat="43.86453" lon="6.29579">
        <ele>1331.6</ele>
        <time>2021-07-10T13:55:08Z</time>
      </trkpt>
      <trkpt lat="43.86459" lon="6.29597">
        <ele>1329.4</ele>
        <time>2021-07-10T13:55:10Z</time>
      </trkpt>
      <trkpt lat="43.8646" lon="6.29607">
        <ele>1329.4</ele>
        <time>2021-07-10T13:55:11Z</time>
      </trkpt>
      <trkpt lat="43.86458" lon="6.29617">
        <ele>1329.8</ele>
        <time>2021-07-10T13:55:12Z</time>
      </trkpt>
      <trkpt lat="43.86457" lon="6.29627">
        <ele>1329.3</ele>
        <time>2021-07-10T13:55:13Z</time>
      </trkpt>
      <trkpt lat="43.86456" lon="6.29636">
        <ele>1327.9</ele>
        <time>2021-07-10T13:55:14Z</time>
      </trkpt>
      <trkpt lat="43.86457" lon="6.29655">
        <ele>1326.5</ele>
        <time>2021-07-10T13:55:16Z</time>
      </trkpt>
      <trkpt lat="43.8646" lon="6.29666">
        <ele>1325.7</ele>
        <time>2021-07-10T13:55:17Z</time>
      </trkpt>
      <trkpt lat="43.86464" lon="6.29675">
        <ele>1324.9</ele>
        <time>2021-07-10T13:55:18Z</time>
      </trkpt>
      <trkpt lat="43.86467" lon="6.29684">
        <ele>1325.3</ele>
        <time>2021-07-10T13:55:19Z</time>
      </trkpt>
      <trkpt lat="43.86473" lon="6.29702">
        <ele>1324.8</ele>
        <time>2021-07-10T13:55:21Z</time>
      </trkpt>
      <trkpt lat="43.86475" lon="6.29712">
        <ele>1324.3</ele>
        <time>2021-07-10T13:55:22Z</time>
      </trkpt>
      <trkpt lat="43.86473" lon="6.29722">
        <ele>1324.6</ele>
        <time>2021-07-10T13:55:23Z</time>
      </trkpt>
      <trkpt lat="43.86463" lon="6.29737">
        <ele>1322.8</ele>
        <time>2021-07-10T13:55:25Z</time>
      </trkpt>
      <trkpt lat="43.86456" lon="6.29741">
        <ele>1322.9</ele>
        <time>2021-07-10T13:55:26Z</time>
      </trkpt>
      <trkpt lat="43.86444" lon="6.29742">
        <ele>1322.4</ele>
        <time>2021-07-10T13:55:28Z</time>
      </trkpt>
      <trkpt lat="43.86431" lon="6.29743">
        <ele>1322.4</ele>
        <time>2021-07-10T13:55:30Z</time>
      </trkpt>
      <trkpt lat="43.86417" lon="6.29748">
        <ele>1321.9</ele>
        <time>2021-07-10T13:55:32Z</time>
      </trkpt>
      <trkpt lat="43.86409" lon="6.29749">
        <ele>1320.8</ele>
        <time>2021-07-10T13:55:33Z</time>
      </trkpt>
      <trkpt lat="43.86401" lon="6.2975">
        <ele>1321.5</ele>
        <time>2021-07-10T13:55:34Z</time>
      </trkpt>
      <trkpt lat="43.86393" lon="6.29751">
        <ele>1319.6</ele>
        <time>2021-07-10T13:55:35Z</time>
      </trkpt>
      <trkpt lat="43.86386" lon="6.29753">
        <ele>1319.6</ele>
        <time>2021-07-10T13:55:36Z</time>
      </trkpt>
      <trkpt lat="43.86379" lon="6.29756">
        <ele>1318.8</ele>
        <time>2021-07-10T13:55:37Z</time>
      </trkpt>
      <trkpt lat="43.86366" lon="6.29754">
        <ele>1319.8</ele>
        <time>2021-07-10T13:55:39Z</time>
      </trkpt>
      <trkpt lat="43.86352" lon="6.29754">
        <ele>1319</ele>
        <time>2021-07-10T13:55:41Z</time>
      </trkpt>
      <trkpt lat="43.8634" lon="6.29758">
        <ele>1317.4</ele>
        <time>2021-07-10T13:55:43Z</time>
      </trkpt>
      <trkpt lat="43.86328" lon="6.29765">
        <ele>1316.6</ele>
        <time>2021-07-10T13:55:45Z</time>
      </trkpt>
      <trkpt lat="43.86317" lon="6.29777">
        <ele>1315.5</ele>
        <time>2021-07-10T13:55:47Z</time>
      </trkpt>
      <trkpt lat="43.8631" lon="6.29788">
        <ele>1314.2</ele>
        <time>2021-07-10T13:55:49Z</time>
      </trkpt>
      <trkpt lat="43.86304" lon="6.298">
        <ele>1312.1</ele>
        <time>2021-07-10T13:55:51Z</time>
      </trkpt>
      <trkpt lat="43.86298" lon="6.29813">
        <ele>1311.7</ele>
        <time>2021-07-10T13:55:53Z</time>
      </trkpt>
      <trkpt lat="43.86297" lon="6.29832">
        <ele>1308.4</ele>
        <time>2021-07-10T13:55:55Z</time>
      </trkpt>
      <trkpt lat="43.86294" lon="6.29849">
        <ele>1307.2</ele>
        <time>2021-07-10T13:55:57Z</time>
      </trkpt>
      <trkpt lat="43.86292" lon="6.29859">
        <ele>1305.9</ele>
        <time>2021-07-10T13:55:58Z</time>
      </trkpt>
      <trkpt lat="43.86283" lon="6.29872">
        <ele>1305</ele>
        <time>2021-07-10T13:56:00Z</time>
      </trkpt>
      <trkpt lat="43.86275" lon="6.29869">
        <ele>1305.3</ele>
        <time>2021-07-10T13:56:01Z</time>
      </trkpt>
      <trkpt lat="43.86265" lon="6.29864">
        <ele>1305.3</ele>
        <time>2021-07-10T13:56:03Z</time>
      </trkpt>
      <trkpt lat="43.86257" lon="6.29852">
        <ele>1303.9</ele>
        <time>2021-07-10T13:56:05Z</time>
      </trkpt>
      <trkpt lat="43.86248" lon="6.29841">
        <ele>1303.1</ele>
        <time>2021-07-10T13:56:07Z</time>
      </trkpt>
      <trkpt lat="43.86238" lon="6.29833">
        <ele>1302.2</ele>
        <time>2021-07-10T13:56:09Z</time>
      </trkpt>
      <trkpt lat="43.86231" lon="6.29828">
        <ele>1301.1</ele>
        <time>2021-07-10T13:56:10Z</time>
      </trkpt>
      <trkpt lat="43.86225" lon="6.29823">
        <ele>1300.9</ele>
        <time>2021-07-10T13:56:11Z</time>
      </trkpt>
      <trkpt lat="43.86218" lon="6.2982">
        <ele>1301.8</ele>
        <time>2021-07-10T13:56:12Z</time>
      </trkpt>
      <trkpt lat="43.8621" lon="6.29806">
        <ele>1301.1</ele>
        <time>2021-07-10T13:56:14Z</time>
      </trkpt>
      <trkpt lat="43.86207" lon="6.29796">
        <ele>1299.9</ele>
        <time>2021-07-10T13:56:15Z</time>
      </trkpt>
      <trkpt lat="43.86207" lon="6.29776">
        <ele>1298.4</ele>
        <time>2021-07-10T13:56:17Z</time>
      </trkpt>
      <trkpt lat="43.86207" lon="6.29758">
        <ele>1297.2</ele>
        <time>2021-07-10T13:56:19Z</time>
      </trkpt>
      <trkpt lat="43.86204" lon="6.29742">
        <ele>1295.5</ele>
        <time>2021-07-10T13:56:21Z</time>
      </trkpt>
      <trkpt lat="43.86195" lon="6.29728">
        <ele>1295.7</ele>
        <time>2021-07-10T13:56:23Z</time>
      </trkpt>
      <trkpt lat="43.86187" lon="6.29717">
        <ele>1294.6</ele>
        <time>2021-07-10T13:56:25Z</time>
      </trkpt>
      <trkpt lat="43.86176" lon="6.29707">
        <ele>1293.2</ele>
        <time>2021-07-10T13:56:27Z</time>
      </trkpt>
      <trkpt lat="43.86164" lon="6.29698">
        <ele>1291.8</ele>
        <time>2021-07-10T13:56:29Z</time>
      </trkpt>
      <trkpt lat="43.86153" lon="6.29688">
        <ele>1289.9</ele>
        <time>2021-07-10T13:56:31Z</time>
      </trkpt>
      <trkpt lat="43.86142" lon="6.29679">
        <ele>1289</ele>
        <time>2021-07-10T13:56:33Z</time>
      </trkpt>
      <trkpt lat="43.86131" lon="6.29666">
        <ele>1287.9</ele>
        <time>2021-07-10T13:56:35Z</time>
      </trkpt>
      <trkpt lat="43.86124" lon="6.2966">
        <ele>1286.9</ele>
        <time>2021-07-10T13:56:36Z</time>
      </trkpt>
      <trkpt lat="43.86117" lon="6.29655">
        <ele>1286.8</ele>
        <time>2021-07-10T13:56:37Z</time>
      </trkpt>
      <trkpt lat="43.86109" lon="6.29651">
        <ele>1286</ele>
        <time>2021-07-10T13:56:38Z</time>
      </trkpt>
      <trkpt lat="43.86101" lon="6.29647">
        <ele>1285.3</ele>
        <time>2021-07-10T13:56:39Z</time>
      </trkpt>
      <trkpt lat="43.86093" lon="6.29645">
        <ele>1284.2</ele>
        <time>2021-07-10T13:56:40Z</time>
      </trkpt>
      <trkpt lat="43.86085" lon="6.29645">
        <ele>1283.6</ele>
        <time>2021-07-10T13:56:41Z</time>
      </trkpt>
      <trkpt lat="43.86077" lon="6.29645">
        <ele>1283</ele>
        <time>2021-07-10T13:56:42Z</time>
      </trkpt>
      <trkpt lat="43.86069" lon="6.29645">
        <ele>1282.6</ele>
        <time>2021-07-10T13:56:43Z</time>
      </trkpt>
      <trkpt lat="43.86057" lon="6.29644">
        <ele>1282.4</ele>
        <time>2021-07-10T13:56:45Z</time>
      </trkpt>
      <trkpt lat="43.86047" lon="6.29642">
        <ele>1282.2</ele>
        <time>2021-07-10T13:56:47Z</time>
      </trkpt>
      <trkpt lat="43.86041" lon="6.29634">
        <ele>1282.8</ele>
        <time>2021-07-10T13:56:49Z</time>
      </trkpt>
      <trkpt lat="43.86042" lon="6.29623">
        <ele>1282.3</ele>
        <time>2021-07-10T13:56:51Z</time>
      </trkpt>
      <trkpt lat="43.86048" lon="6.29616">
        <ele>1279.9</ele>
        <time>2021-07-10T13:56:53Z</time>
      </trkpt>
      <trkpt lat="43.86057" lon="6.29616">
        <ele>1277.8</ele>
        <time>2021-07-10T13:56:55Z</time>
      </trkpt>
      <trkpt lat="43.86067" lon="6.29619">
        <ele>1276.9</ele>
        <time>2021-07-10T13:56:57Z</time>
      </trkpt>
      <trkpt lat="43.86079" lon="6.29618">
        <ele>1276.2</ele>
        <time>2021-07-10T13:56:59Z</time>
      </trkpt>
      <trkpt lat="43.86092" lon="6.29611">
        <ele>1274.7</ele>
        <time>2021-07-10T13:57:01Z</time>
      </trkpt>
      <trkpt lat="43.86099" lon="6.29607">
        <ele>1274.3</ele>
        <time>2021-07-10T13:57:02Z</time>
      </trkpt>
      <trkpt lat="43.86106" lon="6.29603">
        <ele>1273.7</ele>
        <time>2021-07-10T13:57:03Z</time>
      </trkpt>
      <trkpt lat="43.86119" lon="6.29597">
        <ele>1272.9</ele>
        <time>2021-07-10T13:57:05Z</time>
      </trkpt>
      <trkpt lat="43.8613" lon="6.29592">
        <ele>1271.1</ele>
        <time>2021-07-10T13:57:07Z</time>
      </trkpt>
      <trkpt lat="43.86143" lon="6.29592">
        <ele>1269.7</ele>
        <time>2021-07-10T13:57:09Z</time>
      </trkpt>
      <trkpt lat="43.86155" lon="6.29596">
        <ele>1267.9</ele>
        <time>2021-07-10T13:57:11Z</time>
      </trkpt>
      <trkpt lat="43.86167" lon="6.29604">
        <ele>1267</ele>
        <time>2021-07-10T13:57:13Z</time>
      </trkpt>
      <trkpt lat="43.86176" lon="6.29614">
        <ele>1264.7</ele>
        <time>2021-07-10T13:57:15Z</time>
      </trkpt>
      <trkpt lat="43.86184" lon="6.29616">
        <ele>1264.1</ele>
        <time>2021-07-10T13:57:17Z</time>
      </trkpt>
      <trkpt lat="43.8619" lon="6.29606">
        <ele>1264.2</ele>
        <time>2021-07-10T13:57:19Z</time>
      </trkpt>
      <trkpt lat="43.86186" lon="6.29591">
        <ele>1262.8</ele>
        <time>2021-07-10T13:57:21Z</time>
      </trkpt>
      <trkpt lat="43.86177" lon="6.29577">
        <ele>1260.2</ele>
        <time>2021-07-10T13:57:23Z</time>
      </trkpt>
      <trkpt lat="43.86172" lon="6.29569">
        <ele>1259.7</ele>
        <time>2021-07-10T13:57:24Z</time>
      </trkpt>
      <trkpt lat="43.86165" lon="6.2956">
        <ele>1256.7</ele>
        <time>2021-07-10T13:57:25Z</time>
      </trkpt>
      <trkpt lat="43.86158" lon="6.29554">
        <ele>1256.4</ele>
        <time>2021-07-10T13:57:26Z</time>
      </trkpt>
      <trkpt lat="43.86151" lon="6.29548">
        <ele>1256.5</ele>
        <time>2021-07-10T13:57:27Z</time>
      </trkpt>
      <trkpt lat="43.86144" lon="6.29543">
        <ele>1256.3</ele>
        <time>2021-07-10T13:57:28Z</time>
      </trkpt>
      <trkpt lat="43.86137" lon="6.29542">
        <ele>1255.7</ele>
        <time>2021-07-10T13:57:29Z</time>
      </trkpt>
      <trkpt lat="43.86123" lon="6.29541">
        <ele>1255.1</ele>
        <time>2021-07-10T13:57:31Z</time>
      </trkpt>
      <trkpt lat="43.86115" lon="6.29542">
        <ele>1254.8</ele>
        <time>2021-07-10T13:57:33Z</time>
      </trkpt>
      <trkpt lat="43.86106" lon="6.29539">
        <ele>1252.8</ele>
        <time>2021-07-10T13:57:35Z</time>
      </trkpt>
      <trkpt lat="43.86099" lon="6.29528">
        <ele>1252.2</ele>
        <time>2021-07-10T13:57:38Z</time>
      </trkpt>
      <trkpt lat="43.86099" lon="6.29516">
        <ele>1250.3</ele>
        <time>2021-07-10T13:57:41Z</time>
      </trkpt>
      <trkpt lat="43.86101" lon="6.29504">
        <ele>1250.2</ele>
        <time>2021-07-10T13:57:44Z</time>
      </trkpt>
      <trkpt lat="43.86108" lon="6.29496">
        <ele>1247.4</ele>
        <time>2021-07-10T13:57:47Z</time>
      </trkpt>
      <trkpt lat="43.86111" lon="6.29488">
        <ele>1249.1</ele>
        <time>2021-07-10T13:57:52Z</time>
      </trkpt>
      <trkpt lat="43.86112" lon="6.29486">
        <ele>1249.4</ele>
        <time>2021-07-10T13:57:59Z</time>
      </trkpt>
      <trkpt lat="43.86113" lon="6.29485">
        <ele>1248.1</ele>
        <time>2021-07-10T13:58:06Z</time>
      </trkpt>
      <trkpt lat="43.86112" lon="6.29484">
        <ele>1248.2</ele>
        <time>2021-07-10T13:58:07Z</time>
      </trkpt>
      <trkpt lat="43.86114" lon="6.29487">
        <ele>1249.2</ele>
        <time>2021-07-10T13:58:15Z</time>
      </trkpt>
      <trkpt lat="43.86114" lon="6.29487">
        <ele>1249.1</ele>
        <time>2021-07-10T13:58:16Z</time>
      </trkpt>
      <trkpt lat="43.86115" lon="6.29486">
        <ele>1250.4</ele>
        <time>2021-07-10T13:58:24Z</time>
      </trkpt>
      <trkpt lat="43.86114" lon="6.29491">
        <ele>1249.7</ele>
        <time>2021-07-10T13:58:31Z</time>
      </trkpt>
      <trkpt lat="43.86114" lon="6.29497">
        <ele>1251.6</ele>
        <time>2021-07-10T13:58:38Z</time>
      </trkpt>
      <trkpt lat="43.86107" lon="6.29501">
        <ele>1253.8</ele>
        <time>2021-07-10T13:58:44Z</time>
      </trkpt>
      <trkpt lat="43.861" lon="6.29502">
        <ele>1252.9</ele>
        <time>2021-07-10T13:58:48Z</time>
      </trkpt>
      <trkpt lat="43.86092" lon="6.29498">
        <ele>1252.7</ele>
        <time>2021-07-10T13:58:52Z</time>
      </trkpt>
      <trkpt lat="43.86085" lon="6.29494">
        <ele>1253.4</ele>
        <time>2021-07-10T13:58:55Z</time>
      </trkpt>
      <trkpt lat="43.86075" lon="6.29491">
        <ele>1254.3</ele>
        <time>2021-07-10T13:58:58Z</time>
      </trkpt>
      <trkpt lat="43.86065" lon="6.29488">
        <ele>1253</ele>
        <time>2021-07-10T13:59:00Z</time>
      </trkpt>
      <trkpt lat="43.86053" lon="6.29486">
        <ele>1251.7</ele>
        <time>2021-07-10T13:59:02Z</time>
      </trkpt>
      <trkpt lat="43.86046" lon="6.29479">
        <ele>1250.5</ele>
        <time>2021-07-10T13:59:04Z</time>
      </trkpt>
      <trkpt lat="43.86041" lon="6.29467">
        <ele>1250.8</ele>
        <time>2021-07-10T13:59:06Z</time>
      </trkpt>
      <trkpt lat="43.86041" lon="6.29455">
        <ele>1250.8</ele>
        <time>2021-07-10T13:59:08Z</time>
      </trkpt>
      <trkpt lat="43.86046" lon="6.29444">
        <ele>1249.3</ele>
        <time>2021-07-10T13:59:10Z</time>
      </trkpt>
      <trkpt lat="43.86055" lon="6.29432">
        <ele>1247.7</ele>
        <time>2021-07-10T13:59:12Z</time>
      </trkpt>
      <trkpt lat="43.86065" lon="6.29423">
        <ele>1246.4</ele>
        <time>2021-07-10T13:59:14Z</time>
      </trkpt>
      <trkpt lat="43.86074" lon="6.29414">
        <ele>1245.3</ele>
        <time>2021-07-10T13:59:16Z</time>
      </trkpt>
      <trkpt lat="43.86083" lon="6.29404">
        <ele>1244.6</ele>
        <time>2021-07-10T13:59:18Z</time>
      </trkpt>
      <trkpt lat="43.86092" lon="6.29396">
        <ele>1243.5</ele>
        <time>2021-07-10T13:59:20Z</time>
      </trkpt>
      <trkpt lat="43.86096" lon="6.29385">
        <ele>1244.5</ele>
        <time>2021-07-10T13:59:22Z</time>
      </trkpt>
      <trkpt lat="43.861" lon="6.29377">
        <ele>1245.3</ele>
        <time>2021-07-10T13:59:24Z</time>
      </trkpt>
      <trkpt lat="43.86103" lon="6.29367">
        <ele>1245</ele>
        <time>2021-07-10T13:59:26Z</time>
      </trkpt>
      <trkpt lat="43.86107" lon="6.29359">
        <ele>1244.8</ele>
        <time>2021-07-10T13:59:28Z</time>
      </trkpt>
      <trkpt lat="43.86108" lon="6.29353">
        <ele>1247.4</ele>
        <time>2021-07-10T13:59:35Z</time>
      </trkpt>
      <trkpt lat="43.86104" lon="6.29367">
        <ele>1247.5</ele>
        <time>2021-07-10T13:59:38Z</time>
      </trkpt>
      <trkpt lat="43.86101" lon="6.2938">
        <ele>1245.9</ele>
        <time>2021-07-10T13:59:41Z</time>
      </trkpt>
      <trkpt lat="43.86099" lon="6.2939">
        <ele>1246.9</ele>
        <time>2021-07-10T13:59:44Z</time>
      </trkpt>
      <trkpt lat="43.86093" lon="6.29397">
        <ele>1244.3</ele>
        <time>2021-07-10T13:59:51Z</time>
      </trkpt>
      <trkpt lat="43.861" lon="6.29387">
        <ele>1242.3</ele>
        <time>2021-07-10T13:59:56Z</time>
      </trkpt>
      <trkpt lat="43.86104" lon="6.29374">
        <ele>1243.1</ele>
        <time>2021-07-10T13:59:59Z</time>
      </trkpt>
      <trkpt lat="43.86108" lon="6.29361">
        <ele>1242.7</ele>
        <time>2021-07-10T14:00:02Z</time>
      </trkpt>
      <trkpt lat="43.86113" lon="6.2935">
        <ele>1243.1</ele>
        <time>2021-07-10T14:00:05Z</time>
      </trkpt>
      <trkpt lat="43.86121" lon="6.29344">
        <ele>1244</ele>
        <time>2021-07-10T14:00:08Z</time>
      </trkpt>
      <trkpt lat="43.86129" lon="6.29341">
        <ele>1244.6</ele>
        <time>2021-07-10T14:00:11Z</time>
      </trkpt>
      <trkpt lat="43.86137" lon="6.29336">
        <ele>1244</ele>
        <time>2021-07-10T14:00:14Z</time>
      </trkpt>
      <trkpt lat="43.86144" lon="6.29329">
        <ele>1244.8</ele>
        <time>2021-07-10T14:00:17Z</time>
      </trkpt>
      <trkpt lat="43.86151" lon="6.2932">
        <ele>1244.6</ele>
        <time>2021-07-10T14:00:20Z</time>
      </trkpt>
      <trkpt lat="43.86156" lon="6.2931">
        <ele>1246.4</ele>
        <time>2021-07-10T14:00:23Z</time>
      </trkpt>
      <trkpt lat="43.86161" lon="6.29298">
        <ele>1246.5</ele>
        <time>2021-07-10T14:00:26Z</time>
      </trkpt>
      <trkpt lat="43.86164" lon="6.29287">
        <ele>1247.9</ele>
        <time>2021-07-10T14:00:29Z</time>
      </trkpt>
      <trkpt lat="43.86167" lon="6.29278">
        <ele>1251.3</ele>
        <time>2021-07-10T14:00:32Z</time>
      </trkpt>
      <trkpt lat="43.86168" lon="6.29267">
        <ele>1252</ele>
        <time>2021-07-10T14:00:35Z</time>
      </trkpt>
      <trkpt lat="43.86169" lon="6.29256">
        <ele>1251.9</ele>
        <time>2021-07-10T14:00:38Z</time>
      </trkpt>
      <trkpt lat="43.86171" lon="6.29244">
        <ele>1253</ele>
        <time>2021-07-10T14:00:41Z</time>
      </trkpt>
      <trkpt lat="43.86173" lon="6.29233">
        <ele>1254.1</ele>
        <time>2021-07-10T14:00:44Z</time>
      </trkpt>
      <trkpt lat="43.86176" lon="6.29223">
        <ele>1255.7</ele>
        <time>2021-07-10T14:00:46Z</time>
      </trkpt>
      <trkpt lat="43.86183" lon="6.29214">
        <ele>1255.9</ele>
        <time>2021-07-10T14:00:49Z</time>
      </trkpt>
      <trkpt lat="43.86189" lon="6.29207">
        <ele>1256.8</ele>
        <time>2021-07-10T14:00:52Z</time>
      </trkpt>
      <trkpt lat="43.86195" lon="6.29202">
        <ele>1256.4</ele>
        <time>2021-07-10T14:00:55Z</time>
      </trkpt>
      <trkpt lat="43.86202" lon="6.29195">
        <ele>1255.6</ele>
        <time>2021-07-10T14:00:58Z</time>
      </trkpt>
      <trkpt lat="43.86208" lon="6.29188">
        <ele>1255.2</ele>
        <time>2021-07-10T14:01:01Z</time>
      </trkpt>
      <trkpt lat="43.86214" lon="6.29181">
        <ele>1255.6</ele>
        <time>2021-07-10T14:01:04Z</time>
      </trkpt>
      <trkpt lat="43.8622" lon="6.29172">
        <ele>1256.8</ele>
        <time>2021-07-10T14:01:07Z</time>
      </trkpt>
      <trkpt lat="43.86226" lon="6.29162">
        <ele>1255.7</ele>
        <time>2021-07-10T14:01:10Z</time>
      </trkpt>
      <trkpt lat="43.86231" lon="6.29151">
        <ele>1254.7</ele>
        <time>2021-07-10T14:01:13Z</time>
      </trkpt>
      <trkpt lat="43.86238" lon="6.2914">
        <ele>1257.6</ele>
        <time>2021-07-10T14:01:16Z</time>
      </trkpt>
      <trkpt lat="43.86244" lon="6.29128">
        <ele>1256.8</ele>
        <time>2021-07-10T14:01:19Z</time>
      </trkpt>
      <trkpt lat="43.86248" lon="6.29117">
        <ele>1255.6</ele>
        <time>2021-07-10T14:01:22Z</time>
      </trkpt>
      <trkpt lat="43.86251" lon="6.29108">
        <ele>1258.5</ele>
        <time>2021-07-10T14:01:24Z</time>
      </trkpt>
      <trkpt lat="43.86255" lon="6.29099">
        <ele>1259.1</ele>
        <time>2021-07-10T14:01:26Z</time>
      </trkpt>
      <trkpt lat="43.8626" lon="6.2909">
        <ele>1252.9</ele>
        <time>2021-07-10T14:01:28Z</time>
      </trkpt>
      <trkpt lat="43.86266" lon="6.29081">
        <ele>1253.6</ele>
        <time>2021-07-10T14:01:30Z</time>
      </trkpt>
      <trkpt lat="43.86272" lon="6.29073">
        <ele>1252</ele>
        <time>2021-07-10T14:01:32Z</time>
      </trkpt>
      <trkpt lat="43.86279" lon="6.29063">
        <ele>1253.8</ele>
        <time>2021-07-10T14:01:35Z</time>
      </trkpt>
      <trkpt lat="43.86285" lon="6.29052">
        <ele>1252.5</ele>
        <time>2021-07-10T14:01:38Z</time>
      </trkpt>
      <trkpt lat="43.86291" lon="6.29042">
        <ele>1251.8</ele>
        <time>2021-07-10T14:01:41Z</time>
      </trkpt>
      <trkpt lat="43.86298" lon="6.29032">
        <ele>1251.6</ele>
        <time>2021-07-10T14:01:44Z</time>
      </trkpt>
      <trkpt lat="43.86304" lon="6.29023">
        <ele>1250.4</ele>
        <time>2021-07-10T14:01:47Z</time>
      </trkpt>
      <trkpt lat="43.86311" lon="6.29015">
        <ele>1250.5</ele>
        <time>2021-07-10T14:01:50Z</time>
      </trkpt>
      <trkpt lat="43.86316" lon="6.29007">
        <ele>1249.3</ele>
        <time>2021-07-10T14:01:53Z</time>
      </trkpt>
      <trkpt lat="43.86322" lon="6.29">
        <ele>1248.5</ele>
        <time>2021-07-10T14:01:56Z</time>
      </trkpt>
      <trkpt lat="43.86328" lon="6.28993">
        <ele>1248.2</ele>
        <time>2021-07-10T14:01:59Z</time>
      </trkpt>
      <trkpt lat="43.86335" lon="6.28983">
        <ele>1249.4</ele>
        <time>2021-07-10T14:02:03Z</time>
      </trkpt>
      <trkpt lat="43.86336" lon="6.28971">
        <ele>1250.1</ele>
        <time>2021-07-10T14:02:07Z</time>
      </trkpt>
      <trkpt lat="43.86328" lon="6.28963">
        <ele>1248</ele>
        <time>2021-07-10T14:02:11Z</time>
      </trkpt>
      <trkpt lat="43.86319" lon="6.28965">
        <ele>1248.1</ele>
        <time>2021-07-10T14:02:16Z</time>
      </trkpt>
      <trkpt lat="43.86313" lon="6.2897">
        <ele>1248.3</ele>
        <time>2021-07-10T14:02:20Z</time>
      </trkpt>
      <trkpt lat="43.86308" lon="6.28978">
        <ele>1248.6</ele>
        <time>2021-07-10T14:02:24Z</time>
      </trkpt>
      <trkpt lat="43.86304" lon="6.28987">
        <ele>1251.8</ele>
        <time>2021-07-10T14:02:28Z</time>
      </trkpt>
      <trkpt lat="43.86301" lon="6.28998">
        <ele>1254.6</ele>
        <time>2021-07-10T14:02:33Z</time>
      </trkpt>
      <trkpt lat="43.86298" lon="6.29007">
        <ele>1254.6</ele>
        <time>2021-07-10T14:02:39Z</time>
      </trkpt>
      <trkpt lat="43.86292" lon="6.29013">
        <ele>1257.3</ele>
        <time>2021-07-10T14:02:46Z</time>
      </trkpt>
      <trkpt lat="43.86287" lon="6.29021">
        <ele>1258.8</ele>
        <time>2021-07-10T14:02:52Z</time>
      </trkpt>
      <trkpt lat="43.86282" lon="6.29028">
        <ele>1258.2</ele>
        <time>2021-07-10T14:02:58Z</time>
      </trkpt>
      <trkpt lat="43.86276" lon="6.29035">
        <ele>1264.8</ele>
        <time>2021-07-10T14:03:04Z</time>
      </trkpt>
      <trkpt lat="43.86272" lon="6.29044">
        <ele>1266.7</ele>
        <time>2021-07-10T14:03:10Z</time>
      </trkpt>
      <trkpt lat="43.86266" lon="6.29051">
        <ele>1270.3</ele>
        <time>2021-07-10T14:03:15Z</time>
      </trkpt>
      <trkpt lat="43.86259" lon="6.29057">
        <ele>1269.8</ele>
        <time>2021-07-10T14:03:19Z</time>
      </trkpt>
      <trkpt lat="43.86252" lon="6.29062">
        <ele>1270.2</ele>
        <time>2021-07-10T14:03:24Z</time>
      </trkpt>
      <trkpt lat="43.86244" lon="6.29067">
        <ele>1272.4</ele>
        <time>2021-07-10T14:03:30Z</time>
      </trkpt>
      <trkpt lat="43.86237" lon="6.2907">
        <ele>1275.4</ele>
        <time>2021-07-10T14:03:34Z</time>
      </trkpt>
      <trkpt lat="43.8623" lon="6.29075">
        <ele>1275.5</ele>
        <time>2021-07-10T14:03:38Z</time>
      </trkpt>
      <trkpt lat="43.86222" lon="6.2908">
        <ele>1276.9</ele>
        <time>2021-07-10T14:03:42Z</time>
      </trkpt>
      <trkpt lat="43.86214" lon="6.29083">
        <ele>1277.3</ele>
        <time>2021-07-10T14:03:46Z</time>
      </trkpt>
      <trkpt lat="43.86208" lon="6.29092">
        <ele>1280.3</ele>
        <time>2021-07-10T14:03:51Z</time>
      </trkpt>
      <trkpt lat="43.86203" lon="6.29101">
        <ele>1282</ele>
        <time>2021-07-10T14:03:57Z</time>
      </trkpt>
      <trkpt lat="43.86198" lon="6.29108">
        <ele>1286.5</ele>
        <time>2021-07-10T14:04:01Z</time>
      </trkpt>
      <trkpt lat="43.86191" lon="6.29116">
        <ele>1287.1</ele>
        <time>2021-07-10T14:04:06Z</time>
      </trkpt>
      <trkpt lat="43.86185" lon="6.29123">
        <ele>1287.2</ele>
        <time>2021-07-10T14:04:10Z</time>
      </trkpt>
      <trkpt lat="43.86178" lon="6.29127">
        <ele>1285.3</ele>
        <time>2021-07-10T14:04:14Z</time>
      </trkpt>
      <trkpt lat="43.86171" lon="6.2913">
        <ele>1284.3</ele>
        <time>2021-07-10T14:04:17Z</time>
      </trkpt>
      <trkpt lat="43.86164" lon="6.29131">
        <ele>1282.3</ele>
        <time>2021-07-10T14:04:20Z</time>
      </trkpt>
      <trkpt lat="43.86154" lon="6.29131">
        <ele>1279.8</ele>
        <time>2021-07-10T14:04:24Z</time>
      </trkpt>
      <trkpt lat="43.86145" lon="6.29129">
        <ele>1280.2</ele>
        <time>2021-07-10T14:04:28Z</time>
      </trkpt>
      <trkpt lat="43.86138" lon="6.29124">
        <ele>1280.6</ele>
        <time>2021-07-10T14:04:32Z</time>
      </trkpt>
      <trkpt lat="43.86131" lon="6.29116">
        <ele>1281.9</ele>
        <time>2021-07-10T14:04:36Z</time>
      </trkpt>
      <trkpt lat="43.86127" lon="6.29107">
        <ele>1282.3</ele>
        <time>2021-07-10T14:04:40Z</time>
      </trkpt>
      <trkpt lat="43.86123" lon="6.29099">
        <ele>1283.2</ele>
        <time>2021-07-10T14:04:44Z</time>
      </trkpt>
      <trkpt lat="43.86117" lon="6.29091">
        <ele>1283.5</ele>
        <time>2021-07-10T14:04:48Z</time>
      </trkpt>
      <trkpt lat="43.86111" lon="6.29084">
        <ele>1284.4</ele>
        <time>2021-07-10T14:04:52Z</time>
      </trkpt>
      <trkpt lat="43.86104" lon="6.29082">
        <ele>1284.6</ele>
        <time>2021-07-10T14:04:56Z</time>
      </trkpt>
      <trkpt lat="43.86098" lon="6.29089">
        <ele>1285.1</ele>
        <time>2021-07-10T14:05:00Z</time>
      </trkpt>
      <trkpt lat="43.86096" lon="6.29099">
        <ele>1285.8</ele>
        <time>2021-07-10T14:05:04Z</time>
      </trkpt>
      <trkpt lat="43.86099" lon="6.29111">
        <ele>1286.3</ele>
        <time>2021-07-10T14:05:08Z</time>
      </trkpt>
      <trkpt lat="43.86101" lon="6.29121">
        <ele>1286.1</ele>
        <time>2021-07-10T14:05:12Z</time>
      </trkpt>
      <trkpt lat="43.86102" lon="6.29133">
        <ele>1285.3</ele>
        <time>2021-07-10T14:05:16Z</time>
      </trkpt>
      <trkpt lat="43.86103" lon="6.29144">
        <ele>1285.9</ele>
        <time>2021-07-10T14:05:20Z</time>
      </trkpt>
      <trkpt lat="43.86101" lon="6.29155">
        <ele>1285.9</ele>
        <time>2021-07-10T14:05:24Z</time>
      </trkpt>
      <trkpt lat="43.86097" lon="6.29166">
        <ele>1287.1</ele>
        <time>2021-07-10T14:05:28Z</time>
      </trkpt>
      <trkpt lat="43.86092" lon="6.29172">
        <ele>1288.4</ele>
        <time>2021-07-10T14:05:32Z</time>
      </trkpt>
      <trkpt lat="43.86086" lon="6.2918">
        <ele>1288.5</ele>
        <time>2021-07-10T14:05:36Z</time>
      </trkpt>
      <trkpt lat="43.8608" lon="6.29186">
        <ele>1289.2</ele>
        <time>2021-07-10T14:05:40Z</time>
      </trkpt>
      <trkpt lat="43.86073" lon="6.29191">
        <ele>1290.2</ele>
        <time>2021-07-10T14:05:44Z</time>
      </trkpt>
      <trkpt lat="43.86065" lon="6.29194">
        <ele>1290</ele>
        <time>2021-07-10T14:05:48Z</time>
      </trkpt>
      <trkpt lat="43.86058" lon="6.29195">
        <ele>1288.7</ele>
        <time>2021-07-10T14:05:51Z</time>
      </trkpt>
      <trkpt lat="43.86048" lon="6.29194">
        <ele>1288.2</ele>
        <time>2021-07-10T14:05:55Z</time>
      </trkpt>
      <trkpt lat="43.8604" lon="6.29191">
        <ele>1287.9</ele>
        <time>2021-07-10T14:05:59Z</time>
      </trkpt>
      <trkpt lat="43.86032" lon="6.29184">
        <ele>1287.4</ele>
        <time>2021-07-10T14:06:03Z</time>
      </trkpt>
      <trkpt lat="43.86025" lon="6.29176">
        <ele>1288.4</ele>
        <time>2021-07-10T14:06:07Z</time>
      </trkpt>
      <trkpt lat="43.86019" lon="6.29168">
        <ele>1288.4</ele>
        <time>2021-07-10T14:06:11Z</time>
      </trkpt>
      <trkpt lat="43.86013" lon="6.29158">
        <ele>1288.3</ele>
        <time>2021-07-10T14:06:15Z</time>
      </trkpt>
      <trkpt lat="43.86007" lon="6.29149">
        <ele>1288.3</ele>
        <time>2021-07-10T14:06:19Z</time>
      </trkpt>
      <trkpt lat="43.86001" lon="6.29143">
        <ele>1289.9</ele>
        <time>2021-07-10T14:06:23Z</time>
      </trkpt>
      <trkpt lat="43.85994" lon="6.29136">
        <ele>1291.1</ele>
        <time>2021-07-10T14:06:27Z</time>
      </trkpt>
      <trkpt lat="43.85986" lon="6.29132">
        <ele>1296.6</ele>
        <time>2021-07-10T14:06:32Z</time>
      </trkpt>
      <trkpt lat="43.85987" lon="6.29134">
        <ele>1296.8</ele>
        <time>2021-07-10T14:06:39Z</time>
      </trkpt>
      <trkpt lat="43.85988" lon="6.29134">
        <ele>1297.2</ele>
        <time>2021-07-10T14:06:42Z</time>
      </trkpt>
      <trkpt lat="43.85989" lon="6.29134">
        <ele>1297.1</ele>
        <time>2021-07-10T14:07:01Z</time>
      </trkpt>
      <trkpt lat="43.85989" lon="6.29134">
        <ele>1297.1</ele>
        <time>2021-07-10T14:07:02Z</time>
      </trkpt>
      <trkpt lat="43.85986" lon="6.29133">
        <ele>1293.1</ele>
        <time>2021-07-10T14:07:27Z</time>
      </trkpt>
      <trkpt lat="43.85987" lon="6.29131">
        <ele>1288.1</ele>
        <time>2021-07-10T14:07:33Z</time>
      </trkpt>
      <trkpt lat="43.85982" lon="6.29127">
        <ele>1291.3</ele>
        <time>2021-07-10T14:08:04Z</time>
      </trkpt>
      <trkpt lat="43.85972" lon="6.29127">
        <ele>1293.5</ele>
        <time>2021-07-10T14:08:09Z</time>
      </trkpt>
      <trkpt lat="43.85965" lon="6.29129">
        <ele>1293.4</ele>
        <time>2021-07-10T14:08:13Z</time>
      </trkpt>
      <trkpt lat="43.85956" lon="6.29133">
        <ele>1296.2</ele>
        <time>2021-07-10T14:08:17Z</time>
      </trkpt>
      <trkpt lat="43.85949" lon="6.29136">
        <ele>1302</ele>
        <time>2021-07-10T14:08:24Z</time>
      </trkpt>
      <trkpt lat="43.85946" lon="6.29135">
        <ele>1302.1</ele>
        <time>2021-07-10T14:08:31Z</time>
      </trkpt>
      <trkpt lat="43.85939" lon="6.2914">
        <ele>1306.8</ele>
        <time>2021-07-10T14:08:38Z</time>
      </trkpt>
      <trkpt lat="43.85932" lon="6.29141">
        <ele>1306.9</ele>
        <time>2021-07-10T14:08:41Z</time>
      </trkpt>
      <trkpt lat="43.85923" lon="6.29143">
        <ele>1308.2</ele>
        <time>2021-07-10T14:08:45Z</time>
      </trkpt>
      <trkpt lat="43.85914" lon="6.29146">
        <ele>1308.1</ele>
        <time>2021-07-10T14:08:48Z</time>
      </trkpt>
      <trkpt lat="43.85907" lon="6.2915">
        <ele>1309</ele>
        <time>2021-07-10T14:08:52Z</time>
      </trkpt>
      <trkpt lat="43.859" lon="6.29156">
        <ele>1309.5</ele>
        <time>2021-07-10T14:08:56Z</time>
      </trkpt>
      <trkpt lat="43.85896" lon="6.29166">
        <ele>1306.3</ele>
        <time>2021-07-10T14:09:01Z</time>
      </trkpt>
      <trkpt lat="43.85896" lon="6.29176">
        <ele>1305.6</ele>
        <time>2021-07-10T14:09:06Z</time>
      </trkpt>
      <trkpt lat="43.85896" lon="6.29187">
        <ele>1306</ele>
        <time>2021-07-10T14:09:11Z</time>
      </trkpt>
      <trkpt lat="43.85895" lon="6.29198">
        <ele>1304.7</ele>
        <time>2021-07-10T14:09:16Z</time>
      </trkpt>
      <trkpt lat="43.85893" lon="6.29209">
        <ele>1306.2</ele>
        <time>2021-07-10T14:09:21Z</time>
      </trkpt>
      <trkpt lat="43.85894" lon="6.29221">
        <ele>1306.8</ele>
        <time>2021-07-10T14:09:26Z</time>
      </trkpt>
      <trkpt lat="43.85898" lon="6.29232">
        <ele>1306.2</ele>
        <time>2021-07-10T14:09:31Z</time>
      </trkpt>
      <trkpt lat="43.85904" lon="6.29241">
        <ele>1307.8</ele>
        <time>2021-07-10T14:09:37Z</time>
      </trkpt>
      <trkpt lat="43.85909" lon="6.29249">
        <ele>1310.8</ele>
        <time>2021-07-10T14:09:42Z</time>
      </trkpt>
      <trkpt lat="43.8591" lon="6.29259">
        <ele>1309.8</ele>
        <time>2021-07-10T14:09:46Z</time>
      </trkpt>
      <trkpt lat="43.85905" lon="6.29269">
        <ele>1309.2</ele>
        <time>2021-07-10T14:09:50Z</time>
      </trkpt>
      <trkpt lat="43.85898" lon="6.29275">
        <ele>1307.9</ele>
        <time>2021-07-10T14:09:54Z</time>
      </trkpt>
      <trkpt lat="43.85891" lon="6.29276">
        <ele>1307.6</ele>
        <time>2021-07-10T14:09:58Z</time>
      </trkpt>
      <trkpt lat="43.85883" lon="6.29277">
        <ele>1307.3</ele>
        <time>2021-07-10T14:10:02Z</time>
      </trkpt>
      <trkpt lat="43.85875" lon="6.29276">
        <ele>1307.2</ele>
        <time>2021-07-10T14:10:07Z</time>
      </trkpt>
      <trkpt lat="43.85866" lon="6.29277">
        <ele>1307.7</ele>
        <time>2021-07-10T14:10:12Z</time>
      </trkpt>
      <trkpt lat="43.85858" lon="6.29275">
        <ele>1309.3</ele>
        <time>2021-07-10T14:10:17Z</time>
      </trkpt>
      <trkpt lat="43.8585" lon="6.29273">
        <ele>1309.9</ele>
        <time>2021-07-10T14:10:21Z</time>
      </trkpt>
      <trkpt lat="43.85843" lon="6.29271">
        <ele>1310.6</ele>
        <time>2021-07-10T14:10:25Z</time>
      </trkpt>
      <trkpt lat="43.85835" lon="6.29274">
        <ele>1313.7</ele>
        <time>2021-07-10T14:10:30Z</time>
      </trkpt>
      <trkpt lat="43.85828" lon="6.2928">
        <ele>1314.2</ele>
        <time>2021-07-10T14:10:35Z</time>
      </trkpt>
      <trkpt lat="43.85823" lon="6.29288">
        <ele>1318.5</ele>
        <time>2021-07-10T14:10:41Z</time>
      </trkpt>
      <trkpt lat="43.8582" lon="6.29298">
        <ele>1319.3</ele>
        <time>2021-07-10T14:10:46Z</time>
      </trkpt>
      <trkpt lat="43.8582" lon="6.29308">
        <ele>1320.4</ele>
        <time>2021-07-10T14:10:52Z</time>
      </trkpt>
      <trkpt lat="43.85821" lon="6.29318">
        <ele>1321.3</ele>
        <time>2021-07-10T14:10:57Z</time>
      </trkpt>
      <trkpt lat="43.8582" lon="6.29329">
        <ele>1321.2</ele>
        <time>2021-07-10T14:11:01Z</time>
      </trkpt>
      <trkpt lat="43.85815" lon="6.29338">
        <ele>1320.7</ele>
        <time>2021-07-10T14:11:05Z</time>
      </trkpt>
      <trkpt lat="43.85808" lon="6.29345">
        <ele>1320.6</ele>
        <time>2021-07-10T14:11:09Z</time>
      </trkpt>
      <trkpt lat="43.85801" lon="6.29349">
        <ele>1320.4</ele>
        <time>2021-07-10T14:11:13Z</time>
      </trkpt>
      <trkpt lat="43.85793" lon="6.29354">
        <ele>1322</ele>
        <time>2021-07-10T14:11:18Z</time>
      </trkpt>
      <trkpt lat="43.85786" lon="6.29359">
        <ele>1321.9</ele>
        <time>2021-07-10T14:11:22Z</time>
      </trkpt>
      <trkpt lat="43.85779" lon="6.29366">
        <ele>1320.3</ele>
        <time>2021-07-10T14:11:27Z</time>
      </trkpt>
      <trkpt lat="43.85773" lon="6.29372">
        <ele>1320.3</ele>
        <time>2021-07-10T14:11:31Z</time>
      </trkpt>
      <trkpt lat="43.85767" lon="6.29377">
        <ele>1321.7</ele>
        <time>2021-07-10T14:11:35Z</time>
      </trkpt>
      <trkpt lat="43.8576" lon="6.29381">
        <ele>1322.5</ele>
        <time>2021-07-10T14:11:40Z</time>
      </trkpt>
      <trkpt lat="43.85751" lon="6.29385">
        <ele>1324.5</ele>
        <time>2021-07-10T14:11:45Z</time>
      </trkpt>
      <trkpt lat="43.85743" lon="6.29388">
        <ele>1325.3</ele>
        <time>2021-07-10T14:11:49Z</time>
      </trkpt>
      <trkpt lat="43.85736" lon="6.29392">
        <ele>1326.2</ele>
        <time>2021-07-10T14:11:53Z</time>
      </trkpt>
      <trkpt lat="43.8573" lon="6.29401">
        <ele>1326.1</ele>
        <time>2021-07-10T14:11:58Z</time>
      </trkpt>
      <trkpt lat="43.85726" lon="6.29411">
        <ele>1329.3</ele>
        <time>2021-07-10T14:12:03Z</time>
      </trkpt>
      <trkpt lat="43.85722" lon="6.29421">
        <ele>1331.3</ele>
        <time>2021-07-10T14:12:08Z</time>
      </trkpt>
      <trkpt lat="43.85721" lon="6.29432">
        <ele>1333.3</ele>
        <time>2021-07-10T14:12:13Z</time>
      </trkpt>
      <trkpt lat="43.85719" lon="6.29444">
        <ele>1334.8</ele>
        <time>2021-07-10T14:12:18Z</time>
      </trkpt>
      <trkpt lat="43.85714" lon="6.29454">
        <ele>1335.9</ele>
        <time>2021-07-10T14:12:23Z</time>
      </trkpt>
      <trkpt lat="43.85707" lon="6.29461">
        <ele>1336.2</ele>
        <time>2021-07-10T14:12:28Z</time>
      </trkpt>
      <trkpt lat="43.85701" lon="6.29467">
        <ele>1335.2</ele>
        <time>2021-07-10T14:12:32Z</time>
      </trkpt>
      <trkpt lat="43.85695" lon="6.29474">
        <ele>1337.3</ele>
        <time>2021-07-10T14:12:37Z</time>
      </trkpt>
      <trkpt lat="43.85688" lon="6.2948">
        <ele>1338.1</ele>
        <time>2021-07-10T14:12:42Z</time>
      </trkpt>
      <trkpt lat="43.8568" lon="6.29487">
        <ele>1338.2</ele>
        <time>2021-07-10T14:12:47Z</time>
      </trkpt>
      <trkpt lat="43.85673" lon="6.29493">
        <ele>1339.9</ele>
        <time>2021-07-10T14:12:52Z</time>
      </trkpt>
      <trkpt lat="43.85668" lon="6.29502">
        <ele>1340.9</ele>
        <time>2021-07-10T14:12:57Z</time>
      </trkpt>
      <trkpt lat="43.85662" lon="6.29509">
        <ele>1341</ele>
        <time>2021-07-10T14:13:01Z</time>
      </trkpt>
      <trkpt lat="43.85654" lon="6.29515">
        <ele>1340.4</ele>
        <time>2021-07-10T14:13:05Z</time>
      </trkpt>
      <trkpt lat="43.85647" lon="6.29522">
        <ele>1340.6</ele>
        <time>2021-07-10T14:13:09Z</time>
      </trkpt>
      <trkpt lat="43.8564" lon="6.29528">
        <ele>1342.7</ele>
        <time>2021-07-10T14:13:13Z</time>
      </trkpt>
      <trkpt lat="43.85634" lon="6.29536">
        <ele>1342.5</ele>
        <time>2021-07-10T14:13:16Z</time>
      </trkpt>
      <trkpt lat="43.85627" lon="6.29543">
        <ele>1342.9</ele>
        <time>2021-07-10T14:13:20Z</time>
      </trkpt>
      <trkpt lat="43.85621" lon="6.29549">
        <ele>1343.1</ele>
        <time>2021-07-10T14:13:23Z</time>
      </trkpt>
      <trkpt lat="43.85616" lon="6.29557">
        <ele>1344.5</ele>
        <time>2021-07-10T14:13:26Z</time>
      </trkpt>
      <trkpt lat="43.85609" lon="6.29564">
        <ele>1345.6</ele>
        <time>2021-07-10T14:13:30Z</time>
      </trkpt>
      <trkpt lat="43.85602" lon="6.29573">
        <ele>1346.2</ele>
        <time>2021-07-10T14:13:34Z</time>
      </trkpt>
      <trkpt lat="43.85595" lon="6.29581">
        <ele>1346</ele>
        <time>2021-07-10T14:13:37Z</time>
      </trkpt>
      <trkpt lat="43.85587" lon="6.29591">
        <ele>1345.7</ele>
        <time>2021-07-10T14:13:40Z</time>
      </trkpt>
      <trkpt lat="43.8558" lon="6.29599">
        <ele>1346</ele>
        <time>2021-07-10T14:13:42Z</time>
      </trkpt>
      <trkpt lat="43.85567" lon="6.29607">
        <ele>1342.3</ele>
        <time>2021-07-10T14:13:44Z</time>
      </trkpt>
      <trkpt lat="43.85559" lon="6.29614">
        <ele>1342</ele>
        <time>2021-07-10T14:13:46Z</time>
      </trkpt>
      <trkpt lat="43.85551" lon="6.29619">
        <ele>1340.8</ele>
        <time>2021-07-10T14:13:48Z</time>
      </trkpt>
      <trkpt lat="43.85541" lon="6.29623">
        <ele>1340.5</ele>
        <time>2021-07-10T14:13:50Z</time>
      </trkpt>
      <trkpt lat="43.8553" lon="6.29625">
        <ele>1338.6</ele>
        <time>2021-07-10T14:13:52Z</time>
      </trkpt>
      <trkpt lat="43.85521" lon="6.29624">
        <ele>1338.7</ele>
        <time>2021-07-10T14:13:54Z</time>
      </trkpt>
      <trkpt lat="43.85512" lon="6.29623">
        <ele>1338</ele>
        <time>2021-07-10T14:13:56Z</time>
      </trkpt>
      <trkpt lat="43.85503" lon="6.29625">
        <ele>1337</ele>
        <time>2021-07-10T14:13:58Z</time>
      </trkpt>
      <trkpt lat="43.85495" lon="6.29628">
        <ele>1337.2</ele>
        <time>2021-07-10T14:14:00Z</time>
      </trkpt>
      <trkpt lat="43.85488" lon="6.29632">
        <ele>1336.8</ele>
        <time>2021-07-10T14:14:02Z</time>
      </trkpt>
      <trkpt lat="43.85481" lon="6.29635">
        <ele>1336.8</ele>
        <time>2021-07-10T14:14:05Z</time>
      </trkpt>
      <trkpt lat="43.85471" lon="6.29637">
        <ele>1338.2</ele>
        <time>2021-07-10T14:14:08Z</time>
      </trkpt>
      <trkpt lat="43.85463" lon="6.29637">
        <ele>1337.4</ele>
        <time>2021-07-10T14:14:10Z</time>
      </trkpt>
      <trkpt lat="43.85452" lon="6.29636">
        <ele>1337.3</ele>
        <time>2021-07-10T14:14:12Z</time>
      </trkpt>
      <trkpt lat="43.85442" lon="6.29639">
        <ele>1337.9</ele>
        <time>2021-07-10T14:14:14Z</time>
      </trkpt>
      <trkpt lat="43.85434" lon="6.29642">
        <ele>1338.4</ele>
        <time>2021-07-10T14:14:16Z</time>
      </trkpt>
      <trkpt lat="43.85424" lon="6.29647">
        <ele>1337.6</ele>
        <time>2021-07-10T14:14:18Z</time>
      </trkpt>
      <trkpt lat="43.85415" lon="6.29649">
        <ele>1337.7</ele>
        <time>2021-07-10T14:14:21Z</time>
      </trkpt>
      <trkpt lat="43.85409" lon="6.29653">
        <ele>1340.6</ele>
        <time>2021-07-10T14:14:24Z</time>
      </trkpt>
      <trkpt lat="43.85401" lon="6.29656">
        <ele>1341.5</ele>
        <time>2021-07-10T14:14:27Z</time>
      </trkpt>
      <trkpt lat="43.85393" lon="6.29663">
        <ele>1341.3</ele>
        <time>2021-07-10T14:14:30Z</time>
      </trkpt>
      <trkpt lat="43.85387" lon="6.2967">
        <ele>1342.1</ele>
        <time>2021-07-10T14:14:33Z</time>
      </trkpt>
      <trkpt lat="43.85381" lon="6.2968">
        <ele>1343.1</ele>
        <time>2021-07-10T14:14:38Z</time>
      </trkpt>
      <trkpt lat="43.85376" lon="6.29689">
        <ele>1344</ele>
        <time>2021-07-10T14:14:40Z</time>
      </trkpt>
      <trkpt lat="43.85369" lon="6.29698">
        <ele>1344</ele>
        <time>2021-07-10T14:14:43Z</time>
      </trkpt>
      <trkpt lat="43.85363" lon="6.29707">
        <ele>1343.6</ele>
        <time>2021-07-10T14:14:46Z</time>
      </trkpt>
      <trkpt lat="43.85356" lon="6.29717">
        <ele>1344.1</ele>
        <time>2021-07-10T14:14:49Z</time>
      </trkpt>
      <trkpt lat="43.85347" lon="6.29725">
        <ele>1343.1</ele>
        <time>2021-07-10T14:14:52Z</time>
      </trkpt>
      <trkpt lat="43.85342" lon="6.29725">
        <ele>1342.4</ele>
        <time>2021-07-10T14:14:59Z</time>
      </trkpt>
      <trkpt lat="43.85347" lon="6.2972">
        <ele>1342.7</ele>
        <time>2021-07-10T14:15:06Z</time>
      </trkpt>
      <trkpt lat="43.85346" lon="6.29721">
        <ele>1340.5</ele>
        <time>2021-07-10T14:15:13Z</time>
      </trkpt>
      <trkpt lat="43.85345" lon="6.2972">
        <ele>1338.8</ele>
        <time>2021-07-10T14:15:19Z</time>
      </trkpt>
      <trkpt lat="43.85347" lon="6.29722">
        <ele>1339.8</ele>
        <time>2021-07-10T14:15:27Z</time>
      </trkpt>
      <trkpt lat="43.85346" lon="6.29722">
        <ele>1338.8</ele>
        <time>2021-07-10T14:15:28Z</time>
      </trkpt>
      <trkpt lat="43.85338" lon="6.29725">
        <ele>1335.1</ele>
        <time>2021-07-10T14:15:36Z</time>
      </trkpt>
      <trkpt lat="43.85336" lon="6.29726">
        <ele>1334.3</ele>
        <time>2021-07-10T14:15:43Z</time>
      </trkpt>
      <trkpt lat="43.85336" lon="6.29726">
        <ele>1334.9</ele>
        <time>2021-07-10T14:15:46Z</time>
      </trkpt>
      <trkpt lat="43.8534" lon="6.29728">
        <ele>1342.5</ele>
        <time>2021-07-10T14:31:14Z</time>
      </trkpt>
      <trkpt lat="43.85339" lon="6.29728">
        <ele>1338.6</ele>
        <time>2021-07-10T14:31:20Z</time>
      </trkpt>
      <trkpt lat="43.85342" lon="6.29733">
        <ele>1341</ele>
        <time>2021-07-10T14:31:38Z</time>
      </trkpt>
      <trkpt lat="43.85341" lon="6.29733">
        <ele>1342.3</ele>
        <time>2021-07-10T14:31:45Z</time>
      </trkpt>
      <trkpt lat="43.85341" lon="6.29739">
        <ele>1342.5</ele>
        <time>2021-07-10T14:31:52Z</time>
      </trkpt>
      <trkpt lat="43.85333" lon="6.29743">
        <ele>1340.8</ele>
        <time>2021-07-10T14:31:58Z</time>
      </trkpt>
      <trkpt lat="43.85327" lon="6.29749">
        <ele>1341.3</ele>
        <time>2021-07-10T14:32:03Z</time>
      </trkpt>
      <trkpt lat="43.8532" lon="6.29754">
        <ele>1340.3</ele>
        <time>2021-07-10T14:32:07Z</time>
      </trkpt>
      <trkpt lat="43.85313" lon="6.29758">
        <ele>1339.1</ele>
        <time>2021-07-10T14:32:10Z</time>
      </trkpt>
      <trkpt lat="43.85305" lon="6.29764">
        <ele>1338.1</ele>
        <time>2021-07-10T14:32:14Z</time>
      </trkpt>
      <trkpt lat="43.85298" lon="6.29768">
        <ele>1339.2</ele>
        <time>2021-07-10T14:32:17Z</time>
      </trkpt>
      <trkpt lat="43.85291" lon="6.29773">
        <ele>1339.5</ele>
        <time>2021-07-10T14:32:20Z</time>
      </trkpt>
      <trkpt lat="43.85284" lon="6.29777">
        <ele>1340.4</ele>
        <time>2021-07-10T14:32:23Z</time>
      </trkpt>
      <trkpt lat="43.85278" lon="6.29782">
        <ele>1340.5</ele>
        <time>2021-07-10T14:32:26Z</time>
      </trkpt>
      <trkpt lat="43.85272" lon="6.29787">
        <ele>1340.2</ele>
        <time>2021-07-10T14:32:29Z</time>
      </trkpt>
      <trkpt lat="43.85264" lon="6.29793">
        <ele>1338.9</ele>
        <time>2021-07-10T14:32:33Z</time>
      </trkpt>
      <trkpt lat="43.85256" lon="6.29798">
        <ele>1339.3</ele>
        <time>2021-07-10T14:32:36Z</time>
      </trkpt>
      <trkpt lat="43.85248" lon="6.29805">
        <ele>1338.7</ele>
        <time>2021-07-10T14:32:39Z</time>
      </trkpt>
      <trkpt lat="43.85241" lon="6.2981">
        <ele>1339.8</ele>
        <time>2021-07-10T14:32:42Z</time>
      </trkpt>
      <trkpt lat="43.85234" lon="6.29816">
        <ele>1340.8</ele>
        <time>2021-07-10T14:32:45Z</time>
      </trkpt>
      <trkpt lat="43.85228" lon="6.29822">
        <ele>1340.7</ele>
        <time>2021-07-10T14:32:48Z</time>
      </trkpt>
      <trkpt lat="43.85222" lon="6.2983">
        <ele>1340.2</ele>
        <time>2021-07-10T14:32:51Z</time>
      </trkpt>
      <trkpt lat="43.85216" lon="6.29841">
        <ele>1340</ele>
        <time>2021-07-10T14:32:54Z</time>
      </trkpt>
      <trkpt lat="43.85214" lon="6.29853">
        <ele>1339.4</ele>
        <time>2021-07-10T14:32:57Z</time>
      </trkpt>
      <trkpt lat="43.85215" lon="6.29868">
        <ele>1338.5</ele>
        <time>2021-07-10T14:33:00Z</time>
      </trkpt>
      <trkpt lat="43.85215" lon="6.29879">
        <ele>1338</ele>
        <time>2021-07-10T14:33:02Z</time>
      </trkpt>
      <trkpt lat="43.85216" lon="6.29889">
        <ele>1337.4</ele>
        <time>2021-07-10T14:33:04Z</time>
      </trkpt>
      <trkpt lat="43.85216" lon="6.299">
        <ele>1337.1</ele>
        <time>2021-07-10T14:33:06Z</time>
      </trkpt>
      <trkpt lat="43.85216" lon="6.29911">
        <ele>1336.6</ele>
        <time>2021-07-10T14:33:08Z</time>
      </trkpt>
      <trkpt lat="43.85215" lon="6.29922">
        <ele>1336.3</ele>
        <time>2021-07-10T14:33:10Z</time>
      </trkpt>
      <trkpt lat="43.85215" lon="6.29934">
        <ele>1335.8</ele>
        <time>2021-07-10T14:33:12Z</time>
      </trkpt>
      <trkpt lat="43.85214" lon="6.29944">
        <ele>1336.1</ele>
        <time>2021-07-10T14:33:14Z</time>
      </trkpt>
      <trkpt lat="43.85211" lon="6.29954">
        <ele>1335.3</ele>
        <time>2021-07-10T14:33:16Z</time>
      </trkpt>
      <trkpt lat="43.85206" lon="6.29961">
        <ele>1334.3</ele>
        <time>2021-07-10T14:33:18Z</time>
      </trkpt>
      <trkpt lat="43.85198" lon="6.29967">
        <ele>1334.9</ele>
        <time>2021-07-10T14:33:21Z</time>
      </trkpt>
      <trkpt lat="43.8519" lon="6.2997">
        <ele>1333.7</ele>
        <time>2021-07-10T14:33:24Z</time>
      </trkpt>
      <trkpt lat="43.85182" lon="6.29973">
        <ele>1333.9</ele>
        <time>2021-07-10T14:33:29Z</time>
      </trkpt>
      <trkpt lat="43.85176" lon="6.29977">
        <ele>1333.2</ele>
        <time>2021-07-10T14:33:32Z</time>
      </trkpt>
      <trkpt lat="43.85168" lon="6.29982">
        <ele>1332.3</ele>
        <time>2021-07-10T14:33:35Z</time>
      </trkpt>
      <trkpt lat="43.85159" lon="6.29986">
        <ele>1331.9</ele>
        <time>2021-07-10T14:33:38Z</time>
      </trkpt>
      <trkpt lat="43.85151" lon="6.29991">
        <ele>1332.6</ele>
        <time>2021-07-10T14:33:41Z</time>
      </trkpt>
      <trkpt lat="43.85142" lon="6.29997">
        <ele>1332.1</ele>
        <time>2021-07-10T14:33:44Z</time>
      </trkpt>
      <trkpt lat="43.85135" lon="6.30003">
        <ele>1331.9</ele>
        <time>2021-07-10T14:33:47Z</time>
      </trkpt>
      <trkpt lat="43.85127" lon="6.3001">
        <ele>1334.3</ele>
        <time>2021-07-10T14:33:50Z</time>
      </trkpt>
      <trkpt lat="43.85119" lon="6.30017">
        <ele>1336</ele>
        <time>2021-07-10T14:33:53Z</time>
      </trkpt>
      <trkpt lat="43.85111" lon="6.30023">
        <ele>1336.9</ele>
        <time>2021-07-10T14:33:56Z</time>
      </trkpt>
      <trkpt lat="43.85101" lon="6.30022">
        <ele>1337.1</ele>
        <time>2021-07-10T14:33:59Z</time>
      </trkpt>
      <trkpt lat="43.85094" lon="6.3002">
        <ele>1336.5</ele>
        <time>2021-07-10T14:34:02Z</time>
      </trkpt>
      <trkpt lat="43.85086" lon="6.30019">
        <ele>1336.3</ele>
        <time>2021-07-10T14:34:06Z</time>
      </trkpt>
      <trkpt lat="43.85078" lon="6.30019">
        <ele>1337.2</ele>
        <time>2021-07-10T14:34:10Z</time>
      </trkpt>
      <trkpt lat="43.8507" lon="6.30021">
        <ele>1337.5</ele>
        <time>2021-07-10T14:34:14Z</time>
      </trkpt>
      <trkpt lat="43.8506" lon="6.30024">
        <ele>1339.8</ele>
        <time>2021-07-10T14:34:18Z</time>
      </trkpt>
      <trkpt lat="43.85051" lon="6.30026">
        <ele>1340.2</ele>
        <time>2021-07-10T14:34:22Z</time>
      </trkpt>
      <trkpt lat="43.85042" lon="6.30028">
        <ele>1340.5</ele>
        <time>2021-07-10T14:34:26Z</time>
      </trkpt>
      <trkpt lat="43.85034" lon="6.30031">
        <ele>1340.6</ele>
        <time>2021-07-10T14:34:30Z</time>
      </trkpt>
      <trkpt lat="43.85026" lon="6.30034">
        <ele>1340.3</ele>
        <time>2021-07-10T14:34:34Z</time>
      </trkpt>
      <trkpt lat="43.85017" lon="6.30037">
        <ele>1340</ele>
        <time>2021-07-10T14:34:38Z</time>
      </trkpt>
      <trkpt lat="43.8501" lon="6.30041">
        <ele>1340.4</ele>
        <time>2021-07-10T14:34:41Z</time>
      </trkpt>
      <trkpt lat="43.85004" lon="6.30045">
        <ele>1340.7</ele>
        <time>2021-07-10T14:34:44Z</time>
      </trkpt>
      <trkpt lat="43.84998" lon="6.30052">
        <ele>1342.7</ele>
        <time>2021-07-10T14:34:48Z</time>
      </trkpt>
      <trkpt lat="43.84992" lon="6.3006">
        <ele>1344.1</ele>
        <time>2021-07-10T14:34:52Z</time>
      </trkpt>
      <trkpt lat="43.84987" lon="6.3007">
        <ele>1344.1</ele>
        <time>2021-07-10T14:34:56Z</time>
      </trkpt>
      <trkpt lat="43.84983" lon="6.30079">
        <ele>1343.2</ele>
        <time>2021-07-10T14:34:59Z</time>
      </trkpt>
      <trkpt lat="43.84979" lon="6.3009">
        <ele>1344.1</ele>
        <time>2021-07-10T14:35:03Z</time>
      </trkpt>
      <trkpt lat="43.84976" lon="6.301">
        <ele>1344.7</ele>
        <time>2021-07-10T14:35:06Z</time>
      </trkpt>
      <trkpt lat="43.84973" lon="6.3011">
        <ele>1345.1</ele>
        <time>2021-07-10T14:35:09Z</time>
      </trkpt>
      <trkpt lat="43.84969" lon="6.3012">
        <ele>1345.2</ele>
        <time>2021-07-10T14:35:12Z</time>
      </trkpt>
      <trkpt lat="43.84965" lon="6.30131">
        <ele>1345.6</ele>
        <time>2021-07-10T14:35:15Z</time>
      </trkpt>
      <trkpt lat="43.84962" lon="6.30141">
        <ele>1345.5</ele>
        <time>2021-07-10T14:35:18Z</time>
      </trkpt>
      <trkpt lat="43.84958" lon="6.30153">
        <ele>1345</ele>
        <time>2021-07-10T14:35:21Z</time>
      </trkpt>
      <trkpt lat="43.84954" lon="6.30165">
        <ele>1344.9</ele>
        <time>2021-07-10T14:35:24Z</time>
      </trkpt>
      <trkpt lat="43.84949" lon="6.30176">
        <ele>1344.6</ele>
        <time>2021-07-10T14:35:27Z</time>
      </trkpt>
      <trkpt lat="43.84944" lon="6.30188">
        <ele>1344</ele>
        <time>2021-07-10T14:35:30Z</time>
      </trkpt>
      <trkpt lat="43.8494" lon="6.30199">
        <ele>1344.4</ele>
        <time>2021-07-10T14:35:33Z</time>
      </trkpt>
      <trkpt lat="43.84934" lon="6.30211">
        <ele>1344.7</ele>
        <time>2021-07-10T14:35:36Z</time>
      </trkpt>
      <trkpt lat="43.84929" lon="6.3022">
        <ele>1344.5</ele>
        <time>2021-07-10T14:35:38Z</time>
      </trkpt>
      <trkpt lat="43.84923" lon="6.30231">
        <ele>1345</ele>
        <time>2021-07-10T14:35:41Z</time>
      </trkpt>
      <trkpt lat="43.84917" lon="6.30243">
        <ele>1344.8</ele>
        <time>2021-07-10T14:35:44Z</time>
      </trkpt>
      <trkpt lat="43.84911" lon="6.30255">
        <ele>1344.4</ele>
        <time>2021-07-10T14:35:47Z</time>
      </trkpt>
      <trkpt lat="43.84906" lon="6.30267">
        <ele>1344</ele>
        <time>2021-07-10T14:35:50Z</time>
      </trkpt>
      <trkpt lat="43.84901" lon="6.3028">
        <ele>1343.9</ele>
        <time>2021-07-10T14:35:53Z</time>
      </trkpt>
      <trkpt lat="43.84898" lon="6.3029">
        <ele>1344.6</ele>
        <time>2021-07-10T14:35:55Z</time>
      </trkpt>
      <trkpt lat="43.84895" lon="6.30299">
        <ele>1344.4</ele>
        <time>2021-07-10T14:35:57Z</time>
      </trkpt>
      <trkpt lat="43.84891" lon="6.30308">
        <ele>1344.5</ele>
        <time>2021-07-10T14:35:59Z</time>
      </trkpt>
      <trkpt lat="43.84888" lon="6.30318">
        <ele>1344.3</ele>
        <time>2021-07-10T14:36:01Z</time>
      </trkpt>
      <trkpt lat="43.84884" lon="6.30329">
        <ele>1343.5</ele>
        <time>2021-07-10T14:36:03Z</time>
      </trkpt>
      <trkpt lat="43.8488" lon="6.3034">
        <ele>1343</ele>
        <time>2021-07-10T14:36:05Z</time>
      </trkpt>
      <trkpt lat="43.84876" lon="6.3035">
        <ele>1342.6</ele>
        <time>2021-07-10T14:36:07Z</time>
      </trkpt>
      <trkpt lat="43.84871" lon="6.3036">
        <ele>1342</ele>
        <time>2021-07-10T14:36:09Z</time>
      </trkpt>
      <trkpt lat="43.84866" lon="6.30368">
        <ele>1342</ele>
        <time>2021-07-10T14:36:11Z</time>
      </trkpt>
      <trkpt lat="43.8486" lon="6.30376">
        <ele>1341.3</ele>
        <time>2021-07-10T14:36:13Z</time>
      </trkpt>
      <trkpt lat="43.84854" lon="6.30385">
        <ele>1341.8</ele>
        <time>2021-07-10T14:36:15Z</time>
      </trkpt>
      <trkpt lat="43.84848" lon="6.30392">
        <ele>1341.5</ele>
        <time>2021-07-10T14:36:17Z</time>
      </trkpt>
      <trkpt lat="43.84842" lon="6.304">
        <ele>1341.3</ele>
        <time>2021-07-10T14:36:19Z</time>
      </trkpt>
      <trkpt lat="43.84836" lon="6.30407">
        <ele>1341</ele>
        <time>2021-07-10T14:36:21Z</time>
      </trkpt>
      <trkpt lat="43.84831" lon="6.30414">
        <ele>1340.3</ele>
        <time>2021-07-10T14:36:23Z</time>
      </trkpt>
      <trkpt lat="43.84823" lon="6.30424">
        <ele>1340.2</ele>
        <time>2021-07-10T14:36:26Z</time>
      </trkpt>
      <trkpt lat="43.84818" lon="6.3043">
        <ele>1340.1</ele>
        <time>2021-07-10T14:36:28Z</time>
      </trkpt>
      <trkpt lat="43.84812" lon="6.30438">
        <ele>1339.2</ele>
        <time>2021-07-10T14:36:30Z</time>
      </trkpt>
      <trkpt lat="43.84807" lon="6.30446">
        <ele>1339.3</ele>
        <time>2021-07-10T14:36:32Z</time>
      </trkpt>
      <trkpt lat="43.84803" lon="6.30454">
        <ele>1340.1</ele>
        <time>2021-07-10T14:36:34Z</time>
      </trkpt>
      <trkpt lat="43.84799" lon="6.30462">
        <ele>1340.6</ele>
        <time>2021-07-10T14:36:36Z</time>
      </trkpt>
      <trkpt lat="43.84795" lon="6.3047">
        <ele>1340.6</ele>
        <time>2021-07-10T14:36:38Z</time>
      </trkpt>
      <trkpt lat="43.84791" lon="6.30479">
        <ele>1340.3</ele>
        <time>2021-07-10T14:36:40Z</time>
      </trkpt>
      <trkpt lat="43.84787" lon="6.30488">
        <ele>1340.4</ele>
        <time>2021-07-10T14:36:42Z</time>
      </trkpt>
      <trkpt lat="43.84783" lon="6.30502">
        <ele>1341.1</ele>
        <time>2021-07-10T14:36:45Z</time>
      </trkpt>
      <trkpt lat="43.84781" lon="6.30512">
        <ele>1341.3</ele>
        <time>2021-07-10T14:36:47Z</time>
      </trkpt>
      <trkpt lat="43.84779" lon="6.30522">
        <ele>1341.8</ele>
        <time>2021-07-10T14:36:49Z</time>
      </trkpt>
      <trkpt lat="43.84776" lon="6.30532">
        <ele>1341.8</ele>
        <time>2021-07-10T14:36:51Z</time>
      </trkpt>
      <trkpt lat="43.84773" lon="6.30541">
        <ele>1341.5</ele>
        <time>2021-07-10T14:36:53Z</time>
      </trkpt>
      <trkpt lat="43.84769" lon="6.3055">
        <ele>1341.8</ele>
        <time>2021-07-10T14:36:55Z</time>
      </trkpt>
      <trkpt lat="43.84762" lon="6.30561">
        <ele>1341.9</ele>
        <time>2021-07-10T14:36:58Z</time>
      </trkpt>
      <trkpt lat="43.84757" lon="6.30568">
        <ele>1341.8</ele>
        <time>2021-07-10T14:37:00Z</time>
      </trkpt>
      <trkpt lat="43.8475" lon="6.30573">
        <ele>1341.5</ele>
        <time>2021-07-10T14:37:02Z</time>
      </trkpt>
      <trkpt lat="43.84743" lon="6.30579">
        <ele>1341</ele>
        <time>2021-07-10T14:37:04Z</time>
      </trkpt>
      <trkpt lat="43.84736" lon="6.30585">
        <ele>1340.4</ele>
        <time>2021-07-10T14:37:06Z</time>
      </trkpt>
      <trkpt lat="43.84728" lon="6.30592">
        <ele>1340.6</ele>
        <time>2021-07-10T14:37:08Z</time>
      </trkpt>
      <trkpt lat="43.84721" lon="6.306">
        <ele>1340.2</ele>
        <time>2021-07-10T14:37:10Z</time>
      </trkpt>
      <trkpt lat="43.84716" lon="6.30608">
        <ele>1339.8</ele>
        <time>2021-07-10T14:37:12Z</time>
      </trkpt>
      <trkpt lat="43.84711" lon="6.30615">
        <ele>1339.5</ele>
        <time>2021-07-10T14:37:14Z</time>
      </trkpt>
      <trkpt lat="43.84705" lon="6.30623">
        <ele>1339.2</ele>
        <time>2021-07-10T14:37:16Z</time>
      </trkpt>
      <trkpt lat="43.847" lon="6.3063">
        <ele>1339.2</ele>
        <time>2021-07-10T14:37:18Z</time>
      </trkpt>
      <trkpt lat="43.84694" lon="6.30639">
        <ele>1338.9</ele>
        <time>2021-07-10T14:37:20Z</time>
      </trkpt>
      <trkpt lat="43.84689" lon="6.30649">
        <ele>1338.8</ele>
        <time>2021-07-10T14:37:22Z</time>
      </trkpt>
      <trkpt lat="43.84684" lon="6.30658">
        <ele>1338</ele>
        <time>2021-07-10T14:37:24Z</time>
      </trkpt>
      <trkpt lat="43.84679" lon="6.30665">
        <ele>1337.6</ele>
        <time>2021-07-10T14:37:26Z</time>
      </trkpt>
      <trkpt lat="43.8467" lon="6.30674">
        <ele>1336.4</ele>
        <time>2021-07-10T14:37:29Z</time>
      </trkpt>
      <trkpt lat="43.84664" lon="6.3068">
        <ele>1336.5</ele>
        <time>2021-07-10T14:37:31Z</time>
      </trkpt>
      <trkpt lat="43.84654" lon="6.30686">
        <ele>1334.6</ele>
        <time>2021-07-10T14:37:34Z</time>
      </trkpt>
      <trkpt lat="43.84646" lon="6.30688">
        <ele>1333.6</ele>
        <time>2021-07-10T14:37:36Z</time>
      </trkpt>
      <trkpt lat="43.84639" lon="6.3069">
        <ele>1333.5</ele>
        <time>2021-07-10T14:37:38Z</time>
      </trkpt>
      <trkpt lat="43.84631" lon="6.30697">
        <ele>1332.6</ele>
        <time>2021-07-10T14:37:41Z</time>
      </trkpt>
      <trkpt lat="43.84635" lon="6.3071">
        <ele>1332</ele>
        <time>2021-07-10T14:37:44Z</time>
      </trkpt>
      <trkpt lat="43.84643" lon="6.30712">
        <ele>1330.3</ele>
        <time>2021-07-10T14:37:46Z</time>
      </trkpt>
      <trkpt lat="43.84652" lon="6.30709">
        <ele>1328.9</ele>
        <time>2021-07-10T14:37:48Z</time>
      </trkpt>
      <trkpt lat="43.84659" lon="6.30705">
        <ele>1328.1</ele>
        <time>2021-07-10T14:37:50Z</time>
      </trkpt>
      <trkpt lat="43.84668" lon="6.307">
        <ele>1326.9</ele>
        <time>2021-07-10T14:37:53Z</time>
      </trkpt>
      <trkpt lat="43.84675" lon="6.30697">
        <ele>1326.3</ele>
        <time>2021-07-10T14:37:55Z</time>
      </trkpt>
      <trkpt lat="43.84683" lon="6.30692">
        <ele>1325.6</ele>
        <time>2021-07-10T14:37:57Z</time>
      </trkpt>
      <trkpt lat="43.8469" lon="6.30688">
        <ele>1325</ele>
        <time>2021-07-10T14:37:59Z</time>
      </trkpt>
      <trkpt lat="43.84696" lon="6.30682">
        <ele>1325.4</ele>
        <time>2021-07-10T14:38:01Z</time>
      </trkpt>
      <trkpt lat="43.84703" lon="6.30676">
        <ele>1326.3</ele>
        <time>2021-07-10T14:38:03Z</time>
      </trkpt>
      <trkpt lat="43.84709" lon="6.30671">
        <ele>1325.6</ele>
        <time>2021-07-10T14:38:05Z</time>
      </trkpt>
      <trkpt lat="43.84715" lon="6.30665">
        <ele>1324.4</ele>
        <time>2021-07-10T14:38:07Z</time>
      </trkpt>
      <trkpt lat="43.84721" lon="6.30659">
        <ele>1323.6</ele>
        <time>2021-07-10T14:38:09Z</time>
      </trkpt>
      <trkpt lat="43.84728" lon="6.30654">
        <ele>1322.1</ele>
        <time>2021-07-10T14:38:11Z</time>
      </trkpt>
      <trkpt lat="43.84735" lon="6.30648">
        <ele>1322.1</ele>
        <time>2021-07-10T14:38:13Z</time>
      </trkpt>
      <trkpt lat="43.84745" lon="6.30643">
        <ele>1321.5</ele>
        <time>2021-07-10T14:38:15Z</time>
      </trkpt>
      <trkpt lat="43.84754" lon="6.30642">
        <ele>1321.1</ele>
        <time>2021-07-10T14:38:17Z</time>
      </trkpt>
      <trkpt lat="43.84762" lon="6.30638">
        <ele>1320.6</ele>
        <time>2021-07-10T14:38:19Z</time>
      </trkpt>
      <trkpt lat="43.8477" lon="6.30632">
        <ele>1319.7</ele>
        <time>2021-07-10T14:38:21Z</time>
      </trkpt>
      <trkpt lat="43.84776" lon="6.30625">
        <ele>1319.3</ele>
        <time>2021-07-10T14:38:23Z</time>
      </trkpt>
      <trkpt lat="43.84783" lon="6.3062">
        <ele>1319</ele>
        <time>2021-07-10T14:38:25Z</time>
      </trkpt>
      <trkpt lat="43.84794" lon="6.3062">
        <ele>1317.4</ele>
        <time>2021-07-10T14:38:27Z</time>
      </trkpt>
      <trkpt lat="43.84803" lon="6.30625">
        <ele>1316.4</ele>
        <time>2021-07-10T14:38:29Z</time>
      </trkpt>
      <trkpt lat="43.8481" lon="6.30636">
        <ele>1316.6</ele>
        <time>2021-07-10T14:38:31Z</time>
      </trkpt>
      <trkpt lat="43.84816" lon="6.30648">
        <ele>1315</ele>
        <time>2021-07-10T14:38:33Z</time>
      </trkpt>
      <trkpt lat="43.8482" lon="6.30659">
        <ele>1314.9</ele>
        <time>2021-07-10T14:38:35Z</time>
      </trkpt>
      <trkpt lat="43.84822" lon="6.30671">
        <ele>1313.5</ele>
        <time>2021-07-10T14:38:37Z</time>
      </trkpt>
      <trkpt lat="43.84827" lon="6.30678">
        <ele>1312.9</ele>
        <time>2021-07-10T14:38:39Z</time>
      </trkpt>
      <trkpt lat="43.84836" lon="6.30684">
        <ele>1311.4</ele>
        <time>2021-07-10T14:38:42Z</time>
      </trkpt>
      <trkpt lat="43.84847" lon="6.30684">
        <ele>1309.5</ele>
        <time>2021-07-10T14:38:45Z</time>
      </trkpt>
      <trkpt lat="43.84855" lon="6.30688">
        <ele>1309.3</ele>
        <time>2021-07-10T14:38:47Z</time>
      </trkpt>
      <trkpt lat="43.84863" lon="6.30695">
        <ele>1308.9</ele>
        <time>2021-07-10T14:38:49Z</time>
      </trkpt>
      <trkpt lat="43.84868" lon="6.30704">
        <ele>1308.4</ele>
        <time>2021-07-10T14:38:51Z</time>
      </trkpt>
      <trkpt lat="43.84875" lon="6.30713">
        <ele>1308</ele>
        <time>2021-07-10T14:38:53Z</time>
      </trkpt>
      <trkpt lat="43.84881" lon="6.30722">
        <ele>1307.3</ele>
        <time>2021-07-10T14:38:55Z</time>
      </trkpt>
      <trkpt lat="43.84888" lon="6.30732">
        <ele>1302.7</ele>
        <time>2021-07-10T14:38:57Z</time>
      </trkpt>
      <trkpt lat="43.84895" lon="6.30743">
        <ele>1303.9</ele>
        <time>2021-07-10T14:39:00Z</time>
      </trkpt>
      <trkpt lat="43.84901" lon="6.30751">
        <ele>1303.3</ele>
        <time>2021-07-10T14:39:02Z</time>
      </trkpt>
      <trkpt lat="43.84906" lon="6.30762">
        <ele>1303.5</ele>
        <time>2021-07-10T14:39:05Z</time>
      </trkpt>
      <trkpt lat="43.8491" lon="6.3077">
        <ele>1302.3</ele>
        <time>2021-07-10T14:39:07Z</time>
      </trkpt>
      <trkpt lat="43.84914" lon="6.30781">
        <ele>1301.7</ele>
        <time>2021-07-10T14:39:09Z</time>
      </trkpt>
      <trkpt lat="43.84918" lon="6.30793">
        <ele>1301.5</ele>
        <time>2021-07-10T14:39:11Z</time>
      </trkpt>
      <trkpt lat="43.84923" lon="6.30803">
        <ele>1301.2</ele>
        <time>2021-07-10T14:39:13Z</time>
      </trkpt>
      <trkpt lat="43.84926" lon="6.30814">
        <ele>1301</ele>
        <time>2021-07-10T14:39:15Z</time>
      </trkpt>
      <trkpt lat="43.84929" lon="6.30826">
        <ele>1300.9</ele>
        <time>2021-07-10T14:39:17Z</time>
      </trkpt>
      <trkpt lat="43.84933" lon="6.30838">
        <ele>1299.8</ele>
        <time>2021-07-10T14:39:19Z</time>
      </trkpt>
      <trkpt lat="43.84936" lon="6.30849">
        <ele>1300</ele>
        <time>2021-07-10T14:39:21Z</time>
      </trkpt>
      <trkpt lat="43.8494" lon="6.3086">
        <ele>1299.6</ele>
        <time>2021-07-10T14:39:23Z</time>
      </trkpt>
      <trkpt lat="43.84944" lon="6.30871">
        <ele>1299</ele>
        <time>2021-07-10T14:39:25Z</time>
      </trkpt>
      <trkpt lat="43.8495" lon="6.30882">
        <ele>1298.8</ele>
        <time>2021-07-10T14:39:27Z</time>
      </trkpt>
      <trkpt lat="43.84956" lon="6.3089">
        <ele>1298.6</ele>
        <time>2021-07-10T14:39:29Z</time>
      </trkpt>
      <trkpt lat="43.84964" lon="6.30898">
        <ele>1297.6</ele>
        <time>2021-07-10T14:39:31Z</time>
      </trkpt>
      <trkpt lat="43.84968" lon="6.30908">
        <ele>1293.7</ele>
        <time>2021-07-10T14:39:33Z</time>
      </trkpt>
      <trkpt lat="43.84977" lon="6.30914">
        <ele>1292.2</ele>
        <time>2021-07-10T14:39:36Z</time>
      </trkpt>
      <trkpt lat="43.84984" lon="6.30923">
        <ele>1293.1</ele>
        <time>2021-07-10T14:39:39Z</time>
      </trkpt>
      <trkpt lat="43.8498" lon="6.30932">
        <ele>1294.5</ele>
        <time>2021-07-10T14:39:43Z</time>
      </trkpt>
      <trkpt lat="43.8497" lon="6.30929">
        <ele>1292.9</ele>
        <time>2021-07-10T14:39:46Z</time>
      </trkpt>
      <trkpt lat="43.84962" lon="6.30926">
        <ele>1293.4</ele>
        <time>2021-07-10T14:39:48Z</time>
      </trkpt>
      <trkpt lat="43.84954" lon="6.30922">
        <ele>1292.9</ele>
        <time>2021-07-10T14:39:50Z</time>
      </trkpt>
      <trkpt lat="43.84946" lon="6.30919">
        <ele>1291.3</ele>
        <time>2021-07-10T14:39:52Z</time>
      </trkpt>
      <trkpt lat="43.84938" lon="6.30917">
        <ele>1290.6</ele>
        <time>2021-07-10T14:39:54Z</time>
      </trkpt>
      <trkpt lat="43.84928" lon="6.30913">
        <ele>1290.4</ele>
        <time>2021-07-10T14:39:56Z</time>
      </trkpt>
      <trkpt lat="43.8492" lon="6.30909">
        <ele>1289.8</ele>
        <time>2021-07-10T14:39:58Z</time>
      </trkpt>
      <trkpt lat="43.84913" lon="6.30904">
        <ele>1288.9</ele>
        <time>2021-07-10T14:40:00Z</time>
      </trkpt>
      <trkpt lat="43.84908" lon="6.30896">
        <ele>1288.4</ele>
        <time>2021-07-10T14:40:02Z</time>
      </trkpt>
      <trkpt lat="43.84903" lon="6.30889">
        <ele>1286.3</ele>
        <time>2021-07-10T14:40:04Z</time>
      </trkpt>
      <trkpt lat="43.84897" lon="6.30877">
        <ele>1286.6</ele>
        <time>2021-07-10T14:40:07Z</time>
      </trkpt>
      <trkpt lat="43.84891" lon="6.3087">
        <ele>1285.2</ele>
        <time>2021-07-10T14:40:09Z</time>
      </trkpt>
      <trkpt lat="43.84884" lon="6.30865">
        <ele>1282.5</ele>
        <time>2021-07-10T14:40:11Z</time>
      </trkpt>
      <trkpt lat="43.84876" lon="6.30858">
        <ele>1282.2</ele>
        <time>2021-07-10T14:40:13Z</time>
      </trkpt>
      <trkpt lat="43.8487" lon="6.30852">
        <ele>1282.4</ele>
        <time>2021-07-10T14:40:15Z</time>
      </trkpt>
      <trkpt lat="43.84864" lon="6.30845">
        <ele>1281.3</ele>
        <time>2021-07-10T14:40:17Z</time>
      </trkpt>
      <trkpt lat="43.84857" lon="6.30838">
        <ele>1280.4</ele>
        <time>2021-07-10T14:40:19Z</time>
      </trkpt>
      <trkpt lat="43.8485" lon="6.3083">
        <ele>1279.3</ele>
        <time>2021-07-10T14:40:21Z</time>
      </trkpt>
      <trkpt lat="43.84842" lon="6.30822">
        <ele>1278.6</ele>
        <time>2021-07-10T14:40:24Z</time>
      </trkpt>
      <trkpt lat="43.84835" lon="6.30814">
        <ele>1278.5</ele>
        <time>2021-07-10T14:40:27Z</time>
      </trkpt>
      <trkpt lat="43.84827" lon="6.30818">
        <ele>1278.4</ele>
        <time>2021-07-10T14:40:30Z</time>
      </trkpt>
      <trkpt lat="43.84827" lon="6.30831">
        <ele>1278.6</ele>
        <time>2021-07-10T14:40:33Z</time>
      </trkpt>
      <trkpt lat="43.84835" lon="6.3084">
        <ele>1278.3</ele>
        <time>2021-07-10T14:40:36Z</time>
      </trkpt>
      <trkpt lat="43.84844" lon="6.30846">
        <ele>1277.6</ele>
        <time>2021-07-10T14:40:39Z</time>
      </trkpt>
      <trkpt lat="43.84849" lon="6.30854">
        <ele>1278.6</ele>
        <time>2021-07-10T14:40:42Z</time>
      </trkpt>
      <trkpt lat="43.84852" lon="6.30862">
        <ele>1279.7</ele>
        <time>2021-07-10T14:40:49Z</time>
      </trkpt>
      <trkpt lat="43.84855" lon="6.30872">
        <ele>1279.2</ele>
        <time>2021-07-10T14:40:52Z</time>
      </trkpt>
      <trkpt lat="43.84858" lon="6.30886">
        <ele>1278.4</ele>
        <time>2021-07-10T14:40:55Z</time>
      </trkpt>
      <trkpt lat="43.84864" lon="6.30897">
        <ele>1276.9</ele>
        <time>2021-07-10T14:40:58Z</time>
      </trkpt>
      <trkpt lat="43.84869" lon="6.3091">
        <ele>1277</ele>
        <time>2021-07-10T14:41:01Z</time>
      </trkpt>
      <trkpt lat="43.84872" lon="6.30923">
        <ele>1275.3</ele>
        <time>2021-07-10T14:41:04Z</time>
      </trkpt>
      <trkpt lat="43.84874" lon="6.30938">
        <ele>1274.4</ele>
        <time>2021-07-10T14:41:07Z</time>
      </trkpt>
      <trkpt lat="43.84876" lon="6.30947">
        <ele>1273.6</ele>
        <time>2021-07-10T14:41:09Z</time>
      </trkpt>
      <trkpt lat="43.8488" lon="6.30956">
        <ele>1273.5</ele>
        <time>2021-07-10T14:41:11Z</time>
      </trkpt>
      <trkpt lat="43.84884" lon="6.30964">
        <ele>1273.6</ele>
        <time>2021-07-10T14:41:13Z</time>
      </trkpt>
      <trkpt lat="43.8489" lon="6.30972">
        <ele>1273.3</ele>
        <time>2021-07-10T14:41:15Z</time>
      </trkpt>
      <trkpt lat="43.84896" lon="6.30979">
        <ele>1273.5</ele>
        <time>2021-07-10T14:41:17Z</time>
      </trkpt>
      <trkpt lat="43.84903" lon="6.30986">
        <ele>1273.7</ele>
        <time>2021-07-10T14:41:19Z</time>
      </trkpt>
      <trkpt lat="43.8491" lon="6.30993">
        <ele>1273.7</ele>
        <time>2021-07-10T14:41:21Z</time>
      </trkpt>
      <trkpt lat="43.84915" lon="6.30999">
        <ele>1273</ele>
        <time>2021-07-10T14:41:23Z</time>
      </trkpt>
      <trkpt lat="43.84921" lon="6.31007">
        <ele>1273.1</ele>
        <time>2021-07-10T14:41:25Z</time>
      </trkpt>
      <trkpt lat="43.84927" lon="6.31014">
        <ele>1272.9</ele>
        <time>2021-07-10T14:41:27Z</time>
      </trkpt>
      <trkpt lat="43.84933" lon="6.31023">
        <ele>1273.2</ele>
        <time>2021-07-10T14:41:29Z</time>
      </trkpt>
      <trkpt lat="43.84939" lon="6.3103">
        <ele>1270</ele>
        <time>2021-07-10T14:41:31Z</time>
      </trkpt>
      <trkpt lat="43.84947" lon="6.31033">
        <ele>1268.7</ele>
        <time>2021-07-10T14:41:33Z</time>
      </trkpt>
      <trkpt lat="43.84955" lon="6.31035">
        <ele>1268</ele>
        <time>2021-07-10T14:41:35Z</time>
      </trkpt>
      <trkpt lat="43.84963" lon="6.31039">
        <ele>1267.3</ele>
        <time>2021-07-10T14:41:37Z</time>
      </trkpt>
      <trkpt lat="43.84973" lon="6.31044">
        <ele>1265</ele>
        <time>2021-07-10T14:41:39Z</time>
      </trkpt>
      <trkpt lat="43.8498" lon="6.31051">
        <ele>1264.1</ele>
        <time>2021-07-10T14:41:41Z</time>
      </trkpt>
      <trkpt lat="43.84988" lon="6.31058">
        <ele>1263.5</ele>
        <time>2021-07-10T14:41:43Z</time>
      </trkpt>
      <trkpt lat="43.84995" lon="6.31064">
        <ele>1262.3</ele>
        <time>2021-07-10T14:41:45Z</time>
      </trkpt>
      <trkpt lat="43.85002" lon="6.31069">
        <ele>1260.8</ele>
        <time>2021-07-10T14:41:47Z</time>
      </trkpt>
      <trkpt lat="43.85009" lon="6.31075">
        <ele>1260.7</ele>
        <time>2021-07-10T14:41:49Z</time>
      </trkpt>
      <trkpt lat="43.85014" lon="6.31086">
        <ele>1261.1</ele>
        <time>2021-07-10T14:41:51Z</time>
      </trkpt>
      <trkpt lat="43.85011" lon="6.31099">
        <ele>1260.9</ele>
        <time>2021-07-10T14:41:53Z</time>
      </trkpt>
      <trkpt lat="43.85003" lon="6.31105">
        <ele>1261.3</ele>
        <time>2021-07-10T14:41:55Z</time>
      </trkpt>
      <trkpt lat="43.84996" lon="6.31107">
        <ele>1260.1</ele>
        <time>2021-07-10T14:41:57Z</time>
      </trkpt>
      <trkpt lat="43.84987" lon="6.31108">
        <ele>1260.3</ele>
        <time>2021-07-10T14:42:00Z</time>
      </trkpt>
      <trkpt lat="43.8498" lon="6.31111">
        <ele>1259</ele>
        <time>2021-07-10T14:42:03Z</time>
      </trkpt>
      <trkpt lat="43.8497" lon="6.31113">
        <ele>1259.6</ele>
        <time>2021-07-10T14:42:06Z</time>
      </trkpt>
      <trkpt lat="43.84961" lon="6.31117">
        <ele>1260.1</ele>
        <time>2021-07-10T14:42:09Z</time>
      </trkpt>
      <trkpt lat="43.84952" lon="6.31123">
        <ele>1261.1</ele>
        <time>2021-07-10T14:42:12Z</time>
      </trkpt>
      <trkpt lat="43.84944" lon="6.31129">
        <ele>1262</ele>
        <time>2021-07-10T14:42:15Z</time>
      </trkpt>
      <trkpt lat="43.84937" lon="6.31136">
        <ele>1263.3</ele>
        <time>2021-07-10T14:42:18Z</time>
      </trkpt>
      <trkpt lat="43.8493" lon="6.31145">
        <ele>1264.1</ele>
        <time>2021-07-10T14:42:22Z</time>
      </trkpt>
      <trkpt lat="43.84926" lon="6.31156">
        <ele>1263.5</ele>
        <time>2021-07-10T14:42:25Z</time>
      </trkpt>
      <trkpt lat="43.84925" lon="6.31167">
        <ele>1263.9</ele>
        <time>2021-07-10T14:42:28Z</time>
      </trkpt>
      <trkpt lat="43.84924" lon="6.31179">
        <ele>1264.3</ele>
        <time>2021-07-10T14:42:31Z</time>
      </trkpt>
      <trkpt lat="43.84923" lon="6.31192">
        <ele>1264.4</ele>
        <time>2021-07-10T14:42:34Z</time>
      </trkpt>
      <trkpt lat="43.84922" lon="6.31206">
        <ele>1263.8</ele>
        <time>2021-07-10T14:42:37Z</time>
      </trkpt>
      <trkpt lat="43.84921" lon="6.31216">
        <ele>1263.5</ele>
        <time>2021-07-10T14:42:39Z</time>
      </trkpt>
      <trkpt lat="43.8492" lon="6.31227">
        <ele>1262.1</ele>
        <time>2021-07-10T14:42:41Z</time>
      </trkpt>
      <trkpt lat="43.84919" lon="6.31237">
        <ele>1262.6</ele>
        <time>2021-07-10T14:42:43Z</time>
      </trkpt>
      <trkpt lat="43.84918" lon="6.31249">
        <ele>1262.4</ele>
        <time>2021-07-10T14:42:45Z</time>
      </trkpt>
      <trkpt lat="43.84916" lon="6.3126">
        <ele>1262.2</ele>
        <time>2021-07-10T14:42:47Z</time>
      </trkpt>
      <trkpt lat="43.84912" lon="6.31269">
        <ele>1263.1</ele>
        <time>2021-07-10T14:42:49Z</time>
      </trkpt>
      <trkpt lat="43.84905" lon="6.31278">
        <ele>1263.4</ele>
        <time>2021-07-10T14:42:52Z</time>
      </trkpt>
      <trkpt lat="43.84899" lon="6.31287">
        <ele>1264.5</ele>
        <time>2021-07-10T14:42:55Z</time>
      </trkpt>
      <trkpt lat="43.84894" lon="6.31295">
        <ele>1263.6</ele>
        <time>2021-07-10T14:42:57Z</time>
      </trkpt>
      <trkpt lat="43.84888" lon="6.31305">
        <ele>1264.3</ele>
        <time>2021-07-10T14:43:00Z</time>
      </trkpt>
      <trkpt lat="43.84881" lon="6.31317">
        <ele>1264</ele>
        <time>2021-07-10T14:43:03Z</time>
      </trkpt>
      <trkpt lat="43.84876" lon="6.31324">
        <ele>1263.3</ele>
        <time>2021-07-10T14:43:05Z</time>
      </trkpt>
      <trkpt lat="43.84872" lon="6.31333">
        <ele>1262.9</ele>
        <time>2021-07-10T14:43:07Z</time>
      </trkpt>
      <trkpt lat="43.84866" lon="6.31344">
        <ele>1263.5</ele>
        <time>2021-07-10T14:43:10Z</time>
      </trkpt>
      <trkpt lat="43.84862" lon="6.31357">
        <ele>1264</ele>
        <time>2021-07-10T14:43:13Z</time>
      </trkpt>
      <trkpt lat="43.84857" lon="6.3137">
        <ele>1263.1</ele>
        <time>2021-07-10T14:43:16Z</time>
      </trkpt>
      <trkpt lat="43.84855" lon="6.3138">
        <ele>1263.5</ele>
        <time>2021-07-10T14:43:18Z</time>
      </trkpt>
      <trkpt lat="43.84852" lon="6.3139">
        <ele>1263.2</ele>
        <time>2021-07-10T14:43:20Z</time>
      </trkpt>
      <trkpt lat="43.8485" lon="6.31399">
        <ele>1263.7</ele>
        <time>2021-07-10T14:43:22Z</time>
      </trkpt>
      <trkpt lat="43.84848" lon="6.31409">
        <ele>1263.7</ele>
        <time>2021-07-10T14:43:24Z</time>
      </trkpt>
      <trkpt lat="43.84846" lon="6.3142">
        <ele>1263.7</ele>
        <time>2021-07-10T14:43:26Z</time>
      </trkpt>
      <trkpt lat="43.84844" lon="6.3143">
        <ele>1264.1</ele>
        <time>2021-07-10T14:43:28Z</time>
      </trkpt>
      <trkpt lat="43.84841" lon="6.31441">
        <ele>1263.4</ele>
        <time>2021-07-10T14:43:30Z</time>
      </trkpt>
      <trkpt lat="43.84838" lon="6.31451">
        <ele>1263.2</ele>
        <time>2021-07-10T14:43:32Z</time>
      </trkpt>
      <trkpt lat="43.84833" lon="6.31461">
        <ele>1262.7</ele>
        <time>2021-07-10T14:43:34Z</time>
      </trkpt>
      <trkpt lat="43.84828" lon="6.31469">
        <ele>1262.7</ele>
        <time>2021-07-10T14:43:36Z</time>
      </trkpt>
      <trkpt lat="43.84821" lon="6.31475">
        <ele>1262.4</ele>
        <time>2021-07-10T14:43:38Z</time>
      </trkpt>
      <trkpt lat="43.84814" lon="6.31481">
        <ele>1261.8</ele>
        <time>2021-07-10T14:43:40Z</time>
      </trkpt>
      <trkpt lat="43.84807" lon="6.31485">
        <ele>1261.9</ele>
        <time>2021-07-10T14:43:42Z</time>
      </trkpt>
      <trkpt lat="43.84798" lon="6.31491">
        <ele>1261.5</ele>
        <time>2021-07-10T14:43:45Z</time>
      </trkpt>
      <trkpt lat="43.8479" lon="6.31496">
        <ele>1261.4</ele>
        <time>2021-07-10T14:43:48Z</time>
      </trkpt>
      <trkpt lat="43.84781" lon="6.31503">
        <ele>1262.3</ele>
        <time>2021-07-10T14:43:51Z</time>
      </trkpt>
      <trkpt lat="43.84774" lon="6.31509">
        <ele>1262.3</ele>
        <time>2021-07-10T14:43:53Z</time>
      </trkpt>
      <trkpt lat="43.84767" lon="6.31516">
        <ele>1262.7</ele>
        <time>2021-07-10T14:43:55Z</time>
      </trkpt>
      <trkpt lat="43.84761" lon="6.31523">
        <ele>1262.6</ele>
        <time>2021-07-10T14:43:57Z</time>
      </trkpt>
      <trkpt lat="43.84755" lon="6.3153">
        <ele>1262.5</ele>
        <time>2021-07-10T14:43:59Z</time>
      </trkpt>
      <trkpt lat="43.84749" lon="6.31536">
        <ele>1262.6</ele>
        <time>2021-07-10T14:44:01Z</time>
      </trkpt>
      <trkpt lat="43.84741" lon="6.31543">
        <ele>1263.2</ele>
        <time>2021-07-10T14:44:04Z</time>
      </trkpt>
      <trkpt lat="43.84733" lon="6.31554">
        <ele>1263.5</ele>
        <time>2021-07-10T14:44:07Z</time>
      </trkpt>
      <trkpt lat="43.84728" lon="6.31561">
        <ele>1263.5</ele>
        <time>2021-07-10T14:44:09Z</time>
      </trkpt>
      <trkpt lat="43.84724" lon="6.31574">
        <ele>1263</ele>
        <time>2021-07-10T14:44:12Z</time>
      </trkpt>
      <trkpt lat="43.84725" lon="6.31587">
        <ele>1263</ele>
        <time>2021-07-10T14:44:15Z</time>
      </trkpt>
      <trkpt lat="43.8473" lon="6.31596">
        <ele>1262.9</ele>
        <time>2021-07-10T14:44:17Z</time>
      </trkpt>
      <trkpt lat="43.84735" lon="6.31606">
        <ele>1262.7</ele>
        <time>2021-07-10T14:44:19Z</time>
      </trkpt>
      <trkpt lat="43.84741" lon="6.31618">
        <ele>1261.9</ele>
        <time>2021-07-10T14:44:21Z</time>
      </trkpt>
      <trkpt lat="43.84745" lon="6.31631">
        <ele>1261.6</ele>
        <time>2021-07-10T14:44:23Z</time>
      </trkpt>
      <trkpt lat="43.8475" lon="6.31641">
        <ele>1261.7</ele>
        <time>2021-07-10T14:44:25Z</time>
      </trkpt>
      <trkpt lat="43.84752" lon="6.31654">
        <ele>1261.6</ele>
        <time>2021-07-10T14:44:27Z</time>
      </trkpt>
      <trkpt lat="43.84756" lon="6.31666">
        <ele>1261.5</ele>
        <time>2021-07-10T14:44:29Z</time>
      </trkpt>
      <trkpt lat="43.84759" lon="6.31678">
        <ele>1261</ele>
        <time>2021-07-10T14:44:31Z</time>
      </trkpt>
      <trkpt lat="43.84763" lon="6.3169">
        <ele>1260.6</ele>
        <time>2021-07-10T14:44:33Z</time>
      </trkpt>
      <trkpt lat="43.84767" lon="6.31703">
        <ele>1261.6</ele>
        <time>2021-07-10T14:44:35Z</time>
      </trkpt>
      <trkpt lat="43.84766" lon="6.31716">
        <ele>1260.9</ele>
        <time>2021-07-10T14:44:37Z</time>
      </trkpt>
      <trkpt lat="43.8476" lon="6.31725">
        <ele>1260.1</ele>
        <time>2021-07-10T14:44:39Z</time>
      </trkpt>
      <trkpt lat="43.84752" lon="6.31728">
        <ele>1259.6</ele>
        <time>2021-07-10T14:44:43Z</time>
      </trkpt>
      <trkpt lat="43.84743" lon="6.31724">
        <ele>1257.9</ele>
        <time>2021-07-10T14:44:46Z</time>
      </trkpt>
      <trkpt lat="43.84734" lon="6.31717">
        <ele>1255.2</ele>
        <time>2021-07-10T14:44:49Z</time>
      </trkpt>
      <trkpt lat="43.84728" lon="6.31711">
        <ele>1254</ele>
        <time>2021-07-10T14:44:51Z</time>
      </trkpt>
      <trkpt lat="43.8472" lon="6.31703">
        <ele>1252.1</ele>
        <time>2021-07-10T14:44:54Z</time>
      </trkpt>
      <trkpt lat="43.84715" lon="6.31696">
        <ele>1253.2</ele>
        <time>2021-07-10T14:44:57Z</time>
      </trkpt>
      <trkpt lat="43.84709" lon="6.31686">
        <ele>1254.4</ele>
        <time>2021-07-10T14:45:01Z</time>
      </trkpt>
      <trkpt lat="43.84703" lon="6.3168">
        <ele>1254.5</ele>
        <time>2021-07-10T14:45:04Z</time>
      </trkpt>
      <trkpt lat="43.84696" lon="6.31674">
        <ele>1255</ele>
        <time>2021-07-10T14:45:07Z</time>
      </trkpt>
      <trkpt lat="43.84688" lon="6.31671">
        <ele>1255.1</ele>
        <time>2021-07-10T14:45:10Z</time>
      </trkpt>
      <trkpt lat="43.84681" lon="6.31669">
        <ele>1256.8</ele>
        <time>2021-07-10T14:45:13Z</time>
      </trkpt>
      <trkpt lat="43.84673" lon="6.31666">
        <ele>1256.5</ele>
        <time>2021-07-10T14:45:16Z</time>
      </trkpt>
      <trkpt lat="43.84665" lon="6.31664">
        <ele>1257.3</ele>
        <time>2021-07-10T14:45:19Z</time>
      </trkpt>
      <trkpt lat="43.84657" lon="6.31662">
        <ele>1258</ele>
        <time>2021-07-10T14:45:22Z</time>
      </trkpt>
      <trkpt lat="43.84649" lon="6.3166">
        <ele>1258.6</ele>
        <time>2021-07-10T14:45:25Z</time>
      </trkpt>
      <trkpt lat="43.84642" lon="6.31658">
        <ele>1260.6</ele>
        <time>2021-07-10T14:45:28Z</time>
      </trkpt>
      <trkpt lat="43.84634" lon="6.31657">
        <ele>1261</ele>
        <time>2021-07-10T14:45:31Z</time>
      </trkpt>
      <trkpt lat="43.84626" lon="6.31655">
        <ele>1262.3</ele>
        <time>2021-07-10T14:45:34Z</time>
      </trkpt>
      <trkpt lat="43.84617" lon="6.31657">
        <ele>1263</ele>
        <time>2021-07-10T14:45:38Z</time>
      </trkpt>
      <trkpt lat="43.84608" lon="6.3166">
        <ele>1263.3</ele>
        <time>2021-07-10T14:45:41Z</time>
      </trkpt>
      <trkpt lat="43.84597" lon="6.31663">
        <ele>1262.5</ele>
        <time>2021-07-10T14:45:44Z</time>
      </trkpt>
      <trkpt lat="43.84586" lon="6.31666">
        <ele>1263.3</ele>
        <time>2021-07-10T14:45:47Z</time>
      </trkpt>
      <trkpt lat="43.84579" lon="6.31667">
        <ele>1263.5</ele>
        <time>2021-07-10T14:45:49Z</time>
      </trkpt>
      <trkpt lat="43.8457" lon="6.3167">
        <ele>1264.2</ele>
        <time>2021-07-10T14:45:52Z</time>
      </trkpt>
      <trkpt lat="43.84562" lon="6.31675">
        <ele>1263.7</ele>
        <time>2021-07-10T14:45:55Z</time>
      </trkpt>
      <trkpt lat="43.84553" lon="6.31682">
        <ele>1263.3</ele>
        <time>2021-07-10T14:45:58Z</time>
      </trkpt>
      <trkpt lat="43.84547" lon="6.31688">
        <ele>1263.7</ele>
        <time>2021-07-10T14:46:00Z</time>
      </trkpt>
      <trkpt lat="43.84541" lon="6.31697">
        <ele>1263.4</ele>
        <time>2021-07-10T14:46:02Z</time>
      </trkpt>
      <trkpt lat="43.84536" lon="6.3171">
        <ele>1263.6</ele>
        <time>2021-07-10T14:46:04Z</time>
      </trkpt>
      <trkpt lat="43.84531" lon="6.31723">
        <ele>1264.6</ele>
        <time>2021-07-10T14:46:06Z</time>
      </trkpt>
      <trkpt lat="43.84524" lon="6.31734">
        <ele>1264.6</ele>
        <time>2021-07-10T14:46:08Z</time>
      </trkpt>
      <trkpt lat="43.84515" lon="6.31736">
        <ele>1264.7</ele>
        <time>2021-07-10T14:46:10Z</time>
      </trkpt>
      <trkpt lat="43.84507" lon="6.31734">
        <ele>1265.4</ele>
        <time>2021-07-10T14:46:13Z</time>
      </trkpt>
      <trkpt lat="43.84499" lon="6.3173">
        <ele>1264.2</ele>
        <time>2021-07-10T14:46:16Z</time>
      </trkpt>
      <trkpt lat="43.84491" lon="6.31727">
        <ele>1263.9</ele>
        <time>2021-07-10T14:46:19Z</time>
      </trkpt>
      <trkpt lat="43.84483" lon="6.31724">
        <ele>1265.2</ele>
        <time>2021-07-10T14:46:23Z</time>
      </trkpt>
      <trkpt lat="43.84474" lon="6.31722">
        <ele>1265.7</ele>
        <time>2021-07-10T14:46:27Z</time>
      </trkpt>
      <trkpt lat="43.84466" lon="6.31725">
        <ele>1267.1</ele>
        <time>2021-07-10T14:46:31Z</time>
      </trkpt>
      <trkpt lat="43.84458" lon="6.31731">
        <ele>1267.5</ele>
        <time>2021-07-10T14:46:35Z</time>
      </trkpt>
      <trkpt lat="43.84453" lon="6.31741">
        <ele>1268.7</ele>
        <time>2021-07-10T14:46:39Z</time>
      </trkpt>
      <trkpt lat="43.8445" lon="6.3175">
        <ele>1269.6</ele>
        <time>2021-07-10T14:46:42Z</time>
      </trkpt>
      <trkpt lat="43.84448" lon="6.3176">
        <ele>1270</ele>
        <time>2021-07-10T14:46:45Z</time>
      </trkpt>
      <trkpt lat="43.84446" lon="6.3177">
        <ele>1269.4</ele>
        <time>2021-07-10T14:46:48Z</time>
      </trkpt>
      <trkpt lat="43.84443" lon="6.3178">
        <ele>1268.7</ele>
        <time>2021-07-10T14:46:51Z</time>
      </trkpt>
      <trkpt lat="43.84437" lon="6.31786">
        <ele>1268.6</ele>
        <time>2021-07-10T14:46:54Z</time>
      </trkpt>
      <trkpt lat="43.84428" lon="6.31788">
        <ele>1269.8</ele>
        <time>2021-07-10T14:46:58Z</time>
      </trkpt>
      <trkpt lat="43.84418" lon="6.3179">
        <ele>1271</ele>
        <time>2021-07-10T14:47:02Z</time>
      </trkpt>
      <trkpt lat="43.8441" lon="6.31793">
        <ele>1272.1</ele>
        <time>2021-07-10T14:47:06Z</time>
      </trkpt>
      <trkpt lat="43.84402" lon="6.31792">
        <ele>1271.9</ele>
        <time>2021-07-10T14:47:09Z</time>
      </trkpt>
      <trkpt lat="43.84394" lon="6.3179">
        <ele>1272.5</ele>
        <time>2021-07-10T14:47:13Z</time>
      </trkpt>
      <trkpt lat="43.84385" lon="6.31787">
        <ele>1272.5</ele>
        <time>2021-07-10T14:47:17Z</time>
      </trkpt>
      <trkpt lat="43.84375" lon="6.31788">
        <ele>1273.4</ele>
        <time>2021-07-10T14:47:21Z</time>
      </trkpt>
      <trkpt lat="43.84367" lon="6.31791">
        <ele>1274.4</ele>
        <time>2021-07-10T14:47:25Z</time>
      </trkpt>
      <trkpt lat="43.8436" lon="6.31794">
        <ele>1275.2</ele>
        <time>2021-07-10T14:47:28Z</time>
      </trkpt>
      <trkpt lat="43.84351" lon="6.31799">
        <ele>1275.7</ele>
        <time>2021-07-10T14:47:32Z</time>
      </trkpt>
      <trkpt lat="43.84345" lon="6.31804">
        <ele>1276.3</ele>
        <time>2021-07-10T14:47:35Z</time>
      </trkpt>
      <trkpt lat="43.84339" lon="6.31809">
        <ele>1276.6</ele>
        <time>2021-07-10T14:47:38Z</time>
      </trkpt>
      <trkpt lat="43.84331" lon="6.31816">
        <ele>1277.2</ele>
        <time>2021-07-10T14:47:42Z</time>
      </trkpt>
      <trkpt lat="43.84324" lon="6.31822">
        <ele>1280.2</ele>
        <time>2021-07-10T14:47:47Z</time>
      </trkpt>
      <trkpt lat="43.84318" lon="6.31827">
        <ele>1281.5</ele>
        <time>2021-07-10T14:47:51Z</time>
      </trkpt>
      <trkpt lat="43.84311" lon="6.31832">
        <ele>1282.1</ele>
        <time>2021-07-10T14:47:55Z</time>
      </trkpt>
      <trkpt lat="43.84304" lon="6.31836">
        <ele>1283.8</ele>
        <time>2021-07-10T14:47:59Z</time>
      </trkpt>
      <trkpt lat="43.84296" lon="6.3184">
        <ele>1286.1</ele>
        <time>2021-07-10T14:48:04Z</time>
      </trkpt>
      <trkpt lat="43.84288" lon="6.31844">
        <ele>1286.9</ele>
        <time>2021-07-10T14:48:09Z</time>
      </trkpt>
      <trkpt lat="43.8428" lon="6.31847">
        <ele>1288</ele>
        <time>2021-07-10T14:48:14Z</time>
      </trkpt>
      <trkpt lat="43.84272" lon="6.31849">
        <ele>1289</ele>
        <time>2021-07-10T14:48:18Z</time>
      </trkpt>
      <trkpt lat="43.84264" lon="6.31847">
        <ele>1289.2</ele>
        <time>2021-07-10T14:48:23Z</time>
      </trkpt>
      <trkpt lat="43.84257" lon="6.31847">
        <ele>1292.9</ele>
        <time>2021-07-10T14:48:28Z</time>
      </trkpt>
      <trkpt lat="43.84248" lon="6.31846">
        <ele>1293.3</ele>
        <time>2021-07-10T14:48:33Z</time>
      </trkpt>
      <trkpt lat="43.84241" lon="6.31844">
        <ele>1294</ele>
        <time>2021-07-10T14:48:37Z</time>
      </trkpt>
      <trkpt lat="43.84234" lon="6.31842">
        <ele>1293.8</ele>
        <time>2021-07-10T14:48:41Z</time>
      </trkpt>
      <trkpt lat="43.84224" lon="6.3184">
        <ele>1293.9</ele>
        <time>2021-07-10T14:48:45Z</time>
      </trkpt>
      <trkpt lat="43.84214" lon="6.31839">
        <ele>1293.7</ele>
        <time>2021-07-10T14:48:49Z</time>
      </trkpt>
      <trkpt lat="43.84206" lon="6.31837">
        <ele>1293</ele>
        <time>2021-07-10T14:48:53Z</time>
      </trkpt>
      <trkpt lat="43.84196" lon="6.31834">
        <ele>1293.1</ele>
        <time>2021-07-10T14:48:57Z</time>
      </trkpt>
      <trkpt lat="43.84187" lon="6.31832">
        <ele>1294.4</ele>
        <time>2021-07-10T14:49:01Z</time>
      </trkpt>
      <trkpt lat="43.84178" lon="6.31833">
        <ele>1295.5</ele>
        <time>2021-07-10T14:49:05Z</time>
      </trkpt>
      <trkpt lat="43.84168" lon="6.31834">
        <ele>1296.2</ele>
        <time>2021-07-10T14:49:09Z</time>
      </trkpt>
      <trkpt lat="43.84161" lon="6.31835">
        <ele>1296.4</ele>
        <time>2021-07-10T14:49:12Z</time>
      </trkpt>
      <trkpt lat="43.84154" lon="6.31837">
        <ele>1296.3</ele>
        <time>2021-07-10T14:49:15Z</time>
      </trkpt>
      <trkpt lat="43.84147" lon="6.31838">
        <ele>1296.4</ele>
        <time>2021-07-10T14:49:18Z</time>
      </trkpt>
      <trkpt lat="43.84139" lon="6.31841">
        <ele>1296.8</ele>
        <time>2021-07-10T14:49:21Z</time>
      </trkpt>
      <trkpt lat="43.8413" lon="6.31844">
        <ele>1297.6</ele>
        <time>2021-07-10T14:49:25Z</time>
      </trkpt>
      <trkpt lat="43.84123" lon="6.31846">
        <ele>1298</ele>
        <time>2021-07-10T14:49:28Z</time>
      </trkpt>
      <trkpt lat="43.84116" lon="6.3185">
        <ele>1298</ele>
        <time>2021-07-10T14:49:31Z</time>
      </trkpt>
      <trkpt lat="43.84108" lon="6.31854">
        <ele>1298.2</ele>
        <time>2021-07-10T14:49:34Z</time>
      </trkpt>
      <trkpt lat="43.84101" lon="6.31857">
        <ele>1298.3</ele>
        <time>2021-07-10T14:49:37Z</time>
      </trkpt>
      <trkpt lat="43.84093" lon="6.3186">
        <ele>1298.2</ele>
        <time>2021-07-10T14:49:40Z</time>
      </trkpt>
      <trkpt lat="43.84087" lon="6.31865">
        <ele>1298.2</ele>
        <time>2021-07-10T14:49:43Z</time>
      </trkpt>
      <trkpt lat="43.84079" lon="6.31869">
        <ele>1298.8</ele>
        <time>2021-07-10T14:49:46Z</time>
      </trkpt>
      <trkpt lat="43.84072" lon="6.31875">
        <ele>1299.8</ele>
        <time>2021-07-10T14:49:49Z</time>
      </trkpt>
      <trkpt lat="43.84065" lon="6.31882">
        <ele>1299.6</ele>
        <time>2021-07-10T14:49:52Z</time>
      </trkpt>
      <trkpt lat="43.84058" lon="6.31889">
        <ele>1300.7</ele>
        <time>2021-07-10T14:49:55Z</time>
      </trkpt>
      <trkpt lat="43.84051" lon="6.31897">
        <ele>1301.5</ele>
        <time>2021-07-10T14:49:58Z</time>
      </trkpt>
      <trkpt lat="43.84044" lon="6.31906">
        <ele>1301.9</ele>
        <time>2021-07-10T14:50:01Z</time>
      </trkpt>
      <trkpt lat="43.84038" lon="6.31915">
        <ele>1302.4</ele>
        <time>2021-07-10T14:50:04Z</time>
      </trkpt>
      <trkpt lat="43.84034" lon="6.31927">
        <ele>1302.3</ele>
        <time>2021-07-10T14:50:07Z</time>
      </trkpt>
      <trkpt lat="43.84031" lon="6.31939">
        <ele>1302.1</ele>
        <time>2021-07-10T14:50:10Z</time>
      </trkpt>
      <trkpt lat="43.84029" lon="6.31952">
        <ele>1302.6</ele>
        <time>2021-07-10T14:50:13Z</time>
      </trkpt>
      <trkpt lat="43.84028" lon="6.31966">
        <ele>1303</ele>
        <time>2021-07-10T14:50:16Z</time>
      </trkpt>
      <trkpt lat="43.84029" lon="6.31979">
        <ele>1303.1</ele>
        <time>2021-07-10T14:50:19Z</time>
      </trkpt>
      <trkpt lat="43.8403" lon="6.31991">
        <ele>1303.5</ele>
        <time>2021-07-10T14:50:22Z</time>
      </trkpt>
      <trkpt lat="43.84032" lon="6.32004">
        <ele>1304</ele>
        <time>2021-07-10T14:50:25Z</time>
      </trkpt>
      <trkpt lat="43.84034" lon="6.32017">
        <ele>1304.7</ele>
        <time>2021-07-10T14:50:28Z</time>
      </trkpt>
      <trkpt lat="43.84036" lon="6.3203">
        <ele>1304.5</ele>
        <time>2021-07-10T14:50:31Z</time>
      </trkpt>
      <trkpt lat="43.84038" lon="6.32042">
        <ele>1304.3</ele>
        <time>2021-07-10T14:50:34Z</time>
      </trkpt>
      <trkpt lat="43.8404" lon="6.32056">
        <ele>1304.4</ele>
        <time>2021-07-10T14:50:37Z</time>
      </trkpt>
      <trkpt lat="43.84042" lon="6.3207">
        <ele>1304.2</ele>
        <time>2021-07-10T14:50:40Z</time>
      </trkpt>
      <trkpt lat="43.84044" lon="6.32079">
        <ele>1304.4</ele>
        <time>2021-07-10T14:50:42Z</time>
      </trkpt>
      <trkpt lat="43.84045" lon="6.32091">
        <ele>1304.8</ele>
        <time>2021-07-10T14:50:44Z</time>
      </trkpt>
      <trkpt lat="43.84046" lon="6.32101">
        <ele>1304.4</ele>
        <time>2021-07-10T14:50:46Z</time>
      </trkpt>
      <trkpt lat="43.84047" lon="6.32112">
        <ele>1304.3</ele>
        <time>2021-07-10T14:50:48Z</time>
      </trkpt>
      <trkpt lat="43.84047" lon="6.32123">
        <ele>1304.3</ele>
        <time>2021-07-10T14:50:50Z</time>
      </trkpt>
      <trkpt lat="43.84049" lon="6.32137">
        <ele>1304.5</ele>
        <time>2021-07-10T14:50:53Z</time>
      </trkpt>
      <trkpt lat="43.8405" lon="6.3215">
        <ele>1304.7</ele>
        <time>2021-07-10T14:50:56Z</time>
      </trkpt>
      <trkpt lat="43.8405" lon="6.3216">
        <ele>1304.8</ele>
        <time>2021-07-10T14:50:58Z</time>
      </trkpt>
      <trkpt lat="43.84052" lon="6.32171">
        <ele>1304.6</ele>
        <time>2021-07-10T14:51:00Z</time>
      </trkpt>
      <trkpt lat="43.84053" lon="6.32183">
        <ele>1304.9</ele>
        <time>2021-07-10T14:51:02Z</time>
      </trkpt>
      <trkpt lat="43.84053" lon="6.32193">
        <ele>1304.9</ele>
        <time>2021-07-10T14:51:04Z</time>
      </trkpt>
      <trkpt lat="43.84054" lon="6.32208">
        <ele>1305.5</ele>
        <time>2021-07-10T14:51:07Z</time>
      </trkpt>
      <trkpt lat="43.84053" lon="6.32218">
        <ele>1305.6</ele>
        <time>2021-07-10T14:51:09Z</time>
      </trkpt>
      <trkpt lat="43.8405" lon="6.32232">
        <ele>1306.5</ele>
        <time>2021-07-10T14:51:12Z</time>
      </trkpt>
      <trkpt lat="43.84043" lon="6.32243">
        <ele>1307</ele>
        <time>2021-07-10T14:51:15Z</time>
      </trkpt>
      <trkpt lat="43.84037" lon="6.32252">
        <ele>1307.5</ele>
        <time>2021-07-10T14:51:18Z</time>
      </trkpt>
      <trkpt lat="43.84033" lon="6.32262">
        <ele>1306.7</ele>
        <time>2021-07-10T14:51:21Z</time>
      </trkpt>
      <trkpt lat="43.84031" lon="6.3227">
        <ele>1303.9</ele>
        <time>2021-07-10T14:51:28Z</time>
      </trkpt>
      <trkpt lat="43.84031" lon="6.3227">
        <ele>1303.8</ele>
        <time>2021-07-10T14:51:33Z</time>
      </trkpt>
      <trkpt lat="43.8403" lon="6.3227">
        <ele>1301.6</ele>
        <time>2021-07-10T14:51:52Z</time>
      </trkpt>
      <trkpt lat="43.8403" lon="6.32269">
        <ele>1301.8</ele>
        <time>2021-07-10T14:51:53Z</time>
      </trkpt>
      <trkpt lat="43.84029" lon="6.32272">
        <ele>1303.3</ele>
        <time>2021-07-10T14:52:17Z</time>
      </trkpt>
      <trkpt lat="43.84029" lon="6.32272">
        <ele>1303.2</ele>
        <time>2021-07-10T14:52:18Z</time>
      </trkpt>
      <trkpt lat="43.84026" lon="6.3227">
        <ele>1302.9</ele>
        <time>2021-07-10T14:53:27Z</time>
      </trkpt>
      <trkpt lat="43.84026" lon="6.3227">
        <ele>1303.2</ele>
        <time>2021-07-10T14:53:31Z</time>
      </trkpt>
      <trkpt lat="43.84025" lon="6.32269">
        <ele>1302.5</ele>
        <time>2021-07-10T14:53:38Z</time>
      </trkpt>
      <trkpt lat="43.84025" lon="6.32269">
        <ele>1302.5</ele>
        <time>2021-07-10T14:53:39Z</time>
      </trkpt>
      <trkpt lat="43.84027" lon="6.32269">
        <ele>1303.3</ele>
        <time>2021-07-10T14:54:23Z</time>
      </trkpt>
      <trkpt lat="43.84026" lon="6.32269">
        <ele>1303.3</ele>
        <time>2021-07-10T14:54:24Z</time>
      </trkpt>
      <trkpt lat="43.84024" lon="6.32279">
        <ele>1303.8</ele>
        <time>2021-07-10T14:54:29Z</time>
      </trkpt>
      <trkpt lat="43.84026" lon="6.32292">
        <ele>1303.1</ele>
        <time>2021-07-10T14:54:32Z</time>
      </trkpt>
      <trkpt lat="43.84026" lon="6.32304">
        <ele>1304.1</ele>
        <time>2021-07-10T14:54:34Z</time>
      </trkpt>
      <trkpt lat="43.84024" lon="6.3232">
        <ele>1306.2</ele>
        <time>2021-07-10T14:54:36Z</time>
      </trkpt>
      <trkpt lat="43.84021" lon="6.32334">
        <ele>1303.9</ele>
        <time>2021-07-10T14:54:38Z</time>
      </trkpt>
      <trkpt lat="43.84017" lon="6.32348">
        <ele>1304.7</ele>
        <time>2021-07-10T14:54:40Z</time>
      </trkpt>
      <trkpt lat="43.84011" lon="6.32361">
        <ele>1304.8</ele>
        <time>2021-07-10T14:54:42Z</time>
      </trkpt>
      <trkpt lat="43.84005" lon="6.32376">
        <ele>1304.4</ele>
        <time>2021-07-10T14:54:44Z</time>
      </trkpt>
      <trkpt lat="43.84" lon="6.3239">
        <ele>1305.7</ele>
        <time>2021-07-10T14:54:46Z</time>
      </trkpt>
      <trkpt lat="43.83993" lon="6.32406">
        <ele>1303.6</ele>
        <time>2021-07-10T14:54:48Z</time>
      </trkpt>
      <trkpt lat="43.83988" lon="6.32424">
        <ele>1302.6</ele>
        <time>2021-07-10T14:54:50Z</time>
      </trkpt>
      <trkpt lat="43.8399" lon="6.32444">
        <ele>1301.1</ele>
        <time>2021-07-10T14:54:52Z</time>
      </trkpt>
      <trkpt lat="43.83993" lon="6.32462">
        <ele>1299.8</ele>
        <time>2021-07-10T14:54:54Z</time>
      </trkpt>
      <trkpt lat="43.83997" lon="6.3248">
        <ele>1298</ele>
        <time>2021-07-10T14:54:56Z</time>
      </trkpt>
      <trkpt lat="43.84004" lon="6.32497">
        <ele>1298.3</ele>
        <time>2021-07-10T14:54:58Z</time>
      </trkpt>
      <trkpt lat="43.84007" lon="6.32506">
        <ele>1297.4</ele>
        <time>2021-07-10T14:54:59Z</time>
      </trkpt>
      <trkpt lat="43.84012" lon="6.32524">
        <ele>1297</ele>
        <time>2021-07-10T14:55:01Z</time>
      </trkpt>
      <trkpt lat="43.84013" lon="6.32544">
        <ele>1295.4</ele>
        <time>2021-07-10T14:55:03Z</time>
      </trkpt>
      <trkpt lat="43.8401" lon="6.32554">
        <ele>1295</ele>
        <time>2021-07-10T14:55:04Z</time>
      </trkpt>
      <trkpt lat="43.84007" lon="6.32563">
        <ele>1294.8</ele>
        <time>2021-07-10T14:55:05Z</time>
      </trkpt>
      <trkpt lat="43.83996" lon="6.32572">
        <ele>1294.7</ele>
        <time>2021-07-10T14:55:07Z</time>
      </trkpt>
      <trkpt lat="43.83986" lon="6.32571">
        <ele>1294.7</ele>
        <time>2021-07-10T14:55:08Z</time>
      </trkpt>
      <trkpt lat="43.83979" lon="6.32571">
        <ele>1295</ele>
        <time>2021-07-10T14:55:09Z</time>
      </trkpt>
      <trkpt lat="43.83964" lon="6.3257">
        <ele>1295.1</ele>
        <time>2021-07-10T14:55:11Z</time>
      </trkpt>
      <trkpt lat="43.83956" lon="6.32569">
        <ele>1295.7</ele>
        <time>2021-07-10T14:55:12Z</time>
      </trkpt>
      <trkpt lat="43.83942" lon="6.32567">
        <ele>1295.7</ele>
        <time>2021-07-10T14:55:14Z</time>
      </trkpt>
      <trkpt lat="43.8393" lon="6.32568">
        <ele>1296</ele>
        <time>2021-07-10T14:55:16Z</time>
      </trkpt>
      <trkpt lat="43.83919" lon="6.32572">
        <ele>1295.5</ele>
        <time>2021-07-10T14:55:18Z</time>
      </trkpt>
      <trkpt lat="43.83908" lon="6.3258">
        <ele>1294</ele>
        <time>2021-07-10T14:55:20Z</time>
      </trkpt>
      <trkpt lat="43.83896" lon="6.32591">
        <ele>1291.9</ele>
        <time>2021-07-10T14:55:22Z</time>
      </trkpt>
      <trkpt lat="43.83887" lon="6.326">
        <ele>1292.6</ele>
        <time>2021-07-10T14:55:24Z</time>
      </trkpt>
      <trkpt lat="43.8388" lon="6.32605">
        <ele>1291.3</ele>
        <time>2021-07-10T14:55:25Z</time>
      </trkpt>
      <trkpt lat="43.83871" lon="6.32608">
        <ele>1288.6</ele>
        <time>2021-07-10T14:55:26Z</time>
      </trkpt>
      <trkpt lat="43.83858" lon="6.32612">
        <ele>1285.6</ele>
        <time>2021-07-10T14:55:28Z</time>
      </trkpt>
      <trkpt lat="43.83846" lon="6.32616">
        <ele>1285.9</ele>
        <time>2021-07-10T14:55:30Z</time>
      </trkpt>
      <trkpt lat="43.83833" lon="6.32619">
        <ele>1286.1</ele>
        <time>2021-07-10T14:55:32Z</time>
      </trkpt>
      <trkpt lat="43.83819" lon="6.32624">
        <ele>1285.9</ele>
        <time>2021-07-10T14:55:34Z</time>
      </trkpt>
      <trkpt lat="43.83812" lon="6.32625">
        <ele>1284.7</ele>
        <time>2021-07-10T14:55:35Z</time>
      </trkpt>
      <trkpt lat="43.83803" lon="6.3263">
        <ele>1283.7</ele>
        <time>2021-07-10T14:55:36Z</time>
      </trkpt>
      <trkpt lat="43.83791" lon="6.32639">
        <ele>1283.2</ele>
        <time>2021-07-10T14:55:38Z</time>
      </trkpt>
      <trkpt lat="43.83782" lon="6.32652">
        <ele>1281.3</ele>
        <time>2021-07-10T14:55:40Z</time>
      </trkpt>
      <trkpt lat="43.83779" lon="6.32663">
        <ele>1281.1</ele>
        <time>2021-07-10T14:55:41Z</time>
      </trkpt>
      <trkpt lat="43.83776" lon="6.32681">
        <ele>1280.4</ele>
        <time>2021-07-10T14:55:43Z</time>
      </trkpt>
      <trkpt lat="43.83774" lon="6.32691">
        <ele>1280.3</ele>
        <time>2021-07-10T14:55:44Z</time>
      </trkpt>
      <trkpt lat="43.83771" lon="6.32703">
        <ele>1280.5</ele>
        <time>2021-07-10T14:55:45Z</time>
      </trkpt>
      <trkpt lat="43.83767" lon="6.32714">
        <ele>1280.4</ele>
        <time>2021-07-10T14:55:46Z</time>
      </trkpt>
      <trkpt lat="43.83764" lon="6.32724">
        <ele>1280.7</ele>
        <time>2021-07-10T14:55:47Z</time>
      </trkpt>
      <trkpt lat="43.83759" lon="6.32736">
        <ele>1279.6</ele>
        <time>2021-07-10T14:55:48Z</time>
      </trkpt>
      <trkpt lat="43.83755" lon="6.32748">
        <ele>1278.8</ele>
        <time>2021-07-10T14:55:49Z</time>
      </trkpt>
      <trkpt lat="43.83751" lon="6.32758">
        <ele>1279.7</ele>
        <time>2021-07-10T14:55:50Z</time>
      </trkpt>
      <trkpt lat="43.83745" lon="6.32769">
        <ele>1279.1</ele>
        <time>2021-07-10T14:55:51Z</time>
      </trkpt>
      <trkpt lat="43.8374" lon="6.32778">
        <ele>1279.8</ele>
        <time>2021-07-10T14:55:52Z</time>
      </trkpt>
      <trkpt lat="43.83734" lon="6.32787">
        <ele>1280.1</ele>
        <time>2021-07-10T14:55:53Z</time>
      </trkpt>
      <trkpt lat="43.83722" lon="6.32789">
        <ele>1279.4</ele>
        <time>2021-07-10T14:55:54Z</time>
      </trkpt>
      <trkpt lat="43.83713" lon="6.32789">
        <ele>1279.1</ele>
        <time>2021-07-10T14:55:55Z</time>
      </trkpt>
      <trkpt lat="43.83705" lon="6.32787">
        <ele>1279.6</ele>
        <time>2021-07-10T14:55:56Z</time>
      </trkpt>
      <trkpt lat="43.83697" lon="6.32783">
        <ele>1279.6</ele>
        <time>2021-07-10T14:55:57Z</time>
      </trkpt>
      <trkpt lat="43.83686" lon="6.32772">
        <ele>1279.6</ele>
        <time>2021-07-10T14:55:59Z</time>
      </trkpt>
      <trkpt lat="43.83676" lon="6.32762">
        <ele>1277.9</ele>
        <time>2021-07-10T14:56:01Z</time>
      </trkpt>
      <trkpt lat="43.83669" lon="6.32755">
        <ele>1277.6</ele>
        <time>2021-07-10T14:56:03Z</time>
      </trkpt>
      <trkpt lat="43.8366" lon="6.32754">
        <ele>1280.2</ele>
        <time>2021-07-10T14:56:06Z</time>
      </trkpt>
      <trkpt lat="43.8365" lon="6.32754">
        <ele>1282.5</ele>
        <time>2021-07-10T14:56:10Z</time>
      </trkpt>
      <trkpt lat="43.83641" lon="6.32755">
        <ele>1282.6</ele>
        <time>2021-07-10T14:56:13Z</time>
      </trkpt>
      <trkpt lat="43.83634" lon="6.32756">
        <ele>1284</ele>
        <time>2021-07-10T14:56:16Z</time>
      </trkpt>
      <trkpt lat="43.83626" lon="6.32759">
        <ele>1285.3</ele>
        <time>2021-07-10T14:56:19Z</time>
      </trkpt>
      <trkpt lat="43.83618" lon="6.32764">
        <ele>1285</ele>
        <time>2021-07-10T14:56:22Z</time>
      </trkpt>
      <trkpt lat="43.8361" lon="6.32769">
        <ele>1285.4</ele>
        <time>2021-07-10T14:56:25Z</time>
      </trkpt>
      <trkpt lat="43.83602" lon="6.32775">
        <ele>1285.5</ele>
        <time>2021-07-10T14:56:28Z</time>
      </trkpt>
      <trkpt lat="43.83595" lon="6.32783">
        <ele>1286</ele>
        <time>2021-07-10T14:56:31Z</time>
      </trkpt>
      <trkpt lat="43.83588" lon="6.32789">
        <ele>1285.8</ele>
        <time>2021-07-10T14:56:34Z</time>
      </trkpt>
      <trkpt lat="43.8358" lon="6.32797">
        <ele>1285.5</ele>
        <time>2021-07-10T14:56:37Z</time>
      </trkpt>
      <trkpt lat="43.83572" lon="6.32806">
        <ele>1286.2</ele>
        <time>2021-07-10T14:56:40Z</time>
      </trkpt>
      <trkpt lat="43.83565" lon="6.32813">
        <ele>1287</ele>
        <time>2021-07-10T14:56:43Z</time>
      </trkpt>
      <trkpt lat="43.83558" lon="6.32823">
        <ele>1287.6</ele>
        <time>2021-07-10T14:56:47Z</time>
      </trkpt>
      <trkpt lat="43.83553" lon="6.32831">
        <ele>1287.1</ele>
        <time>2021-07-10T14:56:50Z</time>
      </trkpt>
      <trkpt lat="43.83549" lon="6.32841">
        <ele>1286.6</ele>
        <time>2021-07-10T14:56:53Z</time>
      </trkpt>
      <trkpt lat="43.83543" lon="6.3285">
        <ele>1285.9</ele>
        <time>2021-07-10T14:56:57Z</time>
      </trkpt>
      <trkpt lat="43.83535" lon="6.32856">
        <ele>1286</ele>
        <time>2021-07-10T14:57:01Z</time>
      </trkpt>
      <trkpt lat="43.83527" lon="6.32856">
        <ele>1286.1</ele>
        <time>2021-07-10T14:57:05Z</time>
      </trkpt>
      <trkpt lat="43.83519" lon="6.32854">
        <ele>1286.3</ele>
        <time>2021-07-10T14:57:09Z</time>
      </trkpt>
      <trkpt lat="43.83511" lon="6.32849">
        <ele>1285.9</ele>
        <time>2021-07-10T14:57:13Z</time>
      </trkpt>
      <trkpt lat="43.83505" lon="6.32843">
        <ele>1285.8</ele>
        <time>2021-07-10T14:57:18Z</time>
      </trkpt>
      <trkpt lat="43.835" lon="6.32834">
        <ele>1284.8</ele>
        <time>2021-07-10T14:57:21Z</time>
      </trkpt>
      <trkpt lat="43.83494" lon="6.32822">
        <ele>1284</ele>
        <time>2021-07-10T14:57:24Z</time>
      </trkpt>
      <trkpt lat="43.8349" lon="6.32811">
        <ele>1284.3</ele>
        <time>2021-07-10T14:57:27Z</time>
      </trkpt>
      <trkpt lat="43.83487" lon="6.328">
        <ele>1283</ele>
        <time>2021-07-10T14:57:34Z</time>
      </trkpt>
      <trkpt lat="43.83486" lon="6.32789">
        <ele>1284.2</ele>
        <time>2021-07-10T14:57:38Z</time>
      </trkpt>
      <trkpt lat="43.83481" lon="6.3278">
        <ele>1283.2</ele>
        <time>2021-07-10T14:57:42Z</time>
      </trkpt>
      <trkpt lat="43.83476" lon="6.32772">
        <ele>1282.9</ele>
        <time>2021-07-10T14:57:45Z</time>
      </trkpt>
      <trkpt lat="43.83468" lon="6.32761">
        <ele>1281.7</ele>
        <time>2021-07-10T14:57:48Z</time>
      </trkpt>
      <trkpt lat="43.83459" lon="6.32753">
        <ele>1281.3</ele>
        <time>2021-07-10T14:57:50Z</time>
      </trkpt>
      <trkpt lat="43.83449" lon="6.32743">
        <ele>1281.4</ele>
        <time>2021-07-10T14:57:52Z</time>
      </trkpt>
      <trkpt lat="43.83438" lon="6.32734">
        <ele>1280</ele>
        <time>2021-07-10T14:57:54Z</time>
      </trkpt>
      <trkpt lat="43.83425" lon="6.32727">
        <ele>1278.4</ele>
        <time>2021-07-10T14:57:56Z</time>
      </trkpt>
      <trkpt lat="43.83417" lon="6.32724">
        <ele>1278</ele>
        <time>2021-07-10T14:57:57Z</time>
      </trkpt>
      <trkpt lat="43.8341" lon="6.32721">
        <ele>1276.9</ele>
        <time>2021-07-10T14:57:58Z</time>
      </trkpt>
      <trkpt lat="43.83403" lon="6.32717">
        <ele>1276.9</ele>
        <time>2021-07-10T14:57:59Z</time>
      </trkpt>
      <trkpt lat="43.83395" lon="6.32713">
        <ele>1276.4</ele>
        <time>2021-07-10T14:58:00Z</time>
      </trkpt>
      <trkpt lat="43.83388" lon="6.3271">
        <ele>1275.8</ele>
        <time>2021-07-10T14:58:01Z</time>
      </trkpt>
      <trkpt lat="43.83375" lon="6.32703">
        <ele>1275</ele>
        <time>2021-07-10T14:58:03Z</time>
      </trkpt>
      <trkpt lat="43.83368" lon="6.32699">
        <ele>1274.3</ele>
        <time>2021-07-10T14:58:04Z</time>
      </trkpt>
      <trkpt lat="43.83362" lon="6.32694">
        <ele>1273.6</ele>
        <time>2021-07-10T14:58:05Z</time>
      </trkpt>
      <trkpt lat="43.83355" lon="6.32687">
        <ele>1273</ele>
        <time>2021-07-10T14:58:06Z</time>
      </trkpt>
      <trkpt lat="43.83349" lon="6.3268">
        <ele>1272</ele>
        <time>2021-07-10T14:58:07Z</time>
      </trkpt>
      <trkpt lat="43.83343" lon="6.3267">
        <ele>1271</ele>
        <time>2021-07-10T14:58:08Z</time>
      </trkpt>
      <trkpt lat="43.83338" lon="6.3266">
        <ele>1270.5</ele>
        <time>2021-07-10T14:58:09Z</time>
      </trkpt>
      <trkpt lat="43.83334" lon="6.32649">
        <ele>1270</ele>
        <time>2021-07-10T14:58:10Z</time>
      </trkpt>
      <trkpt lat="43.8333" lon="6.32638">
        <ele>1269.7</ele>
        <time>2021-07-10T14:58:11Z</time>
      </trkpt>
      <trkpt lat="43.83328" lon="6.32628">
        <ele>1269.5</ele>
        <time>2021-07-10T14:58:12Z</time>
      </trkpt>
      <trkpt lat="43.83327" lon="6.32608">
        <ele>1268.1</ele>
        <time>2021-07-10T14:58:14Z</time>
      </trkpt>
      <trkpt lat="43.83329" lon="6.32597">
        <ele>1268.3</ele>
        <time>2021-07-10T14:58:15Z</time>
      </trkpt>
      <trkpt lat="43.83332" lon="6.32589">
        <ele>1268.1</ele>
        <time>2021-07-10T14:58:16Z</time>
      </trkpt>
      <trkpt lat="43.83337" lon="6.3258">
        <ele>1267.9</ele>
        <time>2021-07-10T14:58:17Z</time>
      </trkpt>
      <trkpt lat="43.83343" lon="6.32573">
        <ele>1267.7</ele>
        <time>2021-07-10T14:58:18Z</time>
      </trkpt>
      <trkpt lat="43.8335" lon="6.32565">
        <ele>1267.2</ele>
        <time>2021-07-10T14:58:19Z</time>
      </trkpt>
      <trkpt lat="43.83356" lon="6.32558">
        <ele>1267.2</ele>
        <time>2021-07-10T14:58:20Z</time>
      </trkpt>
      <trkpt lat="43.83362" lon="6.3255">
        <ele>1266.6</ele>
        <time>2021-07-10T14:58:21Z</time>
      </trkpt>
      <trkpt lat="43.83368" lon="6.32542">
        <ele>1266.1</ele>
        <time>2021-07-10T14:58:22Z</time>
      </trkpt>
      <trkpt lat="43.83373" lon="6.32535">
        <ele>1265.3</ele>
        <time>2021-07-10T14:58:23Z</time>
      </trkpt>
      <trkpt lat="43.83379" lon="6.32528">
        <ele>1264.8</ele>
        <time>2021-07-10T14:58:24Z</time>
      </trkpt>
      <trkpt lat="43.83385" lon="6.32521">
        <ele>1264.5</ele>
        <time>2021-07-10T14:58:25Z</time>
      </trkpt>
      <trkpt lat="43.8339" lon="6.32513">
        <ele>1264</ele>
        <time>2021-07-10T14:58:26Z</time>
      </trkpt>
      <trkpt lat="43.83395" lon="6.32503">
        <ele>1264</ele>
        <time>2021-07-10T14:58:27Z</time>
      </trkpt>
      <trkpt lat="43.834" lon="6.32495">
        <ele>1263.7</ele>
        <time>2021-07-10T14:58:28Z</time>
      </trkpt>
      <trkpt lat="43.83404" lon="6.32486">
        <ele>1262.7</ele>
        <time>2021-07-10T14:58:29Z</time>
      </trkpt>
      <trkpt lat="43.83409" lon="6.32476">
        <ele>1262</ele>
        <time>2021-07-10T14:58:30Z</time>
      </trkpt>
      <trkpt lat="43.83417" lon="6.32459">
        <ele>1262.7</ele>
        <time>2021-07-10T14:58:32Z</time>
      </trkpt>
      <trkpt lat="43.8342" lon="6.32449">
        <ele>1262.5</ele>
        <time>2021-07-10T14:58:33Z</time>
      </trkpt>
      <trkpt lat="43.83421" lon="6.32431">
        <ele>1261.7</ele>
        <time>2021-07-10T14:58:35Z</time>
      </trkpt>
      <trkpt lat="43.83414" lon="6.32417">
        <ele>1261.1</ele>
        <time>2021-07-10T14:58:37Z</time>
      </trkpt>
      <trkpt lat="43.83404" lon="6.32408">
        <ele>1259.9</ele>
        <time>2021-07-10T14:58:39Z</time>
      </trkpt>
      <trkpt lat="43.83391" lon="6.32402">
        <ele>1258</ele>
        <time>2021-07-10T14:58:41Z</time>
      </trkpt>
      <trkpt lat="43.83383" lon="6.32399">
        <ele>1257.6</ele>
        <time>2021-07-10T14:58:42Z</time>
      </trkpt>
      <trkpt lat="43.83376" lon="6.32395">
        <ele>1257.5</ele>
        <time>2021-07-10T14:58:43Z</time>
      </trkpt>
      <trkpt lat="43.83369" lon="6.32392">
        <ele>1256.5</ele>
        <time>2021-07-10T14:58:44Z</time>
      </trkpt>
      <trkpt lat="43.83362" lon="6.32388">
        <ele>1255.9</ele>
        <time>2021-07-10T14:58:45Z</time>
      </trkpt>
      <trkpt lat="43.83354" lon="6.32384">
        <ele>1255</ele>
        <time>2021-07-10T14:58:46Z</time>
      </trkpt>
      <trkpt lat="43.83346" lon="6.32381">
        <ele>1255.3</ele>
        <time>2021-07-10T14:58:47Z</time>
      </trkpt>
      <trkpt lat="43.83339" lon="6.32379">
        <ele>1254.8</ele>
        <time>2021-07-10T14:58:48Z</time>
      </trkpt>
      <trkpt lat="43.83331" lon="6.32378">
        <ele>1254.4</ele>
        <time>2021-07-10T14:58:49Z</time>
      </trkpt>
      <trkpt lat="43.83322" lon="6.32376">
        <ele>1253.5</ele>
        <time>2021-07-10T14:58:50Z</time>
      </trkpt>
      <trkpt lat="43.83314" lon="6.32377">
        <ele>1253.1</ele>
        <time>2021-07-10T14:58:51Z</time>
      </trkpt>
      <trkpt lat="43.83305" lon="6.32378">
        <ele>1252.7</ele>
        <time>2021-07-10T14:58:52Z</time>
      </trkpt>
      <trkpt lat="43.83297" lon="6.32381">
        <ele>1252.5</ele>
        <time>2021-07-10T14:58:53Z</time>
      </trkpt>
      <trkpt lat="43.83288" lon="6.32383">
        <ele>1251.4</ele>
        <time>2021-07-10T14:58:54Z</time>
      </trkpt>
      <trkpt lat="43.8328" lon="6.32387">
        <ele>1250.9</ele>
        <time>2021-07-10T14:58:55Z</time>
      </trkpt>
      <trkpt lat="43.83272" lon="6.32392">
        <ele>1250.8</ele>
        <time>2021-07-10T14:58:56Z</time>
      </trkpt>
      <trkpt lat="43.83264" lon="6.32397">
        <ele>1250.2</ele>
        <time>2021-07-10T14:58:57Z</time>
      </trkpt>
      <trkpt lat="43.83257" lon="6.32403">
        <ele>1248.6</ele>
        <time>2021-07-10T14:58:58Z</time>
      </trkpt>
      <trkpt lat="43.8325" lon="6.32411">
        <ele>1248.2</ele>
        <time>2021-07-10T14:58:59Z</time>
      </trkpt>
      <trkpt lat="43.83243" lon="6.32419">
        <ele>1247.8</ele>
        <time>2021-07-10T14:59:00Z</time>
      </trkpt>
      <trkpt lat="43.83237" lon="6.32428">
        <ele>1246.8</ele>
        <time>2021-07-10T14:59:01Z</time>
      </trkpt>
      <trkpt lat="43.83231" lon="6.32436">
        <ele>1246.2</ele>
        <time>2021-07-10T14:59:02Z</time>
      </trkpt>
      <trkpt lat="43.83222" lon="6.32444">
        <ele>1245.4</ele>
        <time>2021-07-10T14:59:03Z</time>
      </trkpt>
      <trkpt lat="43.83214" lon="6.32449">
        <ele>1245.2</ele>
        <time>2021-07-10T14:59:04Z</time>
      </trkpt>
      <trkpt lat="43.83206" lon="6.32454">
        <ele>1244.7</ele>
        <time>2021-07-10T14:59:05Z</time>
      </trkpt>
      <trkpt lat="43.83198" lon="6.3246">
        <ele>1244</ele>
        <time>2021-07-10T14:59:06Z</time>
      </trkpt>
      <trkpt lat="43.83192" lon="6.32468">
        <ele>1243.4</ele>
        <time>2021-07-10T14:59:07Z</time>
      </trkpt>
      <trkpt lat="43.83187" lon="6.32476">
        <ele>1243</ele>
        <time>2021-07-10T14:59:08Z</time>
      </trkpt>
      <trkpt lat="43.83181" lon="6.32485">
        <ele>1242.5</ele>
        <time>2021-07-10T14:59:09Z</time>
      </trkpt>
      <trkpt lat="43.83175" lon="6.32494">
        <ele>1241.8</ele>
        <time>2021-07-10T14:59:10Z</time>
      </trkpt>
      <trkpt lat="43.83167" lon="6.32501">
        <ele>1241.6</ele>
        <time>2021-07-10T14:59:11Z</time>
      </trkpt>
      <trkpt lat="43.83159" lon="6.32508">
        <ele>1241.1</ele>
        <time>2021-07-10T14:59:12Z</time>
      </trkpt>
      <trkpt lat="43.83152" lon="6.32514">
        <ele>1241.8</ele>
        <time>2021-07-10T14:59:13Z</time>
      </trkpt>
      <trkpt lat="43.83144" lon="6.32518">
        <ele>1241.6</ele>
        <time>2021-07-10T14:59:14Z</time>
      </trkpt>
      <trkpt lat="43.83135" lon="6.32522">
        <ele>1241.6</ele>
        <time>2021-07-10T14:59:15Z</time>
      </trkpt>
      <trkpt lat="43.83126" lon="6.32527">
        <ele>1241.1</ele>
        <time>2021-07-10T14:59:16Z</time>
      </trkpt>
      <trkpt lat="43.83118" lon="6.32533">
        <ele>1241.6</ele>
        <time>2021-07-10T14:59:17Z</time>
      </trkpt>
      <trkpt lat="43.8311" lon="6.32538">
        <ele>1241</ele>
        <time>2021-07-10T14:59:18Z</time>
      </trkpt>
      <trkpt lat="43.83102" lon="6.32544">
        <ele>1241.7</ele>
        <time>2021-07-10T14:59:19Z</time>
      </trkpt>
      <trkpt lat="43.83093" lon="6.32549">
        <ele>1242</ele>
        <time>2021-07-10T14:59:20Z</time>
      </trkpt>
      <trkpt lat="43.83083" lon="6.32555">
        <ele>1242.1</ele>
        <time>2021-07-10T14:59:21Z</time>
      </trkpt>
      <trkpt lat="43.83074" lon="6.3256">
        <ele>1241.6</ele>
        <time>2021-07-10T14:59:22Z</time>
      </trkpt>
      <trkpt lat="43.83065" lon="6.32565">
        <ele>1241.2</ele>
        <time>2021-07-10T14:59:23Z</time>
      </trkpt>
      <trkpt lat="43.83056" lon="6.32571">
        <ele>1240.6</ele>
        <time>2021-07-10T14:59:24Z</time>
      </trkpt>
      <trkpt lat="43.83047" lon="6.32577">
        <ele>1239.1</ele>
        <time>2021-07-10T14:59:25Z</time>
      </trkpt>
      <trkpt lat="43.83039" lon="6.32584">
        <ele>1239</ele>
        <time>2021-07-10T14:59:26Z</time>
      </trkpt>
      <trkpt lat="43.83032" lon="6.32591">
        <ele>1238.1</ele>
        <time>2021-07-10T14:59:27Z</time>
      </trkpt>
      <trkpt lat="43.83026" lon="6.32599">
        <ele>1237.3</ele>
        <time>2021-07-10T14:59:28Z</time>
      </trkpt>
      <trkpt lat="43.83022" lon="6.32608">
        <ele>1236.8</ele>
        <time>2021-07-10T14:59:29Z</time>
      </trkpt>
      <trkpt lat="43.83013" lon="6.32621">
        <ele>1236.1</ele>
        <time>2021-07-10T14:59:31Z</time>
      </trkpt>
      <trkpt lat="43.83002" lon="6.32626">
        <ele>1236.1</ele>
        <time>2021-07-10T14:59:33Z</time>
      </trkpt>
      <trkpt lat="43.82992" lon="6.32622">
        <ele>1237.2</ele>
        <time>2021-07-10T14:59:35Z</time>
      </trkpt>
      <trkpt lat="43.82984" lon="6.32609">
        <ele>1237.2</ele>
        <time>2021-07-10T14:59:37Z</time>
      </trkpt>
      <trkpt lat="43.82977" lon="6.32595">
        <ele>1236.5</ele>
        <time>2021-07-10T14:59:39Z</time>
      </trkpt>
      <trkpt lat="43.82969" lon="6.32584">
        <ele>1235.9</ele>
        <time>2021-07-10T14:59:41Z</time>
      </trkpt>
      <trkpt lat="43.82959" lon="6.32578">
        <ele>1235.7</ele>
        <time>2021-07-10T14:59:43Z</time>
      </trkpt>
      <trkpt lat="43.82948" lon="6.32577">
        <ele>1235.2</ele>
        <time>2021-07-10T14:59:45Z</time>
      </trkpt>
      <trkpt lat="43.82937" lon="6.32581">
        <ele>1234.1</ele>
        <time>2021-07-10T14:59:47Z</time>
      </trkpt>
      <trkpt lat="43.82926" lon="6.32586">
        <ele>1233</ele>
        <time>2021-07-10T14:59:49Z</time>
      </trkpt>
      <trkpt lat="43.82915" lon="6.32591">
        <ele>1232.3</ele>
        <time>2021-07-10T14:59:51Z</time>
      </trkpt>
      <trkpt lat="43.82905" lon="6.32597">
        <ele>1231.9</ele>
        <time>2021-07-10T14:59:53Z</time>
      </trkpt>
      <trkpt lat="43.82896" lon="6.32605">
        <ele>1231.5</ele>
        <time>2021-07-10T14:59:55Z</time>
      </trkpt>
      <trkpt lat="43.82887" lon="6.32612">
        <ele>1230.4</ele>
        <time>2021-07-10T14:59:57Z</time>
      </trkpt>
      <trkpt lat="43.82879" lon="6.32621">
        <ele>1230.2</ele>
        <time>2021-07-10T14:59:59Z</time>
      </trkpt>
      <trkpt lat="43.82873" lon="6.32627">
        <ele>1230.5</ele>
        <time>2021-07-10T15:00:01Z</time>
      </trkpt>
      <trkpt lat="43.82865" lon="6.32632">
        <ele>1228.1</ele>
        <time>2021-07-10T15:00:03Z</time>
      </trkpt>
      <trkpt lat="43.82857" lon="6.32643">
        <ele>1228.3</ele>
        <time>2021-07-10T15:00:06Z</time>
      </trkpt>
      <trkpt lat="43.82852" lon="6.3265">
        <ele>1227.9</ele>
        <time>2021-07-10T15:00:08Z</time>
      </trkpt>
      <trkpt lat="43.82848" lon="6.32658">
        <ele>1229.2</ele>
        <time>2021-07-10T15:00:10Z</time>
      </trkpt>
      <trkpt lat="43.82842" lon="6.32665">
        <ele>1228.9</ele>
        <time>2021-07-10T15:00:12Z</time>
      </trkpt>
      <trkpt lat="43.82835" lon="6.32673">
        <ele>1228</ele>
        <time>2021-07-10T15:00:14Z</time>
      </trkpt>
      <trkpt lat="43.82827" lon="6.32684">
        <ele>1228</ele>
        <time>2021-07-10T15:00:16Z</time>
      </trkpt>
      <trkpt lat="43.82822" lon="6.32694">
        <ele>1227.7</ele>
        <time>2021-07-10T15:00:18Z</time>
      </trkpt>
      <trkpt lat="43.82815" lon="6.32705">
        <ele>1227.3</ele>
        <time>2021-07-10T15:00:20Z</time>
      </trkpt>
      <trkpt lat="43.82808" lon="6.32717">
        <ele>1227.2</ele>
        <time>2021-07-10T15:00:22Z</time>
      </trkpt>
      <trkpt lat="43.82802" lon="6.3273">
        <ele>1226.1</ele>
        <time>2021-07-10T15:00:24Z</time>
      </trkpt>
      <trkpt lat="43.82794" lon="6.32742">
        <ele>1225.5</ele>
        <time>2021-07-10T15:00:26Z</time>
      </trkpt>
      <trkpt lat="43.82788" lon="6.32756">
        <ele>1225.3</ele>
        <time>2021-07-10T15:00:28Z</time>
      </trkpt>
      <trkpt lat="43.82781" lon="6.32771">
        <ele>1223.3</ele>
        <time>2021-07-10T15:00:30Z</time>
      </trkpt>
      <trkpt lat="43.82777" lon="6.32788">
        <ele>1222.7</ele>
        <time>2021-07-10T15:00:32Z</time>
      </trkpt>
      <trkpt lat="43.82772" lon="6.32806">
        <ele>1222.7</ele>
        <time>2021-07-10T15:00:34Z</time>
      </trkpt>
      <trkpt lat="43.82765" lon="6.32823">
        <ele>1222.3</ele>
        <time>2021-07-10T15:00:36Z</time>
      </trkpt>
      <trkpt lat="43.82761" lon="6.32839">
        <ele>1222.5</ele>
        <time>2021-07-10T15:00:38Z</time>
      </trkpt>
      <trkpt lat="43.82758" lon="6.32855">
        <ele>1221.9</ele>
        <time>2021-07-10T15:00:40Z</time>
      </trkpt>
      <trkpt lat="43.82755" lon="6.3287">
        <ele>1222.8</ele>
        <time>2021-07-10T15:00:42Z</time>
      </trkpt>
      <trkpt lat="43.82751" lon="6.32888">
        <ele>1223.5</ele>
        <time>2021-07-10T15:00:44Z</time>
      </trkpt>
      <trkpt lat="43.82746" lon="6.32905">
        <ele>1223.1</ele>
        <time>2021-07-10T15:00:46Z</time>
      </trkpt>
      <trkpt lat="43.8274" lon="6.32921">
        <ele>1223.2</ele>
        <time>2021-07-10T15:00:48Z</time>
      </trkpt>
      <trkpt lat="43.82733" lon="6.32936">
        <ele>1222.9</ele>
        <time>2021-07-10T15:00:50Z</time>
      </trkpt>
      <trkpt lat="43.82723" lon="6.3295">
        <ele>1222.4</ele>
        <time>2021-07-10T15:00:52Z</time>
      </trkpt>
      <trkpt lat="43.82714" lon="6.32964">
        <ele>1221.8</ele>
        <time>2021-07-10T15:00:54Z</time>
      </trkpt>
      <trkpt lat="43.82706" lon="6.3298">
        <ele>1220.9</ele>
        <time>2021-07-10T15:00:56Z</time>
      </trkpt>
      <trkpt lat="43.82702" lon="6.32989">
        <ele>1220.2</ele>
        <time>2021-07-10T15:00:57Z</time>
      </trkpt>
      <trkpt lat="43.82698" lon="6.32997">
        <ele>1219.9</ele>
        <time>2021-07-10T15:00:58Z</time>
      </trkpt>
      <trkpt lat="43.82694" lon="6.33006">
        <ele>1219.8</ele>
        <time>2021-07-10T15:00:59Z</time>
      </trkpt>
      <trkpt lat="43.82689" lon="6.33015">
        <ele>1219.2</ele>
        <time>2021-07-10T15:01:00Z</time>
      </trkpt>
      <trkpt lat="43.82685" lon="6.33023">
        <ele>1218.6</ele>
        <time>2021-07-10T15:01:01Z</time>
      </trkpt>
      <trkpt lat="43.82681" lon="6.33032">
        <ele>1218</ele>
        <time>2021-07-10T15:01:02Z</time>
      </trkpt>
      <trkpt lat="43.82674" lon="6.33048">
        <ele>1217.5</ele>
        <time>2021-07-10T15:01:04Z</time>
      </trkpt>
      <trkpt lat="43.82668" lon="6.33055">
        <ele>1216.8</ele>
        <time>2021-07-10T15:01:05Z</time>
      </trkpt>
      <trkpt lat="43.82663" lon="6.33061">
        <ele>1215.7</ele>
        <time>2021-07-10T15:01:06Z</time>
      </trkpt>
      <trkpt lat="43.82656" lon="6.33067">
        <ele>1214.7</ele>
        <time>2021-07-10T15:01:07Z</time>
      </trkpt>
      <trkpt lat="43.82649" lon="6.33071">
        <ele>1213.7</ele>
        <time>2021-07-10T15:01:08Z</time>
      </trkpt>
      <trkpt lat="43.82641" lon="6.33074">
        <ele>1213.3</ele>
        <time>2021-07-10T15:01:09Z</time>
      </trkpt>
      <trkpt lat="43.82633" lon="6.33076">
        <ele>1213</ele>
        <time>2021-07-10T15:01:10Z</time>
      </trkpt>
      <trkpt lat="43.82624" lon="6.33077">
        <ele>1212.6</ele>
        <time>2021-07-10T15:01:11Z</time>
      </trkpt>
      <trkpt lat="43.82616" lon="6.33077">
        <ele>1212.6</ele>
        <time>2021-07-10T15:01:12Z</time>
      </trkpt>
      <trkpt lat="43.82607" lon="6.33079">
        <ele>1212.4</ele>
        <time>2021-07-10T15:01:13Z</time>
      </trkpt>
      <trkpt lat="43.82599" lon="6.3308">
        <ele>1212.5</ele>
        <time>2021-07-10T15:01:14Z</time>
      </trkpt>
      <trkpt lat="43.82591" lon="6.33083">
        <ele>1212.3</ele>
        <time>2021-07-10T15:01:15Z</time>
      </trkpt>
      <trkpt lat="43.82578" lon="6.3309">
        <ele>1211.9</ele>
        <time>2021-07-10T15:01:17Z</time>
      </trkpt>
      <trkpt lat="43.8257" lon="6.33091">
        <ele>1212.1</ele>
        <time>2021-07-10T15:01:18Z</time>
      </trkpt>
      <trkpt lat="43.82562" lon="6.33092">
        <ele>1212.3</ele>
        <time>2021-07-10T15:01:19Z</time>
      </trkpt>
      <trkpt lat="43.82554" lon="6.33092">
        <ele>1212.3</ele>
        <time>2021-07-10T15:01:20Z</time>
      </trkpt>
      <trkpt lat="43.82543" lon="6.33096">
        <ele>1212.6</ele>
        <time>2021-07-10T15:01:22Z</time>
      </trkpt>
      <trkpt lat="43.82534" lon="6.3311">
        <ele>1211.2</ele>
        <time>2021-07-10T15:01:24Z</time>
      </trkpt>
      <trkpt lat="43.82533" lon="6.3313">
        <ele>1210.4</ele>
        <time>2021-07-10T15:01:26Z</time>
      </trkpt>
      <trkpt lat="43.82533" lon="6.3314">
        <ele>1208.8</ele>
        <time>2021-07-10T15:01:27Z</time>
      </trkpt>
      <trkpt lat="43.82532" lon="6.33151">
        <ele>1207.7</ele>
        <time>2021-07-10T15:01:28Z</time>
      </trkpt>
      <trkpt lat="43.8253" lon="6.33161">
        <ele>1207.5</ele>
        <time>2021-07-10T15:01:29Z</time>
      </trkpt>
      <trkpt lat="43.82528" lon="6.33171">
        <ele>1207.3</ele>
        <time>2021-07-10T15:01:30Z</time>
      </trkpt>
      <trkpt lat="43.82526" lon="6.33181">
        <ele>1207.2</ele>
        <time>2021-07-10T15:01:31Z</time>
      </trkpt>
      <trkpt lat="43.82523" lon="6.33191">
        <ele>1206.5</ele>
        <time>2021-07-10T15:01:32Z</time>
      </trkpt>
      <trkpt lat="43.8252" lon="6.33201">
        <ele>1206.2</ele>
        <time>2021-07-10T15:01:33Z</time>
      </trkpt>
      <trkpt lat="43.82516" lon="6.33209">
        <ele>1206</ele>
        <time>2021-07-10T15:01:34Z</time>
      </trkpt>
      <trkpt lat="43.82509" lon="6.33217">
        <ele>1206</ele>
        <time>2021-07-10T15:01:35Z</time>
      </trkpt>
      <trkpt lat="43.82501" lon="6.33222">
        <ele>1204.9</ele>
        <time>2021-07-10T15:01:36Z</time>
      </trkpt>
      <trkpt lat="43.82494" lon="6.33226">
        <ele>1204.7</ele>
        <time>2021-07-10T15:01:37Z</time>
      </trkpt>
      <trkpt lat="43.82486" lon="6.3323">
        <ele>1204.3</ele>
        <time>2021-07-10T15:01:38Z</time>
      </trkpt>
      <trkpt lat="43.82478" lon="6.33234">
        <ele>1204.1</ele>
        <time>2021-07-10T15:01:39Z</time>
      </trkpt>
      <trkpt lat="43.8247" lon="6.33237">
        <ele>1204.3</ele>
        <time>2021-07-10T15:01:40Z</time>
      </trkpt>
      <trkpt lat="43.82462" lon="6.3324">
        <ele>1204.2</ele>
        <time>2021-07-10T15:01:41Z</time>
      </trkpt>
      <trkpt lat="43.82453" lon="6.33242">
        <ele>1204.1</ele>
        <time>2021-07-10T15:01:42Z</time>
      </trkpt>
      <trkpt lat="43.82446" lon="6.33245">
        <ele>1204</ele>
        <time>2021-07-10T15:01:43Z</time>
      </trkpt>
      <trkpt lat="43.82439" lon="6.33247">
        <ele>1203.5</ele>
        <time>2021-07-10T15:01:44Z</time>
      </trkpt>
      <trkpt lat="43.82425" lon="6.3325">
        <ele>1203.3</ele>
        <time>2021-07-10T15:01:46Z</time>
      </trkpt>
      <trkpt lat="43.82413" lon="6.33252">
        <ele>1202.6</ele>
        <time>2021-07-10T15:01:48Z</time>
      </trkpt>
      <trkpt lat="43.82404" lon="6.33252">
        <ele>1196.8</ele>
        <time>2021-07-10T15:01:49Z</time>
      </trkpt>
      <trkpt lat="43.82398" lon="6.33253">
        <ele>1195.9</ele>
        <time>2021-07-10T15:01:56Z</time>
      </trkpt>
      <trkpt lat="43.82398" lon="6.33254">
        <ele>1195.7</ele>
        <time>2021-07-10T15:02:01Z</time>
      </trkpt>
      <trkpt lat="43.82397" lon="6.33254">
        <ele>1194.1</ele>
        <time>2021-07-10T15:02:09Z</time>
      </trkpt>
      <trkpt lat="43.82397" lon="6.33254">
        <ele>1194.1</ele>
        <time>2021-07-10T15:02:11Z</time>
      </trkpt>
      <trkpt lat="43.82392" lon="6.33262">
        <ele>1193.6</ele>
        <time>2021-07-10T15:02:31Z</time>
      </trkpt>
      <trkpt lat="43.82388" lon="6.33274">
        <ele>1193.9</ele>
        <time>2021-07-10T15:02:34Z</time>
      </trkpt>
      <trkpt lat="43.82386" lon="6.33284">
        <ele>1193.9</ele>
        <time>2021-07-10T15:02:36Z</time>
      </trkpt>
      <trkpt lat="43.82385" lon="6.33295">
        <ele>1193.2</ele>
        <time>2021-07-10T15:02:38Z</time>
      </trkpt>
      <trkpt lat="43.82383" lon="6.33306">
        <ele>1192.4</ele>
        <time>2021-07-10T15:02:40Z</time>
      </trkpt>
      <trkpt lat="43.82381" lon="6.33316">
        <ele>1191</ele>
        <time>2021-07-10T15:02:42Z</time>
      </trkpt>
      <trkpt lat="43.8238" lon="6.33329">
        <ele>1190.8</ele>
        <time>2021-07-10T15:02:44Z</time>
      </trkpt>
      <trkpt lat="43.8238" lon="6.33344">
        <ele>1192.2</ele>
        <time>2021-07-10T15:02:46Z</time>
      </trkpt>
      <trkpt lat="43.82378" lon="6.33357">
        <ele>1192.4</ele>
        <time>2021-07-10T15:02:48Z</time>
      </trkpt>
      <trkpt lat="43.82377" lon="6.33371">
        <ele>1192.8</ele>
        <time>2021-07-10T15:02:50Z</time>
      </trkpt>
      <trkpt lat="43.82373" lon="6.33386">
        <ele>1192.2</ele>
        <time>2021-07-10T15:02:52Z</time>
      </trkpt>
      <trkpt lat="43.82364" lon="6.334">
        <ele>1191.4</ele>
        <time>2021-07-10T15:02:54Z</time>
      </trkpt>
      <trkpt lat="43.82354" lon="6.33407">
        <ele>1191</ele>
        <time>2021-07-10T15:02:56Z</time>
      </trkpt>
      <trkpt lat="43.82344" lon="6.33413">
        <ele>1191.5</ele>
        <time>2021-07-10T15:02:58Z</time>
      </trkpt>
      <trkpt lat="43.82335" lon="6.33423">
        <ele>1190.7</ele>
        <time>2021-07-10T15:03:00Z</time>
      </trkpt>
      <trkpt lat="43.82327" lon="6.33435">
        <ele>1190.3</ele>
        <time>2021-07-10T15:03:02Z</time>
      </trkpt>
      <trkpt lat="43.8232" lon="6.33449">
        <ele>1189</ele>
        <time>2021-07-10T15:03:04Z</time>
      </trkpt>
      <trkpt lat="43.82312" lon="6.33464">
        <ele>1187.3</ele>
        <time>2021-07-10T15:03:06Z</time>
      </trkpt>
      <trkpt lat="43.82302" lon="6.3348">
        <ele>1186.3</ele>
        <time>2021-07-10T15:03:08Z</time>
      </trkpt>
      <trkpt lat="43.82297" lon="6.33489">
        <ele>1184.9</ele>
        <time>2021-07-10T15:03:09Z</time>
      </trkpt>
      <trkpt lat="43.82291" lon="6.33497">
        <ele>1184.4</ele>
        <time>2021-07-10T15:03:10Z</time>
      </trkpt>
      <trkpt lat="43.82286" lon="6.33506">
        <ele>1184.3</ele>
        <time>2021-07-10T15:03:11Z</time>
      </trkpt>
      <trkpt lat="43.82281" lon="6.33513">
        <ele>1184</ele>
        <time>2021-07-10T15:03:12Z</time>
      </trkpt>
      <trkpt lat="43.82273" lon="6.33527">
        <ele>1183.4</ele>
        <time>2021-07-10T15:03:14Z</time>
      </trkpt>
      <trkpt lat="43.82266" lon="6.33538">
        <ele>1182.8</ele>
        <time>2021-07-10T15:03:16Z</time>
      </trkpt>
      <trkpt lat="43.8226" lon="6.33548">
        <ele>1182.5</ele>
        <time>2021-07-10T15:03:18Z</time>
      </trkpt>
      <trkpt lat="43.82253" lon="6.3356">
        <ele>1181.9</ele>
        <time>2021-07-10T15:03:20Z</time>
      </trkpt>
      <trkpt lat="43.82247" lon="6.33574">
        <ele>1181.7</ele>
        <time>2021-07-10T15:03:22Z</time>
      </trkpt>
      <trkpt lat="43.82243" lon="6.33592">
        <ele>1180.7</ele>
        <time>2021-07-10T15:03:24Z</time>
      </trkpt>
      <trkpt lat="43.8224" lon="6.33601">
        <ele>1179.3</ele>
        <time>2021-07-10T15:03:25Z</time>
      </trkpt>
      <trkpt lat="43.82239" lon="6.33618">
        <ele>1178.3</ele>
        <time>2021-07-10T15:03:27Z</time>
      </trkpt>
      <trkpt lat="43.82241" lon="6.33636">
        <ele>1177.6</ele>
        <time>2021-07-10T15:03:29Z</time>
      </trkpt>
      <trkpt lat="43.82242" lon="6.33646">
        <ele>1177.6</ele>
        <time>2021-07-10T15:03:30Z</time>
      </trkpt>
      <trkpt lat="43.82243" lon="6.33656">
        <ele>1176.8</ele>
        <time>2021-07-10T15:03:31Z</time>
      </trkpt>
      <trkpt lat="43.82243" lon="6.33667">
        <ele>1176.7</ele>
        <time>2021-07-10T15:03:32Z</time>
      </trkpt>
      <trkpt lat="43.82243" lon="6.33686">
        <ele>1175.8</ele>
        <time>2021-07-10T15:03:34Z</time>
      </trkpt>
      <trkpt lat="43.82244" lon="6.33705">
        <ele>1174.7</ele>
        <time>2021-07-10T15:03:36Z</time>
      </trkpt>
      <trkpt lat="43.82244" lon="6.33716">
        <ele>1174.5</ele>
        <time>2021-07-10T15:03:37Z</time>
      </trkpt>
      <trkpt lat="43.82243" lon="6.33726">
        <ele>1174.4</ele>
        <time>2021-07-10T15:03:38Z</time>
      </trkpt>
      <trkpt lat="43.8224" lon="6.33736">
        <ele>1174.7</ele>
        <time>2021-07-10T15:03:39Z</time>
      </trkpt>
      <trkpt lat="43.82237" lon="6.33745">
        <ele>1174.4</ele>
        <time>2021-07-10T15:03:40Z</time>
      </trkpt>
      <trkpt lat="43.82233" lon="6.33755">
        <ele>1174.4</ele>
        <time>2021-07-10T15:03:41Z</time>
      </trkpt>
      <trkpt lat="43.82229" lon="6.33764">
        <ele>1173.9</ele>
        <time>2021-07-10T15:03:42Z</time>
      </trkpt>
      <trkpt lat="43.82223" lon="6.3378">
        <ele>1173.8</ele>
        <time>2021-07-10T15:03:44Z</time>
      </trkpt>
      <trkpt lat="43.82218" lon="6.33798">
        <ele>1173.5</ele>
        <time>2021-07-10T15:03:46Z</time>
      </trkpt>
      <trkpt lat="43.82215" lon="6.33816">
        <ele>1172.9</ele>
        <time>2021-07-10T15:03:48Z</time>
      </trkpt>
      <trkpt lat="43.82213" lon="6.33827">
        <ele>1172.4</ele>
        <time>2021-07-10T15:03:49Z</time>
      </trkpt>
      <trkpt lat="43.82211" lon="6.33836">
        <ele>1172.5</ele>
        <time>2021-07-10T15:03:50Z</time>
      </trkpt>
      <trkpt lat="43.82209" lon="6.33847">
        <ele>1172.9</ele>
        <time>2021-07-10T15:03:51Z</time>
      </trkpt>
      <trkpt lat="43.82204" lon="6.33865">
        <ele>1171.2</ele>
        <time>2021-07-10T15:03:53Z</time>
      </trkpt>
      <trkpt lat="43.822" lon="6.33883">
        <ele>1171.4</ele>
        <time>2021-07-10T15:03:55Z</time>
      </trkpt>
      <trkpt lat="43.82193" lon="6.33902">
        <ele>1169.5</ele>
        <time>2021-07-10T15:03:57Z</time>
      </trkpt>
      <trkpt lat="43.82188" lon="6.33911">
        <ele>1169</ele>
        <time>2021-07-10T15:03:58Z</time>
      </trkpt>
      <trkpt lat="43.8218" lon="6.33917">
        <ele>1167.3</ele>
        <time>2021-07-10T15:03:59Z</time>
      </trkpt>
      <trkpt lat="43.82173" lon="6.33921">
        <ele>1166.7</ele>
        <time>2021-07-10T15:04:00Z</time>
      </trkpt>
      <trkpt lat="43.8216" lon="6.33923">
        <ele>1167.1</ele>
        <time>2021-07-10T15:04:02Z</time>
      </trkpt>
      <trkpt lat="43.82149" lon="6.33924">
        <ele>1166.7</ele>
        <time>2021-07-10T15:04:04Z</time>
      </trkpt>
      <trkpt lat="43.82139" lon="6.3393">
        <ele>1165.7</ele>
        <time>2021-07-10T15:04:06Z</time>
      </trkpt>
      <trkpt lat="43.82129" lon="6.3394">
        <ele>1165.8</ele>
        <time>2021-07-10T15:04:08Z</time>
      </trkpt>
      <trkpt lat="43.82123" lon="6.33957">
        <ele>1165.2</ele>
        <time>2021-07-10T15:04:10Z</time>
      </trkpt>
      <trkpt lat="43.82118" lon="6.33971">
        <ele>1162.5</ele>
        <time>2021-07-10T15:04:12Z</time>
      </trkpt>
      <trkpt lat="43.82111" lon="6.33987">
        <ele>1161.8</ele>
        <time>2021-07-10T15:04:14Z</time>
      </trkpt>
      <trkpt lat="43.82101" lon="6.34001">
        <ele>1161.6</ele>
        <time>2021-07-10T15:04:16Z</time>
      </trkpt>
      <trkpt lat="43.82095" lon="6.34008">
        <ele>1160.6</ele>
        <time>2021-07-10T15:04:17Z</time>
      </trkpt>
      <trkpt lat="43.82089" lon="6.34013">
        <ele>1159.8</ele>
        <time>2021-07-10T15:04:18Z</time>
      </trkpt>
      <trkpt lat="43.82082" lon="6.34017">
        <ele>1159.3</ele>
        <time>2021-07-10T15:04:19Z</time>
      </trkpt>
      <trkpt lat="43.82071" lon="6.34029">
        <ele>1159.8</ele>
        <time>2021-07-10T15:04:21Z</time>
      </trkpt>
      <trkpt lat="43.82065" lon="6.34035">
        <ele>1159.5</ele>
        <time>2021-07-10T15:04:22Z</time>
      </trkpt>
      <trkpt lat="43.82058" lon="6.34041">
        <ele>1159.2</ele>
        <time>2021-07-10T15:04:23Z</time>
      </trkpt>
      <trkpt lat="43.8205" lon="6.34046">
        <ele>1158.6</ele>
        <time>2021-07-10T15:04:24Z</time>
      </trkpt>
      <trkpt lat="43.82044" lon="6.3405">
        <ele>1158.3</ele>
        <time>2021-07-10T15:04:25Z</time>
      </trkpt>
      <trkpt lat="43.82037" lon="6.34055">
        <ele>1158</ele>
        <time>2021-07-10T15:04:26Z</time>
      </trkpt>
      <trkpt lat="43.82029" lon="6.34059">
        <ele>1157.9</ele>
        <time>2021-07-10T15:04:27Z</time>
      </trkpt>
      <trkpt lat="43.8202" lon="6.34061">
        <ele>1157.5</ele>
        <time>2021-07-10T15:04:28Z</time>
      </trkpt>
      <trkpt lat="43.82013" lon="6.34062">
        <ele>1157.6</ele>
        <time>2021-07-10T15:04:29Z</time>
      </trkpt>
      <trkpt lat="43.82003" lon="6.34063">
        <ele>1156.5</ele>
        <time>2021-07-10T15:04:30Z</time>
      </trkpt>
      <trkpt lat="43.81996" lon="6.34063">
        <ele>1156.4</ele>
        <time>2021-07-10T15:04:31Z</time>
      </trkpt>
      <trkpt lat="43.81987" lon="6.34063">
        <ele>1156</ele>
        <time>2021-07-10T15:04:32Z</time>
      </trkpt>
      <trkpt lat="43.81978" lon="6.34064">
        <ele>1155.9</ele>
        <time>2021-07-10T15:04:33Z</time>
      </trkpt>
      <trkpt lat="43.81966" lon="6.34063">
        <ele>1154.5</ele>
        <time>2021-07-10T15:04:35Z</time>
      </trkpt>
      <trkpt lat="43.81956" lon="6.34062">
        <ele>1154.2</ele>
        <time>2021-07-10T15:04:38Z</time>
      </trkpt>
      <trkpt lat="43.81948" lon="6.34062">
        <ele>1154.5</ele>
        <time>2021-07-10T15:04:42Z</time>
      </trkpt>
      <trkpt lat="43.8194" lon="6.34061">
        <ele>1154.5</ele>
        <time>2021-07-10T15:04:45Z</time>
      </trkpt>
      <trkpt lat="43.8193" lon="6.34061">
        <ele>1153.6</ele>
        <time>2021-07-10T15:04:48Z</time>
      </trkpt>
      <trkpt lat="43.81921" lon="6.34065">
        <ele>1151.5</ele>
        <time>2021-07-10T15:04:51Z</time>
      </trkpt>
      <trkpt lat="43.81914" lon="6.3407">
        <ele>1150.6</ele>
        <time>2021-07-10T15:04:53Z</time>
      </trkpt>
      <trkpt lat="43.81908" lon="6.3408">
        <ele>1149</ele>
        <time>2021-07-10T15:04:55Z</time>
      </trkpt>
      <trkpt lat="43.81901" lon="6.34091">
        <ele>1148.5</ele>
        <time>2021-07-10T15:04:57Z</time>
      </trkpt>
      <trkpt lat="43.81897" lon="6.34106">
        <ele>1148.3</ele>
        <time>2021-07-10T15:04:59Z</time>
      </trkpt>
      <trkpt lat="43.81892" lon="6.3412">
        <ele>1147.5</ele>
        <time>2021-07-10T15:05:01Z</time>
      </trkpt>
      <trkpt lat="43.81887" lon="6.34136">
        <ele>1146.7</ele>
        <time>2021-07-10T15:05:03Z</time>
      </trkpt>
      <trkpt lat="43.81883" lon="6.34149">
        <ele>1145.8</ele>
        <time>2021-07-10T15:05:05Z</time>
      </trkpt>
      <trkpt lat="43.81879" lon="6.3416">
        <ele>1145.6</ele>
        <time>2021-07-10T15:05:07Z</time>
      </trkpt>
      <trkpt lat="43.81876" lon="6.34172">
        <ele>1145.2</ele>
        <time>2021-07-10T15:05:09Z</time>
      </trkpt>
      <trkpt lat="43.81874" lon="6.34182">
        <ele>1144.6</ele>
        <time>2021-07-10T15:05:11Z</time>
      </trkpt>
      <trkpt lat="43.81875" lon="6.34193">
        <ele>1144.5</ele>
        <time>2021-07-10T15:05:13Z</time>
      </trkpt>
      <trkpt lat="43.81876" lon="6.34206">
        <ele>1145.1</ele>
        <time>2021-07-10T15:05:15Z</time>
      </trkpt>
      <trkpt lat="43.81876" lon="6.34218">
        <ele>1144.5</ele>
        <time>2021-07-10T15:05:17Z</time>
      </trkpt>
      <trkpt lat="43.81875" lon="6.34232">
        <ele>1143.7</ele>
        <time>2021-07-10T15:05:19Z</time>
      </trkpt>
      <trkpt lat="43.81871" lon="6.34246">
        <ele>1143.6</ele>
        <time>2021-07-10T15:05:21Z</time>
      </trkpt>
      <trkpt lat="43.81865" lon="6.3426">
        <ele>1142.9</ele>
        <time>2021-07-10T15:05:23Z</time>
      </trkpt>
      <trkpt lat="43.8186" lon="6.34274">
        <ele>1142</ele>
        <time>2021-07-10T15:05:25Z</time>
      </trkpt>
      <trkpt lat="43.81854" lon="6.34289">
        <ele>1141.1</ele>
        <time>2021-07-10T15:05:27Z</time>
      </trkpt>
      <trkpt lat="43.81847" lon="6.34306">
        <ele>1140.2</ele>
        <time>2021-07-10T15:05:29Z</time>
      </trkpt>
      <trkpt lat="43.8184" lon="6.34322">
        <ele>1140.3</ele>
        <time>2021-07-10T15:05:31Z</time>
      </trkpt>
      <trkpt lat="43.81834" lon="6.34336">
        <ele>1140.2</ele>
        <time>2021-07-10T15:05:33Z</time>
      </trkpt>
      <trkpt lat="43.81828" lon="6.34351">
        <ele>1140.5</ele>
        <time>2021-07-10T15:05:35Z</time>
      </trkpt>
      <trkpt lat="43.81826" lon="6.34366">
        <ele>1139.7</ele>
        <time>2021-07-10T15:05:37Z</time>
      </trkpt>
      <trkpt lat="43.81823" lon="6.34381">
        <ele>1139.3</ele>
        <time>2021-07-10T15:05:39Z</time>
      </trkpt>
      <trkpt lat="43.81821" lon="6.34396">
        <ele>1139</ele>
        <time>2021-07-10T15:05:41Z</time>
      </trkpt>
      <trkpt lat="43.8182" lon="6.34413">
        <ele>1138.1</ele>
        <time>2021-07-10T15:05:43Z</time>
      </trkpt>
      <trkpt lat="43.81819" lon="6.34427">
        <ele>1137.8</ele>
        <time>2021-07-10T15:05:45Z</time>
      </trkpt>
      <trkpt lat="43.81817" lon="6.34443">
        <ele>1135.8</ele>
        <time>2021-07-10T15:05:47Z</time>
      </trkpt>
      <trkpt lat="43.81815" lon="6.34459">
        <ele>1135.2</ele>
        <time>2021-07-10T15:05:49Z</time>
      </trkpt>
      <trkpt lat="43.81816" lon="6.34478">
        <ele>1134.3</ele>
        <time>2021-07-10T15:05:51Z</time>
      </trkpt>
      <trkpt lat="43.81819" lon="6.34493">
        <ele>1133.1</ele>
        <time>2021-07-10T15:05:53Z</time>
      </trkpt>
      <trkpt lat="43.81825" lon="6.34509">
        <ele>1131.8</ele>
        <time>2021-07-10T15:05:55Z</time>
      </trkpt>
      <trkpt lat="43.81828" lon="6.34526">
        <ele>1131.2</ele>
        <time>2021-07-10T15:05:57Z</time>
      </trkpt>
      <trkpt lat="43.81827" lon="6.34545">
        <ele>1130.8</ele>
        <time>2021-07-10T15:05:59Z</time>
      </trkpt>
      <trkpt lat="43.81825" lon="6.34555">
        <ele>1130.3</ele>
        <time>2021-07-10T15:06:00Z</time>
      </trkpt>
      <trkpt lat="43.81821" lon="6.34564">
        <ele>1130.2</ele>
        <time>2021-07-10T15:06:01Z</time>
      </trkpt>
      <trkpt lat="43.81817" lon="6.34573">
        <ele>1129.8</ele>
        <time>2021-07-10T15:06:02Z</time>
      </trkpt>
      <trkpt lat="43.81812" lon="6.34581">
        <ele>1129.2</ele>
        <time>2021-07-10T15:06:03Z</time>
      </trkpt>
      <trkpt lat="43.81807" lon="6.34596">
        <ele>1128.6</ele>
        <time>2021-07-10T15:06:05Z</time>
      </trkpt>
      <trkpt lat="43.81802" lon="6.34611">
        <ele>1128</ele>
        <time>2021-07-10T15:06:07Z</time>
      </trkpt>
      <trkpt lat="43.81799" lon="6.34622">
        <ele>1125.4</ele>
        <time>2021-07-10T15:06:08Z</time>
      </trkpt>
      <trkpt lat="43.81797" lon="6.34632">
        <ele>1124.8</ele>
        <time>2021-07-10T15:06:09Z</time>
      </trkpt>
      <trkpt lat="43.81797" lon="6.34643">
        <ele>1124.7</ele>
        <time>2021-07-10T15:06:10Z</time>
      </trkpt>
      <trkpt lat="43.81795" lon="6.34655">
        <ele>1123.7</ele>
        <time>2021-07-10T15:06:11Z</time>
      </trkpt>
      <trkpt lat="43.81794" lon="6.34666">
        <ele>1123.8</ele>
        <time>2021-07-10T15:06:12Z</time>
      </trkpt>
      <trkpt lat="43.81794" lon="6.34678">
        <ele>1123.9</ele>
        <time>2021-07-10T15:06:13Z</time>
      </trkpt>
      <trkpt lat="43.81794" lon="6.3469">
        <ele>1123.3</ele>
        <time>2021-07-10T15:06:14Z</time>
      </trkpt>
      <trkpt lat="43.81794" lon="6.34701">
        <ele>1122.8</ele>
        <time>2021-07-10T15:06:15Z</time>
      </trkpt>
      <trkpt lat="43.81795" lon="6.34712">
        <ele>1123</ele>
        <time>2021-07-10T15:06:16Z</time>
      </trkpt>
      <trkpt lat="43.81797" lon="6.34731">
        <ele>1122</ele>
        <time>2021-07-10T15:06:18Z</time>
      </trkpt>
      <trkpt lat="43.818" lon="6.34747">
        <ele>1121.8</ele>
        <time>2021-07-10T15:06:20Z</time>
      </trkpt>
      <trkpt lat="43.81803" lon="6.34762">
        <ele>1121.8</ele>
        <time>2021-07-10T15:06:22Z</time>
      </trkpt>
      <trkpt lat="43.81804" lon="6.34774">
        <ele>1122.1</ele>
        <time>2021-07-10T15:06:24Z</time>
      </trkpt>
      <trkpt lat="43.81802" lon="6.34785">
        <ele>1118.7</ele>
        <time>2021-07-10T15:06:27Z</time>
      </trkpt>
      <trkpt lat="43.81794" lon="6.3478">
        <ele>1113.9</ele>
        <time>2021-07-10T15:06:30Z</time>
      </trkpt>
      <trkpt lat="43.81792" lon="6.34769">
        <ele>1111.8</ele>
        <time>2021-07-10T15:06:32Z</time>
      </trkpt>
      <trkpt lat="43.81789" lon="6.34755">
        <ele>1110.9</ele>
        <time>2021-07-10T15:06:34Z</time>
      </trkpt>
      <trkpt lat="43.81785" lon="6.34744">
        <ele>1108.6</ele>
        <time>2021-07-10T15:06:36Z</time>
      </trkpt>
      <trkpt lat="43.81781" lon="6.34731">
        <ele>1106.5</ele>
        <time>2021-07-10T15:06:38Z</time>
      </trkpt>
      <trkpt lat="43.81776" lon="6.34716">
        <ele>1106.3</ele>
        <time>2021-07-10T15:06:40Z</time>
      </trkpt>
      <trkpt lat="43.81772" lon="6.34702">
        <ele>1103.5</ele>
        <time>2021-07-10T15:06:42Z</time>
      </trkpt>
      <trkpt lat="43.81765" lon="6.34684">
        <ele>1102.4</ele>
        <time>2021-07-10T15:06:44Z</time>
      </trkpt>
      <trkpt lat="43.81761" lon="6.34675">
        <ele>1102.1</ele>
        <time>2021-07-10T15:06:45Z</time>
      </trkpt>
      <trkpt lat="43.81757" lon="6.34667">
        <ele>1101.4</ele>
        <time>2021-07-10T15:06:46Z</time>
      </trkpt>
      <trkpt lat="43.81747" lon="6.34656">
        <ele>1100.8</ele>
        <time>2021-07-10T15:06:48Z</time>
      </trkpt>
      <trkpt lat="43.81739" lon="6.34645">
        <ele>1100.4</ele>
        <time>2021-07-10T15:06:50Z</time>
      </trkpt>
      <trkpt lat="43.81733" lon="6.34629">
        <ele>1100.2</ele>
        <time>2021-07-10T15:06:52Z</time>
      </trkpt>
      <trkpt lat="43.81728" lon="6.3461">
        <ele>1099.4</ele>
        <time>2021-07-10T15:06:54Z</time>
      </trkpt>
      <trkpt lat="43.81724" lon="6.346">
        <ele>1098.1</ele>
        <time>2021-07-10T15:06:55Z</time>
      </trkpt>
      <trkpt lat="43.81721" lon="6.34591">
        <ele>1097.1</ele>
        <time>2021-07-10T15:06:56Z</time>
      </trkpt>
      <trkpt lat="43.81713" lon="6.34579">
        <ele>1096.6</ele>
        <time>2021-07-10T15:06:58Z</time>
      </trkpt>
      <trkpt lat="43.81707" lon="6.34566">
        <ele>1095.1</ele>
        <time>2021-07-10T15:07:00Z</time>
      </trkpt>
      <trkpt lat="43.81702" lon="6.3455">
        <ele>1093.7</ele>
        <time>2021-07-10T15:07:02Z</time>
      </trkpt>
      <trkpt lat="43.81698" lon="6.34533">
        <ele>1093.1</ele>
        <time>2021-07-10T15:07:04Z</time>
      </trkpt>
      <trkpt lat="43.81694" lon="6.34517">
        <ele>1091</ele>
        <time>2021-07-10T15:07:06Z</time>
      </trkpt>
      <trkpt lat="43.8169" lon="6.34505">
        <ele>1090.7</ele>
        <time>2021-07-10T15:07:08Z</time>
      </trkpt>
      <trkpt lat="43.81687" lon="6.34494">
        <ele>1090</ele>
        <time>2021-07-10T15:07:10Z</time>
      </trkpt>
      <trkpt lat="43.8168" lon="6.34486">
        <ele>1089.4</ele>
        <time>2021-07-10T15:07:13Z</time>
      </trkpt>
      <trkpt lat="43.81676" lon="6.34496">
        <ele>1086.7</ele>
        <time>2021-07-10T15:07:16Z</time>
      </trkpt>
      <trkpt lat="43.81675" lon="6.3451">
        <ele>1084.9</ele>
        <time>2021-07-10T15:07:18Z</time>
      </trkpt>
      <trkpt lat="43.81674" lon="6.34528">
        <ele>1083.5</ele>
        <time>2021-07-10T15:07:20Z</time>
      </trkpt>
      <trkpt lat="43.81674" lon="6.34546">
        <ele>1082.3</ele>
        <time>2021-07-10T15:07:22Z</time>
      </trkpt>
      <trkpt lat="43.81672" lon="6.34564">
        <ele>1081.1</ele>
        <time>2021-07-10T15:07:24Z</time>
      </trkpt>
      <trkpt lat="43.8167" lon="6.3458">
        <ele>1079</ele>
        <time>2021-07-10T15:07:26Z</time>
      </trkpt>
      <trkpt lat="43.81668" lon="6.34597">
        <ele>1077.8</ele>
        <time>2021-07-10T15:07:28Z</time>
      </trkpt>
      <trkpt lat="43.81669" lon="6.34612">
        <ele>1077.3</ele>
        <time>2021-07-10T15:07:30Z</time>
      </trkpt>
      <trkpt lat="43.81668" lon="6.34623">
        <ele>1076.8</ele>
        <time>2021-07-10T15:07:32Z</time>
      </trkpt>
      <trkpt lat="43.81658" lon="6.34623">
        <ele>1075.2</ele>
        <time>2021-07-10T15:07:35Z</time>
      </trkpt>
      <trkpt lat="43.81653" lon="6.34613">
        <ele>1074.8</ele>
        <time>2021-07-10T15:07:37Z</time>
      </trkpt>
      <trkpt lat="43.81651" lon="6.34603">
        <ele>1075.1</ele>
        <time>2021-07-10T15:07:39Z</time>
      </trkpt>
      <trkpt lat="43.81648" lon="6.34592">
        <ele>1076</ele>
        <time>2021-07-10T15:07:41Z</time>
      </trkpt>
      <trkpt lat="43.81642" lon="6.34585">
        <ele>1075.3</ele>
        <time>2021-07-10T15:07:43Z</time>
      </trkpt>
      <trkpt lat="43.81634" lon="6.34581">
        <ele>1073.8</ele>
        <time>2021-07-10T15:07:45Z</time>
      </trkpt>
      <trkpt lat="43.81624" lon="6.34575">
        <ele>1071.7</ele>
        <time>2021-07-10T15:07:47Z</time>
      </trkpt>
      <trkpt lat="43.81615" lon="6.34565">
        <ele>1070.4</ele>
        <time>2021-07-10T15:07:49Z</time>
      </trkpt>
      <trkpt lat="43.81608" lon="6.34554">
        <ele>1069.6</ele>
        <time>2021-07-10T15:07:51Z</time>
      </trkpt>
      <trkpt lat="43.81601" lon="6.34542">
        <ele>1067.9</ele>
        <time>2021-07-10T15:07:53Z</time>
      </trkpt>
      <trkpt lat="43.81598" lon="6.34527">
        <ele>1066</ele>
        <time>2021-07-10T15:07:55Z</time>
      </trkpt>
      <trkpt lat="43.81599" lon="6.34512">
        <ele>1064.5</ele>
        <time>2021-07-10T15:07:57Z</time>
      </trkpt>
      <trkpt lat="43.81602" lon="6.34496">
        <ele>1062.7</ele>
        <time>2021-07-10T15:07:59Z</time>
      </trkpt>
      <trkpt lat="43.81606" lon="6.34479">
        <ele>1060.8</ele>
        <time>2021-07-10T15:08:01Z</time>
      </trkpt>
      <trkpt lat="43.81611" lon="6.34466">
        <ele>1058.9</ele>
        <time>2021-07-10T15:08:03Z</time>
      </trkpt>
      <trkpt lat="43.81613" lon="6.34456">
        <ele>1057.6</ele>
        <time>2021-07-10T15:08:05Z</time>
      </trkpt>
      <trkpt lat="43.81607" lon="6.34451">
        <ele>1056.3</ele>
        <time>2021-07-10T15:08:08Z</time>
      </trkpt>
      <trkpt lat="43.816" lon="6.34462">
        <ele>1052.8</ele>
        <time>2021-07-10T15:08:11Z</time>
      </trkpt>
      <trkpt lat="43.81595" lon="6.34473">
        <ele>1051.4</ele>
        <time>2021-07-10T15:08:13Z</time>
      </trkpt>
      <trkpt lat="43.81587" lon="6.34483">
        <ele>1048.6</ele>
        <time>2021-07-10T15:08:15Z</time>
      </trkpt>
      <trkpt lat="43.81577" lon="6.34492">
        <ele>1047.6</ele>
        <time>2021-07-10T15:08:17Z</time>
      </trkpt>
      <trkpt lat="43.81569" lon="6.34498">
        <ele>1045.8</ele>
        <time>2021-07-10T15:08:19Z</time>
      </trkpt>
      <trkpt lat="43.81562" lon="6.34505">
        <ele>1043.7</ele>
        <time>2021-07-10T15:08:21Z</time>
      </trkpt>
      <trkpt lat="43.81557" lon="6.34513">
        <ele>1043.5</ele>
        <time>2021-07-10T15:08:23Z</time>
      </trkpt>
      <trkpt lat="43.81551" lon="6.34521">
        <ele>1040.3</ele>
        <time>2021-07-10T15:08:25Z</time>
      </trkpt>
      <trkpt lat="43.81544" lon="6.3453">
        <ele>1038.7</ele>
        <time>2021-07-10T15:08:27Z</time>
      </trkpt>
      <trkpt lat="43.81536" lon="6.3454">
        <ele>1036.9</ele>
        <time>2021-07-10T15:08:29Z</time>
      </trkpt>
      <trkpt lat="43.81528" lon="6.34551">
        <ele>1035.3</ele>
        <time>2021-07-10T15:08:31Z</time>
      </trkpt>
      <trkpt lat="43.81522" lon="6.34561">
        <ele>1034.3</ele>
        <time>2021-07-10T15:08:33Z</time>
      </trkpt>
      <trkpt lat="43.81514" lon="6.3457">
        <ele>1033.7</ele>
        <time>2021-07-10T15:08:35Z</time>
      </trkpt>
      <trkpt lat="43.81508" lon="6.3458">
        <ele>1032.9</ele>
        <time>2021-07-10T15:08:37Z</time>
      </trkpt>
      <trkpt lat="43.81501" lon="6.34589">
        <ele>1029.8</ele>
        <time>2021-07-10T15:08:39Z</time>
      </trkpt>
      <trkpt lat="43.81493" lon="6.34597">
        <ele>1027.2</ele>
        <time>2021-07-10T15:08:41Z</time>
      </trkpt>
      <trkpt lat="43.81484" lon="6.34599">
        <ele>1026.9</ele>
        <time>2021-07-10T15:08:43Z</time>
      </trkpt>
      <trkpt lat="43.81474" lon="6.34595">
        <ele>1026.7</ele>
        <time>2021-07-10T15:08:46Z</time>
      </trkpt>
      <trkpt lat="43.81465" lon="6.34586">
        <ele>1022.3</ele>
        <time>2021-07-10T15:08:48Z</time>
      </trkpt>
      <trkpt lat="43.8146" lon="6.34578">
        <ele>1018</ele>
        <time>2021-07-10T15:08:50Z</time>
      </trkpt>
      <trkpt lat="43.81454" lon="6.34568">
        <ele>1016</ele>
        <time>2021-07-10T15:08:52Z</time>
      </trkpt>
      <trkpt lat="43.81451" lon="6.34557">
        <ele>1016.8</ele>
        <time>2021-07-10T15:08:54Z</time>
      </trkpt>
      <trkpt lat="43.8145" lon="6.34546">
        <ele>1014.6</ele>
        <time>2021-07-10T15:08:56Z</time>
      </trkpt>
      <trkpt lat="43.8145" lon="6.34535">
        <ele>1013.9</ele>
        <time>2021-07-10T15:08:58Z</time>
      </trkpt>
      <trkpt lat="43.81452" lon="6.34524">
        <ele>1011.4</ele>
        <time>2021-07-10T15:09:00Z</time>
      </trkpt>
      <trkpt lat="43.81455" lon="6.34511">
        <ele>1009.2</ele>
        <time>2021-07-10T15:09:02Z</time>
      </trkpt>
      <trkpt lat="43.81458" lon="6.34497">
        <ele>1008.3</ele>
        <time>2021-07-10T15:09:04Z</time>
      </trkpt>
      <trkpt lat="43.81461" lon="6.34484">
        <ele>1008.1</ele>
        <time>2021-07-10T15:09:06Z</time>
      </trkpt>
      <trkpt lat="43.81464" lon="6.34471">
        <ele>1007.3</ele>
        <time>2021-07-10T15:09:08Z</time>
      </trkpt>
      <trkpt lat="43.81468" lon="6.3446">
        <ele>1005.9</ele>
        <time>2021-07-10T15:09:10Z</time>
      </trkpt>
      <trkpt lat="43.81474" lon="6.34451">
        <ele>1004.2</ele>
        <time>2021-07-10T15:09:12Z</time>
      </trkpt>
      <trkpt lat="43.8148" lon="6.34445">
        <ele>1002.4</ele>
        <time>2021-07-10T15:09:14Z</time>
      </trkpt>
      <trkpt lat="43.81483" lon="6.34436">
        <ele>999.9</ele>
        <time>2021-07-10T15:09:17Z</time>
      </trkpt>
      <trkpt lat="43.81476" lon="6.34433">
        <ele>998.2</ele>
        <time>2021-07-10T15:09:20Z</time>
      </trkpt>
      <trkpt lat="43.81466" lon="6.34436">
        <ele>996.1</ele>
        <time>2021-07-10T15:09:23Z</time>
      </trkpt>
      <trkpt lat="43.81456" lon="6.3444">
        <ele>994.1</ele>
        <time>2021-07-10T15:09:26Z</time>
      </trkpt>
      <trkpt lat="43.8145" lon="6.34446">
        <ele>992.7</ele>
        <time>2021-07-10T15:09:28Z</time>
      </trkpt>
      <trkpt lat="43.81441" lon="6.34448">
        <ele>993.3</ele>
        <time>2021-07-10T15:09:31Z</time>
      </trkpt>
      <trkpt lat="43.81442" lon="6.34437">
        <ele>991.4</ele>
        <time>2021-07-10T15:09:34Z</time>
      </trkpt>
      <trkpt lat="43.81451" lon="6.34427">
        <ele>989.4</ele>
        <time>2021-07-10T15:09:37Z</time>
      </trkpt>
      <trkpt lat="43.81459" lon="6.34421">
        <ele>987.6</ele>
        <time>2021-07-10T15:09:39Z</time>
      </trkpt>
      <trkpt lat="43.81467" lon="6.34411">
        <ele>985.8</ele>
        <time>2021-07-10T15:09:41Z</time>
      </trkpt>
      <trkpt lat="43.81474" lon="6.34402">
        <ele>983.8</ele>
        <time>2021-07-10T15:09:43Z</time>
      </trkpt>
      <trkpt lat="43.81482" lon="6.34392">
        <ele>981.3</ele>
        <time>2021-07-10T15:09:45Z</time>
      </trkpt>
      <trkpt lat="43.81489" lon="6.34382">
        <ele>980.3</ele>
        <time>2021-07-10T15:09:47Z</time>
      </trkpt>
      <trkpt lat="43.81495" lon="6.34371">
        <ele>978.6</ele>
        <time>2021-07-10T15:09:49Z</time>
      </trkpt>
      <trkpt lat="43.81501" lon="6.34359">
        <ele>977.8</ele>
        <time>2021-07-10T15:09:51Z</time>
      </trkpt>
      <trkpt lat="43.81506" lon="6.34346">
        <ele>976.6</ele>
        <time>2021-07-10T15:09:53Z</time>
      </trkpt>
      <trkpt lat="43.8151" lon="6.34336">
        <ele>976.5</ele>
        <time>2021-07-10T15:09:56Z</time>
      </trkpt>
      <trkpt lat="43.81512" lon="6.34326">
        <ele>974.5</ele>
        <time>2021-07-10T15:09:57Z</time>
      </trkpt>
      <trkpt lat="43.81507" lon="6.34314">
        <ele>973.6</ele>
        <time>2021-07-10T15:10:00Z</time>
      </trkpt>
      <trkpt lat="43.81502" lon="6.34313">
        <ele>972.7</ele>
        <time>2021-07-10T15:10:07Z</time>
      </trkpt>
      <trkpt lat="43.81502" lon="6.34313">
        <ele>972.8</ele>
        <time>2021-07-10T15:10:10Z</time>
      </trkpt>
      <trkpt lat="43.81501" lon="6.34315">
        <ele>973.2</ele>
        <time>2021-07-10T15:10:19Z</time>
      </trkpt>
      <trkpt lat="43.81501" lon="6.34315">
        <ele>973.2</ele>
        <time>2021-07-10T15:10:20Z</time>
      </trkpt>
      <trkpt lat="43.815" lon="6.34312">
        <ele>968.9</ele>
        <time>2021-07-10T15:12:10Z</time>
      </trkpt>
      <trkpt lat="43.81501" lon="6.34312">
        <ele>968.2</ele>
        <time>2021-07-10T15:12:17Z</time>
      </trkpt>
      <trkpt lat="43.81501" lon="6.34312">
        <ele>968.6</ele>
        <time>2021-07-10T15:12:18Z</time>
      </trkpt>
      <trkpt lat="43.81493" lon="6.34314">
        <ele>972.9</ele>
        <time>2021-07-10T15:12:39Z</time>
      </trkpt>
      <trkpt lat="43.81486" lon="6.34309">
        <ele>973.9</ele>
        <time>2021-07-10T15:12:43Z</time>
      </trkpt>
      <trkpt lat="43.81479" lon="6.34302">
        <ele>975.3</ele>
        <time>2021-07-10T15:12:47Z</time>
      </trkpt>
      <trkpt lat="43.81482" lon="6.34292">
        <ele>977.7</ele>
        <time>2021-07-10T15:12:51Z</time>
      </trkpt>
      <trkpt lat="43.81488" lon="6.34285">
        <ele>979.2</ele>
        <time>2021-07-10T15:12:55Z</time>
      </trkpt>
      <trkpt lat="43.81495" lon="6.34279">
        <ele>979</ele>
        <time>2021-07-10T15:12:58Z</time>
      </trkpt>
      <trkpt lat="43.81503" lon="6.34271">
        <ele>977.5</ele>
        <time>2021-07-10T15:13:01Z</time>
      </trkpt>
      <trkpt lat="43.81511" lon="6.34265">
        <ele>977.2</ele>
        <time>2021-07-10T15:13:03Z</time>
      </trkpt>
      <trkpt lat="43.8152" lon="6.34259">
        <ele>978.4</ele>
        <time>2021-07-10T15:13:06Z</time>
      </trkpt>
      <trkpt lat="43.81521" lon="6.34249">
        <ele>980.2</ele>
        <time>2021-07-10T15:13:10Z</time>
      </trkpt>
      <trkpt lat="43.81513" lon="6.34249">
        <ele>979.3</ele>
        <time>2021-07-10T15:13:13Z</time>
      </trkpt>
      <trkpt lat="43.81506" lon="6.34256">
        <ele>978.4</ele>
        <time>2021-07-10T15:13:16Z</time>
      </trkpt>
      <trkpt lat="43.81499" lon="6.34263">
        <ele>979</ele>
        <time>2021-07-10T15:13:19Z</time>
      </trkpt>
      <trkpt lat="43.81492" lon="6.3427">
        <ele>979.8</ele>
        <time>2021-07-10T15:13:22Z</time>
      </trkpt>
      <trkpt lat="43.81485" lon="6.34278">
        <ele>980.4</ele>
        <time>2021-07-10T15:13:25Z</time>
      </trkpt>
      <trkpt lat="43.81478" lon="6.34285">
        <ele>980.5</ele>
        <time>2021-07-10T15:13:28Z</time>
      </trkpt>
      <trkpt lat="43.81471" lon="6.34291">
        <ele>981.9</ele>
        <time>2021-07-10T15:13:31Z</time>
      </trkpt>
      <trkpt lat="43.81464" lon="6.34296">
        <ele>984.4</ele>
        <time>2021-07-10T15:13:34Z</time>
      </trkpt>
      <trkpt lat="43.81456" lon="6.343">
        <ele>984.5</ele>
        <time>2021-07-10T15:13:37Z</time>
      </trkpt>
      <trkpt lat="43.81449" lon="6.34303">
        <ele>985.5</ele>
        <time>2021-07-10T15:13:40Z</time>
      </trkpt>
      <trkpt lat="43.81441" lon="6.34306">
        <ele>983.4</ele>
        <time>2021-07-10T15:13:43Z</time>
      </trkpt>
      <trkpt lat="43.81433" lon="6.3431">
        <ele>985.1</ele>
        <time>2021-07-10T15:13:46Z</time>
      </trkpt>
      <trkpt lat="43.81426" lon="6.34313">
        <ele>985.8</ele>
        <time>2021-07-10T15:13:49Z</time>
      </trkpt>
      <trkpt lat="43.81419" lon="6.34317">
        <ele>987.9</ele>
        <time>2021-07-10T15:13:52Z</time>
      </trkpt>
      <trkpt lat="43.81413" lon="6.3432">
        <ele>988.5</ele>
        <time>2021-07-10T15:13:55Z</time>
      </trkpt>
      <trkpt lat="43.81406" lon="6.34325">
        <ele>986.8</ele>
        <time>2021-07-10T15:13:58Z</time>
      </trkpt>
      <trkpt lat="43.81399" lon="6.34331">
        <ele>987.7</ele>
        <time>2021-07-10T15:14:01Z</time>
      </trkpt>
      <trkpt lat="43.81392" lon="6.34337">
        <ele>988.8</ele>
        <time>2021-07-10T15:14:04Z</time>
      </trkpt>
      <trkpt lat="43.81385" lon="6.34344">
        <ele>989.4</ele>
        <time>2021-07-10T15:14:07Z</time>
      </trkpt>
      <trkpt lat="43.81378" lon="6.3435">
        <ele>990</ele>
        <time>2021-07-10T15:14:10Z</time>
      </trkpt>
      <trkpt lat="43.81372" lon="6.34357">
        <ele>990.5</ele>
        <time>2021-07-10T15:14:13Z</time>
      </trkpt>
      <trkpt lat="43.81365" lon="6.34363">
        <ele>990.6</ele>
        <time>2021-07-10T15:14:16Z</time>
      </trkpt>
      <trkpt lat="43.81359" lon="6.34368">
        <ele>991.8</ele>
        <time>2021-07-10T15:14:19Z</time>
      </trkpt>
      <trkpt lat="43.81354" lon="6.34376">
        <ele>991.7</ele>
        <time>2021-07-10T15:14:22Z</time>
      </trkpt>
      <trkpt lat="43.8135" lon="6.34388">
        <ele>991</ele>
        <time>2021-07-10T15:14:25Z</time>
      </trkpt>
      <trkpt lat="43.81346" lon="6.344">
        <ele>991.1</ele>
        <time>2021-07-10T15:14:28Z</time>
      </trkpt>
      <trkpt lat="43.8134" lon="6.34411">
        <ele>990.9</ele>
        <time>2021-07-10T15:14:31Z</time>
      </trkpt>
      <trkpt lat="43.81333" lon="6.34423">
        <ele>991.5</ele>
        <time>2021-07-10T15:14:34Z</time>
      </trkpt>
      <trkpt lat="43.81327" lon="6.34429">
        <ele>991.9</ele>
        <time>2021-07-10T15:14:36Z</time>
      </trkpt>
      <trkpt lat="43.8132" lon="6.34435">
        <ele>992.8</ele>
        <time>2021-07-10T15:14:38Z</time>
      </trkpt>
      <trkpt lat="43.81312" lon="6.34442">
        <ele>993.4</ele>
        <time>2021-07-10T15:14:41Z</time>
      </trkpt>
      <trkpt lat="43.81306" lon="6.34449">
        <ele>992.5</ele>
        <time>2021-07-10T15:14:43Z</time>
      </trkpt>
      <trkpt lat="43.813" lon="6.34455">
        <ele>993</ele>
        <time>2021-07-10T15:14:45Z</time>
      </trkpt>
      <trkpt lat="43.81293" lon="6.34463">
        <ele>992.7</ele>
        <time>2021-07-10T15:14:47Z</time>
      </trkpt>
      <trkpt lat="43.81288" lon="6.34471">
        <ele>993.2</ele>
        <time>2021-07-10T15:14:49Z</time>
      </trkpt>
      <trkpt lat="43.81282" lon="6.34479">
        <ele>993.1</ele>
        <time>2021-07-10T15:14:51Z</time>
      </trkpt>
      <trkpt lat="43.81277" lon="6.34486">
        <ele>993.4</ele>
        <time>2021-07-10T15:14:53Z</time>
      </trkpt>
      <trkpt lat="43.81272" lon="6.34495">
        <ele>993.9</ele>
        <time>2021-07-10T15:14:55Z</time>
      </trkpt>
      <trkpt lat="43.81266" lon="6.34504">
        <ele>993.9</ele>
        <time>2021-07-10T15:14:57Z</time>
      </trkpt>
      <trkpt lat="43.8126" lon="6.34513">
        <ele>994.1</ele>
        <time>2021-07-10T15:14:59Z</time>
      </trkpt>
      <trkpt lat="43.81254" lon="6.34521">
        <ele>994.9</ele>
        <time>2021-07-10T15:15:01Z</time>
      </trkpt>
      <trkpt lat="43.81249" lon="6.34531">
        <ele>995.7</ele>
        <time>2021-07-10T15:15:03Z</time>
      </trkpt>
      <trkpt lat="43.81244" lon="6.34539">
        <ele>996.4</ele>
        <time>2021-07-10T15:15:05Z</time>
      </trkpt>
      <trkpt lat="43.81239" lon="6.34548">
        <ele>997.1</ele>
        <time>2021-07-10T15:15:07Z</time>
      </trkpt>
      <trkpt lat="43.81234" lon="6.34557">
        <ele>997.7</ele>
        <time>2021-07-10T15:15:09Z</time>
      </trkpt>
      <trkpt lat="43.8123" lon="6.34567">
        <ele>998.3</ele>
        <time>2021-07-10T15:15:11Z</time>
      </trkpt>
      <trkpt lat="43.81226" lon="6.34576">
        <ele>999.5</ele>
        <time>2021-07-10T15:15:13Z</time>
      </trkpt>
      <trkpt lat="43.81221" lon="6.34584">
        <ele>1000.3</ele>
        <time>2021-07-10T15:15:15Z</time>
      </trkpt>
      <trkpt lat="43.81217" lon="6.34592">
        <ele>1000.9</ele>
        <time>2021-07-10T15:15:17Z</time>
      </trkpt>
      <trkpt lat="43.81212" lon="6.34601">
        <ele>1001.2</ele>
        <time>2021-07-10T15:15:19Z</time>
      </trkpt>
      <trkpt lat="43.81206" lon="6.34608">
        <ele>1001.3</ele>
        <time>2021-07-10T15:15:21Z</time>
      </trkpt>
      <trkpt lat="43.81201" lon="6.34615">
        <ele>1001.8</ele>
        <time>2021-07-10T15:15:23Z</time>
      </trkpt>
      <trkpt lat="43.81195" lon="6.34621">
        <ele>1002.1</ele>
        <time>2021-07-10T15:15:25Z</time>
      </trkpt>
      <trkpt lat="43.81189" lon="6.34632">
        <ele>1003.5</ele>
        <time>2021-07-10T15:15:28Z</time>
      </trkpt>
      <trkpt lat="43.81183" lon="6.34641">
        <ele>1005.2</ele>
        <time>2021-07-10T15:15:31Z</time>
      </trkpt>
      <trkpt lat="43.81177" lon="6.3465">
        <ele>1006.1</ele>
        <time>2021-07-10T15:15:34Z</time>
      </trkpt>
      <trkpt lat="43.81171" lon="6.34656">
        <ele>1007.5</ele>
        <time>2021-07-10T15:15:37Z</time>
      </trkpt>
      <trkpt lat="43.81166" lon="6.34668">
        <ele>1009.4</ele>
        <time>2021-07-10T15:15:42Z</time>
      </trkpt>
      <trkpt lat="43.81162" lon="6.34676">
        <ele>1009.8</ele>
        <time>2021-07-10T15:15:44Z</time>
      </trkpt>
      <trkpt lat="43.81155" lon="6.34687">
        <ele>1010.9</ele>
        <time>2021-07-10T15:15:47Z</time>
      </trkpt>
      <trkpt lat="43.8115" lon="6.34694">
        <ele>1010.7</ele>
        <time>2021-07-10T15:15:49Z</time>
      </trkpt>
      <trkpt lat="43.81144" lon="6.34701">
        <ele>1010.4</ele>
        <time>2021-07-10T15:15:51Z</time>
      </trkpt>
      <trkpt lat="43.81137" lon="6.34708">
        <ele>1009.8</ele>
        <time>2021-07-10T15:15:53Z</time>
      </trkpt>
      <trkpt lat="43.81128" lon="6.34714">
        <ele>1008.9</ele>
        <time>2021-07-10T15:15:55Z</time>
      </trkpt>
      <trkpt lat="43.81117" lon="6.34721">
        <ele>1008.6</ele>
        <time>2021-07-10T15:15:57Z</time>
      </trkpt>
      <trkpt lat="43.81107" lon="6.34726">
        <ele>1008.3</ele>
        <time>2021-07-10T15:15:59Z</time>
      </trkpt>
      <trkpt lat="43.81097" lon="6.34727">
        <ele>1008.4</ele>
        <time>2021-07-10T15:16:01Z</time>
      </trkpt>
      <trkpt lat="43.81089" lon="6.34727">
        <ele>1008</ele>
        <time>2021-07-10T15:16:03Z</time>
      </trkpt>
      <trkpt lat="43.81081" lon="6.34726">
        <ele>1008.6</ele>
        <time>2021-07-10T15:16:05Z</time>
      </trkpt>
      <trkpt lat="43.81073" lon="6.34725">
        <ele>1009.5</ele>
        <time>2021-07-10T15:16:07Z</time>
      </trkpt>
      <trkpt lat="43.81065" lon="6.34722">
        <ele>1009.8</ele>
        <time>2021-07-10T15:16:09Z</time>
      </trkpt>
      <trkpt lat="43.81057" lon="6.34718">
        <ele>1010.6</ele>
        <time>2021-07-10T15:16:11Z</time>
      </trkpt>
      <trkpt lat="43.81049" lon="6.34714">
        <ele>1010.9</ele>
        <time>2021-07-10T15:16:13Z</time>
      </trkpt>
      <trkpt lat="43.81041" lon="6.34712">
        <ele>1010.5</ele>
        <time>2021-07-10T15:16:15Z</time>
      </trkpt>
      <trkpt lat="43.81033" lon="6.34709">
        <ele>1010.3</ele>
        <time>2021-07-10T15:16:17Z</time>
      </trkpt>
      <trkpt lat="43.81024" lon="6.34708">
        <ele>1010.2</ele>
        <time>2021-07-10T15:16:19Z</time>
      </trkpt>
      <trkpt lat="43.81015" lon="6.34706">
        <ele>1010.9</ele>
        <time>2021-07-10T15:16:21Z</time>
      </trkpt>
      <trkpt lat="43.81006" lon="6.34704">
        <ele>1010.2</ele>
        <time>2021-07-10T15:16:23Z</time>
      </trkpt>
      <trkpt lat="43.80999" lon="6.34703">
        <ele>1010.5</ele>
        <time>2021-07-10T15:16:25Z</time>
      </trkpt>
      <trkpt lat="43.80988" lon="6.347">
        <ele>1011.7</ele>
        <time>2021-07-10T15:16:28Z</time>
      </trkpt>
      <trkpt lat="43.80979" lon="6.34697">
        <ele>1010.7</ele>
        <time>2021-07-10T15:16:30Z</time>
      </trkpt>
      <trkpt lat="43.8097" lon="6.34697">
        <ele>1010.4</ele>
        <time>2021-07-10T15:16:32Z</time>
      </trkpt>
      <trkpt lat="43.80961" lon="6.34695">
        <ele>1009.9</ele>
        <time>2021-07-10T15:16:34Z</time>
      </trkpt>
      <trkpt lat="43.80954" lon="6.34694">
        <ele>1010.3</ele>
        <time>2021-07-10T15:16:36Z</time>
      </trkpt>
      <trkpt lat="43.80943" lon="6.34693">
        <ele>1011.5</ele>
        <time>2021-07-10T15:16:39Z</time>
      </trkpt>
      <trkpt lat="43.80936" lon="6.34693">
        <ele>1012.5</ele>
        <time>2021-07-10T15:16:41Z</time>
      </trkpt>
      <trkpt lat="43.80929" lon="6.34691">
        <ele>1013.1</ele>
        <time>2021-07-10T15:16:43Z</time>
      </trkpt>
      <trkpt lat="43.80921" lon="6.3469">
        <ele>1013.9</ele>
        <time>2021-07-10T15:16:45Z</time>
      </trkpt>
      <trkpt lat="43.80914" lon="6.34689">
        <ele>1016</ele>
        <time>2021-07-10T15:16:47Z</time>
      </trkpt>
      <trkpt lat="43.80907" lon="6.34688">
        <ele>1017.2</ele>
        <time>2021-07-10T15:16:49Z</time>
      </trkpt>
      <trkpt lat="43.80899" lon="6.34687">
        <ele>1018</ele>
        <time>2021-07-10T15:16:51Z</time>
      </trkpt>
      <trkpt lat="43.80892" lon="6.34684">
        <ele>1018.3</ele>
        <time>2021-07-10T15:16:53Z</time>
      </trkpt>
      <trkpt lat="43.80885" lon="6.3468">
        <ele>1018.3</ele>
        <time>2021-07-10T15:16:55Z</time>
      </trkpt>
      <trkpt lat="43.80878" lon="6.34676">
        <ele>1018.6</ele>
        <time>2021-07-10T15:16:57Z</time>
      </trkpt>
      <trkpt lat="43.80869" lon="6.34671">
        <ele>1021</ele>
        <time>2021-07-10T15:17:00Z</time>
      </trkpt>
      <trkpt lat="43.80862" lon="6.34668">
        <ele>1022.4</ele>
        <time>2021-07-10T15:17:03Z</time>
      </trkpt>
      <trkpt lat="43.80854" lon="6.34664">
        <ele>1023.9</ele>
        <time>2021-07-10T15:17:06Z</time>
      </trkpt>
      <trkpt lat="43.80846" lon="6.34659">
        <ele>1024.8</ele>
        <time>2021-07-10T15:17:09Z</time>
      </trkpt>
      <trkpt lat="43.80838" lon="6.34654">
        <ele>1026.2</ele>
        <time>2021-07-10T15:17:12Z</time>
      </trkpt>
      <trkpt lat="43.80829" lon="6.34648">
        <ele>1027.8</ele>
        <time>2021-07-10T15:17:15Z</time>
      </trkpt>
      <trkpt lat="43.80821" lon="6.34643">
        <ele>1029</ele>
        <time>2021-07-10T15:17:18Z</time>
      </trkpt>
      <trkpt lat="43.80812" lon="6.34636">
        <ele>1030.1</ele>
        <time>2021-07-10T15:17:21Z</time>
      </trkpt>
      <trkpt lat="43.80806" lon="6.3463">
        <ele>1031</ele>
        <time>2021-07-10T15:17:23Z</time>
      </trkpt>
      <trkpt lat="43.80801" lon="6.34623">
        <ele>1031.8</ele>
        <time>2021-07-10T15:17:25Z</time>
      </trkpt>
      <trkpt lat="43.80796" lon="6.34611">
        <ele>1033.6</ele>
        <time>2021-07-10T15:17:28Z</time>
      </trkpt>
      <trkpt lat="43.80791" lon="6.34599">
        <ele>1035.8</ele>
        <time>2021-07-10T15:17:31Z</time>
      </trkpt>
      <trkpt lat="43.80785" lon="6.34588">
        <ele>1038.1</ele>
        <time>2021-07-10T15:17:34Z</time>
      </trkpt>
      <trkpt lat="43.80779" lon="6.34578">
        <ele>1040.8</ele>
        <time>2021-07-10T15:17:37Z</time>
      </trkpt>
      <trkpt lat="43.80774" lon="6.34566">
        <ele>1041</ele>
        <time>2021-07-10T15:17:40Z</time>
      </trkpt>
      <trkpt lat="43.80773" lon="6.34551">
        <ele>1041.8</ele>
        <time>2021-07-10T15:17:43Z</time>
      </trkpt>
      <trkpt lat="43.80773" lon="6.34542">
        <ele>1042.3</ele>
        <time>2021-07-10T15:17:45Z</time>
      </trkpt>
      <trkpt lat="43.80774" lon="6.34531">
        <ele>1042</ele>
        <time>2021-07-10T15:17:47Z</time>
      </trkpt>
      <trkpt lat="43.80774" lon="6.3452">
        <ele>1042.4</ele>
        <time>2021-07-10T15:17:49Z</time>
      </trkpt>
      <trkpt lat="43.80774" lon="6.34507">
        <ele>1042.6</ele>
        <time>2021-07-10T15:17:52Z</time>
      </trkpt>
      <trkpt lat="43.80774" lon="6.34493">
        <ele>1042.5</ele>
        <time>2021-07-10T15:17:55Z</time>
      </trkpt>
      <trkpt lat="43.80773" lon="6.34479">
        <ele>1044.1</ele>
        <time>2021-07-10T15:17:58Z</time>
      </trkpt>
      <trkpt lat="43.80766" lon="6.3447">
        <ele>1042.9</ele>
        <time>2021-07-10T15:18:01Z</time>
      </trkpt>
      <trkpt lat="43.80756" lon="6.34471">
        <ele>1043.8</ele>
        <time>2021-07-10T15:18:04Z</time>
      </trkpt>
      <trkpt lat="43.80746" lon="6.34475">
        <ele>1045.2</ele>
        <time>2021-07-10T15:18:07Z</time>
      </trkpt>
      <trkpt lat="43.80736" lon="6.34477">
        <ele>1047.8</ele>
        <time>2021-07-10T15:18:10Z</time>
      </trkpt>
      <trkpt lat="43.80728" lon="6.34479">
        <ele>1049.1</ele>
        <time>2021-07-10T15:18:13Z</time>
      </trkpt>
      <trkpt lat="43.80717" lon="6.34478">
        <ele>1048.9</ele>
        <time>2021-07-10T15:18:16Z</time>
      </trkpt>
      <trkpt lat="43.80708" lon="6.34478">
        <ele>1050.1</ele>
        <time>2021-07-10T15:18:19Z</time>
      </trkpt>
      <trkpt lat="43.80697" lon="6.34478">
        <ele>1051.1</ele>
        <time>2021-07-10T15:18:22Z</time>
      </trkpt>
      <trkpt lat="43.80688" lon="6.34477">
        <ele>1051.7</ele>
        <time>2021-07-10T15:18:25Z</time>
      </trkpt>
      <trkpt lat="43.80677" lon="6.34476">
        <ele>1053.4</ele>
        <time>2021-07-10T15:18:28Z</time>
      </trkpt>
      <trkpt lat="43.80667" lon="6.34476">
        <ele>1054.2</ele>
        <time>2021-07-10T15:18:31Z</time>
      </trkpt>
      <trkpt lat="43.80658" lon="6.34474">
        <ele>1054.7</ele>
        <time>2021-07-10T15:18:34Z</time>
      </trkpt>
      <trkpt lat="43.80648" lon="6.34472">
        <ele>1056.4</ele>
        <time>2021-07-10T15:18:37Z</time>
      </trkpt>
      <trkpt lat="43.80638" lon="6.34469">
        <ele>1057.3</ele>
        <time>2021-07-10T15:18:40Z</time>
      </trkpt>
      <trkpt lat="43.80629" lon="6.34464">
        <ele>1056.5</ele>
        <time>2021-07-10T15:18:43Z</time>
      </trkpt>
      <trkpt lat="43.80622" lon="6.3446">
        <ele>1056.6</ele>
        <time>2021-07-10T15:18:46Z</time>
      </trkpt>
      <trkpt lat="43.80614" lon="6.34456">
        <ele>1056.6</ele>
        <time>2021-07-10T15:18:49Z</time>
      </trkpt>
      <trkpt lat="43.80606" lon="6.34452">
        <ele>1056.5</ele>
        <time>2021-07-10T15:18:52Z</time>
      </trkpt>
      <trkpt lat="43.80597" lon="6.34449">
        <ele>1057.3</ele>
        <time>2021-07-10T15:18:55Z</time>
      </trkpt>
      <trkpt lat="43.80587" lon="6.34445">
        <ele>1057.3</ele>
        <time>2021-07-10T15:18:58Z</time>
      </trkpt>
      <trkpt lat="43.80577" lon="6.34442">
        <ele>1057</ele>
        <time>2021-07-10T15:19:01Z</time>
      </trkpt>
      <trkpt lat="43.80568" lon="6.3444">
        <ele>1057</ele>
        <time>2021-07-10T15:19:04Z</time>
      </trkpt>
      <trkpt lat="43.8056" lon="6.34436">
        <ele>1058.6</ele>
        <time>2021-07-10T15:19:07Z</time>
      </trkpt>
      <trkpt lat="43.80552" lon="6.34432">
        <ele>1059.8</ele>
        <time>2021-07-10T15:19:10Z</time>
      </trkpt>
      <trkpt lat="43.80544" lon="6.34429">
        <ele>1061.9</ele>
        <time>2021-07-10T15:19:13Z</time>
      </trkpt>
      <trkpt lat="43.80535" lon="6.34426">
        <ele>1063.7</ele>
        <time>2021-07-10T15:19:16Z</time>
      </trkpt>
      <trkpt lat="43.80527" lon="6.34422">
        <ele>1064.7</ele>
        <time>2021-07-10T15:19:19Z</time>
      </trkpt>
      <trkpt lat="43.80518" lon="6.3442">
        <ele>1064.7</ele>
        <time>2021-07-10T15:19:22Z</time>
      </trkpt>
      <trkpt lat="43.80511" lon="6.34421">
        <ele>1065.4</ele>
        <time>2021-07-10T15:19:25Z</time>
      </trkpt>
      <trkpt lat="43.80503" lon="6.34424">
        <ele>1066.4</ele>
        <time>2021-07-10T15:19:28Z</time>
      </trkpt>
      <trkpt lat="43.80495" lon="6.34421">
        <ele>1069.2</ele>
        <time>2021-07-10T15:19:31Z</time>
      </trkpt>
      <trkpt lat="43.8049" lon="6.34411">
        <ele>1070.1</ele>
        <time>2021-07-10T15:19:34Z</time>
      </trkpt>
      <trkpt lat="43.80485" lon="6.34401">
        <ele>1072</ele>
        <time>2021-07-10T15:19:37Z</time>
      </trkpt>
      <trkpt lat="43.80478" lon="6.34392">
        <ele>1072.4</ele>
        <time>2021-07-10T15:19:40Z</time>
      </trkpt>
      <trkpt lat="43.8047" lon="6.34386">
        <ele>1074</ele>
        <time>2021-07-10T15:19:43Z</time>
      </trkpt>
      <trkpt lat="43.80462" lon="6.34379">
        <ele>1075.3</ele>
        <time>2021-07-10T15:19:46Z</time>
      </trkpt>
      <trkpt lat="43.80458" lon="6.3437">
        <ele>1074.1</ele>
        <time>2021-07-10T15:19:49Z</time>
      </trkpt>
      <trkpt lat="43.80454" lon="6.34361">
        <ele>1074.5</ele>
        <time>2021-07-10T15:19:52Z</time>
      </trkpt>
      <trkpt lat="43.8045" lon="6.34351">
        <ele>1073.3</ele>
        <time>2021-07-10T15:19:55Z</time>
      </trkpt>
      <trkpt lat="43.80441" lon="6.34354">
        <ele>1071.9</ele>
        <time>2021-07-10T15:19:57Z</time>
      </trkpt>
      <trkpt lat="43.80431" lon="6.3436">
        <ele>1069.7</ele>
        <time>2021-07-10T15:19:59Z</time>
      </trkpt>
      <trkpt lat="43.8042" lon="6.34369">
        <ele>1068.2</ele>
        <time>2021-07-10T15:20:01Z</time>
      </trkpt>
      <trkpt lat="43.80409" lon="6.34376">
        <ele>1066.2</ele>
        <time>2021-07-10T15:20:03Z</time>
      </trkpt>
      <trkpt lat="43.80396" lon="6.34376">
        <ele>1065.4</ele>
        <time>2021-07-10T15:20:05Z</time>
      </trkpt>
      <trkpt lat="43.80389" lon="6.34375">
        <ele>1063.9</ele>
        <time>2021-07-10T15:20:06Z</time>
      </trkpt>
      <trkpt lat="43.80382" lon="6.34374">
        <ele>1063.3</ele>
        <time>2021-07-10T15:20:07Z</time>
      </trkpt>
      <trkpt lat="43.80373" lon="6.34374">
        <ele>1062.8</ele>
        <time>2021-07-10T15:20:08Z</time>
      </trkpt>
      <trkpt lat="43.80366" lon="6.34376">
        <ele>1062.2</ele>
        <time>2021-07-10T15:20:09Z</time>
      </trkpt>
      <trkpt lat="43.80357" lon="6.34378">
        <ele>1062</ele>
        <time>2021-07-10T15:20:10Z</time>
      </trkpt>
      <trkpt lat="43.80349" lon="6.3438">
        <ele>1061.7</ele>
        <time>2021-07-10T15:20:11Z</time>
      </trkpt>
      <trkpt lat="43.80341" lon="6.34382">
        <ele>1061.5</ele>
        <time>2021-07-10T15:20:12Z</time>
      </trkpt>
      <trkpt lat="43.80333" lon="6.34383">
        <ele>1061.1</ele>
        <time>2021-07-10T15:20:13Z</time>
      </trkpt>
      <trkpt lat="43.80324" lon="6.34384">
        <ele>1060.6</ele>
        <time>2021-07-10T15:20:14Z</time>
      </trkpt>
      <trkpt lat="43.80317" lon="6.34383">
        <ele>1060.1</ele>
        <time>2021-07-10T15:20:15Z</time>
      </trkpt>
      <trkpt lat="43.80309" lon="6.34381">
        <ele>1060.1</ele>
        <time>2021-07-10T15:20:16Z</time>
      </trkpt>
      <trkpt lat="43.80302" lon="6.3438">
        <ele>1060.2</ele>
        <time>2021-07-10T15:20:17Z</time>
      </trkpt>
      <trkpt lat="43.80289" lon="6.34376">
        <ele>1059.9</ele>
        <time>2021-07-10T15:20:19Z</time>
      </trkpt>
      <trkpt lat="43.80276" lon="6.34373">
        <ele>1059.2</ele>
        <time>2021-07-10T15:20:21Z</time>
      </trkpt>
      <trkpt lat="43.80265" lon="6.3437">
        <ele>1059.1</ele>
        <time>2021-07-10T15:20:23Z</time>
      </trkpt>
      <trkpt lat="43.80256" lon="6.34368">
        <ele>1059.1</ele>
        <time>2021-07-10T15:20:25Z</time>
      </trkpt>
      <trkpt lat="43.80246" lon="6.34366">
        <ele>1058.6</ele>
        <time>2021-07-10T15:20:27Z</time>
      </trkpt>
      <trkpt lat="43.80237" lon="6.34363">
        <ele>1058.5</ele>
        <time>2021-07-10T15:20:29Z</time>
      </trkpt>
      <trkpt lat="43.80228" lon="6.3436">
        <ele>1058.6</ele>
        <time>2021-07-10T15:20:31Z</time>
      </trkpt>
      <trkpt lat="43.80221" lon="6.34357">
        <ele>1058.7</ele>
        <time>2021-07-10T15:20:33Z</time>
      </trkpt>
      <trkpt lat="43.80212" lon="6.34355">
        <ele>1058.8</ele>
        <time>2021-07-10T15:20:35Z</time>
      </trkpt>
      <trkpt lat="43.80204" lon="6.34351">
        <ele>1058.5</ele>
        <time>2021-07-10T15:20:37Z</time>
      </trkpt>
      <trkpt lat="43.80195" lon="6.34348">
        <ele>1058.5</ele>
        <time>2021-07-10T15:20:39Z</time>
      </trkpt>
      <trkpt lat="43.80186" lon="6.34343">
        <ele>1058.4</ele>
        <time>2021-07-10T15:20:41Z</time>
      </trkpt>
      <trkpt lat="43.80178" lon="6.34339">
        <ele>1058.8</ele>
        <time>2021-07-10T15:20:43Z</time>
      </trkpt>
      <trkpt lat="43.8017" lon="6.34334">
        <ele>1059.1</ele>
        <time>2021-07-10T15:20:45Z</time>
      </trkpt>
      <trkpt lat="43.80164" lon="6.34328">
        <ele>1059.6</ele>
        <time>2021-07-10T15:20:47Z</time>
      </trkpt>
      <trkpt lat="43.80157" lon="6.34321">
        <ele>1060.5</ele>
        <time>2021-07-10T15:20:49Z</time>
      </trkpt>
      <trkpt lat="43.8015" lon="6.34315">
        <ele>1061.3</ele>
        <time>2021-07-10T15:20:51Z</time>
      </trkpt>
      <trkpt lat="43.80144" lon="6.34307">
        <ele>1061.9</ele>
        <time>2021-07-10T15:20:53Z</time>
      </trkpt>
      <trkpt lat="43.80138" lon="6.34299">
        <ele>1062.3</ele>
        <time>2021-07-10T15:20:55Z</time>
      </trkpt>
      <trkpt lat="43.80131" lon="6.34292">
        <ele>1062.7</ele>
        <time>2021-07-10T15:20:57Z</time>
      </trkpt>
      <trkpt lat="43.80125" lon="6.34284">
        <ele>1063.5</ele>
        <time>2021-07-10T15:20:59Z</time>
      </trkpt>
      <trkpt lat="43.80119" lon="6.34279">
        <ele>1063.7</ele>
        <time>2021-07-10T15:21:01Z</time>
      </trkpt>
      <trkpt lat="43.8011" lon="6.34273">
        <ele>1064.7</ele>
        <time>2021-07-10T15:21:04Z</time>
      </trkpt>
      <trkpt lat="43.80099" lon="6.34268">
        <ele>1065.7</ele>
        <time>2021-07-10T15:21:07Z</time>
      </trkpt>
      <trkpt lat="43.80092" lon="6.34266">
        <ele>1066</ele>
        <time>2021-07-10T15:21:09Z</time>
      </trkpt>
      <trkpt lat="43.80084" lon="6.34265">
        <ele>1065.9</ele>
        <time>2021-07-10T15:21:11Z</time>
      </trkpt>
      <trkpt lat="43.80076" lon="6.34263">
        <ele>1065.4</ele>
        <time>2021-07-10T15:21:13Z</time>
      </trkpt>
      <trkpt lat="43.80067" lon="6.3426">
        <ele>1065.2</ele>
        <time>2021-07-10T15:21:15Z</time>
      </trkpt>
      <trkpt lat="43.80059" lon="6.34258">
        <ele>1064.7</ele>
        <time>2021-07-10T15:21:17Z</time>
      </trkpt>
      <trkpt lat="43.8005" lon="6.34256">
        <ele>1064.4</ele>
        <time>2021-07-10T15:21:19Z</time>
      </trkpt>
      <trkpt lat="43.80042" lon="6.34253">
        <ele>1064.7</ele>
        <time>2021-07-10T15:21:21Z</time>
      </trkpt>
      <trkpt lat="43.80034" lon="6.34251">
        <ele>1064.8</ele>
        <time>2021-07-10T15:21:23Z</time>
      </trkpt>
      <trkpt lat="43.80027" lon="6.34249">
        <ele>1064.5</ele>
        <time>2021-07-10T15:21:25Z</time>
      </trkpt>
      <trkpt lat="43.80019" lon="6.34246">
        <ele>1064.7</ele>
        <time>2021-07-10T15:21:27Z</time>
      </trkpt>
      <trkpt lat="43.8001" lon="6.34244">
        <ele>1064.9</ele>
        <time>2021-07-10T15:21:29Z</time>
      </trkpt>
      <trkpt lat="43.80002" lon="6.34242">
        <ele>1064.9</ele>
        <time>2021-07-10T15:21:31Z</time>
      </trkpt>
      <trkpt lat="43.79993" lon="6.34239">
        <ele>1065.2</ele>
        <time>2021-07-10T15:21:33Z</time>
      </trkpt>
      <trkpt lat="43.79983" lon="6.34236">
        <ele>1065.2</ele>
        <time>2021-07-10T15:21:35Z</time>
      </trkpt>
      <trkpt lat="43.79974" lon="6.34233">
        <ele>1065.2</ele>
        <time>2021-07-10T15:21:37Z</time>
      </trkpt>
      <trkpt lat="43.79964" lon="6.3423">
        <ele>1065.8</ele>
        <time>2021-07-10T15:21:39Z</time>
      </trkpt>
      <trkpt lat="43.79955" lon="6.34228">
        <ele>1065.9</ele>
        <time>2021-07-10T15:21:41Z</time>
      </trkpt>
      <trkpt lat="43.79946" lon="6.34225">
        <ele>1066.1</ele>
        <time>2021-07-10T15:21:43Z</time>
      </trkpt>
      <trkpt lat="43.79937" lon="6.34221">
        <ele>1066.5</ele>
        <time>2021-07-10T15:21:45Z</time>
      </trkpt>
      <trkpt lat="43.79929" lon="6.34215">
        <ele>1067.3</ele>
        <time>2021-07-10T15:21:47Z</time>
      </trkpt>
      <trkpt lat="43.79922" lon="6.34207">
        <ele>1068</ele>
        <time>2021-07-10T15:21:49Z</time>
      </trkpt>
      <trkpt lat="43.79916" lon="6.34197">
        <ele>1068.7</ele>
        <time>2021-07-10T15:21:51Z</time>
      </trkpt>
      <trkpt lat="43.79912" lon="6.34185">
        <ele>1069</ele>
        <time>2021-07-10T15:21:53Z</time>
      </trkpt>
      <trkpt lat="43.79908" lon="6.34173">
        <ele>1069</ele>
        <time>2021-07-10T15:21:55Z</time>
      </trkpt>
      <trkpt lat="43.79906" lon="6.34162">
        <ele>1069.7</ele>
        <time>2021-07-10T15:21:57Z</time>
      </trkpt>
      <trkpt lat="43.79905" lon="6.34152">
        <ele>1069.9</ele>
        <time>2021-07-10T15:21:59Z</time>
      </trkpt>
      <trkpt lat="43.79903" lon="6.3414">
        <ele>1070.6</ele>
        <time>2021-07-10T15:22:01Z</time>
      </trkpt>
      <trkpt lat="43.79902" lon="6.34129">
        <ele>1070.7</ele>
        <time>2021-07-10T15:22:03Z</time>
      </trkpt>
      <trkpt lat="43.79901" lon="6.34118">
        <ele>1071.1</ele>
        <time>2021-07-10T15:22:05Z</time>
      </trkpt>
      <trkpt lat="43.79901" lon="6.34106">
        <ele>1071.8</ele>
        <time>2021-07-10T15:22:07Z</time>
      </trkpt>
      <trkpt lat="43.79901" lon="6.34096">
        <ele>1072.1</ele>
        <time>2021-07-10T15:22:09Z</time>
      </trkpt>
      <trkpt lat="43.79902" lon="6.34084">
        <ele>1072.7</ele>
        <time>2021-07-10T15:22:11Z</time>
      </trkpt>
      <trkpt lat="43.79903" lon="6.34073">
        <ele>1073.3</ele>
        <time>2021-07-10T15:22:13Z</time>
      </trkpt>
      <trkpt lat="43.79904" lon="6.34062">
        <ele>1074.4</ele>
        <time>2021-07-10T15:22:15Z</time>
      </trkpt>
      <trkpt lat="43.79906" lon="6.34052">
        <ele>1075.6</ele>
        <time>2021-07-10T15:22:17Z</time>
      </trkpt>
      <trkpt lat="43.79908" lon="6.34042">
        <ele>1076.6</ele>
        <time>2021-07-10T15:22:19Z</time>
      </trkpt>
      <trkpt lat="43.7991" lon="6.34031">
        <ele>1077.2</ele>
        <time>2021-07-10T15:22:21Z</time>
      </trkpt>
      <trkpt lat="43.79914" lon="6.34022">
        <ele>1079.3</ele>
        <time>2021-07-10T15:22:23Z</time>
      </trkpt>
      <trkpt lat="43.79917" lon="6.34012">
        <ele>1079.7</ele>
        <time>2021-07-10T15:22:25Z</time>
      </trkpt>
      <trkpt lat="43.79922" lon="6.34003">
        <ele>1080</ele>
        <time>2021-07-10T15:22:27Z</time>
      </trkpt>
      <trkpt lat="43.79926" lon="6.33993">
        <ele>1079.7</ele>
        <time>2021-07-10T15:22:29Z</time>
      </trkpt>
      <trkpt lat="43.79931" lon="6.33984">
        <ele>1080.9</ele>
        <time>2021-07-10T15:22:31Z</time>
      </trkpt>
      <trkpt lat="43.79936" lon="6.33975">
        <ele>1080.9</ele>
        <time>2021-07-10T15:22:33Z</time>
      </trkpt>
      <trkpt lat="43.7994" lon="6.33966">
        <ele>1082.3</ele>
        <time>2021-07-10T15:22:35Z</time>
      </trkpt>
      <trkpt lat="43.79941" lon="6.33955">
        <ele>1082.4</ele>
        <time>2021-07-10T15:22:37Z</time>
      </trkpt>
      <trkpt lat="43.7994" lon="6.33944">
        <ele>1082.7</ele>
        <time>2021-07-10T15:22:39Z</time>
      </trkpt>
      <trkpt lat="43.79937" lon="6.33934">
        <ele>1083.1</ele>
        <time>2021-07-10T15:22:41Z</time>
      </trkpt>
      <trkpt lat="43.79934" lon="6.33923">
        <ele>1083.9</ele>
        <time>2021-07-10T15:22:43Z</time>
      </trkpt>
      <trkpt lat="43.79931" lon="6.33914">
        <ele>1083.8</ele>
        <time>2021-07-10T15:22:45Z</time>
      </trkpt>
      <trkpt lat="43.79928" lon="6.33904">
        <ele>1084</ele>
        <time>2021-07-10T15:22:47Z</time>
      </trkpt>
      <trkpt lat="43.79925" lon="6.33894">
        <ele>1084.4</ele>
        <time>2021-07-10T15:22:49Z</time>
      </trkpt>
      <trkpt lat="43.79921" lon="6.33885">
        <ele>1085</ele>
        <time>2021-07-10T15:22:51Z</time>
      </trkpt>
      <trkpt lat="43.79916" lon="6.33877">
        <ele>1085.4</ele>
        <time>2021-07-10T15:22:53Z</time>
      </trkpt>
      <trkpt lat="43.7991" lon="6.3387">
        <ele>1085.7</ele>
        <time>2021-07-10T15:22:55Z</time>
      </trkpt>
      <trkpt lat="43.79903" lon="6.33863">
        <ele>1086.3</ele>
        <time>2021-07-10T15:22:57Z</time>
      </trkpt>
      <trkpt lat="43.79899" lon="6.33854">
        <ele>1086.7</ele>
        <time>2021-07-10T15:22:59Z</time>
      </trkpt>
      <trkpt lat="43.79894" lon="6.33845">
        <ele>1087.5</ele>
        <time>2021-07-10T15:23:01Z</time>
      </trkpt>
      <trkpt lat="43.79891" lon="6.33834">
        <ele>1088.2</ele>
        <time>2021-07-10T15:23:03Z</time>
      </trkpt>
      <trkpt lat="43.79887" lon="6.33825">
        <ele>1088.9</ele>
        <time>2021-07-10T15:23:05Z</time>
      </trkpt>
      <trkpt lat="43.79884" lon="6.33815">
        <ele>1088.7</ele>
        <time>2021-07-10T15:23:07Z</time>
      </trkpt>
      <trkpt lat="43.79879" lon="6.33806">
        <ele>1088.9</ele>
        <time>2021-07-10T15:23:09Z</time>
      </trkpt>
      <trkpt lat="43.79874" lon="6.33798">
        <ele>1089.5</ele>
        <time>2021-07-10T15:23:11Z</time>
      </trkpt>
      <trkpt lat="43.79869" lon="6.3379">
        <ele>1089.9</ele>
        <time>2021-07-10T15:23:13Z</time>
      </trkpt>
      <trkpt lat="43.79864" lon="6.33782">
        <ele>1090.6</ele>
        <time>2021-07-10T15:23:15Z</time>
      </trkpt>
      <trkpt lat="43.79858" lon="6.33773">
        <ele>1091.3</ele>
        <time>2021-07-10T15:23:17Z</time>
      </trkpt>
      <trkpt lat="43.79854" lon="6.33764">
        <ele>1091.9</ele>
        <time>2021-07-10T15:23:19Z</time>
      </trkpt>
      <trkpt lat="43.79849" lon="6.33755">
        <ele>1092.3</ele>
        <time>2021-07-10T15:23:21Z</time>
      </trkpt>
      <trkpt lat="43.79845" lon="6.33745">
        <ele>1093</ele>
        <time>2021-07-10T15:23:23Z</time>
      </trkpt>
      <trkpt lat="43.7984" lon="6.33737">
        <ele>1093.7</ele>
        <time>2021-07-10T15:23:25Z</time>
      </trkpt>
      <trkpt lat="43.79834" lon="6.3373">
        <ele>1094.1</ele>
        <time>2021-07-10T15:23:27Z</time>
      </trkpt>
      <trkpt lat="43.79826" lon="6.33728">
        <ele>1093.9</ele>
        <time>2021-07-10T15:23:29Z</time>
      </trkpt>
      <trkpt lat="43.79818" lon="6.33731">
        <ele>1093.7</ele>
        <time>2021-07-10T15:23:31Z</time>
      </trkpt>
      <trkpt lat="43.79811" lon="6.3374">
        <ele>1094</ele>
        <time>2021-07-10T15:23:33Z</time>
      </trkpt>
      <trkpt lat="43.79807" lon="6.3375">
        <ele>1094</ele>
        <time>2021-07-10T15:23:35Z</time>
      </trkpt>
      <trkpt lat="43.79802" lon="6.3376">
        <ele>1094.1</ele>
        <time>2021-07-10T15:23:37Z</time>
      </trkpt>
      <trkpt lat="43.79797" lon="6.33769">
        <ele>1093.8</ele>
        <time>2021-07-10T15:23:39Z</time>
      </trkpt>
      <trkpt lat="43.79792" lon="6.33777">
        <ele>1094</ele>
        <time>2021-07-10T15:23:41Z</time>
      </trkpt>
      <trkpt lat="43.79787" lon="6.33786">
        <ele>1094.3</ele>
        <time>2021-07-10T15:23:43Z</time>
      </trkpt>
      <trkpt lat="43.79781" lon="6.33796">
        <ele>1095.2</ele>
        <time>2021-07-10T15:23:45Z</time>
      </trkpt>
      <trkpt lat="43.79776" lon="6.33806">
        <ele>1094.7</ele>
        <time>2021-07-10T15:23:47Z</time>
      </trkpt>
      <trkpt lat="43.79771" lon="6.33817">
        <ele>1094.8</ele>
        <time>2021-07-10T15:23:49Z</time>
      </trkpt>
      <trkpt lat="43.79766" lon="6.33828">
        <ele>1095.3</ele>
        <time>2021-07-10T15:23:51Z</time>
      </trkpt>
      <trkpt lat="43.79762" lon="6.33841">
        <ele>1096</ele>
        <time>2021-07-10T15:23:53Z</time>
      </trkpt>
      <trkpt lat="43.79759" lon="6.33855">
        <ele>1096.5</ele>
        <time>2021-07-10T15:23:55Z</time>
      </trkpt>
      <trkpt lat="43.79757" lon="6.33868">
        <ele>1096.5</ele>
        <time>2021-07-10T15:23:57Z</time>
      </trkpt>
      <trkpt lat="43.79756" lon="6.33882">
        <ele>1096.7</ele>
        <time>2021-07-10T15:23:59Z</time>
      </trkpt>
      <trkpt lat="43.79755" lon="6.33894">
        <ele>1096.9</ele>
        <time>2021-07-10T15:24:01Z</time>
      </trkpt>
      <trkpt lat="43.79754" lon="6.33906">
        <ele>1096.9</ele>
        <time>2021-07-10T15:24:03Z</time>
      </trkpt>
      <trkpt lat="43.79754" lon="6.33916">
        <ele>1096.9</ele>
        <time>2021-07-10T15:24:05Z</time>
      </trkpt>
      <trkpt lat="43.79753" lon="6.33926">
        <ele>1096.6</ele>
        <time>2021-07-10T15:24:07Z</time>
      </trkpt>
      <trkpt lat="43.79753" lon="6.33937">
        <ele>1096.4</ele>
        <time>2021-07-10T15:24:09Z</time>
      </trkpt>
      <trkpt lat="43.79752" lon="6.33948">
        <ele>1096.3</ele>
        <time>2021-07-10T15:24:11Z</time>
      </trkpt>
      <trkpt lat="43.79751" lon="6.33959">
        <ele>1096.1</ele>
        <time>2021-07-10T15:24:13Z</time>
      </trkpt>
      <trkpt lat="43.79749" lon="6.33969">
        <ele>1096.1</ele>
        <time>2021-07-10T15:24:15Z</time>
      </trkpt>
      <trkpt lat="43.79745" lon="6.33982">
        <ele>1097.4</ele>
        <time>2021-07-10T15:24:18Z</time>
      </trkpt>
      <trkpt lat="43.79739" lon="6.33993">
        <ele>1097.6</ele>
        <time>2021-07-10T15:24:20Z</time>
      </trkpt>
      <trkpt lat="43.79731" lon="6.34003">
        <ele>1098</ele>
        <time>2021-07-10T15:24:22Z</time>
      </trkpt>
      <trkpt lat="43.79722" lon="6.34011">
        <ele>1098.3</ele>
        <time>2021-07-10T15:24:24Z</time>
      </trkpt>
      <trkpt lat="43.79713" lon="6.34018">
        <ele>1098.2</ele>
        <time>2021-07-10T15:24:26Z</time>
      </trkpt>
      <trkpt lat="43.79704" lon="6.34024">
        <ele>1099.2</ele>
        <time>2021-07-10T15:24:28Z</time>
      </trkpt>
      <trkpt lat="43.79695" lon="6.34029">
        <ele>1098.3</ele>
        <time>2021-07-10T15:24:30Z</time>
      </trkpt>
      <trkpt lat="43.79686" lon="6.34035">
        <ele>1097.7</ele>
        <time>2021-07-10T15:24:32Z</time>
      </trkpt>
      <trkpt lat="43.79679" lon="6.34041">
        <ele>1096.6</ele>
        <time>2021-07-10T15:24:34Z</time>
      </trkpt>
      <trkpt lat="43.79669" lon="6.34048">
        <ele>1097.7</ele>
        <time>2021-07-10T15:24:37Z</time>
      </trkpt>
      <trkpt lat="43.79661" lon="6.34053">
        <ele>1097.3</ele>
        <time>2021-07-10T15:24:39Z</time>
      </trkpt>
      <trkpt lat="43.79652" lon="6.3406">
        <ele>1097.2</ele>
        <time>2021-07-10T15:24:41Z</time>
      </trkpt>
      <trkpt lat="43.79642" lon="6.34066">
        <ele>1097.1</ele>
        <time>2021-07-10T15:24:43Z</time>
      </trkpt>
      <trkpt lat="43.79631" lon="6.34073">
        <ele>1097.2</ele>
        <time>2021-07-10T15:24:45Z</time>
      </trkpt>
      <trkpt lat="43.7962" lon="6.34078">
        <ele>1096.5</ele>
        <time>2021-07-10T15:24:47Z</time>
      </trkpt>
      <trkpt lat="43.7961" lon="6.34082">
        <ele>1096.3</ele>
        <time>2021-07-10T15:24:49Z</time>
      </trkpt>
      <trkpt lat="43.796" lon="6.34085">
        <ele>1096.1</ele>
        <time>2021-07-10T15:24:51Z</time>
      </trkpt>
      <trkpt lat="43.79591" lon="6.34086">
        <ele>1096</ele>
        <time>2021-07-10T15:24:53Z</time>
      </trkpt>
      <trkpt lat="43.79582" lon="6.34088">
        <ele>1095.9</ele>
        <time>2021-07-10T15:24:55Z</time>
      </trkpt>
      <trkpt lat="43.79575" lon="6.3409">
        <ele>1096.3</ele>
        <time>2021-07-10T15:24:57Z</time>
      </trkpt>
      <trkpt lat="43.79567" lon="6.34093">
        <ele>1096.3</ele>
        <time>2021-07-10T15:24:59Z</time>
      </trkpt>
      <trkpt lat="43.79558" lon="6.34094">
        <ele>1096.5</ele>
        <time>2021-07-10T15:25:01Z</time>
      </trkpt>
      <trkpt lat="43.79549" lon="6.34095">
        <ele>1096.3</ele>
        <time>2021-07-10T15:25:03Z</time>
      </trkpt>
      <trkpt lat="43.7954" lon="6.34094">
        <ele>1095.9</ele>
        <time>2021-07-10T15:25:05Z</time>
      </trkpt>
      <trkpt lat="43.79529" lon="6.34092">
        <ele>1095</ele>
        <time>2021-07-10T15:25:07Z</time>
      </trkpt>
      <trkpt lat="43.79519" lon="6.34089">
        <ele>1095.1</ele>
        <time>2021-07-10T15:25:09Z</time>
      </trkpt>
      <trkpt lat="43.79508" lon="6.34088">
        <ele>1095.3</ele>
        <time>2021-07-10T15:25:11Z</time>
      </trkpt>
      <trkpt lat="43.79497" lon="6.34086">
        <ele>1094.8</ele>
        <time>2021-07-10T15:25:13Z</time>
      </trkpt>
      <trkpt lat="43.79485" lon="6.34084">
        <ele>1093.8</ele>
        <time>2021-07-10T15:25:15Z</time>
      </trkpt>
      <trkpt lat="43.79474" lon="6.34081">
        <ele>1092.2</ele>
        <time>2021-07-10T15:25:17Z</time>
      </trkpt>
      <trkpt lat="43.79463" lon="6.34078">
        <ele>1091.4</ele>
        <time>2021-07-10T15:25:19Z</time>
      </trkpt>
      <trkpt lat="43.7945" lon="6.34077">
        <ele>1090.7</ele>
        <time>2021-07-10T15:25:21Z</time>
      </trkpt>
      <trkpt lat="43.79438" lon="6.3408">
        <ele>1091</ele>
        <time>2021-07-10T15:25:23Z</time>
      </trkpt>
      <trkpt lat="43.79425" lon="6.34084">
        <ele>1089.3</ele>
        <time>2021-07-10T15:25:25Z</time>
      </trkpt>
      <trkpt lat="43.79411" lon="6.34089">
        <ele>1089</ele>
        <time>2021-07-10T15:25:27Z</time>
      </trkpt>
      <trkpt lat="43.79404" lon="6.34092">
        <ele>1088.4</ele>
        <time>2021-07-10T15:25:28Z</time>
      </trkpt>
      <trkpt lat="43.79397" lon="6.34095">
        <ele>1087.8</ele>
        <time>2021-07-10T15:25:29Z</time>
      </trkpt>
      <trkpt lat="43.79389" lon="6.34097">
        <ele>1086.5</ele>
        <time>2021-07-10T15:25:30Z</time>
      </trkpt>
      <trkpt lat="43.79381" lon="6.34101">
        <ele>1086.3</ele>
        <time>2021-07-10T15:25:31Z</time>
      </trkpt>
      <trkpt lat="43.79374" lon="6.34104">
        <ele>1086.3</ele>
        <time>2021-07-10T15:25:32Z</time>
      </trkpt>
      <trkpt lat="43.79367" lon="6.34107">
        <ele>1085.5</ele>
        <time>2021-07-10T15:25:33Z</time>
      </trkpt>
      <trkpt lat="43.79359" lon="6.3411">
        <ele>1084.9</ele>
        <time>2021-07-10T15:25:34Z</time>
      </trkpt>
      <trkpt lat="43.7935" lon="6.34112">
        <ele>1083.6</ele>
        <time>2021-07-10T15:25:35Z</time>
      </trkpt>
      <trkpt lat="43.79342" lon="6.34113">
        <ele>1083.3</ele>
        <time>2021-07-10T15:25:36Z</time>
      </trkpt>
      <trkpt lat="43.79333" lon="6.34115">
        <ele>1080.6</ele>
        <time>2021-07-10T15:25:37Z</time>
      </trkpt>
      <trkpt lat="43.79324" lon="6.34116">
        <ele>1080.8</ele>
        <time>2021-07-10T15:25:38Z</time>
      </trkpt>
      <trkpt lat="43.79316" lon="6.34117">
        <ele>1080.4</ele>
        <time>2021-07-10T15:25:39Z</time>
      </trkpt>
      <trkpt lat="43.79308" lon="6.3412">
        <ele>1080.3</ele>
        <time>2021-07-10T15:25:40Z</time>
      </trkpt>
      <trkpt lat="43.79299" lon="6.34122">
        <ele>1079.3</ele>
        <time>2021-07-10T15:25:41Z</time>
      </trkpt>
      <trkpt lat="43.79291" lon="6.34124">
        <ele>1078.6</ele>
        <time>2021-07-10T15:25:42Z</time>
      </trkpt>
      <trkpt lat="43.79283" lon="6.34126">
        <ele>1078.3</ele>
        <time>2021-07-10T15:25:43Z</time>
      </trkpt>
      <trkpt lat="43.79274" lon="6.34128">
        <ele>1077.8</ele>
        <time>2021-07-10T15:25:44Z</time>
      </trkpt>
      <trkpt lat="43.79267" lon="6.3413">
        <ele>1077.5</ele>
        <time>2021-07-10T15:25:45Z</time>
      </trkpt>
      <trkpt lat="43.79259" lon="6.34133">
        <ele>1076.8</ele>
        <time>2021-07-10T15:25:46Z</time>
      </trkpt>
      <trkpt lat="43.79251" lon="6.34135">
        <ele>1076.4</ele>
        <time>2021-07-10T15:25:47Z</time>
      </trkpt>
      <trkpt lat="43.79243" lon="6.34138">
        <ele>1076.1</ele>
        <time>2021-07-10T15:25:48Z</time>
      </trkpt>
      <trkpt lat="43.79236" lon="6.34141">
        <ele>1075.4</ele>
        <time>2021-07-10T15:25:49Z</time>
      </trkpt>
      <trkpt lat="43.79228" lon="6.34144">
        <ele>1074.9</ele>
        <time>2021-07-10T15:25:50Z</time>
      </trkpt>
      <trkpt lat="43.7922" lon="6.34147">
        <ele>1074.4</ele>
        <time>2021-07-10T15:25:51Z</time>
      </trkpt>
      <trkpt lat="43.79212" lon="6.34148">
        <ele>1074</ele>
        <time>2021-07-10T15:25:52Z</time>
      </trkpt>
      <trkpt lat="43.79204" lon="6.3415">
        <ele>1073.8</ele>
        <time>2021-07-10T15:25:53Z</time>
      </trkpt>
      <trkpt lat="43.79196" lon="6.34151">
        <ele>1073.9</ele>
        <time>2021-07-10T15:25:54Z</time>
      </trkpt>
      <trkpt lat="43.79188" lon="6.34153">
        <ele>1074.2</ele>
        <time>2021-07-10T15:25:55Z</time>
      </trkpt>
      <trkpt lat="43.79179" lon="6.34154">
        <ele>1074</ele>
        <time>2021-07-10T15:25:56Z</time>
      </trkpt>
      <trkpt lat="43.79171" lon="6.34154">
        <ele>1073.7</ele>
        <time>2021-07-10T15:25:57Z</time>
      </trkpt>
      <trkpt lat="43.79162" lon="6.34153">
        <ele>1073.3</ele>
        <time>2021-07-10T15:25:58Z</time>
      </trkpt>
      <trkpt lat="43.79154" lon="6.34151">
        <ele>1072.7</ele>
        <time>2021-07-10T15:25:59Z</time>
      </trkpt>
      <trkpt lat="43.7914" lon="6.34148">
        <ele>1071.9</ele>
        <time>2021-07-10T15:26:01Z</time>
      </trkpt>
      <trkpt lat="43.79127" lon="6.34146">
        <ele>1071.4</ele>
        <time>2021-07-10T15:26:03Z</time>
      </trkpt>
      <trkpt lat="43.79119" lon="6.34143">
        <ele>1070.7</ele>
        <time>2021-07-10T15:26:04Z</time>
      </trkpt>
      <trkpt lat="43.79106" lon="6.34137">
        <ele>1069.7</ele>
        <time>2021-07-10T15:26:06Z</time>
      </trkpt>
      <trkpt lat="43.79094" lon="6.34134">
        <ele>1069.5</ele>
        <time>2021-07-10T15:26:08Z</time>
      </trkpt>
      <trkpt lat="43.7908" lon="6.34137">
        <ele>1068.7</ele>
        <time>2021-07-10T15:26:10Z</time>
      </trkpt>
      <trkpt lat="43.79066" lon="6.34139">
        <ele>1067.9</ele>
        <time>2021-07-10T15:26:12Z</time>
      </trkpt>
      <trkpt lat="43.79053" lon="6.3414">
        <ele>1067.6</ele>
        <time>2021-07-10T15:26:14Z</time>
      </trkpt>
      <trkpt lat="43.79039" lon="6.34143">
        <ele>1066.6</ele>
        <time>2021-07-10T15:26:16Z</time>
      </trkpt>
      <trkpt lat="43.79025" lon="6.34147">
        <ele>1066.1</ele>
        <time>2021-07-10T15:26:18Z</time>
      </trkpt>
      <trkpt lat="43.79012" lon="6.34154">
        <ele>1066.1</ele>
        <time>2021-07-10T15:26:20Z</time>
      </trkpt>
      <trkpt lat="43.79005" lon="6.34157">
        <ele>1065.6</ele>
        <time>2021-07-10T15:26:21Z</time>
      </trkpt>
      <trkpt lat="43.78997" lon="6.34159">
        <ele>1064.8</ele>
        <time>2021-07-10T15:26:22Z</time>
      </trkpt>
      <trkpt lat="43.78989" lon="6.34161">
        <ele>1064.3</ele>
        <time>2021-07-10T15:26:23Z</time>
      </trkpt>
      <trkpt lat="43.78981" lon="6.34162">
        <ele>1064</ele>
        <time>2021-07-10T15:26:24Z</time>
      </trkpt>
      <trkpt lat="43.78972" lon="6.34162">
        <ele>1064</ele>
        <time>2021-07-10T15:26:25Z</time>
      </trkpt>
      <trkpt lat="43.78963" lon="6.3416">
        <ele>1063.5</ele>
        <time>2021-07-10T15:26:26Z</time>
      </trkpt>
      <trkpt lat="43.78955" lon="6.3416">
        <ele>1063</ele>
        <time>2021-07-10T15:26:27Z</time>
      </trkpt>
      <trkpt lat="43.78947" lon="6.34157">
        <ele>1062.4</ele>
        <time>2021-07-10T15:26:28Z</time>
      </trkpt>
      <trkpt lat="43.78939" lon="6.34156">
        <ele>1061.6</ele>
        <time>2021-07-10T15:26:29Z</time>
      </trkpt>
      <trkpt lat="43.78932" lon="6.34155">
        <ele>1061.1</ele>
        <time>2021-07-10T15:26:30Z</time>
      </trkpt>
      <trkpt lat="43.78924" lon="6.34153">
        <ele>1060.4</ele>
        <time>2021-07-10T15:26:31Z</time>
      </trkpt>
      <trkpt lat="43.78917" lon="6.3415">
        <ele>1059.6</ele>
        <time>2021-07-10T15:26:32Z</time>
      </trkpt>
      <trkpt lat="43.7891" lon="6.34145">
        <ele>1059.4</ele>
        <time>2021-07-10T15:26:33Z</time>
      </trkpt>
      <trkpt lat="43.78904" lon="6.34139">
        <ele>1058.8</ele>
        <time>2021-07-10T15:26:34Z</time>
      </trkpt>
      <trkpt lat="43.78898" lon="6.34133">
        <ele>1058.4</ele>
        <time>2021-07-10T15:26:35Z</time>
      </trkpt>
      <trkpt lat="43.78892" lon="6.34126">
        <ele>1057.9</ele>
        <time>2021-07-10T15:26:36Z</time>
      </trkpt>
      <trkpt lat="43.78887" lon="6.34119">
        <ele>1057.5</ele>
        <time>2021-07-10T15:26:37Z</time>
      </trkpt>
      <trkpt lat="43.78882" lon="6.34111">
        <ele>1057.3</ele>
        <time>2021-07-10T15:26:38Z</time>
      </trkpt>
      <trkpt lat="43.78878" lon="6.34102">
        <ele>1056.9</ele>
        <time>2021-07-10T15:26:39Z</time>
      </trkpt>
      <trkpt lat="43.78875" lon="6.34092">
        <ele>1056.7</ele>
        <time>2021-07-10T15:26:40Z</time>
      </trkpt>
      <trkpt lat="43.78872" lon="6.34074">
        <ele>1056.4</ele>
        <time>2021-07-10T15:26:42Z</time>
      </trkpt>
      <trkpt lat="43.78864" lon="6.3406">
        <ele>1056.9</ele>
        <time>2021-07-10T15:26:44Z</time>
      </trkpt>
      <trkpt lat="43.78851" lon="6.34052">
        <ele>1055.7</ele>
        <time>2021-07-10T15:26:46Z</time>
      </trkpt>
      <trkpt lat="43.78844" lon="6.34049">
        <ele>1055.1</ele>
        <time>2021-07-10T15:26:47Z</time>
      </trkpt>
      <trkpt lat="43.78836" lon="6.34047">
        <ele>1054.7</ele>
        <time>2021-07-10T15:26:48Z</time>
      </trkpt>
      <trkpt lat="43.78824" lon="6.34037">
        <ele>1053.1</ele>
        <time>2021-07-10T15:26:50Z</time>
      </trkpt>
      <trkpt lat="43.78819" lon="6.34029">
        <ele>1052.3</ele>
        <time>2021-07-10T15:26:51Z</time>
      </trkpt>
      <trkpt lat="43.78816" lon="6.3402">
        <ele>1051.4</ele>
        <time>2021-07-10T15:26:52Z</time>
      </trkpt>
      <trkpt lat="43.78813" lon="6.3401">
        <ele>1050.9</ele>
        <time>2021-07-10T15:26:53Z</time>
      </trkpt>
      <trkpt lat="43.7881" lon="6.34001">
        <ele>1050.4</ele>
        <time>2021-07-10T15:26:54Z</time>
      </trkpt>
      <trkpt lat="43.78801" lon="6.33985">
        <ele>1049.9</ele>
        <time>2021-07-10T15:26:56Z</time>
      </trkpt>
      <trkpt lat="43.78795" lon="6.33978">
        <ele>1049.3</ele>
        <time>2021-07-10T15:26:57Z</time>
      </trkpt>
      <trkpt lat="43.78783" lon="6.3397">
        <ele>1047.8</ele>
        <time>2021-07-10T15:26:59Z</time>
      </trkpt>
      <trkpt lat="43.78772" lon="6.33963">
        <ele>1047.4</ele>
        <time>2021-07-10T15:27:01Z</time>
      </trkpt>
      <trkpt lat="43.78763" lon="6.33954">
        <ele>1047.2</ele>
        <time>2021-07-10T15:27:03Z</time>
      </trkpt>
      <trkpt lat="43.78756" lon="6.3394">
        <ele>1046.6</ele>
        <time>2021-07-10T15:27:05Z</time>
      </trkpt>
      <trkpt lat="43.78748" lon="6.33925">
        <ele>1046</ele>
        <time>2021-07-10T15:27:07Z</time>
      </trkpt>
      <trkpt lat="43.7874" lon="6.33909">
        <ele>1044.8</ele>
        <time>2021-07-10T15:27:09Z</time>
      </trkpt>
      <trkpt lat="43.78733" lon="6.33893">
        <ele>1043.3</ele>
        <time>2021-07-10T15:27:11Z</time>
      </trkpt>
      <trkpt lat="43.78721" lon="6.33886">
        <ele>1041.5</ele>
        <time>2021-07-10T15:27:13Z</time>
      </trkpt>
      <trkpt lat="43.78714" lon="6.33886">
        <ele>1041</ele>
        <time>2021-07-10T15:27:14Z</time>
      </trkpt>
      <trkpt lat="43.78705" lon="6.33888">
        <ele>1040.2</ele>
        <time>2021-07-10T15:27:15Z</time>
      </trkpt>
      <trkpt lat="43.78698" lon="6.33892">
        <ele>1039.6</ele>
        <time>2021-07-10T15:27:16Z</time>
      </trkpt>
      <trkpt lat="43.78691" lon="6.33895">
        <ele>1038.8</ele>
        <time>2021-07-10T15:27:17Z</time>
      </trkpt>
      <trkpt lat="43.78677" lon="6.33901">
        <ele>1037.7</ele>
        <time>2021-07-10T15:27:19Z</time>
      </trkpt>
      <trkpt lat="43.78669" lon="6.33902">
        <ele>1037.1</ele>
        <time>2021-07-10T15:27:20Z</time>
      </trkpt>
      <trkpt lat="43.78662" lon="6.33904">
        <ele>1036.6</ele>
        <time>2021-07-10T15:27:21Z</time>
      </trkpt>
      <trkpt lat="43.78654" lon="6.33904">
        <ele>1036.2</ele>
        <time>2021-07-10T15:27:22Z</time>
      </trkpt>
      <trkpt lat="43.78641" lon="6.33905">
        <ele>1035.4</ele>
        <time>2021-07-10T15:27:24Z</time>
      </trkpt>
      <trkpt lat="43.78628" lon="6.339">
        <ele>1034.3</ele>
        <time>2021-07-10T15:27:26Z</time>
      </trkpt>
      <trkpt lat="43.78621" lon="6.33896">
        <ele>1033.4</ele>
        <time>2021-07-10T15:27:27Z</time>
      </trkpt>
      <trkpt lat="43.78614" lon="6.3389">
        <ele>1032.4</ele>
        <time>2021-07-10T15:27:28Z</time>
      </trkpt>
      <trkpt lat="43.78605" lon="6.33886">
        <ele>1031.5</ele>
        <time>2021-07-10T15:27:29Z</time>
      </trkpt>
      <trkpt lat="43.78597" lon="6.33883">
        <ele>1030.8</ele>
        <time>2021-07-10T15:27:30Z</time>
      </trkpt>
      <trkpt lat="43.78587" lon="6.33882">
        <ele>1030.4</ele>
        <time>2021-07-10T15:27:31Z</time>
      </trkpt>
      <trkpt lat="43.78578" lon="6.33883">
        <ele>1030</ele>
        <time>2021-07-10T15:27:32Z</time>
      </trkpt>
      <trkpt lat="43.78569" lon="6.33886">
        <ele>1029.8</ele>
        <time>2021-07-10T15:27:33Z</time>
      </trkpt>
      <trkpt lat="43.78561" lon="6.33892">
        <ele>1029.8</ele>
        <time>2021-07-10T15:27:34Z</time>
      </trkpt>
      <trkpt lat="43.78554" lon="6.33897">
        <ele>1029.9</ele>
        <time>2021-07-10T15:27:35Z</time>
      </trkpt>
      <trkpt lat="43.78546" lon="6.33903">
        <ele>1029.1</ele>
        <time>2021-07-10T15:27:36Z</time>
      </trkpt>
      <trkpt lat="43.78534" lon="6.33913">
        <ele>1028.5</ele>
        <time>2021-07-10T15:27:38Z</time>
      </trkpt>
      <trkpt lat="43.78522" lon="6.33922">
        <ele>1028.9</ele>
        <time>2021-07-10T15:27:40Z</time>
      </trkpt>
      <trkpt lat="43.7851" lon="6.33928">
        <ele>1028.8</ele>
        <time>2021-07-10T15:27:42Z</time>
      </trkpt>
      <trkpt lat="43.78499" lon="6.33935">
        <ele>1028.6</ele>
        <time>2021-07-10T15:27:44Z</time>
      </trkpt>
      <trkpt lat="43.78487" lon="6.33941">
        <ele>1027.6</ele>
        <time>2021-07-10T15:27:46Z</time>
      </trkpt>
      <trkpt lat="43.78475" lon="6.33947">
        <ele>1028.3</ele>
        <time>2021-07-10T15:27:48Z</time>
      </trkpt>
      <trkpt lat="43.78462" lon="6.33954">
        <ele>1027.6</ele>
        <time>2021-07-10T15:27:50Z</time>
      </trkpt>
      <trkpt lat="43.78455" lon="6.33957">
        <ele>1027</ele>
        <time>2021-07-10T15:27:51Z</time>
      </trkpt>
      <trkpt lat="43.78442" lon="6.3396">
        <ele>1025.8</ele>
        <time>2021-07-10T15:27:53Z</time>
      </trkpt>
      <trkpt lat="43.78434" lon="6.3396">
        <ele>1024.9</ele>
        <time>2021-07-10T15:27:54Z</time>
      </trkpt>
      <trkpt lat="43.78426" lon="6.3396">
        <ele>1024.3</ele>
        <time>2021-07-10T15:27:55Z</time>
      </trkpt>
      <trkpt lat="43.78417" lon="6.3396">
        <ele>1023.2</ele>
        <time>2021-07-10T15:27:56Z</time>
      </trkpt>
      <trkpt lat="43.78409" lon="6.33959">
        <ele>1022.2</ele>
        <time>2021-07-10T15:27:57Z</time>
      </trkpt>
      <trkpt lat="43.78401" lon="6.33958">
        <ele>1022</ele>
        <time>2021-07-10T15:27:58Z</time>
      </trkpt>
      <trkpt lat="43.78393" lon="6.33957">
        <ele>1021.7</ele>
        <time>2021-07-10T15:27:59Z</time>
      </trkpt>
      <trkpt lat="43.78386" lon="6.33955">
        <ele>1021.3</ele>
        <time>2021-07-10T15:28:00Z</time>
      </trkpt>
      <trkpt lat="43.78378" lon="6.33956">
        <ele>1020.7</ele>
        <time>2021-07-10T15:28:01Z</time>
      </trkpt>
      <trkpt lat="43.7837" lon="6.33959">
        <ele>1019.9</ele>
        <time>2021-07-10T15:28:02Z</time>
      </trkpt>
      <trkpt lat="43.78363" lon="6.33964">
        <ele>1019.5</ele>
        <time>2021-07-10T15:28:03Z</time>
      </trkpt>
      <trkpt lat="43.78356" lon="6.33972">
        <ele>1019.2</ele>
        <time>2021-07-10T15:28:04Z</time>
      </trkpt>
      <trkpt lat="43.7835" lon="6.33979">
        <ele>1018.6</ele>
        <time>2021-07-10T15:28:05Z</time>
      </trkpt>
      <trkpt lat="43.78343" lon="6.33987">
        <ele>1018.5</ele>
        <time>2021-07-10T15:28:06Z</time>
      </trkpt>
      <trkpt lat="43.78337" lon="6.33994">
        <ele>1018.5</ele>
        <time>2021-07-10T15:28:07Z</time>
      </trkpt>
      <trkpt lat="43.78332" lon="6.34001">
        <ele>1018.6</ele>
        <time>2021-07-10T15:28:08Z</time>
      </trkpt>
      <trkpt lat="43.78327" lon="6.34009">
        <ele>1017.4</ele>
        <time>2021-07-10T15:28:09Z</time>
      </trkpt>
      <trkpt lat="43.78322" lon="6.34028">
        <ele>1017.8</ele>
        <time>2021-07-10T15:28:11Z</time>
      </trkpt>
      <trkpt lat="43.7832" lon="6.34038">
        <ele>1017.5</ele>
        <time>2021-07-10T15:28:12Z</time>
      </trkpt>
      <trkpt lat="43.78315" lon="6.34055">
        <ele>1016.6</ele>
        <time>2021-07-10T15:28:14Z</time>
      </trkpt>
      <trkpt lat="43.78306" lon="6.34068">
        <ele>1015.1</ele>
        <time>2021-07-10T15:28:16Z</time>
      </trkpt>
      <trkpt lat="43.78295" lon="6.34073">
        <ele>1014.4</ele>
        <time>2021-07-10T15:28:18Z</time>
      </trkpt>
      <trkpt lat="43.78284" lon="6.34071">
        <ele>1013.9</ele>
        <time>2021-07-10T15:28:20Z</time>
      </trkpt>
      <trkpt lat="43.78275" lon="6.34065">
        <ele>1014.1</ele>
        <time>2021-07-10T15:28:22Z</time>
      </trkpt>
      <trkpt lat="43.78267" lon="6.34055">
        <ele>1014</ele>
        <time>2021-07-10T15:28:24Z</time>
      </trkpt>
      <trkpt lat="43.7826" lon="6.34046">
        <ele>1013.8</ele>
        <time>2021-07-10T15:28:26Z</time>
      </trkpt>
      <trkpt lat="43.78255" lon="6.34036">
        <ele>1013.8</ele>
        <time>2021-07-10T15:28:28Z</time>
      </trkpt>
      <trkpt lat="43.78249" lon="6.34027">
        <ele>1013.9</ele>
        <time>2021-07-10T15:28:30Z</time>
      </trkpt>
      <trkpt lat="43.78243" lon="6.34017">
        <ele>1014.3</ele>
        <time>2021-07-10T15:28:32Z</time>
      </trkpt>
      <trkpt lat="43.78238" lon="6.34009">
        <ele>1014.7</ele>
        <time>2021-07-10T15:28:34Z</time>
      </trkpt>
      <trkpt lat="43.78233" lon="6.33998">
        <ele>1014.7</ele>
        <time>2021-07-10T15:28:36Z</time>
      </trkpt>
      <trkpt lat="43.78227" lon="6.33988">
        <ele>1014.2</ele>
        <time>2021-07-10T15:28:38Z</time>
      </trkpt>
      <trkpt lat="43.7822" lon="6.33976">
        <ele>1013.8</ele>
        <time>2021-07-10T15:28:40Z</time>
      </trkpt>
      <trkpt lat="43.78213" lon="6.33963">
        <ele>1013.1</ele>
        <time>2021-07-10T15:28:42Z</time>
      </trkpt>
      <trkpt lat="43.78205" lon="6.33948">
        <ele>1011.9</ele>
        <time>2021-07-10T15:28:44Z</time>
      </trkpt>
      <trkpt lat="43.78195" lon="6.33934">
        <ele>1011.6</ele>
        <time>2021-07-10T15:28:46Z</time>
      </trkpt>
      <trkpt lat="43.78187" lon="6.33923">
        <ele>1011.6</ele>
        <time>2021-07-10T15:28:48Z</time>
      </trkpt>
      <trkpt lat="43.78182" lon="6.33915">
        <ele>1011.6</ele>
        <time>2021-07-10T15:28:49Z</time>
      </trkpt>
      <trkpt lat="43.78173" lon="6.33899">
        <ele>1010.6</ele>
        <time>2021-07-10T15:28:51Z</time>
      </trkpt>
      <trkpt lat="43.78161" lon="6.33884">
        <ele>1009.2</ele>
        <time>2021-07-10T15:28:53Z</time>
      </trkpt>
      <trkpt lat="43.78151" lon="6.3387">
        <ele>1008.8</ele>
        <time>2021-07-10T15:28:55Z</time>
      </trkpt>
      <trkpt lat="43.78142" lon="6.33859">
        <ele>1007.4</ele>
        <time>2021-07-10T15:28:57Z</time>
      </trkpt>
      <trkpt lat="43.78133" lon="6.33848">
        <ele>1006.4</ele>
        <time>2021-07-10T15:28:59Z</time>
      </trkpt>
      <trkpt lat="43.78127" lon="6.33841">
        <ele>1006.1</ele>
        <time>2021-07-10T15:29:00Z</time>
      </trkpt>
      <trkpt lat="43.78117" lon="6.33832">
        <ele>1007.7</ele>
        <time>2021-07-10T15:29:02Z</time>
      </trkpt>
      <trkpt lat="43.78108" lon="6.33819">
        <ele>1008</ele>
        <time>2021-07-10T15:29:04Z</time>
      </trkpt>
      <trkpt lat="43.78099" lon="6.3381">
        <ele>1007.8</ele>
        <time>2021-07-10T15:29:06Z</time>
      </trkpt>
      <trkpt lat="43.78089" lon="6.33802">
        <ele>1007.3</ele>
        <time>2021-07-10T15:29:08Z</time>
      </trkpt>
      <trkpt lat="43.78079" lon="6.33793">
        <ele>1007.3</ele>
        <time>2021-07-10T15:29:10Z</time>
      </trkpt>
      <trkpt lat="43.78068" lon="6.33785">
        <ele>1006.5</ele>
        <time>2021-07-10T15:29:12Z</time>
      </trkpt>
      <trkpt lat="43.78055" lon="6.33777">
        <ele>1004.1</ele>
        <time>2021-07-10T15:29:14Z</time>
      </trkpt>
      <trkpt lat="43.78043" lon="6.3377">
        <ele>1003.2</ele>
        <time>2021-07-10T15:29:16Z</time>
      </trkpt>
      <trkpt lat="43.78034" lon="6.33763">
        <ele>1002.2</ele>
        <time>2021-07-10T15:29:18Z</time>
      </trkpt>
      <trkpt lat="43.78025" lon="6.33766">
        <ele>1000.6</ele>
        <time>2021-07-10T15:29:20Z</time>
      </trkpt>
      <trkpt lat="43.78016" lon="6.3378">
        <ele>999.3</ele>
        <time>2021-07-10T15:29:22Z</time>
      </trkpt>
      <trkpt lat="43.78013" lon="6.3379">
        <ele>998</ele>
        <time>2021-07-10T15:29:23Z</time>
      </trkpt>
      <trkpt lat="43.7801" lon="6.33799">
        <ele>997.1</ele>
        <time>2021-07-10T15:29:24Z</time>
      </trkpt>
      <trkpt lat="43.78008" lon="6.33809">
        <ele>996.5</ele>
        <time>2021-07-10T15:29:25Z</time>
      </trkpt>
      <trkpt lat="43.78005" lon="6.33827">
        <ele>995.7</ele>
        <time>2021-07-10T15:29:27Z</time>
      </trkpt>
      <trkpt lat="43.78002" lon="6.33846">
        <ele>994.4</ele>
        <time>2021-07-10T15:29:29Z</time>
      </trkpt>
      <trkpt lat="43.78" lon="6.33863">
        <ele>992.9</ele>
        <time>2021-07-10T15:29:31Z</time>
      </trkpt>
      <trkpt lat="43.77998" lon="6.33873">
        <ele>992.8</ele>
        <time>2021-07-10T15:29:32Z</time>
      </trkpt>
      <trkpt lat="43.77995" lon="6.33889">
        <ele>992.3</ele>
        <time>2021-07-10T15:29:34Z</time>
      </trkpt>
      <trkpt lat="43.77991" lon="6.33902">
        <ele>990.9</ele>
        <time>2021-07-10T15:29:36Z</time>
      </trkpt>
      <trkpt lat="43.77988" lon="6.33915">
        <ele>990.1</ele>
        <time>2021-07-10T15:29:38Z</time>
      </trkpt>
      <trkpt lat="43.77983" lon="6.33925">
        <ele>989.5</ele>
        <time>2021-07-10T15:29:40Z</time>
      </trkpt>
      <trkpt lat="43.77978" lon="6.33938">
        <ele>989.6</ele>
        <time>2021-07-10T15:29:42Z</time>
      </trkpt>
      <trkpt lat="43.77972" lon="6.3395">
        <ele>988.5</ele>
        <time>2021-07-10T15:29:44Z</time>
      </trkpt>
      <trkpt lat="43.77967" lon="6.33958">
        <ele>987.4</ele>
        <time>2021-07-10T15:29:46Z</time>
      </trkpt>
      <trkpt lat="43.77964" lon="6.33969">
        <ele>986.6</ele>
        <time>2021-07-10T15:29:49Z</time>
      </trkpt>
      <trkpt lat="43.77966" lon="6.33981">
        <ele>986.2</ele>
        <time>2021-07-10T15:29:52Z</time>
      </trkpt>
      <trkpt lat="43.77971" lon="6.33993">
        <ele>985.5</ele>
        <time>2021-07-10T15:29:55Z</time>
      </trkpt>
      <trkpt lat="43.77975" lon="6.34005">
        <ele>985.8</ele>
        <time>2021-07-10T15:29:58Z</time>
      </trkpt>
      <trkpt lat="43.77977" lon="6.34017">
        <ele>985.5</ele>
        <time>2021-07-10T15:30:02Z</time>
      </trkpt>
      <trkpt lat="43.77982" lon="6.34028">
        <ele>985.1</ele>
        <time>2021-07-10T15:30:05Z</time>
      </trkpt>
      <trkpt lat="43.77984" lon="6.34041">
        <ele>984.4</ele>
        <time>2021-07-10T15:30:08Z</time>
      </trkpt>
      <trkpt lat="43.77985" lon="6.34055">
        <ele>985.6</ele>
        <time>2021-07-10T15:30:11Z</time>
      </trkpt>
      <trkpt lat="43.77985" lon="6.34065">
        <ele>985.6</ele>
        <time>2021-07-10T15:30:13Z</time>
      </trkpt>
      <trkpt lat="43.77985" lon="6.34075">
        <ele>985</ele>
        <time>2021-07-10T15:30:15Z</time>
      </trkpt>
      <trkpt lat="43.7799" lon="6.34087">
        <ele>985.4</ele>
        <time>2021-07-10T15:30:18Z</time>
      </trkpt>
      <trkpt lat="43.77995" lon="6.34099">
        <ele>984.3</ele>
        <time>2021-07-10T15:30:21Z</time>
      </trkpt>
      <trkpt lat="43.78" lon="6.34109">
        <ele>984.4</ele>
        <time>2021-07-10T15:30:24Z</time>
      </trkpt>
      <trkpt lat="43.78004" lon="6.34119">
        <ele>985.1</ele>
        <time>2021-07-10T15:30:27Z</time>
      </trkpt>
      <trkpt lat="43.78009" lon="6.3413">
        <ele>984.1</ele>
        <time>2021-07-10T15:30:30Z</time>
      </trkpt>
      <trkpt lat="43.78014" lon="6.34139">
        <ele>984.6</ele>
        <time>2021-07-10T15:30:33Z</time>
      </trkpt>
      <trkpt lat="43.78016" lon="6.34153">
        <ele>984.8</ele>
        <time>2021-07-10T15:30:36Z</time>
      </trkpt>
      <trkpt lat="43.7802" lon="6.34166">
        <ele>984.3</ele>
        <time>2021-07-10T15:30:39Z</time>
      </trkpt>
      <trkpt lat="43.78022" lon="6.34177">
        <ele>984.3</ele>
        <time>2021-07-10T15:30:42Z</time>
      </trkpt>
      <trkpt lat="43.78023" lon="6.34189">
        <ele>983.7</ele>
        <time>2021-07-10T15:30:45Z</time>
      </trkpt>
      <trkpt lat="43.78026" lon="6.34201">
        <ele>983.8</ele>
        <time>2021-07-10T15:30:48Z</time>
      </trkpt>
      <trkpt lat="43.78028" lon="6.34212">
        <ele>982.5</ele>
        <time>2021-07-10T15:30:51Z</time>
      </trkpt>
      <trkpt lat="43.7803" lon="6.34223">
        <ele>982.3</ele>
        <time>2021-07-10T15:30:53Z</time>
      </trkpt>
      <trkpt lat="43.78032" lon="6.34235">
        <ele>982.3</ele>
        <time>2021-07-10T15:30:55Z</time>
      </trkpt>
      <trkpt lat="43.78034" lon="6.34246">
        <ele>981.8</ele>
        <time>2021-07-10T15:30:57Z</time>
      </trkpt>
      <trkpt lat="43.78036" lon="6.34259">
        <ele>982.2</ele>
        <time>2021-07-10T15:30:59Z</time>
      </trkpt>
      <trkpt lat="43.78038" lon="6.34272">
        <ele>981.9</ele>
        <time>2021-07-10T15:31:01Z</time>
      </trkpt>
      <trkpt lat="43.78042" lon="6.34285">
        <ele>980.9</ele>
        <time>2021-07-10T15:31:03Z</time>
      </trkpt>
      <trkpt lat="43.78047" lon="6.34296">
        <ele>980.3</ele>
        <time>2021-07-10T15:31:05Z</time>
      </trkpt>
      <trkpt lat="43.78053" lon="6.34303">
        <ele>979.6</ele>
        <time>2021-07-10T15:31:07Z</time>
      </trkpt>
      <trkpt lat="43.78059" lon="6.34312">
        <ele>978.2</ele>
        <time>2021-07-10T15:31:09Z</time>
      </trkpt>
      <trkpt lat="43.78065" lon="6.3432">
        <ele>976.4</ele>
        <time>2021-07-10T15:31:11Z</time>
      </trkpt>
      <trkpt lat="43.78073" lon="6.34331">
        <ele>975.5</ele>
        <time>2021-07-10T15:31:13Z</time>
      </trkpt>
      <trkpt lat="43.78083" lon="6.34344">
        <ele>974</ele>
        <time>2021-07-10T15:31:15Z</time>
      </trkpt>
      <trkpt lat="43.78088" lon="6.34351">
        <ele>973.1</ele>
        <time>2021-07-10T15:31:16Z</time>
      </trkpt>
      <trkpt lat="43.78094" lon="6.3436">
        <ele>972.5</ele>
        <time>2021-07-10T15:31:17Z</time>
      </trkpt>
      <trkpt lat="43.781" lon="6.34368">
        <ele>971.8</ele>
        <time>2021-07-10T15:31:18Z</time>
      </trkpt>
      <trkpt lat="43.78106" lon="6.34376">
        <ele>970.9</ele>
        <time>2021-07-10T15:31:19Z</time>
      </trkpt>
      <trkpt lat="43.78114" lon="6.34386">
        <ele>970.3</ele>
        <time>2021-07-10T15:31:20Z</time>
      </trkpt>
      <trkpt lat="43.78121" lon="6.34395">
        <ele>969.5</ele>
        <time>2021-07-10T15:31:21Z</time>
      </trkpt>
      <trkpt lat="43.78128" lon="6.34406">
        <ele>968.9</ele>
        <time>2021-07-10T15:31:22Z</time>
      </trkpt>
      <trkpt lat="43.78134" lon="6.34416">
        <ele>966.8</ele>
        <time>2021-07-10T15:31:23Z</time>
      </trkpt>
      <trkpt lat="43.7814" lon="6.34425">
        <ele>965.8</ele>
        <time>2021-07-10T15:31:24Z</time>
      </trkpt>
      <trkpt lat="43.78148" lon="6.34435">
        <ele>965.1</ele>
        <time>2021-07-10T15:31:25Z</time>
      </trkpt>
      <trkpt lat="43.78155" lon="6.34446">
        <ele>964.6</ele>
        <time>2021-07-10T15:31:26Z</time>
      </trkpt>
      <trkpt lat="43.78161" lon="6.34456">
        <ele>963.8</ele>
        <time>2021-07-10T15:31:27Z</time>
      </trkpt>
      <trkpt lat="43.7817" lon="6.34468">
        <ele>963.7</ele>
        <time>2021-07-10T15:31:28Z</time>
      </trkpt>
      <trkpt lat="43.78178" lon="6.34479">
        <ele>963.9</ele>
        <time>2021-07-10T15:31:29Z</time>
      </trkpt>
      <trkpt lat="43.78185" lon="6.3449">
        <ele>963.9</ele>
        <time>2021-07-10T15:31:30Z</time>
      </trkpt>
      <trkpt lat="43.7819" lon="6.34502">
        <ele>963.6</ele>
        <time>2021-07-10T15:31:31Z</time>
      </trkpt>
      <trkpt lat="43.78195" lon="6.34515">
        <ele>963.1</ele>
        <time>2021-07-10T15:31:32Z</time>
      </trkpt>
      <trkpt lat="43.78197" lon="6.34528">
        <ele>963.5</ele>
        <time>2021-07-10T15:31:33Z</time>
      </trkpt>
      <trkpt lat="43.78198" lon="6.34542">
        <ele>962.9</ele>
        <time>2021-07-10T15:31:34Z</time>
      </trkpt>
      <trkpt lat="43.78198" lon="6.34556">
        <ele>963.1</ele>
        <time>2021-07-10T15:31:35Z</time>
      </trkpt>
      <trkpt lat="43.78197" lon="6.34568">
        <ele>962.8</ele>
        <time>2021-07-10T15:31:36Z</time>
      </trkpt>
      <trkpt lat="43.78195" lon="6.3458">
        <ele>962.5</ele>
        <time>2021-07-10T15:31:37Z</time>
      </trkpt>
      <trkpt lat="43.78192" lon="6.34591">
        <ele>962.2</ele>
        <time>2021-07-10T15:31:38Z</time>
      </trkpt>
      <trkpt lat="43.78188" lon="6.34604">
        <ele>962.5</ele>
        <time>2021-07-10T15:31:39Z</time>
      </trkpt>
      <trkpt lat="43.78185" lon="6.34615">
        <ele>962.6</ele>
        <time>2021-07-10T15:31:40Z</time>
      </trkpt>
      <trkpt lat="43.7818" lon="6.34625">
        <ele>962.4</ele>
        <time>2021-07-10T15:31:41Z</time>
      </trkpt>
      <trkpt lat="43.78175" lon="6.34634">
        <ele>962.2</ele>
        <time>2021-07-10T15:31:42Z</time>
      </trkpt>
      <trkpt lat="43.78172" lon="6.34644">
        <ele>960.9</ele>
        <time>2021-07-10T15:31:43Z</time>
      </trkpt>
      <trkpt lat="43.78167" lon="6.34652">
        <ele>960.6</ele>
        <time>2021-07-10T15:31:44Z</time>
      </trkpt>
      <trkpt lat="43.78163" lon="6.34661">
        <ele>960.9</ele>
        <time>2021-07-10T15:31:45Z</time>
      </trkpt>
      <trkpt lat="43.78158" lon="6.34671">
        <ele>960.6</ele>
        <time>2021-07-10T15:31:46Z</time>
      </trkpt>
      <trkpt lat="43.78152" lon="6.34679">
        <ele>960.1</ele>
        <time>2021-07-10T15:31:47Z</time>
      </trkpt>
      <trkpt lat="43.78147" lon="6.34688">
        <ele>959.6</ele>
        <time>2021-07-10T15:31:48Z</time>
      </trkpt>
      <trkpt lat="43.78142" lon="6.34697">
        <ele>959.1</ele>
        <time>2021-07-10T15:31:49Z</time>
      </trkpt>
      <trkpt lat="43.78137" lon="6.34706">
        <ele>958.8</ele>
        <time>2021-07-10T15:31:50Z</time>
      </trkpt>
      <trkpt lat="43.78133" lon="6.34714">
        <ele>958.3</ele>
        <time>2021-07-10T15:31:51Z</time>
      </trkpt>
      <trkpt lat="43.78128" lon="6.34723">
        <ele>958</ele>
        <time>2021-07-10T15:31:52Z</time>
      </trkpt>
      <trkpt lat="43.78124" lon="6.34732">
        <ele>958.2</ele>
        <time>2021-07-10T15:31:53Z</time>
      </trkpt>
      <trkpt lat="43.7812" lon="6.3474">
        <ele>957.3</ele>
        <time>2021-07-10T15:31:54Z</time>
      </trkpt>
      <trkpt lat="43.78116" lon="6.34749">
        <ele>957.1</ele>
        <time>2021-07-10T15:31:55Z</time>
      </trkpt>
      <trkpt lat="43.78112" lon="6.34759">
        <ele>957.1</ele>
        <time>2021-07-10T15:31:56Z</time>
      </trkpt>
      <trkpt lat="43.78107" lon="6.34768">
        <ele>956.8</ele>
        <time>2021-07-10T15:31:57Z</time>
      </trkpt>
      <trkpt lat="43.78104" lon="6.34778">
        <ele>956.8</ele>
        <time>2021-07-10T15:31:58Z</time>
      </trkpt>
      <trkpt lat="43.78099" lon="6.34787">
        <ele>956.5</ele>
        <time>2021-07-10T15:31:59Z</time>
      </trkpt>
      <trkpt lat="43.78095" lon="6.34797">
        <ele>956</ele>
        <time>2021-07-10T15:32:00Z</time>
      </trkpt>
      <trkpt lat="43.7809" lon="6.34806">
        <ele>954.9</ele>
        <time>2021-07-10T15:32:01Z</time>
      </trkpt>
      <trkpt lat="43.78085" lon="6.34816">
        <ele>954.6</ele>
        <time>2021-07-10T15:32:02Z</time>
      </trkpt>
      <trkpt lat="43.78082" lon="6.34825">
        <ele>954.4</ele>
        <time>2021-07-10T15:32:03Z</time>
      </trkpt>
      <trkpt lat="43.78077" lon="6.34835">
        <ele>953.9</ele>
        <time>2021-07-10T15:32:04Z</time>
      </trkpt>
      <trkpt lat="43.78073" lon="6.34844">
        <ele>953.1</ele>
        <time>2021-07-10T15:32:05Z</time>
      </trkpt>
      <trkpt lat="43.78069" lon="6.34853">
        <ele>952.7</ele>
        <time>2021-07-10T15:32:06Z</time>
      </trkpt>
      <trkpt lat="43.78062" lon="6.3487">
        <ele>952.3</ele>
        <time>2021-07-10T15:32:08Z</time>
      </trkpt>
      <trkpt lat="43.78055" lon="6.34883">
        <ele>951.8</ele>
        <time>2021-07-10T15:32:10Z</time>
      </trkpt>
      <trkpt lat="43.78047" lon="6.34893">
        <ele>951.5</ele>
        <time>2021-07-10T15:32:12Z</time>
      </trkpt>
      <trkpt lat="43.78039" lon="6.34895">
        <ele>951.3</ele>
        <time>2021-07-10T15:32:14Z</time>
      </trkpt>
      <trkpt lat="43.7803" lon="6.34887">
        <ele>950.6</ele>
        <time>2021-07-10T15:32:16Z</time>
      </trkpt>
      <trkpt lat="43.78025" lon="6.34874">
        <ele>949.7</ele>
        <time>2021-07-10T15:32:18Z</time>
      </trkpt>
      <trkpt lat="43.78025" lon="6.34862">
        <ele>950.2</ele>
        <time>2021-07-10T15:32:20Z</time>
      </trkpt>
      <trkpt lat="43.78027" lon="6.34852">
        <ele>950.6</ele>
        <time>2021-07-10T15:32:22Z</time>
      </trkpt>
      <trkpt lat="43.7803" lon="6.3484">
        <ele>950.8</ele>
        <time>2021-07-10T15:32:24Z</time>
      </trkpt>
      <trkpt lat="43.78035" lon="6.34827">
        <ele>952.2</ele>
        <time>2021-07-10T15:32:26Z</time>
      </trkpt>
      <trkpt lat="43.78038" lon="6.34818">
        <ele>953.3</ele>
        <time>2021-07-10T15:32:28Z</time>
      </trkpt>
      <trkpt lat="43.78045" lon="6.34811">
        <ele>953.2</ele>
        <time>2021-07-10T15:32:30Z</time>
      </trkpt>
      <trkpt lat="43.78052" lon="6.34808">
        <ele>953.3</ele>
        <time>2021-07-10T15:32:32Z</time>
      </trkpt>
      <trkpt lat="43.78059" lon="6.34818">
        <ele>952.7</ele>
        <time>2021-07-10T15:32:35Z</time>
      </trkpt>
      <trkpt lat="43.78058" lon="6.3483">
        <ele>951.9</ele>
        <time>2021-07-10T15:32:38Z</time>
      </trkpt>
      <trkpt lat="43.78053" lon="6.34842">
        <ele>949.7</ele>
        <time>2021-07-10T15:32:41Z</time>
      </trkpt>
      <trkpt lat="43.78047" lon="6.3485">
        <ele>949.6</ele>
        <time>2021-07-10T15:32:44Z</time>
      </trkpt>
      <trkpt lat="43.78045" lon="6.3485">
        <ele>950</ele>
        <time>2021-07-10T15:32:51Z</time>
      </trkpt>
      <trkpt lat="43.78045" lon="6.34849">
        <ele>949.9</ele>
        <time>2021-07-10T15:32:53Z</time>
      </trkpt>
      <trkpt lat="43.78046" lon="6.34845">
        <ele>948.2</ele>
        <time>2021-07-10T15:33:01Z</time>
      </trkpt>
    </trkseg>
  </trk>
</gpx>